<?xml version="1.0" encoding="UTF-8" standalone="no" ?>
<gpx xmlns="http://www.topografix.com/GPX/1/1" xmlns:xsi="http://www.w3.org/2001/XMLSchema-instance" xsi:schemaLocation="http://www.topografix.com/GPX/1/1 http://www.topografix.com/GPX/1/1/gpx.xsd" version="1.1" creator="VisuGPX - https://www.visugpx.com">
  <metadata>
    <name>SO-N-Bouaye St Mars Coutais L'Ervoirie St Hilaire de Chaléons La Tartouzerie Arthon Haute Perche Le Pont du Clion St Père en Retz Corsept Paimboeuf Le Pellerin La Montagne</name>
    <desc><![CDATA[SO-N-Bouaye St Mars Coutais L'Ervoirie St Hilaire de Chaléons La Tartouzerie Arthon Haute Perche Le Pont du Clion St Père en Retz Corsept Paimboeuf Le Pellerin La Montagne]]></desc>
  </metadata>
  <trk>
    <name><![CDATA[2021-09-04 09:17 +02:00]]></name>
    <trkseg>
      <trkpt lat="47.16773" lon="-1.6265">
        <ele>64</ele>
        <time>2021-09-04T07:17:33.000Z</time>
      </trkpt>
      <trkpt lat="47.16781" lon="-1.62656">
        <ele>73</ele>
        <time>2021-09-04T07:21:24.000Z</time>
      </trkpt>
      <trkpt lat="47.16778" lon="-1.62674">
        <ele>72</ele>
        <time>2021-09-04T07:21:28.000Z</time>
      </trkpt>
      <trkpt lat="47.16768" lon="-1.62679">
        <ele>71</ele>
        <time>2021-09-04T07:21:30.000Z</time>
      </trkpt>
      <trkpt lat="47.16756" lon="-1.62673">
        <ele>71</ele>
        <time>2021-09-04T07:21:32.000Z</time>
      </trkpt>
      <trkpt lat="47.16745" lon="-1.62675">
        <ele>71</ele>
        <time>2021-09-04T07:21:34.000Z</time>
      </trkpt>
      <trkpt lat="47.16734" lon="-1.62683">
        <ele>71</ele>
        <time>2021-09-04T07:21:36.000Z</time>
      </trkpt>
      <trkpt lat="47.16724" lon="-1.6269">
        <ele>71</ele>
        <time>2021-09-04T07:21:38.000Z</time>
      </trkpt>
      <trkpt lat="47.16713" lon="-1.62696">
        <ele>71</ele>
        <time>2021-09-04T07:21:41.000Z</time>
      </trkpt>
      <trkpt lat="47.16705" lon="-1.62685">
        <ele>71</ele>
        <time>2021-09-04T07:21:43.000Z</time>
      </trkpt>
      <trkpt lat="47.16701" lon="-1.62669">
        <ele>70</ele>
        <time>2021-09-04T07:21:45.000Z</time>
      </trkpt>
      <trkpt lat="47.16698" lon="-1.6265">
        <ele>69</ele>
        <time>2021-09-04T07:21:47.000Z</time>
      </trkpt>
      <trkpt lat="47.16695" lon="-1.6263">
        <ele>68</ele>
        <time>2021-09-04T07:21:49.000Z</time>
      </trkpt>
      <trkpt lat="47.16695" lon="-1.6261">
        <ele>68</ele>
        <time>2021-09-04T07:21:51.000Z</time>
      </trkpt>
      <trkpt lat="47.16696" lon="-1.6259">
        <ele>67</ele>
        <time>2021-09-04T07:21:53.000Z</time>
      </trkpt>
      <trkpt lat="47.16698" lon="-1.62569">
        <ele>67</ele>
        <time>2021-09-04T07:21:55.000Z</time>
      </trkpt>
      <trkpt lat="47.167" lon="-1.62548">
        <ele>67</ele>
        <time>2021-09-04T07:21:57.000Z</time>
      </trkpt>
      <trkpt lat="47.16702" lon="-1.62527">
        <ele>67</ele>
        <time>2021-09-04T07:21:59.000Z</time>
      </trkpt>
      <trkpt lat="47.16705" lon="-1.62506">
        <ele>66</ele>
        <time>2021-09-04T07:22:01.000Z</time>
      </trkpt>
      <trkpt lat="47.16709" lon="-1.62485">
        <ele>66</ele>
        <time>2021-09-04T07:22:03.000Z</time>
      </trkpt>
      <trkpt lat="47.16713" lon="-1.62465">
        <ele>67</ele>
        <time>2021-09-04T07:22:05.000Z</time>
      </trkpt>
      <trkpt lat="47.16715" lon="-1.62446">
        <ele>67</ele>
        <time>2021-09-04T07:22:07.000Z</time>
      </trkpt>
      <trkpt lat="47.16718" lon="-1.62429">
        <ele>67</ele>
        <time>2021-09-04T07:22:09.000Z</time>
      </trkpt>
      <trkpt lat="47.16724" lon="-1.62414">
        <ele>67</ele>
        <time>2021-09-04T07:22:11.000Z</time>
      </trkpt>
      <trkpt lat="47.16719" lon="-1.624">
        <ele>67</ele>
        <time>2021-09-04T07:22:13.000Z</time>
      </trkpt>
      <trkpt lat="47.16711" lon="-1.62387">
        <ele>67</ele>
        <time>2021-09-04T07:22:15.000Z</time>
      </trkpt>
      <trkpt lat="47.16701" lon="-1.62374">
        <ele>67</ele>
        <time>2021-09-04T07:22:17.000Z</time>
      </trkpt>
      <trkpt lat="47.16691" lon="-1.62364">
        <ele>68</ele>
        <time>2021-09-04T07:22:19.000Z</time>
      </trkpt>
      <trkpt lat="47.16678" lon="-1.6236">
        <ele>68</ele>
        <time>2021-09-04T07:22:21.000Z</time>
      </trkpt>
      <trkpt lat="47.16665" lon="-1.62361">
        <ele>68</ele>
        <time>2021-09-04T07:22:23.000Z</time>
      </trkpt>
      <trkpt lat="47.16654" lon="-1.62366">
        <ele>68</ele>
        <time>2021-09-04T07:22:25.000Z</time>
      </trkpt>
      <trkpt lat="47.16643" lon="-1.62375">
        <ele>69</ele>
        <time>2021-09-04T07:22:27.000Z</time>
      </trkpt>
      <trkpt lat="47.16633" lon="-1.62385">
        <ele>69</ele>
        <time>2021-09-04T07:22:29.000Z</time>
      </trkpt>
      <trkpt lat="47.16624" lon="-1.62397">
        <ele>70</ele>
        <time>2021-09-04T07:22:31.000Z</time>
      </trkpt>
      <trkpt lat="47.16616" lon="-1.62411">
        <ele>70</ele>
        <time>2021-09-04T07:22:33.000Z</time>
      </trkpt>
      <trkpt lat="47.16608" lon="-1.62425">
        <ele>70</ele>
        <time>2021-09-04T07:22:35.000Z</time>
      </trkpt>
      <trkpt lat="47.16601" lon="-1.6244">
        <ele>71</ele>
        <time>2021-09-04T07:22:37.000Z</time>
      </trkpt>
      <trkpt lat="47.16594" lon="-1.62455">
        <ele>71</ele>
        <time>2021-09-04T07:22:39.000Z</time>
      </trkpt>
      <trkpt lat="47.16587" lon="-1.62471">
        <ele>72</ele>
        <time>2021-09-04T07:22:41.000Z</time>
      </trkpt>
      <trkpt lat="47.16581" lon="-1.62486">
        <ele>72</ele>
        <time>2021-09-04T07:22:43.000Z</time>
      </trkpt>
      <trkpt lat="47.16575" lon="-1.62501">
        <ele>74</ele>
        <time>2021-09-04T07:22:45.000Z</time>
      </trkpt>
      <trkpt lat="47.16569" lon="-1.62516">
        <ele>75</ele>
        <time>2021-09-04T07:22:47.000Z</time>
      </trkpt>
      <trkpt lat="47.16562" lon="-1.62531">
        <ele>75</ele>
        <time>2021-09-04T07:22:49.000Z</time>
      </trkpt>
      <trkpt lat="47.16554" lon="-1.62543">
        <ele>75</ele>
        <time>2021-09-04T07:22:51.000Z</time>
      </trkpt>
      <trkpt lat="47.16545" lon="-1.62555">
        <ele>76</ele>
        <time>2021-09-04T07:22:53.000Z</time>
      </trkpt>
      <trkpt lat="47.16534" lon="-1.62563">
        <ele>76</ele>
        <time>2021-09-04T07:22:55.000Z</time>
      </trkpt>
      <trkpt lat="47.16522" lon="-1.62565">
        <ele>76</ele>
        <time>2021-09-04T07:22:57.000Z</time>
      </trkpt>
      <trkpt lat="47.16511" lon="-1.62562">
        <ele>76</ele>
        <time>2021-09-04T07:22:59.000Z</time>
      </trkpt>
      <trkpt lat="47.165" lon="-1.62558">
        <ele>75</ele>
        <time>2021-09-04T07:23:01.000Z</time>
      </trkpt>
      <trkpt lat="47.16488" lon="-1.62555">
        <ele>76</ele>
        <time>2021-09-04T07:23:03.000Z</time>
      </trkpt>
      <trkpt lat="47.16477" lon="-1.62552">
        <ele>76</ele>
        <time>2021-09-04T07:23:05.000Z</time>
      </trkpt>
      <trkpt lat="47.16465" lon="-1.62548">
        <ele>76</ele>
        <time>2021-09-04T07:23:07.000Z</time>
      </trkpt>
      <trkpt lat="47.16453" lon="-1.62545">
        <ele>76</ele>
        <time>2021-09-04T07:23:09.000Z</time>
      </trkpt>
      <trkpt lat="47.16441" lon="-1.62541">
        <ele>76</ele>
        <time>2021-09-04T07:23:11.000Z</time>
      </trkpt>
      <trkpt lat="47.16429" lon="-1.62544">
        <ele>76</ele>
        <time>2021-09-04T07:23:13.000Z</time>
      </trkpt>
      <trkpt lat="47.16419" lon="-1.62554">
        <ele>76</ele>
        <time>2021-09-04T07:23:15.000Z</time>
      </trkpt>
      <trkpt lat="47.16409" lon="-1.62565">
        <ele>76</ele>
        <time>2021-09-04T07:23:17.000Z</time>
      </trkpt>
      <trkpt lat="47.16399" lon="-1.62575">
        <ele>76</ele>
        <time>2021-09-04T07:23:19.000Z</time>
      </trkpt>
      <trkpt lat="47.16387" lon="-1.62581">
        <ele>76</ele>
        <time>2021-09-04T07:23:21.000Z</time>
      </trkpt>
      <trkpt lat="47.16374" lon="-1.62585">
        <ele>75</ele>
        <time>2021-09-04T07:23:23.000Z</time>
      </trkpt>
      <trkpt lat="47.16361" lon="-1.62585">
        <ele>75</ele>
        <time>2021-09-04T07:23:25.000Z</time>
      </trkpt>
      <trkpt lat="47.16348" lon="-1.62582">
        <ele>75</ele>
        <time>2021-09-04T07:23:27.000Z</time>
      </trkpt>
      <trkpt lat="47.16336" lon="-1.62577">
        <ele>74</ele>
        <time>2021-09-04T07:23:29.000Z</time>
      </trkpt>
      <trkpt lat="47.16324" lon="-1.62573">
        <ele>74</ele>
        <time>2021-09-04T07:23:31.000Z</time>
      </trkpt>
      <trkpt lat="47.16311" lon="-1.62572">
        <ele>74</ele>
        <time>2021-09-04T07:23:33.000Z</time>
      </trkpt>
      <trkpt lat="47.163" lon="-1.62579">
        <ele>74</ele>
        <time>2021-09-04T07:23:35.000Z</time>
      </trkpt>
      <trkpt lat="47.16291" lon="-1.62592">
        <ele>74</ele>
        <time>2021-09-04T07:23:37.000Z</time>
      </trkpt>
      <trkpt lat="47.16285" lon="-1.62609">
        <ele>74</ele>
        <time>2021-09-04T07:23:39.000Z</time>
      </trkpt>
      <trkpt lat="47.16281" lon="-1.62627">
        <ele>74</ele>
        <time>2021-09-04T07:23:41.000Z</time>
      </trkpt>
      <trkpt lat="47.16278" lon="-1.62646">
        <ele>74</ele>
        <time>2021-09-04T07:23:43.000Z</time>
      </trkpt>
      <trkpt lat="47.16277" lon="-1.62663">
        <ele>74</ele>
        <time>2021-09-04T07:23:45.000Z</time>
      </trkpt>
      <trkpt lat="47.16277" lon="-1.6268">
        <ele>74</ele>
        <time>2021-09-04T07:23:47.000Z</time>
      </trkpt>
      <trkpt lat="47.16277" lon="-1.62695">
        <ele>75</ele>
        <time>2021-09-04T07:23:49.000Z</time>
      </trkpt>
      <trkpt lat="47.16279" lon="-1.62709">
        <ele>75</ele>
        <time>2021-09-04T07:23:52.000Z</time>
      </trkpt>
      <trkpt lat="47.16281" lon="-1.62725">
        <ele>76</ele>
        <time>2021-09-04T07:23:58.000Z</time>
      </trkpt>
      <trkpt lat="47.16275" lon="-1.62735">
        <ele>76</ele>
        <time>2021-09-04T07:24:00.000Z</time>
      </trkpt>
      <trkpt lat="47.16263" lon="-1.62738">
        <ele>76</ele>
        <time>2021-09-04T07:24:02.000Z</time>
      </trkpt>
      <trkpt lat="47.16251" lon="-1.62743">
        <ele>76</ele>
        <time>2021-09-04T07:24:04.000Z</time>
      </trkpt>
      <trkpt lat="47.16239" lon="-1.6275">
        <ele>76</ele>
        <time>2021-09-04T07:24:06.000Z</time>
      </trkpt>
      <trkpt lat="47.16224" lon="-1.62757">
        <ele>76</ele>
        <time>2021-09-04T07:24:08.000Z</time>
      </trkpt>
      <trkpt lat="47.1621" lon="-1.62763">
        <ele>75</ele>
        <time>2021-09-04T07:24:10.000Z</time>
      </trkpt>
      <trkpt lat="47.16196" lon="-1.62773">
        <ele>75</ele>
        <time>2021-09-04T07:24:12.000Z</time>
      </trkpt>
      <trkpt lat="47.16183" lon="-1.62785">
        <ele>74</ele>
        <time>2021-09-04T07:24:14.000Z</time>
      </trkpt>
      <trkpt lat="47.16169" lon="-1.62797">
        <ele>74</ele>
        <time>2021-09-04T07:24:16.000Z</time>
      </trkpt>
      <trkpt lat="47.16156" lon="-1.62808">
        <ele>74</ele>
        <time>2021-09-04T07:24:18.000Z</time>
      </trkpt>
      <trkpt lat="47.16142" lon="-1.6282">
        <ele>73</ele>
        <time>2021-09-04T07:24:20.000Z</time>
      </trkpt>
      <trkpt lat="47.16129" lon="-1.62832">
        <ele>72</ele>
        <time>2021-09-04T07:24:22.000Z</time>
      </trkpt>
      <trkpt lat="47.16116" lon="-1.62844">
        <ele>72</ele>
        <time>2021-09-04T07:24:24.000Z</time>
      </trkpt>
      <trkpt lat="47.16103" lon="-1.62855">
        <ele>72</ele>
        <time>2021-09-04T07:24:26.000Z</time>
      </trkpt>
      <trkpt lat="47.1609" lon="-1.62867">
        <ele>72</ele>
        <time>2021-09-04T07:24:28.000Z</time>
      </trkpt>
      <trkpt lat="47.16076" lon="-1.62878">
        <ele>72</ele>
        <time>2021-09-04T07:24:30.000Z</time>
      </trkpt>
      <trkpt lat="47.16063" lon="-1.6289">
        <ele>71</ele>
        <time>2021-09-04T07:24:32.000Z</time>
      </trkpt>
      <trkpt lat="47.1605" lon="-1.62902">
        <ele>71</ele>
        <time>2021-09-04T07:24:34.000Z</time>
      </trkpt>
      <trkpt lat="47.16036" lon="-1.62914">
        <ele>71</ele>
        <time>2021-09-04T07:24:36.000Z</time>
      </trkpt>
      <trkpt lat="47.16023" lon="-1.62926">
        <ele>70</ele>
        <time>2021-09-04T07:24:38.000Z</time>
      </trkpt>
      <trkpt lat="47.16009" lon="-1.62938">
        <ele>69</ele>
        <time>2021-09-04T07:24:40.000Z</time>
      </trkpt>
      <trkpt lat="47.15995" lon="-1.62951">
        <ele>68</ele>
        <time>2021-09-04T07:24:42.000Z</time>
      </trkpt>
      <trkpt lat="47.1598" lon="-1.62964">
        <ele>67</ele>
        <time>2021-09-04T07:24:44.000Z</time>
      </trkpt>
      <trkpt lat="47.15966" lon="-1.62977">
        <ele>67</ele>
        <time>2021-09-04T07:24:46.000Z</time>
      </trkpt>
      <trkpt lat="47.15951" lon="-1.6299">
        <ele>66</ele>
        <time>2021-09-04T07:24:48.000Z</time>
      </trkpt>
      <trkpt lat="47.15936" lon="-1.63003">
        <ele>66</ele>
        <time>2021-09-04T07:24:50.000Z</time>
      </trkpt>
      <trkpt lat="47.15922" lon="-1.63016">
        <ele>65</ele>
        <time>2021-09-04T07:24:52.000Z</time>
      </trkpt>
      <trkpt lat="47.15907" lon="-1.63029">
        <ele>65</ele>
        <time>2021-09-04T07:24:54.000Z</time>
      </trkpt>
      <trkpt lat="47.15894" lon="-1.63041">
        <ele>65</ele>
        <time>2021-09-04T07:24:56.000Z</time>
      </trkpt>
      <trkpt lat="47.1588" lon="-1.63054">
        <ele>65</ele>
        <time>2021-09-04T07:24:58.000Z</time>
      </trkpt>
      <trkpt lat="47.15866" lon="-1.63064">
        <ele>65</ele>
        <time>2021-09-04T07:25:00.000Z</time>
      </trkpt>
      <trkpt lat="47.15854" lon="-1.63075">
        <ele>66</ele>
        <time>2021-09-04T07:25:02.000Z</time>
      </trkpt>
      <trkpt lat="47.15843" lon="-1.63086">
        <ele>66</ele>
        <time>2021-09-04T07:25:04.000Z</time>
      </trkpt>
      <trkpt lat="47.15831" lon="-1.63097">
        <ele>66</ele>
        <time>2021-09-04T07:25:06.000Z</time>
      </trkpt>
      <trkpt lat="47.1582" lon="-1.63107">
        <ele>66</ele>
        <time>2021-09-04T07:25:08.000Z</time>
      </trkpt>
      <trkpt lat="47.15809" lon="-1.63117">
        <ele>67</ele>
        <time>2021-09-04T07:25:10.000Z</time>
      </trkpt>
      <trkpt lat="47.15798" lon="-1.63127">
        <ele>67</ele>
        <time>2021-09-04T07:25:12.000Z</time>
      </trkpt>
      <trkpt lat="47.15787" lon="-1.63136">
        <ele>68</ele>
        <time>2021-09-04T07:25:14.000Z</time>
      </trkpt>
      <trkpt lat="47.15776" lon="-1.63146">
        <ele>69</ele>
        <time>2021-09-04T07:25:16.000Z</time>
      </trkpt>
      <trkpt lat="47.15765" lon="-1.63156">
        <ele>69</ele>
        <time>2021-09-04T07:25:18.000Z</time>
      </trkpt>
      <trkpt lat="47.15754" lon="-1.63165">
        <ele>69</ele>
        <time>2021-09-04T07:25:20.000Z</time>
      </trkpt>
      <trkpt lat="47.15742" lon="-1.63175">
        <ele>70</ele>
        <time>2021-09-04T07:25:22.000Z</time>
      </trkpt>
      <trkpt lat="47.15731" lon="-1.63186">
        <ele>69</ele>
        <time>2021-09-04T07:25:24.000Z</time>
      </trkpt>
      <trkpt lat="47.1572" lon="-1.63196">
        <ele>69</ele>
        <time>2021-09-04T07:25:26.000Z</time>
      </trkpt>
      <trkpt lat="47.15708" lon="-1.63206">
        <ele>69</ele>
        <time>2021-09-04T07:25:28.000Z</time>
      </trkpt>
      <trkpt lat="47.15697" lon="-1.63215">
        <ele>69</ele>
        <time>2021-09-04T07:25:30.000Z</time>
      </trkpt>
      <trkpt lat="47.15686" lon="-1.63225">
        <ele>69</ele>
        <time>2021-09-04T07:25:32.000Z</time>
      </trkpt>
      <trkpt lat="47.15675" lon="-1.63236">
        <ele>69</ele>
        <time>2021-09-04T07:25:34.000Z</time>
      </trkpt>
      <trkpt lat="47.15663" lon="-1.63246">
        <ele>69</ele>
        <time>2021-09-04T07:25:36.000Z</time>
      </trkpt>
      <trkpt lat="47.15651" lon="-1.63256">
        <ele>69</ele>
        <time>2021-09-04T07:25:38.000Z</time>
      </trkpt>
      <trkpt lat="47.15639" lon="-1.63267">
        <ele>69</ele>
        <time>2021-09-04T07:25:40.000Z</time>
      </trkpt>
      <trkpt lat="47.15627" lon="-1.63278">
        <ele>70</ele>
        <time>2021-09-04T07:25:42.000Z</time>
      </trkpt>
      <trkpt lat="47.15615" lon="-1.63288">
        <ele>70</ele>
        <time>2021-09-04T07:25:44.000Z</time>
      </trkpt>
      <trkpt lat="47.15604" lon="-1.63298">
        <ele>70</ele>
        <time>2021-09-04T07:25:46.000Z</time>
      </trkpt>
      <trkpt lat="47.15593" lon="-1.63308">
        <ele>70</ele>
        <time>2021-09-04T07:25:48.000Z</time>
      </trkpt>
      <trkpt lat="47.15582" lon="-1.63318">
        <ele>70</ele>
        <time>2021-09-04T07:25:50.000Z</time>
      </trkpt>
      <trkpt lat="47.15571" lon="-1.63328">
        <ele>70</ele>
        <time>2021-09-04T07:25:52.000Z</time>
      </trkpt>
      <trkpt lat="47.1556" lon="-1.63338">
        <ele>69</ele>
        <time>2021-09-04T07:25:54.000Z</time>
      </trkpt>
      <trkpt lat="47.1555" lon="-1.63348">
        <ele>70</ele>
        <time>2021-09-04T07:25:56.000Z</time>
      </trkpt>
      <trkpt lat="47.15539" lon="-1.63357">
        <ele>70</ele>
        <time>2021-09-04T07:25:58.000Z</time>
      </trkpt>
      <trkpt lat="47.15528" lon="-1.63366">
        <ele>70</ele>
        <time>2021-09-04T07:26:00.000Z</time>
      </trkpt>
      <trkpt lat="47.15518" lon="-1.63376">
        <ele>70</ele>
        <time>2021-09-04T07:26:02.000Z</time>
      </trkpt>
      <trkpt lat="47.15507" lon="-1.63386">
        <ele>71</ele>
        <time>2021-09-04T07:26:04.000Z</time>
      </trkpt>
      <trkpt lat="47.15497" lon="-1.63396">
        <ele>71</ele>
        <time>2021-09-04T07:26:06.000Z</time>
      </trkpt>
      <trkpt lat="47.15486" lon="-1.63406">
        <ele>71</ele>
        <time>2021-09-04T07:26:08.000Z</time>
      </trkpt>
      <trkpt lat="47.15476" lon="-1.63415">
        <ele>71</ele>
        <time>2021-09-04T07:26:10.000Z</time>
      </trkpt>
      <trkpt lat="47.15465" lon="-1.63425">
        <ele>71</ele>
        <time>2021-09-04T07:26:12.000Z</time>
      </trkpt>
      <trkpt lat="47.15454" lon="-1.63435">
        <ele>72</ele>
        <time>2021-09-04T07:26:14.000Z</time>
      </trkpt>
      <trkpt lat="47.15443" lon="-1.63445">
        <ele>71</ele>
        <time>2021-09-04T07:26:16.000Z</time>
      </trkpt>
      <trkpt lat="47.15433" lon="-1.63454">
        <ele>72</ele>
        <time>2021-09-04T07:26:18.000Z</time>
      </trkpt>
      <trkpt lat="47.15423" lon="-1.63464">
        <ele>72</ele>
        <time>2021-09-04T07:26:20.000Z</time>
      </trkpt>
      <trkpt lat="47.15413" lon="-1.63473">
        <ele>73</ele>
        <time>2021-09-04T07:26:22.000Z</time>
      </trkpt>
      <trkpt lat="47.15404" lon="-1.63485">
        <ele>73</ele>
        <time>2021-09-04T07:26:24.000Z</time>
      </trkpt>
      <trkpt lat="47.15395" lon="-1.63497">
        <ele>73</ele>
        <time>2021-09-04T07:26:26.000Z</time>
      </trkpt>
      <trkpt lat="47.15386" lon="-1.63507">
        <ele>73</ele>
        <time>2021-09-04T07:26:28.000Z</time>
      </trkpt>
      <trkpt lat="47.15375" lon="-1.63512">
        <ele>73</ele>
        <time>2021-09-04T07:26:30.000Z</time>
      </trkpt>
      <trkpt lat="47.15364" lon="-1.63517">
        <ele>73</ele>
        <time>2021-09-04T07:26:32.000Z</time>
      </trkpt>
      <trkpt lat="47.15354" lon="-1.63528">
        <ele>73</ele>
        <time>2021-09-04T07:26:34.000Z</time>
      </trkpt>
      <trkpt lat="47.15343" lon="-1.63538">
        <ele>73</ele>
        <time>2021-09-04T07:26:36.000Z</time>
      </trkpt>
      <trkpt lat="47.15333" lon="-1.63548">
        <ele>73</ele>
        <time>2021-09-04T07:26:38.000Z</time>
      </trkpt>
      <trkpt lat="47.15322" lon="-1.63557">
        <ele>73</ele>
        <time>2021-09-04T07:26:40.000Z</time>
      </trkpt>
      <trkpt lat="47.1531" lon="-1.63563">
        <ele>73</ele>
        <time>2021-09-04T07:26:42.000Z</time>
      </trkpt>
      <trkpt lat="47.15299" lon="-1.63571">
        <ele>73</ele>
        <time>2021-09-04T07:26:44.000Z</time>
      </trkpt>
      <trkpt lat="47.15288" lon="-1.63581">
        <ele>73</ele>
        <time>2021-09-04T07:26:46.000Z</time>
      </trkpt>
      <trkpt lat="47.15277" lon="-1.63591">
        <ele>73</ele>
        <time>2021-09-04T07:26:48.000Z</time>
      </trkpt>
      <trkpt lat="47.15265" lon="-1.63601">
        <ele>73</ele>
        <time>2021-09-04T07:26:50.000Z</time>
      </trkpt>
      <trkpt lat="47.15254" lon="-1.6361">
        <ele>73</ele>
        <time>2021-09-04T07:26:52.000Z</time>
      </trkpt>
      <trkpt lat="47.15243" lon="-1.6362">
        <ele>73</ele>
        <time>2021-09-04T07:26:54.000Z</time>
      </trkpt>
      <trkpt lat="47.15231" lon="-1.6363">
        <ele>73</ele>
        <time>2021-09-04T07:26:56.000Z</time>
      </trkpt>
      <trkpt lat="47.1522" lon="-1.6364">
        <ele>72</ele>
        <time>2021-09-04T07:26:58.000Z</time>
      </trkpt>
      <trkpt lat="47.15208" lon="-1.63649">
        <ele>72</ele>
        <time>2021-09-04T07:27:00.000Z</time>
      </trkpt>
      <trkpt lat="47.15197" lon="-1.6366">
        <ele>72</ele>
        <time>2021-09-04T07:27:02.000Z</time>
      </trkpt>
      <trkpt lat="47.15185" lon="-1.6367">
        <ele>72</ele>
        <time>2021-09-04T07:27:04.000Z</time>
      </trkpt>
      <trkpt lat="47.15174" lon="-1.63679">
        <ele>72</ele>
        <time>2021-09-04T07:27:06.000Z</time>
      </trkpt>
      <trkpt lat="47.15163" lon="-1.63689">
        <ele>72</ele>
        <time>2021-09-04T07:27:08.000Z</time>
      </trkpt>
      <trkpt lat="47.15151" lon="-1.637">
        <ele>72</ele>
        <time>2021-09-04T07:27:10.000Z</time>
      </trkpt>
      <trkpt lat="47.1514" lon="-1.63711">
        <ele>72</ele>
        <time>2021-09-04T07:27:12.000Z</time>
      </trkpt>
      <trkpt lat="47.1513" lon="-1.63722">
        <ele>72</ele>
        <time>2021-09-04T07:27:14.000Z</time>
      </trkpt>
      <trkpt lat="47.15119" lon="-1.63734">
        <ele>72</ele>
        <time>2021-09-04T07:27:16.000Z</time>
      </trkpt>
      <trkpt lat="47.15108" lon="-1.63745">
        <ele>72</ele>
        <time>2021-09-04T07:27:18.000Z</time>
      </trkpt>
      <trkpt lat="47.15098" lon="-1.63757">
        <ele>72</ele>
        <time>2021-09-04T07:27:20.000Z</time>
      </trkpt>
      <trkpt lat="47.15088" lon="-1.63769">
        <ele>72</ele>
        <time>2021-09-04T07:27:22.000Z</time>
      </trkpt>
      <trkpt lat="47.15078" lon="-1.63781">
        <ele>72</ele>
        <time>2021-09-04T07:27:24.000Z</time>
      </trkpt>
      <trkpt lat="47.15067" lon="-1.63793">
        <ele>73</ele>
        <time>2021-09-04T07:27:26.000Z</time>
      </trkpt>
      <trkpt lat="47.15058" lon="-1.63805">
        <ele>73</ele>
        <time>2021-09-04T07:27:28.000Z</time>
      </trkpt>
      <trkpt lat="47.15048" lon="-1.63817">
        <ele>73</ele>
        <time>2021-09-04T07:27:30.000Z</time>
      </trkpt>
      <trkpt lat="47.15038" lon="-1.6383">
        <ele>73</ele>
        <time>2021-09-04T07:27:32.000Z</time>
      </trkpt>
      <trkpt lat="47.15029" lon="-1.63842">
        <ele>73</ele>
        <time>2021-09-04T07:27:34.000Z</time>
      </trkpt>
      <trkpt lat="47.1502" lon="-1.63855">
        <ele>73</ele>
        <time>2021-09-04T07:27:36.000Z</time>
      </trkpt>
      <trkpt lat="47.15011" lon="-1.63868">
        <ele>73</ele>
        <time>2021-09-04T07:27:38.000Z</time>
      </trkpt>
      <trkpt lat="47.15001" lon="-1.63881">
        <ele>73</ele>
        <time>2021-09-04T07:27:40.000Z</time>
      </trkpt>
      <trkpt lat="47.14993" lon="-1.63895">
        <ele>73</ele>
        <time>2021-09-04T07:27:42.000Z</time>
      </trkpt>
      <trkpt lat="47.14985" lon="-1.63908">
        <ele>73</ele>
        <time>2021-09-04T07:27:44.000Z</time>
      </trkpt>
      <trkpt lat="47.14976" lon="-1.63922">
        <ele>73</ele>
        <time>2021-09-04T07:27:46.000Z</time>
      </trkpt>
      <trkpt lat="47.14967" lon="-1.63935">
        <ele>73</ele>
        <time>2021-09-04T07:27:48.000Z</time>
      </trkpt>
      <trkpt lat="47.1496" lon="-1.63951">
        <ele>73</ele>
        <time>2021-09-04T07:27:50.000Z</time>
      </trkpt>
      <trkpt lat="47.14951" lon="-1.63965">
        <ele>73</ele>
        <time>2021-09-04T07:27:52.000Z</time>
      </trkpt>
      <trkpt lat="47.14944" lon="-1.63981">
        <ele>73</ele>
        <time>2021-09-04T07:27:54.000Z</time>
      </trkpt>
      <trkpt lat="47.14936" lon="-1.63996">
        <ele>72</ele>
        <time>2021-09-04T07:27:56.000Z</time>
      </trkpt>
      <trkpt lat="47.14928" lon="-1.64011">
        <ele>72</ele>
        <time>2021-09-04T07:27:58.000Z</time>
      </trkpt>
      <trkpt lat="47.14919" lon="-1.64026">
        <ele>72</ele>
        <time>2021-09-04T07:28:00.000Z</time>
      </trkpt>
      <trkpt lat="47.14912" lon="-1.64042">
        <ele>73</ele>
        <time>2021-09-04T07:28:02.000Z</time>
      </trkpt>
      <trkpt lat="47.14904" lon="-1.64057">
        <ele>73</ele>
        <time>2021-09-04T07:28:04.000Z</time>
      </trkpt>
      <trkpt lat="47.14898" lon="-1.64073">
        <ele>73</ele>
        <time>2021-09-04T07:28:06.000Z</time>
      </trkpt>
      <trkpt lat="47.14891" lon="-1.64089">
        <ele>73</ele>
        <time>2021-09-04T07:28:08.000Z</time>
      </trkpt>
      <trkpt lat="47.14886" lon="-1.64106">
        <ele>73</ele>
        <time>2021-09-04T07:28:10.000Z</time>
      </trkpt>
      <trkpt lat="47.14879" lon="-1.64123">
        <ele>73</ele>
        <time>2021-09-04T07:28:12.000Z</time>
      </trkpt>
      <trkpt lat="47.14872" lon="-1.64139">
        <ele>73</ele>
        <time>2021-09-04T07:28:14.000Z</time>
      </trkpt>
      <trkpt lat="47.14865" lon="-1.64154">
        <ele>73</ele>
        <time>2021-09-04T07:28:16.000Z</time>
      </trkpt>
      <trkpt lat="47.14857" lon="-1.64168">
        <ele>73</ele>
        <time>2021-09-04T07:28:18.000Z</time>
      </trkpt>
      <trkpt lat="47.14851" lon="-1.64185">
        <ele>73</ele>
        <time>2021-09-04T07:28:20.000Z</time>
      </trkpt>
      <trkpt lat="47.14845" lon="-1.64202">
        <ele>73</ele>
        <time>2021-09-04T07:28:22.000Z</time>
      </trkpt>
      <trkpt lat="47.1484" lon="-1.64219">
        <ele>73</ele>
        <time>2021-09-04T07:28:24.000Z</time>
      </trkpt>
      <trkpt lat="47.14835" lon="-1.64236">
        <ele>73</ele>
        <time>2021-09-04T07:28:26.000Z</time>
      </trkpt>
      <trkpt lat="47.14829" lon="-1.64253">
        <ele>73</ele>
        <time>2021-09-04T07:28:28.000Z</time>
      </trkpt>
      <trkpt lat="47.14823" lon="-1.64271">
        <ele>73</ele>
        <time>2021-09-04T07:28:30.000Z</time>
      </trkpt>
      <trkpt lat="47.14818" lon="-1.64288">
        <ele>73</ele>
        <time>2021-09-04T07:28:32.000Z</time>
      </trkpt>
      <trkpt lat="47.14813" lon="-1.64306">
        <ele>74</ele>
        <time>2021-09-04T07:28:34.000Z</time>
      </trkpt>
      <trkpt lat="47.14808" lon="-1.64324">
        <ele>74</ele>
        <time>2021-09-04T07:28:36.000Z</time>
      </trkpt>
      <trkpt lat="47.14804" lon="-1.6434">
        <ele>74</ele>
        <time>2021-09-04T07:28:38.000Z</time>
      </trkpt>
      <trkpt lat="47.14799" lon="-1.64358">
        <ele>74</ele>
        <time>2021-09-04T07:28:40.000Z</time>
      </trkpt>
      <trkpt lat="47.14796" lon="-1.64377">
        <ele>74</ele>
        <time>2021-09-04T07:28:42.000Z</time>
      </trkpt>
      <trkpt lat="47.14791" lon="-1.64395">
        <ele>74</ele>
        <time>2021-09-04T07:28:44.000Z</time>
      </trkpt>
      <trkpt lat="47.14787" lon="-1.64414">
        <ele>74</ele>
        <time>2021-09-04T07:28:46.000Z</time>
      </trkpt>
      <trkpt lat="47.14784" lon="-1.64432">
        <ele>74</ele>
        <time>2021-09-04T07:28:48.000Z</time>
      </trkpt>
      <trkpt lat="47.14781" lon="-1.64451">
        <ele>74</ele>
        <time>2021-09-04T07:28:50.000Z</time>
      </trkpt>
      <trkpt lat="47.14777" lon="-1.64469">
        <ele>74</ele>
        <time>2021-09-04T07:28:52.000Z</time>
      </trkpt>
      <trkpt lat="47.14774" lon="-1.64488">
        <ele>74</ele>
        <time>2021-09-04T07:28:54.000Z</time>
      </trkpt>
      <trkpt lat="47.14771" lon="-1.64506">
        <ele>74</ele>
        <time>2021-09-04T07:28:56.000Z</time>
      </trkpt>
      <trkpt lat="47.14768" lon="-1.64524">
        <ele>73</ele>
        <time>2021-09-04T07:28:58.000Z</time>
      </trkpt>
      <trkpt lat="47.14765" lon="-1.64543">
        <ele>73</ele>
        <time>2021-09-04T07:29:00.000Z</time>
      </trkpt>
      <trkpt lat="47.14763" lon="-1.64561">
        <ele>73</ele>
        <time>2021-09-04T07:29:02.000Z</time>
      </trkpt>
      <trkpt lat="47.14759" lon="-1.64579">
        <ele>73</ele>
        <time>2021-09-04T07:29:04.000Z</time>
      </trkpt>
      <trkpt lat="47.14756" lon="-1.64598">
        <ele>73</ele>
        <time>2021-09-04T07:29:06.000Z</time>
      </trkpt>
      <trkpt lat="47.14753" lon="-1.64617">
        <ele>73</ele>
        <time>2021-09-04T07:29:08.000Z</time>
      </trkpt>
      <trkpt lat="47.1475" lon="-1.64636">
        <ele>72</ele>
        <time>2021-09-04T07:29:10.000Z</time>
      </trkpt>
      <trkpt lat="47.14748" lon="-1.64654">
        <ele>72</ele>
        <time>2021-09-04T07:29:12.000Z</time>
      </trkpt>
      <trkpt lat="47.14745" lon="-1.64673">
        <ele>72</ele>
        <time>2021-09-04T07:29:14.000Z</time>
      </trkpt>
      <trkpt lat="47.14742" lon="-1.64691">
        <ele>72</ele>
        <time>2021-09-04T07:29:16.000Z</time>
      </trkpt>
      <trkpt lat="47.14738" lon="-1.6471">
        <ele>72</ele>
        <time>2021-09-04T07:29:18.000Z</time>
      </trkpt>
      <trkpt lat="47.14735" lon="-1.64728">
        <ele>72</ele>
        <time>2021-09-04T07:29:20.000Z</time>
      </trkpt>
      <trkpt lat="47.1473" lon="-1.64747">
        <ele>71</ele>
        <time>2021-09-04T07:29:22.000Z</time>
      </trkpt>
      <trkpt lat="47.14725" lon="-1.64766">
        <ele>71</ele>
        <time>2021-09-04T07:29:24.000Z</time>
      </trkpt>
      <trkpt lat="47.1472" lon="-1.64786">
        <ele>70</ele>
        <time>2021-09-04T07:29:26.000Z</time>
      </trkpt>
      <trkpt lat="47.14715" lon="-1.64805">
        <ele>70</ele>
        <time>2021-09-04T07:29:28.000Z</time>
      </trkpt>
      <trkpt lat="47.1471" lon="-1.64825">
        <ele>69</ele>
        <time>2021-09-04T07:29:30.000Z</time>
      </trkpt>
      <trkpt lat="47.14705" lon="-1.64844">
        <ele>69</ele>
        <time>2021-09-04T07:29:32.000Z</time>
      </trkpt>
      <trkpt lat="47.14698" lon="-1.64863">
        <ele>68</ele>
        <time>2021-09-04T07:29:34.000Z</time>
      </trkpt>
      <trkpt lat="47.14693" lon="-1.64883">
        <ele>68</ele>
        <time>2021-09-04T07:29:36.000Z</time>
      </trkpt>
      <trkpt lat="47.14688" lon="-1.64903">
        <ele>68</ele>
        <time>2021-09-04T07:29:38.000Z</time>
      </trkpt>
      <trkpt lat="47.14681" lon="-1.64923">
        <ele>67</ele>
        <time>2021-09-04T07:29:40.000Z</time>
      </trkpt>
      <trkpt lat="47.14674" lon="-1.64943">
        <ele>67</ele>
        <time>2021-09-04T07:29:42.000Z</time>
      </trkpt>
      <trkpt lat="47.14667" lon="-1.64963">
        <ele>67</ele>
        <time>2021-09-04T07:29:44.000Z</time>
      </trkpt>
      <trkpt lat="47.1466" lon="-1.64983">
        <ele>67</ele>
        <time>2021-09-04T07:29:46.000Z</time>
      </trkpt>
      <trkpt lat="47.14653" lon="-1.65002">
        <ele>67</ele>
        <time>2021-09-04T07:29:48.000Z</time>
      </trkpt>
      <trkpt lat="47.14646" lon="-1.6502">
        <ele>66</ele>
        <time>2021-09-04T07:29:50.000Z</time>
      </trkpt>
      <trkpt lat="47.14638" lon="-1.65039">
        <ele>66</ele>
        <time>2021-09-04T07:29:52.000Z</time>
      </trkpt>
      <trkpt lat="47.14632" lon="-1.65057">
        <ele>67</ele>
        <time>2021-09-04T07:29:54.000Z</time>
      </trkpt>
      <trkpt lat="47.14625" lon="-1.65076">
        <ele>67</ele>
        <time>2021-09-04T07:29:56.000Z</time>
      </trkpt>
      <trkpt lat="47.14617" lon="-1.65095">
        <ele>66</ele>
        <time>2021-09-04T07:29:58.000Z</time>
      </trkpt>
      <trkpt lat="47.1461" lon="-1.65113">
        <ele>66</ele>
        <time>2021-09-04T07:30:00.000Z</time>
      </trkpt>
      <trkpt lat="47.14604" lon="-1.65131">
        <ele>66</ele>
        <time>2021-09-04T07:30:02.000Z</time>
      </trkpt>
      <trkpt lat="47.14597" lon="-1.6515">
        <ele>66</ele>
        <time>2021-09-04T07:30:04.000Z</time>
      </trkpt>
      <trkpt lat="47.14591" lon="-1.6517">
        <ele>66</ele>
        <time>2021-09-04T07:30:06.000Z</time>
      </trkpt>
      <trkpt lat="47.14585" lon="-1.65189">
        <ele>67</ele>
        <time>2021-09-04T07:30:08.000Z</time>
      </trkpt>
      <trkpt lat="47.1458" lon="-1.6521">
        <ele>67</ele>
        <time>2021-09-04T07:30:10.000Z</time>
      </trkpt>
      <trkpt lat="47.14576" lon="-1.65229">
        <ele>67</ele>
        <time>2021-09-04T07:30:12.000Z</time>
      </trkpt>
      <trkpt lat="47.14571" lon="-1.65249">
        <ele>67</ele>
        <time>2021-09-04T07:30:14.000Z</time>
      </trkpt>
      <trkpt lat="47.14567" lon="-1.65269">
        <ele>67</ele>
        <time>2021-09-04T07:30:16.000Z</time>
      </trkpt>
      <trkpt lat="47.14563" lon="-1.65289">
        <ele>67</ele>
        <time>2021-09-04T07:30:18.000Z</time>
      </trkpt>
      <trkpt lat="47.14559" lon="-1.65309">
        <ele>67</ele>
        <time>2021-09-04T07:30:20.000Z</time>
      </trkpt>
      <trkpt lat="47.14554" lon="-1.6533">
        <ele>67</ele>
        <time>2021-09-04T07:30:22.000Z</time>
      </trkpt>
      <trkpt lat="47.1455" lon="-1.6535">
        <ele>67</ele>
        <time>2021-09-04T07:30:24.000Z</time>
      </trkpt>
      <trkpt lat="47.14545" lon="-1.6537">
        <ele>66</ele>
        <time>2021-09-04T07:30:26.000Z</time>
      </trkpt>
      <trkpt lat="47.14538" lon="-1.65399">
        <ele>66</ele>
        <time>2021-09-04T07:30:29.000Z</time>
      </trkpt>
      <trkpt lat="47.14532" lon="-1.65418">
        <ele>66</ele>
        <time>2021-09-04T07:30:31.000Z</time>
      </trkpt>
      <trkpt lat="47.14526" lon="-1.65438">
        <ele>65</ele>
        <time>2021-09-04T07:30:33.000Z</time>
      </trkpt>
      <trkpt lat="47.1452" lon="-1.65456">
        <ele>65</ele>
        <time>2021-09-04T07:30:35.000Z</time>
      </trkpt>
      <trkpt lat="47.14513" lon="-1.65475">
        <ele>65</ele>
        <time>2021-09-04T07:30:37.000Z</time>
      </trkpt>
      <trkpt lat="47.14506" lon="-1.65492">
        <ele>65</ele>
        <time>2021-09-04T07:30:39.000Z</time>
      </trkpt>
      <trkpt lat="47.14498" lon="-1.6551">
        <ele>66</ele>
        <time>2021-09-04T07:30:41.000Z</time>
      </trkpt>
      <trkpt lat="47.1449" lon="-1.65528">
        <ele>66</ele>
        <time>2021-09-04T07:30:43.000Z</time>
      </trkpt>
      <trkpt lat="47.14483" lon="-1.65547">
        <ele>65</ele>
        <time>2021-09-04T07:30:45.000Z</time>
      </trkpt>
      <trkpt lat="47.14471" lon="-1.65574">
        <ele>65</ele>
        <time>2021-09-04T07:30:48.000Z</time>
      </trkpt>
      <trkpt lat="47.14461" lon="-1.65602">
        <ele>65</ele>
        <time>2021-09-04T07:30:51.000Z</time>
      </trkpt>
      <trkpt lat="47.14454" lon="-1.6562">
        <ele>65</ele>
        <time>2021-09-04T07:30:53.000Z</time>
      </trkpt>
      <trkpt lat="47.14448" lon="-1.65638">
        <ele>64</ele>
        <time>2021-09-04T07:30:55.000Z</time>
      </trkpt>
      <trkpt lat="47.14441" lon="-1.65657">
        <ele>64</ele>
        <time>2021-09-04T07:30:57.000Z</time>
      </trkpt>
      <trkpt lat="47.14435" lon="-1.65676">
        <ele>64</ele>
        <time>2021-09-04T07:30:59.000Z</time>
      </trkpt>
      <trkpt lat="47.1443" lon="-1.65695">
        <ele>64</ele>
        <time>2021-09-04T07:31:01.000Z</time>
      </trkpt>
      <trkpt lat="47.14425" lon="-1.65715">
        <ele>64</ele>
        <time>2021-09-04T07:31:03.000Z</time>
      </trkpt>
      <trkpt lat="47.14419" lon="-1.65745">
        <ele>65</ele>
        <time>2021-09-04T07:31:06.000Z</time>
      </trkpt>
      <trkpt lat="47.14416" lon="-1.65765">
        <ele>65</ele>
        <time>2021-09-04T07:31:08.000Z</time>
      </trkpt>
      <trkpt lat="47.14413" lon="-1.65785">
        <ele>65</ele>
        <time>2021-09-04T07:31:10.000Z</time>
      </trkpt>
      <trkpt lat="47.1441" lon="-1.65805">
        <ele>66</ele>
        <time>2021-09-04T07:31:12.000Z</time>
      </trkpt>
      <trkpt lat="47.14408" lon="-1.65824">
        <ele>66</ele>
        <time>2021-09-04T07:31:14.000Z</time>
      </trkpt>
      <trkpt lat="47.14404" lon="-1.65853">
        <ele>67</ele>
        <time>2021-09-04T07:31:17.000Z</time>
      </trkpt>
      <trkpt lat="47.14403" lon="-1.65873">
        <ele>67</ele>
        <time>2021-09-04T07:31:19.000Z</time>
      </trkpt>
      <trkpt lat="47.14402" lon="-1.65892">
        <ele>67</ele>
        <time>2021-09-04T07:31:21.000Z</time>
      </trkpt>
      <trkpt lat="47.14401" lon="-1.65911">
        <ele>67</ele>
        <time>2021-09-04T07:31:23.000Z</time>
      </trkpt>
      <trkpt lat="47.144" lon="-1.6593">
        <ele>67</ele>
        <time>2021-09-04T07:31:25.000Z</time>
      </trkpt>
      <trkpt lat="47.14399" lon="-1.65949">
        <ele>67</ele>
        <time>2021-09-04T07:31:27.000Z</time>
      </trkpt>
      <trkpt lat="47.14398" lon="-1.65969">
        <ele>67</ele>
        <time>2021-09-04T07:31:29.000Z</time>
      </trkpt>
      <trkpt lat="47.14398" lon="-1.65989">
        <ele>67</ele>
        <time>2021-09-04T07:31:31.000Z</time>
      </trkpt>
      <trkpt lat="47.14397" lon="-1.66009">
        <ele>68</ele>
        <time>2021-09-04T07:31:33.000Z</time>
      </trkpt>
      <trkpt lat="47.14396" lon="-1.66029">
        <ele>68</ele>
        <time>2021-09-04T07:31:35.000Z</time>
      </trkpt>
      <trkpt lat="47.14397" lon="-1.6605">
        <ele>67</ele>
        <time>2021-09-04T07:31:37.000Z</time>
      </trkpt>
      <trkpt lat="47.14396" lon="-1.66069">
        <ele>68</ele>
        <time>2021-09-04T07:31:39.000Z</time>
      </trkpt>
      <trkpt lat="47.14393" lon="-1.66088">
        <ele>68</ele>
        <time>2021-09-04T07:31:41.000Z</time>
      </trkpt>
      <trkpt lat="47.14389" lon="-1.66107">
        <ele>68</ele>
        <time>2021-09-04T07:31:43.000Z</time>
      </trkpt>
      <trkpt lat="47.14386" lon="-1.66127">
        <ele>67</ele>
        <time>2021-09-04T07:31:45.000Z</time>
      </trkpt>
      <trkpt lat="47.14383" lon="-1.66146">
        <ele>67</ele>
        <time>2021-09-04T07:31:47.000Z</time>
      </trkpt>
      <trkpt lat="47.1438" lon="-1.66166">
        <ele>67</ele>
        <time>2021-09-04T07:31:49.000Z</time>
      </trkpt>
      <trkpt lat="47.14376" lon="-1.66187">
        <ele>66</ele>
        <time>2021-09-04T07:31:51.000Z</time>
      </trkpt>
      <trkpt lat="47.14373" lon="-1.66206">
        <ele>66</ele>
        <time>2021-09-04T07:31:53.000Z</time>
      </trkpt>
      <trkpt lat="47.14369" lon="-1.66227">
        <ele>65</ele>
        <time>2021-09-04T07:31:55.000Z</time>
      </trkpt>
      <trkpt lat="47.14365" lon="-1.66247">
        <ele>65</ele>
        <time>2021-09-04T07:31:57.000Z</time>
      </trkpt>
      <trkpt lat="47.1436" lon="-1.66266">
        <ele>66</ele>
        <time>2021-09-04T07:31:59.000Z</time>
      </trkpt>
      <trkpt lat="47.14356" lon="-1.66285">
        <ele>66</ele>
        <time>2021-09-04T07:32:01.000Z</time>
      </trkpt>
      <trkpt lat="47.1435" lon="-1.66304">
        <ele>66</ele>
        <time>2021-09-04T07:32:03.000Z</time>
      </trkpt>
      <trkpt lat="47.14345" lon="-1.66323">
        <ele>66</ele>
        <time>2021-09-04T07:32:05.000Z</time>
      </trkpt>
      <trkpt lat="47.14341" lon="-1.66344">
        <ele>66</ele>
        <time>2021-09-04T07:32:07.000Z</time>
      </trkpt>
      <trkpt lat="47.14336" lon="-1.66364">
        <ele>66</ele>
        <time>2021-09-04T07:32:09.000Z</time>
      </trkpt>
      <trkpt lat="47.14331" lon="-1.66383">
        <ele>66</ele>
        <time>2021-09-04T07:32:11.000Z</time>
      </trkpt>
      <trkpt lat="47.14325" lon="-1.66403">
        <ele>66</ele>
        <time>2021-09-04T07:32:13.000Z</time>
      </trkpt>
      <trkpt lat="47.14321" lon="-1.66422">
        <ele>65</ele>
        <time>2021-09-04T07:32:15.000Z</time>
      </trkpt>
      <trkpt lat="47.14315" lon="-1.66442">
        <ele>66</ele>
        <time>2021-09-04T07:32:17.000Z</time>
      </trkpt>
      <trkpt lat="47.14311" lon="-1.66461">
        <ele>65</ele>
        <time>2021-09-04T07:32:19.000Z</time>
      </trkpt>
      <trkpt lat="47.14306" lon="-1.66481">
        <ele>65</ele>
        <time>2021-09-04T07:32:21.000Z</time>
      </trkpt>
      <trkpt lat="47.14301" lon="-1.665">
        <ele>65</ele>
        <time>2021-09-04T07:32:23.000Z</time>
      </trkpt>
      <trkpt lat="47.14297" lon="-1.66519">
        <ele>65</ele>
        <time>2021-09-04T07:32:25.000Z</time>
      </trkpt>
      <trkpt lat="47.14292" lon="-1.66538">
        <ele>65</ele>
        <time>2021-09-04T07:32:27.000Z</time>
      </trkpt>
      <trkpt lat="47.14287" lon="-1.66557">
        <ele>64</ele>
        <time>2021-09-04T07:32:29.000Z</time>
      </trkpt>
      <trkpt lat="47.14281" lon="-1.66577">
        <ele>64</ele>
        <time>2021-09-04T07:32:31.000Z</time>
      </trkpt>
      <trkpt lat="47.14277" lon="-1.66596">
        <ele>63</ele>
        <time>2021-09-04T07:32:33.000Z</time>
      </trkpt>
      <trkpt lat="47.14271" lon="-1.66616">
        <ele>63</ele>
        <time>2021-09-04T07:32:35.000Z</time>
      </trkpt>
      <trkpt lat="47.14264" lon="-1.66635">
        <ele>63</ele>
        <time>2021-09-04T07:32:37.000Z</time>
      </trkpt>
      <trkpt lat="47.14258" lon="-1.66655">
        <ele>63</ele>
        <time>2021-09-04T07:32:39.000Z</time>
      </trkpt>
      <trkpt lat="47.14251" lon="-1.66675">
        <ele>62</ele>
        <time>2021-09-04T07:32:41.000Z</time>
      </trkpt>
      <trkpt lat="47.14245" lon="-1.66694">
        <ele>62</ele>
        <time>2021-09-04T07:32:43.000Z</time>
      </trkpt>
      <trkpt lat="47.14239" lon="-1.66714">
        <ele>61</ele>
        <time>2021-09-04T07:32:45.000Z</time>
      </trkpt>
      <trkpt lat="47.14232" lon="-1.66734">
        <ele>61</ele>
        <time>2021-09-04T07:32:47.000Z</time>
      </trkpt>
      <trkpt lat="47.14226" lon="-1.66753">
        <ele>61</ele>
        <time>2021-09-04T07:32:49.000Z</time>
      </trkpt>
      <trkpt lat="47.1422" lon="-1.66772">
        <ele>61</ele>
        <time>2021-09-04T07:32:51.000Z</time>
      </trkpt>
      <trkpt lat="47.14214" lon="-1.66791">
        <ele>61</ele>
        <time>2021-09-04T07:32:53.000Z</time>
      </trkpt>
      <trkpt lat="47.14208" lon="-1.66809">
        <ele>61</ele>
        <time>2021-09-04T07:32:55.000Z</time>
      </trkpt>
      <trkpt lat="47.14201" lon="-1.66828">
        <ele>61</ele>
        <time>2021-09-04T07:32:57.000Z</time>
      </trkpt>
      <trkpt lat="47.14195" lon="-1.66847">
        <ele>61</ele>
        <time>2021-09-04T07:32:59.000Z</time>
      </trkpt>
      <trkpt lat="47.1419" lon="-1.66865">
        <ele>61</ele>
        <time>2021-09-04T07:33:01.000Z</time>
      </trkpt>
      <trkpt lat="47.14187" lon="-1.66885">
        <ele>61</ele>
        <time>2021-09-04T07:33:03.000Z</time>
      </trkpt>
      <trkpt lat="47.14183" lon="-1.66904">
        <ele>62</ele>
        <time>2021-09-04T07:33:05.000Z</time>
      </trkpt>
      <trkpt lat="47.14178" lon="-1.66923">
        <ele>62</ele>
        <time>2021-09-04T07:33:07.000Z</time>
      </trkpt>
      <trkpt lat="47.14174" lon="-1.66941">
        <ele>62</ele>
        <time>2021-09-04T07:33:09.000Z</time>
      </trkpt>
      <trkpt lat="47.14173" lon="-1.66961">
        <ele>63</ele>
        <time>2021-09-04T07:33:11.000Z</time>
      </trkpt>
      <trkpt lat="47.14171" lon="-1.6698">
        <ele>63</ele>
        <time>2021-09-04T07:33:13.000Z</time>
      </trkpt>
      <trkpt lat="47.14171" lon="-1.67">
        <ele>63</ele>
        <time>2021-09-04T07:33:15.000Z</time>
      </trkpt>
      <trkpt lat="47.14171" lon="-1.67019">
        <ele>63</ele>
        <time>2021-09-04T07:33:17.000Z</time>
      </trkpt>
      <trkpt lat="47.14173" lon="-1.67039">
        <ele>63</ele>
        <time>2021-09-04T07:33:19.000Z</time>
      </trkpt>
      <trkpt lat="47.14174" lon="-1.67058">
        <ele>63</ele>
        <time>2021-09-04T07:33:21.000Z</time>
      </trkpt>
      <trkpt lat="47.14175" lon="-1.67078">
        <ele>63</ele>
        <time>2021-09-04T07:33:23.000Z</time>
      </trkpt>
      <trkpt lat="47.14178" lon="-1.67096">
        <ele>63</ele>
        <time>2021-09-04T07:33:25.000Z</time>
      </trkpt>
      <trkpt lat="47.1418" lon="-1.67115">
        <ele>63</ele>
        <time>2021-09-04T07:33:27.000Z</time>
      </trkpt>
      <trkpt lat="47.14183" lon="-1.67131">
        <ele>63</ele>
        <time>2021-09-04T07:33:29.000Z</time>
      </trkpt>
      <trkpt lat="47.14186" lon="-1.67145">
        <ele>63</ele>
        <time>2021-09-04T07:33:31.000Z</time>
      </trkpt>
      <trkpt lat="47.1419" lon="-1.67163">
        <ele>63</ele>
        <time>2021-09-04T07:33:34.000Z</time>
      </trkpt>
      <trkpt lat="47.14192" lon="-1.6718">
        <ele>64</ele>
        <time>2021-09-04T07:33:38.000Z</time>
      </trkpt>
      <trkpt lat="47.14197" lon="-1.67194">
        <ele>64</ele>
        <time>2021-09-04T07:33:43.000Z</time>
      </trkpt>
      <trkpt lat="47.14201" lon="-1.67211">
        <ele>65</ele>
        <time>2021-09-04T07:33:50.000Z</time>
      </trkpt>
      <trkpt lat="47.14205" lon="-1.67225">
        <ele>65</ele>
        <time>2021-09-04T07:33:52.000Z</time>
      </trkpt>
      <trkpt lat="47.14209" lon="-1.67242">
        <ele>66</ele>
        <time>2021-09-04T07:33:54.000Z</time>
      </trkpt>
      <trkpt lat="47.14215" lon="-1.67259">
        <ele>66</ele>
        <time>2021-09-04T07:33:56.000Z</time>
      </trkpt>
      <trkpt lat="47.14222" lon="-1.67278">
        <ele>66</ele>
        <time>2021-09-04T07:33:58.000Z</time>
      </trkpt>
      <trkpt lat="47.14229" lon="-1.67296">
        <ele>65</ele>
        <time>2021-09-04T07:34:00.000Z</time>
      </trkpt>
      <trkpt lat="47.14235" lon="-1.67313">
        <ele>66</ele>
        <time>2021-09-04T07:34:02.000Z</time>
      </trkpt>
      <trkpt lat="47.14242" lon="-1.6733">
        <ele>66</ele>
        <time>2021-09-04T07:34:04.000Z</time>
      </trkpt>
      <trkpt lat="47.14248" lon="-1.67347">
        <ele>66</ele>
        <time>2021-09-04T07:34:06.000Z</time>
      </trkpt>
      <trkpt lat="47.14255" lon="-1.67363">
        <ele>66</ele>
        <time>2021-09-04T07:34:08.000Z</time>
      </trkpt>
      <trkpt lat="47.14261" lon="-1.67379">
        <ele>66</ele>
        <time>2021-09-04T07:34:10.000Z</time>
      </trkpt>
      <trkpt lat="47.14268" lon="-1.67396">
        <ele>66</ele>
        <time>2021-09-04T07:34:12.000Z</time>
      </trkpt>
      <trkpt lat="47.14274" lon="-1.67413">
        <ele>66</ele>
        <time>2021-09-04T07:34:14.000Z</time>
      </trkpt>
      <trkpt lat="47.14281" lon="-1.67432">
        <ele>66</ele>
        <time>2021-09-04T07:34:16.000Z</time>
      </trkpt>
      <trkpt lat="47.14288" lon="-1.6745">
        <ele>66</ele>
        <time>2021-09-04T07:34:18.000Z</time>
      </trkpt>
      <trkpt lat="47.14293" lon="-1.6747">
        <ele>65</ele>
        <time>2021-09-04T07:34:20.000Z</time>
      </trkpt>
      <trkpt lat="47.14298" lon="-1.67489">
        <ele>65</ele>
        <time>2021-09-04T07:34:22.000Z</time>
      </trkpt>
      <trkpt lat="47.14302" lon="-1.67509">
        <ele>65</ele>
        <time>2021-09-04T07:34:24.000Z</time>
      </trkpt>
      <trkpt lat="47.14307" lon="-1.67529">
        <ele>65</ele>
        <time>2021-09-04T07:34:26.000Z</time>
      </trkpt>
      <trkpt lat="47.1431" lon="-1.67549">
        <ele>65</ele>
        <time>2021-09-04T07:34:28.000Z</time>
      </trkpt>
      <trkpt lat="47.14311" lon="-1.6757">
        <ele>65</ele>
        <time>2021-09-04T07:34:30.000Z</time>
      </trkpt>
      <trkpt lat="47.14313" lon="-1.67592">
        <ele>65</ele>
        <time>2021-09-04T07:34:32.000Z</time>
      </trkpt>
      <trkpt lat="47.14314" lon="-1.67614">
        <ele>65</ele>
        <time>2021-09-04T07:34:34.000Z</time>
      </trkpt>
      <trkpt lat="47.14315" lon="-1.67634">
        <ele>64</ele>
        <time>2021-09-04T07:34:36.000Z</time>
      </trkpt>
      <trkpt lat="47.14317" lon="-1.67655">
        <ele>65</ele>
        <time>2021-09-04T07:34:38.000Z</time>
      </trkpt>
      <trkpt lat="47.1432" lon="-1.67675">
        <ele>65</ele>
        <time>2021-09-04T07:34:40.000Z</time>
      </trkpt>
      <trkpt lat="47.14325" lon="-1.67695">
        <ele>65</ele>
        <time>2021-09-04T07:34:42.000Z</time>
      </trkpt>
      <trkpt lat="47.1433" lon="-1.67714">
        <ele>65</ele>
        <time>2021-09-04T07:34:44.000Z</time>
      </trkpt>
      <trkpt lat="47.14336" lon="-1.67733">
        <ele>65</ele>
        <time>2021-09-04T07:34:46.000Z</time>
      </trkpt>
      <trkpt lat="47.14341" lon="-1.67753">
        <ele>65</ele>
        <time>2021-09-04T07:34:48.000Z</time>
      </trkpt>
      <trkpt lat="47.14346" lon="-1.67772">
        <ele>65</ele>
        <time>2021-09-04T07:34:50.000Z</time>
      </trkpt>
      <trkpt lat="47.14352" lon="-1.67791">
        <ele>65</ele>
        <time>2021-09-04T07:34:52.000Z</time>
      </trkpt>
      <trkpt lat="47.14357" lon="-1.67811">
        <ele>64</ele>
        <time>2021-09-04T07:34:54.000Z</time>
      </trkpt>
      <trkpt lat="47.14361" lon="-1.67831">
        <ele>64</ele>
        <time>2021-09-04T07:34:56.000Z</time>
      </trkpt>
      <trkpt lat="47.14367" lon="-1.67849">
        <ele>64</ele>
        <time>2021-09-04T07:34:58.000Z</time>
      </trkpt>
      <trkpt lat="47.14376" lon="-1.67865">
        <ele>64</ele>
        <time>2021-09-04T07:35:00.000Z</time>
      </trkpt>
      <trkpt lat="47.14378" lon="-1.67885">
        <ele>63</ele>
        <time>2021-09-04T07:35:02.000Z</time>
      </trkpt>
      <trkpt lat="47.14372" lon="-1.67904">
        <ele>63</ele>
        <time>2021-09-04T07:35:04.000Z</time>
      </trkpt>
      <trkpt lat="47.14369" lon="-1.67924">
        <ele>63</ele>
        <time>2021-09-04T07:35:06.000Z</time>
      </trkpt>
      <trkpt lat="47.1437" lon="-1.67944">
        <ele>63</ele>
        <time>2021-09-04T07:35:08.000Z</time>
      </trkpt>
      <trkpt lat="47.14372" lon="-1.67964">
        <ele>64</ele>
        <time>2021-09-04T07:35:10.000Z</time>
      </trkpt>
      <trkpt lat="47.14372" lon="-1.67984">
        <ele>64</ele>
        <time>2021-09-04T07:35:12.000Z</time>
      </trkpt>
      <trkpt lat="47.14373" lon="-1.68004">
        <ele>63</ele>
        <time>2021-09-04T07:35:14.000Z</time>
      </trkpt>
      <trkpt lat="47.14373" lon="-1.68023">
        <ele>63</ele>
        <time>2021-09-04T07:35:16.000Z</time>
      </trkpt>
      <trkpt lat="47.14374" lon="-1.68042">
        <ele>64</ele>
        <time>2021-09-04T07:35:18.000Z</time>
      </trkpt>
      <trkpt lat="47.14375" lon="-1.68062">
        <ele>64</ele>
        <time>2021-09-04T07:35:20.000Z</time>
      </trkpt>
      <trkpt lat="47.14377" lon="-1.68081">
        <ele>65</ele>
        <time>2021-09-04T07:35:22.000Z</time>
      </trkpt>
      <trkpt lat="47.14378" lon="-1.68102">
        <ele>65</ele>
        <time>2021-09-04T07:35:24.000Z</time>
      </trkpt>
      <trkpt lat="47.1438" lon="-1.68122">
        <ele>66</ele>
        <time>2021-09-04T07:35:26.000Z</time>
      </trkpt>
      <trkpt lat="47.14382" lon="-1.68141">
        <ele>66</ele>
        <time>2021-09-04T07:35:28.000Z</time>
      </trkpt>
      <trkpt lat="47.14384" lon="-1.68161">
        <ele>66</ele>
        <time>2021-09-04T07:35:30.000Z</time>
      </trkpt>
      <trkpt lat="47.14387" lon="-1.68181">
        <ele>66</ele>
        <time>2021-09-04T07:35:32.000Z</time>
      </trkpt>
      <trkpt lat="47.14389" lon="-1.682">
        <ele>65</ele>
        <time>2021-09-04T07:35:34.000Z</time>
      </trkpt>
      <trkpt lat="47.14392" lon="-1.68218">
        <ele>65</ele>
        <time>2021-09-04T07:35:36.000Z</time>
      </trkpt>
      <trkpt lat="47.14401" lon="-1.68228">
        <ele>65</ele>
        <time>2021-09-04T07:35:38.000Z</time>
      </trkpt>
      <trkpt lat="47.14405" lon="-1.68243">
        <ele>65</ele>
        <time>2021-09-04T07:35:40.000Z</time>
      </trkpt>
      <trkpt lat="47.14397" lon="-1.68258">
        <ele>64</ele>
        <time>2021-09-04T07:35:42.000Z</time>
      </trkpt>
      <trkpt lat="47.14397" lon="-1.68276">
        <ele>64</ele>
        <time>2021-09-04T07:35:44.000Z</time>
      </trkpt>
      <trkpt lat="47.14401" lon="-1.68297">
        <ele>64</ele>
        <time>2021-09-04T07:35:46.000Z</time>
      </trkpt>
      <trkpt lat="47.14404" lon="-1.68316">
        <ele>64</ele>
        <time>2021-09-04T07:35:48.000Z</time>
      </trkpt>
      <trkpt lat="47.14406" lon="-1.68337">
        <ele>64</ele>
        <time>2021-09-04T07:35:50.000Z</time>
      </trkpt>
      <trkpt lat="47.14407" lon="-1.68358">
        <ele>64</ele>
        <time>2021-09-04T07:35:52.000Z</time>
      </trkpt>
      <trkpt lat="47.14408" lon="-1.68378">
        <ele>64</ele>
        <time>2021-09-04T07:35:54.000Z</time>
      </trkpt>
      <trkpt lat="47.14409" lon="-1.68398">
        <ele>64</ele>
        <time>2021-09-04T07:35:56.000Z</time>
      </trkpt>
      <trkpt lat="47.14408" lon="-1.68418">
        <ele>64</ele>
        <time>2021-09-04T07:35:58.000Z</time>
      </trkpt>
      <trkpt lat="47.14407" lon="-1.68438">
        <ele>65</ele>
        <time>2021-09-04T07:36:00.000Z</time>
      </trkpt>
      <trkpt lat="47.14406" lon="-1.68457">
        <ele>65</ele>
        <time>2021-09-04T07:36:02.000Z</time>
      </trkpt>
      <trkpt lat="47.14406" lon="-1.68476">
        <ele>66</ele>
        <time>2021-09-04T07:36:04.000Z</time>
      </trkpt>
      <trkpt lat="47.14407" lon="-1.68495">
        <ele>66</ele>
        <time>2021-09-04T07:36:06.000Z</time>
      </trkpt>
      <trkpt lat="47.14406" lon="-1.68515">
        <ele>66</ele>
        <time>2021-09-04T07:36:08.000Z</time>
      </trkpt>
      <trkpt lat="47.14403" lon="-1.68533">
        <ele>66</ele>
        <time>2021-09-04T07:36:10.000Z</time>
      </trkpt>
      <trkpt lat="47.14402" lon="-1.68552">
        <ele>66</ele>
        <time>2021-09-04T07:36:12.000Z</time>
      </trkpt>
      <trkpt lat="47.14403" lon="-1.6857">
        <ele>66</ele>
        <time>2021-09-04T07:36:14.000Z</time>
      </trkpt>
      <trkpt lat="47.14405" lon="-1.68589">
        <ele>66</ele>
        <time>2021-09-04T07:36:16.000Z</time>
      </trkpt>
      <trkpt lat="47.14407" lon="-1.68607">
        <ele>66</ele>
        <time>2021-09-04T07:36:18.000Z</time>
      </trkpt>
      <trkpt lat="47.14411" lon="-1.68624">
        <ele>66</ele>
        <time>2021-09-04T07:36:20.000Z</time>
      </trkpt>
      <trkpt lat="47.14416" lon="-1.68643">
        <ele>67</ele>
        <time>2021-09-04T07:36:22.000Z</time>
      </trkpt>
      <trkpt lat="47.1442" lon="-1.68661">
        <ele>67</ele>
        <time>2021-09-04T07:36:24.000Z</time>
      </trkpt>
      <trkpt lat="47.14424" lon="-1.68676">
        <ele>66</ele>
        <time>2021-09-04T07:36:26.000Z</time>
      </trkpt>
      <trkpt lat="47.14428" lon="-1.68691">
        <ele>65</ele>
        <time>2021-09-04T07:36:29.000Z</time>
      </trkpt>
      <trkpt lat="47.14422" lon="-1.68704">
        <ele>66</ele>
        <time>2021-09-04T07:36:31.000Z</time>
      </trkpt>
      <trkpt lat="47.1442" lon="-1.68722">
        <ele>66</ele>
        <time>2021-09-04T07:36:33.000Z</time>
      </trkpt>
      <trkpt lat="47.14418" lon="-1.68741">
        <ele>66</ele>
        <time>2021-09-04T07:36:35.000Z</time>
      </trkpt>
      <trkpt lat="47.14416" lon="-1.68761">
        <ele>66</ele>
        <time>2021-09-04T07:36:37.000Z</time>
      </trkpt>
      <trkpt lat="47.14415" lon="-1.68781">
        <ele>66</ele>
        <time>2021-09-04T07:36:39.000Z</time>
      </trkpt>
      <trkpt lat="47.14413" lon="-1.688">
        <ele>66</ele>
        <time>2021-09-04T07:36:41.000Z</time>
      </trkpt>
      <trkpt lat="47.14411" lon="-1.68819">
        <ele>67</ele>
        <time>2021-09-04T07:36:43.000Z</time>
      </trkpt>
      <trkpt lat="47.14409" lon="-1.68838">
        <ele>67</ele>
        <time>2021-09-04T07:36:45.000Z</time>
      </trkpt>
      <trkpt lat="47.14408" lon="-1.68856">
        <ele>68</ele>
        <time>2021-09-04T07:36:47.000Z</time>
      </trkpt>
      <trkpt lat="47.14406" lon="-1.68875">
        <ele>68</ele>
        <time>2021-09-04T07:36:49.000Z</time>
      </trkpt>
      <trkpt lat="47.14405" lon="-1.68894">
        <ele>69</ele>
        <time>2021-09-04T07:36:51.000Z</time>
      </trkpt>
      <trkpt lat="47.14403" lon="-1.68913">
        <ele>69</ele>
        <time>2021-09-04T07:36:53.000Z</time>
      </trkpt>
      <trkpt lat="47.14402" lon="-1.68933">
        <ele>69</ele>
        <time>2021-09-04T07:36:55.000Z</time>
      </trkpt>
      <trkpt lat="47.14401" lon="-1.68952">
        <ele>69</ele>
        <time>2021-09-04T07:36:57.000Z</time>
      </trkpt>
      <trkpt lat="47.14401" lon="-1.68972">
        <ele>69</ele>
        <time>2021-09-04T07:36:59.000Z</time>
      </trkpt>
      <trkpt lat="47.14402" lon="-1.68991">
        <ele>70</ele>
        <time>2021-09-04T07:37:01.000Z</time>
      </trkpt>
      <trkpt lat="47.14402" lon="-1.69009">
        <ele>70</ele>
        <time>2021-09-04T07:37:03.000Z</time>
      </trkpt>
      <trkpt lat="47.144" lon="-1.69028">
        <ele>70</ele>
        <time>2021-09-04T07:37:05.000Z</time>
      </trkpt>
      <trkpt lat="47.14399" lon="-1.69046">
        <ele>70</ele>
        <time>2021-09-04T07:37:07.000Z</time>
      </trkpt>
      <trkpt lat="47.14399" lon="-1.69065">
        <ele>70</ele>
        <time>2021-09-04T07:37:09.000Z</time>
      </trkpt>
      <trkpt lat="47.14399" lon="-1.69085">
        <ele>70</ele>
        <time>2021-09-04T07:37:11.000Z</time>
      </trkpt>
      <trkpt lat="47.14399" lon="-1.69104">
        <ele>70</ele>
        <time>2021-09-04T07:37:13.000Z</time>
      </trkpt>
      <trkpt lat="47.14399" lon="-1.69123">
        <ele>70</ele>
        <time>2021-09-04T07:37:15.000Z</time>
      </trkpt>
      <trkpt lat="47.14399" lon="-1.69141">
        <ele>70</ele>
        <time>2021-09-04T07:37:17.000Z</time>
      </trkpt>
      <trkpt lat="47.14398" lon="-1.6916">
        <ele>70</ele>
        <time>2021-09-04T07:37:19.000Z</time>
      </trkpt>
      <trkpt lat="47.14398" lon="-1.6918">
        <ele>70</ele>
        <time>2021-09-04T07:37:21.000Z</time>
      </trkpt>
      <trkpt lat="47.14398" lon="-1.69199">
        <ele>70</ele>
        <time>2021-09-04T07:37:23.000Z</time>
      </trkpt>
      <trkpt lat="47.14397" lon="-1.69217">
        <ele>69</ele>
        <time>2021-09-04T07:37:25.000Z</time>
      </trkpt>
      <trkpt lat="47.14397" lon="-1.69234">
        <ele>69</ele>
        <time>2021-09-04T07:37:27.000Z</time>
      </trkpt>
      <trkpt lat="47.14397" lon="-1.6925">
        <ele>69</ele>
        <time>2021-09-04T07:37:29.000Z</time>
      </trkpt>
      <trkpt lat="47.14397" lon="-1.69265">
        <ele>69</ele>
        <time>2021-09-04T07:37:31.000Z</time>
      </trkpt>
      <trkpt lat="47.14397" lon="-1.69282">
        <ele>69</ele>
        <time>2021-09-04T07:37:34.000Z</time>
      </trkpt>
      <trkpt lat="47.14398" lon="-1.69296">
        <ele>69</ele>
        <time>2021-09-04T07:37:41.000Z</time>
      </trkpt>
      <trkpt lat="47.14401" lon="-1.69312">
        <ele>71</ele>
        <time>2021-09-04T07:37:52.000Z</time>
      </trkpt>
      <trkpt lat="47.14398" lon="-1.69329">
        <ele>72</ele>
        <time>2021-09-04T07:37:54.000Z</time>
      </trkpt>
      <trkpt lat="47.14396" lon="-1.69349">
        <ele>72</ele>
        <time>2021-09-04T07:37:56.000Z</time>
      </trkpt>
      <trkpt lat="47.14392" lon="-1.69368">
        <ele>72</ele>
        <time>2021-09-04T07:37:58.000Z</time>
      </trkpt>
      <trkpt lat="47.14389" lon="-1.69387">
        <ele>72</ele>
        <time>2021-09-04T07:38:00.000Z</time>
      </trkpt>
      <trkpt lat="47.14387" lon="-1.69405">
        <ele>72</ele>
        <time>2021-09-04T07:38:02.000Z</time>
      </trkpt>
      <trkpt lat="47.14386" lon="-1.69425">
        <ele>72</ele>
        <time>2021-09-04T07:38:04.000Z</time>
      </trkpt>
      <trkpt lat="47.14385" lon="-1.69446">
        <ele>71</ele>
        <time>2021-09-04T07:38:06.000Z</time>
      </trkpt>
      <trkpt lat="47.14384" lon="-1.69469">
        <ele>70</ele>
        <time>2021-09-04T07:38:08.000Z</time>
      </trkpt>
      <trkpt lat="47.14383" lon="-1.69491">
        <ele>69</ele>
        <time>2021-09-04T07:38:10.000Z</time>
      </trkpt>
      <trkpt lat="47.14382" lon="-1.69513">
        <ele>68</ele>
        <time>2021-09-04T07:38:12.000Z</time>
      </trkpt>
      <trkpt lat="47.14378" lon="-1.69533">
        <ele>68</ele>
        <time>2021-09-04T07:38:14.000Z</time>
      </trkpt>
      <trkpt lat="47.14373" lon="-1.69554">
        <ele>67</ele>
        <time>2021-09-04T07:38:16.000Z</time>
      </trkpt>
      <trkpt lat="47.14367" lon="-1.69575">
        <ele>66</ele>
        <time>2021-09-04T07:38:18.000Z</time>
      </trkpt>
      <trkpt lat="47.1436" lon="-1.69597">
        <ele>66</ele>
        <time>2021-09-04T07:38:20.000Z</time>
      </trkpt>
      <trkpt lat="47.14353" lon="-1.69617">
        <ele>65</ele>
        <time>2021-09-04T07:38:22.000Z</time>
      </trkpt>
      <trkpt lat="47.14347" lon="-1.69638">
        <ele>64</ele>
        <time>2021-09-04T07:38:24.000Z</time>
      </trkpt>
      <trkpt lat="47.1434" lon="-1.6966">
        <ele>64</ele>
        <time>2021-09-04T07:38:26.000Z</time>
      </trkpt>
      <trkpt lat="47.14334" lon="-1.69682">
        <ele>63</ele>
        <time>2021-09-04T07:38:28.000Z</time>
      </trkpt>
      <trkpt lat="47.14327" lon="-1.69704">
        <ele>62</ele>
        <time>2021-09-04T07:38:30.000Z</time>
      </trkpt>
      <trkpt lat="47.14314" lon="-1.69714">
        <ele>61</ele>
        <time>2021-09-04T07:38:32.000Z</time>
      </trkpt>
      <trkpt lat="47.14298" lon="-1.69712">
        <ele>62</ele>
        <time>2021-09-04T07:38:34.000Z</time>
      </trkpt>
      <trkpt lat="47.14282" lon="-1.69711">
        <ele>61</ele>
        <time>2021-09-04T07:38:36.000Z</time>
      </trkpt>
      <trkpt lat="47.14266" lon="-1.6971">
        <ele>61</ele>
        <time>2021-09-04T07:38:38.000Z</time>
      </trkpt>
      <trkpt lat="47.14251" lon="-1.6971">
        <ele>61</ele>
        <time>2021-09-04T07:38:40.000Z</time>
      </trkpt>
      <trkpt lat="47.14235" lon="-1.69713">
        <ele>60</ele>
        <time>2021-09-04T07:38:42.000Z</time>
      </trkpt>
      <trkpt lat="47.1422" lon="-1.69715">
        <ele>60</ele>
        <time>2021-09-04T07:38:44.000Z</time>
      </trkpt>
      <trkpt lat="47.14205" lon="-1.69717">
        <ele>59</ele>
        <time>2021-09-04T07:38:46.000Z</time>
      </trkpt>
      <trkpt lat="47.1419" lon="-1.69719">
        <ele>60</ele>
        <time>2021-09-04T07:38:48.000Z</time>
      </trkpt>
      <trkpt lat="47.14174" lon="-1.69722">
        <ele>59</ele>
        <time>2021-09-04T07:38:50.000Z</time>
      </trkpt>
      <trkpt lat="47.14159" lon="-1.69724">
        <ele>59</ele>
        <time>2021-09-04T07:38:52.000Z</time>
      </trkpt>
      <trkpt lat="47.14144" lon="-1.69726">
        <ele>59</ele>
        <time>2021-09-04T07:38:54.000Z</time>
      </trkpt>
      <trkpt lat="47.1413" lon="-1.69728">
        <ele>59</ele>
        <time>2021-09-04T07:38:56.000Z</time>
      </trkpt>
      <trkpt lat="47.14115" lon="-1.69731">
        <ele>59</ele>
        <time>2021-09-04T07:38:58.000Z</time>
      </trkpt>
      <trkpt lat="47.14101" lon="-1.69733">
        <ele>59</ele>
        <time>2021-09-04T07:39:00.000Z</time>
      </trkpt>
      <trkpt lat="47.14086" lon="-1.69734">
        <ele>59</ele>
        <time>2021-09-04T07:39:02.000Z</time>
      </trkpt>
      <trkpt lat="47.14072" lon="-1.69735">
        <ele>60</ele>
        <time>2021-09-04T07:39:04.000Z</time>
      </trkpt>
      <trkpt lat="47.14059" lon="-1.69734">
        <ele>60</ele>
        <time>2021-09-04T07:39:06.000Z</time>
      </trkpt>
      <trkpt lat="47.14045" lon="-1.69733">
        <ele>60</ele>
        <time>2021-09-04T07:39:08.000Z</time>
      </trkpt>
      <trkpt lat="47.14031" lon="-1.69732">
        <ele>60</ele>
        <time>2021-09-04T07:39:10.000Z</time>
      </trkpt>
      <trkpt lat="47.14017" lon="-1.6973">
        <ele>61</ele>
        <time>2021-09-04T07:39:12.000Z</time>
      </trkpt>
      <trkpt lat="47.14004" lon="-1.69729">
        <ele>60</ele>
        <time>2021-09-04T07:39:14.000Z</time>
      </trkpt>
      <trkpt lat="47.1399" lon="-1.69729">
        <ele>60</ele>
        <time>2021-09-04T07:39:16.000Z</time>
      </trkpt>
      <trkpt lat="47.13977" lon="-1.69728">
        <ele>61</ele>
        <time>2021-09-04T07:39:18.000Z</time>
      </trkpt>
      <trkpt lat="47.13963" lon="-1.69726">
        <ele>60</ele>
        <time>2021-09-04T07:39:20.000Z</time>
      </trkpt>
      <trkpt lat="47.13949" lon="-1.69724">
        <ele>59</ele>
        <time>2021-09-04T07:39:22.000Z</time>
      </trkpt>
      <trkpt lat="47.13934" lon="-1.69722">
        <ele>59</ele>
        <time>2021-09-04T07:39:24.000Z</time>
      </trkpt>
      <trkpt lat="47.13918" lon="-1.69722">
        <ele>58</ele>
        <time>2021-09-04T07:39:26.000Z</time>
      </trkpt>
      <trkpt lat="47.13903" lon="-1.69722">
        <ele>57</ele>
        <time>2021-09-04T07:39:28.000Z</time>
      </trkpt>
      <trkpt lat="47.13888" lon="-1.69724">
        <ele>57</ele>
        <time>2021-09-04T07:39:30.000Z</time>
      </trkpt>
      <trkpt lat="47.13873" lon="-1.69726">
        <ele>57</ele>
        <time>2021-09-04T07:39:32.000Z</time>
      </trkpt>
      <trkpt lat="47.13858" lon="-1.69729">
        <ele>58</ele>
        <time>2021-09-04T07:39:34.000Z</time>
      </trkpt>
      <trkpt lat="47.13844" lon="-1.69731">
        <ele>57</ele>
        <time>2021-09-04T07:39:36.000Z</time>
      </trkpt>
      <trkpt lat="47.13829" lon="-1.69731">
        <ele>57</ele>
        <time>2021-09-04T07:39:38.000Z</time>
      </trkpt>
      <trkpt lat="47.13814" lon="-1.69731">
        <ele>57</ele>
        <time>2021-09-04T07:39:40.000Z</time>
      </trkpt>
      <trkpt lat="47.13799" lon="-1.6973">
        <ele>57</ele>
        <time>2021-09-04T07:39:42.000Z</time>
      </trkpt>
      <trkpt lat="47.13784" lon="-1.69729">
        <ele>57</ele>
        <time>2021-09-04T07:39:44.000Z</time>
      </trkpt>
      <trkpt lat="47.13769" lon="-1.69728">
        <ele>57</ele>
        <time>2021-09-04T07:39:46.000Z</time>
      </trkpt>
      <trkpt lat="47.13753" lon="-1.69729">
        <ele>58</ele>
        <time>2021-09-04T07:39:48.000Z</time>
      </trkpt>
      <trkpt lat="47.13739" lon="-1.69732">
        <ele>59</ele>
        <time>2021-09-04T07:39:50.000Z</time>
      </trkpt>
      <trkpt lat="47.13724" lon="-1.69735">
        <ele>59</ele>
        <time>2021-09-04T07:39:52.000Z</time>
      </trkpt>
      <trkpt lat="47.1371" lon="-1.69738">
        <ele>58</ele>
        <time>2021-09-04T07:39:54.000Z</time>
      </trkpt>
      <trkpt lat="47.13695" lon="-1.6974">
        <ele>58</ele>
        <time>2021-09-04T07:39:56.000Z</time>
      </trkpt>
      <trkpt lat="47.1368" lon="-1.69741">
        <ele>58</ele>
        <time>2021-09-04T07:39:58.000Z</time>
      </trkpt>
      <trkpt lat="47.13665" lon="-1.69741">
        <ele>58</ele>
        <time>2021-09-04T07:40:00.000Z</time>
      </trkpt>
      <trkpt lat="47.1365" lon="-1.6974">
        <ele>57</ele>
        <time>2021-09-04T07:40:02.000Z</time>
      </trkpt>
      <trkpt lat="47.13635" lon="-1.6974">
        <ele>58</ele>
        <time>2021-09-04T07:40:04.000Z</time>
      </trkpt>
      <trkpt lat="47.13619" lon="-1.69739">
        <ele>58</ele>
        <time>2021-09-04T07:40:06.000Z</time>
      </trkpt>
      <trkpt lat="47.13604" lon="-1.69739">
        <ele>57</ele>
        <time>2021-09-04T07:40:08.000Z</time>
      </trkpt>
      <trkpt lat="47.13589" lon="-1.69739">
        <ele>57</ele>
        <time>2021-09-04T07:40:10.000Z</time>
      </trkpt>
      <trkpt lat="47.13574" lon="-1.69739">
        <ele>57</ele>
        <time>2021-09-04T07:40:12.000Z</time>
      </trkpt>
      <trkpt lat="47.13559" lon="-1.69739">
        <ele>58</ele>
        <time>2021-09-04T07:40:14.000Z</time>
      </trkpt>
      <trkpt lat="47.13543" lon="-1.69739">
        <ele>58</ele>
        <time>2021-09-04T07:40:16.000Z</time>
      </trkpt>
      <trkpt lat="47.13529" lon="-1.6974">
        <ele>57</ele>
        <time>2021-09-04T07:40:18.000Z</time>
      </trkpt>
      <trkpt lat="47.13514" lon="-1.69741">
        <ele>57</ele>
        <time>2021-09-04T07:40:20.000Z</time>
      </trkpt>
      <trkpt lat="47.13499" lon="-1.69742">
        <ele>56</ele>
        <time>2021-09-04T07:40:22.000Z</time>
      </trkpt>
      <trkpt lat="47.13485" lon="-1.69744">
        <ele>56</ele>
        <time>2021-09-04T07:40:24.000Z</time>
      </trkpt>
      <trkpt lat="47.1347" lon="-1.69747">
        <ele>56</ele>
        <time>2021-09-04T07:40:26.000Z</time>
      </trkpt>
      <trkpt lat="47.13457" lon="-1.69751">
        <ele>57</ele>
        <time>2021-09-04T07:40:28.000Z</time>
      </trkpt>
      <trkpt lat="47.13444" lon="-1.69758">
        <ele>58</ele>
        <time>2021-09-04T07:40:30.000Z</time>
      </trkpt>
      <trkpt lat="47.13431" lon="-1.69765">
        <ele>60</ele>
        <time>2021-09-04T07:40:32.000Z</time>
      </trkpt>
      <trkpt lat="47.13419" lon="-1.69772">
        <ele>60</ele>
        <time>2021-09-04T07:40:34.000Z</time>
      </trkpt>
      <trkpt lat="47.13405" lon="-1.6978">
        <ele>60</ele>
        <time>2021-09-04T07:40:36.000Z</time>
      </trkpt>
      <trkpt lat="47.13391" lon="-1.69787">
        <ele>59</ele>
        <time>2021-09-04T07:40:38.000Z</time>
      </trkpt>
      <trkpt lat="47.13376" lon="-1.69795">
        <ele>59</ele>
        <time>2021-09-04T07:40:40.000Z</time>
      </trkpt>
      <trkpt lat="47.13361" lon="-1.69802">
        <ele>60</ele>
        <time>2021-09-04T07:40:42.000Z</time>
      </trkpt>
      <trkpt lat="47.13346" lon="-1.6981">
        <ele>60</ele>
        <time>2021-09-04T07:40:44.000Z</time>
      </trkpt>
      <trkpt lat="47.1333" lon="-1.69817">
        <ele>60</ele>
        <time>2021-09-04T07:40:46.000Z</time>
      </trkpt>
      <trkpt lat="47.13316" lon="-1.69824">
        <ele>60</ele>
        <time>2021-09-04T07:40:48.000Z</time>
      </trkpt>
      <trkpt lat="47.13302" lon="-1.69831">
        <ele>60</ele>
        <time>2021-09-04T07:40:50.000Z</time>
      </trkpt>
      <trkpt lat="47.13288" lon="-1.69838">
        <ele>59</ele>
        <time>2021-09-04T07:40:52.000Z</time>
      </trkpt>
      <trkpt lat="47.13275" lon="-1.69844">
        <ele>60</ele>
        <time>2021-09-04T07:40:54.000Z</time>
      </trkpt>
      <trkpt lat="47.13262" lon="-1.69851">
        <ele>60</ele>
        <time>2021-09-04T07:40:56.000Z</time>
      </trkpt>
      <trkpt lat="47.13249" lon="-1.69857">
        <ele>59</ele>
        <time>2021-09-04T07:40:58.000Z</time>
      </trkpt>
      <trkpt lat="47.13237" lon="-1.69865">
        <ele>58</ele>
        <time>2021-09-04T07:41:00.000Z</time>
      </trkpt>
      <trkpt lat="47.13223" lon="-1.69872">
        <ele>57</ele>
        <time>2021-09-04T07:41:02.000Z</time>
      </trkpt>
      <trkpt lat="47.13208" lon="-1.69879">
        <ele>56</ele>
        <time>2021-09-04T07:41:04.000Z</time>
      </trkpt>
      <trkpt lat="47.13192" lon="-1.69888">
        <ele>56</ele>
        <time>2021-09-04T07:41:06.000Z</time>
      </trkpt>
      <trkpt lat="47.13177" lon="-1.69897">
        <ele>56</ele>
        <time>2021-09-04T07:41:08.000Z</time>
      </trkpt>
      <trkpt lat="47.13162" lon="-1.69905">
        <ele>56</ele>
        <time>2021-09-04T07:41:10.000Z</time>
      </trkpt>
      <trkpt lat="47.13147" lon="-1.69913">
        <ele>55</ele>
        <time>2021-09-04T07:41:12.000Z</time>
      </trkpt>
      <trkpt lat="47.13132" lon="-1.69921">
        <ele>55</ele>
        <time>2021-09-04T07:41:14.000Z</time>
      </trkpt>
      <trkpt lat="47.13117" lon="-1.69929">
        <ele>55</ele>
        <time>2021-09-04T07:41:16.000Z</time>
      </trkpt>
      <trkpt lat="47.13102" lon="-1.69936">
        <ele>55</ele>
        <time>2021-09-04T07:41:18.000Z</time>
      </trkpt>
      <trkpt lat="47.13088" lon="-1.69944">
        <ele>55</ele>
        <time>2021-09-04T07:41:20.000Z</time>
      </trkpt>
      <trkpt lat="47.13074" lon="-1.6995">
        <ele>54</ele>
        <time>2021-09-04T07:41:22.000Z</time>
      </trkpt>
      <trkpt lat="47.1306" lon="-1.69959">
        <ele>55</ele>
        <time>2021-09-04T07:41:24.000Z</time>
      </trkpt>
      <trkpt lat="47.13045" lon="-1.69966">
        <ele>55</ele>
        <time>2021-09-04T07:41:26.000Z</time>
      </trkpt>
      <trkpt lat="47.13032" lon="-1.69973">
        <ele>55</ele>
        <time>2021-09-04T07:41:28.000Z</time>
      </trkpt>
      <trkpt lat="47.13017" lon="-1.69979">
        <ele>54</ele>
        <time>2021-09-04T07:41:30.000Z</time>
      </trkpt>
      <trkpt lat="47.13001" lon="-1.69986">
        <ele>54</ele>
        <time>2021-09-04T07:41:32.000Z</time>
      </trkpt>
      <trkpt lat="47.12987" lon="-1.69994">
        <ele>55</ele>
        <time>2021-09-04T07:41:34.000Z</time>
      </trkpt>
      <trkpt lat="47.12972" lon="-1.70003">
        <ele>54</ele>
        <time>2021-09-04T07:41:36.000Z</time>
      </trkpt>
      <trkpt lat="47.12957" lon="-1.70011">
        <ele>54</ele>
        <time>2021-09-04T07:41:38.000Z</time>
      </trkpt>
      <trkpt lat="47.12942" lon="-1.70017">
        <ele>54</ele>
        <time>2021-09-04T07:41:40.000Z</time>
      </trkpt>
      <trkpt lat="47.12927" lon="-1.70026">
        <ele>54</ele>
        <time>2021-09-04T07:41:42.000Z</time>
      </trkpt>
      <trkpt lat="47.12913" lon="-1.70034">
        <ele>54</ele>
        <time>2021-09-04T07:41:44.000Z</time>
      </trkpt>
      <trkpt lat="47.12899" lon="-1.70041">
        <ele>55</ele>
        <time>2021-09-04T07:41:46.000Z</time>
      </trkpt>
      <trkpt lat="47.12884" lon="-1.70048">
        <ele>55</ele>
        <time>2021-09-04T07:41:48.000Z</time>
      </trkpt>
      <trkpt lat="47.1287" lon="-1.70057">
        <ele>55</ele>
        <time>2021-09-04T07:41:50.000Z</time>
      </trkpt>
      <trkpt lat="47.12856" lon="-1.70064">
        <ele>55</ele>
        <time>2021-09-04T07:41:52.000Z</time>
      </trkpt>
      <trkpt lat="47.12843" lon="-1.70072">
        <ele>55</ele>
        <time>2021-09-04T07:41:54.000Z</time>
      </trkpt>
      <trkpt lat="47.12827" lon="-1.7008">
        <ele>56</ele>
        <time>2021-09-04T07:41:56.000Z</time>
      </trkpt>
      <trkpt lat="47.12812" lon="-1.70087">
        <ele>56</ele>
        <time>2021-09-04T07:41:58.000Z</time>
      </trkpt>
      <trkpt lat="47.12798" lon="-1.70094">
        <ele>56</ele>
        <time>2021-09-04T07:42:00.000Z</time>
      </trkpt>
      <trkpt lat="47.12784" lon="-1.70102">
        <ele>56</ele>
        <time>2021-09-04T07:42:02.000Z</time>
      </trkpt>
      <trkpt lat="47.1277" lon="-1.70109">
        <ele>56</ele>
        <time>2021-09-04T07:42:04.000Z</time>
      </trkpt>
      <trkpt lat="47.12755" lon="-1.70117">
        <ele>55</ele>
        <time>2021-09-04T07:42:06.000Z</time>
      </trkpt>
      <trkpt lat="47.1274" lon="-1.70125">
        <ele>56</ele>
        <time>2021-09-04T07:42:08.000Z</time>
      </trkpt>
      <trkpt lat="47.12726" lon="-1.70132">
        <ele>55</ele>
        <time>2021-09-04T07:42:10.000Z</time>
      </trkpt>
      <trkpt lat="47.12712" lon="-1.70139">
        <ele>56</ele>
        <time>2021-09-04T07:42:12.000Z</time>
      </trkpt>
      <trkpt lat="47.12698" lon="-1.70147">
        <ele>55</ele>
        <time>2021-09-04T07:42:14.000Z</time>
      </trkpt>
      <trkpt lat="47.12684" lon="-1.70154">
        <ele>56</ele>
        <time>2021-09-04T07:42:16.000Z</time>
      </trkpt>
      <trkpt lat="47.1267" lon="-1.70161">
        <ele>55</ele>
        <time>2021-09-04T07:42:18.000Z</time>
      </trkpt>
      <trkpt lat="47.12657" lon="-1.70168">
        <ele>55</ele>
        <time>2021-09-04T07:42:20.000Z</time>
      </trkpt>
      <trkpt lat="47.12642" lon="-1.70176">
        <ele>55</ele>
        <time>2021-09-04T07:42:22.000Z</time>
      </trkpt>
      <trkpt lat="47.12628" lon="-1.70183">
        <ele>54</ele>
        <time>2021-09-04T07:42:24.000Z</time>
      </trkpt>
      <trkpt lat="47.12615" lon="-1.70191">
        <ele>53</ele>
        <time>2021-09-04T07:42:26.000Z</time>
      </trkpt>
      <trkpt lat="47.12601" lon="-1.70197">
        <ele>53</ele>
        <time>2021-09-04T07:42:28.000Z</time>
      </trkpt>
      <trkpt lat="47.12589" lon="-1.70204">
        <ele>53</ele>
        <time>2021-09-04T07:42:30.000Z</time>
      </trkpt>
      <trkpt lat="47.12574" lon="-1.7021">
        <ele>54</ele>
        <time>2021-09-04T07:42:32.000Z</time>
      </trkpt>
      <trkpt lat="47.12561" lon="-1.70217">
        <ele>54</ele>
        <time>2021-09-04T07:42:34.000Z</time>
      </trkpt>
      <trkpt lat="47.12547" lon="-1.70225">
        <ele>54</ele>
        <time>2021-09-04T07:42:36.000Z</time>
      </trkpt>
      <trkpt lat="47.12533" lon="-1.70233">
        <ele>54</ele>
        <time>2021-09-04T07:42:38.000Z</time>
      </trkpt>
      <trkpt lat="47.12518" lon="-1.7024">
        <ele>55</ele>
        <time>2021-09-04T07:42:40.000Z</time>
      </trkpt>
      <trkpt lat="47.12504" lon="-1.70247">
        <ele>55</ele>
        <time>2021-09-04T07:42:42.000Z</time>
      </trkpt>
      <trkpt lat="47.12489" lon="-1.70255">
        <ele>56</ele>
        <time>2021-09-04T07:42:44.000Z</time>
      </trkpt>
      <trkpt lat="47.12473" lon="-1.70264">
        <ele>56</ele>
        <time>2021-09-04T07:42:46.000Z</time>
      </trkpt>
      <trkpt lat="47.12458" lon="-1.70275">
        <ele>56</ele>
        <time>2021-09-04T07:42:48.000Z</time>
      </trkpt>
      <trkpt lat="47.12444" lon="-1.70288">
        <ele>56</ele>
        <time>2021-09-04T07:42:50.000Z</time>
      </trkpt>
      <trkpt lat="47.12433" lon="-1.70304">
        <ele>56</ele>
        <time>2021-09-04T07:42:52.000Z</time>
      </trkpt>
      <trkpt lat="47.12424" lon="-1.70323">
        <ele>56</ele>
        <time>2021-09-04T07:42:54.000Z</time>
      </trkpt>
      <trkpt lat="47.12417" lon="-1.70343">
        <ele>57</ele>
        <time>2021-09-04T07:42:56.000Z</time>
      </trkpt>
      <trkpt lat="47.12411" lon="-1.70365">
        <ele>57</ele>
        <time>2021-09-04T07:42:58.000Z</time>
      </trkpt>
      <trkpt lat="47.12405" lon="-1.70387">
        <ele>57</ele>
        <time>2021-09-04T07:43:00.000Z</time>
      </trkpt>
      <trkpt lat="47.12397" lon="-1.70421">
        <ele>57</ele>
        <time>2021-09-04T07:43:03.000Z</time>
      </trkpt>
      <trkpt lat="47.12393" lon="-1.70443">
        <ele>57</ele>
        <time>2021-09-04T07:43:05.000Z</time>
      </trkpt>
      <trkpt lat="47.12389" lon="-1.70466">
        <ele>58</ele>
        <time>2021-09-04T07:43:07.000Z</time>
      </trkpt>
      <trkpt lat="47.12382" lon="-1.7049">
        <ele>57</ele>
        <time>2021-09-04T07:43:09.000Z</time>
      </trkpt>
      <trkpt lat="47.12375" lon="-1.70512">
        <ele>56</ele>
        <time>2021-09-04T07:43:11.000Z</time>
      </trkpt>
      <trkpt lat="47.12365" lon="-1.70533">
        <ele>56</ele>
        <time>2021-09-04T07:43:13.000Z</time>
      </trkpt>
      <trkpt lat="47.12357" lon="-1.70552">
        <ele>56</ele>
        <time>2021-09-04T07:43:15.000Z</time>
      </trkpt>
      <trkpt lat="47.12346" lon="-1.70571">
        <ele>55</ele>
        <time>2021-09-04T07:43:17.000Z</time>
      </trkpt>
      <trkpt lat="47.12334" lon="-1.70589">
        <ele>55</ele>
        <time>2021-09-04T07:43:19.000Z</time>
      </trkpt>
      <trkpt lat="47.12323" lon="-1.70606">
        <ele>54</ele>
        <time>2021-09-04T07:43:21.000Z</time>
      </trkpt>
      <trkpt lat="47.12312" lon="-1.70622">
        <ele>54</ele>
        <time>2021-09-04T07:43:23.000Z</time>
      </trkpt>
      <trkpt lat="47.123" lon="-1.70639">
        <ele>54</ele>
        <time>2021-09-04T07:43:25.000Z</time>
      </trkpt>
      <trkpt lat="47.1229" lon="-1.70656">
        <ele>53</ele>
        <time>2021-09-04T07:43:27.000Z</time>
      </trkpt>
      <trkpt lat="47.12278" lon="-1.70672">
        <ele>54</ele>
        <time>2021-09-04T07:43:29.000Z</time>
      </trkpt>
      <trkpt lat="47.12267" lon="-1.70688">
        <ele>54</ele>
        <time>2021-09-04T07:43:31.000Z</time>
      </trkpt>
      <trkpt lat="47.12256" lon="-1.70705">
        <ele>54</ele>
        <time>2021-09-04T07:43:33.000Z</time>
      </trkpt>
      <trkpt lat="47.12244" lon="-1.7072">
        <ele>54</ele>
        <time>2021-09-04T07:43:35.000Z</time>
      </trkpt>
      <trkpt lat="47.12231" lon="-1.70734">
        <ele>54</ele>
        <time>2021-09-04T07:43:37.000Z</time>
      </trkpt>
      <trkpt lat="47.12218" lon="-1.70747">
        <ele>54</ele>
        <time>2021-09-04T07:43:39.000Z</time>
      </trkpt>
      <trkpt lat="47.12205" lon="-1.70759">
        <ele>54</ele>
        <time>2021-09-04T07:43:41.000Z</time>
      </trkpt>
      <trkpt lat="47.12191" lon="-1.70769">
        <ele>55</ele>
        <time>2021-09-04T07:43:43.000Z</time>
      </trkpt>
      <trkpt lat="47.12176" lon="-1.70779">
        <ele>55</ele>
        <time>2021-09-04T07:43:45.000Z</time>
      </trkpt>
      <trkpt lat="47.12162" lon="-1.70789">
        <ele>55</ele>
        <time>2021-09-04T07:43:47.000Z</time>
      </trkpt>
      <trkpt lat="47.12147" lon="-1.70798">
        <ele>55</ele>
        <time>2021-09-04T07:43:49.000Z</time>
      </trkpt>
      <trkpt lat="47.12133" lon="-1.70809">
        <ele>55</ele>
        <time>2021-09-04T07:43:51.000Z</time>
      </trkpt>
      <trkpt lat="47.12119" lon="-1.70818">
        <ele>55</ele>
        <time>2021-09-04T07:43:53.000Z</time>
      </trkpt>
      <trkpt lat="47.12104" lon="-1.70827">
        <ele>55</ele>
        <time>2021-09-04T07:43:55.000Z</time>
      </trkpt>
      <trkpt lat="47.1209" lon="-1.70836">
        <ele>56</ele>
        <time>2021-09-04T07:43:57.000Z</time>
      </trkpt>
      <trkpt lat="47.12077" lon="-1.70845">
        <ele>56</ele>
        <time>2021-09-04T07:43:59.000Z</time>
      </trkpt>
      <trkpt lat="47.12063" lon="-1.70854">
        <ele>55</ele>
        <time>2021-09-04T07:44:01.000Z</time>
      </trkpt>
      <trkpt lat="47.12049" lon="-1.70863">
        <ele>55</ele>
        <time>2021-09-04T07:44:03.000Z</time>
      </trkpt>
      <trkpt lat="47.12036" lon="-1.70872">
        <ele>55</ele>
        <time>2021-09-04T07:44:05.000Z</time>
      </trkpt>
      <trkpt lat="47.12023" lon="-1.70881">
        <ele>55</ele>
        <time>2021-09-04T07:44:07.000Z</time>
      </trkpt>
      <trkpt lat="47.12009" lon="-1.70889">
        <ele>55</ele>
        <time>2021-09-04T07:44:09.000Z</time>
      </trkpt>
      <trkpt lat="47.11995" lon="-1.70898">
        <ele>55</ele>
        <time>2021-09-04T07:44:11.000Z</time>
      </trkpt>
      <trkpt lat="47.11981" lon="-1.70907">
        <ele>55</ele>
        <time>2021-09-04T07:44:13.000Z</time>
      </trkpt>
      <trkpt lat="47.11967" lon="-1.70917">
        <ele>55</ele>
        <time>2021-09-04T07:44:15.000Z</time>
      </trkpt>
      <trkpt lat="47.11953" lon="-1.70926">
        <ele>55</ele>
        <time>2021-09-04T07:44:17.000Z</time>
      </trkpt>
      <trkpt lat="47.11939" lon="-1.70934">
        <ele>54</ele>
        <time>2021-09-04T07:44:19.000Z</time>
      </trkpt>
      <trkpt lat="47.11925" lon="-1.70944">
        <ele>54</ele>
        <time>2021-09-04T07:44:21.000Z</time>
      </trkpt>
      <trkpt lat="47.1191" lon="-1.70953">
        <ele>54</ele>
        <time>2021-09-04T07:44:23.000Z</time>
      </trkpt>
      <trkpt lat="47.11895" lon="-1.70962">
        <ele>54</ele>
        <time>2021-09-04T07:44:25.000Z</time>
      </trkpt>
      <trkpt lat="47.11881" lon="-1.70971">
        <ele>55</ele>
        <time>2021-09-04T07:44:27.000Z</time>
      </trkpt>
      <trkpt lat="47.11867" lon="-1.70981">
        <ele>54</ele>
        <time>2021-09-04T07:44:29.000Z</time>
      </trkpt>
      <trkpt lat="47.11853" lon="-1.7099">
        <ele>54</ele>
        <time>2021-09-04T07:44:31.000Z</time>
      </trkpt>
      <trkpt lat="47.11839" lon="-1.70999">
        <ele>54</ele>
        <time>2021-09-04T07:44:33.000Z</time>
      </trkpt>
      <trkpt lat="47.11825" lon="-1.71008">
        <ele>54</ele>
        <time>2021-09-04T07:44:35.000Z</time>
      </trkpt>
      <trkpt lat="47.11812" lon="-1.71017">
        <ele>54</ele>
        <time>2021-09-04T07:44:37.000Z</time>
      </trkpt>
      <trkpt lat="47.11798" lon="-1.71026">
        <ele>54</ele>
        <time>2021-09-04T07:44:39.000Z</time>
      </trkpt>
      <trkpt lat="47.11786" lon="-1.71034">
        <ele>54</ele>
        <time>2021-09-04T07:44:41.000Z</time>
      </trkpt>
      <trkpt lat="47.11773" lon="-1.71043">
        <ele>54</ele>
        <time>2021-09-04T07:44:43.000Z</time>
      </trkpt>
      <trkpt lat="47.1176" lon="-1.71051">
        <ele>55</ele>
        <time>2021-09-04T07:44:45.000Z</time>
      </trkpt>
      <trkpt lat="47.11747" lon="-1.7106">
        <ele>55</ele>
        <time>2021-09-04T07:44:47.000Z</time>
      </trkpt>
      <trkpt lat="47.11735" lon="-1.71068">
        <ele>55</ele>
        <time>2021-09-04T07:44:49.000Z</time>
      </trkpt>
      <trkpt lat="47.11722" lon="-1.71077">
        <ele>56</ele>
        <time>2021-09-04T07:44:51.000Z</time>
      </trkpt>
      <trkpt lat="47.11709" lon="-1.71085">
        <ele>56</ele>
        <time>2021-09-04T07:44:53.000Z</time>
      </trkpt>
      <trkpt lat="47.11696" lon="-1.71093">
        <ele>56</ele>
        <time>2021-09-04T07:44:55.000Z</time>
      </trkpt>
      <trkpt lat="47.11683" lon="-1.71101">
        <ele>56</ele>
        <time>2021-09-04T07:44:57.000Z</time>
      </trkpt>
      <trkpt lat="47.11671" lon="-1.7111">
        <ele>56</ele>
        <time>2021-09-04T07:44:59.000Z</time>
      </trkpt>
      <trkpt lat="47.11658" lon="-1.71118">
        <ele>56</ele>
        <time>2021-09-04T07:45:01.000Z</time>
      </trkpt>
      <trkpt lat="47.11645" lon="-1.71128">
        <ele>56</ele>
        <time>2021-09-04T07:45:03.000Z</time>
      </trkpt>
      <trkpt lat="47.11633" lon="-1.71139">
        <ele>55</ele>
        <time>2021-09-04T07:45:05.000Z</time>
      </trkpt>
      <trkpt lat="47.1162" lon="-1.71151">
        <ele>56</ele>
        <time>2021-09-04T07:45:07.000Z</time>
      </trkpt>
      <trkpt lat="47.11608" lon="-1.71163">
        <ele>56</ele>
        <time>2021-09-04T07:45:09.000Z</time>
      </trkpt>
      <trkpt lat="47.11597" lon="-1.71175">
        <ele>56</ele>
        <time>2021-09-04T07:45:11.000Z</time>
      </trkpt>
      <trkpt lat="47.11586" lon="-1.71188">
        <ele>56</ele>
        <time>2021-09-04T07:45:13.000Z</time>
      </trkpt>
      <trkpt lat="47.11575" lon="-1.71202">
        <ele>56</ele>
        <time>2021-09-04T07:45:15.000Z</time>
      </trkpt>
      <trkpt lat="47.11565" lon="-1.71216">
        <ele>55</ele>
        <time>2021-09-04T07:45:17.000Z</time>
      </trkpt>
      <trkpt lat="47.11554" lon="-1.71232">
        <ele>55</ele>
        <time>2021-09-04T07:45:19.000Z</time>
      </trkpt>
      <trkpt lat="47.11544" lon="-1.71248">
        <ele>55</ele>
        <time>2021-09-04T07:45:21.000Z</time>
      </trkpt>
      <trkpt lat="47.11535" lon="-1.71265">
        <ele>55</ele>
        <time>2021-09-04T07:45:23.000Z</time>
      </trkpt>
      <trkpt lat="47.11526" lon="-1.71283">
        <ele>55</ele>
        <time>2021-09-04T07:45:25.000Z</time>
      </trkpt>
      <trkpt lat="47.11517" lon="-1.713">
        <ele>54</ele>
        <time>2021-09-04T07:45:27.000Z</time>
      </trkpt>
      <trkpt lat="47.11509" lon="-1.71316">
        <ele>54</ele>
        <time>2021-09-04T07:45:29.000Z</time>
      </trkpt>
      <trkpt lat="47.115" lon="-1.71333">
        <ele>54</ele>
        <time>2021-09-04T07:45:31.000Z</time>
      </trkpt>
      <trkpt lat="47.11492" lon="-1.7135">
        <ele>54</ele>
        <time>2021-09-04T07:45:33.000Z</time>
      </trkpt>
      <trkpt lat="47.11484" lon="-1.71367">
        <ele>54</ele>
        <time>2021-09-04T07:45:35.000Z</time>
      </trkpt>
      <trkpt lat="47.11475" lon="-1.71384">
        <ele>54</ele>
        <time>2021-09-04T07:45:37.000Z</time>
      </trkpt>
      <trkpt lat="47.11466" lon="-1.71401">
        <ele>54</ele>
        <time>2021-09-04T07:45:39.000Z</time>
      </trkpt>
      <trkpt lat="47.11457" lon="-1.71418">
        <ele>54</ele>
        <time>2021-09-04T07:45:41.000Z</time>
      </trkpt>
      <trkpt lat="47.11448" lon="-1.71434">
        <ele>54</ele>
        <time>2021-09-04T07:45:43.000Z</time>
      </trkpt>
      <trkpt lat="47.1144" lon="-1.71452">
        <ele>54</ele>
        <time>2021-09-04T07:45:45.000Z</time>
      </trkpt>
      <trkpt lat="47.11431" lon="-1.71468">
        <ele>54</ele>
        <time>2021-09-04T07:45:47.000Z</time>
      </trkpt>
      <trkpt lat="47.11422" lon="-1.71484">
        <ele>54</ele>
        <time>2021-09-04T07:45:49.000Z</time>
      </trkpt>
      <trkpt lat="47.11414" lon="-1.71501">
        <ele>54</ele>
        <time>2021-09-04T07:45:51.000Z</time>
      </trkpt>
      <trkpt lat="47.11405" lon="-1.71518">
        <ele>54</ele>
        <time>2021-09-04T07:45:53.000Z</time>
      </trkpt>
      <trkpt lat="47.11397" lon="-1.71535">
        <ele>54</ele>
        <time>2021-09-04T07:45:55.000Z</time>
      </trkpt>
      <trkpt lat="47.11389" lon="-1.71551">
        <ele>54</ele>
        <time>2021-09-04T07:45:57.000Z</time>
      </trkpt>
      <trkpt lat="47.1138" lon="-1.71568">
        <ele>54</ele>
        <time>2021-09-04T07:45:59.000Z</time>
      </trkpt>
      <trkpt lat="47.11372" lon="-1.71585">
        <ele>54</ele>
        <time>2021-09-04T07:46:01.000Z</time>
      </trkpt>
      <trkpt lat="47.11364" lon="-1.71601">
        <ele>54</ele>
        <time>2021-09-04T07:46:03.000Z</time>
      </trkpt>
      <trkpt lat="47.11356" lon="-1.71618">
        <ele>54</ele>
        <time>2021-09-04T07:46:05.000Z</time>
      </trkpt>
      <trkpt lat="47.11348" lon="-1.71634">
        <ele>54</ele>
        <time>2021-09-04T07:46:07.000Z</time>
      </trkpt>
      <trkpt lat="47.11339" lon="-1.71651">
        <ele>54</ele>
        <time>2021-09-04T07:46:09.000Z</time>
      </trkpt>
      <trkpt lat="47.1133" lon="-1.71667">
        <ele>54</ele>
        <time>2021-09-04T07:46:11.000Z</time>
      </trkpt>
      <trkpt lat="47.11322" lon="-1.71683">
        <ele>54</ele>
        <time>2021-09-04T07:46:13.000Z</time>
      </trkpt>
      <trkpt lat="47.11313" lon="-1.71699">
        <ele>54</ele>
        <time>2021-09-04T07:46:15.000Z</time>
      </trkpt>
      <trkpt lat="47.11305" lon="-1.71715">
        <ele>54</ele>
        <time>2021-09-04T07:46:17.000Z</time>
      </trkpt>
      <trkpt lat="47.11297" lon="-1.71732">
        <ele>54</ele>
        <time>2021-09-04T07:46:19.000Z</time>
      </trkpt>
      <trkpt lat="47.11289" lon="-1.71748">
        <ele>54</ele>
        <time>2021-09-04T07:46:21.000Z</time>
      </trkpt>
      <trkpt lat="47.11281" lon="-1.71764">
        <ele>55</ele>
        <time>2021-09-04T07:46:23.000Z</time>
      </trkpt>
      <trkpt lat="47.11273" lon="-1.71779">
        <ele>55</ele>
        <time>2021-09-04T07:46:25.000Z</time>
      </trkpt>
      <trkpt lat="47.11266" lon="-1.71794">
        <ele>55</ele>
        <time>2021-09-04T07:46:27.000Z</time>
      </trkpt>
      <trkpt lat="47.11259" lon="-1.7181">
        <ele>55</ele>
        <time>2021-09-04T07:46:29.000Z</time>
      </trkpt>
      <trkpt lat="47.11252" lon="-1.71825">
        <ele>56</ele>
        <time>2021-09-04T07:46:31.000Z</time>
      </trkpt>
      <trkpt lat="47.11246" lon="-1.7184">
        <ele>57</ele>
        <time>2021-09-04T07:46:33.000Z</time>
      </trkpt>
      <trkpt lat="47.11242" lon="-1.71856">
        <ele>57</ele>
        <time>2021-09-04T07:46:35.000Z</time>
      </trkpt>
      <trkpt lat="47.11237" lon="-1.71873">
        <ele>57</ele>
        <time>2021-09-04T07:46:37.000Z</time>
      </trkpt>
      <trkpt lat="47.11233" lon="-1.71889">
        <ele>58</ele>
        <time>2021-09-04T07:46:39.000Z</time>
      </trkpt>
      <trkpt lat="47.11229" lon="-1.71906">
        <ele>58</ele>
        <time>2021-09-04T07:46:41.000Z</time>
      </trkpt>
      <trkpt lat="47.11224" lon="-1.71923">
        <ele>59</ele>
        <time>2021-09-04T07:46:43.000Z</time>
      </trkpt>
      <trkpt lat="47.1122" lon="-1.71939">
        <ele>60</ele>
        <time>2021-09-04T07:46:45.000Z</time>
      </trkpt>
      <trkpt lat="47.11216" lon="-1.71956">
        <ele>61</ele>
        <time>2021-09-04T07:46:47.000Z</time>
      </trkpt>
      <trkpt lat="47.11212" lon="-1.71973">
        <ele>61</ele>
        <time>2021-09-04T07:46:49.000Z</time>
      </trkpt>
      <trkpt lat="47.11208" lon="-1.71989">
        <ele>62</ele>
        <time>2021-09-04T07:46:51.000Z</time>
      </trkpt>
      <trkpt lat="47.11204" lon="-1.72006">
        <ele>62</ele>
        <time>2021-09-04T07:46:53.000Z</time>
      </trkpt>
      <trkpt lat="47.11201" lon="-1.72022">
        <ele>62</ele>
        <time>2021-09-04T07:46:55.000Z</time>
      </trkpt>
      <trkpt lat="47.11197" lon="-1.72038">
        <ele>62</ele>
        <time>2021-09-04T07:46:57.000Z</time>
      </trkpt>
      <trkpt lat="47.11193" lon="-1.72055">
        <ele>62</ele>
        <time>2021-09-04T07:46:59.000Z</time>
      </trkpt>
      <trkpt lat="47.1119" lon="-1.72072">
        <ele>61</ele>
        <time>2021-09-04T07:47:01.000Z</time>
      </trkpt>
      <trkpt lat="47.11185" lon="-1.72088">
        <ele>62</ele>
        <time>2021-09-04T07:47:03.000Z</time>
      </trkpt>
      <trkpt lat="47.11181" lon="-1.72104">
        <ele>62</ele>
        <time>2021-09-04T07:47:05.000Z</time>
      </trkpt>
      <trkpt lat="47.11177" lon="-1.72121">
        <ele>62</ele>
        <time>2021-09-04T07:47:07.000Z</time>
      </trkpt>
      <trkpt lat="47.11173" lon="-1.72137">
        <ele>62</ele>
        <time>2021-09-04T07:47:09.000Z</time>
      </trkpt>
      <trkpt lat="47.11169" lon="-1.72154">
        <ele>62</ele>
        <time>2021-09-04T07:47:11.000Z</time>
      </trkpt>
      <trkpt lat="47.11166" lon="-1.72171">
        <ele>62</ele>
        <time>2021-09-04T07:47:13.000Z</time>
      </trkpt>
      <trkpt lat="47.11162" lon="-1.72189">
        <ele>62</ele>
        <time>2021-09-04T07:47:15.000Z</time>
      </trkpt>
      <trkpt lat="47.11157" lon="-1.72206">
        <ele>62</ele>
        <time>2021-09-04T07:47:17.000Z</time>
      </trkpt>
      <trkpt lat="47.11153" lon="-1.72223">
        <ele>62</ele>
        <time>2021-09-04T07:47:19.000Z</time>
      </trkpt>
      <trkpt lat="47.11149" lon="-1.72241">
        <ele>62</ele>
        <time>2021-09-04T07:47:21.000Z</time>
      </trkpt>
      <trkpt lat="47.11144" lon="-1.72259">
        <ele>62</ele>
        <time>2021-09-04T07:47:23.000Z</time>
      </trkpt>
      <trkpt lat="47.1114" lon="-1.72277">
        <ele>62</ele>
        <time>2021-09-04T07:47:25.000Z</time>
      </trkpt>
      <trkpt lat="47.11136" lon="-1.72295">
        <ele>63</ele>
        <time>2021-09-04T07:47:27.000Z</time>
      </trkpt>
      <trkpt lat="47.11131" lon="-1.72312">
        <ele>63</ele>
        <time>2021-09-04T07:47:29.000Z</time>
      </trkpt>
      <trkpt lat="47.11127" lon="-1.72331">
        <ele>63</ele>
        <time>2021-09-04T07:47:31.000Z</time>
      </trkpt>
      <trkpt lat="47.11123" lon="-1.7235">
        <ele>63</ele>
        <time>2021-09-04T07:47:33.000Z</time>
      </trkpt>
      <trkpt lat="47.11118" lon="-1.72369">
        <ele>63</ele>
        <time>2021-09-04T07:47:35.000Z</time>
      </trkpt>
      <trkpt lat="47.11113" lon="-1.72387">
        <ele>63</ele>
        <time>2021-09-04T07:47:37.000Z</time>
      </trkpt>
      <trkpt lat="47.11109" lon="-1.72406">
        <ele>62</ele>
        <time>2021-09-04T07:47:39.000Z</time>
      </trkpt>
      <trkpt lat="47.11104" lon="-1.72423">
        <ele>63</ele>
        <time>2021-09-04T07:47:41.000Z</time>
      </trkpt>
      <trkpt lat="47.111" lon="-1.72441">
        <ele>62</ele>
        <time>2021-09-04T07:47:43.000Z</time>
      </trkpt>
      <trkpt lat="47.11096" lon="-1.72459">
        <ele>62</ele>
        <time>2021-09-04T07:47:45.000Z</time>
      </trkpt>
      <trkpt lat="47.11092" lon="-1.72476">
        <ele>62</ele>
        <time>2021-09-04T07:47:47.000Z</time>
      </trkpt>
      <trkpt lat="47.11088" lon="-1.72495">
        <ele>62</ele>
        <time>2021-09-04T07:47:49.000Z</time>
      </trkpt>
      <trkpt lat="47.11085" lon="-1.72513">
        <ele>62</ele>
        <time>2021-09-04T07:47:51.000Z</time>
      </trkpt>
      <trkpt lat="47.11084" lon="-1.72532">
        <ele>62</ele>
        <time>2021-09-04T07:47:53.000Z</time>
      </trkpt>
      <trkpt lat="47.11085" lon="-1.7255">
        <ele>62</ele>
        <time>2021-09-04T07:47:55.000Z</time>
      </trkpt>
      <trkpt lat="47.11087" lon="-1.72569">
        <ele>61</ele>
        <time>2021-09-04T07:47:57.000Z</time>
      </trkpt>
      <trkpt lat="47.11091" lon="-1.72587">
        <ele>61</ele>
        <time>2021-09-04T07:47:59.000Z</time>
      </trkpt>
      <trkpt lat="47.11095" lon="-1.72605">
        <ele>61</ele>
        <time>2021-09-04T07:48:01.000Z</time>
      </trkpt>
      <trkpt lat="47.11099" lon="-1.72623">
        <ele>61</ele>
        <time>2021-09-04T07:48:03.000Z</time>
      </trkpt>
      <trkpt lat="47.11103" lon="-1.72642">
        <ele>61</ele>
        <time>2021-09-04T07:48:05.000Z</time>
      </trkpt>
      <trkpt lat="47.11108" lon="-1.72659">
        <ele>61</ele>
        <time>2021-09-04T07:48:07.000Z</time>
      </trkpt>
      <trkpt lat="47.11112" lon="-1.72678">
        <ele>61</ele>
        <time>2021-09-04T07:48:09.000Z</time>
      </trkpt>
      <trkpt lat="47.11116" lon="-1.72695">
        <ele>61</ele>
        <time>2021-09-04T07:48:11.000Z</time>
      </trkpt>
      <trkpt lat="47.11121" lon="-1.72712">
        <ele>61</ele>
        <time>2021-09-04T07:48:13.000Z</time>
      </trkpt>
      <trkpt lat="47.11125" lon="-1.72729">
        <ele>62</ele>
        <time>2021-09-04T07:48:15.000Z</time>
      </trkpt>
      <trkpt lat="47.1113" lon="-1.72747">
        <ele>62</ele>
        <time>2021-09-04T07:48:17.000Z</time>
      </trkpt>
      <trkpt lat="47.11134" lon="-1.72765">
        <ele>62</ele>
        <time>2021-09-04T07:48:19.000Z</time>
      </trkpt>
      <trkpt lat="47.11139" lon="-1.72783">
        <ele>62</ele>
        <time>2021-09-04T07:48:21.000Z</time>
      </trkpt>
      <trkpt lat="47.11143" lon="-1.72801">
        <ele>62</ele>
        <time>2021-09-04T07:48:23.000Z</time>
      </trkpt>
      <trkpt lat="47.11147" lon="-1.72819">
        <ele>62</ele>
        <time>2021-09-04T07:48:25.000Z</time>
      </trkpt>
      <trkpt lat="47.11151" lon="-1.72837">
        <ele>62</ele>
        <time>2021-09-04T07:48:27.000Z</time>
      </trkpt>
      <trkpt lat="47.11155" lon="-1.72855">
        <ele>63</ele>
        <time>2021-09-04T07:48:29.000Z</time>
      </trkpt>
      <trkpt lat="47.11158" lon="-1.72872">
        <ele>63</ele>
        <time>2021-09-04T07:48:31.000Z</time>
      </trkpt>
      <trkpt lat="47.11162" lon="-1.7289">
        <ele>63</ele>
        <time>2021-09-04T07:48:33.000Z</time>
      </trkpt>
      <trkpt lat="47.11166" lon="-1.72907">
        <ele>63</ele>
        <time>2021-09-04T07:48:35.000Z</time>
      </trkpt>
      <trkpt lat="47.1117" lon="-1.72924">
        <ele>63</ele>
        <time>2021-09-04T07:48:37.000Z</time>
      </trkpt>
      <trkpt lat="47.11174" lon="-1.72942">
        <ele>63</ele>
        <time>2021-09-04T07:48:39.000Z</time>
      </trkpt>
      <trkpt lat="47.11178" lon="-1.72959">
        <ele>63</ele>
        <time>2021-09-04T07:48:41.000Z</time>
      </trkpt>
      <trkpt lat="47.11181" lon="-1.72976">
        <ele>63</ele>
        <time>2021-09-04T07:48:43.000Z</time>
      </trkpt>
      <trkpt lat="47.11185" lon="-1.72994">
        <ele>63</ele>
        <time>2021-09-04T07:48:45.000Z</time>
      </trkpt>
      <trkpt lat="47.11189" lon="-1.73012">
        <ele>63</ele>
        <time>2021-09-04T07:48:47.000Z</time>
      </trkpt>
      <trkpt lat="47.11193" lon="-1.7303">
        <ele>63</ele>
        <time>2021-09-04T07:48:49.000Z</time>
      </trkpt>
      <trkpt lat="47.11197" lon="-1.73046">
        <ele>63</ele>
        <time>2021-09-04T07:48:51.000Z</time>
      </trkpt>
      <trkpt lat="47.11202" lon="-1.73063">
        <ele>63</ele>
        <time>2021-09-04T07:48:53.000Z</time>
      </trkpt>
      <trkpt lat="47.11206" lon="-1.73081">
        <ele>63</ele>
        <time>2021-09-04T07:48:55.000Z</time>
      </trkpt>
      <trkpt lat="47.1121" lon="-1.731">
        <ele>63</ele>
        <time>2021-09-04T07:48:57.000Z</time>
      </trkpt>
      <trkpt lat="47.11214" lon="-1.73117">
        <ele>63</ele>
        <time>2021-09-04T07:48:59.000Z</time>
      </trkpt>
      <trkpt lat="47.11219" lon="-1.73135">
        <ele>62</ele>
        <time>2021-09-04T07:49:01.000Z</time>
      </trkpt>
      <trkpt lat="47.11223" lon="-1.73152">
        <ele>62</ele>
        <time>2021-09-04T07:49:03.000Z</time>
      </trkpt>
      <trkpt lat="47.11227" lon="-1.73171">
        <ele>62</ele>
        <time>2021-09-04T07:49:05.000Z</time>
      </trkpt>
      <trkpt lat="47.11232" lon="-1.73188">
        <ele>62</ele>
        <time>2021-09-04T07:49:07.000Z</time>
      </trkpt>
      <trkpt lat="47.11237" lon="-1.73208">
        <ele>61</ele>
        <time>2021-09-04T07:49:09.000Z</time>
      </trkpt>
      <trkpt lat="47.11241" lon="-1.73227">
        <ele>61</ele>
        <time>2021-09-04T07:49:11.000Z</time>
      </trkpt>
      <trkpt lat="47.11246" lon="-1.73247">
        <ele>61</ele>
        <time>2021-09-04T07:49:13.000Z</time>
      </trkpt>
      <trkpt lat="47.1125" lon="-1.73266">
        <ele>61</ele>
        <time>2021-09-04T07:49:15.000Z</time>
      </trkpt>
      <trkpt lat="47.11254" lon="-1.73285">
        <ele>61</ele>
        <time>2021-09-04T07:49:17.000Z</time>
      </trkpt>
      <trkpt lat="47.11256" lon="-1.73306">
        <ele>61</ele>
        <time>2021-09-04T07:49:19.000Z</time>
      </trkpt>
      <trkpt lat="47.11258" lon="-1.73326">
        <ele>61</ele>
        <time>2021-09-04T07:49:21.000Z</time>
      </trkpt>
      <trkpt lat="47.11259" lon="-1.73346">
        <ele>61</ele>
        <time>2021-09-04T07:49:23.000Z</time>
      </trkpt>
      <trkpt lat="47.1126" lon="-1.73367">
        <ele>60</ele>
        <time>2021-09-04T07:49:25.000Z</time>
      </trkpt>
      <trkpt lat="47.11262" lon="-1.73388">
        <ele>60</ele>
        <time>2021-09-04T07:49:27.000Z</time>
      </trkpt>
      <trkpt lat="47.11263" lon="-1.73409">
        <ele>60</ele>
        <time>2021-09-04T07:49:29.000Z</time>
      </trkpt>
      <trkpt lat="47.11265" lon="-1.73431">
        <ele>60</ele>
        <time>2021-09-04T07:49:31.000Z</time>
      </trkpt>
      <trkpt lat="47.11266" lon="-1.73451">
        <ele>59</ele>
        <time>2021-09-04T07:49:33.000Z</time>
      </trkpt>
      <trkpt lat="47.11268" lon="-1.7347">
        <ele>59</ele>
        <time>2021-09-04T07:49:35.000Z</time>
      </trkpt>
      <trkpt lat="47.11269" lon="-1.73491">
        <ele>59</ele>
        <time>2021-09-04T07:49:37.000Z</time>
      </trkpt>
      <trkpt lat="47.11271" lon="-1.73511">
        <ele>58</ele>
        <time>2021-09-04T07:49:39.000Z</time>
      </trkpt>
      <trkpt lat="47.11275" lon="-1.73531">
        <ele>58</ele>
        <time>2021-09-04T07:49:41.000Z</time>
      </trkpt>
      <trkpt lat="47.1128" lon="-1.7355">
        <ele>57</ele>
        <time>2021-09-04T07:49:43.000Z</time>
      </trkpt>
      <trkpt lat="47.11288" lon="-1.73567">
        <ele>56</ele>
        <time>2021-09-04T07:49:45.000Z</time>
      </trkpt>
      <trkpt lat="47.11296" lon="-1.73585">
        <ele>56</ele>
        <time>2021-09-04T07:49:47.000Z</time>
      </trkpt>
      <trkpt lat="47.11305" lon="-1.73602">
        <ele>57</ele>
        <time>2021-09-04T07:49:49.000Z</time>
      </trkpt>
      <trkpt lat="47.11313" lon="-1.73619">
        <ele>56</ele>
        <time>2021-09-04T07:49:51.000Z</time>
      </trkpt>
      <trkpt lat="47.11322" lon="-1.73636">
        <ele>56</ele>
        <time>2021-09-04T07:49:53.000Z</time>
      </trkpt>
      <trkpt lat="47.11331" lon="-1.73654">
        <ele>56</ele>
        <time>2021-09-04T07:49:55.000Z</time>
      </trkpt>
      <trkpt lat="47.11339" lon="-1.7367">
        <ele>56</ele>
        <time>2021-09-04T07:49:57.000Z</time>
      </trkpt>
      <trkpt lat="47.11347" lon="-1.73687">
        <ele>56</ele>
        <time>2021-09-04T07:49:59.000Z</time>
      </trkpt>
      <trkpt lat="47.11355" lon="-1.73703">
        <ele>56</ele>
        <time>2021-09-04T07:50:01.000Z</time>
      </trkpt>
      <trkpt lat="47.11363" lon="-1.73719">
        <ele>56</ele>
        <time>2021-09-04T07:50:03.000Z</time>
      </trkpt>
      <trkpt lat="47.11371" lon="-1.73736">
        <ele>56</ele>
        <time>2021-09-04T07:50:05.000Z</time>
      </trkpt>
      <trkpt lat="47.11378" lon="-1.73754">
        <ele>56</ele>
        <time>2021-09-04T07:50:07.000Z</time>
      </trkpt>
      <trkpt lat="47.11384" lon="-1.73773">
        <ele>55</ele>
        <time>2021-09-04T07:50:09.000Z</time>
      </trkpt>
      <trkpt lat="47.1139" lon="-1.73791">
        <ele>55</ele>
        <time>2021-09-04T07:50:11.000Z</time>
      </trkpt>
      <trkpt lat="47.11395" lon="-1.73809">
        <ele>55</ele>
        <time>2021-09-04T07:50:13.000Z</time>
      </trkpt>
      <trkpt lat="47.11401" lon="-1.73828">
        <ele>55</ele>
        <time>2021-09-04T07:50:15.000Z</time>
      </trkpt>
      <trkpt lat="47.11406" lon="-1.73845">
        <ele>55</ele>
        <time>2021-09-04T07:50:17.000Z</time>
      </trkpt>
      <trkpt lat="47.11412" lon="-1.73863">
        <ele>55</ele>
        <time>2021-09-04T07:50:19.000Z</time>
      </trkpt>
      <trkpt lat="47.11417" lon="-1.73882">
        <ele>55</ele>
        <time>2021-09-04T07:50:21.000Z</time>
      </trkpt>
      <trkpt lat="47.11423" lon="-1.73901">
        <ele>55</ele>
        <time>2021-09-04T07:50:23.000Z</time>
      </trkpt>
      <trkpt lat="47.1143" lon="-1.73918">
        <ele>54</ele>
        <time>2021-09-04T07:50:25.000Z</time>
      </trkpt>
      <trkpt lat="47.11438" lon="-1.73938">
        <ele>54</ele>
        <time>2021-09-04T07:50:27.000Z</time>
      </trkpt>
      <trkpt lat="47.11446" lon="-1.73957">
        <ele>54</ele>
        <time>2021-09-04T07:50:29.000Z</time>
      </trkpt>
      <trkpt lat="47.11457" lon="-1.73971">
        <ele>55</ele>
        <time>2021-09-04T07:50:31.000Z</time>
      </trkpt>
      <trkpt lat="47.11471" lon="-1.73981">
        <ele>55</ele>
        <time>2021-09-04T07:50:33.000Z</time>
      </trkpt>
      <trkpt lat="47.11484" lon="-1.7399">
        <ele>55</ele>
        <time>2021-09-04T07:50:35.000Z</time>
      </trkpt>
      <trkpt lat="47.11496" lon="-1.73994">
        <ele>55</ele>
        <time>2021-09-04T07:50:37.000Z</time>
      </trkpt>
      <trkpt lat="47.11505" lon="-1.74">
        <ele>55</ele>
        <time>2021-09-04T07:50:39.000Z</time>
      </trkpt>
      <trkpt lat="47.11506" lon="-1.74016">
        <ele>54</ele>
        <time>2021-09-04T07:50:41.000Z</time>
      </trkpt>
      <trkpt lat="47.11501" lon="-1.74032">
        <ele>55</ele>
        <time>2021-09-04T07:50:43.000Z</time>
      </trkpt>
      <trkpt lat="47.11493" lon="-1.74047">
        <ele>54</ele>
        <time>2021-09-04T07:50:45.000Z</time>
      </trkpt>
      <trkpt lat="47.11484" lon="-1.74061">
        <ele>54</ele>
        <time>2021-09-04T07:50:47.000Z</time>
      </trkpt>
      <trkpt lat="47.11474" lon="-1.74076">
        <ele>55</ele>
        <time>2021-09-04T07:50:49.000Z</time>
      </trkpt>
      <trkpt lat="47.11464" lon="-1.74089">
        <ele>54</ele>
        <time>2021-09-04T07:50:51.000Z</time>
      </trkpt>
      <trkpt lat="47.11455" lon="-1.74104">
        <ele>54</ele>
        <time>2021-09-04T07:50:53.000Z</time>
      </trkpt>
      <trkpt lat="47.11447" lon="-1.74121">
        <ele>54</ele>
        <time>2021-09-04T07:50:55.000Z</time>
      </trkpt>
      <trkpt lat="47.11441" lon="-1.74137">
        <ele>53</ele>
        <time>2021-09-04T07:50:57.000Z</time>
      </trkpt>
      <trkpt lat="47.11437" lon="-1.74154">
        <ele>53</ele>
        <time>2021-09-04T07:50:59.000Z</time>
      </trkpt>
      <trkpt lat="47.11434" lon="-1.74169">
        <ele>54</ele>
        <time>2021-09-04T07:51:01.000Z</time>
      </trkpt>
      <trkpt lat="47.11432" lon="-1.74187">
        <ele>54</ele>
        <time>2021-09-04T07:51:04.000Z</time>
      </trkpt>
      <trkpt lat="47.1143" lon="-1.74203">
        <ele>55</ele>
        <time>2021-09-04T07:51:08.000Z</time>
      </trkpt>
      <trkpt lat="47.11429" lon="-1.74218">
        <ele>55</ele>
        <time>2021-09-04T07:51:47.000Z</time>
      </trkpt>
      <trkpt lat="47.11428" lon="-1.74236">
        <ele>56</ele>
        <time>2021-09-04T07:51:50.000Z</time>
      </trkpt>
      <trkpt lat="47.11428" lon="-1.74252">
        <ele>56</ele>
        <time>2021-09-04T07:51:52.000Z</time>
      </trkpt>
      <trkpt lat="47.1143" lon="-1.74268">
        <ele>56</ele>
        <time>2021-09-04T07:51:54.000Z</time>
      </trkpt>
      <trkpt lat="47.11432" lon="-1.74284">
        <ele>56</ele>
        <time>2021-09-04T07:51:56.000Z</time>
      </trkpt>
      <trkpt lat="47.11434" lon="-1.74301">
        <ele>56</ele>
        <time>2021-09-04T07:51:58.000Z</time>
      </trkpt>
      <trkpt lat="47.11436" lon="-1.74318">
        <ele>56</ele>
        <time>2021-09-04T07:52:00.000Z</time>
      </trkpt>
      <trkpt lat="47.11436" lon="-1.74335">
        <ele>56</ele>
        <time>2021-09-04T07:52:02.000Z</time>
      </trkpt>
      <trkpt lat="47.11431" lon="-1.74352">
        <ele>55</ele>
        <time>2021-09-04T07:52:04.000Z</time>
      </trkpt>
      <trkpt lat="47.11424" lon="-1.74369">
        <ele>56</ele>
        <time>2021-09-04T07:52:06.000Z</time>
      </trkpt>
      <trkpt lat="47.11418" lon="-1.74387">
        <ele>56</ele>
        <time>2021-09-04T07:52:08.000Z</time>
      </trkpt>
      <trkpt lat="47.11414" lon="-1.74406">
        <ele>55</ele>
        <time>2021-09-04T07:52:10.000Z</time>
      </trkpt>
      <trkpt lat="47.11412" lon="-1.74425">
        <ele>55</ele>
        <time>2021-09-04T07:52:12.000Z</time>
      </trkpt>
      <trkpt lat="47.11409" lon="-1.74444">
        <ele>55</ele>
        <time>2021-09-04T07:52:14.000Z</time>
      </trkpt>
      <trkpt lat="47.11405" lon="-1.74462">
        <ele>56</ele>
        <time>2021-09-04T07:52:16.000Z</time>
      </trkpt>
      <trkpt lat="47.11401" lon="-1.74479">
        <ele>57</ele>
        <time>2021-09-04T07:52:18.000Z</time>
      </trkpt>
      <trkpt lat="47.11398" lon="-1.74497">
        <ele>57</ele>
        <time>2021-09-04T07:52:20.000Z</time>
      </trkpt>
      <trkpt lat="47.11394" lon="-1.74515">
        <ele>58</ele>
        <time>2021-09-04T07:52:22.000Z</time>
      </trkpt>
      <trkpt lat="47.11389" lon="-1.74534">
        <ele>58</ele>
        <time>2021-09-04T07:52:24.000Z</time>
      </trkpt>
      <trkpt lat="47.11386" lon="-1.74554">
        <ele>58</ele>
        <time>2021-09-04T07:52:26.000Z</time>
      </trkpt>
      <trkpt lat="47.11383" lon="-1.74574">
        <ele>57</ele>
        <time>2021-09-04T07:52:28.000Z</time>
      </trkpt>
      <trkpt lat="47.11381" lon="-1.74594">
        <ele>58</ele>
        <time>2021-09-04T07:52:30.000Z</time>
      </trkpt>
      <trkpt lat="47.11379" lon="-1.74613">
        <ele>58</ele>
        <time>2021-09-04T07:52:32.000Z</time>
      </trkpt>
      <trkpt lat="47.11379" lon="-1.74634">
        <ele>58</ele>
        <time>2021-09-04T07:52:34.000Z</time>
      </trkpt>
      <trkpt lat="47.11378" lon="-1.74655">
        <ele>58</ele>
        <time>2021-09-04T07:52:36.000Z</time>
      </trkpt>
      <trkpt lat="47.11376" lon="-1.74675">
        <ele>58</ele>
        <time>2021-09-04T07:52:38.000Z</time>
      </trkpt>
      <trkpt lat="47.11375" lon="-1.74696">
        <ele>58</ele>
        <time>2021-09-04T07:52:40.000Z</time>
      </trkpt>
      <trkpt lat="47.11374" lon="-1.74716">
        <ele>57</ele>
        <time>2021-09-04T07:52:42.000Z</time>
      </trkpt>
      <trkpt lat="47.11372" lon="-1.74737">
        <ele>57</ele>
        <time>2021-09-04T07:52:44.000Z</time>
      </trkpt>
      <trkpt lat="47.11371" lon="-1.74758">
        <ele>57</ele>
        <time>2021-09-04T07:52:46.000Z</time>
      </trkpt>
      <trkpt lat="47.11369" lon="-1.74776">
        <ele>57</ele>
        <time>2021-09-04T07:52:48.000Z</time>
      </trkpt>
      <trkpt lat="47.11366" lon="-1.74795">
        <ele>58</ele>
        <time>2021-09-04T07:52:50.000Z</time>
      </trkpt>
      <trkpt lat="47.11362" lon="-1.74814">
        <ele>58</ele>
        <time>2021-09-04T07:52:52.000Z</time>
      </trkpt>
      <trkpt lat="47.11358" lon="-1.74835">
        <ele>57</ele>
        <time>2021-09-04T07:52:54.000Z</time>
      </trkpt>
      <trkpt lat="47.11357" lon="-1.74855">
        <ele>58</ele>
        <time>2021-09-04T07:52:56.000Z</time>
      </trkpt>
      <trkpt lat="47.11358" lon="-1.74874">
        <ele>58</ele>
        <time>2021-09-04T07:52:58.000Z</time>
      </trkpt>
      <trkpt lat="47.1136" lon="-1.74895">
        <ele>58</ele>
        <time>2021-09-04T07:53:00.000Z</time>
      </trkpt>
      <trkpt lat="47.11362" lon="-1.74914">
        <ele>58</ele>
        <time>2021-09-04T07:53:02.000Z</time>
      </trkpt>
      <trkpt lat="47.11364" lon="-1.74932">
        <ele>58</ele>
        <time>2021-09-04T07:53:04.000Z</time>
      </trkpt>
      <trkpt lat="47.11367" lon="-1.74952">
        <ele>58</ele>
        <time>2021-09-04T07:53:06.000Z</time>
      </trkpt>
      <trkpt lat="47.1137" lon="-1.74971">
        <ele>58</ele>
        <time>2021-09-04T07:53:08.000Z</time>
      </trkpt>
      <trkpt lat="47.11371" lon="-1.7499">
        <ele>58</ele>
        <time>2021-09-04T07:53:10.000Z</time>
      </trkpt>
      <trkpt lat="47.11371" lon="-1.75008">
        <ele>58</ele>
        <time>2021-09-04T07:53:12.000Z</time>
      </trkpt>
      <trkpt lat="47.1137" lon="-1.75026">
        <ele>58</ele>
        <time>2021-09-04T07:53:14.000Z</time>
      </trkpt>
      <trkpt lat="47.11367" lon="-1.75043">
        <ele>59</ele>
        <time>2021-09-04T07:53:16.000Z</time>
      </trkpt>
      <trkpt lat="47.11363" lon="-1.7506">
        <ele>59</ele>
        <time>2021-09-04T07:53:18.000Z</time>
      </trkpt>
      <trkpt lat="47.11359" lon="-1.75077">
        <ele>59</ele>
        <time>2021-09-04T07:53:20.000Z</time>
      </trkpt>
      <trkpt lat="47.11354" lon="-1.75094">
        <ele>59</ele>
        <time>2021-09-04T07:53:22.000Z</time>
      </trkpt>
      <trkpt lat="47.11348" lon="-1.7511">
        <ele>59</ele>
        <time>2021-09-04T07:53:24.000Z</time>
      </trkpt>
      <trkpt lat="47.11343" lon="-1.75126">
        <ele>60</ele>
        <time>2021-09-04T07:53:26.000Z</time>
      </trkpt>
      <trkpt lat="47.11338" lon="-1.75142">
        <ele>61</ele>
        <time>2021-09-04T07:53:28.000Z</time>
      </trkpt>
      <trkpt lat="47.11334" lon="-1.75158">
        <ele>61</ele>
        <time>2021-09-04T07:53:30.000Z</time>
      </trkpt>
      <trkpt lat="47.11329" lon="-1.75176">
        <ele>62</ele>
        <time>2021-09-04T07:53:32.000Z</time>
      </trkpt>
      <trkpt lat="47.11325" lon="-1.75194">
        <ele>62</ele>
        <time>2021-09-04T07:53:34.000Z</time>
      </trkpt>
      <trkpt lat="47.11322" lon="-1.75212">
        <ele>62</ele>
        <time>2021-09-04T07:53:36.000Z</time>
      </trkpt>
      <trkpt lat="47.11319" lon="-1.7523">
        <ele>61</ele>
        <time>2021-09-04T07:53:38.000Z</time>
      </trkpt>
      <trkpt lat="47.11316" lon="-1.75248">
        <ele>61</ele>
        <time>2021-09-04T07:53:40.000Z</time>
      </trkpt>
      <trkpt lat="47.11313" lon="-1.75265">
        <ele>60</ele>
        <time>2021-09-04T07:53:42.000Z</time>
      </trkpt>
      <trkpt lat="47.1131" lon="-1.75283">
        <ele>60</ele>
        <time>2021-09-04T07:53:44.000Z</time>
      </trkpt>
      <trkpt lat="47.11307" lon="-1.75301">
        <ele>60</ele>
        <time>2021-09-04T07:53:46.000Z</time>
      </trkpt>
      <trkpt lat="47.11303" lon="-1.75319">
        <ele>59</ele>
        <time>2021-09-04T07:53:48.000Z</time>
      </trkpt>
      <trkpt lat="47.11297" lon="-1.75337">
        <ele>59</ele>
        <time>2021-09-04T07:53:50.000Z</time>
      </trkpt>
      <trkpt lat="47.11289" lon="-1.75353">
        <ele>59</ele>
        <time>2021-09-04T07:53:52.000Z</time>
      </trkpt>
      <trkpt lat="47.11281" lon="-1.75368">
        <ele>59</ele>
        <time>2021-09-04T07:53:54.000Z</time>
      </trkpt>
      <trkpt lat="47.11272" lon="-1.75385">
        <ele>60</ele>
        <time>2021-09-04T07:53:56.000Z</time>
      </trkpt>
      <trkpt lat="47.11264" lon="-1.75401">
        <ele>59</ele>
        <time>2021-09-04T07:53:58.000Z</time>
      </trkpt>
      <trkpt lat="47.11255" lon="-1.75418">
        <ele>58</ele>
        <time>2021-09-04T07:54:00.000Z</time>
      </trkpt>
      <trkpt lat="47.11247" lon="-1.75436">
        <ele>59</ele>
        <time>2021-09-04T07:54:02.000Z</time>
      </trkpt>
      <trkpt lat="47.11239" lon="-1.75454">
        <ele>58</ele>
        <time>2021-09-04T07:54:04.000Z</time>
      </trkpt>
      <trkpt lat="47.11229" lon="-1.75472">
        <ele>58</ele>
        <time>2021-09-04T07:54:06.000Z</time>
      </trkpt>
      <trkpt lat="47.1122" lon="-1.7549">
        <ele>57</ele>
        <time>2021-09-04T07:54:08.000Z</time>
      </trkpt>
      <trkpt lat="47.11209" lon="-1.75506">
        <ele>57</ele>
        <time>2021-09-04T07:54:10.000Z</time>
      </trkpt>
      <trkpt lat="47.11195" lon="-1.75519">
        <ele>57</ele>
        <time>2021-09-04T07:54:12.000Z</time>
      </trkpt>
      <trkpt lat="47.11181" lon="-1.75528">
        <ele>56</ele>
        <time>2021-09-04T07:54:14.000Z</time>
      </trkpt>
      <trkpt lat="47.11166" lon="-1.75534">
        <ele>56</ele>
        <time>2021-09-04T07:54:16.000Z</time>
      </trkpt>
      <trkpt lat="47.11152" lon="-1.7554">
        <ele>57</ele>
        <time>2021-09-04T07:54:18.000Z</time>
      </trkpt>
      <trkpt lat="47.11139" lon="-1.75552">
        <ele>57</ele>
        <time>2021-09-04T07:54:20.000Z</time>
      </trkpt>
      <trkpt lat="47.1113" lon="-1.75568">
        <ele>57</ele>
        <time>2021-09-04T07:54:22.000Z</time>
      </trkpt>
      <trkpt lat="47.11125" lon="-1.75587">
        <ele>57</ele>
        <time>2021-09-04T07:54:24.000Z</time>
      </trkpt>
      <trkpt lat="47.1112" lon="-1.75604">
        <ele>57</ele>
        <time>2021-09-04T07:54:26.000Z</time>
      </trkpt>
      <trkpt lat="47.11115" lon="-1.75622">
        <ele>58</ele>
        <time>2021-09-04T07:54:28.000Z</time>
      </trkpt>
      <trkpt lat="47.1111" lon="-1.75638">
        <ele>58</ele>
        <time>2021-09-04T07:54:30.000Z</time>
      </trkpt>
      <trkpt lat="47.11105" lon="-1.75655">
        <ele>59</ele>
        <time>2021-09-04T07:54:32.000Z</time>
      </trkpt>
      <trkpt lat="47.11101" lon="-1.75672">
        <ele>59</ele>
        <time>2021-09-04T07:54:34.000Z</time>
      </trkpt>
      <trkpt lat="47.11098" lon="-1.75689">
        <ele>59</ele>
        <time>2021-09-04T07:54:36.000Z</time>
      </trkpt>
      <trkpt lat="47.11093" lon="-1.75706">
        <ele>59</ele>
        <time>2021-09-04T07:54:38.000Z</time>
      </trkpt>
      <trkpt lat="47.11087" lon="-1.75723">
        <ele>60</ele>
        <time>2021-09-04T07:54:40.000Z</time>
      </trkpt>
      <trkpt lat="47.11079" lon="-1.75737">
        <ele>60</ele>
        <time>2021-09-04T07:54:42.000Z</time>
      </trkpt>
      <trkpt lat="47.11071" lon="-1.7575">
        <ele>60</ele>
        <time>2021-09-04T07:54:44.000Z</time>
      </trkpt>
      <trkpt lat="47.11062" lon="-1.75762">
        <ele>60</ele>
        <time>2021-09-04T07:54:46.000Z</time>
      </trkpt>
      <trkpt lat="47.11053" lon="-1.75775">
        <ele>60</ele>
        <time>2021-09-04T07:54:48.000Z</time>
      </trkpt>
      <trkpt lat="47.11043" lon="-1.75787">
        <ele>60</ele>
        <time>2021-09-04T07:54:50.000Z</time>
      </trkpt>
      <trkpt lat="47.11034" lon="-1.75799">
        <ele>61</ele>
        <time>2021-09-04T07:54:52.000Z</time>
      </trkpt>
      <trkpt lat="47.11024" lon="-1.75812">
        <ele>60</ele>
        <time>2021-09-04T07:54:54.000Z</time>
      </trkpt>
      <trkpt lat="47.11014" lon="-1.75823">
        <ele>60</ele>
        <time>2021-09-04T07:54:56.000Z</time>
      </trkpt>
      <trkpt lat="47.11004" lon="-1.75834">
        <ele>61</ele>
        <time>2021-09-04T07:54:58.000Z</time>
      </trkpt>
      <trkpt lat="47.10993" lon="-1.75842">
        <ele>60</ele>
        <time>2021-09-04T07:55:00.000Z</time>
      </trkpt>
      <trkpt lat="47.1098" lon="-1.75848">
        <ele>60</ele>
        <time>2021-09-04T07:55:02.000Z</time>
      </trkpt>
      <trkpt lat="47.10967" lon="-1.75852">
        <ele>61</ele>
        <time>2021-09-04T07:55:04.000Z</time>
      </trkpt>
      <trkpt lat="47.10953" lon="-1.75854">
        <ele>61</ele>
        <time>2021-09-04T07:55:06.000Z</time>
      </trkpt>
      <trkpt lat="47.1094" lon="-1.75857">
        <ele>61</ele>
        <time>2021-09-04T07:55:08.000Z</time>
      </trkpt>
      <trkpt lat="47.10926" lon="-1.75859">
        <ele>61</ele>
        <time>2021-09-04T07:55:10.000Z</time>
      </trkpt>
      <trkpt lat="47.10913" lon="-1.75861">
        <ele>60</ele>
        <time>2021-09-04T07:55:12.000Z</time>
      </trkpt>
      <trkpt lat="47.109" lon="-1.75866">
        <ele>60</ele>
        <time>2021-09-04T07:55:14.000Z</time>
      </trkpt>
      <trkpt lat="47.10888" lon="-1.75875">
        <ele>59</ele>
        <time>2021-09-04T07:55:16.000Z</time>
      </trkpt>
      <trkpt lat="47.10878" lon="-1.75888">
        <ele>59</ele>
        <time>2021-09-04T07:55:18.000Z</time>
      </trkpt>
      <trkpt lat="47.10871" lon="-1.75904">
        <ele>59</ele>
        <time>2021-09-04T07:55:20.000Z</time>
      </trkpt>
      <trkpt lat="47.10865" lon="-1.7592">
        <ele>59</ele>
        <time>2021-09-04T07:55:22.000Z</time>
      </trkpt>
      <trkpt lat="47.1086" lon="-1.75937">
        <ele>59</ele>
        <time>2021-09-04T07:55:24.000Z</time>
      </trkpt>
      <trkpt lat="47.10855" lon="-1.75955">
        <ele>59</ele>
        <time>2021-09-04T07:55:26.000Z</time>
      </trkpt>
      <trkpt lat="47.10851" lon="-1.75973">
        <ele>60</ele>
        <time>2021-09-04T07:55:28.000Z</time>
      </trkpt>
      <trkpt lat="47.10848" lon="-1.75991">
        <ele>61</ele>
        <time>2021-09-04T07:55:30.000Z</time>
      </trkpt>
      <trkpt lat="47.10846" lon="-1.76009">
        <ele>60</ele>
        <time>2021-09-04T07:55:32.000Z</time>
      </trkpt>
      <trkpt lat="47.10843" lon="-1.76029">
        <ele>60</ele>
        <time>2021-09-04T07:55:34.000Z</time>
      </trkpt>
      <trkpt lat="47.1084" lon="-1.76046">
        <ele>61</ele>
        <time>2021-09-04T07:55:36.000Z</time>
      </trkpt>
      <trkpt lat="47.10838" lon="-1.76064">
        <ele>61</ele>
        <time>2021-09-04T07:55:38.000Z</time>
      </trkpt>
      <trkpt lat="47.10835" lon="-1.76082">
        <ele>61</ele>
        <time>2021-09-04T07:55:40.000Z</time>
      </trkpt>
      <trkpt lat="47.10833" lon="-1.76101">
        <ele>61</ele>
        <time>2021-09-04T07:55:42.000Z</time>
      </trkpt>
      <trkpt lat="47.1083" lon="-1.76119">
        <ele>61</ele>
        <time>2021-09-04T07:55:44.000Z</time>
      </trkpt>
      <trkpt lat="47.10828" lon="-1.76137">
        <ele>61</ele>
        <time>2021-09-04T07:55:46.000Z</time>
      </trkpt>
      <trkpt lat="47.10825" lon="-1.76155">
        <ele>61</ele>
        <time>2021-09-04T07:55:48.000Z</time>
      </trkpt>
      <trkpt lat="47.10821" lon="-1.76173">
        <ele>61</ele>
        <time>2021-09-04T07:55:50.000Z</time>
      </trkpt>
      <trkpt lat="47.10817" lon="-1.76192">
        <ele>61</ele>
        <time>2021-09-04T07:55:52.000Z</time>
      </trkpt>
      <trkpt lat="47.10813" lon="-1.7621">
        <ele>61</ele>
        <time>2021-09-04T07:55:54.000Z</time>
      </trkpt>
      <trkpt lat="47.10809" lon="-1.76229">
        <ele>60</ele>
        <time>2021-09-04T07:55:56.000Z</time>
      </trkpt>
      <trkpt lat="47.10806" lon="-1.76247">
        <ele>61</ele>
        <time>2021-09-04T07:55:58.000Z</time>
      </trkpt>
      <trkpt lat="47.10801" lon="-1.76267">
        <ele>61</ele>
        <time>2021-09-04T07:56:00.000Z</time>
      </trkpt>
      <trkpt lat="47.10797" lon="-1.76286">
        <ele>60</ele>
        <time>2021-09-04T07:56:02.000Z</time>
      </trkpt>
      <trkpt lat="47.10793" lon="-1.76305">
        <ele>60</ele>
        <time>2021-09-04T07:56:04.000Z</time>
      </trkpt>
      <trkpt lat="47.10789" lon="-1.76324">
        <ele>60</ele>
        <time>2021-09-04T07:56:06.000Z</time>
      </trkpt>
      <trkpt lat="47.10785" lon="-1.76344">
        <ele>59</ele>
        <time>2021-09-04T07:56:08.000Z</time>
      </trkpt>
      <trkpt lat="47.10781" lon="-1.76363">
        <ele>60</ele>
        <time>2021-09-04T07:56:10.000Z</time>
      </trkpt>
      <trkpt lat="47.10777" lon="-1.76381">
        <ele>59</ele>
        <time>2021-09-04T07:56:12.000Z</time>
      </trkpt>
      <trkpt lat="47.10774" lon="-1.764">
        <ele>60</ele>
        <time>2021-09-04T07:56:14.000Z</time>
      </trkpt>
      <trkpt lat="47.10771" lon="-1.76419">
        <ele>60</ele>
        <time>2021-09-04T07:56:16.000Z</time>
      </trkpt>
      <trkpt lat="47.10768" lon="-1.76437">
        <ele>59</ele>
        <time>2021-09-04T07:56:18.000Z</time>
      </trkpt>
      <trkpt lat="47.10765" lon="-1.76456">
        <ele>59</ele>
        <time>2021-09-04T07:56:20.000Z</time>
      </trkpt>
      <trkpt lat="47.10762" lon="-1.76474">
        <ele>59</ele>
        <time>2021-09-04T07:56:22.000Z</time>
      </trkpt>
      <trkpt lat="47.10758" lon="-1.76501">
        <ele>59</ele>
        <time>2021-09-04T07:56:25.000Z</time>
      </trkpt>
      <trkpt lat="47.10755" lon="-1.76519">
        <ele>59</ele>
        <time>2021-09-04T07:56:27.000Z</time>
      </trkpt>
      <trkpt lat="47.10752" lon="-1.76538">
        <ele>59</ele>
        <time>2021-09-04T07:56:29.000Z</time>
      </trkpt>
      <trkpt lat="47.10748" lon="-1.76555">
        <ele>59</ele>
        <time>2021-09-04T07:56:31.000Z</time>
      </trkpt>
      <trkpt lat="47.10743" lon="-1.76573">
        <ele>59</ele>
        <time>2021-09-04T07:56:33.000Z</time>
      </trkpt>
      <trkpt lat="47.10738" lon="-1.76591">
        <ele>58</ele>
        <time>2021-09-04T07:56:35.000Z</time>
      </trkpt>
      <trkpt lat="47.10731" lon="-1.76609">
        <ele>58</ele>
        <time>2021-09-04T07:56:37.000Z</time>
      </trkpt>
      <trkpt lat="47.10721" lon="-1.76636">
        <ele>57</ele>
        <time>2021-09-04T07:56:40.000Z</time>
      </trkpt>
      <trkpt lat="47.10714" lon="-1.76654">
        <ele>57</ele>
        <time>2021-09-04T07:56:42.000Z</time>
      </trkpt>
      <trkpt lat="47.10707" lon="-1.76672">
        <ele>57</ele>
        <time>2021-09-04T07:56:44.000Z</time>
      </trkpt>
      <trkpt lat="47.107" lon="-1.7669">
        <ele>57</ele>
        <time>2021-09-04T07:56:46.000Z</time>
      </trkpt>
      <trkpt lat="47.10694" lon="-1.76709">
        <ele>57</ele>
        <time>2021-09-04T07:56:48.000Z</time>
      </trkpt>
      <trkpt lat="47.10687" lon="-1.76729">
        <ele>57</ele>
        <time>2021-09-04T07:56:50.000Z</time>
      </trkpt>
      <trkpt lat="47.10681" lon="-1.76749">
        <ele>57</ele>
        <time>2021-09-04T07:56:52.000Z</time>
      </trkpt>
      <trkpt lat="47.10674" lon="-1.76769">
        <ele>57</ele>
        <time>2021-09-04T07:56:54.000Z</time>
      </trkpt>
      <trkpt lat="47.10669" lon="-1.76788">
        <ele>57</ele>
        <time>2021-09-04T07:56:56.000Z</time>
      </trkpt>
      <trkpt lat="47.10663" lon="-1.76807">
        <ele>57</ele>
        <time>2021-09-04T07:56:58.000Z</time>
      </trkpt>
      <trkpt lat="47.10656" lon="-1.76826">
        <ele>57</ele>
        <time>2021-09-04T07:57:00.000Z</time>
      </trkpt>
      <trkpt lat="47.10649" lon="-1.76843">
        <ele>58</ele>
        <time>2021-09-04T07:57:02.000Z</time>
      </trkpt>
      <trkpt lat="47.10642" lon="-1.76859">
        <ele>58</ele>
        <time>2021-09-04T07:57:04.000Z</time>
      </trkpt>
      <trkpt lat="47.10633" lon="-1.76873">
        <ele>58</ele>
        <time>2021-09-04T07:57:06.000Z</time>
      </trkpt>
      <trkpt lat="47.10622" lon="-1.76887">
        <ele>58</ele>
        <time>2021-09-04T07:57:08.000Z</time>
      </trkpt>
      <trkpt lat="47.1061" lon="-1.769">
        <ele>57</ele>
        <time>2021-09-04T07:57:10.000Z</time>
      </trkpt>
      <trkpt lat="47.10597" lon="-1.76911">
        <ele>56</ele>
        <time>2021-09-04T07:57:12.000Z</time>
      </trkpt>
      <trkpt lat="47.10585" lon="-1.76923">
        <ele>56</ele>
        <time>2021-09-04T07:57:14.000Z</time>
      </trkpt>
      <trkpt lat="47.10574" lon="-1.76937">
        <ele>56</ele>
        <time>2021-09-04T07:57:16.000Z</time>
      </trkpt>
      <trkpt lat="47.10565" lon="-1.76951">
        <ele>56</ele>
        <time>2021-09-04T07:57:18.000Z</time>
      </trkpt>
      <trkpt lat="47.10556" lon="-1.76966">
        <ele>56</ele>
        <time>2021-09-04T07:57:20.000Z</time>
      </trkpt>
      <trkpt lat="47.10548" lon="-1.76982">
        <ele>56</ele>
        <time>2021-09-04T07:57:22.000Z</time>
      </trkpt>
      <trkpt lat="47.1054" lon="-1.76997">
        <ele>56</ele>
        <time>2021-09-04T07:57:24.000Z</time>
      </trkpt>
      <trkpt lat="47.10533" lon="-1.77013">
        <ele>56</ele>
        <time>2021-09-04T07:57:26.000Z</time>
      </trkpt>
      <trkpt lat="47.10525" lon="-1.7703">
        <ele>56</ele>
        <time>2021-09-04T07:57:28.000Z</time>
      </trkpt>
      <trkpt lat="47.10518" lon="-1.77046">
        <ele>55</ele>
        <time>2021-09-04T07:57:30.000Z</time>
      </trkpt>
      <trkpt lat="47.10511" lon="-1.7706">
        <ele>56</ele>
        <time>2021-09-04T07:57:32.000Z</time>
      </trkpt>
      <trkpt lat="47.10504" lon="-1.77076">
        <ele>55</ele>
        <time>2021-09-04T07:57:34.000Z</time>
      </trkpt>
      <trkpt lat="47.10497" lon="-1.77091">
        <ele>56</ele>
        <time>2021-09-04T07:57:36.000Z</time>
      </trkpt>
      <trkpt lat="47.1049" lon="-1.77106">
        <ele>56</ele>
        <time>2021-09-04T07:57:38.000Z</time>
      </trkpt>
      <trkpt lat="47.10483" lon="-1.77121">
        <ele>56</ele>
        <time>2021-09-04T07:57:40.000Z</time>
      </trkpt>
      <trkpt lat="47.10475" lon="-1.77137">
        <ele>56</ele>
        <time>2021-09-04T07:57:42.000Z</time>
      </trkpt>
      <trkpt lat="47.10468" lon="-1.77152">
        <ele>56</ele>
        <time>2021-09-04T07:57:44.000Z</time>
      </trkpt>
      <trkpt lat="47.10461" lon="-1.77167">
        <ele>56</ele>
        <time>2021-09-04T07:57:46.000Z</time>
      </trkpt>
      <trkpt lat="47.10455" lon="-1.77183">
        <ele>56</ele>
        <time>2021-09-04T07:57:48.000Z</time>
      </trkpt>
      <trkpt lat="47.10449" lon="-1.772">
        <ele>57</ele>
        <time>2021-09-04T07:57:50.000Z</time>
      </trkpt>
      <trkpt lat="47.10445" lon="-1.77218">
        <ele>57</ele>
        <time>2021-09-04T07:57:52.000Z</time>
      </trkpt>
      <trkpt lat="47.10442" lon="-1.77236">
        <ele>57</ele>
        <time>2021-09-04T07:57:54.000Z</time>
      </trkpt>
      <trkpt lat="47.10439" lon="-1.77254">
        <ele>57</ele>
        <time>2021-09-04T07:57:56.000Z</time>
      </trkpt>
      <trkpt lat="47.10436" lon="-1.77272">
        <ele>58</ele>
        <time>2021-09-04T07:57:58.000Z</time>
      </trkpt>
      <trkpt lat="47.10434" lon="-1.77291">
        <ele>59</ele>
        <time>2021-09-04T07:58:00.000Z</time>
      </trkpt>
      <trkpt lat="47.10432" lon="-1.7731">
        <ele>58</ele>
        <time>2021-09-04T07:58:02.000Z</time>
      </trkpt>
      <trkpt lat="47.10429" lon="-1.77328">
        <ele>58</ele>
        <time>2021-09-04T07:58:04.000Z</time>
      </trkpt>
      <trkpt lat="47.10427" lon="-1.77345">
        <ele>59</ele>
        <time>2021-09-04T07:58:06.000Z</time>
      </trkpt>
      <trkpt lat="47.10424" lon="-1.77363">
        <ele>59</ele>
        <time>2021-09-04T07:58:08.000Z</time>
      </trkpt>
      <trkpt lat="47.10422" lon="-1.77381">
        <ele>59</ele>
        <time>2021-09-04T07:58:10.000Z</time>
      </trkpt>
      <trkpt lat="47.10418" lon="-1.77398">
        <ele>59</ele>
        <time>2021-09-04T07:58:12.000Z</time>
      </trkpt>
      <trkpt lat="47.10411" lon="-1.77413">
        <ele>59</ele>
        <time>2021-09-04T07:58:14.000Z</time>
      </trkpt>
      <trkpt lat="47.10402" lon="-1.77426">
        <ele>59</ele>
        <time>2021-09-04T07:58:16.000Z</time>
      </trkpt>
      <trkpt lat="47.10392" lon="-1.77436">
        <ele>60</ele>
        <time>2021-09-04T07:58:18.000Z</time>
      </trkpt>
      <trkpt lat="47.10383" lon="-1.77445">
        <ele>60</ele>
        <time>2021-09-04T07:58:20.000Z</time>
      </trkpt>
      <trkpt lat="47.1038" lon="-1.77462">
        <ele>59</ele>
        <time>2021-09-04T07:58:22.000Z</time>
      </trkpt>
      <trkpt lat="47.1038" lon="-1.77481">
        <ele>58</ele>
        <time>2021-09-04T07:58:24.000Z</time>
      </trkpt>
      <trkpt lat="47.10382" lon="-1.77501">
        <ele>58</ele>
        <time>2021-09-04T07:58:26.000Z</time>
      </trkpt>
      <trkpt lat="47.10383" lon="-1.77521">
        <ele>58</ele>
        <time>2021-09-04T07:58:28.000Z</time>
      </trkpt>
      <trkpt lat="47.10385" lon="-1.77541">
        <ele>57</ele>
        <time>2021-09-04T07:58:30.000Z</time>
      </trkpt>
      <trkpt lat="47.10387" lon="-1.77561">
        <ele>58</ele>
        <time>2021-09-04T07:58:32.000Z</time>
      </trkpt>
      <trkpt lat="47.10388" lon="-1.77581">
        <ele>58</ele>
        <time>2021-09-04T07:58:34.000Z</time>
      </trkpt>
      <trkpt lat="47.1039" lon="-1.77601">
        <ele>57</ele>
        <time>2021-09-04T07:58:36.000Z</time>
      </trkpt>
      <trkpt lat="47.10392" lon="-1.7762">
        <ele>57</ele>
        <time>2021-09-04T07:58:38.000Z</time>
      </trkpt>
      <trkpt lat="47.10393" lon="-1.7764">
        <ele>57</ele>
        <time>2021-09-04T07:58:40.000Z</time>
      </trkpt>
      <trkpt lat="47.10395" lon="-1.77659">
        <ele>57</ele>
        <time>2021-09-04T07:58:42.000Z</time>
      </trkpt>
      <trkpt lat="47.10396" lon="-1.77678">
        <ele>57</ele>
        <time>2021-09-04T07:58:44.000Z</time>
      </trkpt>
      <trkpt lat="47.10397" lon="-1.77697">
        <ele>57</ele>
        <time>2021-09-04T07:58:46.000Z</time>
      </trkpt>
      <trkpt lat="47.10398" lon="-1.77715">
        <ele>57</ele>
        <time>2021-09-04T07:58:48.000Z</time>
      </trkpt>
      <trkpt lat="47.10398" lon="-1.77733">
        <ele>58</ele>
        <time>2021-09-04T07:58:50.000Z</time>
      </trkpt>
      <trkpt lat="47.10398" lon="-1.77752">
        <ele>59</ele>
        <time>2021-09-04T07:58:52.000Z</time>
      </trkpt>
      <trkpt lat="47.10398" lon="-1.7777">
        <ele>59</ele>
        <time>2021-09-04T07:58:54.000Z</time>
      </trkpt>
      <trkpt lat="47.10399" lon="-1.77787">
        <ele>59</ele>
        <time>2021-09-04T07:58:56.000Z</time>
      </trkpt>
      <trkpt lat="47.10399" lon="-1.77804">
        <ele>60</ele>
        <time>2021-09-04T07:58:58.000Z</time>
      </trkpt>
      <trkpt lat="47.10398" lon="-1.77823">
        <ele>60</ele>
        <time>2021-09-04T07:59:00.000Z</time>
      </trkpt>
      <trkpt lat="47.10398" lon="-1.7784">
        <ele>60</ele>
        <time>2021-09-04T07:59:02.000Z</time>
      </trkpt>
      <trkpt lat="47.10396" lon="-1.77858">
        <ele>60</ele>
        <time>2021-09-04T07:59:04.000Z</time>
      </trkpt>
      <trkpt lat="47.10394" lon="-1.77876">
        <ele>60</ele>
        <time>2021-09-04T07:59:06.000Z</time>
      </trkpt>
      <trkpt lat="47.10392" lon="-1.77893">
        <ele>60</ele>
        <time>2021-09-04T07:59:08.000Z</time>
      </trkpt>
      <trkpt lat="47.10389" lon="-1.77909">
        <ele>60</ele>
        <time>2021-09-04T07:59:10.000Z</time>
      </trkpt>
      <trkpt lat="47.10385" lon="-1.77925">
        <ele>60</ele>
        <time>2021-09-04T07:59:12.000Z</time>
      </trkpt>
      <trkpt lat="47.1038" lon="-1.77941">
        <ele>60</ele>
        <time>2021-09-04T07:59:14.000Z</time>
      </trkpt>
      <trkpt lat="47.10376" lon="-1.77957">
        <ele>61</ele>
        <time>2021-09-04T07:59:16.000Z</time>
      </trkpt>
      <trkpt lat="47.10371" lon="-1.77972">
        <ele>62</ele>
        <time>2021-09-04T07:59:18.000Z</time>
      </trkpt>
      <trkpt lat="47.10366" lon="-1.77988">
        <ele>63</ele>
        <time>2021-09-04T07:59:20.000Z</time>
      </trkpt>
      <trkpt lat="47.10361" lon="-1.78004">
        <ele>63</ele>
        <time>2021-09-04T07:59:22.000Z</time>
      </trkpt>
      <trkpt lat="47.10357" lon="-1.78019">
        <ele>64</ele>
        <time>2021-09-04T07:59:24.000Z</time>
      </trkpt>
      <trkpt lat="47.10355" lon="-1.78035">
        <ele>64</ele>
        <time>2021-09-04T07:59:26.000Z</time>
      </trkpt>
      <trkpt lat="47.10352" lon="-1.78051">
        <ele>64</ele>
        <time>2021-09-04T07:59:28.000Z</time>
      </trkpt>
      <trkpt lat="47.1035" lon="-1.78067">
        <ele>65</ele>
        <time>2021-09-04T07:59:30.000Z</time>
      </trkpt>
      <trkpt lat="47.10349" lon="-1.78085">
        <ele>65</ele>
        <time>2021-09-04T07:59:32.000Z</time>
      </trkpt>
      <trkpt lat="47.10348" lon="-1.78102">
        <ele>65</ele>
        <time>2021-09-04T07:59:34.000Z</time>
      </trkpt>
      <trkpt lat="47.10347" lon="-1.78119">
        <ele>65</ele>
        <time>2021-09-04T07:59:36.000Z</time>
      </trkpt>
      <trkpt lat="47.10345" lon="-1.78136">
        <ele>65</ele>
        <time>2021-09-04T07:59:38.000Z</time>
      </trkpt>
      <trkpt lat="47.10344" lon="-1.78153">
        <ele>65</ele>
        <time>2021-09-04T07:59:40.000Z</time>
      </trkpt>
      <trkpt lat="47.10342" lon="-1.7817">
        <ele>65</ele>
        <time>2021-09-04T07:59:42.000Z</time>
      </trkpt>
      <trkpt lat="47.10339" lon="-1.78187">
        <ele>65</ele>
        <time>2021-09-04T07:59:44.000Z</time>
      </trkpt>
      <trkpt lat="47.10337" lon="-1.78205">
        <ele>65</ele>
        <time>2021-09-04T07:59:46.000Z</time>
      </trkpt>
      <trkpt lat="47.10334" lon="-1.78225">
        <ele>65</ele>
        <time>2021-09-04T07:59:48.000Z</time>
      </trkpt>
      <trkpt lat="47.10332" lon="-1.78245">
        <ele>64</ele>
        <time>2021-09-04T07:59:50.000Z</time>
      </trkpt>
      <trkpt lat="47.10333" lon="-1.78268">
        <ele>63</ele>
        <time>2021-09-04T07:59:52.000Z</time>
      </trkpt>
      <trkpt lat="47.10335" lon="-1.7829">
        <ele>62</ele>
        <time>2021-09-04T07:59:54.000Z</time>
      </trkpt>
      <trkpt lat="47.10336" lon="-1.78313">
        <ele>62</ele>
        <time>2021-09-04T07:59:56.000Z</time>
      </trkpt>
      <trkpt lat="47.10335" lon="-1.78337">
        <ele>61</ele>
        <time>2021-09-04T07:59:58.000Z</time>
      </trkpt>
      <trkpt lat="47.10332" lon="-1.78363">
        <ele>60</ele>
        <time>2021-09-04T08:00:00.000Z</time>
      </trkpt>
      <trkpt lat="47.10331" lon="-1.78376">
        <ele>59</ele>
        <time>2021-09-04T08:00:01.000Z</time>
      </trkpt>
      <trkpt lat="47.10329" lon="-1.78389">
        <ele>59</ele>
        <time>2021-09-04T08:00:02.000Z</time>
      </trkpt>
      <trkpt lat="47.10326" lon="-1.78402">
        <ele>58</ele>
        <time>2021-09-04T08:00:03.000Z</time>
      </trkpt>
      <trkpt lat="47.10324" lon="-1.78415">
        <ele>58</ele>
        <time>2021-09-04T08:00:04.000Z</time>
      </trkpt>
      <trkpt lat="47.10322" lon="-1.78429">
        <ele>57</ele>
        <time>2021-09-04T08:00:05.000Z</time>
      </trkpt>
      <trkpt lat="47.1032" lon="-1.78442">
        <ele>56</ele>
        <time>2021-09-04T08:00:06.000Z</time>
      </trkpt>
      <trkpt lat="47.10318" lon="-1.78456">
        <ele>56</ele>
        <time>2021-09-04T08:00:07.000Z</time>
      </trkpt>
      <trkpt lat="47.10316" lon="-1.7847">
        <ele>56</ele>
        <time>2021-09-04T08:00:08.000Z</time>
      </trkpt>
      <trkpt lat="47.10314" lon="-1.78483">
        <ele>55</ele>
        <time>2021-09-04T08:00:09.000Z</time>
      </trkpt>
      <trkpt lat="47.10313" lon="-1.78497">
        <ele>55</ele>
        <time>2021-09-04T08:00:10.000Z</time>
      </trkpt>
      <trkpt lat="47.10311" lon="-1.7851">
        <ele>54</ele>
        <time>2021-09-04T08:00:11.000Z</time>
      </trkpt>
      <trkpt lat="47.10309" lon="-1.78535">
        <ele>54</ele>
        <time>2021-09-04T08:00:13.000Z</time>
      </trkpt>
      <trkpt lat="47.10308" lon="-1.78559">
        <ele>54</ele>
        <time>2021-09-04T08:00:15.000Z</time>
      </trkpt>
      <trkpt lat="47.10307" lon="-1.78582">
        <ele>54</ele>
        <time>2021-09-04T08:00:17.000Z</time>
      </trkpt>
      <trkpt lat="47.10307" lon="-1.78604">
        <ele>55</ele>
        <time>2021-09-04T08:00:19.000Z</time>
      </trkpt>
      <trkpt lat="47.10307" lon="-1.78625">
        <ele>55</ele>
        <time>2021-09-04T08:00:21.000Z</time>
      </trkpt>
      <trkpt lat="47.10307" lon="-1.78643">
        <ele>55</ele>
        <time>2021-09-04T08:00:23.000Z</time>
      </trkpt>
      <trkpt lat="47.10306" lon="-1.78661">
        <ele>56</ele>
        <time>2021-09-04T08:00:25.000Z</time>
      </trkpt>
      <trkpt lat="47.10305" lon="-1.78677">
        <ele>56</ele>
        <time>2021-09-04T08:00:27.000Z</time>
      </trkpt>
      <trkpt lat="47.10305" lon="-1.78692">
        <ele>56</ele>
        <time>2021-09-04T08:00:29.000Z</time>
      </trkpt>
      <trkpt lat="47.10304" lon="-1.78707">
        <ele>58</ele>
        <time>2021-09-04T08:00:31.000Z</time>
      </trkpt>
      <trkpt lat="47.10303" lon="-1.78723">
        <ele>59</ele>
        <time>2021-09-04T08:00:33.000Z</time>
      </trkpt>
      <trkpt lat="47.10301" lon="-1.78737">
        <ele>59</ele>
        <time>2021-09-04T08:00:35.000Z</time>
      </trkpt>
      <trkpt lat="47.10299" lon="-1.78752">
        <ele>60</ele>
        <time>2021-09-04T08:00:37.000Z</time>
      </trkpt>
      <trkpt lat="47.10296" lon="-1.78766">
        <ele>61</ele>
        <time>2021-09-04T08:00:39.000Z</time>
      </trkpt>
      <trkpt lat="47.10292" lon="-1.7878">
        <ele>61</ele>
        <time>2021-09-04T08:00:41.000Z</time>
      </trkpt>
      <trkpt lat="47.10287" lon="-1.78794">
        <ele>62</ele>
        <time>2021-09-04T08:00:43.000Z</time>
      </trkpt>
      <trkpt lat="47.10283" lon="-1.78807">
        <ele>62</ele>
        <time>2021-09-04T08:00:45.000Z</time>
      </trkpt>
      <trkpt lat="47.10278" lon="-1.78821">
        <ele>62</ele>
        <time>2021-09-04T08:00:47.000Z</time>
      </trkpt>
      <trkpt lat="47.10272" lon="-1.78835">
        <ele>63</ele>
        <time>2021-09-04T08:00:49.000Z</time>
      </trkpt>
      <trkpt lat="47.10266" lon="-1.78848">
        <ele>63</ele>
        <time>2021-09-04T08:00:51.000Z</time>
      </trkpt>
      <trkpt lat="47.10261" lon="-1.78862">
        <ele>62</ele>
        <time>2021-09-04T08:00:53.000Z</time>
      </trkpt>
      <trkpt lat="47.10255" lon="-1.78876">
        <ele>63</ele>
        <time>2021-09-04T08:00:55.000Z</time>
      </trkpt>
      <trkpt lat="47.10249" lon="-1.7889">
        <ele>63</ele>
        <time>2021-09-04T08:00:57.000Z</time>
      </trkpt>
      <trkpt lat="47.10244" lon="-1.78904">
        <ele>63</ele>
        <time>2021-09-04T08:00:59.000Z</time>
      </trkpt>
      <trkpt lat="47.1024" lon="-1.78919">
        <ele>63</ele>
        <time>2021-09-04T08:01:01.000Z</time>
      </trkpt>
      <trkpt lat="47.10239" lon="-1.78935">
        <ele>64</ele>
        <time>2021-09-04T08:01:03.000Z</time>
      </trkpt>
      <trkpt lat="47.1024" lon="-1.78952">
        <ele>64</ele>
        <time>2021-09-04T08:01:05.000Z</time>
      </trkpt>
      <trkpt lat="47.10243" lon="-1.78969">
        <ele>65</ele>
        <time>2021-09-04T08:01:07.000Z</time>
      </trkpt>
      <trkpt lat="47.10248" lon="-1.78984">
        <ele>65</ele>
        <time>2021-09-04T08:01:09.000Z</time>
      </trkpt>
      <trkpt lat="47.10256" lon="-1.78998">
        <ele>65</ele>
        <time>2021-09-04T08:01:11.000Z</time>
      </trkpt>
      <trkpt lat="47.10264" lon="-1.79009">
        <ele>65</ele>
        <time>2021-09-04T08:01:13.000Z</time>
      </trkpt>
      <trkpt lat="47.10273" lon="-1.79022">
        <ele>66</ele>
        <time>2021-09-04T08:01:15.000Z</time>
      </trkpt>
      <trkpt lat="47.10282" lon="-1.79034">
        <ele>66</ele>
        <time>2021-09-04T08:01:17.000Z</time>
      </trkpt>
      <trkpt lat="47.10291" lon="-1.79047">
        <ele>65</ele>
        <time>2021-09-04T08:01:19.000Z</time>
      </trkpt>
      <trkpt lat="47.10301" lon="-1.79057">
        <ele>65</ele>
        <time>2021-09-04T08:01:21.000Z</time>
      </trkpt>
      <trkpt lat="47.1031" lon="-1.7907">
        <ele>66</ele>
        <time>2021-09-04T08:01:23.000Z</time>
      </trkpt>
      <trkpt lat="47.10318" lon="-1.79081">
        <ele>66</ele>
        <time>2021-09-04T08:01:25.000Z</time>
      </trkpt>
      <trkpt lat="47.10325" lon="-1.79092">
        <ele>66</ele>
        <time>2021-09-04T08:01:27.000Z</time>
      </trkpt>
      <trkpt lat="47.10332" lon="-1.79102">
        <ele>66</ele>
        <time>2021-09-04T08:01:29.000Z</time>
      </trkpt>
      <trkpt lat="47.10337" lon="-1.79114">
        <ele>66</ele>
        <time>2021-09-04T08:01:32.000Z</time>
      </trkpt>
      <trkpt lat="47.10326" lon="-1.79122">
        <ele>66</ele>
        <time>2021-09-04T08:01:35.000Z</time>
      </trkpt>
      <trkpt lat="47.10315" lon="-1.79126">
        <ele>65</ele>
        <time>2021-09-04T08:01:37.000Z</time>
      </trkpt>
      <trkpt lat="47.10304" lon="-1.79131">
        <ele>65</ele>
        <time>2021-09-04T08:01:39.000Z</time>
      </trkpt>
      <trkpt lat="47.10291" lon="-1.7914">
        <ele>65</ele>
        <time>2021-09-04T08:01:41.000Z</time>
      </trkpt>
      <trkpt lat="47.10279" lon="-1.79149">
        <ele>64</ele>
        <time>2021-09-04T08:01:43.000Z</time>
      </trkpt>
      <trkpt lat="47.10268" lon="-1.79157">
        <ele>64</ele>
        <time>2021-09-04T08:01:45.000Z</time>
      </trkpt>
      <trkpt lat="47.10257" lon="-1.79167">
        <ele>64</ele>
        <time>2021-09-04T08:01:47.000Z</time>
      </trkpt>
      <trkpt lat="47.10246" lon="-1.79176">
        <ele>65</ele>
        <time>2021-09-04T08:01:49.000Z</time>
      </trkpt>
      <trkpt lat="47.10235" lon="-1.79185">
        <ele>65</ele>
        <time>2021-09-04T08:01:51.000Z</time>
      </trkpt>
      <trkpt lat="47.10223" lon="-1.79195">
        <ele>65</ele>
        <time>2021-09-04T08:01:53.000Z</time>
      </trkpt>
      <trkpt lat="47.10212" lon="-1.79204">
        <ele>65</ele>
        <time>2021-09-04T08:01:55.000Z</time>
      </trkpt>
      <trkpt lat="47.10201" lon="-1.79212">
        <ele>65</ele>
        <time>2021-09-04T08:01:57.000Z</time>
      </trkpt>
      <trkpt lat="47.10191" lon="-1.7922">
        <ele>65</ele>
        <time>2021-09-04T08:01:59.000Z</time>
      </trkpt>
      <trkpt lat="47.10181" lon="-1.79228">
        <ele>64</ele>
        <time>2021-09-04T08:02:01.000Z</time>
      </trkpt>
      <trkpt lat="47.1017" lon="-1.79237">
        <ele>64</ele>
        <time>2021-09-04T08:02:03.000Z</time>
      </trkpt>
      <trkpt lat="47.1016" lon="-1.79246">
        <ele>65</ele>
        <time>2021-09-04T08:02:05.000Z</time>
      </trkpt>
      <trkpt lat="47.1015" lon="-1.79256">
        <ele>64</ele>
        <time>2021-09-04T08:02:07.000Z</time>
      </trkpt>
      <trkpt lat="47.10142" lon="-1.79265">
        <ele>64</ele>
        <time>2021-09-04T08:02:09.000Z</time>
      </trkpt>
      <trkpt lat="47.10135" lon="-1.79278">
        <ele>64</ele>
        <time>2021-09-04T08:02:11.000Z</time>
      </trkpt>
      <trkpt lat="47.10129" lon="-1.79292">
        <ele>64</ele>
        <time>2021-09-04T08:02:13.000Z</time>
      </trkpt>
      <trkpt lat="47.10121" lon="-1.79306">
        <ele>64</ele>
        <time>2021-09-04T08:02:15.000Z</time>
      </trkpt>
      <trkpt lat="47.10111" lon="-1.79319">
        <ele>64</ele>
        <time>2021-09-04T08:02:17.000Z</time>
      </trkpt>
      <trkpt lat="47.10102" lon="-1.79331">
        <ele>62</ele>
        <time>2021-09-04T08:02:19.000Z</time>
      </trkpt>
      <trkpt lat="47.10092" lon="-1.79346">
        <ele>62</ele>
        <time>2021-09-04T08:02:21.000Z</time>
      </trkpt>
      <trkpt lat="47.10081" lon="-1.7936">
        <ele>61</ele>
        <time>2021-09-04T08:02:23.000Z</time>
      </trkpt>
      <trkpt lat="47.10071" lon="-1.79376">
        <ele>60</ele>
        <time>2021-09-04T08:02:25.000Z</time>
      </trkpt>
      <trkpt lat="47.1006" lon="-1.79391">
        <ele>59</ele>
        <time>2021-09-04T08:02:27.000Z</time>
      </trkpt>
      <trkpt lat="47.10049" lon="-1.79406">
        <ele>59</ele>
        <time>2021-09-04T08:02:29.000Z</time>
      </trkpt>
      <trkpt lat="47.10038" lon="-1.79422">
        <ele>58</ele>
        <time>2021-09-04T08:02:31.000Z</time>
      </trkpt>
      <trkpt lat="47.10026" lon="-1.79436">
        <ele>58</ele>
        <time>2021-09-04T08:02:33.000Z</time>
      </trkpt>
      <trkpt lat="47.10013" lon="-1.79449">
        <ele>58</ele>
        <time>2021-09-04T08:02:35.000Z</time>
      </trkpt>
      <trkpt lat="47.10002" lon="-1.79462">
        <ele>58</ele>
        <time>2021-09-04T08:02:37.000Z</time>
      </trkpt>
      <trkpt lat="47.0999" lon="-1.79474">
        <ele>58</ele>
        <time>2021-09-04T08:02:39.000Z</time>
      </trkpt>
      <trkpt lat="47.09977" lon="-1.79487">
        <ele>57</ele>
        <time>2021-09-04T08:02:41.000Z</time>
      </trkpt>
      <trkpt lat="47.09965" lon="-1.79499">
        <ele>57</ele>
        <time>2021-09-04T08:02:43.000Z</time>
      </trkpt>
      <trkpt lat="47.09952" lon="-1.7951">
        <ele>57</ele>
        <time>2021-09-04T08:02:45.000Z</time>
      </trkpt>
      <trkpt lat="47.0994" lon="-1.79522">
        <ele>57</ele>
        <time>2021-09-04T08:02:47.000Z</time>
      </trkpt>
      <trkpt lat="47.09928" lon="-1.79534">
        <ele>56</ele>
        <time>2021-09-04T08:02:49.000Z</time>
      </trkpt>
      <trkpt lat="47.09915" lon="-1.79544">
        <ele>56</ele>
        <time>2021-09-04T08:02:51.000Z</time>
      </trkpt>
      <trkpt lat="47.09901" lon="-1.79553">
        <ele>56</ele>
        <time>2021-09-04T08:02:53.000Z</time>
      </trkpt>
      <trkpt lat="47.09886" lon="-1.79559">
        <ele>56</ele>
        <time>2021-09-04T08:02:55.000Z</time>
      </trkpt>
      <trkpt lat="47.09872" lon="-1.79564">
        <ele>56</ele>
        <time>2021-09-04T08:02:57.000Z</time>
      </trkpt>
      <trkpt lat="47.09857" lon="-1.79567">
        <ele>56</ele>
        <time>2021-09-04T08:02:59.000Z</time>
      </trkpt>
      <trkpt lat="47.09842" lon="-1.79566">
        <ele>56</ele>
        <time>2021-09-04T08:03:01.000Z</time>
      </trkpt>
      <trkpt lat="47.09827" lon="-1.79564">
        <ele>55</ele>
        <time>2021-09-04T08:03:03.000Z</time>
      </trkpt>
      <trkpt lat="47.09813" lon="-1.79559">
        <ele>55</ele>
        <time>2021-09-04T08:03:05.000Z</time>
      </trkpt>
      <trkpt lat="47.098" lon="-1.7955">
        <ele>54</ele>
        <time>2021-09-04T08:03:07.000Z</time>
      </trkpt>
      <trkpt lat="47.09787" lon="-1.79541">
        <ele>54</ele>
        <time>2021-09-04T08:03:09.000Z</time>
      </trkpt>
      <trkpt lat="47.09774" lon="-1.79531">
        <ele>53</ele>
        <time>2021-09-04T08:03:11.000Z</time>
      </trkpt>
      <trkpt lat="47.09761" lon="-1.79523">
        <ele>53</ele>
        <time>2021-09-04T08:03:13.000Z</time>
      </trkpt>
      <trkpt lat="47.09747" lon="-1.79517">
        <ele>54</ele>
        <time>2021-09-04T08:03:15.000Z</time>
      </trkpt>
      <trkpt lat="47.09734" lon="-1.79514">
        <ele>54</ele>
        <time>2021-09-04T08:03:17.000Z</time>
      </trkpt>
      <trkpt lat="47.09721" lon="-1.79511">
        <ele>55</ele>
        <time>2021-09-04T08:03:19.000Z</time>
      </trkpt>
      <trkpt lat="47.09708" lon="-1.79511">
        <ele>55</ele>
        <time>2021-09-04T08:03:21.000Z</time>
      </trkpt>
      <trkpt lat="47.09695" lon="-1.79512">
        <ele>55</ele>
        <time>2021-09-04T08:03:23.000Z</time>
      </trkpt>
      <trkpt lat="47.09683" lon="-1.79514">
        <ele>55</ele>
        <time>2021-09-04T08:03:25.000Z</time>
      </trkpt>
      <trkpt lat="47.0967" lon="-1.79519">
        <ele>55</ele>
        <time>2021-09-04T08:03:27.000Z</time>
      </trkpt>
      <trkpt lat="47.09658" lon="-1.79525">
        <ele>55</ele>
        <time>2021-09-04T08:03:29.000Z</time>
      </trkpt>
      <trkpt lat="47.09647" lon="-1.79531">
        <ele>56</ele>
        <time>2021-09-04T08:03:31.000Z</time>
      </trkpt>
      <trkpt lat="47.09636" lon="-1.7954">
        <ele>56</ele>
        <time>2021-09-04T08:03:33.000Z</time>
      </trkpt>
      <trkpt lat="47.09625" lon="-1.79547">
        <ele>56</ele>
        <time>2021-09-04T08:03:35.000Z</time>
      </trkpt>
      <trkpt lat="47.09614" lon="-1.79555">
        <ele>56</ele>
        <time>2021-09-04T08:03:37.000Z</time>
      </trkpt>
      <trkpt lat="47.09602" lon="-1.79563">
        <ele>57</ele>
        <time>2021-09-04T08:03:39.000Z</time>
      </trkpt>
      <trkpt lat="47.09592" lon="-1.79571">
        <ele>57</ele>
        <time>2021-09-04T08:03:41.000Z</time>
      </trkpt>
      <trkpt lat="47.0958" lon="-1.79579">
        <ele>57</ele>
        <time>2021-09-04T08:03:43.000Z</time>
      </trkpt>
      <trkpt lat="47.09569" lon="-1.79587">
        <ele>57</ele>
        <time>2021-09-04T08:03:45.000Z</time>
      </trkpt>
      <trkpt lat="47.09559" lon="-1.79595">
        <ele>58</ele>
        <time>2021-09-04T08:03:47.000Z</time>
      </trkpt>
      <trkpt lat="47.09547" lon="-1.79603">
        <ele>58</ele>
        <time>2021-09-04T08:03:49.000Z</time>
      </trkpt>
      <trkpt lat="47.09536" lon="-1.79612">
        <ele>59</ele>
        <time>2021-09-04T08:03:51.000Z</time>
      </trkpt>
      <trkpt lat="47.09525" lon="-1.79622">
        <ele>59</ele>
        <time>2021-09-04T08:03:53.000Z</time>
      </trkpt>
      <trkpt lat="47.09514" lon="-1.79631">
        <ele>59</ele>
        <time>2021-09-04T08:03:55.000Z</time>
      </trkpt>
      <trkpt lat="47.09503" lon="-1.79638">
        <ele>59</ele>
        <time>2021-09-04T08:03:57.000Z</time>
      </trkpt>
      <trkpt lat="47.09492" lon="-1.79644">
        <ele>59</ele>
        <time>2021-09-04T08:03:59.000Z</time>
      </trkpt>
      <trkpt lat="47.0948" lon="-1.7965">
        <ele>59</ele>
        <time>2021-09-04T08:04:01.000Z</time>
      </trkpt>
      <trkpt lat="47.09468" lon="-1.79655">
        <ele>59</ele>
        <time>2021-09-04T08:04:03.000Z</time>
      </trkpt>
      <trkpt lat="47.09455" lon="-1.79659">
        <ele>59</ele>
        <time>2021-09-04T08:04:05.000Z</time>
      </trkpt>
      <trkpt lat="47.09442" lon="-1.79661">
        <ele>60</ele>
        <time>2021-09-04T08:04:07.000Z</time>
      </trkpt>
      <trkpt lat="47.09428" lon="-1.7966">
        <ele>60</ele>
        <time>2021-09-04T08:04:09.000Z</time>
      </trkpt>
      <trkpt lat="47.09415" lon="-1.79658">
        <ele>60</ele>
        <time>2021-09-04T08:04:11.000Z</time>
      </trkpt>
      <trkpt lat="47.09402" lon="-1.79656">
        <ele>60</ele>
        <time>2021-09-04T08:04:13.000Z</time>
      </trkpt>
      <trkpt lat="47.0939" lon="-1.79653">
        <ele>60</ele>
        <time>2021-09-04T08:04:15.000Z</time>
      </trkpt>
      <trkpt lat="47.09378" lon="-1.79651">
        <ele>60</ele>
        <time>2021-09-04T08:04:17.000Z</time>
      </trkpt>
      <trkpt lat="47.09365" lon="-1.79648">
        <ele>60</ele>
        <time>2021-09-04T08:04:19.000Z</time>
      </trkpt>
      <trkpt lat="47.09353" lon="-1.79645">
        <ele>59</ele>
        <time>2021-09-04T08:04:21.000Z</time>
      </trkpt>
      <trkpt lat="47.09341" lon="-1.79642">
        <ele>59</ele>
        <time>2021-09-04T08:04:23.000Z</time>
      </trkpt>
      <trkpt lat="47.09329" lon="-1.7964">
        <ele>59</ele>
        <time>2021-09-04T08:04:25.000Z</time>
      </trkpt>
      <trkpt lat="47.09317" lon="-1.79637">
        <ele>59</ele>
        <time>2021-09-04T08:04:27.000Z</time>
      </trkpt>
      <trkpt lat="47.09305" lon="-1.79635">
        <ele>59</ele>
        <time>2021-09-04T08:04:29.000Z</time>
      </trkpt>
      <trkpt lat="47.09293" lon="-1.79632">
        <ele>59</ele>
        <time>2021-09-04T08:04:31.000Z</time>
      </trkpt>
      <trkpt lat="47.09282" lon="-1.7963">
        <ele>59</ele>
        <time>2021-09-04T08:04:33.000Z</time>
      </trkpt>
      <trkpt lat="47.0927" lon="-1.79628">
        <ele>59</ele>
        <time>2021-09-04T08:04:35.000Z</time>
      </trkpt>
      <trkpt lat="47.0926" lon="-1.79629">
        <ele>59</ele>
        <time>2021-09-04T08:04:37.000Z</time>
      </trkpt>
      <trkpt lat="47.09254" lon="-1.79646">
        <ele>59</ele>
        <time>2021-09-04T08:04:39.000Z</time>
      </trkpt>
      <trkpt lat="47.09254" lon="-1.79665">
        <ele>58</ele>
        <time>2021-09-04T08:04:41.000Z</time>
      </trkpt>
      <trkpt lat="47.09256" lon="-1.79684">
        <ele>58</ele>
        <time>2021-09-04T08:04:43.000Z</time>
      </trkpt>
      <trkpt lat="47.09257" lon="-1.79704">
        <ele>58</ele>
        <time>2021-09-04T08:04:45.000Z</time>
      </trkpt>
      <trkpt lat="47.09258" lon="-1.79724">
        <ele>58</ele>
        <time>2021-09-04T08:04:47.000Z</time>
      </trkpt>
      <trkpt lat="47.09262" lon="-1.79744">
        <ele>58</ele>
        <time>2021-09-04T08:04:49.000Z</time>
      </trkpt>
      <trkpt lat="47.0927" lon="-1.79763">
        <ele>58</ele>
        <time>2021-09-04T08:04:51.000Z</time>
      </trkpt>
      <trkpt lat="47.09277" lon="-1.79783">
        <ele>58</ele>
        <time>2021-09-04T08:04:53.000Z</time>
      </trkpt>
      <trkpt lat="47.09281" lon="-1.79804">
        <ele>57</ele>
        <time>2021-09-04T08:04:55.000Z</time>
      </trkpt>
      <trkpt lat="47.09283" lon="-1.79826">
        <ele>57</ele>
        <time>2021-09-04T08:04:57.000Z</time>
      </trkpt>
      <trkpt lat="47.09285" lon="-1.79847">
        <ele>57</ele>
        <time>2021-09-04T08:04:59.000Z</time>
      </trkpt>
      <trkpt lat="47.09284" lon="-1.79869">
        <ele>57</ele>
        <time>2021-09-04T08:05:01.000Z</time>
      </trkpt>
      <trkpt lat="47.09282" lon="-1.79891">
        <ele>57</ele>
        <time>2021-09-04T08:05:03.000Z</time>
      </trkpt>
      <trkpt lat="47.09277" lon="-1.79912">
        <ele>57</ele>
        <time>2021-09-04T08:05:05.000Z</time>
      </trkpt>
      <trkpt lat="47.09271" lon="-1.79932">
        <ele>57</ele>
        <time>2021-09-04T08:05:07.000Z</time>
      </trkpt>
      <trkpt lat="47.09266" lon="-1.79952">
        <ele>57</ele>
        <time>2021-09-04T08:05:09.000Z</time>
      </trkpt>
      <trkpt lat="47.09261" lon="-1.79972">
        <ele>57</ele>
        <time>2021-09-04T08:05:11.000Z</time>
      </trkpt>
      <trkpt lat="47.09257" lon="-1.79991">
        <ele>57</ele>
        <time>2021-09-04T08:05:13.000Z</time>
      </trkpt>
      <trkpt lat="47.09252" lon="-1.8001">
        <ele>57</ele>
        <time>2021-09-04T08:05:15.000Z</time>
      </trkpt>
      <trkpt lat="47.09248" lon="-1.8003">
        <ele>57</ele>
        <time>2021-09-04T08:05:17.000Z</time>
      </trkpt>
      <trkpt lat="47.09244" lon="-1.80049">
        <ele>57</ele>
        <time>2021-09-04T08:05:19.000Z</time>
      </trkpt>
      <trkpt lat="47.0924" lon="-1.80068">
        <ele>57</ele>
        <time>2021-09-04T08:05:21.000Z</time>
      </trkpt>
      <trkpt lat="47.09236" lon="-1.80087">
        <ele>57</ele>
        <time>2021-09-04T08:05:23.000Z</time>
      </trkpt>
      <trkpt lat="47.09233" lon="-1.80106">
        <ele>58</ele>
        <time>2021-09-04T08:05:25.000Z</time>
      </trkpt>
      <trkpt lat="47.09229" lon="-1.80125">
        <ele>58</ele>
        <time>2021-09-04T08:05:27.000Z</time>
      </trkpt>
      <trkpt lat="47.09226" lon="-1.80144">
        <ele>57</ele>
        <time>2021-09-04T08:05:29.000Z</time>
      </trkpt>
      <trkpt lat="47.09223" lon="-1.80163">
        <ele>58</ele>
        <time>2021-09-04T08:05:31.000Z</time>
      </trkpt>
      <trkpt lat="47.0922" lon="-1.80181">
        <ele>58</ele>
        <time>2021-09-04T08:05:33.000Z</time>
      </trkpt>
      <trkpt lat="47.09216" lon="-1.80198">
        <ele>58</ele>
        <time>2021-09-04T08:05:35.000Z</time>
      </trkpt>
      <trkpt lat="47.09211" lon="-1.80217">
        <ele>58</ele>
        <time>2021-09-04T08:05:37.000Z</time>
      </trkpt>
      <trkpt lat="47.09205" lon="-1.80235">
        <ele>58</ele>
        <time>2021-09-04T08:05:39.000Z</time>
      </trkpt>
      <trkpt lat="47.09199" lon="-1.80254">
        <ele>58</ele>
        <time>2021-09-04T08:05:41.000Z</time>
      </trkpt>
      <trkpt lat="47.09193" lon="-1.80272">
        <ele>58</ele>
        <time>2021-09-04T08:05:43.000Z</time>
      </trkpt>
      <trkpt lat="47.09187" lon="-1.80291">
        <ele>58</ele>
        <time>2021-09-04T08:05:45.000Z</time>
      </trkpt>
      <trkpt lat="47.09182" lon="-1.80309">
        <ele>58</ele>
        <time>2021-09-04T08:05:47.000Z</time>
      </trkpt>
      <trkpt lat="47.09176" lon="-1.80327">
        <ele>57</ele>
        <time>2021-09-04T08:05:49.000Z</time>
      </trkpt>
      <trkpt lat="47.0917" lon="-1.80345">
        <ele>56</ele>
        <time>2021-09-04T08:05:51.000Z</time>
      </trkpt>
      <trkpt lat="47.09166" lon="-1.80364">
        <ele>56</ele>
        <time>2021-09-04T08:05:53.000Z</time>
      </trkpt>
      <trkpt lat="47.09164" lon="-1.80385">
        <ele>56</ele>
        <time>2021-09-04T08:05:55.000Z</time>
      </trkpt>
      <trkpt lat="47.09164" lon="-1.80407">
        <ele>56</ele>
        <time>2021-09-04T08:05:57.000Z</time>
      </trkpt>
      <trkpt lat="47.09165" lon="-1.80429">
        <ele>56</ele>
        <time>2021-09-04T08:05:59.000Z</time>
      </trkpt>
      <trkpt lat="47.09165" lon="-1.80451">
        <ele>56</ele>
        <time>2021-09-04T08:06:01.000Z</time>
      </trkpt>
      <trkpt lat="47.09164" lon="-1.80471">
        <ele>56</ele>
        <time>2021-09-04T08:06:03.000Z</time>
      </trkpt>
      <trkpt lat="47.09163" lon="-1.80492">
        <ele>56</ele>
        <time>2021-09-04T08:06:05.000Z</time>
      </trkpt>
      <trkpt lat="47.09163" lon="-1.80512">
        <ele>56</ele>
        <time>2021-09-04T08:06:07.000Z</time>
      </trkpt>
      <trkpt lat="47.09162" lon="-1.80531">
        <ele>56</ele>
        <time>2021-09-04T08:06:09.000Z</time>
      </trkpt>
      <trkpt lat="47.09163" lon="-1.80551">
        <ele>57</ele>
        <time>2021-09-04T08:06:11.000Z</time>
      </trkpt>
      <trkpt lat="47.09163" lon="-1.80572">
        <ele>57</ele>
        <time>2021-09-04T08:06:13.000Z</time>
      </trkpt>
      <trkpt lat="47.09163" lon="-1.8059">
        <ele>57</ele>
        <time>2021-09-04T08:06:15.000Z</time>
      </trkpt>
      <trkpt lat="47.09164" lon="-1.80608">
        <ele>58</ele>
        <time>2021-09-04T08:06:17.000Z</time>
      </trkpt>
      <trkpt lat="47.09165" lon="-1.80626">
        <ele>58</ele>
        <time>2021-09-04T08:06:19.000Z</time>
      </trkpt>
      <trkpt lat="47.09165" lon="-1.80644">
        <ele>59</ele>
        <time>2021-09-04T08:06:21.000Z</time>
      </trkpt>
      <trkpt lat="47.09165" lon="-1.80662">
        <ele>60</ele>
        <time>2021-09-04T08:06:23.000Z</time>
      </trkpt>
      <trkpt lat="47.09164" lon="-1.8068">
        <ele>61</ele>
        <time>2021-09-04T08:06:25.000Z</time>
      </trkpt>
      <trkpt lat="47.09164" lon="-1.80697">
        <ele>60</ele>
        <time>2021-09-04T08:06:27.000Z</time>
      </trkpt>
      <trkpt lat="47.09163" lon="-1.80716">
        <ele>60</ele>
        <time>2021-09-04T08:06:29.000Z</time>
      </trkpt>
      <trkpt lat="47.09163" lon="-1.80733">
        <ele>60</ele>
        <time>2021-09-04T08:06:31.000Z</time>
      </trkpt>
      <trkpt lat="47.09162" lon="-1.80751">
        <ele>60</ele>
        <time>2021-09-04T08:06:33.000Z</time>
      </trkpt>
      <trkpt lat="47.09161" lon="-1.80769">
        <ele>60</ele>
        <time>2021-09-04T08:06:35.000Z</time>
      </trkpt>
      <trkpt lat="47.0916" lon="-1.80787">
        <ele>60</ele>
        <time>2021-09-04T08:06:37.000Z</time>
      </trkpt>
      <trkpt lat="47.09159" lon="-1.80805">
        <ele>61</ele>
        <time>2021-09-04T08:06:39.000Z</time>
      </trkpt>
      <trkpt lat="47.09158" lon="-1.80822">
        <ele>61</ele>
        <time>2021-09-04T08:06:41.000Z</time>
      </trkpt>
      <trkpt lat="47.09158" lon="-1.8084">
        <ele>61</ele>
        <time>2021-09-04T08:06:43.000Z</time>
      </trkpt>
      <trkpt lat="47.09161" lon="-1.80858">
        <ele>61</ele>
        <time>2021-09-04T08:06:45.000Z</time>
      </trkpt>
      <trkpt lat="47.09164" lon="-1.80876">
        <ele>61</ele>
        <time>2021-09-04T08:06:47.000Z</time>
      </trkpt>
      <trkpt lat="47.09168" lon="-1.80893">
        <ele>61</ele>
        <time>2021-09-04T08:06:49.000Z</time>
      </trkpt>
      <trkpt lat="47.09171" lon="-1.80911">
        <ele>61</ele>
        <time>2021-09-04T08:06:51.000Z</time>
      </trkpt>
      <trkpt lat="47.09175" lon="-1.80928">
        <ele>61</ele>
        <time>2021-09-04T08:06:53.000Z</time>
      </trkpt>
      <trkpt lat="47.09179" lon="-1.80945">
        <ele>60</ele>
        <time>2021-09-04T08:06:55.000Z</time>
      </trkpt>
      <trkpt lat="47.09182" lon="-1.80962">
        <ele>59</ele>
        <time>2021-09-04T08:06:57.000Z</time>
      </trkpt>
      <trkpt lat="47.09186" lon="-1.8098">
        <ele>58</ele>
        <time>2021-09-04T08:06:59.000Z</time>
      </trkpt>
      <trkpt lat="47.09186" lon="-1.80998">
        <ele>58</ele>
        <time>2021-09-04T08:07:01.000Z</time>
      </trkpt>
      <trkpt lat="47.09182" lon="-1.81015">
        <ele>58</ele>
        <time>2021-09-04T08:07:03.000Z</time>
      </trkpt>
      <trkpt lat="47.09178" lon="-1.8103">
        <ele>58</ele>
        <time>2021-09-04T08:07:05.000Z</time>
      </trkpt>
      <trkpt lat="47.09176" lon="-1.81046">
        <ele>58</ele>
        <time>2021-09-04T08:07:08.000Z</time>
      </trkpt>
      <trkpt lat="47.09187" lon="-1.81057">
        <ele>57</ele>
        <time>2021-09-04T08:07:11.000Z</time>
      </trkpt>
      <trkpt lat="47.09197" lon="-1.81065">
        <ele>57</ele>
        <time>2021-09-04T08:07:13.000Z</time>
      </trkpt>
      <trkpt lat="47.09209" lon="-1.81074">
        <ele>57</ele>
        <time>2021-09-04T08:07:15.000Z</time>
      </trkpt>
      <trkpt lat="47.0922" lon="-1.81084">
        <ele>57</ele>
        <time>2021-09-04T08:07:17.000Z</time>
      </trkpt>
      <trkpt lat="47.09229" lon="-1.81096">
        <ele>57</ele>
        <time>2021-09-04T08:07:19.000Z</time>
      </trkpt>
      <trkpt lat="47.09237" lon="-1.8111">
        <ele>57</ele>
        <time>2021-09-04T08:07:21.000Z</time>
      </trkpt>
      <trkpt lat="47.09246" lon="-1.81123">
        <ele>57</ele>
        <time>2021-09-04T08:07:23.000Z</time>
      </trkpt>
      <trkpt lat="47.09254" lon="-1.81136">
        <ele>57</ele>
        <time>2021-09-04T08:07:25.000Z</time>
      </trkpt>
      <trkpt lat="47.09262" lon="-1.81149">
        <ele>57</ele>
        <time>2021-09-04T08:07:27.000Z</time>
      </trkpt>
      <trkpt lat="47.0927" lon="-1.81161">
        <ele>58</ele>
        <time>2021-09-04T08:07:29.000Z</time>
      </trkpt>
      <trkpt lat="47.09278" lon="-1.81174">
        <ele>58</ele>
        <time>2021-09-04T08:07:31.000Z</time>
      </trkpt>
      <trkpt lat="47.09286" lon="-1.81187">
        <ele>58</ele>
        <time>2021-09-04T08:07:33.000Z</time>
      </trkpt>
      <trkpt lat="47.09294" lon="-1.812">
        <ele>58</ele>
        <time>2021-09-04T08:07:35.000Z</time>
      </trkpt>
      <trkpt lat="47.09302" lon="-1.81213">
        <ele>59</ele>
        <time>2021-09-04T08:07:37.000Z</time>
      </trkpt>
      <trkpt lat="47.09311" lon="-1.81226">
        <ele>59</ele>
        <time>2021-09-04T08:07:39.000Z</time>
      </trkpt>
      <trkpt lat="47.09319" lon="-1.81239">
        <ele>59</ele>
        <time>2021-09-04T08:07:41.000Z</time>
      </trkpt>
      <trkpt lat="47.09327" lon="-1.81251">
        <ele>59</ele>
        <time>2021-09-04T08:07:43.000Z</time>
      </trkpt>
      <trkpt lat="47.09336" lon="-1.81264">
        <ele>60</ele>
        <time>2021-09-04T08:07:45.000Z</time>
      </trkpt>
      <trkpt lat="47.09344" lon="-1.81276">
        <ele>60</ele>
        <time>2021-09-04T08:07:47.000Z</time>
      </trkpt>
      <trkpt lat="47.09353" lon="-1.81288">
        <ele>60</ele>
        <time>2021-09-04T08:07:49.000Z</time>
      </trkpt>
      <trkpt lat="47.09361" lon="-1.81302">
        <ele>61</ele>
        <time>2021-09-04T08:07:51.000Z</time>
      </trkpt>
      <trkpt lat="47.09369" lon="-1.81314">
        <ele>61</ele>
        <time>2021-09-04T08:07:53.000Z</time>
      </trkpt>
      <trkpt lat="47.09376" lon="-1.81327">
        <ele>61</ele>
        <time>2021-09-04T08:07:55.000Z</time>
      </trkpt>
      <trkpt lat="47.09383" lon="-1.81341">
        <ele>62</ele>
        <time>2021-09-04T08:07:57.000Z</time>
      </trkpt>
      <trkpt lat="47.09391" lon="-1.81356">
        <ele>62</ele>
        <time>2021-09-04T08:07:59.000Z</time>
      </trkpt>
      <trkpt lat="47.09397" lon="-1.81371">
        <ele>62</ele>
        <time>2021-09-04T08:08:01.000Z</time>
      </trkpt>
      <trkpt lat="47.09402" lon="-1.81388">
        <ele>62</ele>
        <time>2021-09-04T08:08:03.000Z</time>
      </trkpt>
      <trkpt lat="47.09408" lon="-1.81403">
        <ele>63</ele>
        <time>2021-09-04T08:08:05.000Z</time>
      </trkpt>
      <trkpt lat="47.09412" lon="-1.81418">
        <ele>63</ele>
        <time>2021-09-04T08:08:07.000Z</time>
      </trkpt>
      <trkpt lat="47.09417" lon="-1.81434">
        <ele>63</ele>
        <time>2021-09-04T08:08:09.000Z</time>
      </trkpt>
      <trkpt lat="47.09422" lon="-1.8145">
        <ele>63</ele>
        <time>2021-09-04T08:08:11.000Z</time>
      </trkpt>
      <trkpt lat="47.09427" lon="-1.81466">
        <ele>64</ele>
        <time>2021-09-04T08:08:13.000Z</time>
      </trkpt>
      <trkpt lat="47.09432" lon="-1.81482">
        <ele>64</ele>
        <time>2021-09-04T08:08:15.000Z</time>
      </trkpt>
      <trkpt lat="47.09437" lon="-1.81498">
        <ele>65</ele>
        <time>2021-09-04T08:08:17.000Z</time>
      </trkpt>
      <trkpt lat="47.09442" lon="-1.81513">
        <ele>65</ele>
        <time>2021-09-04T08:08:19.000Z</time>
      </trkpt>
      <trkpt lat="47.09447" lon="-1.81529">
        <ele>66</ele>
        <time>2021-09-04T08:08:21.000Z</time>
      </trkpt>
      <trkpt lat="47.09452" lon="-1.81544">
        <ele>66</ele>
        <time>2021-09-04T08:08:23.000Z</time>
      </trkpt>
      <trkpt lat="47.09457" lon="-1.8156">
        <ele>66</ele>
        <time>2021-09-04T08:08:25.000Z</time>
      </trkpt>
      <trkpt lat="47.09462" lon="-1.81576">
        <ele>66</ele>
        <time>2021-09-04T08:08:27.000Z</time>
      </trkpt>
      <trkpt lat="47.09465" lon="-1.81591">
        <ele>67</ele>
        <time>2021-09-04T08:08:29.000Z</time>
      </trkpt>
      <trkpt lat="47.09468" lon="-1.81607">
        <ele>67</ele>
        <time>2021-09-04T08:08:31.000Z</time>
      </trkpt>
      <trkpt lat="47.09471" lon="-1.81623">
        <ele>67</ele>
        <time>2021-09-04T08:08:33.000Z</time>
      </trkpt>
      <trkpt lat="47.09475" lon="-1.8164">
        <ele>67</ele>
        <time>2021-09-04T08:08:35.000Z</time>
      </trkpt>
      <trkpt lat="47.09478" lon="-1.81657">
        <ele>67</ele>
        <time>2021-09-04T08:08:37.000Z</time>
      </trkpt>
      <trkpt lat="47.09482" lon="-1.81674">
        <ele>67</ele>
        <time>2021-09-04T08:08:39.000Z</time>
      </trkpt>
      <trkpt lat="47.09486" lon="-1.81691">
        <ele>67</ele>
        <time>2021-09-04T08:08:41.000Z</time>
      </trkpt>
      <trkpt lat="47.0949" lon="-1.81708">
        <ele>67</ele>
        <time>2021-09-04T08:08:43.000Z</time>
      </trkpt>
      <trkpt lat="47.09495" lon="-1.81724">
        <ele>67</ele>
        <time>2021-09-04T08:08:45.000Z</time>
      </trkpt>
      <trkpt lat="47.095" lon="-1.8174">
        <ele>67</ele>
        <time>2021-09-04T08:08:47.000Z</time>
      </trkpt>
      <trkpt lat="47.09505" lon="-1.81756">
        <ele>67</ele>
        <time>2021-09-04T08:08:49.000Z</time>
      </trkpt>
      <trkpt lat="47.0951" lon="-1.81773">
        <ele>67</ele>
        <time>2021-09-04T08:08:51.000Z</time>
      </trkpt>
      <trkpt lat="47.09515" lon="-1.81789">
        <ele>67</ele>
        <time>2021-09-04T08:08:53.000Z</time>
      </trkpt>
      <trkpt lat="47.09522" lon="-1.81804">
        <ele>67</ele>
        <time>2021-09-04T08:08:55.000Z</time>
      </trkpt>
      <trkpt lat="47.09529" lon="-1.81819">
        <ele>67</ele>
        <time>2021-09-04T08:08:57.000Z</time>
      </trkpt>
      <trkpt lat="47.09536" lon="-1.81835">
        <ele>67</ele>
        <time>2021-09-04T08:08:59.000Z</time>
      </trkpt>
      <trkpt lat="47.09544" lon="-1.81849">
        <ele>67</ele>
        <time>2021-09-04T08:09:01.000Z</time>
      </trkpt>
      <trkpt lat="47.09553" lon="-1.81862">
        <ele>67</ele>
        <time>2021-09-04T08:09:03.000Z</time>
      </trkpt>
      <trkpt lat="47.09561" lon="-1.81876">
        <ele>67</ele>
        <time>2021-09-04T08:09:05.000Z</time>
      </trkpt>
      <trkpt lat="47.09569" lon="-1.8189">
        <ele>67</ele>
        <time>2021-09-04T08:09:07.000Z</time>
      </trkpt>
      <trkpt lat="47.09582" lon="-1.81911">
        <ele>67</ele>
        <time>2021-09-04T08:09:10.000Z</time>
      </trkpt>
      <trkpt lat="47.0959" lon="-1.81925">
        <ele>68</ele>
        <time>2021-09-04T08:09:12.000Z</time>
      </trkpt>
      <trkpt lat="47.09599" lon="-1.81938">
        <ele>68</ele>
        <time>2021-09-04T08:09:14.000Z</time>
      </trkpt>
      <trkpt lat="47.0961" lon="-1.81959">
        <ele>68</ele>
        <time>2021-09-04T08:09:17.000Z</time>
      </trkpt>
      <trkpt lat="47.09618" lon="-1.81973">
        <ele>68</ele>
        <time>2021-09-04T08:09:19.000Z</time>
      </trkpt>
      <trkpt lat="47.09629" lon="-1.81996">
        <ele>68</ele>
        <time>2021-09-04T08:09:22.000Z</time>
      </trkpt>
      <trkpt lat="47.09636" lon="-1.8201">
        <ele>68</ele>
        <time>2021-09-04T08:09:24.000Z</time>
      </trkpt>
      <trkpt lat="47.09643" lon="-1.82025">
        <ele>68</ele>
        <time>2021-09-04T08:09:26.000Z</time>
      </trkpt>
      <trkpt lat="47.09652" lon="-1.82036">
        <ele>68</ele>
        <time>2021-09-04T08:09:28.000Z</time>
      </trkpt>
      <trkpt lat="47.09664" lon="-1.82035">
        <ele>67</ele>
        <time>2021-09-04T08:09:30.000Z</time>
      </trkpt>
      <trkpt lat="47.09676" lon="-1.82025">
        <ele>67</ele>
        <time>2021-09-04T08:09:32.000Z</time>
      </trkpt>
      <trkpt lat="47.09686" lon="-1.82015">
        <ele>67</ele>
        <time>2021-09-04T08:09:34.000Z</time>
      </trkpt>
      <trkpt lat="47.09696" lon="-1.82005">
        <ele>68</ele>
        <time>2021-09-04T08:09:36.000Z</time>
      </trkpt>
      <trkpt lat="47.09707" lon="-1.81996">
        <ele>68</ele>
        <time>2021-09-04T08:09:38.000Z</time>
      </trkpt>
      <trkpt lat="47.09716" lon="-1.81988">
        <ele>68</ele>
        <time>2021-09-04T08:09:40.000Z</time>
      </trkpt>
      <trkpt lat="47.09726" lon="-1.8198">
        <ele>68</ele>
        <time>2021-09-04T08:09:42.000Z</time>
      </trkpt>
      <trkpt lat="47.09737" lon="-1.81971">
        <ele>67</ele>
        <time>2021-09-04T08:09:45.000Z</time>
      </trkpt>
      <trkpt lat="47.09746" lon="-1.81973">
        <ele>67</ele>
        <time>2021-09-04T08:09:59.000Z</time>
      </trkpt>
      <trkpt lat="47.09746" lon="-1.81987">
        <ele>67</ele>
        <time>2021-09-04T08:10:01.000Z</time>
      </trkpt>
      <trkpt lat="47.09742" lon="-1.82002">
        <ele>68</ele>
        <time>2021-09-04T08:10:03.000Z</time>
      </trkpt>
      <trkpt lat="47.09736" lon="-1.82019">
        <ele>69</ele>
        <time>2021-09-04T08:10:05.000Z</time>
      </trkpt>
      <trkpt lat="47.0973" lon="-1.82035">
        <ele>69</ele>
        <time>2021-09-04T08:10:07.000Z</time>
      </trkpt>
      <trkpt lat="47.09725" lon="-1.82052">
        <ele>69</ele>
        <time>2021-09-04T08:10:09.000Z</time>
      </trkpt>
      <trkpt lat="47.0972" lon="-1.82069">
        <ele>69</ele>
        <time>2021-09-04T08:10:11.000Z</time>
      </trkpt>
      <trkpt lat="47.09714" lon="-1.82086">
        <ele>69</ele>
        <time>2021-09-04T08:10:13.000Z</time>
      </trkpt>
      <trkpt lat="47.09709" lon="-1.82103">
        <ele>69</ele>
        <time>2021-09-04T08:10:15.000Z</time>
      </trkpt>
      <trkpt lat="47.09704" lon="-1.8212">
        <ele>69</ele>
        <time>2021-09-04T08:10:17.000Z</time>
      </trkpt>
      <trkpt lat="47.09699" lon="-1.82135">
        <ele>69</ele>
        <time>2021-09-04T08:10:19.000Z</time>
      </trkpt>
      <trkpt lat="47.09696" lon="-1.82151">
        <ele>69</ele>
        <time>2021-09-04T08:10:21.000Z</time>
      </trkpt>
      <trkpt lat="47.09698" lon="-1.82168">
        <ele>69</ele>
        <time>2021-09-04T08:10:23.000Z</time>
      </trkpt>
      <trkpt lat="47.09705" lon="-1.82184">
        <ele>69</ele>
        <time>2021-09-04T08:10:25.000Z</time>
      </trkpt>
      <trkpt lat="47.09712" lon="-1.82199">
        <ele>69</ele>
        <time>2021-09-04T08:10:27.000Z</time>
      </trkpt>
      <trkpt lat="47.09719" lon="-1.82214">
        <ele>69</ele>
        <time>2021-09-04T08:10:29.000Z</time>
      </trkpt>
      <trkpt lat="47.09726" lon="-1.82228">
        <ele>69</ele>
        <time>2021-09-04T08:10:31.000Z</time>
      </trkpt>
      <trkpt lat="47.09733" lon="-1.82243">
        <ele>69</ele>
        <time>2021-09-04T08:10:33.000Z</time>
      </trkpt>
      <trkpt lat="47.0974" lon="-1.82259">
        <ele>69</ele>
        <time>2021-09-04T08:10:35.000Z</time>
      </trkpt>
      <trkpt lat="47.09747" lon="-1.82275">
        <ele>68</ele>
        <time>2021-09-04T08:10:37.000Z</time>
      </trkpt>
      <trkpt lat="47.09754" lon="-1.82291">
        <ele>68</ele>
        <time>2021-09-04T08:10:39.000Z</time>
      </trkpt>
      <trkpt lat="47.0976" lon="-1.82308">
        <ele>68</ele>
        <time>2021-09-04T08:10:41.000Z</time>
      </trkpt>
      <trkpt lat="47.09767" lon="-1.82324">
        <ele>68</ele>
        <time>2021-09-04T08:10:43.000Z</time>
      </trkpt>
      <trkpt lat="47.09773" lon="-1.8234">
        <ele>68</ele>
        <time>2021-09-04T08:10:45.000Z</time>
      </trkpt>
      <trkpt lat="47.09779" lon="-1.82357">
        <ele>68</ele>
        <time>2021-09-04T08:10:47.000Z</time>
      </trkpt>
      <trkpt lat="47.09784" lon="-1.82373">
        <ele>68</ele>
        <time>2021-09-04T08:10:49.000Z</time>
      </trkpt>
      <trkpt lat="47.09788" lon="-1.82391">
        <ele>68</ele>
        <time>2021-09-04T08:10:51.000Z</time>
      </trkpt>
      <trkpt lat="47.09792" lon="-1.82409">
        <ele>68</ele>
        <time>2021-09-04T08:10:53.000Z</time>
      </trkpt>
      <trkpt lat="47.09794" lon="-1.82427">
        <ele>68</ele>
        <time>2021-09-04T08:10:55.000Z</time>
      </trkpt>
      <trkpt lat="47.09796" lon="-1.82445">
        <ele>68</ele>
        <time>2021-09-04T08:10:57.000Z</time>
      </trkpt>
      <trkpt lat="47.09798" lon="-1.82463">
        <ele>68</ele>
        <time>2021-09-04T08:10:59.000Z</time>
      </trkpt>
      <trkpt lat="47.098" lon="-1.82481">
        <ele>68</ele>
        <time>2021-09-04T08:11:01.000Z</time>
      </trkpt>
      <trkpt lat="47.09803" lon="-1.82498">
        <ele>68</ele>
        <time>2021-09-04T08:11:03.000Z</time>
      </trkpt>
      <trkpt lat="47.09804" lon="-1.82516">
        <ele>68</ele>
        <time>2021-09-04T08:11:05.000Z</time>
      </trkpt>
      <trkpt lat="47.09806" lon="-1.82535">
        <ele>68</ele>
        <time>2021-09-04T08:11:07.000Z</time>
      </trkpt>
      <trkpt lat="47.09809" lon="-1.82553">
        <ele>67</ele>
        <time>2021-09-04T08:11:09.000Z</time>
      </trkpt>
      <trkpt lat="47.09811" lon="-1.82571">
        <ele>67</ele>
        <time>2021-09-04T08:11:11.000Z</time>
      </trkpt>
      <trkpt lat="47.09814" lon="-1.82589">
        <ele>67</ele>
        <time>2021-09-04T08:11:13.000Z</time>
      </trkpt>
      <trkpt lat="47.09817" lon="-1.82607">
        <ele>67</ele>
        <time>2021-09-04T08:11:15.000Z</time>
      </trkpt>
      <trkpt lat="47.0982" lon="-1.82625">
        <ele>68</ele>
        <time>2021-09-04T08:11:17.000Z</time>
      </trkpt>
      <trkpt lat="47.09824" lon="-1.82643">
        <ele>68</ele>
        <time>2021-09-04T08:11:19.000Z</time>
      </trkpt>
      <trkpt lat="47.09828" lon="-1.82661">
        <ele>68</ele>
        <time>2021-09-04T08:11:21.000Z</time>
      </trkpt>
      <trkpt lat="47.09832" lon="-1.82679">
        <ele>68</ele>
        <time>2021-09-04T08:11:23.000Z</time>
      </trkpt>
      <trkpt lat="47.09835" lon="-1.82696">
        <ele>68</ele>
        <time>2021-09-04T08:11:25.000Z</time>
      </trkpt>
      <trkpt lat="47.09839" lon="-1.82713">
        <ele>68</ele>
        <time>2021-09-04T08:11:27.000Z</time>
      </trkpt>
      <trkpt lat="47.09843" lon="-1.8273">
        <ele>68</ele>
        <time>2021-09-04T08:11:29.000Z</time>
      </trkpt>
      <trkpt lat="47.09847" lon="-1.82746">
        <ele>69</ele>
        <time>2021-09-04T08:11:31.000Z</time>
      </trkpt>
      <trkpt lat="47.0985" lon="-1.82764">
        <ele>69</ele>
        <time>2021-09-04T08:11:33.000Z</time>
      </trkpt>
      <trkpt lat="47.09851" lon="-1.82782">
        <ele>69</ele>
        <time>2021-09-04T08:11:35.000Z</time>
      </trkpt>
      <trkpt lat="47.09851" lon="-1.82801">
        <ele>69</ele>
        <time>2021-09-04T08:11:37.000Z</time>
      </trkpt>
      <trkpt lat="47.0985" lon="-1.8282">
        <ele>68</ele>
        <time>2021-09-04T08:11:39.000Z</time>
      </trkpt>
      <trkpt lat="47.0985" lon="-1.82839">
        <ele>68</ele>
        <time>2021-09-04T08:11:41.000Z</time>
      </trkpt>
      <trkpt lat="47.0985" lon="-1.82858">
        <ele>68</ele>
        <time>2021-09-04T08:11:43.000Z</time>
      </trkpt>
      <trkpt lat="47.09851" lon="-1.82877">
        <ele>68</ele>
        <time>2021-09-04T08:11:45.000Z</time>
      </trkpt>
      <trkpt lat="47.09853" lon="-1.82896">
        <ele>68</ele>
        <time>2021-09-04T08:11:47.000Z</time>
      </trkpt>
      <trkpt lat="47.09855" lon="-1.82915">
        <ele>68</ele>
        <time>2021-09-04T08:11:49.000Z</time>
      </trkpt>
      <trkpt lat="47.09856" lon="-1.82934">
        <ele>68</ele>
        <time>2021-09-04T08:11:51.000Z</time>
      </trkpt>
      <trkpt lat="47.09858" lon="-1.82953">
        <ele>68</ele>
        <time>2021-09-04T08:11:53.000Z</time>
      </trkpt>
      <trkpt lat="47.0986" lon="-1.82971">
        <ele>68</ele>
        <time>2021-09-04T08:11:55.000Z</time>
      </trkpt>
      <trkpt lat="47.09863" lon="-1.82991">
        <ele>67</ele>
        <time>2021-09-04T08:11:57.000Z</time>
      </trkpt>
      <trkpt lat="47.09864" lon="-1.8301">
        <ele>67</ele>
        <time>2021-09-04T08:11:59.000Z</time>
      </trkpt>
      <trkpt lat="47.09866" lon="-1.83029">
        <ele>67</ele>
        <time>2021-09-04T08:12:01.000Z</time>
      </trkpt>
      <trkpt lat="47.09868" lon="-1.83048">
        <ele>67</ele>
        <time>2021-09-04T08:12:03.000Z</time>
      </trkpt>
      <trkpt lat="47.0987" lon="-1.83068">
        <ele>67</ele>
        <time>2021-09-04T08:12:05.000Z</time>
      </trkpt>
      <trkpt lat="47.09871" lon="-1.83087">
        <ele>67</ele>
        <time>2021-09-04T08:12:07.000Z</time>
      </trkpt>
      <trkpt lat="47.09873" lon="-1.83106">
        <ele>66</ele>
        <time>2021-09-04T08:12:09.000Z</time>
      </trkpt>
      <trkpt lat="47.09875" lon="-1.83126">
        <ele>66</ele>
        <time>2021-09-04T08:12:11.000Z</time>
      </trkpt>
      <trkpt lat="47.09877" lon="-1.83146">
        <ele>66</ele>
        <time>2021-09-04T08:12:13.000Z</time>
      </trkpt>
      <trkpt lat="47.09879" lon="-1.83165">
        <ele>65</ele>
        <time>2021-09-04T08:12:15.000Z</time>
      </trkpt>
      <trkpt lat="47.09881" lon="-1.83185">
        <ele>65</ele>
        <time>2021-09-04T08:12:17.000Z</time>
      </trkpt>
      <trkpt lat="47.09883" lon="-1.83205">
        <ele>65</ele>
        <time>2021-09-04T08:12:19.000Z</time>
      </trkpt>
      <trkpt lat="47.09884" lon="-1.83225">
        <ele>64</ele>
        <time>2021-09-04T08:12:21.000Z</time>
      </trkpt>
      <trkpt lat="47.09884" lon="-1.83246">
        <ele>64</ele>
        <time>2021-09-04T08:12:23.000Z</time>
      </trkpt>
      <trkpt lat="47.09884" lon="-1.83267">
        <ele>64</ele>
        <time>2021-09-04T08:12:25.000Z</time>
      </trkpt>
      <trkpt lat="47.09883" lon="-1.83288">
        <ele>63</ele>
        <time>2021-09-04T08:12:27.000Z</time>
      </trkpt>
      <trkpt lat="47.0988" lon="-1.83309">
        <ele>63</ele>
        <time>2021-09-04T08:12:29.000Z</time>
      </trkpt>
      <trkpt lat="47.09877" lon="-1.8333">
        <ele>63</ele>
        <time>2021-09-04T08:12:31.000Z</time>
      </trkpt>
      <trkpt lat="47.09874" lon="-1.83351">
        <ele>63</ele>
        <time>2021-09-04T08:12:33.000Z</time>
      </trkpt>
      <trkpt lat="47.0987" lon="-1.83371">
        <ele>63</ele>
        <time>2021-09-04T08:12:35.000Z</time>
      </trkpt>
      <trkpt lat="47.09866" lon="-1.8339">
        <ele>63</ele>
        <time>2021-09-04T08:12:37.000Z</time>
      </trkpt>
      <trkpt lat="47.09861" lon="-1.8341">
        <ele>64</ele>
        <time>2021-09-04T08:12:39.000Z</time>
      </trkpt>
      <trkpt lat="47.09857" lon="-1.8343">
        <ele>64</ele>
        <time>2021-09-04T08:12:41.000Z</time>
      </trkpt>
      <trkpt lat="47.09855" lon="-1.83451">
        <ele>65</ele>
        <time>2021-09-04T08:12:43.000Z</time>
      </trkpt>
      <trkpt lat="47.09854" lon="-1.83473">
        <ele>65</ele>
        <time>2021-09-04T08:12:45.000Z</time>
      </trkpt>
      <trkpt lat="47.09854" lon="-1.83494">
        <ele>64</ele>
        <time>2021-09-04T08:12:47.000Z</time>
      </trkpt>
      <trkpt lat="47.09855" lon="-1.83514">
        <ele>64</ele>
        <time>2021-09-04T08:12:49.000Z</time>
      </trkpt>
      <trkpt lat="47.09856" lon="-1.83534">
        <ele>63</ele>
        <time>2021-09-04T08:12:51.000Z</time>
      </trkpt>
      <trkpt lat="47.09858" lon="-1.83554">
        <ele>62</ele>
        <time>2021-09-04T08:12:53.000Z</time>
      </trkpt>
      <trkpt lat="47.0986" lon="-1.83574">
        <ele>62</ele>
        <time>2021-09-04T08:12:55.000Z</time>
      </trkpt>
      <trkpt lat="47.09862" lon="-1.83593">
        <ele>62</ele>
        <time>2021-09-04T08:12:57.000Z</time>
      </trkpt>
      <trkpt lat="47.09863" lon="-1.83612">
        <ele>62</ele>
        <time>2021-09-04T08:12:59.000Z</time>
      </trkpt>
      <trkpt lat="47.09864" lon="-1.83631">
        <ele>62</ele>
        <time>2021-09-04T08:13:01.000Z</time>
      </trkpt>
      <trkpt lat="47.09864" lon="-1.8365">
        <ele>62</ele>
        <time>2021-09-04T08:13:03.000Z</time>
      </trkpt>
      <trkpt lat="47.09863" lon="-1.83669">
        <ele>62</ele>
        <time>2021-09-04T08:13:05.000Z</time>
      </trkpt>
      <trkpt lat="47.09863" lon="-1.83687">
        <ele>62</ele>
        <time>2021-09-04T08:13:07.000Z</time>
      </trkpt>
      <trkpt lat="47.09863" lon="-1.83706">
        <ele>62</ele>
        <time>2021-09-04T08:13:09.000Z</time>
      </trkpt>
      <trkpt lat="47.09862" lon="-1.83724">
        <ele>62</ele>
        <time>2021-09-04T08:13:11.000Z</time>
      </trkpt>
      <trkpt lat="47.09861" lon="-1.83742">
        <ele>63</ele>
        <time>2021-09-04T08:13:13.000Z</time>
      </trkpt>
      <trkpt lat="47.09861" lon="-1.8376">
        <ele>63</ele>
        <time>2021-09-04T08:13:15.000Z</time>
      </trkpt>
      <trkpt lat="47.0986" lon="-1.83778">
        <ele>62</ele>
        <time>2021-09-04T08:13:17.000Z</time>
      </trkpt>
      <trkpt lat="47.0986" lon="-1.83796">
        <ele>63</ele>
        <time>2021-09-04T08:13:19.000Z</time>
      </trkpt>
      <trkpt lat="47.0986" lon="-1.83813">
        <ele>63</ele>
        <time>2021-09-04T08:13:21.000Z</time>
      </trkpt>
      <trkpt lat="47.09859" lon="-1.8383">
        <ele>63</ele>
        <time>2021-09-04T08:13:23.000Z</time>
      </trkpt>
      <trkpt lat="47.09858" lon="-1.83848">
        <ele>63</ele>
        <time>2021-09-04T08:13:25.000Z</time>
      </trkpt>
      <trkpt lat="47.09857" lon="-1.83865">
        <ele>64</ele>
        <time>2021-09-04T08:13:27.000Z</time>
      </trkpt>
      <trkpt lat="47.09856" lon="-1.83883">
        <ele>63</ele>
        <time>2021-09-04T08:13:29.000Z</time>
      </trkpt>
      <trkpt lat="47.09854" lon="-1.83901">
        <ele>63</ele>
        <time>2021-09-04T08:13:31.000Z</time>
      </trkpt>
      <trkpt lat="47.09853" lon="-1.83918">
        <ele>63</ele>
        <time>2021-09-04T08:13:33.000Z</time>
      </trkpt>
      <trkpt lat="47.09852" lon="-1.83936">
        <ele>63</ele>
        <time>2021-09-04T08:13:35.000Z</time>
      </trkpt>
      <trkpt lat="47.09852" lon="-1.83954">
        <ele>63</ele>
        <time>2021-09-04T08:13:37.000Z</time>
      </trkpt>
      <trkpt lat="47.09852" lon="-1.83971">
        <ele>64</ele>
        <time>2021-09-04T08:13:39.000Z</time>
      </trkpt>
      <trkpt lat="47.09853" lon="-1.83989">
        <ele>64</ele>
        <time>2021-09-04T08:13:41.000Z</time>
      </trkpt>
      <trkpt lat="47.09854" lon="-1.84006">
        <ele>64</ele>
        <time>2021-09-04T08:13:43.000Z</time>
      </trkpt>
      <trkpt lat="47.09856" lon="-1.84023">
        <ele>64</ele>
        <time>2021-09-04T08:13:45.000Z</time>
      </trkpt>
      <trkpt lat="47.09859" lon="-1.84039">
        <ele>64</ele>
        <time>2021-09-04T08:13:47.000Z</time>
      </trkpt>
      <trkpt lat="47.09861" lon="-1.84056">
        <ele>64</ele>
        <time>2021-09-04T08:13:49.000Z</time>
      </trkpt>
      <trkpt lat="47.09864" lon="-1.84072">
        <ele>65</ele>
        <time>2021-09-04T08:13:51.000Z</time>
      </trkpt>
      <trkpt lat="47.09867" lon="-1.84089">
        <ele>65</ele>
        <time>2021-09-04T08:13:53.000Z</time>
      </trkpt>
      <trkpt lat="47.0987" lon="-1.84106">
        <ele>65</ele>
        <time>2021-09-04T08:13:55.000Z</time>
      </trkpt>
      <trkpt lat="47.09873" lon="-1.84123">
        <ele>66</ele>
        <time>2021-09-04T08:13:57.000Z</time>
      </trkpt>
      <trkpt lat="47.09876" lon="-1.8414">
        <ele>66</ele>
        <time>2021-09-04T08:13:59.000Z</time>
      </trkpt>
      <trkpt lat="47.09878" lon="-1.84156">
        <ele>67</ele>
        <time>2021-09-04T08:14:01.000Z</time>
      </trkpt>
      <trkpt lat="47.09881" lon="-1.84172">
        <ele>67</ele>
        <time>2021-09-04T08:14:03.000Z</time>
      </trkpt>
      <trkpt lat="47.09883" lon="-1.84189">
        <ele>68</ele>
        <time>2021-09-04T08:14:05.000Z</time>
      </trkpt>
      <trkpt lat="47.09885" lon="-1.84206">
        <ele>68</ele>
        <time>2021-09-04T08:14:07.000Z</time>
      </trkpt>
      <trkpt lat="47.09888" lon="-1.84223">
        <ele>68</ele>
        <time>2021-09-04T08:14:09.000Z</time>
      </trkpt>
      <trkpt lat="47.0989" lon="-1.84241">
        <ele>68</ele>
        <time>2021-09-04T08:14:11.000Z</time>
      </trkpt>
      <trkpt lat="47.09891" lon="-1.84259">
        <ele>68</ele>
        <time>2021-09-04T08:14:13.000Z</time>
      </trkpt>
      <trkpt lat="47.09892" lon="-1.84277">
        <ele>68</ele>
        <time>2021-09-04T08:14:15.000Z</time>
      </trkpt>
      <trkpt lat="47.09893" lon="-1.84295">
        <ele>69</ele>
        <time>2021-09-04T08:14:17.000Z</time>
      </trkpt>
      <trkpt lat="47.09892" lon="-1.84313">
        <ele>69</ele>
        <time>2021-09-04T08:14:19.000Z</time>
      </trkpt>
      <trkpt lat="47.09891" lon="-1.8433">
        <ele>69</ele>
        <time>2021-09-04T08:14:21.000Z</time>
      </trkpt>
      <trkpt lat="47.09891" lon="-1.84348">
        <ele>69</ele>
        <time>2021-09-04T08:14:23.000Z</time>
      </trkpt>
      <trkpt lat="47.0989" lon="-1.84366">
        <ele>70</ele>
        <time>2021-09-04T08:14:25.000Z</time>
      </trkpt>
      <trkpt lat="47.0989" lon="-1.84383">
        <ele>70</ele>
        <time>2021-09-04T08:14:27.000Z</time>
      </trkpt>
      <trkpt lat="47.09889" lon="-1.84401">
        <ele>70</ele>
        <time>2021-09-04T08:14:29.000Z</time>
      </trkpt>
      <trkpt lat="47.0989" lon="-1.84418">
        <ele>70</ele>
        <time>2021-09-04T08:14:31.000Z</time>
      </trkpt>
      <trkpt lat="47.0989" lon="-1.84436">
        <ele>70</ele>
        <time>2021-09-04T08:14:33.000Z</time>
      </trkpt>
      <trkpt lat="47.09891" lon="-1.84454">
        <ele>70</ele>
        <time>2021-09-04T08:14:35.000Z</time>
      </trkpt>
      <trkpt lat="47.09892" lon="-1.84471">
        <ele>70</ele>
        <time>2021-09-04T08:14:37.000Z</time>
      </trkpt>
      <trkpt lat="47.09894" lon="-1.84489">
        <ele>70</ele>
        <time>2021-09-04T08:14:39.000Z</time>
      </trkpt>
      <trkpt lat="47.09896" lon="-1.84506">
        <ele>71</ele>
        <time>2021-09-04T08:14:41.000Z</time>
      </trkpt>
      <trkpt lat="47.09899" lon="-1.84523">
        <ele>71</ele>
        <time>2021-09-04T08:14:43.000Z</time>
      </trkpt>
      <trkpt lat="47.09901" lon="-1.84541">
        <ele>71</ele>
        <time>2021-09-04T08:14:45.000Z</time>
      </trkpt>
      <trkpt lat="47.09903" lon="-1.84559">
        <ele>71</ele>
        <time>2021-09-04T08:14:47.000Z</time>
      </trkpt>
      <trkpt lat="47.09904" lon="-1.84577">
        <ele>71</ele>
        <time>2021-09-04T08:14:49.000Z</time>
      </trkpt>
      <trkpt lat="47.09905" lon="-1.84596">
        <ele>71</ele>
        <time>2021-09-04T08:14:51.000Z</time>
      </trkpt>
      <trkpt lat="47.09906" lon="-1.84613">
        <ele>71</ele>
        <time>2021-09-04T08:14:53.000Z</time>
      </trkpt>
      <trkpt lat="47.09908" lon="-1.84632">
        <ele>71</ele>
        <time>2021-09-04T08:14:55.000Z</time>
      </trkpt>
      <trkpt lat="47.09909" lon="-1.84651">
        <ele>70</ele>
        <time>2021-09-04T08:14:57.000Z</time>
      </trkpt>
      <trkpt lat="47.0991" lon="-1.8467">
        <ele>69</ele>
        <time>2021-09-04T08:14:59.000Z</time>
      </trkpt>
      <trkpt lat="47.0991" lon="-1.84689">
        <ele>69</ele>
        <time>2021-09-04T08:15:01.000Z</time>
      </trkpt>
      <trkpt lat="47.09912" lon="-1.84707">
        <ele>70</ele>
        <time>2021-09-04T08:15:03.000Z</time>
      </trkpt>
      <trkpt lat="47.09913" lon="-1.84726">
        <ele>70</ele>
        <time>2021-09-04T08:15:05.000Z</time>
      </trkpt>
      <trkpt lat="47.09914" lon="-1.84746">
        <ele>70</ele>
        <time>2021-09-04T08:15:07.000Z</time>
      </trkpt>
      <trkpt lat="47.09915" lon="-1.84767">
        <ele>70</ele>
        <time>2021-09-04T08:15:09.000Z</time>
      </trkpt>
      <trkpt lat="47.09916" lon="-1.84787">
        <ele>69</ele>
        <time>2021-09-04T08:15:11.000Z</time>
      </trkpt>
      <trkpt lat="47.09917" lon="-1.84808">
        <ele>69</ele>
        <time>2021-09-04T08:15:13.000Z</time>
      </trkpt>
      <trkpt lat="47.09918" lon="-1.84829">
        <ele>68</ele>
        <time>2021-09-04T08:15:15.000Z</time>
      </trkpt>
      <trkpt lat="47.0992" lon="-1.8485">
        <ele>68</ele>
        <time>2021-09-04T08:15:17.000Z</time>
      </trkpt>
      <trkpt lat="47.09921" lon="-1.8487">
        <ele>67</ele>
        <time>2021-09-04T08:15:19.000Z</time>
      </trkpt>
      <trkpt lat="47.09922" lon="-1.8489">
        <ele>67</ele>
        <time>2021-09-04T08:15:21.000Z</time>
      </trkpt>
      <trkpt lat="47.09922" lon="-1.8491">
        <ele>67</ele>
        <time>2021-09-04T08:15:23.000Z</time>
      </trkpt>
      <trkpt lat="47.09924" lon="-1.8493">
        <ele>66</ele>
        <time>2021-09-04T08:15:25.000Z</time>
      </trkpt>
      <trkpt lat="47.09924" lon="-1.84949">
        <ele>66</ele>
        <time>2021-09-04T08:15:27.000Z</time>
      </trkpt>
      <trkpt lat="47.09925" lon="-1.84968">
        <ele>66</ele>
        <time>2021-09-04T08:15:29.000Z</time>
      </trkpt>
      <trkpt lat="47.09924" lon="-1.84988">
        <ele>66</ele>
        <time>2021-09-04T08:15:31.000Z</time>
      </trkpt>
      <trkpt lat="47.09923" lon="-1.85008">
        <ele>66</ele>
        <time>2021-09-04T08:15:33.000Z</time>
      </trkpt>
      <trkpt lat="47.09922" lon="-1.85027">
        <ele>66</ele>
        <time>2021-09-04T08:15:35.000Z</time>
      </trkpt>
      <trkpt lat="47.09922" lon="-1.85046">
        <ele>65</ele>
        <time>2021-09-04T08:15:37.000Z</time>
      </trkpt>
      <trkpt lat="47.09922" lon="-1.85066">
        <ele>66</ele>
        <time>2021-09-04T08:15:39.000Z</time>
      </trkpt>
      <trkpt lat="47.09921" lon="-1.85085">
        <ele>66</ele>
        <time>2021-09-04T08:15:41.000Z</time>
      </trkpt>
      <trkpt lat="47.0992" lon="-1.85104">
        <ele>65</ele>
        <time>2021-09-04T08:15:43.000Z</time>
      </trkpt>
      <trkpt lat="47.0992" lon="-1.85123">
        <ele>65</ele>
        <time>2021-09-04T08:15:45.000Z</time>
      </trkpt>
      <trkpt lat="47.0992" lon="-1.85142">
        <ele>65</ele>
        <time>2021-09-04T08:15:47.000Z</time>
      </trkpt>
      <trkpt lat="47.09921" lon="-1.85162">
        <ele>64</ele>
        <time>2021-09-04T08:15:49.000Z</time>
      </trkpt>
      <trkpt lat="47.09923" lon="-1.85181">
        <ele>64</ele>
        <time>2021-09-04T08:15:51.000Z</time>
      </trkpt>
      <trkpt lat="47.09925" lon="-1.852">
        <ele>64</ele>
        <time>2021-09-04T08:15:53.000Z</time>
      </trkpt>
      <trkpt lat="47.09927" lon="-1.8522">
        <ele>63</ele>
        <time>2021-09-04T08:15:55.000Z</time>
      </trkpt>
      <trkpt lat="47.0993" lon="-1.85241">
        <ele>63</ele>
        <time>2021-09-04T08:15:57.000Z</time>
      </trkpt>
      <trkpt lat="47.09932" lon="-1.85262">
        <ele>63</ele>
        <time>2021-09-04T08:15:59.000Z</time>
      </trkpt>
      <trkpt lat="47.09933" lon="-1.85285">
        <ele>62</ele>
        <time>2021-09-04T08:16:01.000Z</time>
      </trkpt>
      <trkpt lat="47.09934" lon="-1.85308">
        <ele>61</ele>
        <time>2021-09-04T08:16:03.000Z</time>
      </trkpt>
      <trkpt lat="47.09936" lon="-1.8533">
        <ele>61</ele>
        <time>2021-09-04T08:16:05.000Z</time>
      </trkpt>
      <trkpt lat="47.0994" lon="-1.85352">
        <ele>61</ele>
        <time>2021-09-04T08:16:07.000Z</time>
      </trkpt>
      <trkpt lat="47.09947" lon="-1.85372">
        <ele>60</ele>
        <time>2021-09-04T08:16:09.000Z</time>
      </trkpt>
      <trkpt lat="47.09955" lon="-1.85391">
        <ele>61</ele>
        <time>2021-09-04T08:16:11.000Z</time>
      </trkpt>
      <trkpt lat="47.09966" lon="-1.85407">
        <ele>61</ele>
        <time>2021-09-04T08:16:13.000Z</time>
      </trkpt>
      <trkpt lat="47.09977" lon="-1.85421">
        <ele>61</ele>
        <time>2021-09-04T08:16:15.000Z</time>
      </trkpt>
      <trkpt lat="47.09988" lon="-1.85435">
        <ele>61</ele>
        <time>2021-09-04T08:16:17.000Z</time>
      </trkpt>
      <trkpt lat="47.09999" lon="-1.8545">
        <ele>61</ele>
        <time>2021-09-04T08:16:19.000Z</time>
      </trkpt>
      <trkpt lat="47.1001" lon="-1.85464">
        <ele>61</ele>
        <time>2021-09-04T08:16:21.000Z</time>
      </trkpt>
      <trkpt lat="47.10021" lon="-1.85479">
        <ele>61</ele>
        <time>2021-09-04T08:16:23.000Z</time>
      </trkpt>
      <trkpt lat="47.10031" lon="-1.85491">
        <ele>62</ele>
        <time>2021-09-04T08:16:25.000Z</time>
      </trkpt>
      <trkpt lat="47.1004" lon="-1.85502">
        <ele>62</ele>
        <time>2021-09-04T08:16:27.000Z</time>
      </trkpt>
      <trkpt lat="47.10048" lon="-1.85515">
        <ele>62</ele>
        <time>2021-09-04T08:16:29.000Z</time>
      </trkpt>
      <trkpt lat="47.10057" lon="-1.85527">
        <ele>63</ele>
        <time>2021-09-04T08:16:31.000Z</time>
      </trkpt>
      <trkpt lat="47.10064" lon="-1.85541">
        <ele>63</ele>
        <time>2021-09-04T08:16:33.000Z</time>
      </trkpt>
      <trkpt lat="47.1007" lon="-1.85555">
        <ele>64</ele>
        <time>2021-09-04T08:16:35.000Z</time>
      </trkpt>
      <trkpt lat="47.10075" lon="-1.85571">
        <ele>64</ele>
        <time>2021-09-04T08:16:37.000Z</time>
      </trkpt>
      <trkpt lat="47.10079" lon="-1.85587">
        <ele>65</ele>
        <time>2021-09-04T08:16:39.000Z</time>
      </trkpt>
      <trkpt lat="47.10082" lon="-1.85605">
        <ele>65</ele>
        <time>2021-09-04T08:16:41.000Z</time>
      </trkpt>
      <trkpt lat="47.10084" lon="-1.85623">
        <ele>65</ele>
        <time>2021-09-04T08:16:43.000Z</time>
      </trkpt>
      <trkpt lat="47.10086" lon="-1.85641">
        <ele>65</ele>
        <time>2021-09-04T08:16:45.000Z</time>
      </trkpt>
      <trkpt lat="47.10087" lon="-1.85659">
        <ele>65</ele>
        <time>2021-09-04T08:16:47.000Z</time>
      </trkpt>
      <trkpt lat="47.10088" lon="-1.85678">
        <ele>65</ele>
        <time>2021-09-04T08:16:49.000Z</time>
      </trkpt>
      <trkpt lat="47.1009" lon="-1.85697">
        <ele>65</ele>
        <time>2021-09-04T08:16:51.000Z</time>
      </trkpt>
      <trkpt lat="47.10091" lon="-1.85715">
        <ele>66</ele>
        <time>2021-09-04T08:16:53.000Z</time>
      </trkpt>
      <trkpt lat="47.10093" lon="-1.85734">
        <ele>66</ele>
        <time>2021-09-04T08:16:55.000Z</time>
      </trkpt>
      <trkpt lat="47.10094" lon="-1.85753">
        <ele>66</ele>
        <time>2021-09-04T08:16:57.000Z</time>
      </trkpt>
      <trkpt lat="47.10097" lon="-1.85772">
        <ele>66</ele>
        <time>2021-09-04T08:16:59.000Z</time>
      </trkpt>
      <trkpt lat="47.10099" lon="-1.85791">
        <ele>66</ele>
        <time>2021-09-04T08:17:01.000Z</time>
      </trkpt>
      <trkpt lat="47.10101" lon="-1.85809">
        <ele>66</ele>
        <time>2021-09-04T08:17:03.000Z</time>
      </trkpt>
      <trkpt lat="47.10103" lon="-1.85827">
        <ele>66</ele>
        <time>2021-09-04T08:17:05.000Z</time>
      </trkpt>
      <trkpt lat="47.10111" lon="-1.85843">
        <ele>66</ele>
        <time>2021-09-04T08:17:07.000Z</time>
      </trkpt>
      <trkpt lat="47.10118" lon="-1.85858">
        <ele>66</ele>
        <time>2021-09-04T08:17:09.000Z</time>
      </trkpt>
      <trkpt lat="47.10125" lon="-1.85873">
        <ele>66</ele>
        <time>2021-09-04T08:17:11.000Z</time>
      </trkpt>
      <trkpt lat="47.10131" lon="-1.85888">
        <ele>66</ele>
        <time>2021-09-04T08:17:13.000Z</time>
      </trkpt>
      <trkpt lat="47.10138" lon="-1.85903">
        <ele>66</ele>
        <time>2021-09-04T08:17:15.000Z</time>
      </trkpt>
      <trkpt lat="47.10145" lon="-1.85918">
        <ele>66</ele>
        <time>2021-09-04T08:17:17.000Z</time>
      </trkpt>
      <trkpt lat="47.10152" lon="-1.85933">
        <ele>66</ele>
        <time>2021-09-04T08:17:19.000Z</time>
      </trkpt>
      <trkpt lat="47.10158" lon="-1.85948">
        <ele>66</ele>
        <time>2021-09-04T08:17:21.000Z</time>
      </trkpt>
      <trkpt lat="47.10165" lon="-1.85963">
        <ele>66</ele>
        <time>2021-09-04T08:17:23.000Z</time>
      </trkpt>
      <trkpt lat="47.10171" lon="-1.85979">
        <ele>66</ele>
        <time>2021-09-04T08:17:25.000Z</time>
      </trkpt>
      <trkpt lat="47.10176" lon="-1.85996">
        <ele>65</ele>
        <time>2021-09-04T08:17:27.000Z</time>
      </trkpt>
      <trkpt lat="47.10183" lon="-1.86014">
        <ele>64</ele>
        <time>2021-09-04T08:17:29.000Z</time>
      </trkpt>
      <trkpt lat="47.1019" lon="-1.86033">
        <ele>64</ele>
        <time>2021-09-04T08:17:31.000Z</time>
      </trkpt>
      <trkpt lat="47.10197" lon="-1.86051">
        <ele>63</ele>
        <time>2021-09-04T08:17:33.000Z</time>
      </trkpt>
      <trkpt lat="47.10204" lon="-1.86069">
        <ele>63</ele>
        <time>2021-09-04T08:17:35.000Z</time>
      </trkpt>
      <trkpt lat="47.1021" lon="-1.86088">
        <ele>63</ele>
        <time>2021-09-04T08:17:37.000Z</time>
      </trkpt>
      <trkpt lat="47.10217" lon="-1.86105">
        <ele>63</ele>
        <time>2021-09-04T08:17:39.000Z</time>
      </trkpt>
      <trkpt lat="47.10223" lon="-1.86122">
        <ele>63</ele>
        <time>2021-09-04T08:17:41.000Z</time>
      </trkpt>
      <trkpt lat="47.1023" lon="-1.86139">
        <ele>63</ele>
        <time>2021-09-04T08:17:43.000Z</time>
      </trkpt>
      <trkpt lat="47.10236" lon="-1.86155">
        <ele>63</ele>
        <time>2021-09-04T08:17:45.000Z</time>
      </trkpt>
      <trkpt lat="47.10242" lon="-1.86172">
        <ele>62</ele>
        <time>2021-09-04T08:17:47.000Z</time>
      </trkpt>
      <trkpt lat="47.10247" lon="-1.86189">
        <ele>62</ele>
        <time>2021-09-04T08:17:49.000Z</time>
      </trkpt>
      <trkpt lat="47.10254" lon="-1.86206">
        <ele>62</ele>
        <time>2021-09-04T08:17:51.000Z</time>
      </trkpt>
      <trkpt lat="47.10261" lon="-1.86223">
        <ele>62</ele>
        <time>2021-09-04T08:17:53.000Z</time>
      </trkpt>
      <trkpt lat="47.10268" lon="-1.8624">
        <ele>62</ele>
        <time>2021-09-04T08:17:55.000Z</time>
      </trkpt>
      <trkpt lat="47.10275" lon="-1.86256">
        <ele>61</ele>
        <time>2021-09-04T08:17:57.000Z</time>
      </trkpt>
      <trkpt lat="47.10282" lon="-1.86273">
        <ele>61</ele>
        <time>2021-09-04T08:17:59.000Z</time>
      </trkpt>
      <trkpt lat="47.10288" lon="-1.8629">
        <ele>61</ele>
        <time>2021-09-04T08:18:01.000Z</time>
      </trkpt>
      <trkpt lat="47.10292" lon="-1.86308">
        <ele>61</ele>
        <time>2021-09-04T08:18:03.000Z</time>
      </trkpt>
      <trkpt lat="47.10296" lon="-1.86327">
        <ele>61</ele>
        <time>2021-09-04T08:18:05.000Z</time>
      </trkpt>
      <trkpt lat="47.103" lon="-1.86345">
        <ele>61</ele>
        <time>2021-09-04T08:18:07.000Z</time>
      </trkpt>
      <trkpt lat="47.10304" lon="-1.86363">
        <ele>60</ele>
        <time>2021-09-04T08:18:09.000Z</time>
      </trkpt>
      <trkpt lat="47.10306" lon="-1.86381">
        <ele>60</ele>
        <time>2021-09-04T08:18:11.000Z</time>
      </trkpt>
      <trkpt lat="47.10309" lon="-1.864">
        <ele>61</ele>
        <time>2021-09-04T08:18:13.000Z</time>
      </trkpt>
      <trkpt lat="47.1031" lon="-1.86418">
        <ele>61</ele>
        <time>2021-09-04T08:18:15.000Z</time>
      </trkpt>
      <trkpt lat="47.10314" lon="-1.86436">
        <ele>62</ele>
        <time>2021-09-04T08:18:17.000Z</time>
      </trkpt>
      <trkpt lat="47.1032" lon="-1.86451">
        <ele>62</ele>
        <time>2021-09-04T08:18:19.000Z</time>
      </trkpt>
      <trkpt lat="47.10328" lon="-1.86465">
        <ele>63</ele>
        <time>2021-09-04T08:18:21.000Z</time>
      </trkpt>
      <trkpt lat="47.10334" lon="-1.86478">
        <ele>63</ele>
        <time>2021-09-04T08:18:23.000Z</time>
      </trkpt>
      <trkpt lat="47.1034" lon="-1.86493">
        <ele>63</ele>
        <time>2021-09-04T08:18:25.000Z</time>
      </trkpt>
      <trkpt lat="47.10347" lon="-1.86507">
        <ele>64</ele>
        <time>2021-09-04T08:18:27.000Z</time>
      </trkpt>
      <trkpt lat="47.10353" lon="-1.86521">
        <ele>64</ele>
        <time>2021-09-04T08:18:29.000Z</time>
      </trkpt>
      <trkpt lat="47.10359" lon="-1.86536">
        <ele>64</ele>
        <time>2021-09-04T08:18:31.000Z</time>
      </trkpt>
      <trkpt lat="47.10363" lon="-1.86551">
        <ele>64</ele>
        <time>2021-09-04T08:18:33.000Z</time>
      </trkpt>
      <trkpt lat="47.10368" lon="-1.86567">
        <ele>64</ele>
        <time>2021-09-04T08:18:35.000Z</time>
      </trkpt>
      <trkpt lat="47.1037" lon="-1.86584">
        <ele>64</ele>
        <time>2021-09-04T08:18:37.000Z</time>
      </trkpt>
      <trkpt lat="47.10374" lon="-1.866">
        <ele>64</ele>
        <time>2021-09-04T08:18:39.000Z</time>
      </trkpt>
      <trkpt lat="47.1038" lon="-1.86616">
        <ele>64</ele>
        <time>2021-09-04T08:18:41.000Z</time>
      </trkpt>
      <trkpt lat="47.10385" lon="-1.86631">
        <ele>65</ele>
        <time>2021-09-04T08:18:43.000Z</time>
      </trkpt>
      <trkpt lat="47.10386" lon="-1.86648">
        <ele>65</ele>
        <time>2021-09-04T08:18:45.000Z</time>
      </trkpt>
      <trkpt lat="47.10384" lon="-1.86665">
        <ele>65</ele>
        <time>2021-09-04T08:18:47.000Z</time>
      </trkpt>
      <trkpt lat="47.10381" lon="-1.86682">
        <ele>65</ele>
        <time>2021-09-04T08:18:49.000Z</time>
      </trkpt>
      <trkpt lat="47.10383" lon="-1.867">
        <ele>65</ele>
        <time>2021-09-04T08:18:51.000Z</time>
      </trkpt>
      <trkpt lat="47.10386" lon="-1.86717">
        <ele>65</ele>
        <time>2021-09-04T08:18:53.000Z</time>
      </trkpt>
      <trkpt lat="47.10389" lon="-1.86734">
        <ele>65</ele>
        <time>2021-09-04T08:18:55.000Z</time>
      </trkpt>
      <trkpt lat="47.10393" lon="-1.86751">
        <ele>66</ele>
        <time>2021-09-04T08:18:57.000Z</time>
      </trkpt>
      <trkpt lat="47.10396" lon="-1.86769">
        <ele>66</ele>
        <time>2021-09-04T08:18:59.000Z</time>
      </trkpt>
      <trkpt lat="47.10399" lon="-1.86786">
        <ele>66</ele>
        <time>2021-09-04T08:19:01.000Z</time>
      </trkpt>
      <trkpt lat="47.10403" lon="-1.86804">
        <ele>66</ele>
        <time>2021-09-04T08:19:03.000Z</time>
      </trkpt>
      <trkpt lat="47.10406" lon="-1.86821">
        <ele>66</ele>
        <time>2021-09-04T08:19:05.000Z</time>
      </trkpt>
      <trkpt lat="47.10409" lon="-1.86839">
        <ele>66</ele>
        <time>2021-09-04T08:19:07.000Z</time>
      </trkpt>
      <trkpt lat="47.10413" lon="-1.86856">
        <ele>66</ele>
        <time>2021-09-04T08:19:09.000Z</time>
      </trkpt>
      <trkpt lat="47.10416" lon="-1.86872">
        <ele>66</ele>
        <time>2021-09-04T08:19:11.000Z</time>
      </trkpt>
      <trkpt lat="47.10419" lon="-1.8689">
        <ele>66</ele>
        <time>2021-09-04T08:19:13.000Z</time>
      </trkpt>
      <trkpt lat="47.10423" lon="-1.86907">
        <ele>66</ele>
        <time>2021-09-04T08:19:15.000Z</time>
      </trkpt>
      <trkpt lat="47.10426" lon="-1.86924">
        <ele>66</ele>
        <time>2021-09-04T08:19:17.000Z</time>
      </trkpt>
      <trkpt lat="47.1043" lon="-1.86942">
        <ele>66</ele>
        <time>2021-09-04T08:19:19.000Z</time>
      </trkpt>
      <trkpt lat="47.10433" lon="-1.86959">
        <ele>66</ele>
        <time>2021-09-04T08:19:21.000Z</time>
      </trkpt>
      <trkpt lat="47.10436" lon="-1.86976">
        <ele>66</ele>
        <time>2021-09-04T08:19:23.000Z</time>
      </trkpt>
      <trkpt lat="47.1044" lon="-1.86992">
        <ele>66</ele>
        <time>2021-09-04T08:19:25.000Z</time>
      </trkpt>
      <trkpt lat="47.10443" lon="-1.8701">
        <ele>66</ele>
        <time>2021-09-04T08:19:27.000Z</time>
      </trkpt>
      <trkpt lat="47.10446" lon="-1.87027">
        <ele>66</ele>
        <time>2021-09-04T08:19:29.000Z</time>
      </trkpt>
      <trkpt lat="47.1045" lon="-1.87045">
        <ele>66</ele>
        <time>2021-09-04T08:19:31.000Z</time>
      </trkpt>
      <trkpt lat="47.10453" lon="-1.87063">
        <ele>66</ele>
        <time>2021-09-04T08:19:33.000Z</time>
      </trkpt>
      <trkpt lat="47.10456" lon="-1.8708">
        <ele>65</ele>
        <time>2021-09-04T08:19:35.000Z</time>
      </trkpt>
      <trkpt lat="47.1046" lon="-1.87098">
        <ele>65</ele>
        <time>2021-09-04T08:19:37.000Z</time>
      </trkpt>
      <trkpt lat="47.10464" lon="-1.87115">
        <ele>65</ele>
        <time>2021-09-04T08:19:39.000Z</time>
      </trkpt>
      <trkpt lat="47.10468" lon="-1.87133">
        <ele>65</ele>
        <time>2021-09-04T08:19:41.000Z</time>
      </trkpt>
      <trkpt lat="47.10471" lon="-1.87151">
        <ele>64</ele>
        <time>2021-09-04T08:19:43.000Z</time>
      </trkpt>
      <trkpt lat="47.10476" lon="-1.87169">
        <ele>64</ele>
        <time>2021-09-04T08:19:45.000Z</time>
      </trkpt>
      <trkpt lat="47.10482" lon="-1.87187">
        <ele>64</ele>
        <time>2021-09-04T08:19:47.000Z</time>
      </trkpt>
      <trkpt lat="47.10489" lon="-1.87204">
        <ele>64</ele>
        <time>2021-09-04T08:19:49.000Z</time>
      </trkpt>
      <trkpt lat="47.10495" lon="-1.87222">
        <ele>64</ele>
        <time>2021-09-04T08:19:51.000Z</time>
      </trkpt>
      <trkpt lat="47.10499" lon="-1.87242">
        <ele>63</ele>
        <time>2021-09-04T08:19:53.000Z</time>
      </trkpt>
      <trkpt lat="47.10503" lon="-1.87261">
        <ele>63</ele>
        <time>2021-09-04T08:19:55.000Z</time>
      </trkpt>
      <trkpt lat="47.10507" lon="-1.8728">
        <ele>63</ele>
        <time>2021-09-04T08:19:57.000Z</time>
      </trkpt>
      <trkpt lat="47.10512" lon="-1.87299">
        <ele>63</ele>
        <time>2021-09-04T08:19:59.000Z</time>
      </trkpt>
      <trkpt lat="47.10519" lon="-1.87317">
        <ele>63</ele>
        <time>2021-09-04T08:20:01.000Z</time>
      </trkpt>
      <trkpt lat="47.10524" lon="-1.87336">
        <ele>63</ele>
        <time>2021-09-04T08:20:03.000Z</time>
      </trkpt>
      <trkpt lat="47.10529" lon="-1.87355">
        <ele>63</ele>
        <time>2021-09-04T08:20:05.000Z</time>
      </trkpt>
      <trkpt lat="47.10533" lon="-1.87375">
        <ele>62</ele>
        <time>2021-09-04T08:20:07.000Z</time>
      </trkpt>
      <trkpt lat="47.10536" lon="-1.87395">
        <ele>63</ele>
        <time>2021-09-04T08:20:09.000Z</time>
      </trkpt>
      <trkpt lat="47.10539" lon="-1.87415">
        <ele>63</ele>
        <time>2021-09-04T08:20:11.000Z</time>
      </trkpt>
      <trkpt lat="47.10543" lon="-1.87435">
        <ele>63</ele>
        <time>2021-09-04T08:20:13.000Z</time>
      </trkpt>
      <trkpt lat="47.10547" lon="-1.87456">
        <ele>63</ele>
        <time>2021-09-04T08:20:15.000Z</time>
      </trkpt>
      <trkpt lat="47.1055" lon="-1.87476">
        <ele>63</ele>
        <time>2021-09-04T08:20:17.000Z</time>
      </trkpt>
      <trkpt lat="47.10554" lon="-1.87496">
        <ele>63</ele>
        <time>2021-09-04T08:20:19.000Z</time>
      </trkpt>
      <trkpt lat="47.10557" lon="-1.87517">
        <ele>63</ele>
        <time>2021-09-04T08:20:21.000Z</time>
      </trkpt>
      <trkpt lat="47.10561" lon="-1.87536">
        <ele>63</ele>
        <time>2021-09-04T08:20:23.000Z</time>
      </trkpt>
      <trkpt lat="47.10565" lon="-1.87555">
        <ele>63</ele>
        <time>2021-09-04T08:20:25.000Z</time>
      </trkpt>
      <trkpt lat="47.1057" lon="-1.87574">
        <ele>64</ele>
        <time>2021-09-04T08:20:27.000Z</time>
      </trkpt>
      <trkpt lat="47.10573" lon="-1.87593">
        <ele>63</ele>
        <time>2021-09-04T08:20:29.000Z</time>
      </trkpt>
      <trkpt lat="47.10577" lon="-1.87613">
        <ele>62</ele>
        <time>2021-09-04T08:20:31.000Z</time>
      </trkpt>
      <trkpt lat="47.10582" lon="-1.87632">
        <ele>62</ele>
        <time>2021-09-04T08:20:33.000Z</time>
      </trkpt>
      <trkpt lat="47.10588" lon="-1.87651">
        <ele>62</ele>
        <time>2021-09-04T08:20:35.000Z</time>
      </trkpt>
      <trkpt lat="47.10594" lon="-1.8767">
        <ele>62</ele>
        <time>2021-09-04T08:20:37.000Z</time>
      </trkpt>
      <trkpt lat="47.106" lon="-1.87688">
        <ele>62</ele>
        <time>2021-09-04T08:20:39.000Z</time>
      </trkpt>
      <trkpt lat="47.10607" lon="-1.87706">
        <ele>61</ele>
        <time>2021-09-04T08:20:41.000Z</time>
      </trkpt>
      <trkpt lat="47.10613" lon="-1.87724">
        <ele>61</ele>
        <time>2021-09-04T08:20:43.000Z</time>
      </trkpt>
      <trkpt lat="47.10619" lon="-1.87742">
        <ele>61</ele>
        <time>2021-09-04T08:20:45.000Z</time>
      </trkpt>
      <trkpt lat="47.10624" lon="-1.8776">
        <ele>61</ele>
        <time>2021-09-04T08:20:47.000Z</time>
      </trkpt>
      <trkpt lat="47.10631" lon="-1.87777">
        <ele>61</ele>
        <time>2021-09-04T08:20:49.000Z</time>
      </trkpt>
      <trkpt lat="47.10637" lon="-1.87794">
        <ele>61</ele>
        <time>2021-09-04T08:20:51.000Z</time>
      </trkpt>
      <trkpt lat="47.10644" lon="-1.87811">
        <ele>62</ele>
        <time>2021-09-04T08:20:53.000Z</time>
      </trkpt>
      <trkpt lat="47.1065" lon="-1.87828">
        <ele>61</ele>
        <time>2021-09-04T08:20:55.000Z</time>
      </trkpt>
      <trkpt lat="47.10657" lon="-1.87846">
        <ele>61</ele>
        <time>2021-09-04T08:20:57.000Z</time>
      </trkpt>
      <trkpt lat="47.10663" lon="-1.87864">
        <ele>61</ele>
        <time>2021-09-04T08:20:59.000Z</time>
      </trkpt>
      <trkpt lat="47.10669" lon="-1.87882">
        <ele>61</ele>
        <time>2021-09-04T08:21:01.000Z</time>
      </trkpt>
      <trkpt lat="47.10675" lon="-1.879">
        <ele>60</ele>
        <time>2021-09-04T08:21:03.000Z</time>
      </trkpt>
      <trkpt lat="47.10682" lon="-1.87918">
        <ele>60</ele>
        <time>2021-09-04T08:21:05.000Z</time>
      </trkpt>
      <trkpt lat="47.10687" lon="-1.87937">
        <ele>60</ele>
        <time>2021-09-04T08:21:07.000Z</time>
      </trkpt>
      <trkpt lat="47.10692" lon="-1.87956">
        <ele>60</ele>
        <time>2021-09-04T08:21:09.000Z</time>
      </trkpt>
      <trkpt lat="47.10695" lon="-1.87976">
        <ele>59</ele>
        <time>2021-09-04T08:21:11.000Z</time>
      </trkpt>
      <trkpt lat="47.10697" lon="-1.87996">
        <ele>59</ele>
        <time>2021-09-04T08:21:13.000Z</time>
      </trkpt>
      <trkpt lat="47.107" lon="-1.88016">
        <ele>59</ele>
        <time>2021-09-04T08:21:15.000Z</time>
      </trkpt>
      <trkpt lat="47.10702" lon="-1.88036">
        <ele>59</ele>
        <time>2021-09-04T08:21:17.000Z</time>
      </trkpt>
      <trkpt lat="47.10703" lon="-1.88055">
        <ele>59</ele>
        <time>2021-09-04T08:21:19.000Z</time>
      </trkpt>
      <trkpt lat="47.10705" lon="-1.88075">
        <ele>59</ele>
        <time>2021-09-04T08:21:21.000Z</time>
      </trkpt>
      <trkpt lat="47.10707" lon="-1.88094">
        <ele>59</ele>
        <time>2021-09-04T08:21:23.000Z</time>
      </trkpt>
      <trkpt lat="47.1071" lon="-1.88122">
        <ele>59</ele>
        <time>2021-09-04T08:21:26.000Z</time>
      </trkpt>
      <trkpt lat="47.10712" lon="-1.88141">
        <ele>59</ele>
        <time>2021-09-04T08:21:28.000Z</time>
      </trkpt>
      <trkpt lat="47.10715" lon="-1.88161">
        <ele>59</ele>
        <time>2021-09-04T08:21:30.000Z</time>
      </trkpt>
      <trkpt lat="47.10717" lon="-1.88179">
        <ele>59</ele>
        <time>2021-09-04T08:21:32.000Z</time>
      </trkpt>
      <trkpt lat="47.1072" lon="-1.88208">
        <ele>59</ele>
        <time>2021-09-04T08:21:35.000Z</time>
      </trkpt>
      <trkpt lat="47.10721" lon="-1.88226">
        <ele>59</ele>
        <time>2021-09-04T08:21:37.000Z</time>
      </trkpt>
      <trkpt lat="47.10723" lon="-1.88244">
        <ele>59</ele>
        <time>2021-09-04T08:21:39.000Z</time>
      </trkpt>
      <trkpt lat="47.10725" lon="-1.88263">
        <ele>59</ele>
        <time>2021-09-04T08:21:41.000Z</time>
      </trkpt>
      <trkpt lat="47.10727" lon="-1.88281">
        <ele>59</ele>
        <time>2021-09-04T08:21:43.000Z</time>
      </trkpt>
      <trkpt lat="47.10729" lon="-1.883">
        <ele>59</ele>
        <time>2021-09-04T08:21:45.000Z</time>
      </trkpt>
      <trkpt lat="47.10731" lon="-1.88318">
        <ele>59</ele>
        <time>2021-09-04T08:21:47.000Z</time>
      </trkpt>
      <trkpt lat="47.10734" lon="-1.88336">
        <ele>59</ele>
        <time>2021-09-04T08:21:49.000Z</time>
      </trkpt>
      <trkpt lat="47.10737" lon="-1.88355">
        <ele>58</ele>
        <time>2021-09-04T08:21:51.000Z</time>
      </trkpt>
      <trkpt lat="47.10742" lon="-1.88382">
        <ele>58</ele>
        <time>2021-09-04T08:21:54.000Z</time>
      </trkpt>
      <trkpt lat="47.10748" lon="-1.88409">
        <ele>59</ele>
        <time>2021-09-04T08:21:57.000Z</time>
      </trkpt>
      <trkpt lat="47.10753" lon="-1.88427">
        <ele>58</ele>
        <time>2021-09-04T08:21:59.000Z</time>
      </trkpt>
      <trkpt lat="47.10758" lon="-1.88444">
        <ele>58</ele>
        <time>2021-09-04T08:22:01.000Z</time>
      </trkpt>
      <trkpt lat="47.10763" lon="-1.88462">
        <ele>58</ele>
        <time>2021-09-04T08:22:03.000Z</time>
      </trkpt>
      <trkpt lat="47.10768" lon="-1.88479">
        <ele>58</ele>
        <time>2021-09-04T08:22:05.000Z</time>
      </trkpt>
      <trkpt lat="47.10774" lon="-1.88497">
        <ele>59</ele>
        <time>2021-09-04T08:22:07.000Z</time>
      </trkpt>
      <trkpt lat="47.1078" lon="-1.88514">
        <ele>59</ele>
        <time>2021-09-04T08:22:09.000Z</time>
      </trkpt>
      <trkpt lat="47.10786" lon="-1.8853">
        <ele>59</ele>
        <time>2021-09-04T08:22:11.000Z</time>
      </trkpt>
      <trkpt lat="47.10796" lon="-1.88554">
        <ele>59</ele>
        <time>2021-09-04T08:22:14.000Z</time>
      </trkpt>
      <trkpt lat="47.10802" lon="-1.8857">
        <ele>59</ele>
        <time>2021-09-04T08:22:16.000Z</time>
      </trkpt>
      <trkpt lat="47.10812" lon="-1.88592">
        <ele>59</ele>
        <time>2021-09-04T08:22:19.000Z</time>
      </trkpt>
      <trkpt lat="47.10821" lon="-1.88615">
        <ele>60</ele>
        <time>2021-09-04T08:22:22.000Z</time>
      </trkpt>
      <trkpt lat="47.10832" lon="-1.88638">
        <ele>59</ele>
        <time>2021-09-04T08:22:25.000Z</time>
      </trkpt>
      <trkpt lat="47.10838" lon="-1.88653">
        <ele>60</ele>
        <time>2021-09-04T08:22:27.000Z</time>
      </trkpt>
      <trkpt lat="47.10843" lon="-1.8867">
        <ele>60</ele>
        <time>2021-09-04T08:22:29.000Z</time>
      </trkpt>
      <trkpt lat="47.10847" lon="-1.88687">
        <ele>60</ele>
        <time>2021-09-04T08:22:31.000Z</time>
      </trkpt>
      <trkpt lat="47.10848" lon="-1.88706">
        <ele>59</ele>
        <time>2021-09-04T08:22:33.000Z</time>
      </trkpt>
      <trkpt lat="47.10846" lon="-1.88724">
        <ele>59</ele>
        <time>2021-09-04T08:22:35.000Z</time>
      </trkpt>
      <trkpt lat="47.10842" lon="-1.88742">
        <ele>59</ele>
        <time>2021-09-04T08:22:37.000Z</time>
      </trkpt>
      <trkpt lat="47.10838" lon="-1.88759">
        <ele>59</ele>
        <time>2021-09-04T08:22:39.000Z</time>
      </trkpt>
      <trkpt lat="47.10833" lon="-1.88777">
        <ele>59</ele>
        <time>2021-09-04T08:22:41.000Z</time>
      </trkpt>
      <trkpt lat="47.10829" lon="-1.88795">
        <ele>59</ele>
        <time>2021-09-04T08:22:43.000Z</time>
      </trkpt>
      <trkpt lat="47.10825" lon="-1.88811">
        <ele>59</ele>
        <time>2021-09-04T08:22:45.000Z</time>
      </trkpt>
      <trkpt lat="47.1082" lon="-1.88828">
        <ele>59</ele>
        <time>2021-09-04T08:22:47.000Z</time>
      </trkpt>
      <trkpt lat="47.10816" lon="-1.88846">
        <ele>59</ele>
        <time>2021-09-04T08:22:49.000Z</time>
      </trkpt>
      <trkpt lat="47.10812" lon="-1.88862">
        <ele>59</ele>
        <time>2021-09-04T08:22:51.000Z</time>
      </trkpt>
      <trkpt lat="47.10808" lon="-1.8888">
        <ele>59</ele>
        <time>2021-09-04T08:22:53.000Z</time>
      </trkpt>
      <trkpt lat="47.10804" lon="-1.88898">
        <ele>59</ele>
        <time>2021-09-04T08:22:55.000Z</time>
      </trkpt>
      <trkpt lat="47.108" lon="-1.88914">
        <ele>59</ele>
        <time>2021-09-04T08:22:57.000Z</time>
      </trkpt>
      <trkpt lat="47.10796" lon="-1.88931">
        <ele>59</ele>
        <time>2021-09-04T08:22:59.000Z</time>
      </trkpt>
      <trkpt lat="47.10792" lon="-1.88948">
        <ele>59</ele>
        <time>2021-09-04T08:23:01.000Z</time>
      </trkpt>
      <trkpt lat="47.10788" lon="-1.88965">
        <ele>59</ele>
        <time>2021-09-04T08:23:03.000Z</time>
      </trkpt>
      <trkpt lat="47.10783" lon="-1.88982">
        <ele>59</ele>
        <time>2021-09-04T08:23:05.000Z</time>
      </trkpt>
      <trkpt lat="47.10779" lon="-1.88998">
        <ele>59</ele>
        <time>2021-09-04T08:23:07.000Z</time>
      </trkpt>
      <trkpt lat="47.10775" lon="-1.89016">
        <ele>59</ele>
        <time>2021-09-04T08:23:09.000Z</time>
      </trkpt>
      <trkpt lat="47.10771" lon="-1.89034">
        <ele>59</ele>
        <time>2021-09-04T08:23:11.000Z</time>
      </trkpt>
      <trkpt lat="47.10767" lon="-1.89052">
        <ele>59</ele>
        <time>2021-09-04T08:23:13.000Z</time>
      </trkpt>
      <trkpt lat="47.10763" lon="-1.8907">
        <ele>59</ele>
        <time>2021-09-04T08:23:15.000Z</time>
      </trkpt>
      <trkpt lat="47.10759" lon="-1.89088">
        <ele>59</ele>
        <time>2021-09-04T08:23:17.000Z</time>
      </trkpt>
      <trkpt lat="47.10754" lon="-1.89106">
        <ele>59</ele>
        <time>2021-09-04T08:23:19.000Z</time>
      </trkpt>
      <trkpt lat="47.10749" lon="-1.89124">
        <ele>59</ele>
        <time>2021-09-04T08:23:21.000Z</time>
      </trkpt>
      <trkpt lat="47.10745" lon="-1.89141">
        <ele>59</ele>
        <time>2021-09-04T08:23:23.000Z</time>
      </trkpt>
      <trkpt lat="47.10741" lon="-1.89159">
        <ele>58</ele>
        <time>2021-09-04T08:23:25.000Z</time>
      </trkpt>
      <trkpt lat="47.10737" lon="-1.89176">
        <ele>58</ele>
        <time>2021-09-04T08:23:27.000Z</time>
      </trkpt>
      <trkpt lat="47.10733" lon="-1.89194">
        <ele>58</ele>
        <time>2021-09-04T08:23:29.000Z</time>
      </trkpt>
      <trkpt lat="47.10729" lon="-1.89211">
        <ele>59</ele>
        <time>2021-09-04T08:23:31.000Z</time>
      </trkpt>
      <trkpt lat="47.10725" lon="-1.89228">
        <ele>59</ele>
        <time>2021-09-04T08:23:33.000Z</time>
      </trkpt>
      <trkpt lat="47.10722" lon="-1.89246">
        <ele>59</ele>
        <time>2021-09-04T08:23:35.000Z</time>
      </trkpt>
      <trkpt lat="47.10718" lon="-1.89264">
        <ele>59</ele>
        <time>2021-09-04T08:23:37.000Z</time>
      </trkpt>
      <trkpt lat="47.10715" lon="-1.89282">
        <ele>59</ele>
        <time>2021-09-04T08:23:39.000Z</time>
      </trkpt>
      <trkpt lat="47.10712" lon="-1.893">
        <ele>59</ele>
        <time>2021-09-04T08:23:41.000Z</time>
      </trkpt>
      <trkpt lat="47.10709" lon="-1.89319">
        <ele>60</ele>
        <time>2021-09-04T08:23:43.000Z</time>
      </trkpt>
      <trkpt lat="47.10706" lon="-1.89338">
        <ele>60</ele>
        <time>2021-09-04T08:23:45.000Z</time>
      </trkpt>
      <trkpt lat="47.10705" lon="-1.89357">
        <ele>60</ele>
        <time>2021-09-04T08:23:47.000Z</time>
      </trkpt>
      <trkpt lat="47.10702" lon="-1.89377">
        <ele>60</ele>
        <time>2021-09-04T08:23:49.000Z</time>
      </trkpt>
      <trkpt lat="47.10699" lon="-1.89398">
        <ele>60</ele>
        <time>2021-09-04T08:23:51.000Z</time>
      </trkpt>
      <trkpt lat="47.10696" lon="-1.89419">
        <ele>61</ele>
        <time>2021-09-04T08:23:53.000Z</time>
      </trkpt>
      <trkpt lat="47.10694" lon="-1.89439">
        <ele>61</ele>
        <time>2021-09-04T08:23:55.000Z</time>
      </trkpt>
      <trkpt lat="47.10692" lon="-1.89459">
        <ele>61</ele>
        <time>2021-09-04T08:23:57.000Z</time>
      </trkpt>
      <trkpt lat="47.10689" lon="-1.89478">
        <ele>62</ele>
        <time>2021-09-04T08:23:59.000Z</time>
      </trkpt>
      <trkpt lat="47.10688" lon="-1.89498">
        <ele>61</ele>
        <time>2021-09-04T08:24:01.000Z</time>
      </trkpt>
      <trkpt lat="47.10685" lon="-1.89518">
        <ele>62</ele>
        <time>2021-09-04T08:24:03.000Z</time>
      </trkpt>
      <trkpt lat="47.10681" lon="-1.89539">
        <ele>61</ele>
        <time>2021-09-04T08:24:05.000Z</time>
      </trkpt>
      <trkpt lat="47.10678" lon="-1.89558">
        <ele>61</ele>
        <time>2021-09-04T08:24:07.000Z</time>
      </trkpt>
      <trkpt lat="47.10675" lon="-1.89578">
        <ele>61</ele>
        <time>2021-09-04T08:24:09.000Z</time>
      </trkpt>
      <trkpt lat="47.1067" lon="-1.89597">
        <ele>61</ele>
        <time>2021-09-04T08:24:11.000Z</time>
      </trkpt>
      <trkpt lat="47.10665" lon="-1.89617">
        <ele>60</ele>
        <time>2021-09-04T08:24:13.000Z</time>
      </trkpt>
      <trkpt lat="47.10659" lon="-1.89635">
        <ele>60</ele>
        <time>2021-09-04T08:24:15.000Z</time>
      </trkpt>
      <trkpt lat="47.10653" lon="-1.89654">
        <ele>59</ele>
        <time>2021-09-04T08:24:17.000Z</time>
      </trkpt>
      <trkpt lat="47.10646" lon="-1.89673">
        <ele>59</ele>
        <time>2021-09-04T08:24:19.000Z</time>
      </trkpt>
      <trkpt lat="47.1064" lon="-1.89691">
        <ele>60</ele>
        <time>2021-09-04T08:24:21.000Z</time>
      </trkpt>
      <trkpt lat="47.10634" lon="-1.8971">
        <ele>60</ele>
        <time>2021-09-04T08:24:23.000Z</time>
      </trkpt>
      <trkpt lat="47.10627" lon="-1.89729">
        <ele>59</ele>
        <time>2021-09-04T08:24:25.000Z</time>
      </trkpt>
      <trkpt lat="47.10621" lon="-1.89747">
        <ele>59</ele>
        <time>2021-09-04T08:24:27.000Z</time>
      </trkpt>
      <trkpt lat="47.10614" lon="-1.89766">
        <ele>58</ele>
        <time>2021-09-04T08:24:29.000Z</time>
      </trkpt>
      <trkpt lat="47.10607" lon="-1.89783">
        <ele>58</ele>
        <time>2021-09-04T08:24:31.000Z</time>
      </trkpt>
      <trkpt lat="47.106" lon="-1.89801">
        <ele>58</ele>
        <time>2021-09-04T08:24:33.000Z</time>
      </trkpt>
      <trkpt lat="47.10594" lon="-1.89819">
        <ele>58</ele>
        <time>2021-09-04T08:24:35.000Z</time>
      </trkpt>
      <trkpt lat="47.10589" lon="-1.89837">
        <ele>58</ele>
        <time>2021-09-04T08:24:37.000Z</time>
      </trkpt>
      <trkpt lat="47.10582" lon="-1.89855">
        <ele>58</ele>
        <time>2021-09-04T08:24:39.000Z</time>
      </trkpt>
      <trkpt lat="47.10576" lon="-1.89873">
        <ele>58</ele>
        <time>2021-09-04T08:24:41.000Z</time>
      </trkpt>
      <trkpt lat="47.10569" lon="-1.8989">
        <ele>58</ele>
        <time>2021-09-04T08:24:43.000Z</time>
      </trkpt>
      <trkpt lat="47.10561" lon="-1.89907">
        <ele>58</ele>
        <time>2021-09-04T08:24:45.000Z</time>
      </trkpt>
      <trkpt lat="47.10555" lon="-1.89923">
        <ele>59</ele>
        <time>2021-09-04T08:24:47.000Z</time>
      </trkpt>
      <trkpt lat="47.10548" lon="-1.8994">
        <ele>58</ele>
        <time>2021-09-04T08:24:49.000Z</time>
      </trkpt>
      <trkpt lat="47.10541" lon="-1.89956">
        <ele>58</ele>
        <time>2021-09-04T08:24:51.000Z</time>
      </trkpt>
      <trkpt lat="47.10534" lon="-1.89972">
        <ele>58</ele>
        <time>2021-09-04T08:24:53.000Z</time>
      </trkpt>
      <trkpt lat="47.10526" lon="-1.89989">
        <ele>58</ele>
        <time>2021-09-04T08:24:55.000Z</time>
      </trkpt>
      <trkpt lat="47.10519" lon="-1.90006">
        <ele>58</ele>
        <time>2021-09-04T08:24:57.000Z</time>
      </trkpt>
      <trkpt lat="47.10512" lon="-1.90023">
        <ele>58</ele>
        <time>2021-09-04T08:24:59.000Z</time>
      </trkpt>
      <trkpt lat="47.10505" lon="-1.90039">
        <ele>58</ele>
        <time>2021-09-04T08:25:01.000Z</time>
      </trkpt>
      <trkpt lat="47.10498" lon="-1.90056">
        <ele>58</ele>
        <time>2021-09-04T08:25:03.000Z</time>
      </trkpt>
      <trkpt lat="47.10491" lon="-1.90072">
        <ele>58</ele>
        <time>2021-09-04T08:25:05.000Z</time>
      </trkpt>
      <trkpt lat="47.10484" lon="-1.90088">
        <ele>58</ele>
        <time>2021-09-04T08:25:07.000Z</time>
      </trkpt>
      <trkpt lat="47.10478" lon="-1.90105">
        <ele>58</ele>
        <time>2021-09-04T08:25:09.000Z</time>
      </trkpt>
      <trkpt lat="47.10471" lon="-1.9012">
        <ele>58</ele>
        <time>2021-09-04T08:25:11.000Z</time>
      </trkpt>
      <trkpt lat="47.10464" lon="-1.90136">
        <ele>58</ele>
        <time>2021-09-04T08:25:13.000Z</time>
      </trkpt>
      <trkpt lat="47.10457" lon="-1.90152">
        <ele>58</ele>
        <time>2021-09-04T08:25:15.000Z</time>
      </trkpt>
      <trkpt lat="47.1045" lon="-1.90168">
        <ele>58</ele>
        <time>2021-09-04T08:25:17.000Z</time>
      </trkpt>
      <trkpt lat="47.10443" lon="-1.90183">
        <ele>58</ele>
        <time>2021-09-04T08:25:19.000Z</time>
      </trkpt>
      <trkpt lat="47.10436" lon="-1.90198">
        <ele>58</ele>
        <time>2021-09-04T08:25:21.000Z</time>
      </trkpt>
      <trkpt lat="47.10429" lon="-1.90212">
        <ele>58</ele>
        <time>2021-09-04T08:25:23.000Z</time>
      </trkpt>
      <trkpt lat="47.10422" lon="-1.90227">
        <ele>59</ele>
        <time>2021-09-04T08:25:25.000Z</time>
      </trkpt>
      <trkpt lat="47.10415" lon="-1.90241">
        <ele>59</ele>
        <time>2021-09-04T08:25:27.000Z</time>
      </trkpt>
      <trkpt lat="47.10407" lon="-1.90256">
        <ele>59</ele>
        <time>2021-09-04T08:25:29.000Z</time>
      </trkpt>
      <trkpt lat="47.104" lon="-1.9027">
        <ele>59</ele>
        <time>2021-09-04T08:25:31.000Z</time>
      </trkpt>
      <trkpt lat="47.10393" lon="-1.90284">
        <ele>60</ele>
        <time>2021-09-04T08:25:33.000Z</time>
      </trkpt>
      <trkpt lat="47.10386" lon="-1.90298">
        <ele>60</ele>
        <time>2021-09-04T08:25:35.000Z</time>
      </trkpt>
      <trkpt lat="47.10379" lon="-1.90312">
        <ele>61</ele>
        <time>2021-09-04T08:25:37.000Z</time>
      </trkpt>
      <trkpt lat="47.10372" lon="-1.90327">
        <ele>61</ele>
        <time>2021-09-04T08:25:39.000Z</time>
      </trkpt>
      <trkpt lat="47.10365" lon="-1.90342">
        <ele>61</ele>
        <time>2021-09-04T08:25:41.000Z</time>
      </trkpt>
      <trkpt lat="47.10357" lon="-1.90357">
        <ele>61</ele>
        <time>2021-09-04T08:25:43.000Z</time>
      </trkpt>
      <trkpt lat="47.1035" lon="-1.90371">
        <ele>62</ele>
        <time>2021-09-04T08:25:45.000Z</time>
      </trkpt>
      <trkpt lat="47.10342" lon="-1.90385">
        <ele>62</ele>
        <time>2021-09-04T08:25:47.000Z</time>
      </trkpt>
      <trkpt lat="47.10335" lon="-1.904">
        <ele>62</ele>
        <time>2021-09-04T08:25:49.000Z</time>
      </trkpt>
      <trkpt lat="47.10327" lon="-1.90415">
        <ele>61</ele>
        <time>2021-09-04T08:25:51.000Z</time>
      </trkpt>
      <trkpt lat="47.1032" lon="-1.90429">
        <ele>61</ele>
        <time>2021-09-04T08:25:53.000Z</time>
      </trkpt>
      <trkpt lat="47.10312" lon="-1.90443">
        <ele>61</ele>
        <time>2021-09-04T08:25:55.000Z</time>
      </trkpt>
      <trkpt lat="47.10305" lon="-1.90457">
        <ele>62</ele>
        <time>2021-09-04T08:25:57.000Z</time>
      </trkpt>
      <trkpt lat="47.10298" lon="-1.90471">
        <ele>62</ele>
        <time>2021-09-04T08:25:59.000Z</time>
      </trkpt>
      <trkpt lat="47.10291" lon="-1.90485">
        <ele>63</ele>
        <time>2021-09-04T08:26:01.000Z</time>
      </trkpt>
      <trkpt lat="47.10283" lon="-1.90499">
        <ele>63</ele>
        <time>2021-09-04T08:26:03.000Z</time>
      </trkpt>
      <trkpt lat="47.10277" lon="-1.90513">
        <ele>64</ele>
        <time>2021-09-04T08:26:05.000Z</time>
      </trkpt>
      <trkpt lat="47.1027" lon="-1.90527">
        <ele>64</ele>
        <time>2021-09-04T08:26:07.000Z</time>
      </trkpt>
      <trkpt lat="47.10263" lon="-1.90542">
        <ele>65</ele>
        <time>2021-09-04T08:26:09.000Z</time>
      </trkpt>
      <trkpt lat="47.10257" lon="-1.90557">
        <ele>65</ele>
        <time>2021-09-04T08:26:11.000Z</time>
      </trkpt>
      <trkpt lat="47.1025" lon="-1.90573">
        <ele>66</ele>
        <time>2021-09-04T08:26:13.000Z</time>
      </trkpt>
      <trkpt lat="47.10244" lon="-1.90588">
        <ele>66</ele>
        <time>2021-09-04T08:26:15.000Z</time>
      </trkpt>
      <trkpt lat="47.10238" lon="-1.90604">
        <ele>67</ele>
        <time>2021-09-04T08:26:17.000Z</time>
      </trkpt>
      <trkpt lat="47.10231" lon="-1.9062">
        <ele>66</ele>
        <time>2021-09-04T08:26:19.000Z</time>
      </trkpt>
      <trkpt lat="47.10224" lon="-1.90636">
        <ele>66</ele>
        <time>2021-09-04T08:26:21.000Z</time>
      </trkpt>
      <trkpt lat="47.10218" lon="-1.90651">
        <ele>66</ele>
        <time>2021-09-04T08:26:23.000Z</time>
      </trkpt>
      <trkpt lat="47.10211" lon="-1.90668">
        <ele>66</ele>
        <time>2021-09-04T08:26:25.000Z</time>
      </trkpt>
      <trkpt lat="47.10204" lon="-1.90685">
        <ele>66</ele>
        <time>2021-09-04T08:26:27.000Z</time>
      </trkpt>
      <trkpt lat="47.10198" lon="-1.90701">
        <ele>65</ele>
        <time>2021-09-04T08:26:29.000Z</time>
      </trkpt>
      <trkpt lat="47.10192" lon="-1.90717">
        <ele>65</ele>
        <time>2021-09-04T08:26:31.000Z</time>
      </trkpt>
      <trkpt lat="47.10185" lon="-1.90733">
        <ele>65</ele>
        <time>2021-09-04T08:26:33.000Z</time>
      </trkpt>
      <trkpt lat="47.10179" lon="-1.90749">
        <ele>65</ele>
        <time>2021-09-04T08:26:35.000Z</time>
      </trkpt>
      <trkpt lat="47.10172" lon="-1.90764">
        <ele>65</ele>
        <time>2021-09-04T08:26:37.000Z</time>
      </trkpt>
      <trkpt lat="47.10166" lon="-1.9078">
        <ele>65</ele>
        <time>2021-09-04T08:26:39.000Z</time>
      </trkpt>
      <trkpt lat="47.10159" lon="-1.90795">
        <ele>65</ele>
        <time>2021-09-04T08:26:41.000Z</time>
      </trkpt>
      <trkpt lat="47.10151" lon="-1.9081">
        <ele>66</ele>
        <time>2021-09-04T08:26:43.000Z</time>
      </trkpt>
      <trkpt lat="47.10144" lon="-1.90825">
        <ele>66</ele>
        <time>2021-09-04T08:26:45.000Z</time>
      </trkpt>
      <trkpt lat="47.10137" lon="-1.9084">
        <ele>66</ele>
        <time>2021-09-04T08:26:47.000Z</time>
      </trkpt>
      <trkpt lat="47.10129" lon="-1.90854">
        <ele>65</ele>
        <time>2021-09-04T08:26:49.000Z</time>
      </trkpt>
      <trkpt lat="47.10121" lon="-1.90868">
        <ele>65</ele>
        <time>2021-09-04T08:26:51.000Z</time>
      </trkpt>
      <trkpt lat="47.10114" lon="-1.90882">
        <ele>65</ele>
        <time>2021-09-04T08:26:53.000Z</time>
      </trkpt>
      <trkpt lat="47.10107" lon="-1.90897">
        <ele>65</ele>
        <time>2021-09-04T08:26:55.000Z</time>
      </trkpt>
      <trkpt lat="47.10101" lon="-1.90912">
        <ele>65</ele>
        <time>2021-09-04T08:26:57.000Z</time>
      </trkpt>
      <trkpt lat="47.10094" lon="-1.90927">
        <ele>65</ele>
        <time>2021-09-04T08:26:59.000Z</time>
      </trkpt>
      <trkpt lat="47.10087" lon="-1.90943">
        <ele>65</ele>
        <time>2021-09-04T08:27:01.000Z</time>
      </trkpt>
      <trkpt lat="47.1008" lon="-1.90958">
        <ele>65</ele>
        <time>2021-09-04T08:27:03.000Z</time>
      </trkpt>
      <trkpt lat="47.10073" lon="-1.90973">
        <ele>65</ele>
        <time>2021-09-04T08:27:05.000Z</time>
      </trkpt>
      <trkpt lat="47.10066" lon="-1.90989">
        <ele>65</ele>
        <time>2021-09-04T08:27:07.000Z</time>
      </trkpt>
      <trkpt lat="47.1006" lon="-1.91005">
        <ele>65</ele>
        <time>2021-09-04T08:27:09.000Z</time>
      </trkpt>
      <trkpt lat="47.10053" lon="-1.91021">
        <ele>65</ele>
        <time>2021-09-04T08:27:11.000Z</time>
      </trkpt>
      <trkpt lat="47.10047" lon="-1.91037">
        <ele>65</ele>
        <time>2021-09-04T08:27:13.000Z</time>
      </trkpt>
      <trkpt lat="47.1004" lon="-1.91052">
        <ele>65</ele>
        <time>2021-09-04T08:27:15.000Z</time>
      </trkpt>
      <trkpt lat="47.10034" lon="-1.91067">
        <ele>66</ele>
        <time>2021-09-04T08:27:17.000Z</time>
      </trkpt>
      <trkpt lat="47.10028" lon="-1.91082">
        <ele>66</ele>
        <time>2021-09-04T08:27:19.000Z</time>
      </trkpt>
      <trkpt lat="47.10021" lon="-1.91097">
        <ele>66</ele>
        <time>2021-09-04T08:27:21.000Z</time>
      </trkpt>
      <trkpt lat="47.10015" lon="-1.91113">
        <ele>66</ele>
        <time>2021-09-04T08:27:23.000Z</time>
      </trkpt>
      <trkpt lat="47.10008" lon="-1.91129">
        <ele>66</ele>
        <time>2021-09-04T08:27:25.000Z</time>
      </trkpt>
      <trkpt lat="47.10001" lon="-1.91144">
        <ele>66</ele>
        <time>2021-09-04T08:27:27.000Z</time>
      </trkpt>
      <trkpt lat="47.09995" lon="-1.91159">
        <ele>66</ele>
        <time>2021-09-04T08:27:29.000Z</time>
      </trkpt>
      <trkpt lat="47.09988" lon="-1.91175">
        <ele>66</ele>
        <time>2021-09-04T08:27:31.000Z</time>
      </trkpt>
      <trkpt lat="47.09982" lon="-1.9119">
        <ele>66</ele>
        <time>2021-09-04T08:27:33.000Z</time>
      </trkpt>
      <trkpt lat="47.09975" lon="-1.91206">
        <ele>66</ele>
        <time>2021-09-04T08:27:35.000Z</time>
      </trkpt>
      <trkpt lat="47.09968" lon="-1.91221">
        <ele>66</ele>
        <time>2021-09-04T08:27:37.000Z</time>
      </trkpt>
      <trkpt lat="47.09961" lon="-1.91236">
        <ele>66</ele>
        <time>2021-09-04T08:27:39.000Z</time>
      </trkpt>
      <trkpt lat="47.09955" lon="-1.91253">
        <ele>66</ele>
        <time>2021-09-04T08:27:41.000Z</time>
      </trkpt>
      <trkpt lat="47.09948" lon="-1.91269">
        <ele>66</ele>
        <time>2021-09-04T08:27:43.000Z</time>
      </trkpt>
      <trkpt lat="47.09942" lon="-1.91285">
        <ele>66</ele>
        <time>2021-09-04T08:27:45.000Z</time>
      </trkpt>
      <trkpt lat="47.09936" lon="-1.91301">
        <ele>66</ele>
        <time>2021-09-04T08:27:47.000Z</time>
      </trkpt>
      <trkpt lat="47.0993" lon="-1.91317">
        <ele>67</ele>
        <time>2021-09-04T08:27:49.000Z</time>
      </trkpt>
      <trkpt lat="47.09925" lon="-1.91333">
        <ele>67</ele>
        <time>2021-09-04T08:27:51.000Z</time>
      </trkpt>
      <trkpt lat="47.09919" lon="-1.91349">
        <ele>67</ele>
        <time>2021-09-04T08:27:53.000Z</time>
      </trkpt>
      <trkpt lat="47.09914" lon="-1.91365">
        <ele>68</ele>
        <time>2021-09-04T08:27:55.000Z</time>
      </trkpt>
      <trkpt lat="47.09908" lon="-1.9138">
        <ele>68</ele>
        <time>2021-09-04T08:27:57.000Z</time>
      </trkpt>
      <trkpt lat="47.09903" lon="-1.91396">
        <ele>68</ele>
        <time>2021-09-04T08:27:59.000Z</time>
      </trkpt>
      <trkpt lat="47.09897" lon="-1.91412">
        <ele>67</ele>
        <time>2021-09-04T08:28:01.000Z</time>
      </trkpt>
      <trkpt lat="47.09892" lon="-1.91427">
        <ele>67</ele>
        <time>2021-09-04T08:28:03.000Z</time>
      </trkpt>
      <trkpt lat="47.09887" lon="-1.91443">
        <ele>67</ele>
        <time>2021-09-04T08:28:05.000Z</time>
      </trkpt>
      <trkpt lat="47.09882" lon="-1.91459">
        <ele>67</ele>
        <time>2021-09-04T08:28:07.000Z</time>
      </trkpt>
      <trkpt lat="47.09877" lon="-1.91475">
        <ele>67</ele>
        <time>2021-09-04T08:28:09.000Z</time>
      </trkpt>
      <trkpt lat="47.09872" lon="-1.91491">
        <ele>67</ele>
        <time>2021-09-04T08:28:11.000Z</time>
      </trkpt>
      <trkpt lat="47.09867" lon="-1.91507">
        <ele>67</ele>
        <time>2021-09-04T08:28:13.000Z</time>
      </trkpt>
      <trkpt lat="47.09862" lon="-1.91523">
        <ele>67</ele>
        <time>2021-09-04T08:28:15.000Z</time>
      </trkpt>
      <trkpt lat="47.09857" lon="-1.91539">
        <ele>67</ele>
        <time>2021-09-04T08:28:17.000Z</time>
      </trkpt>
      <trkpt lat="47.09852" lon="-1.91556">
        <ele>67</ele>
        <time>2021-09-04T08:28:19.000Z</time>
      </trkpt>
      <trkpt lat="47.09847" lon="-1.91573">
        <ele>67</ele>
        <time>2021-09-04T08:28:21.000Z</time>
      </trkpt>
      <trkpt lat="47.09842" lon="-1.91589">
        <ele>67</ele>
        <time>2021-09-04T08:28:23.000Z</time>
      </trkpt>
      <trkpt lat="47.09837" lon="-1.91605">
        <ele>67</ele>
        <time>2021-09-04T08:28:25.000Z</time>
      </trkpt>
      <trkpt lat="47.09831" lon="-1.91621">
        <ele>67</ele>
        <time>2021-09-04T08:28:27.000Z</time>
      </trkpt>
      <trkpt lat="47.09825" lon="-1.91637">
        <ele>67</ele>
        <time>2021-09-04T08:28:29.000Z</time>
      </trkpt>
      <trkpt lat="47.0982" lon="-1.91652">
        <ele>67</ele>
        <time>2021-09-04T08:28:31.000Z</time>
      </trkpt>
      <trkpt lat="47.09817" lon="-1.91669">
        <ele>67</ele>
        <time>2021-09-04T08:28:33.000Z</time>
      </trkpt>
      <trkpt lat="47.09813" lon="-1.91685">
        <ele>67</ele>
        <time>2021-09-04T08:28:35.000Z</time>
      </trkpt>
      <trkpt lat="47.09811" lon="-1.91701">
        <ele>68</ele>
        <time>2021-09-04T08:28:37.000Z</time>
      </trkpt>
      <trkpt lat="47.09808" lon="-1.91718">
        <ele>68</ele>
        <time>2021-09-04T08:28:39.000Z</time>
      </trkpt>
      <trkpt lat="47.09805" lon="-1.91735">
        <ele>68</ele>
        <time>2021-09-04T08:28:41.000Z</time>
      </trkpt>
      <trkpt lat="47.09803" lon="-1.91752">
        <ele>68</ele>
        <time>2021-09-04T08:28:43.000Z</time>
      </trkpt>
      <trkpt lat="47.09801" lon="-1.9177">
        <ele>68</ele>
        <time>2021-09-04T08:28:45.000Z</time>
      </trkpt>
      <trkpt lat="47.09799" lon="-1.91787">
        <ele>69</ele>
        <time>2021-09-04T08:28:47.000Z</time>
      </trkpt>
      <trkpt lat="47.09797" lon="-1.91805">
        <ele>68</ele>
        <time>2021-09-04T08:28:49.000Z</time>
      </trkpt>
      <trkpt lat="47.09794" lon="-1.91822">
        <ele>68</ele>
        <time>2021-09-04T08:28:51.000Z</time>
      </trkpt>
      <trkpt lat="47.09792" lon="-1.9184">
        <ele>69</ele>
        <time>2021-09-04T08:28:53.000Z</time>
      </trkpt>
      <trkpt lat="47.09789" lon="-1.91857">
        <ele>69</ele>
        <time>2021-09-04T08:28:55.000Z</time>
      </trkpt>
      <trkpt lat="47.09787" lon="-1.91874">
        <ele>69</ele>
        <time>2021-09-04T08:28:57.000Z</time>
      </trkpt>
      <trkpt lat="47.09785" lon="-1.9189">
        <ele>70</ele>
        <time>2021-09-04T08:28:59.000Z</time>
      </trkpt>
      <trkpt lat="47.09783" lon="-1.91907">
        <ele>70</ele>
        <time>2021-09-04T08:29:01.000Z</time>
      </trkpt>
      <trkpt lat="47.0978" lon="-1.91925">
        <ele>70</ele>
        <time>2021-09-04T08:29:03.000Z</time>
      </trkpt>
      <trkpt lat="47.09778" lon="-1.91941">
        <ele>70</ele>
        <time>2021-09-04T08:29:05.000Z</time>
      </trkpt>
      <trkpt lat="47.09775" lon="-1.91958">
        <ele>70</ele>
        <time>2021-09-04T08:29:07.000Z</time>
      </trkpt>
      <trkpt lat="47.09773" lon="-1.91975">
        <ele>70</ele>
        <time>2021-09-04T08:29:09.000Z</time>
      </trkpt>
      <trkpt lat="47.09771" lon="-1.91992">
        <ele>70</ele>
        <time>2021-09-04T08:29:11.000Z</time>
      </trkpt>
      <trkpt lat="47.0977" lon="-1.92008">
        <ele>71</ele>
        <time>2021-09-04T08:29:13.000Z</time>
      </trkpt>
      <trkpt lat="47.09768" lon="-1.92025">
        <ele>71</ele>
        <time>2021-09-04T08:29:15.000Z</time>
      </trkpt>
      <trkpt lat="47.09766" lon="-1.92042">
        <ele>71</ele>
        <time>2021-09-04T08:29:17.000Z</time>
      </trkpt>
      <trkpt lat="47.09765" lon="-1.92058">
        <ele>71</ele>
        <time>2021-09-04T08:29:19.000Z</time>
      </trkpt>
      <trkpt lat="47.09763" lon="-1.92075">
        <ele>71</ele>
        <time>2021-09-04T08:29:21.000Z</time>
      </trkpt>
      <trkpt lat="47.09762" lon="-1.92092">
        <ele>71</ele>
        <time>2021-09-04T08:29:23.000Z</time>
      </trkpt>
      <trkpt lat="47.0976" lon="-1.92109">
        <ele>71</ele>
        <time>2021-09-04T08:29:25.000Z</time>
      </trkpt>
      <trkpt lat="47.09758" lon="-1.92128">
        <ele>71</ele>
        <time>2021-09-04T08:29:27.000Z</time>
      </trkpt>
      <trkpt lat="47.09757" lon="-1.92144">
        <ele>71</ele>
        <time>2021-09-04T08:29:29.000Z</time>
      </trkpt>
      <trkpt lat="47.09755" lon="-1.92162">
        <ele>71</ele>
        <time>2021-09-04T08:29:31.000Z</time>
      </trkpt>
      <trkpt lat="47.09753" lon="-1.92179">
        <ele>71</ele>
        <time>2021-09-04T08:29:33.000Z</time>
      </trkpt>
      <trkpt lat="47.09751" lon="-1.92197">
        <ele>71</ele>
        <time>2021-09-04T08:29:35.000Z</time>
      </trkpt>
      <trkpt lat="47.0975" lon="-1.92214">
        <ele>71</ele>
        <time>2021-09-04T08:29:37.000Z</time>
      </trkpt>
      <trkpt lat="47.09748" lon="-1.92232">
        <ele>71</ele>
        <time>2021-09-04T08:29:39.000Z</time>
      </trkpt>
      <trkpt lat="47.09747" lon="-1.92249">
        <ele>71</ele>
        <time>2021-09-04T08:29:41.000Z</time>
      </trkpt>
      <trkpt lat="47.09746" lon="-1.92267">
        <ele>71</ele>
        <time>2021-09-04T08:29:43.000Z</time>
      </trkpt>
      <trkpt lat="47.09745" lon="-1.92285">
        <ele>71</ele>
        <time>2021-09-04T08:29:45.000Z</time>
      </trkpt>
      <trkpt lat="47.09744" lon="-1.92302">
        <ele>71</ele>
        <time>2021-09-04T08:29:47.000Z</time>
      </trkpt>
      <trkpt lat="47.09745" lon="-1.9232">
        <ele>71</ele>
        <time>2021-09-04T08:29:49.000Z</time>
      </trkpt>
      <trkpt lat="47.09745" lon="-1.92338">
        <ele>71</ele>
        <time>2021-09-04T08:29:51.000Z</time>
      </trkpt>
      <trkpt lat="47.09746" lon="-1.92355">
        <ele>71</ele>
        <time>2021-09-04T08:29:53.000Z</time>
      </trkpt>
      <trkpt lat="47.09746" lon="-1.92373">
        <ele>71</ele>
        <time>2021-09-04T08:29:55.000Z</time>
      </trkpt>
      <trkpt lat="47.09746" lon="-1.9239">
        <ele>71</ele>
        <time>2021-09-04T08:29:57.000Z</time>
      </trkpt>
      <trkpt lat="47.09745" lon="-1.92408">
        <ele>72</ele>
        <time>2021-09-04T08:29:59.000Z</time>
      </trkpt>
      <trkpt lat="47.09744" lon="-1.92423">
        <ele>71</ele>
        <time>2021-09-04T08:30:01.000Z</time>
      </trkpt>
      <trkpt lat="47.09743" lon="-1.92438">
        <ele>72</ele>
        <time>2021-09-04T08:30:03.000Z</time>
      </trkpt>
      <trkpt lat="47.09742" lon="-1.92451">
        <ele>71</ele>
        <time>2021-09-04T08:30:05.000Z</time>
      </trkpt>
      <trkpt lat="47.09741" lon="-1.92466">
        <ele>71</ele>
        <time>2021-09-04T08:30:08.000Z</time>
      </trkpt>
      <trkpt lat="47.09739" lon="-1.92483">
        <ele>72</ele>
        <time>2021-09-04T08:30:12.000Z</time>
      </trkpt>
      <trkpt lat="47.09737" lon="-1.92498">
        <ele>72</ele>
        <time>2021-09-04T08:30:14.000Z</time>
      </trkpt>
      <trkpt lat="47.09735" lon="-1.92515">
        <ele>72</ele>
        <time>2021-09-04T08:30:16.000Z</time>
      </trkpt>
      <trkpt lat="47.09734" lon="-1.92532">
        <ele>72</ele>
        <time>2021-09-04T08:30:18.000Z</time>
      </trkpt>
      <trkpt lat="47.09732" lon="-1.92549">
        <ele>72</ele>
        <time>2021-09-04T08:30:20.000Z</time>
      </trkpt>
      <trkpt lat="47.09731" lon="-1.92567">
        <ele>72</ele>
        <time>2021-09-04T08:30:22.000Z</time>
      </trkpt>
      <trkpt lat="47.09729" lon="-1.92585">
        <ele>73</ele>
        <time>2021-09-04T08:30:24.000Z</time>
      </trkpt>
      <trkpt lat="47.09728" lon="-1.92603">
        <ele>73</ele>
        <time>2021-09-04T08:30:26.000Z</time>
      </trkpt>
      <trkpt lat="47.09726" lon="-1.92621">
        <ele>72</ele>
        <time>2021-09-04T08:30:28.000Z</time>
      </trkpt>
      <trkpt lat="47.09725" lon="-1.92639">
        <ele>72</ele>
        <time>2021-09-04T08:30:30.000Z</time>
      </trkpt>
      <trkpt lat="47.09723" lon="-1.92657">
        <ele>72</ele>
        <time>2021-09-04T08:30:32.000Z</time>
      </trkpt>
      <trkpt lat="47.09721" lon="-1.92675">
        <ele>72</ele>
        <time>2021-09-04T08:30:34.000Z</time>
      </trkpt>
      <trkpt lat="47.09719" lon="-1.92693">
        <ele>72</ele>
        <time>2021-09-04T08:30:36.000Z</time>
      </trkpt>
      <trkpt lat="47.09717" lon="-1.9271">
        <ele>72</ele>
        <time>2021-09-04T08:30:38.000Z</time>
      </trkpt>
      <trkpt lat="47.09716" lon="-1.92728">
        <ele>72</ele>
        <time>2021-09-04T08:30:40.000Z</time>
      </trkpt>
      <trkpt lat="47.09714" lon="-1.92746">
        <ele>72</ele>
        <time>2021-09-04T08:30:42.000Z</time>
      </trkpt>
      <trkpt lat="47.09713" lon="-1.92764">
        <ele>72</ele>
        <time>2021-09-04T08:30:44.000Z</time>
      </trkpt>
      <trkpt lat="47.09712" lon="-1.92782">
        <ele>72</ele>
        <time>2021-09-04T08:30:46.000Z</time>
      </trkpt>
      <trkpt lat="47.09712" lon="-1.92799">
        <ele>72</ele>
        <time>2021-09-04T08:30:48.000Z</time>
      </trkpt>
      <trkpt lat="47.09712" lon="-1.92817">
        <ele>72</ele>
        <time>2021-09-04T08:30:50.000Z</time>
      </trkpt>
      <trkpt lat="47.09712" lon="-1.92836">
        <ele>72</ele>
        <time>2021-09-04T08:30:52.000Z</time>
      </trkpt>
      <trkpt lat="47.09712" lon="-1.92854">
        <ele>72</ele>
        <time>2021-09-04T08:30:54.000Z</time>
      </trkpt>
      <trkpt lat="47.09712" lon="-1.92872">
        <ele>72</ele>
        <time>2021-09-04T08:30:56.000Z</time>
      </trkpt>
      <trkpt lat="47.09712" lon="-1.92889">
        <ele>72</ele>
        <time>2021-09-04T08:30:58.000Z</time>
      </trkpt>
      <trkpt lat="47.09712" lon="-1.92907">
        <ele>72</ele>
        <time>2021-09-04T08:31:00.000Z</time>
      </trkpt>
      <trkpt lat="47.09711" lon="-1.92925">
        <ele>72</ele>
        <time>2021-09-04T08:31:02.000Z</time>
      </trkpt>
      <trkpt lat="47.0971" lon="-1.92944">
        <ele>72</ele>
        <time>2021-09-04T08:31:04.000Z</time>
      </trkpt>
      <trkpt lat="47.09708" lon="-1.92962">
        <ele>72</ele>
        <time>2021-09-04T08:31:06.000Z</time>
      </trkpt>
      <trkpt lat="47.09706" lon="-1.9298">
        <ele>72</ele>
        <time>2021-09-04T08:31:08.000Z</time>
      </trkpt>
      <trkpt lat="47.09704" lon="-1.92998">
        <ele>73</ele>
        <time>2021-09-04T08:31:10.000Z</time>
      </trkpt>
      <trkpt lat="47.09701" lon="-1.93016">
        <ele>73</ele>
        <time>2021-09-04T08:31:12.000Z</time>
      </trkpt>
      <trkpt lat="47.09699" lon="-1.93033">
        <ele>72</ele>
        <time>2021-09-04T08:31:14.000Z</time>
      </trkpt>
      <trkpt lat="47.09697" lon="-1.93052">
        <ele>72</ele>
        <time>2021-09-04T08:31:16.000Z</time>
      </trkpt>
      <trkpt lat="47.09695" lon="-1.93069">
        <ele>72</ele>
        <time>2021-09-04T08:31:18.000Z</time>
      </trkpt>
      <trkpt lat="47.09693" lon="-1.93087">
        <ele>73</ele>
        <time>2021-09-04T08:31:20.000Z</time>
      </trkpt>
      <trkpt lat="47.0969" lon="-1.93105">
        <ele>73</ele>
        <time>2021-09-04T08:31:22.000Z</time>
      </trkpt>
      <trkpt lat="47.09689" lon="-1.93123">
        <ele>73</ele>
        <time>2021-09-04T08:31:24.000Z</time>
      </trkpt>
      <trkpt lat="47.09687" lon="-1.93141">
        <ele>72</ele>
        <time>2021-09-04T08:31:26.000Z</time>
      </trkpt>
      <trkpt lat="47.09686" lon="-1.93158">
        <ele>73</ele>
        <time>2021-09-04T08:31:28.000Z</time>
      </trkpt>
      <trkpt lat="47.09685" lon="-1.93176">
        <ele>73</ele>
        <time>2021-09-04T08:31:30.000Z</time>
      </trkpt>
      <trkpt lat="47.09684" lon="-1.93194">
        <ele>73</ele>
        <time>2021-09-04T08:31:32.000Z</time>
      </trkpt>
      <trkpt lat="47.09684" lon="-1.93211">
        <ele>72</ele>
        <time>2021-09-04T08:31:34.000Z</time>
      </trkpt>
      <trkpt lat="47.09683" lon="-1.93228">
        <ele>73</ele>
        <time>2021-09-04T08:31:36.000Z</time>
      </trkpt>
      <trkpt lat="47.09681" lon="-1.93246">
        <ele>73</ele>
        <time>2021-09-04T08:31:38.000Z</time>
      </trkpt>
      <trkpt lat="47.09679" lon="-1.93264">
        <ele>73</ele>
        <time>2021-09-04T08:31:40.000Z</time>
      </trkpt>
      <trkpt lat="47.09676" lon="-1.93281">
        <ele>73</ele>
        <time>2021-09-04T08:31:42.000Z</time>
      </trkpt>
      <trkpt lat="47.09672" lon="-1.93298">
        <ele>73</ele>
        <time>2021-09-04T08:31:44.000Z</time>
      </trkpt>
      <trkpt lat="47.09669" lon="-1.93316">
        <ele>73</ele>
        <time>2021-09-04T08:31:46.000Z</time>
      </trkpt>
      <trkpt lat="47.09665" lon="-1.93334">
        <ele>72</ele>
        <time>2021-09-04T08:31:48.000Z</time>
      </trkpt>
      <trkpt lat="47.09661" lon="-1.93351">
        <ele>72</ele>
        <time>2021-09-04T08:31:50.000Z</time>
      </trkpt>
      <trkpt lat="47.09657" lon="-1.93368">
        <ele>72</ele>
        <time>2021-09-04T08:31:52.000Z</time>
      </trkpt>
      <trkpt lat="47.09653" lon="-1.93385">
        <ele>72</ele>
        <time>2021-09-04T08:31:54.000Z</time>
      </trkpt>
      <trkpt lat="47.09649" lon="-1.93403">
        <ele>72</ele>
        <time>2021-09-04T08:31:56.000Z</time>
      </trkpt>
      <trkpt lat="47.09646" lon="-1.9342">
        <ele>72</ele>
        <time>2021-09-04T08:31:58.000Z</time>
      </trkpt>
      <trkpt lat="47.09642" lon="-1.93438">
        <ele>72</ele>
        <time>2021-09-04T08:32:00.000Z</time>
      </trkpt>
      <trkpt lat="47.09638" lon="-1.93456">
        <ele>72</ele>
        <time>2021-09-04T08:32:02.000Z</time>
      </trkpt>
      <trkpt lat="47.09634" lon="-1.93473">
        <ele>72</ele>
        <time>2021-09-04T08:32:04.000Z</time>
      </trkpt>
      <trkpt lat="47.0963" lon="-1.9349">
        <ele>72</ele>
        <time>2021-09-04T08:32:06.000Z</time>
      </trkpt>
      <trkpt lat="47.09627" lon="-1.93508">
        <ele>72</ele>
        <time>2021-09-04T08:32:08.000Z</time>
      </trkpt>
      <trkpt lat="47.09623" lon="-1.93525">
        <ele>73</ele>
        <time>2021-09-04T08:32:10.000Z</time>
      </trkpt>
      <trkpt lat="47.09619" lon="-1.93542">
        <ele>73</ele>
        <time>2021-09-04T08:32:12.000Z</time>
      </trkpt>
      <trkpt lat="47.09615" lon="-1.9356">
        <ele>73</ele>
        <time>2021-09-04T08:32:14.000Z</time>
      </trkpt>
      <trkpt lat="47.09611" lon="-1.93577">
        <ele>73</ele>
        <time>2021-09-04T08:32:16.000Z</time>
      </trkpt>
      <trkpt lat="47.09607" lon="-1.93593">
        <ele>73</ele>
        <time>2021-09-04T08:32:18.000Z</time>
      </trkpt>
      <trkpt lat="47.09604" lon="-1.93609">
        <ele>73</ele>
        <time>2021-09-04T08:32:20.000Z</time>
      </trkpt>
      <trkpt lat="47.09602" lon="-1.93624">
        <ele>72</ele>
        <time>2021-09-04T08:32:22.000Z</time>
      </trkpt>
      <trkpt lat="47.09605" lon="-1.93637">
        <ele>72</ele>
        <time>2021-09-04T08:32:24.000Z</time>
      </trkpt>
      <trkpt lat="47.09615" lon="-1.93645">
        <ele>73</ele>
        <time>2021-09-04T08:32:26.000Z</time>
      </trkpt>
      <trkpt lat="47.09626" lon="-1.9365">
        <ele>73</ele>
        <time>2021-09-04T08:32:28.000Z</time>
      </trkpt>
      <trkpt lat="47.09638" lon="-1.93656">
        <ele>73</ele>
        <time>2021-09-04T08:32:30.000Z</time>
      </trkpt>
      <trkpt lat="47.0965" lon="-1.93664">
        <ele>73</ele>
        <time>2021-09-04T08:32:32.000Z</time>
      </trkpt>
      <trkpt lat="47.09661" lon="-1.93673">
        <ele>73</ele>
        <time>2021-09-04T08:32:34.000Z</time>
      </trkpt>
      <trkpt lat="47.09672" lon="-1.93684">
        <ele>73</ele>
        <time>2021-09-04T08:32:36.000Z</time>
      </trkpt>
      <trkpt lat="47.09683" lon="-1.93694">
        <ele>73</ele>
        <time>2021-09-04T08:32:38.000Z</time>
      </trkpt>
      <trkpt lat="47.09694" lon="-1.93703">
        <ele>73</ele>
        <time>2021-09-04T08:32:40.000Z</time>
      </trkpt>
      <trkpt lat="47.09704" lon="-1.93714">
        <ele>73</ele>
        <time>2021-09-04T08:32:42.000Z</time>
      </trkpt>
      <trkpt lat="47.09715" lon="-1.93724">
        <ele>73</ele>
        <time>2021-09-04T08:32:44.000Z</time>
      </trkpt>
      <trkpt lat="47.09726" lon="-1.93735">
        <ele>73</ele>
        <time>2021-09-04T08:32:46.000Z</time>
      </trkpt>
      <trkpt lat="47.09737" lon="-1.93745">
        <ele>73</ele>
        <time>2021-09-04T08:32:48.000Z</time>
      </trkpt>
      <trkpt lat="47.09748" lon="-1.93755">
        <ele>73</ele>
        <time>2021-09-04T08:32:50.000Z</time>
      </trkpt>
      <trkpt lat="47.09759" lon="-1.93764">
        <ele>73</ele>
        <time>2021-09-04T08:32:52.000Z</time>
      </trkpt>
      <trkpt lat="47.09771" lon="-1.93774">
        <ele>73</ele>
        <time>2021-09-04T08:32:54.000Z</time>
      </trkpt>
      <trkpt lat="47.09783" lon="-1.93782">
        <ele>73</ele>
        <time>2021-09-04T08:32:56.000Z</time>
      </trkpt>
      <trkpt lat="47.09796" lon="-1.93788">
        <ele>73</ele>
        <time>2021-09-04T08:32:58.000Z</time>
      </trkpt>
      <trkpt lat="47.09809" lon="-1.93793">
        <ele>72</ele>
        <time>2021-09-04T08:33:00.000Z</time>
      </trkpt>
      <trkpt lat="47.09822" lon="-1.93797">
        <ele>72</ele>
        <time>2021-09-04T08:33:02.000Z</time>
      </trkpt>
      <trkpt lat="47.09835" lon="-1.938">
        <ele>72</ele>
        <time>2021-09-04T08:33:04.000Z</time>
      </trkpt>
      <trkpt lat="47.09848" lon="-1.93804">
        <ele>72</ele>
        <time>2021-09-04T08:33:06.000Z</time>
      </trkpt>
      <trkpt lat="47.09862" lon="-1.93807">
        <ele>72</ele>
        <time>2021-09-04T08:33:08.000Z</time>
      </trkpt>
      <trkpt lat="47.09875" lon="-1.93812">
        <ele>72</ele>
        <time>2021-09-04T08:33:10.000Z</time>
      </trkpt>
      <trkpt lat="47.09889" lon="-1.93816">
        <ele>72</ele>
        <time>2021-09-04T08:33:12.000Z</time>
      </trkpt>
      <trkpt lat="47.09902" lon="-1.9382">
        <ele>73</ele>
        <time>2021-09-04T08:33:14.000Z</time>
      </trkpt>
      <trkpt lat="47.09916" lon="-1.93824">
        <ele>73</ele>
        <time>2021-09-04T08:33:16.000Z</time>
      </trkpt>
      <trkpt lat="47.09929" lon="-1.93827">
        <ele>73</ele>
        <time>2021-09-04T08:33:18.000Z</time>
      </trkpt>
      <trkpt lat="47.09943" lon="-1.93831">
        <ele>73</ele>
        <time>2021-09-04T08:33:20.000Z</time>
      </trkpt>
      <trkpt lat="47.09956" lon="-1.93835">
        <ele>73</ele>
        <time>2021-09-04T08:33:22.000Z</time>
      </trkpt>
      <trkpt lat="47.0997" lon="-1.9384">
        <ele>73</ele>
        <time>2021-09-04T08:33:24.000Z</time>
      </trkpt>
      <trkpt lat="47.09985" lon="-1.93844">
        <ele>73</ele>
        <time>2021-09-04T08:33:26.000Z</time>
      </trkpt>
      <trkpt lat="47.09999" lon="-1.93849">
        <ele>73</ele>
        <time>2021-09-04T08:33:28.000Z</time>
      </trkpt>
      <trkpt lat="47.10013" lon="-1.93852">
        <ele>73</ele>
        <time>2021-09-04T08:33:30.000Z</time>
      </trkpt>
      <trkpt lat="47.10027" lon="-1.93856">
        <ele>73</ele>
        <time>2021-09-04T08:33:32.000Z</time>
      </trkpt>
      <trkpt lat="47.10042" lon="-1.9386">
        <ele>73</ele>
        <time>2021-09-04T08:33:34.000Z</time>
      </trkpt>
      <trkpt lat="47.10056" lon="-1.93864">
        <ele>73</ele>
        <time>2021-09-04T08:33:36.000Z</time>
      </trkpt>
      <trkpt lat="47.1007" lon="-1.93868">
        <ele>73</ele>
        <time>2021-09-04T08:33:38.000Z</time>
      </trkpt>
      <trkpt lat="47.10085" lon="-1.93872">
        <ele>73</ele>
        <time>2021-09-04T08:33:40.000Z</time>
      </trkpt>
      <trkpt lat="47.10099" lon="-1.93876">
        <ele>73</ele>
        <time>2021-09-04T08:33:42.000Z</time>
      </trkpt>
      <trkpt lat="47.10114" lon="-1.93881">
        <ele>73</ele>
        <time>2021-09-04T08:33:44.000Z</time>
      </trkpt>
      <trkpt lat="47.10128" lon="-1.93885">
        <ele>73</ele>
        <time>2021-09-04T08:33:46.000Z</time>
      </trkpt>
      <trkpt lat="47.10142" lon="-1.93889">
        <ele>74</ele>
        <time>2021-09-04T08:33:48.000Z</time>
      </trkpt>
      <trkpt lat="47.10156" lon="-1.93893">
        <ele>75</ele>
        <time>2021-09-04T08:33:50.000Z</time>
      </trkpt>
      <trkpt lat="47.1017" lon="-1.93897">
        <ele>74</ele>
        <time>2021-09-04T08:33:52.000Z</time>
      </trkpt>
      <trkpt lat="47.10184" lon="-1.93901">
        <ele>74</ele>
        <time>2021-09-04T08:33:54.000Z</time>
      </trkpt>
      <trkpt lat="47.10198" lon="-1.93904">
        <ele>73</ele>
        <time>2021-09-04T08:33:56.000Z</time>
      </trkpt>
      <trkpt lat="47.10212" lon="-1.93907">
        <ele>73</ele>
        <time>2021-09-04T08:33:58.000Z</time>
      </trkpt>
      <trkpt lat="47.10226" lon="-1.93909">
        <ele>73</ele>
        <time>2021-09-04T08:34:00.000Z</time>
      </trkpt>
      <trkpt lat="47.1024" lon="-1.93911">
        <ele>73</ele>
        <time>2021-09-04T08:34:02.000Z</time>
      </trkpt>
      <trkpt lat="47.10255" lon="-1.93911">
        <ele>73</ele>
        <time>2021-09-04T08:34:04.000Z</time>
      </trkpt>
      <trkpt lat="47.10269" lon="-1.9391">
        <ele>73</ele>
        <time>2021-09-04T08:34:06.000Z</time>
      </trkpt>
      <trkpt lat="47.10284" lon="-1.93908">
        <ele>73</ele>
        <time>2021-09-04T08:34:08.000Z</time>
      </trkpt>
      <trkpt lat="47.10297" lon="-1.93905">
        <ele>73</ele>
        <time>2021-09-04T08:34:10.000Z</time>
      </trkpt>
      <trkpt lat="47.10311" lon="-1.93902">
        <ele>73</ele>
        <time>2021-09-04T08:34:12.000Z</time>
      </trkpt>
      <trkpt lat="47.10325" lon="-1.939">
        <ele>73</ele>
        <time>2021-09-04T08:34:14.000Z</time>
      </trkpt>
      <trkpt lat="47.10339" lon="-1.93897">
        <ele>73</ele>
        <time>2021-09-04T08:34:16.000Z</time>
      </trkpt>
      <trkpt lat="47.10352" lon="-1.93895">
        <ele>73</ele>
        <time>2021-09-04T08:34:18.000Z</time>
      </trkpt>
      <trkpt lat="47.10366" lon="-1.93893">
        <ele>73</ele>
        <time>2021-09-04T08:34:20.000Z</time>
      </trkpt>
      <trkpt lat="47.1038" lon="-1.93891">
        <ele>73</ele>
        <time>2021-09-04T08:34:22.000Z</time>
      </trkpt>
      <trkpt lat="47.10394" lon="-1.93889">
        <ele>73</ele>
        <time>2021-09-04T08:34:24.000Z</time>
      </trkpt>
      <trkpt lat="47.10408" lon="-1.93887">
        <ele>73</ele>
        <time>2021-09-04T08:34:26.000Z</time>
      </trkpt>
      <trkpt lat="47.10421" lon="-1.93884">
        <ele>73</ele>
        <time>2021-09-04T08:34:28.000Z</time>
      </trkpt>
      <trkpt lat="47.10435" lon="-1.93882">
        <ele>73</ele>
        <time>2021-09-04T08:34:30.000Z</time>
      </trkpt>
      <trkpt lat="47.10448" lon="-1.93879">
        <ele>73</ele>
        <time>2021-09-04T08:34:32.000Z</time>
      </trkpt>
      <trkpt lat="47.10462" lon="-1.93877">
        <ele>73</ele>
        <time>2021-09-04T08:34:34.000Z</time>
      </trkpt>
      <trkpt lat="47.10475" lon="-1.93875">
        <ele>74</ele>
        <time>2021-09-04T08:34:36.000Z</time>
      </trkpt>
      <trkpt lat="47.10489" lon="-1.93871">
        <ele>74</ele>
        <time>2021-09-04T08:34:38.000Z</time>
      </trkpt>
      <trkpt lat="47.10504" lon="-1.93868">
        <ele>73</ele>
        <time>2021-09-04T08:34:40.000Z</time>
      </trkpt>
      <trkpt lat="47.10519" lon="-1.93867">
        <ele>73</ele>
        <time>2021-09-04T08:34:42.000Z</time>
      </trkpt>
      <trkpt lat="47.10534" lon="-1.93865">
        <ele>73</ele>
        <time>2021-09-04T08:34:44.000Z</time>
      </trkpt>
      <trkpt lat="47.10549" lon="-1.93863">
        <ele>73</ele>
        <time>2021-09-04T08:34:46.000Z</time>
      </trkpt>
      <trkpt lat="47.10563" lon="-1.93861">
        <ele>72</ele>
        <time>2021-09-04T08:34:48.000Z</time>
      </trkpt>
      <trkpt lat="47.10577" lon="-1.93859">
        <ele>72</ele>
        <time>2021-09-04T08:34:50.000Z</time>
      </trkpt>
      <trkpt lat="47.10592" lon="-1.93856">
        <ele>71</ele>
        <time>2021-09-04T08:34:52.000Z</time>
      </trkpt>
      <trkpt lat="47.10606" lon="-1.93854">
        <ele>72</ele>
        <time>2021-09-04T08:34:54.000Z</time>
      </trkpt>
      <trkpt lat="47.10619" lon="-1.93852">
        <ele>72</ele>
        <time>2021-09-04T08:34:56.000Z</time>
      </trkpt>
      <trkpt lat="47.10634" lon="-1.93849">
        <ele>71</ele>
        <time>2021-09-04T08:34:58.000Z</time>
      </trkpt>
      <trkpt lat="47.10648" lon="-1.93846">
        <ele>71</ele>
        <time>2021-09-04T08:35:00.000Z</time>
      </trkpt>
      <trkpt lat="47.10662" lon="-1.93844">
        <ele>71</ele>
        <time>2021-09-04T08:35:02.000Z</time>
      </trkpt>
      <trkpt lat="47.10683" lon="-1.93841">
        <ele>71</ele>
        <time>2021-09-04T08:35:05.000Z</time>
      </trkpt>
      <trkpt lat="47.10704" lon="-1.93838">
        <ele>71</ele>
        <time>2021-09-04T08:35:08.000Z</time>
      </trkpt>
      <trkpt lat="47.10718" lon="-1.93836">
        <ele>71</ele>
        <time>2021-09-04T08:35:10.000Z</time>
      </trkpt>
      <trkpt lat="47.10738" lon="-1.93832">
        <ele>71</ele>
        <time>2021-09-04T08:35:13.000Z</time>
      </trkpt>
      <trkpt lat="47.10759" lon="-1.93828">
        <ele>71</ele>
        <time>2021-09-04T08:35:16.000Z</time>
      </trkpt>
      <trkpt lat="47.1078" lon="-1.93824">
        <ele>71</ele>
        <time>2021-09-04T08:35:19.000Z</time>
      </trkpt>
      <trkpt lat="47.10801" lon="-1.93821">
        <ele>71</ele>
        <time>2021-09-04T08:35:22.000Z</time>
      </trkpt>
      <trkpt lat="47.10814" lon="-1.93818">
        <ele>71</ele>
        <time>2021-09-04T08:35:24.000Z</time>
      </trkpt>
      <trkpt lat="47.10828" lon="-1.93814">
        <ele>72</ele>
        <time>2021-09-04T08:35:26.000Z</time>
      </trkpt>
      <trkpt lat="47.10842" lon="-1.93811">
        <ele>72</ele>
        <time>2021-09-04T08:35:28.000Z</time>
      </trkpt>
      <trkpt lat="47.10861" lon="-1.93807">
        <ele>73</ele>
        <time>2021-09-04T08:35:31.000Z</time>
      </trkpt>
      <trkpt lat="47.10881" lon="-1.93801">
        <ele>73</ele>
        <time>2021-09-04T08:35:34.000Z</time>
      </trkpt>
      <trkpt lat="47.10895" lon="-1.93797">
        <ele>72</ele>
        <time>2021-09-04T08:35:36.000Z</time>
      </trkpt>
      <trkpt lat="47.1091" lon="-1.93793">
        <ele>71</ele>
        <time>2021-09-04T08:35:38.000Z</time>
      </trkpt>
      <trkpt lat="47.10925" lon="-1.93789">
        <ele>70</ele>
        <time>2021-09-04T08:35:40.000Z</time>
      </trkpt>
      <trkpt lat="47.1094" lon="-1.93785">
        <ele>70</ele>
        <time>2021-09-04T08:35:42.000Z</time>
      </trkpt>
      <trkpt lat="47.10954" lon="-1.93781">
        <ele>70</ele>
        <time>2021-09-04T08:35:44.000Z</time>
      </trkpt>
      <trkpt lat="47.10968" lon="-1.93777">
        <ele>70</ele>
        <time>2021-09-04T08:35:46.000Z</time>
      </trkpt>
      <trkpt lat="47.10982" lon="-1.93773">
        <ele>70</ele>
        <time>2021-09-04T08:35:48.000Z</time>
      </trkpt>
      <trkpt lat="47.10996" lon="-1.93769">
        <ele>70</ele>
        <time>2021-09-04T08:35:50.000Z</time>
      </trkpt>
      <trkpt lat="47.11011" lon="-1.93766">
        <ele>70</ele>
        <time>2021-09-04T08:35:52.000Z</time>
      </trkpt>
      <trkpt lat="47.11025" lon="-1.93763">
        <ele>70</ele>
        <time>2021-09-04T08:35:54.000Z</time>
      </trkpt>
      <trkpt lat="47.1104" lon="-1.93761">
        <ele>70</ele>
        <time>2021-09-04T08:35:56.000Z</time>
      </trkpt>
      <trkpt lat="47.11054" lon="-1.93761">
        <ele>69</ele>
        <time>2021-09-04T08:35:58.000Z</time>
      </trkpt>
      <trkpt lat="47.11068" lon="-1.93761">
        <ele>69</ele>
        <time>2021-09-04T08:36:00.000Z</time>
      </trkpt>
      <trkpt lat="47.11083" lon="-1.93762">
        <ele>69</ele>
        <time>2021-09-04T08:36:02.000Z</time>
      </trkpt>
      <trkpt lat="47.11097" lon="-1.93763">
        <ele>69</ele>
        <time>2021-09-04T08:36:04.000Z</time>
      </trkpt>
      <trkpt lat="47.11112" lon="-1.93764">
        <ele>68</ele>
        <time>2021-09-04T08:36:06.000Z</time>
      </trkpt>
      <trkpt lat="47.11126" lon="-1.93765">
        <ele>68</ele>
        <time>2021-09-04T08:36:08.000Z</time>
      </trkpt>
      <trkpt lat="47.1114" lon="-1.93766">
        <ele>68</ele>
        <time>2021-09-04T08:36:10.000Z</time>
      </trkpt>
      <trkpt lat="47.11155" lon="-1.93768">
        <ele>68</ele>
        <time>2021-09-04T08:36:12.000Z</time>
      </trkpt>
      <trkpt lat="47.11169" lon="-1.93769">
        <ele>68</ele>
        <time>2021-09-04T08:36:14.000Z</time>
      </trkpt>
      <trkpt lat="47.11184" lon="-1.9377">
        <ele>68</ele>
        <time>2021-09-04T08:36:16.000Z</time>
      </trkpt>
      <trkpt lat="47.11199" lon="-1.93771">
        <ele>67</ele>
        <time>2021-09-04T08:36:18.000Z</time>
      </trkpt>
      <trkpt lat="47.11213" lon="-1.93771">
        <ele>67</ele>
        <time>2021-09-04T08:36:20.000Z</time>
      </trkpt>
      <trkpt lat="47.11226" lon="-1.93773">
        <ele>67</ele>
        <time>2021-09-04T08:36:22.000Z</time>
      </trkpt>
      <trkpt lat="47.1124" lon="-1.93774">
        <ele>67</ele>
        <time>2021-09-04T08:36:24.000Z</time>
      </trkpt>
      <trkpt lat="47.11254" lon="-1.93775">
        <ele>67</ele>
        <time>2021-09-04T08:36:26.000Z</time>
      </trkpt>
      <trkpt lat="47.11268" lon="-1.93776">
        <ele>67</ele>
        <time>2021-09-04T08:36:28.000Z</time>
      </trkpt>
      <trkpt lat="47.11282" lon="-1.93777">
        <ele>67</ele>
        <time>2021-09-04T08:36:30.000Z</time>
      </trkpt>
      <trkpt lat="47.11296" lon="-1.93778">
        <ele>66</ele>
        <time>2021-09-04T08:36:32.000Z</time>
      </trkpt>
      <trkpt lat="47.11309" lon="-1.93779">
        <ele>66</ele>
        <time>2021-09-04T08:36:34.000Z</time>
      </trkpt>
      <trkpt lat="47.11321" lon="-1.9378">
        <ele>66</ele>
        <time>2021-09-04T08:36:36.000Z</time>
      </trkpt>
      <trkpt lat="47.11335" lon="-1.93781">
        <ele>65</ele>
        <time>2021-09-04T08:36:38.000Z</time>
      </trkpt>
      <trkpt lat="47.11347" lon="-1.93781">
        <ele>65</ele>
        <time>2021-09-04T08:36:40.000Z</time>
      </trkpt>
      <trkpt lat="47.11358" lon="-1.93782">
        <ele>65</ele>
        <time>2021-09-04T08:36:42.000Z</time>
      </trkpt>
      <trkpt lat="47.1137" lon="-1.93777">
        <ele>64</ele>
        <time>2021-09-04T08:36:45.000Z</time>
      </trkpt>
      <trkpt lat="47.11382" lon="-1.9378">
        <ele>64</ele>
        <time>2021-09-04T08:36:48.000Z</time>
      </trkpt>
      <trkpt lat="47.11389" lon="-1.93794">
        <ele>63</ele>
        <time>2021-09-04T08:36:50.000Z</time>
      </trkpt>
      <trkpt lat="47.11397" lon="-1.93808">
        <ele>64</ele>
        <time>2021-09-04T08:36:52.000Z</time>
      </trkpt>
      <trkpt lat="47.11405" lon="-1.93822">
        <ele>64</ele>
        <time>2021-09-04T08:36:54.000Z</time>
      </trkpt>
      <trkpt lat="47.11414" lon="-1.93838">
        <ele>64</ele>
        <time>2021-09-04T08:36:56.000Z</time>
      </trkpt>
      <trkpt lat="47.11422" lon="-1.93853">
        <ele>63</ele>
        <time>2021-09-04T08:36:58.000Z</time>
      </trkpt>
      <trkpt lat="47.11432" lon="-1.93867">
        <ele>63</ele>
        <time>2021-09-04T08:37:00.000Z</time>
      </trkpt>
      <trkpt lat="47.11441" lon="-1.93882">
        <ele>63</ele>
        <time>2021-09-04T08:37:02.000Z</time>
      </trkpt>
      <trkpt lat="47.1145" lon="-1.93896">
        <ele>62</ele>
        <time>2021-09-04T08:37:04.000Z</time>
      </trkpt>
      <trkpt lat="47.11458" lon="-1.9391">
        <ele>62</ele>
        <time>2021-09-04T08:37:06.000Z</time>
      </trkpt>
      <trkpt lat="47.11467" lon="-1.93923">
        <ele>62</ele>
        <time>2021-09-04T08:37:08.000Z</time>
      </trkpt>
      <trkpt lat="47.11477" lon="-1.93937">
        <ele>62</ele>
        <time>2021-09-04T08:37:10.000Z</time>
      </trkpt>
      <trkpt lat="47.11487" lon="-1.93952">
        <ele>61</ele>
        <time>2021-09-04T08:37:12.000Z</time>
      </trkpt>
      <trkpt lat="47.11497" lon="-1.93966">
        <ele>61</ele>
        <time>2021-09-04T08:37:14.000Z</time>
      </trkpt>
      <trkpt lat="47.11507" lon="-1.9398">
        <ele>61</ele>
        <time>2021-09-04T08:37:16.000Z</time>
      </trkpt>
      <trkpt lat="47.11518" lon="-1.93993">
        <ele>60</ele>
        <time>2021-09-04T08:37:18.000Z</time>
      </trkpt>
      <trkpt lat="47.11526" lon="-1.94008">
        <ele>60</ele>
        <time>2021-09-04T08:37:20.000Z</time>
      </trkpt>
      <trkpt lat="47.11535" lon="-1.94023">
        <ele>60</ele>
        <time>2021-09-04T08:37:22.000Z</time>
      </trkpt>
      <trkpt lat="47.11543" lon="-1.94039">
        <ele>60</ele>
        <time>2021-09-04T08:37:24.000Z</time>
      </trkpt>
      <trkpt lat="47.11551" lon="-1.94055">
        <ele>60</ele>
        <time>2021-09-04T08:37:26.000Z</time>
      </trkpt>
      <trkpt lat="47.11559" lon="-1.94071">
        <ele>60</ele>
        <time>2021-09-04T08:37:28.000Z</time>
      </trkpt>
      <trkpt lat="47.11568" lon="-1.94088">
        <ele>60</ele>
        <time>2021-09-04T08:37:30.000Z</time>
      </trkpt>
      <trkpt lat="47.11578" lon="-1.94105">
        <ele>60</ele>
        <time>2021-09-04T08:37:32.000Z</time>
      </trkpt>
      <trkpt lat="47.11586" lon="-1.94124">
        <ele>60</ele>
        <time>2021-09-04T08:37:34.000Z</time>
      </trkpt>
      <trkpt lat="47.11593" lon="-1.94142">
        <ele>60</ele>
        <time>2021-09-04T08:37:36.000Z</time>
      </trkpt>
      <trkpt lat="47.116" lon="-1.9416">
        <ele>59</ele>
        <time>2021-09-04T08:37:38.000Z</time>
      </trkpt>
      <trkpt lat="47.11607" lon="-1.94177">
        <ele>59</ele>
        <time>2021-09-04T08:37:40.000Z</time>
      </trkpt>
      <trkpt lat="47.11614" lon="-1.94195">
        <ele>59</ele>
        <time>2021-09-04T08:37:42.000Z</time>
      </trkpt>
      <trkpt lat="47.11621" lon="-1.94213">
        <ele>59</ele>
        <time>2021-09-04T08:37:44.000Z</time>
      </trkpt>
      <trkpt lat="47.11628" lon="-1.94231">
        <ele>59</ele>
        <time>2021-09-04T08:37:46.000Z</time>
      </trkpt>
      <trkpt lat="47.11634" lon="-1.94249">
        <ele>58</ele>
        <time>2021-09-04T08:37:48.000Z</time>
      </trkpt>
      <trkpt lat="47.11641" lon="-1.94267">
        <ele>58</ele>
        <time>2021-09-04T08:37:50.000Z</time>
      </trkpt>
      <trkpt lat="47.11647" lon="-1.94285">
        <ele>58</ele>
        <time>2021-09-04T08:37:52.000Z</time>
      </trkpt>
      <trkpt lat="47.11652" lon="-1.94304">
        <ele>58</ele>
        <time>2021-09-04T08:37:54.000Z</time>
      </trkpt>
      <trkpt lat="47.11655" lon="-1.94323">
        <ele>58</ele>
        <time>2021-09-04T08:37:56.000Z</time>
      </trkpt>
      <trkpt lat="47.1166" lon="-1.94342">
        <ele>57</ele>
        <time>2021-09-04T08:37:58.000Z</time>
      </trkpt>
      <trkpt lat="47.11666" lon="-1.94361">
        <ele>57</ele>
        <time>2021-09-04T08:38:00.000Z</time>
      </trkpt>
      <trkpt lat="47.1167" lon="-1.9438">
        <ele>57</ele>
        <time>2021-09-04T08:38:02.000Z</time>
      </trkpt>
      <trkpt lat="47.11675" lon="-1.94398">
        <ele>57</ele>
        <time>2021-09-04T08:38:04.000Z</time>
      </trkpt>
      <trkpt lat="47.11679" lon="-1.94416">
        <ele>57</ele>
        <time>2021-09-04T08:38:06.000Z</time>
      </trkpt>
      <trkpt lat="47.11682" lon="-1.94434">
        <ele>57</ele>
        <time>2021-09-04T08:38:08.000Z</time>
      </trkpt>
      <trkpt lat="47.11684" lon="-1.94454">
        <ele>58</ele>
        <time>2021-09-04T08:38:10.000Z</time>
      </trkpt>
      <trkpt lat="47.11686" lon="-1.94474">
        <ele>57</ele>
        <time>2021-09-04T08:38:12.000Z</time>
      </trkpt>
      <trkpt lat="47.11688" lon="-1.94494">
        <ele>57</ele>
        <time>2021-09-04T08:38:14.000Z</time>
      </trkpt>
      <trkpt lat="47.11689" lon="-1.94513">
        <ele>57</ele>
        <time>2021-09-04T08:38:16.000Z</time>
      </trkpt>
      <trkpt lat="47.1169" lon="-1.94532">
        <ele>57</ele>
        <time>2021-09-04T08:38:18.000Z</time>
      </trkpt>
      <trkpt lat="47.1169" lon="-1.94551">
        <ele>56</ele>
        <time>2021-09-04T08:38:20.000Z</time>
      </trkpt>
      <trkpt lat="47.11688" lon="-1.94569">
        <ele>57</ele>
        <time>2021-09-04T08:38:22.000Z</time>
      </trkpt>
      <trkpt lat="47.11685" lon="-1.94587">
        <ele>57</ele>
        <time>2021-09-04T08:38:24.000Z</time>
      </trkpt>
      <trkpt lat="47.11681" lon="-1.94605">
        <ele>57</ele>
        <time>2021-09-04T08:38:26.000Z</time>
      </trkpt>
      <trkpt lat="47.11678" lon="-1.94624">
        <ele>57</ele>
        <time>2021-09-04T08:38:28.000Z</time>
      </trkpt>
      <trkpt lat="47.11675" lon="-1.94642">
        <ele>57</ele>
        <time>2021-09-04T08:38:30.000Z</time>
      </trkpt>
      <trkpt lat="47.11672" lon="-1.9466">
        <ele>57</ele>
        <time>2021-09-04T08:38:32.000Z</time>
      </trkpt>
      <trkpt lat="47.11668" lon="-1.94679">
        <ele>56</ele>
        <time>2021-09-04T08:38:34.000Z</time>
      </trkpt>
      <trkpt lat="47.11664" lon="-1.94698">
        <ele>56</ele>
        <time>2021-09-04T08:38:36.000Z</time>
      </trkpt>
      <trkpt lat="47.11661" lon="-1.94717">
        <ele>56</ele>
        <time>2021-09-04T08:38:38.000Z</time>
      </trkpt>
      <trkpt lat="47.11656" lon="-1.94736">
        <ele>56</ele>
        <time>2021-09-04T08:38:40.000Z</time>
      </trkpt>
      <trkpt lat="47.11653" lon="-1.94753">
        <ele>56</ele>
        <time>2021-09-04T08:38:42.000Z</time>
      </trkpt>
      <trkpt lat="47.11649" lon="-1.94772">
        <ele>56</ele>
        <time>2021-09-04T08:38:44.000Z</time>
      </trkpt>
      <trkpt lat="47.11644" lon="-1.94788">
        <ele>56</ele>
        <time>2021-09-04T08:38:46.000Z</time>
      </trkpt>
      <trkpt lat="47.11637" lon="-1.94804">
        <ele>56</ele>
        <time>2021-09-04T08:38:48.000Z</time>
      </trkpt>
      <trkpt lat="47.11628" lon="-1.9482">
        <ele>56</ele>
        <time>2021-09-04T08:38:50.000Z</time>
      </trkpt>
      <trkpt lat="47.11619" lon="-1.94832">
        <ele>56</ele>
        <time>2021-09-04T08:38:52.000Z</time>
      </trkpt>
      <trkpt lat="47.11608" lon="-1.94845">
        <ele>56</ele>
        <time>2021-09-04T08:38:54.000Z</time>
      </trkpt>
      <trkpt lat="47.11596" lon="-1.94853">
        <ele>57</ele>
        <time>2021-09-04T08:38:56.000Z</time>
      </trkpt>
      <trkpt lat="47.11583" lon="-1.94859">
        <ele>57</ele>
        <time>2021-09-04T08:38:58.000Z</time>
      </trkpt>
      <trkpt lat="47.11571" lon="-1.94865">
        <ele>56</ele>
        <time>2021-09-04T08:39:00.000Z</time>
      </trkpt>
      <trkpt lat="47.11559" lon="-1.94871">
        <ele>56</ele>
        <time>2021-09-04T08:39:02.000Z</time>
      </trkpt>
      <trkpt lat="47.11548" lon="-1.94881">
        <ele>56</ele>
        <time>2021-09-04T08:39:04.000Z</time>
      </trkpt>
      <trkpt lat="47.11542" lon="-1.94896">
        <ele>56</ele>
        <time>2021-09-04T08:39:06.000Z</time>
      </trkpt>
      <trkpt lat="47.1155" lon="-1.9491">
        <ele>57</ele>
        <time>2021-09-04T08:39:08.000Z</time>
      </trkpt>
      <trkpt lat="47.11562" lon="-1.94918">
        <ele>58</ele>
        <time>2021-09-04T08:39:10.000Z</time>
      </trkpt>
      <trkpt lat="47.1157" lon="-1.9493">
        <ele>60</ele>
        <time>2021-09-04T08:39:12.000Z</time>
      </trkpt>
      <trkpt lat="47.11574" lon="-1.94947">
        <ele>60</ele>
        <time>2021-09-04T08:39:14.000Z</time>
      </trkpt>
      <trkpt lat="47.11576" lon="-1.94964">
        <ele>59</ele>
        <time>2021-09-04T08:39:16.000Z</time>
      </trkpt>
      <trkpt lat="47.11582" lon="-1.94978">
        <ele>59</ele>
        <time>2021-09-04T08:39:18.000Z</time>
      </trkpt>
      <trkpt lat="47.11591" lon="-1.9499">
        <ele>60</ele>
        <time>2021-09-04T08:39:20.000Z</time>
      </trkpt>
      <trkpt lat="47.116" lon="-1.95">
        <ele>61</ele>
        <time>2021-09-04T08:39:22.000Z</time>
      </trkpt>
      <trkpt lat="47.11609" lon="-1.95007">
        <ele>62</ele>
        <time>2021-09-04T08:39:24.000Z</time>
      </trkpt>
      <trkpt lat="47.11618" lon="-1.95014">
        <ele>62</ele>
        <time>2021-09-04T08:39:26.000Z</time>
      </trkpt>
      <trkpt lat="47.11627" lon="-1.95021">
        <ele>63</ele>
        <time>2021-09-04T08:39:28.000Z</time>
      </trkpt>
      <trkpt lat="47.11637" lon="-1.95028">
        <ele>64</ele>
        <time>2021-09-04T08:39:30.000Z</time>
      </trkpt>
      <trkpt lat="47.11646" lon="-1.95036">
        <ele>64</ele>
        <time>2021-09-04T08:39:32.000Z</time>
      </trkpt>
      <trkpt lat="47.11656" lon="-1.95043">
        <ele>65</ele>
        <time>2021-09-04T08:39:34.000Z</time>
      </trkpt>
      <trkpt lat="47.11666" lon="-1.95051">
        <ele>65</ele>
        <time>2021-09-04T08:39:36.000Z</time>
      </trkpt>
      <trkpt lat="47.11676" lon="-1.95059">
        <ele>65</ele>
        <time>2021-09-04T08:39:38.000Z</time>
      </trkpt>
      <trkpt lat="47.11686" lon="-1.95068">
        <ele>65</ele>
        <time>2021-09-04T08:39:40.000Z</time>
      </trkpt>
      <trkpt lat="47.11697" lon="-1.95075">
        <ele>64</ele>
        <time>2021-09-04T08:39:42.000Z</time>
      </trkpt>
      <trkpt lat="47.11707" lon="-1.95083">
        <ele>64</ele>
        <time>2021-09-04T08:39:44.000Z</time>
      </trkpt>
      <trkpt lat="47.11718" lon="-1.95092">
        <ele>64</ele>
        <time>2021-09-04T08:39:46.000Z</time>
      </trkpt>
      <trkpt lat="47.1173" lon="-1.95101">
        <ele>63</ele>
        <time>2021-09-04T08:39:48.000Z</time>
      </trkpt>
      <trkpt lat="47.11744" lon="-1.95107">
        <ele>62</ele>
        <time>2021-09-04T08:39:50.000Z</time>
      </trkpt>
      <trkpt lat="47.11759" lon="-1.95107">
        <ele>61</ele>
        <time>2021-09-04T08:39:52.000Z</time>
      </trkpt>
      <trkpt lat="47.11774" lon="-1.95114">
        <ele>61</ele>
        <time>2021-09-04T08:39:54.000Z</time>
      </trkpt>
      <trkpt lat="47.11786" lon="-1.95129">
        <ele>61</ele>
        <time>2021-09-04T08:39:56.000Z</time>
      </trkpt>
      <trkpt lat="47.11796" lon="-1.95145">
        <ele>60</ele>
        <time>2021-09-04T08:39:58.000Z</time>
      </trkpt>
      <trkpt lat="47.11808" lon="-1.95158">
        <ele>60</ele>
        <time>2021-09-04T08:40:00.000Z</time>
      </trkpt>
      <trkpt lat="47.1182" lon="-1.95168">
        <ele>60</ele>
        <time>2021-09-04T08:40:02.000Z</time>
      </trkpt>
      <trkpt lat="47.11833" lon="-1.95176">
        <ele>60</ele>
        <time>2021-09-04T08:40:04.000Z</time>
      </trkpt>
      <trkpt lat="47.11845" lon="-1.95183">
        <ele>60</ele>
        <time>2021-09-04T08:40:06.000Z</time>
      </trkpt>
      <trkpt lat="47.11858" lon="-1.9519">
        <ele>60</ele>
        <time>2021-09-04T08:40:08.000Z</time>
      </trkpt>
      <trkpt lat="47.11871" lon="-1.95197">
        <ele>60</ele>
        <time>2021-09-04T08:40:10.000Z</time>
      </trkpt>
      <trkpt lat="47.11885" lon="-1.95203">
        <ele>60</ele>
        <time>2021-09-04T08:40:12.000Z</time>
      </trkpt>
      <trkpt lat="47.11898" lon="-1.95209">
        <ele>60</ele>
        <time>2021-09-04T08:40:14.000Z</time>
      </trkpt>
      <trkpt lat="47.11911" lon="-1.95215">
        <ele>60</ele>
        <time>2021-09-04T08:40:16.000Z</time>
      </trkpt>
      <trkpt lat="47.11924" lon="-1.9522">
        <ele>61</ele>
        <time>2021-09-04T08:40:18.000Z</time>
      </trkpt>
      <trkpt lat="47.11937" lon="-1.95226">
        <ele>61</ele>
        <time>2021-09-04T08:40:20.000Z</time>
      </trkpt>
      <trkpt lat="47.1195" lon="-1.95232">
        <ele>61</ele>
        <time>2021-09-04T08:40:22.000Z</time>
      </trkpt>
      <trkpt lat="47.11963" lon="-1.95238">
        <ele>61</ele>
        <time>2021-09-04T08:40:24.000Z</time>
      </trkpt>
      <trkpt lat="47.11977" lon="-1.95244">
        <ele>61</ele>
        <time>2021-09-04T08:40:26.000Z</time>
      </trkpt>
      <trkpt lat="47.1199" lon="-1.9525">
        <ele>61</ele>
        <time>2021-09-04T08:40:28.000Z</time>
      </trkpt>
      <trkpt lat="47.12003" lon="-1.95257">
        <ele>60</ele>
        <time>2021-09-04T08:40:30.000Z</time>
      </trkpt>
      <trkpt lat="47.12016" lon="-1.95265">
        <ele>60</ele>
        <time>2021-09-04T08:40:32.000Z</time>
      </trkpt>
      <trkpt lat="47.12029" lon="-1.95273">
        <ele>60</ele>
        <time>2021-09-04T08:40:34.000Z</time>
      </trkpt>
      <trkpt lat="47.12041" lon="-1.95284">
        <ele>60</ele>
        <time>2021-09-04T08:40:36.000Z</time>
      </trkpt>
      <trkpt lat="47.12053" lon="-1.95294">
        <ele>60</ele>
        <time>2021-09-04T08:40:38.000Z</time>
      </trkpt>
      <trkpt lat="47.12065" lon="-1.95305">
        <ele>60</ele>
        <time>2021-09-04T08:40:40.000Z</time>
      </trkpt>
      <trkpt lat="47.12077" lon="-1.95317">
        <ele>60</ele>
        <time>2021-09-04T08:40:42.000Z</time>
      </trkpt>
      <trkpt lat="47.12089" lon="-1.95328">
        <ele>60</ele>
        <time>2021-09-04T08:40:44.000Z</time>
      </trkpt>
      <trkpt lat="47.121" lon="-1.95339">
        <ele>61</ele>
        <time>2021-09-04T08:40:46.000Z</time>
      </trkpt>
      <trkpt lat="47.12112" lon="-1.95351">
        <ele>60</ele>
        <time>2021-09-04T08:40:48.000Z</time>
      </trkpt>
      <trkpt lat="47.12122" lon="-1.95366">
        <ele>59</ele>
        <time>2021-09-04T08:40:50.000Z</time>
      </trkpt>
      <trkpt lat="47.12131" lon="-1.95381">
        <ele>59</ele>
        <time>2021-09-04T08:40:52.000Z</time>
      </trkpt>
      <trkpt lat="47.1214" lon="-1.95397">
        <ele>58</ele>
        <time>2021-09-04T08:40:54.000Z</time>
      </trkpt>
      <trkpt lat="47.12148" lon="-1.95415">
        <ele>58</ele>
        <time>2021-09-04T08:40:56.000Z</time>
      </trkpt>
      <trkpt lat="47.12156" lon="-1.95431">
        <ele>57</ele>
        <time>2021-09-04T08:40:58.000Z</time>
      </trkpt>
      <trkpt lat="47.12164" lon="-1.95449">
        <ele>57</ele>
        <time>2021-09-04T08:41:00.000Z</time>
      </trkpt>
      <trkpt lat="47.12172" lon="-1.95467">
        <ele>57</ele>
        <time>2021-09-04T08:41:02.000Z</time>
      </trkpt>
      <trkpt lat="47.12181" lon="-1.95484">
        <ele>57</ele>
        <time>2021-09-04T08:41:04.000Z</time>
      </trkpt>
      <trkpt lat="47.12189" lon="-1.95501">
        <ele>57</ele>
        <time>2021-09-04T08:41:06.000Z</time>
      </trkpt>
      <trkpt lat="47.12198" lon="-1.95519">
        <ele>56</ele>
        <time>2021-09-04T08:41:08.000Z</time>
      </trkpt>
      <trkpt lat="47.12207" lon="-1.95536">
        <ele>56</ele>
        <time>2021-09-04T08:41:10.000Z</time>
      </trkpt>
      <trkpt lat="47.12215" lon="-1.95553">
        <ele>56</ele>
        <time>2021-09-04T08:41:12.000Z</time>
      </trkpt>
      <trkpt lat="47.12225" lon="-1.95567">
        <ele>56</ele>
        <time>2021-09-04T08:41:14.000Z</time>
      </trkpt>
      <trkpt lat="47.12235" lon="-1.95581">
        <ele>56</ele>
        <time>2021-09-04T08:41:16.000Z</time>
      </trkpt>
      <trkpt lat="47.12246" lon="-1.95594">
        <ele>56</ele>
        <time>2021-09-04T08:41:18.000Z</time>
      </trkpt>
      <trkpt lat="47.12257" lon="-1.95605">
        <ele>56</ele>
        <time>2021-09-04T08:41:20.000Z</time>
      </trkpt>
      <trkpt lat="47.12269" lon="-1.95616">
        <ele>56</ele>
        <time>2021-09-04T08:41:22.000Z</time>
      </trkpt>
      <trkpt lat="47.12281" lon="-1.95627">
        <ele>56</ele>
        <time>2021-09-04T08:41:24.000Z</time>
      </trkpt>
      <trkpt lat="47.12293" lon="-1.95638">
        <ele>56</ele>
        <time>2021-09-04T08:41:26.000Z</time>
      </trkpt>
      <trkpt lat="47.12304" lon="-1.95649">
        <ele>56</ele>
        <time>2021-09-04T08:41:28.000Z</time>
      </trkpt>
      <trkpt lat="47.12316" lon="-1.9566">
        <ele>56</ele>
        <time>2021-09-04T08:41:30.000Z</time>
      </trkpt>
      <trkpt lat="47.12328" lon="-1.95671">
        <ele>56</ele>
        <time>2021-09-04T08:41:32.000Z</time>
      </trkpt>
      <trkpt lat="47.12339" lon="-1.95682">
        <ele>56</ele>
        <time>2021-09-04T08:41:34.000Z</time>
      </trkpt>
      <trkpt lat="47.12351" lon="-1.95694">
        <ele>56</ele>
        <time>2021-09-04T08:41:36.000Z</time>
      </trkpt>
      <trkpt lat="47.12363" lon="-1.95705">
        <ele>56</ele>
        <time>2021-09-04T08:41:38.000Z</time>
      </trkpt>
      <trkpt lat="47.12375" lon="-1.95716">
        <ele>56</ele>
        <time>2021-09-04T08:41:40.000Z</time>
      </trkpt>
      <trkpt lat="47.12386" lon="-1.95727">
        <ele>56</ele>
        <time>2021-09-04T08:41:42.000Z</time>
      </trkpt>
      <trkpt lat="47.12397" lon="-1.95738">
        <ele>56</ele>
        <time>2021-09-04T08:41:44.000Z</time>
      </trkpt>
      <trkpt lat="47.12409" lon="-1.95749">
        <ele>56</ele>
        <time>2021-09-04T08:41:46.000Z</time>
      </trkpt>
      <trkpt lat="47.12421" lon="-1.9576">
        <ele>56</ele>
        <time>2021-09-04T08:41:48.000Z</time>
      </trkpt>
      <trkpt lat="47.12432" lon="-1.95771">
        <ele>56</ele>
        <time>2021-09-04T08:41:50.000Z</time>
      </trkpt>
      <trkpt lat="47.12443" lon="-1.95782">
        <ele>56</ele>
        <time>2021-09-04T08:41:52.000Z</time>
      </trkpt>
      <trkpt lat="47.12455" lon="-1.95793">
        <ele>57</ele>
        <time>2021-09-04T08:41:54.000Z</time>
      </trkpt>
      <trkpt lat="47.12466" lon="-1.95803">
        <ele>57</ele>
        <time>2021-09-04T08:41:56.000Z</time>
      </trkpt>
      <trkpt lat="47.12478" lon="-1.95815">
        <ele>57</ele>
        <time>2021-09-04T08:41:58.000Z</time>
      </trkpt>
      <trkpt lat="47.12488" lon="-1.95827">
        <ele>57</ele>
        <time>2021-09-04T08:42:00.000Z</time>
      </trkpt>
      <trkpt lat="47.12499" lon="-1.95839">
        <ele>58</ele>
        <time>2021-09-04T08:42:02.000Z</time>
      </trkpt>
      <trkpt lat="47.1251" lon="-1.95851">
        <ele>58</ele>
        <time>2021-09-04T08:42:04.000Z</time>
      </trkpt>
      <trkpt lat="47.1252" lon="-1.95864">
        <ele>58</ele>
        <time>2021-09-04T08:42:06.000Z</time>
      </trkpt>
      <trkpt lat="47.12529" lon="-1.95877">
        <ele>58</ele>
        <time>2021-09-04T08:42:08.000Z</time>
      </trkpt>
      <trkpt lat="47.12539" lon="-1.95891">
        <ele>58</ele>
        <time>2021-09-04T08:42:10.000Z</time>
      </trkpt>
      <trkpt lat="47.12548" lon="-1.95905">
        <ele>58</ele>
        <time>2021-09-04T08:42:12.000Z</time>
      </trkpt>
      <trkpt lat="47.12557" lon="-1.95921">
        <ele>58</ele>
        <time>2021-09-04T08:42:14.000Z</time>
      </trkpt>
      <trkpt lat="47.12565" lon="-1.95936">
        <ele>58</ele>
        <time>2021-09-04T08:42:16.000Z</time>
      </trkpt>
      <trkpt lat="47.12574" lon="-1.95952">
        <ele>59</ele>
        <time>2021-09-04T08:42:18.000Z</time>
      </trkpt>
      <trkpt lat="47.12582" lon="-1.95967">
        <ele>58</ele>
        <time>2021-09-04T08:42:20.000Z</time>
      </trkpt>
      <trkpt lat="47.12591" lon="-1.95983">
        <ele>59</ele>
        <time>2021-09-04T08:42:22.000Z</time>
      </trkpt>
      <trkpt lat="47.12599" lon="-1.95999">
        <ele>59</ele>
        <time>2021-09-04T08:42:24.000Z</time>
      </trkpt>
      <trkpt lat="47.12608" lon="-1.96015">
        <ele>59</ele>
        <time>2021-09-04T08:42:26.000Z</time>
      </trkpt>
      <trkpt lat="47.12616" lon="-1.96031">
        <ele>59</ele>
        <time>2021-09-04T08:42:28.000Z</time>
      </trkpt>
      <trkpt lat="47.12624" lon="-1.96047">
        <ele>59</ele>
        <time>2021-09-04T08:42:30.000Z</time>
      </trkpt>
      <trkpt lat="47.12633" lon="-1.96063">
        <ele>58</ele>
        <time>2021-09-04T08:42:32.000Z</time>
      </trkpt>
      <trkpt lat="47.1264" lon="-1.9608">
        <ele>59</ele>
        <time>2021-09-04T08:42:34.000Z</time>
      </trkpt>
      <trkpt lat="47.12648" lon="-1.96097">
        <ele>58</ele>
        <time>2021-09-04T08:42:36.000Z</time>
      </trkpt>
      <trkpt lat="47.12656" lon="-1.96114">
        <ele>58</ele>
        <time>2021-09-04T08:42:38.000Z</time>
      </trkpt>
      <trkpt lat="47.12663" lon="-1.96132">
        <ele>58</ele>
        <time>2021-09-04T08:42:40.000Z</time>
      </trkpt>
      <trkpt lat="47.12671" lon="-1.96149">
        <ele>58</ele>
        <time>2021-09-04T08:42:42.000Z</time>
      </trkpt>
      <trkpt lat="47.12678" lon="-1.96167">
        <ele>58</ele>
        <time>2021-09-04T08:42:44.000Z</time>
      </trkpt>
      <trkpt lat="47.12686" lon="-1.96184">
        <ele>58</ele>
        <time>2021-09-04T08:42:46.000Z</time>
      </trkpt>
      <trkpt lat="47.12693" lon="-1.96202">
        <ele>58</ele>
        <time>2021-09-04T08:42:48.000Z</time>
      </trkpt>
      <trkpt lat="47.127" lon="-1.96221">
        <ele>58</ele>
        <time>2021-09-04T08:42:50.000Z</time>
      </trkpt>
      <trkpt lat="47.12707" lon="-1.96239">
        <ele>58</ele>
        <time>2021-09-04T08:42:52.000Z</time>
      </trkpt>
      <trkpt lat="47.12714" lon="-1.96257">
        <ele>58</ele>
        <time>2021-09-04T08:42:54.000Z</time>
      </trkpt>
      <trkpt lat="47.12721" lon="-1.96276">
        <ele>57</ele>
        <time>2021-09-04T08:42:56.000Z</time>
      </trkpt>
      <trkpt lat="47.12726" lon="-1.96295">
        <ele>57</ele>
        <time>2021-09-04T08:42:58.000Z</time>
      </trkpt>
      <trkpt lat="47.12733" lon="-1.96313">
        <ele>56</ele>
        <time>2021-09-04T08:43:00.000Z</time>
      </trkpt>
      <trkpt lat="47.1274" lon="-1.96332">
        <ele>57</ele>
        <time>2021-09-04T08:43:02.000Z</time>
      </trkpt>
      <trkpt lat="47.12746" lon="-1.9635">
        <ele>57</ele>
        <time>2021-09-04T08:43:04.000Z</time>
      </trkpt>
      <trkpt lat="47.12752" lon="-1.96368">
        <ele>56</ele>
        <time>2021-09-04T08:43:06.000Z</time>
      </trkpt>
      <trkpt lat="47.12759" lon="-1.96387">
        <ele>56</ele>
        <time>2021-09-04T08:43:08.000Z</time>
      </trkpt>
      <trkpt lat="47.12765" lon="-1.96406">
        <ele>56</ele>
        <time>2021-09-04T08:43:10.000Z</time>
      </trkpt>
      <trkpt lat="47.12771" lon="-1.96425">
        <ele>55</ele>
        <time>2021-09-04T08:43:12.000Z</time>
      </trkpt>
      <trkpt lat="47.12778" lon="-1.96444">
        <ele>55</ele>
        <time>2021-09-04T08:43:14.000Z</time>
      </trkpt>
      <trkpt lat="47.12784" lon="-1.96463">
        <ele>55</ele>
        <time>2021-09-04T08:43:16.000Z</time>
      </trkpt>
      <trkpt lat="47.1279" lon="-1.96482">
        <ele>55</ele>
        <time>2021-09-04T08:43:18.000Z</time>
      </trkpt>
      <trkpt lat="47.12797" lon="-1.965">
        <ele>55</ele>
        <time>2021-09-04T08:43:20.000Z</time>
      </trkpt>
      <trkpt lat="47.12803" lon="-1.96518">
        <ele>55</ele>
        <time>2021-09-04T08:43:22.000Z</time>
      </trkpt>
      <trkpt lat="47.1281" lon="-1.96537">
        <ele>55</ele>
        <time>2021-09-04T08:43:24.000Z</time>
      </trkpt>
      <trkpt lat="47.12816" lon="-1.96555">
        <ele>56</ele>
        <time>2021-09-04T08:43:26.000Z</time>
      </trkpt>
      <trkpt lat="47.12823" lon="-1.96574">
        <ele>55</ele>
        <time>2021-09-04T08:43:28.000Z</time>
      </trkpt>
      <trkpt lat="47.12829" lon="-1.96593">
        <ele>55</ele>
        <time>2021-09-04T08:43:30.000Z</time>
      </trkpt>
      <trkpt lat="47.12836" lon="-1.96612">
        <ele>55</ele>
        <time>2021-09-04T08:43:32.000Z</time>
      </trkpt>
      <trkpt lat="47.12842" lon="-1.9663">
        <ele>55</ele>
        <time>2021-09-04T08:43:34.000Z</time>
      </trkpt>
      <trkpt lat="47.12848" lon="-1.96648">
        <ele>55</ele>
        <time>2021-09-04T08:43:36.000Z</time>
      </trkpt>
      <trkpt lat="47.12854" lon="-1.96667">
        <ele>55</ele>
        <time>2021-09-04T08:43:38.000Z</time>
      </trkpt>
      <trkpt lat="47.1286" lon="-1.96685">
        <ele>54</ele>
        <time>2021-09-04T08:43:40.000Z</time>
      </trkpt>
      <trkpt lat="47.12866" lon="-1.96702">
        <ele>54</ele>
        <time>2021-09-04T08:43:42.000Z</time>
      </trkpt>
      <trkpt lat="47.1287" lon="-1.96718">
        <ele>54</ele>
        <time>2021-09-04T08:43:44.000Z</time>
      </trkpt>
      <trkpt lat="47.12878" lon="-1.96734">
        <ele>53</ele>
        <time>2021-09-04T08:43:46.000Z</time>
      </trkpt>
      <trkpt lat="47.12887" lon="-1.96751">
        <ele>54</ele>
        <time>2021-09-04T08:43:48.000Z</time>
      </trkpt>
      <trkpt lat="47.12897" lon="-1.96768">
        <ele>53</ele>
        <time>2021-09-04T08:43:50.000Z</time>
      </trkpt>
      <trkpt lat="47.12908" lon="-1.96781">
        <ele>54</ele>
        <time>2021-09-04T08:43:52.000Z</time>
      </trkpt>
      <trkpt lat="47.12922" lon="-1.96791">
        <ele>54</ele>
        <time>2021-09-04T08:43:54.000Z</time>
      </trkpt>
      <trkpt lat="47.12936" lon="-1.968">
        <ele>54</ele>
        <time>2021-09-04T08:43:56.000Z</time>
      </trkpt>
      <trkpt lat="47.1295" lon="-1.96809">
        <ele>54</ele>
        <time>2021-09-04T08:43:58.000Z</time>
      </trkpt>
      <trkpt lat="47.12964" lon="-1.96817">
        <ele>54</ele>
        <time>2021-09-04T08:44:00.000Z</time>
      </trkpt>
      <trkpt lat="47.12979" lon="-1.96826">
        <ele>55</ele>
        <time>2021-09-04T08:44:02.000Z</time>
      </trkpt>
      <trkpt lat="47.12992" lon="-1.96834">
        <ele>55</ele>
        <time>2021-09-04T08:44:04.000Z</time>
      </trkpt>
      <trkpt lat="47.13006" lon="-1.96842">
        <ele>55</ele>
        <time>2021-09-04T08:44:06.000Z</time>
      </trkpt>
      <trkpt lat="47.1302" lon="-1.9685">
        <ele>55</ele>
        <time>2021-09-04T08:44:08.000Z</time>
      </trkpt>
      <trkpt lat="47.13033" lon="-1.96858">
        <ele>55</ele>
        <time>2021-09-04T08:44:10.000Z</time>
      </trkpt>
      <trkpt lat="47.13046" lon="-1.96866">
        <ele>55</ele>
        <time>2021-09-04T08:44:12.000Z</time>
      </trkpt>
      <trkpt lat="47.13059" lon="-1.96877">
        <ele>55</ele>
        <time>2021-09-04T08:44:14.000Z</time>
      </trkpt>
      <trkpt lat="47.13072" lon="-1.96889">
        <ele>55</ele>
        <time>2021-09-04T08:44:16.000Z</time>
      </trkpt>
      <trkpt lat="47.13084" lon="-1.96903">
        <ele>55</ele>
        <time>2021-09-04T08:44:18.000Z</time>
      </trkpt>
      <trkpt lat="47.13096" lon="-1.96918">
        <ele>54</ele>
        <time>2021-09-04T08:44:20.000Z</time>
      </trkpt>
      <trkpt lat="47.13107" lon="-1.96934">
        <ele>54</ele>
        <time>2021-09-04T08:44:22.000Z</time>
      </trkpt>
      <trkpt lat="47.13118" lon="-1.9695">
        <ele>54</ele>
        <time>2021-09-04T08:44:24.000Z</time>
      </trkpt>
      <trkpt lat="47.13129" lon="-1.96966">
        <ele>54</ele>
        <time>2021-09-04T08:44:26.000Z</time>
      </trkpt>
      <trkpt lat="47.1314" lon="-1.96981">
        <ele>54</ele>
        <time>2021-09-04T08:44:28.000Z</time>
      </trkpt>
      <trkpt lat="47.13151" lon="-1.96996">
        <ele>53</ele>
        <time>2021-09-04T08:44:30.000Z</time>
      </trkpt>
      <trkpt lat="47.13162" lon="-1.9701">
        <ele>54</ele>
        <time>2021-09-04T08:44:32.000Z</time>
      </trkpt>
      <trkpt lat="47.13173" lon="-1.97024">
        <ele>54</ele>
        <time>2021-09-04T08:44:34.000Z</time>
      </trkpt>
      <trkpt lat="47.13184" lon="-1.97037">
        <ele>54</ele>
        <time>2021-09-04T08:44:36.000Z</time>
      </trkpt>
      <trkpt lat="47.13195" lon="-1.97051">
        <ele>55</ele>
        <time>2021-09-04T08:44:38.000Z</time>
      </trkpt>
      <trkpt lat="47.13205" lon="-1.97065">
        <ele>55</ele>
        <time>2021-09-04T08:44:40.000Z</time>
      </trkpt>
      <trkpt lat="47.13215" lon="-1.9708">
        <ele>55</ele>
        <time>2021-09-04T08:44:42.000Z</time>
      </trkpt>
      <trkpt lat="47.13226" lon="-1.97093">
        <ele>54</ele>
        <time>2021-09-04T08:44:44.000Z</time>
      </trkpt>
      <trkpt lat="47.13237" lon="-1.97106">
        <ele>55</ele>
        <time>2021-09-04T08:44:46.000Z</time>
      </trkpt>
      <trkpt lat="47.13247" lon="-1.97119">
        <ele>55</ele>
        <time>2021-09-04T08:44:48.000Z</time>
      </trkpt>
      <trkpt lat="47.13258" lon="-1.97131">
        <ele>54</ele>
        <time>2021-09-04T08:44:50.000Z</time>
      </trkpt>
      <trkpt lat="47.13269" lon="-1.97143">
        <ele>54</ele>
        <time>2021-09-04T08:44:52.000Z</time>
      </trkpt>
      <trkpt lat="47.13281" lon="-1.97154">
        <ele>55</ele>
        <time>2021-09-04T08:44:54.000Z</time>
      </trkpt>
      <trkpt lat="47.13294" lon="-1.97163">
        <ele>55</ele>
        <time>2021-09-04T08:44:56.000Z</time>
      </trkpt>
      <trkpt lat="47.13306" lon="-1.97172">
        <ele>55</ele>
        <time>2021-09-04T08:44:58.000Z</time>
      </trkpt>
      <trkpt lat="47.1332" lon="-1.97179">
        <ele>55</ele>
        <time>2021-09-04T08:45:00.000Z</time>
      </trkpt>
      <trkpt lat="47.13333" lon="-1.97185">
        <ele>55</ele>
        <time>2021-09-04T08:45:02.000Z</time>
      </trkpt>
      <trkpt lat="47.13346" lon="-1.9719">
        <ele>55</ele>
        <time>2021-09-04T08:45:04.000Z</time>
      </trkpt>
      <trkpt lat="47.1336" lon="-1.97196">
        <ele>55</ele>
        <time>2021-09-04T08:45:06.000Z</time>
      </trkpt>
      <trkpt lat="47.13373" lon="-1.97201">
        <ele>55</ele>
        <time>2021-09-04T08:45:08.000Z</time>
      </trkpt>
      <trkpt lat="47.13387" lon="-1.97206">
        <ele>55</ele>
        <time>2021-09-04T08:45:10.000Z</time>
      </trkpt>
      <trkpt lat="47.134" lon="-1.97211">
        <ele>56</ele>
        <time>2021-09-04T08:45:12.000Z</time>
      </trkpt>
      <trkpt lat="47.13413" lon="-1.97217">
        <ele>56</ele>
        <time>2021-09-04T08:45:14.000Z</time>
      </trkpt>
      <trkpt lat="47.13427" lon="-1.97222">
        <ele>56</ele>
        <time>2021-09-04T08:45:16.000Z</time>
      </trkpt>
      <trkpt lat="47.1344" lon="-1.97228">
        <ele>56</ele>
        <time>2021-09-04T08:45:18.000Z</time>
      </trkpt>
      <trkpt lat="47.13453" lon="-1.97233">
        <ele>56</ele>
        <time>2021-09-04T08:45:20.000Z</time>
      </trkpt>
      <trkpt lat="47.13465" lon="-1.97239">
        <ele>56</ele>
        <time>2021-09-04T08:45:22.000Z</time>
      </trkpt>
      <trkpt lat="47.13478" lon="-1.97244">
        <ele>56</ele>
        <time>2021-09-04T08:45:24.000Z</time>
      </trkpt>
      <trkpt lat="47.1349" lon="-1.97249">
        <ele>56</ele>
        <time>2021-09-04T08:45:26.000Z</time>
      </trkpt>
      <trkpt lat="47.13502" lon="-1.97254">
        <ele>57</ele>
        <time>2021-09-04T08:45:28.000Z</time>
      </trkpt>
      <trkpt lat="47.13513" lon="-1.9726">
        <ele>57</ele>
        <time>2021-09-04T08:45:30.000Z</time>
      </trkpt>
      <trkpt lat="47.13523" lon="-1.97269">
        <ele>57</ele>
        <time>2021-09-04T08:45:32.000Z</time>
      </trkpt>
      <trkpt lat="47.13529" lon="-1.97283">
        <ele>56</ele>
        <time>2021-09-04T08:45:34.000Z</time>
      </trkpt>
      <trkpt lat="47.13529" lon="-1.97304">
        <ele>57</ele>
        <time>2021-09-04T08:45:36.000Z</time>
      </trkpt>
      <trkpt lat="47.1353" lon="-1.97323">
        <ele>57</ele>
        <time>2021-09-04T08:45:38.000Z</time>
      </trkpt>
      <trkpt lat="47.13532" lon="-1.97343">
        <ele>56</ele>
        <time>2021-09-04T08:45:40.000Z</time>
      </trkpt>
      <trkpt lat="47.13532" lon="-1.97362">
        <ele>56</ele>
        <time>2021-09-04T08:45:42.000Z</time>
      </trkpt>
      <trkpt lat="47.13531" lon="-1.97383">
        <ele>56</ele>
        <time>2021-09-04T08:45:44.000Z</time>
      </trkpt>
      <trkpt lat="47.1353" lon="-1.97402">
        <ele>56</ele>
        <time>2021-09-04T08:45:46.000Z</time>
      </trkpt>
      <trkpt lat="47.13529" lon="-1.97421">
        <ele>56</ele>
        <time>2021-09-04T08:45:48.000Z</time>
      </trkpt>
      <trkpt lat="47.1353" lon="-1.97441">
        <ele>56</ele>
        <time>2021-09-04T08:45:50.000Z</time>
      </trkpt>
      <trkpt lat="47.1353" lon="-1.9746">
        <ele>56</ele>
        <time>2021-09-04T08:45:52.000Z</time>
      </trkpt>
      <trkpt lat="47.1353" lon="-1.97479">
        <ele>56</ele>
        <time>2021-09-04T08:45:54.000Z</time>
      </trkpt>
      <trkpt lat="47.1353" lon="-1.97498">
        <ele>56</ele>
        <time>2021-09-04T08:45:56.000Z</time>
      </trkpt>
      <trkpt lat="47.1353" lon="-1.97517">
        <ele>56</ele>
        <time>2021-09-04T08:45:58.000Z</time>
      </trkpt>
      <trkpt lat="47.1353" lon="-1.97536">
        <ele>56</ele>
        <time>2021-09-04T08:46:00.000Z</time>
      </trkpt>
      <trkpt lat="47.13531" lon="-1.97555">
        <ele>56</ele>
        <time>2021-09-04T08:46:02.000Z</time>
      </trkpt>
      <trkpt lat="47.13531" lon="-1.97572">
        <ele>56</ele>
        <time>2021-09-04T08:46:04.000Z</time>
      </trkpt>
      <trkpt lat="47.13531" lon="-1.9759">
        <ele>56</ele>
        <time>2021-09-04T08:46:06.000Z</time>
      </trkpt>
      <trkpt lat="47.13531" lon="-1.97609">
        <ele>56</ele>
        <time>2021-09-04T08:46:08.000Z</time>
      </trkpt>
      <trkpt lat="47.13531" lon="-1.97627">
        <ele>56</ele>
        <time>2021-09-04T08:46:10.000Z</time>
      </trkpt>
      <trkpt lat="47.13531" lon="-1.97645">
        <ele>56</ele>
        <time>2021-09-04T08:46:12.000Z</time>
      </trkpt>
      <trkpt lat="47.13531" lon="-1.97664">
        <ele>56</ele>
        <time>2021-09-04T08:46:14.000Z</time>
      </trkpt>
      <trkpt lat="47.13531" lon="-1.97683">
        <ele>55</ele>
        <time>2021-09-04T08:46:16.000Z</time>
      </trkpt>
      <trkpt lat="47.1353" lon="-1.97702">
        <ele>55</ele>
        <time>2021-09-04T08:46:18.000Z</time>
      </trkpt>
      <trkpt lat="47.13529" lon="-1.97721">
        <ele>55</ele>
        <time>2021-09-04T08:46:20.000Z</time>
      </trkpt>
      <trkpt lat="47.13528" lon="-1.9774">
        <ele>54</ele>
        <time>2021-09-04T08:46:22.000Z</time>
      </trkpt>
      <trkpt lat="47.13526" lon="-1.9776">
        <ele>54</ele>
        <time>2021-09-04T08:46:24.000Z</time>
      </trkpt>
      <trkpt lat="47.13526" lon="-1.97779">
        <ele>54</ele>
        <time>2021-09-04T08:46:26.000Z</time>
      </trkpt>
      <trkpt lat="47.13525" lon="-1.97797">
        <ele>54</ele>
        <time>2021-09-04T08:46:28.000Z</time>
      </trkpt>
      <trkpt lat="47.13523" lon="-1.97815">
        <ele>54</ele>
        <time>2021-09-04T08:46:30.000Z</time>
      </trkpt>
      <trkpt lat="47.13522" lon="-1.97832">
        <ele>54</ele>
        <time>2021-09-04T08:46:32.000Z</time>
      </trkpt>
      <trkpt lat="47.13522" lon="-1.97849">
        <ele>54</ele>
        <time>2021-09-04T08:46:34.000Z</time>
      </trkpt>
      <trkpt lat="47.13521" lon="-1.97864">
        <ele>55</ele>
        <time>2021-09-04T08:46:36.000Z</time>
      </trkpt>
      <trkpt lat="47.13521" lon="-1.97879">
        <ele>55</ele>
        <time>2021-09-04T08:46:38.000Z</time>
      </trkpt>
      <trkpt lat="47.1352" lon="-1.97895">
        <ele>56</ele>
        <time>2021-09-04T08:46:40.000Z</time>
      </trkpt>
      <trkpt lat="47.1352" lon="-1.97911">
        <ele>56</ele>
        <time>2021-09-04T08:46:42.000Z</time>
      </trkpt>
      <trkpt lat="47.1352" lon="-1.97927">
        <ele>56</ele>
        <time>2021-09-04T08:46:44.000Z</time>
      </trkpt>
      <trkpt lat="47.13519" lon="-1.97944">
        <ele>56</ele>
        <time>2021-09-04T08:46:46.000Z</time>
      </trkpt>
      <trkpt lat="47.1352" lon="-1.9796">
        <ele>56</ele>
        <time>2021-09-04T08:46:48.000Z</time>
      </trkpt>
      <trkpt lat="47.13519" lon="-1.97976">
        <ele>57</ele>
        <time>2021-09-04T08:46:50.000Z</time>
      </trkpt>
      <trkpt lat="47.1352" lon="-1.97993">
        <ele>57</ele>
        <time>2021-09-04T08:46:52.000Z</time>
      </trkpt>
      <trkpt lat="47.1352" lon="-1.98009">
        <ele>57</ele>
        <time>2021-09-04T08:46:54.000Z</time>
      </trkpt>
      <trkpt lat="47.1352" lon="-1.98026">
        <ele>57</ele>
        <time>2021-09-04T08:46:56.000Z</time>
      </trkpt>
      <trkpt lat="47.13521" lon="-1.98042">
        <ele>57</ele>
        <time>2021-09-04T08:46:58.000Z</time>
      </trkpt>
      <trkpt lat="47.13521" lon="-1.9806">
        <ele>57</ele>
        <time>2021-09-04T08:47:00.000Z</time>
      </trkpt>
      <trkpt lat="47.13522" lon="-1.98077">
        <ele>57</ele>
        <time>2021-09-04T08:47:02.000Z</time>
      </trkpt>
      <trkpt lat="47.13525" lon="-1.98094">
        <ele>57</ele>
        <time>2021-09-04T08:47:04.000Z</time>
      </trkpt>
      <trkpt lat="47.13527" lon="-1.98111">
        <ele>57</ele>
        <time>2021-09-04T08:47:06.000Z</time>
      </trkpt>
      <trkpt lat="47.13529" lon="-1.98127">
        <ele>57</ele>
        <time>2021-09-04T08:47:08.000Z</time>
      </trkpt>
      <trkpt lat="47.13531" lon="-1.98144">
        <ele>56</ele>
        <time>2021-09-04T08:47:10.000Z</time>
      </trkpt>
      <trkpt lat="47.13534" lon="-1.98162">
        <ele>56</ele>
        <time>2021-09-04T08:47:12.000Z</time>
      </trkpt>
      <trkpt lat="47.13536" lon="-1.9818">
        <ele>56</ele>
        <time>2021-09-04T08:47:14.000Z</time>
      </trkpt>
      <trkpt lat="47.13535" lon="-1.98198">
        <ele>56</ele>
        <time>2021-09-04T08:47:16.000Z</time>
      </trkpt>
      <trkpt lat="47.13532" lon="-1.98215">
        <ele>56</ele>
        <time>2021-09-04T08:47:18.000Z</time>
      </trkpt>
      <trkpt lat="47.13528" lon="-1.98232">
        <ele>56</ele>
        <time>2021-09-04T08:47:20.000Z</time>
      </trkpt>
      <trkpt lat="47.13518" lon="-1.98254">
        <ele>56</ele>
        <time>2021-09-04T08:47:23.000Z</time>
      </trkpt>
      <trkpt lat="47.13512" lon="-1.98269">
        <ele>56</ele>
        <time>2021-09-04T08:47:25.000Z</time>
      </trkpt>
      <trkpt lat="47.13505" lon="-1.98284">
        <ele>56</ele>
        <time>2021-09-04T08:47:27.000Z</time>
      </trkpt>
      <trkpt lat="47.13498" lon="-1.98299">
        <ele>55</ele>
        <time>2021-09-04T08:47:29.000Z</time>
      </trkpt>
      <trkpt lat="47.13492" lon="-1.98313">
        <ele>55</ele>
        <time>2021-09-04T08:47:31.000Z</time>
      </trkpt>
      <trkpt lat="47.13485" lon="-1.98328">
        <ele>55</ele>
        <time>2021-09-04T08:47:33.000Z</time>
      </trkpt>
      <trkpt lat="47.13478" lon="-1.98343">
        <ele>55</ele>
        <time>2021-09-04T08:47:35.000Z</time>
      </trkpt>
      <trkpt lat="47.13471" lon="-1.98357">
        <ele>55</ele>
        <time>2021-09-04T08:47:37.000Z</time>
      </trkpt>
      <trkpt lat="47.13464" lon="-1.98373">
        <ele>55</ele>
        <time>2021-09-04T08:47:39.000Z</time>
      </trkpt>
      <trkpt lat="47.13457" lon="-1.98388">
        <ele>55</ele>
        <time>2021-09-04T08:47:41.000Z</time>
      </trkpt>
      <trkpt lat="47.1345" lon="-1.98404">
        <ele>54</ele>
        <time>2021-09-04T08:47:43.000Z</time>
      </trkpt>
      <trkpt lat="47.13439" lon="-1.98424">
        <ele>54</ele>
        <time>2021-09-04T08:47:46.000Z</time>
      </trkpt>
      <trkpt lat="47.13431" lon="-1.98438">
        <ele>54</ele>
        <time>2021-09-04T08:47:48.000Z</time>
      </trkpt>
      <trkpt lat="47.13421" lon="-1.9845">
        <ele>54</ele>
        <time>2021-09-04T08:47:50.000Z</time>
      </trkpt>
      <trkpt lat="47.13412" lon="-1.98461">
        <ele>55</ele>
        <time>2021-09-04T08:47:52.000Z</time>
      </trkpt>
      <trkpt lat="47.13402" lon="-1.98472">
        <ele>55</ele>
        <time>2021-09-04T08:47:54.000Z</time>
      </trkpt>
      <trkpt lat="47.13393" lon="-1.98484">
        <ele>56</ele>
        <time>2021-09-04T08:47:56.000Z</time>
      </trkpt>
      <trkpt lat="47.13383" lon="-1.98495">
        <ele>56</ele>
        <time>2021-09-04T08:47:58.000Z</time>
      </trkpt>
      <trkpt lat="47.13374" lon="-1.98506">
        <ele>56</ele>
        <time>2021-09-04T08:48:00.000Z</time>
      </trkpt>
      <trkpt lat="47.13361" lon="-1.98523">
        <ele>56</ele>
        <time>2021-09-04T08:48:03.000Z</time>
      </trkpt>
      <trkpt lat="47.13352" lon="-1.98534">
        <ele>56</ele>
        <time>2021-09-04T08:48:05.000Z</time>
      </trkpt>
      <trkpt lat="47.13339" lon="-1.98553">
        <ele>56</ele>
        <time>2021-09-04T08:48:08.000Z</time>
      </trkpt>
      <trkpt lat="47.13331" lon="-1.98566">
        <ele>55</ele>
        <time>2021-09-04T08:48:10.000Z</time>
      </trkpt>
      <trkpt lat="47.13323" lon="-1.98579">
        <ele>55</ele>
        <time>2021-09-04T08:48:12.000Z</time>
      </trkpt>
      <trkpt lat="47.13315" lon="-1.98594">
        <ele>53</ele>
        <time>2021-09-04T08:48:14.000Z</time>
      </trkpt>
      <trkpt lat="47.13308" lon="-1.98609">
        <ele>53</ele>
        <time>2021-09-04T08:48:16.000Z</time>
      </trkpt>
      <trkpt lat="47.13301" lon="-1.98624">
        <ele>53</ele>
        <time>2021-09-04T08:48:18.000Z</time>
      </trkpt>
      <trkpt lat="47.13295" lon="-1.98639">
        <ele>53</ele>
        <time>2021-09-04T08:48:20.000Z</time>
      </trkpt>
      <trkpt lat="47.1329" lon="-1.98655">
        <ele>53</ele>
        <time>2021-09-04T08:48:22.000Z</time>
      </trkpt>
      <trkpt lat="47.13285" lon="-1.9867">
        <ele>53</ele>
        <time>2021-09-04T08:48:24.000Z</time>
      </trkpt>
      <trkpt lat="47.13279" lon="-1.98685">
        <ele>53</ele>
        <time>2021-09-04T08:48:26.000Z</time>
      </trkpt>
      <trkpt lat="47.13271" lon="-1.98698">
        <ele>53</ele>
        <time>2021-09-04T08:48:28.000Z</time>
      </trkpt>
      <trkpt lat="47.13261" lon="-1.9871">
        <ele>53</ele>
        <time>2021-09-04T08:48:30.000Z</time>
      </trkpt>
      <trkpt lat="47.13251" lon="-1.98722">
        <ele>53</ele>
        <time>2021-09-04T08:48:32.000Z</time>
      </trkpt>
      <trkpt lat="47.13241" lon="-1.98731">
        <ele>53</ele>
        <time>2021-09-04T08:48:34.000Z</time>
      </trkpt>
      <trkpt lat="47.1323" lon="-1.98738">
        <ele>54</ele>
        <time>2021-09-04T08:48:36.000Z</time>
      </trkpt>
      <trkpt lat="47.13218" lon="-1.98743">
        <ele>53</ele>
        <time>2021-09-04T08:48:38.000Z</time>
      </trkpt>
      <trkpt lat="47.13207" lon="-1.98747">
        <ele>53</ele>
        <time>2021-09-04T08:48:40.000Z</time>
      </trkpt>
      <trkpt lat="47.13199" lon="-1.98754">
        <ele>53</ele>
        <time>2021-09-04T08:48:42.000Z</time>
      </trkpt>
      <trkpt lat="47.13196" lon="-1.98768">
        <ele>53</ele>
        <time>2021-09-04T08:48:45.000Z</time>
      </trkpt>
      <trkpt lat="47.13202" lon="-1.98782">
        <ele>53</ele>
        <time>2021-09-04T08:48:49.000Z</time>
      </trkpt>
      <trkpt lat="47.13209" lon="-1.98793">
        <ele>54</ele>
        <time>2021-09-04T08:48:51.000Z</time>
      </trkpt>
      <trkpt lat="47.13215" lon="-1.98807">
        <ele>54</ele>
        <time>2021-09-04T08:48:53.000Z</time>
      </trkpt>
      <trkpt lat="47.13221" lon="-1.98822">
        <ele>54</ele>
        <time>2021-09-04T08:48:55.000Z</time>
      </trkpt>
      <trkpt lat="47.13228" lon="-1.98837">
        <ele>54</ele>
        <time>2021-09-04T08:48:57.000Z</time>
      </trkpt>
      <trkpt lat="47.13233" lon="-1.98852">
        <ele>54</ele>
        <time>2021-09-04T08:48:59.000Z</time>
      </trkpt>
      <trkpt lat="47.13239" lon="-1.98868">
        <ele>54</ele>
        <time>2021-09-04T08:49:01.000Z</time>
      </trkpt>
      <trkpt lat="47.13245" lon="-1.98883">
        <ele>55</ele>
        <time>2021-09-04T08:49:03.000Z</time>
      </trkpt>
      <trkpt lat="47.13251" lon="-1.98898">
        <ele>55</ele>
        <time>2021-09-04T08:49:05.000Z</time>
      </trkpt>
      <trkpt lat="47.13256" lon="-1.98913">
        <ele>56</ele>
        <time>2021-09-04T08:49:07.000Z</time>
      </trkpt>
      <trkpt lat="47.13262" lon="-1.98927">
        <ele>56</ele>
        <time>2021-09-04T08:49:09.000Z</time>
      </trkpt>
      <trkpt lat="47.13268" lon="-1.98942">
        <ele>56</ele>
        <time>2021-09-04T08:49:11.000Z</time>
      </trkpt>
      <trkpt lat="47.13273" lon="-1.98958">
        <ele>57</ele>
        <time>2021-09-04T08:49:13.000Z</time>
      </trkpt>
      <trkpt lat="47.13277" lon="-1.98974">
        <ele>57</ele>
        <time>2021-09-04T08:49:15.000Z</time>
      </trkpt>
      <trkpt lat="47.13281" lon="-1.9899">
        <ele>57</ele>
        <time>2021-09-04T08:49:17.000Z</time>
      </trkpt>
      <trkpt lat="47.13285" lon="-1.99005">
        <ele>57</ele>
        <time>2021-09-04T08:49:19.000Z</time>
      </trkpt>
      <trkpt lat="47.13289" lon="-1.99022">
        <ele>57</ele>
        <time>2021-09-04T08:49:21.000Z</time>
      </trkpt>
      <trkpt lat="47.13293" lon="-1.99039">
        <ele>56</ele>
        <time>2021-09-04T08:49:23.000Z</time>
      </trkpt>
      <trkpt lat="47.13297" lon="-1.99056">
        <ele>56</ele>
        <time>2021-09-04T08:49:25.000Z</time>
      </trkpt>
      <trkpt lat="47.13301" lon="-1.99072">
        <ele>56</ele>
        <time>2021-09-04T08:49:27.000Z</time>
      </trkpt>
      <trkpt lat="47.13304" lon="-1.9909">
        <ele>56</ele>
        <time>2021-09-04T08:49:29.000Z</time>
      </trkpt>
      <trkpt lat="47.13306" lon="-1.99108">
        <ele>56</ele>
        <time>2021-09-04T08:49:31.000Z</time>
      </trkpt>
      <trkpt lat="47.13307" lon="-1.99126">
        <ele>55</ele>
        <time>2021-09-04T08:49:33.000Z</time>
      </trkpt>
      <trkpt lat="47.13305" lon="-1.99144">
        <ele>55</ele>
        <time>2021-09-04T08:49:35.000Z</time>
      </trkpt>
      <trkpt lat="47.13303" lon="-1.99162">
        <ele>55</ele>
        <time>2021-09-04T08:49:37.000Z</time>
      </trkpt>
      <trkpt lat="47.133" lon="-1.99181">
        <ele>54</ele>
        <time>2021-09-04T08:49:39.000Z</time>
      </trkpt>
      <trkpt lat="47.13296" lon="-1.992">
        <ele>54</ele>
        <time>2021-09-04T08:49:41.000Z</time>
      </trkpt>
      <trkpt lat="47.13292" lon="-1.99219">
        <ele>54</ele>
        <time>2021-09-04T08:49:43.000Z</time>
      </trkpt>
      <trkpt lat="47.13287" lon="-1.99238">
        <ele>54</ele>
        <time>2021-09-04T08:49:45.000Z</time>
      </trkpt>
      <trkpt lat="47.13281" lon="-1.99256">
        <ele>54</ele>
        <time>2021-09-04T08:49:47.000Z</time>
      </trkpt>
      <trkpt lat="47.13275" lon="-1.99275">
        <ele>54</ele>
        <time>2021-09-04T08:49:49.000Z</time>
      </trkpt>
      <trkpt lat="47.13269" lon="-1.99292">
        <ele>54</ele>
        <time>2021-09-04T08:49:51.000Z</time>
      </trkpt>
      <trkpt lat="47.13265" lon="-1.99311">
        <ele>54</ele>
        <time>2021-09-04T08:49:53.000Z</time>
      </trkpt>
      <trkpt lat="47.13262" lon="-1.99329">
        <ele>54</ele>
        <time>2021-09-04T08:49:55.000Z</time>
      </trkpt>
      <trkpt lat="47.1326" lon="-1.99348">
        <ele>54</ele>
        <time>2021-09-04T08:49:57.000Z</time>
      </trkpt>
      <trkpt lat="47.13259" lon="-1.99367">
        <ele>55</ele>
        <time>2021-09-04T08:49:59.000Z</time>
      </trkpt>
      <trkpt lat="47.13259" lon="-1.99384">
        <ele>55</ele>
        <time>2021-09-04T08:50:01.000Z</time>
      </trkpt>
      <trkpt lat="47.13259" lon="-1.99402">
        <ele>55</ele>
        <time>2021-09-04T08:50:03.000Z</time>
      </trkpt>
      <trkpt lat="47.13258" lon="-1.9942">
        <ele>55</ele>
        <time>2021-09-04T08:50:05.000Z</time>
      </trkpt>
      <trkpt lat="47.13257" lon="-1.99437">
        <ele>56</ele>
        <time>2021-09-04T08:50:07.000Z</time>
      </trkpt>
      <trkpt lat="47.13256" lon="-1.99455">
        <ele>57</ele>
        <time>2021-09-04T08:50:09.000Z</time>
      </trkpt>
      <trkpt lat="47.13254" lon="-1.99474">
        <ele>58</ele>
        <time>2021-09-04T08:50:11.000Z</time>
      </trkpt>
      <trkpt lat="47.13252" lon="-1.99492">
        <ele>58</ele>
        <time>2021-09-04T08:50:13.000Z</time>
      </trkpt>
      <trkpt lat="47.1325" lon="-1.9951">
        <ele>58</ele>
        <time>2021-09-04T08:50:15.000Z</time>
      </trkpt>
      <trkpt lat="47.13248" lon="-1.99527">
        <ele>58</ele>
        <time>2021-09-04T08:50:17.000Z</time>
      </trkpt>
      <trkpt lat="47.13245" lon="-1.99545">
        <ele>58</ele>
        <time>2021-09-04T08:50:19.000Z</time>
      </trkpt>
      <trkpt lat="47.13243" lon="-1.99563">
        <ele>58</ele>
        <time>2021-09-04T08:50:21.000Z</time>
      </trkpt>
      <trkpt lat="47.1324" lon="-1.9958">
        <ele>58</ele>
        <time>2021-09-04T08:50:23.000Z</time>
      </trkpt>
      <trkpt lat="47.13237" lon="-1.99598">
        <ele>58</ele>
        <time>2021-09-04T08:50:25.000Z</time>
      </trkpt>
      <trkpt lat="47.13234" lon="-1.99616">
        <ele>58</ele>
        <time>2021-09-04T08:50:27.000Z</time>
      </trkpt>
      <trkpt lat="47.13231" lon="-1.99635">
        <ele>58</ele>
        <time>2021-09-04T08:50:29.000Z</time>
      </trkpt>
      <trkpt lat="47.13229" lon="-1.99654">
        <ele>57</ele>
        <time>2021-09-04T08:50:31.000Z</time>
      </trkpt>
      <trkpt lat="47.13226" lon="-1.99672">
        <ele>57</ele>
        <time>2021-09-04T08:50:33.000Z</time>
      </trkpt>
      <trkpt lat="47.13223" lon="-1.99692">
        <ele>56</ele>
        <time>2021-09-04T08:50:35.000Z</time>
      </trkpt>
      <trkpt lat="47.1322" lon="-1.99711">
        <ele>56</ele>
        <time>2021-09-04T08:50:37.000Z</time>
      </trkpt>
      <trkpt lat="47.13218" lon="-1.99731">
        <ele>56</ele>
        <time>2021-09-04T08:50:39.000Z</time>
      </trkpt>
      <trkpt lat="47.13215" lon="-1.99751">
        <ele>56</ele>
        <time>2021-09-04T08:50:41.000Z</time>
      </trkpt>
      <trkpt lat="47.13212" lon="-1.99771">
        <ele>56</ele>
        <time>2021-09-04T08:50:43.000Z</time>
      </trkpt>
      <trkpt lat="47.13209" lon="-1.9979">
        <ele>56</ele>
        <time>2021-09-04T08:50:45.000Z</time>
      </trkpt>
      <trkpt lat="47.13207" lon="-1.99809">
        <ele>56</ele>
        <time>2021-09-04T08:50:47.000Z</time>
      </trkpt>
      <trkpt lat="47.13205" lon="-1.99829">
        <ele>56</ele>
        <time>2021-09-04T08:50:49.000Z</time>
      </trkpt>
      <trkpt lat="47.13204" lon="-1.99849">
        <ele>56</ele>
        <time>2021-09-04T08:50:51.000Z</time>
      </trkpt>
      <trkpt lat="47.13203" lon="-1.99868">
        <ele>56</ele>
        <time>2021-09-04T08:50:53.000Z</time>
      </trkpt>
      <trkpt lat="47.13204" lon="-1.99889">
        <ele>56</ele>
        <time>2021-09-04T08:50:55.000Z</time>
      </trkpt>
      <trkpt lat="47.13205" lon="-1.99908">
        <ele>56</ele>
        <time>2021-09-04T08:50:57.000Z</time>
      </trkpt>
      <trkpt lat="47.13205" lon="-1.99928">
        <ele>56</ele>
        <time>2021-09-04T08:50:59.000Z</time>
      </trkpt>
      <trkpt lat="47.13206" lon="-1.99948">
        <ele>56</ele>
        <time>2021-09-04T08:51:01.000Z</time>
      </trkpt>
      <trkpt lat="47.13206" lon="-1.99968">
        <ele>56</ele>
        <time>2021-09-04T08:51:03.000Z</time>
      </trkpt>
      <trkpt lat="47.13206" lon="-1.99988">
        <ele>56</ele>
        <time>2021-09-04T08:51:05.000Z</time>
      </trkpt>
      <trkpt lat="47.13206" lon="-2.00007">
        <ele>56</ele>
        <time>2021-09-04T08:51:07.000Z</time>
      </trkpt>
      <trkpt lat="47.13209" lon="-2.00027">
        <ele>56</ele>
        <time>2021-09-04T08:51:09.000Z</time>
      </trkpt>
      <trkpt lat="47.13213" lon="-2.00047">
        <ele>56</ele>
        <time>2021-09-04T08:51:11.000Z</time>
      </trkpt>
      <trkpt lat="47.13216" lon="-2.00068">
        <ele>57</ele>
        <time>2021-09-04T08:51:13.000Z</time>
      </trkpt>
      <trkpt lat="47.13218" lon="-2.00089">
        <ele>56</ele>
        <time>2021-09-04T08:51:15.000Z</time>
      </trkpt>
      <trkpt lat="47.13219" lon="-2.0011">
        <ele>57</ele>
        <time>2021-09-04T08:51:17.000Z</time>
      </trkpt>
      <trkpt lat="47.13219" lon="-2.00131">
        <ele>57</ele>
        <time>2021-09-04T08:51:19.000Z</time>
      </trkpt>
      <trkpt lat="47.13217" lon="-2.00152">
        <ele>57</ele>
        <time>2021-09-04T08:51:21.000Z</time>
      </trkpt>
      <trkpt lat="47.13215" lon="-2.00173">
        <ele>57</ele>
        <time>2021-09-04T08:51:23.000Z</time>
      </trkpt>
      <trkpt lat="47.13213" lon="-2.00194">
        <ele>58</ele>
        <time>2021-09-04T08:51:25.000Z</time>
      </trkpt>
      <trkpt lat="47.13209" lon="-2.00215">
        <ele>58</ele>
        <time>2021-09-04T08:51:27.000Z</time>
      </trkpt>
      <trkpt lat="47.13207" lon="-2.00235">
        <ele>57</ele>
        <time>2021-09-04T08:51:29.000Z</time>
      </trkpt>
      <trkpt lat="47.13204" lon="-2.00255">
        <ele>57</ele>
        <time>2021-09-04T08:51:31.000Z</time>
      </trkpt>
      <trkpt lat="47.13201" lon="-2.00275">
        <ele>58</ele>
        <time>2021-09-04T08:51:33.000Z</time>
      </trkpt>
      <trkpt lat="47.13198" lon="-2.00294">
        <ele>58</ele>
        <time>2021-09-04T08:51:35.000Z</time>
      </trkpt>
      <trkpt lat="47.13196" lon="-2.00314">
        <ele>58</ele>
        <time>2021-09-04T08:51:37.000Z</time>
      </trkpt>
      <trkpt lat="47.13193" lon="-2.00334">
        <ele>58</ele>
        <time>2021-09-04T08:51:39.000Z</time>
      </trkpt>
      <trkpt lat="47.13191" lon="-2.00354">
        <ele>58</ele>
        <time>2021-09-04T08:51:41.000Z</time>
      </trkpt>
      <trkpt lat="47.13188" lon="-2.00374">
        <ele>58</ele>
        <time>2021-09-04T08:51:43.000Z</time>
      </trkpt>
      <trkpt lat="47.13185" lon="-2.00394">
        <ele>58</ele>
        <time>2021-09-04T08:51:45.000Z</time>
      </trkpt>
      <trkpt lat="47.13183" lon="-2.00414">
        <ele>58</ele>
        <time>2021-09-04T08:51:47.000Z</time>
      </trkpt>
      <trkpt lat="47.13181" lon="-2.00433">
        <ele>58</ele>
        <time>2021-09-04T08:51:49.000Z</time>
      </trkpt>
      <trkpt lat="47.13178" lon="-2.00452">
        <ele>59</ele>
        <time>2021-09-04T08:51:51.000Z</time>
      </trkpt>
      <trkpt lat="47.13175" lon="-2.00472">
        <ele>59</ele>
        <time>2021-09-04T08:51:53.000Z</time>
      </trkpt>
      <trkpt lat="47.13171" lon="-2.00492">
        <ele>59</ele>
        <time>2021-09-04T08:51:55.000Z</time>
      </trkpt>
      <trkpt lat="47.13167" lon="-2.00512">
        <ele>59</ele>
        <time>2021-09-04T08:51:57.000Z</time>
      </trkpt>
      <trkpt lat="47.13163" lon="-2.00531">
        <ele>59</ele>
        <time>2021-09-04T08:51:59.000Z</time>
      </trkpt>
      <trkpt lat="47.1316" lon="-2.00549">
        <ele>59</ele>
        <time>2021-09-04T08:52:01.000Z</time>
      </trkpt>
      <trkpt lat="47.13158" lon="-2.00569">
        <ele>59</ele>
        <time>2021-09-04T08:52:03.000Z</time>
      </trkpt>
      <trkpt lat="47.13154" lon="-2.00588">
        <ele>59</ele>
        <time>2021-09-04T08:52:05.000Z</time>
      </trkpt>
      <trkpt lat="47.1315" lon="-2.00607">
        <ele>58</ele>
        <time>2021-09-04T08:52:07.000Z</time>
      </trkpt>
      <trkpt lat="47.13145" lon="-2.00625">
        <ele>59</ele>
        <time>2021-09-04T08:52:09.000Z</time>
      </trkpt>
      <trkpt lat="47.13139" lon="-2.00643">
        <ele>59</ele>
        <time>2021-09-04T08:52:11.000Z</time>
      </trkpt>
      <trkpt lat="47.13132" lon="-2.0066">
        <ele>59</ele>
        <time>2021-09-04T08:52:13.000Z</time>
      </trkpt>
      <trkpt lat="47.13125" lon="-2.00678">
        <ele>58</ele>
        <time>2021-09-04T08:52:15.000Z</time>
      </trkpt>
      <trkpt lat="47.13119" lon="-2.00696">
        <ele>58</ele>
        <time>2021-09-04T08:52:17.000Z</time>
      </trkpt>
      <trkpt lat="47.13112" lon="-2.00714">
        <ele>58</ele>
        <time>2021-09-04T08:52:19.000Z</time>
      </trkpt>
      <trkpt lat="47.13106" lon="-2.00732">
        <ele>58</ele>
        <time>2021-09-04T08:52:21.000Z</time>
      </trkpt>
      <trkpt lat="47.131" lon="-2.00749">
        <ele>59</ele>
        <time>2021-09-04T08:52:23.000Z</time>
      </trkpt>
      <trkpt lat="47.13094" lon="-2.00767">
        <ele>60</ele>
        <time>2021-09-04T08:52:25.000Z</time>
      </trkpt>
      <trkpt lat="47.13089" lon="-2.00784">
        <ele>61</ele>
        <time>2021-09-04T08:52:27.000Z</time>
      </trkpt>
      <trkpt lat="47.13083" lon="-2.00803">
        <ele>61</ele>
        <time>2021-09-04T08:52:29.000Z</time>
      </trkpt>
      <trkpt lat="47.13077" lon="-2.00823">
        <ele>60</ele>
        <time>2021-09-04T08:52:31.000Z</time>
      </trkpt>
      <trkpt lat="47.1307" lon="-2.00842">
        <ele>59</ele>
        <time>2021-09-04T08:52:33.000Z</time>
      </trkpt>
      <trkpt lat="47.13062" lon="-2.00858">
        <ele>59</ele>
        <time>2021-09-04T08:52:35.000Z</time>
      </trkpt>
      <trkpt lat="47.13054" lon="-2.00874">
        <ele>59</ele>
        <time>2021-09-04T08:52:37.000Z</time>
      </trkpt>
      <trkpt lat="47.13046" lon="-2.0089">
        <ele>58</ele>
        <time>2021-09-04T08:52:39.000Z</time>
      </trkpt>
      <trkpt lat="47.13038" lon="-2.00905">
        <ele>58</ele>
        <time>2021-09-04T08:52:41.000Z</time>
      </trkpt>
      <trkpt lat="47.1303" lon="-2.00922">
        <ele>57</ele>
        <time>2021-09-04T08:52:43.000Z</time>
      </trkpt>
      <trkpt lat="47.13022" lon="-2.00937">
        <ele>57</ele>
        <time>2021-09-04T08:52:45.000Z</time>
      </trkpt>
      <trkpt lat="47.13015" lon="-2.00951">
        <ele>57</ele>
        <time>2021-09-04T08:52:47.000Z</time>
      </trkpt>
      <trkpt lat="47.13008" lon="-2.00967">
        <ele>57</ele>
        <time>2021-09-04T08:52:49.000Z</time>
      </trkpt>
      <trkpt lat="47.13001" lon="-2.00981">
        <ele>57</ele>
        <time>2021-09-04T08:52:51.000Z</time>
      </trkpt>
      <trkpt lat="47.12994" lon="-2.00996">
        <ele>57</ele>
        <time>2021-09-04T08:52:53.000Z</time>
      </trkpt>
      <trkpt lat="47.12987" lon="-2.01011">
        <ele>58</ele>
        <time>2021-09-04T08:52:55.000Z</time>
      </trkpt>
      <trkpt lat="47.12979" lon="-2.01028">
        <ele>57</ele>
        <time>2021-09-04T08:52:57.000Z</time>
      </trkpt>
      <trkpt lat="47.12973" lon="-2.01045">
        <ele>57</ele>
        <time>2021-09-04T08:52:59.000Z</time>
      </trkpt>
      <trkpt lat="47.12967" lon="-2.01061">
        <ele>57</ele>
        <time>2021-09-04T08:53:01.000Z</time>
      </trkpt>
      <trkpt lat="47.12961" lon="-2.01077">
        <ele>57</ele>
        <time>2021-09-04T08:53:03.000Z</time>
      </trkpt>
      <trkpt lat="47.12956" lon="-2.01094">
        <ele>57</ele>
        <time>2021-09-04T08:53:05.000Z</time>
      </trkpt>
      <trkpt lat="47.1295" lon="-2.01111">
        <ele>57</ele>
        <time>2021-09-04T08:53:07.000Z</time>
      </trkpt>
      <trkpt lat="47.12946" lon="-2.01129">
        <ele>57</ele>
        <time>2021-09-04T08:53:09.000Z</time>
      </trkpt>
      <trkpt lat="47.1294" lon="-2.01147">
        <ele>56</ele>
        <time>2021-09-04T08:53:11.000Z</time>
      </trkpt>
      <trkpt lat="47.12935" lon="-2.01165">
        <ele>57</ele>
        <time>2021-09-04T08:53:13.000Z</time>
      </trkpt>
      <trkpt lat="47.12931" lon="-2.01183">
        <ele>57</ele>
        <time>2021-09-04T08:53:15.000Z</time>
      </trkpt>
      <trkpt lat="47.1293" lon="-2.01203">
        <ele>57</ele>
        <time>2021-09-04T08:53:17.000Z</time>
      </trkpt>
      <trkpt lat="47.12929" lon="-2.01224">
        <ele>58</ele>
        <time>2021-09-04T08:53:19.000Z</time>
      </trkpt>
      <trkpt lat="47.12928" lon="-2.01244">
        <ele>58</ele>
        <time>2021-09-04T08:53:21.000Z</time>
      </trkpt>
      <trkpt lat="47.12928" lon="-2.01264">
        <ele>58</ele>
        <time>2021-09-04T08:53:23.000Z</time>
      </trkpt>
      <trkpt lat="47.12928" lon="-2.01284">
        <ele>57</ele>
        <time>2021-09-04T08:53:25.000Z</time>
      </trkpt>
      <trkpt lat="47.12929" lon="-2.01305">
        <ele>57</ele>
        <time>2021-09-04T08:53:27.000Z</time>
      </trkpt>
      <trkpt lat="47.12929" lon="-2.01324">
        <ele>57</ele>
        <time>2021-09-04T08:53:29.000Z</time>
      </trkpt>
      <trkpt lat="47.12929" lon="-2.01343">
        <ele>57</ele>
        <time>2021-09-04T08:53:31.000Z</time>
      </trkpt>
      <trkpt lat="47.12929" lon="-2.01363">
        <ele>57</ele>
        <time>2021-09-04T08:53:33.000Z</time>
      </trkpt>
      <trkpt lat="47.12929" lon="-2.01382">
        <ele>58</ele>
        <time>2021-09-04T08:53:35.000Z</time>
      </trkpt>
      <trkpt lat="47.12927" lon="-2.01401">
        <ele>58</ele>
        <time>2021-09-04T08:53:37.000Z</time>
      </trkpt>
      <trkpt lat="47.1292" lon="-2.01419">
        <ele>58</ele>
        <time>2021-09-04T08:53:39.000Z</time>
      </trkpt>
      <trkpt lat="47.12912" lon="-2.01434">
        <ele>58</ele>
        <time>2021-09-04T08:53:41.000Z</time>
      </trkpt>
      <trkpt lat="47.12903" lon="-2.01449">
        <ele>58</ele>
        <time>2021-09-04T08:53:43.000Z</time>
      </trkpt>
      <trkpt lat="47.12895" lon="-2.01464">
        <ele>57</ele>
        <time>2021-09-04T08:53:45.000Z</time>
      </trkpt>
      <trkpt lat="47.12888" lon="-2.0148">
        <ele>57</ele>
        <time>2021-09-04T08:53:47.000Z</time>
      </trkpt>
      <trkpt lat="47.12884" lon="-2.01498">
        <ele>57</ele>
        <time>2021-09-04T08:53:49.000Z</time>
      </trkpt>
      <trkpt lat="47.12884" lon="-2.01518">
        <ele>58</ele>
        <time>2021-09-04T08:53:51.000Z</time>
      </trkpt>
      <trkpt lat="47.12886" lon="-2.01538">
        <ele>58</ele>
        <time>2021-09-04T08:53:53.000Z</time>
      </trkpt>
      <trkpt lat="47.12889" lon="-2.01557">
        <ele>58</ele>
        <time>2021-09-04T08:53:55.000Z</time>
      </trkpt>
      <trkpt lat="47.12892" lon="-2.01576">
        <ele>58</ele>
        <time>2021-09-04T08:53:57.000Z</time>
      </trkpt>
      <trkpt lat="47.12895" lon="-2.01596">
        <ele>58</ele>
        <time>2021-09-04T08:53:59.000Z</time>
      </trkpt>
      <trkpt lat="47.12898" lon="-2.01616">
        <ele>58</ele>
        <time>2021-09-04T08:54:01.000Z</time>
      </trkpt>
      <trkpt lat="47.12901" lon="-2.01635">
        <ele>59</ele>
        <time>2021-09-04T08:54:03.000Z</time>
      </trkpt>
      <trkpt lat="47.12902" lon="-2.01655">
        <ele>59</ele>
        <time>2021-09-04T08:54:05.000Z</time>
      </trkpt>
      <trkpt lat="47.12901" lon="-2.01674">
        <ele>58</ele>
        <time>2021-09-04T08:54:07.000Z</time>
      </trkpt>
      <trkpt lat="47.12899" lon="-2.01694">
        <ele>58</ele>
        <time>2021-09-04T08:54:09.000Z</time>
      </trkpt>
      <trkpt lat="47.12897" lon="-2.01713">
        <ele>58</ele>
        <time>2021-09-04T08:54:11.000Z</time>
      </trkpt>
      <trkpt lat="47.12895" lon="-2.01733">
        <ele>59</ele>
        <time>2021-09-04T08:54:13.000Z</time>
      </trkpt>
      <trkpt lat="47.12894" lon="-2.01753">
        <ele>59</ele>
        <time>2021-09-04T08:54:15.000Z</time>
      </trkpt>
      <trkpt lat="47.12892" lon="-2.01771">
        <ele>60</ele>
        <time>2021-09-04T08:54:17.000Z</time>
      </trkpt>
      <trkpt lat="47.1289" lon="-2.01789">
        <ele>60</ele>
        <time>2021-09-04T08:54:19.000Z</time>
      </trkpt>
      <trkpt lat="47.12889" lon="-2.01808">
        <ele>60</ele>
        <time>2021-09-04T08:54:21.000Z</time>
      </trkpt>
      <trkpt lat="47.12887" lon="-2.01828">
        <ele>61</ele>
        <time>2021-09-04T08:54:23.000Z</time>
      </trkpt>
      <trkpt lat="47.12885" lon="-2.01848">
        <ele>60</ele>
        <time>2021-09-04T08:54:25.000Z</time>
      </trkpt>
      <trkpt lat="47.12884" lon="-2.01869">
        <ele>60</ele>
        <time>2021-09-04T08:54:27.000Z</time>
      </trkpt>
      <trkpt lat="47.12884" lon="-2.0189">
        <ele>60</ele>
        <time>2021-09-04T08:54:29.000Z</time>
      </trkpt>
      <trkpt lat="47.12884" lon="-2.01911">
        <ele>59</ele>
        <time>2021-09-04T08:54:31.000Z</time>
      </trkpt>
      <trkpt lat="47.12885" lon="-2.01932">
        <ele>59</ele>
        <time>2021-09-04T08:54:33.000Z</time>
      </trkpt>
      <trkpt lat="47.12886" lon="-2.01952">
        <ele>59</ele>
        <time>2021-09-04T08:54:35.000Z</time>
      </trkpt>
      <trkpt lat="47.12886" lon="-2.01973">
        <ele>59</ele>
        <time>2021-09-04T08:54:37.000Z</time>
      </trkpt>
      <trkpt lat="47.12885" lon="-2.01993">
        <ele>59</ele>
        <time>2021-09-04T08:54:39.000Z</time>
      </trkpt>
      <trkpt lat="47.12883" lon="-2.02013">
        <ele>59</ele>
        <time>2021-09-04T08:54:41.000Z</time>
      </trkpt>
      <trkpt lat="47.1288" lon="-2.02034">
        <ele>59</ele>
        <time>2021-09-04T08:54:43.000Z</time>
      </trkpt>
      <trkpt lat="47.12875" lon="-2.02053">
        <ele>59</ele>
        <time>2021-09-04T08:54:45.000Z</time>
      </trkpt>
      <trkpt lat="47.12868" lon="-2.02071">
        <ele>59</ele>
        <time>2021-09-04T08:54:47.000Z</time>
      </trkpt>
      <trkpt lat="47.12862" lon="-2.02089">
        <ele>59</ele>
        <time>2021-09-04T08:54:49.000Z</time>
      </trkpt>
      <trkpt lat="47.12859" lon="-2.02108">
        <ele>58</ele>
        <time>2021-09-04T08:54:51.000Z</time>
      </trkpt>
      <trkpt lat="47.12857" lon="-2.02128">
        <ele>58</ele>
        <time>2021-09-04T08:54:53.000Z</time>
      </trkpt>
      <trkpt lat="47.12857" lon="-2.02148">
        <ele>58</ele>
        <time>2021-09-04T08:54:55.000Z</time>
      </trkpt>
      <trkpt lat="47.12856" lon="-2.02169">
        <ele>59</ele>
        <time>2021-09-04T08:54:57.000Z</time>
      </trkpt>
      <trkpt lat="47.12855" lon="-2.02189">
        <ele>59</ele>
        <time>2021-09-04T08:54:59.000Z</time>
      </trkpt>
      <trkpt lat="47.12854" lon="-2.02208">
        <ele>59</ele>
        <time>2021-09-04T08:55:01.000Z</time>
      </trkpt>
      <trkpt lat="47.12854" lon="-2.02228">
        <ele>59</ele>
        <time>2021-09-04T08:55:03.000Z</time>
      </trkpt>
      <trkpt lat="47.12854" lon="-2.02247">
        <ele>59</ele>
        <time>2021-09-04T08:55:05.000Z</time>
      </trkpt>
      <trkpt lat="47.12855" lon="-2.02267">
        <ele>60</ele>
        <time>2021-09-04T08:55:07.000Z</time>
      </trkpt>
      <trkpt lat="47.12856" lon="-2.02287">
        <ele>60</ele>
        <time>2021-09-04T08:55:09.000Z</time>
      </trkpt>
      <trkpt lat="47.12858" lon="-2.02307">
        <ele>61</ele>
        <time>2021-09-04T08:55:11.000Z</time>
      </trkpt>
      <trkpt lat="47.12859" lon="-2.02327">
        <ele>61</ele>
        <time>2021-09-04T08:55:13.000Z</time>
      </trkpt>
      <trkpt lat="47.12861" lon="-2.02347">
        <ele>61</ele>
        <time>2021-09-04T08:55:15.000Z</time>
      </trkpt>
      <trkpt lat="47.12863" lon="-2.02366">
        <ele>61</ele>
        <time>2021-09-04T08:55:17.000Z</time>
      </trkpt>
      <trkpt lat="47.12865" lon="-2.02386">
        <ele>61</ele>
        <time>2021-09-04T08:55:19.000Z</time>
      </trkpt>
      <trkpt lat="47.12866" lon="-2.02405">
        <ele>61</ele>
        <time>2021-09-04T08:55:21.000Z</time>
      </trkpt>
      <trkpt lat="47.12868" lon="-2.02424">
        <ele>61</ele>
        <time>2021-09-04T08:55:23.000Z</time>
      </trkpt>
      <trkpt lat="47.12871" lon="-2.02444">
        <ele>61</ele>
        <time>2021-09-04T08:55:25.000Z</time>
      </trkpt>
      <trkpt lat="47.12873" lon="-2.02463">
        <ele>61</ele>
        <time>2021-09-04T08:55:27.000Z</time>
      </trkpt>
      <trkpt lat="47.12875" lon="-2.02481">
        <ele>61</ele>
        <time>2021-09-04T08:55:29.000Z</time>
      </trkpt>
      <trkpt lat="47.12877" lon="-2.025">
        <ele>61</ele>
        <time>2021-09-04T08:55:31.000Z</time>
      </trkpt>
      <trkpt lat="47.1288" lon="-2.0252">
        <ele>60</ele>
        <time>2021-09-04T08:55:33.000Z</time>
      </trkpt>
      <trkpt lat="47.12882" lon="-2.02539">
        <ele>60</ele>
        <time>2021-09-04T08:55:35.000Z</time>
      </trkpt>
      <trkpt lat="47.12884" lon="-2.02558">
        <ele>60</ele>
        <time>2021-09-04T08:55:37.000Z</time>
      </trkpt>
      <trkpt lat="47.12887" lon="-2.02577">
        <ele>60</ele>
        <time>2021-09-04T08:55:39.000Z</time>
      </trkpt>
      <trkpt lat="47.12889" lon="-2.02598">
        <ele>59</ele>
        <time>2021-09-04T08:55:41.000Z</time>
      </trkpt>
      <trkpt lat="47.12892" lon="-2.02618">
        <ele>59</ele>
        <time>2021-09-04T08:55:43.000Z</time>
      </trkpt>
      <trkpt lat="47.12895" lon="-2.02639">
        <ele>59</ele>
        <time>2021-09-04T08:55:45.000Z</time>
      </trkpt>
      <trkpt lat="47.12897" lon="-2.0266">
        <ele>59</ele>
        <time>2021-09-04T08:55:47.000Z</time>
      </trkpt>
      <trkpt lat="47.129" lon="-2.02681">
        <ele>58</ele>
        <time>2021-09-04T08:55:49.000Z</time>
      </trkpt>
      <trkpt lat="47.12902" lon="-2.02701">
        <ele>58</ele>
        <time>2021-09-04T08:55:51.000Z</time>
      </trkpt>
      <trkpt lat="47.12905" lon="-2.02722">
        <ele>58</ele>
        <time>2021-09-04T08:55:53.000Z</time>
      </trkpt>
      <trkpt lat="47.12909" lon="-2.02743">
        <ele>58</ele>
        <time>2021-09-04T08:55:55.000Z</time>
      </trkpt>
      <trkpt lat="47.12914" lon="-2.02763">
        <ele>57</ele>
        <time>2021-09-04T08:55:57.000Z</time>
      </trkpt>
      <trkpt lat="47.1292" lon="-2.02783">
        <ele>57</ele>
        <time>2021-09-04T08:55:59.000Z</time>
      </trkpt>
      <trkpt lat="47.12925" lon="-2.02802">
        <ele>57</ele>
        <time>2021-09-04T08:56:01.000Z</time>
      </trkpt>
      <trkpt lat="47.12931" lon="-2.02821">
        <ele>57</ele>
        <time>2021-09-04T08:56:03.000Z</time>
      </trkpt>
      <trkpt lat="47.12937" lon="-2.02839">
        <ele>57</ele>
        <time>2021-09-04T08:56:05.000Z</time>
      </trkpt>
      <trkpt lat="47.12944" lon="-2.02857">
        <ele>57</ele>
        <time>2021-09-04T08:56:07.000Z</time>
      </trkpt>
      <trkpt lat="47.12951" lon="-2.02875">
        <ele>57</ele>
        <time>2021-09-04T08:56:09.000Z</time>
      </trkpt>
      <trkpt lat="47.12958" lon="-2.02893">
        <ele>56</ele>
        <time>2021-09-04T08:56:11.000Z</time>
      </trkpt>
      <trkpt lat="47.12967" lon="-2.02909">
        <ele>57</ele>
        <time>2021-09-04T08:56:13.000Z</time>
      </trkpt>
      <trkpt lat="47.12976" lon="-2.02925">
        <ele>57</ele>
        <time>2021-09-04T08:56:15.000Z</time>
      </trkpt>
      <trkpt lat="47.12985" lon="-2.02941">
        <ele>57</ele>
        <time>2021-09-04T08:56:17.000Z</time>
      </trkpt>
      <trkpt lat="47.12994" lon="-2.02958">
        <ele>57</ele>
        <time>2021-09-04T08:56:19.000Z</time>
      </trkpt>
      <trkpt lat="47.13002" lon="-2.02975">
        <ele>57</ele>
        <time>2021-09-04T08:56:21.000Z</time>
      </trkpt>
      <trkpt lat="47.1301" lon="-2.02992">
        <ele>57</ele>
        <time>2021-09-04T08:56:23.000Z</time>
      </trkpt>
      <trkpt lat="47.13017" lon="-2.0301">
        <ele>58</ele>
        <time>2021-09-04T08:56:25.000Z</time>
      </trkpt>
      <trkpt lat="47.13021" lon="-2.0303">
        <ele>58</ele>
        <time>2021-09-04T08:56:27.000Z</time>
      </trkpt>
      <trkpt lat="47.13025" lon="-2.0305">
        <ele>58</ele>
        <time>2021-09-04T08:56:29.000Z</time>
      </trkpt>
      <trkpt lat="47.13027" lon="-2.03071">
        <ele>58</ele>
        <time>2021-09-04T08:56:31.000Z</time>
      </trkpt>
      <trkpt lat="47.13028" lon="-2.03092">
        <ele>58</ele>
        <time>2021-09-04T08:56:33.000Z</time>
      </trkpt>
      <trkpt lat="47.1303" lon="-2.03112">
        <ele>58</ele>
        <time>2021-09-04T08:56:35.000Z</time>
      </trkpt>
      <trkpt lat="47.13032" lon="-2.03134">
        <ele>58</ele>
        <time>2021-09-04T08:56:37.000Z</time>
      </trkpt>
      <trkpt lat="47.13033" lon="-2.03155">
        <ele>58</ele>
        <time>2021-09-04T08:56:39.000Z</time>
      </trkpt>
      <trkpt lat="47.13035" lon="-2.03176">
        <ele>58</ele>
        <time>2021-09-04T08:56:41.000Z</time>
      </trkpt>
      <trkpt lat="47.13039" lon="-2.03197">
        <ele>57</ele>
        <time>2021-09-04T08:56:43.000Z</time>
      </trkpt>
      <trkpt lat="47.13044" lon="-2.03217">
        <ele>57</ele>
        <time>2021-09-04T08:56:45.000Z</time>
      </trkpt>
      <trkpt lat="47.13049" lon="-2.03237">
        <ele>56</ele>
        <time>2021-09-04T08:56:47.000Z</time>
      </trkpt>
      <trkpt lat="47.13055" lon="-2.03256">
        <ele>57</ele>
        <time>2021-09-04T08:56:49.000Z</time>
      </trkpt>
      <trkpt lat="47.13061" lon="-2.03275">
        <ele>56</ele>
        <time>2021-09-04T08:56:51.000Z</time>
      </trkpt>
      <trkpt lat="47.13067" lon="-2.03294">
        <ele>56</ele>
        <time>2021-09-04T08:56:53.000Z</time>
      </trkpt>
      <trkpt lat="47.13071" lon="-2.03314">
        <ele>56</ele>
        <time>2021-09-04T08:56:55.000Z</time>
      </trkpt>
      <trkpt lat="47.13074" lon="-2.03334">
        <ele>56</ele>
        <time>2021-09-04T08:56:57.000Z</time>
      </trkpt>
      <trkpt lat="47.13074" lon="-2.03354">
        <ele>56</ele>
        <time>2021-09-04T08:56:59.000Z</time>
      </trkpt>
      <trkpt lat="47.13075" lon="-2.03374">
        <ele>56</ele>
        <time>2021-09-04T08:57:01.000Z</time>
      </trkpt>
      <trkpt lat="47.13076" lon="-2.03392">
        <ele>56</ele>
        <time>2021-09-04T08:57:03.000Z</time>
      </trkpt>
      <trkpt lat="47.13078" lon="-2.03408">
        <ele>56</ele>
        <time>2021-09-04T08:57:05.000Z</time>
      </trkpt>
      <trkpt lat="47.13081" lon="-2.03421">
        <ele>56</ele>
        <time>2021-09-04T08:57:07.000Z</time>
      </trkpt>
      <trkpt lat="47.13084" lon="-2.03434">
        <ele>56</ele>
        <time>2021-09-04T08:57:09.000Z</time>
      </trkpt>
      <trkpt lat="47.13084" lon="-2.03452">
        <ele>56</ele>
        <time>2021-09-04T08:57:11.000Z</time>
      </trkpt>
      <trkpt lat="47.13083" lon="-2.03472">
        <ele>57</ele>
        <time>2021-09-04T08:57:13.000Z</time>
      </trkpt>
      <trkpt lat="47.1308" lon="-2.03491">
        <ele>57</ele>
        <time>2021-09-04T08:57:15.000Z</time>
      </trkpt>
      <trkpt lat="47.13077" lon="-2.03512">
        <ele>57</ele>
        <time>2021-09-04T08:57:17.000Z</time>
      </trkpt>
      <trkpt lat="47.13074" lon="-2.03532">
        <ele>56</ele>
        <time>2021-09-04T08:57:19.000Z</time>
      </trkpt>
      <trkpt lat="47.13071" lon="-2.03553">
        <ele>56</ele>
        <time>2021-09-04T08:57:21.000Z</time>
      </trkpt>
      <trkpt lat="47.13067" lon="-2.03573">
        <ele>55</ele>
        <time>2021-09-04T08:57:23.000Z</time>
      </trkpt>
      <trkpt lat="47.13061" lon="-2.03593">
        <ele>55</ele>
        <time>2021-09-04T08:57:25.000Z</time>
      </trkpt>
      <trkpt lat="47.13054" lon="-2.03611">
        <ele>55</ele>
        <time>2021-09-04T08:57:27.000Z</time>
      </trkpt>
      <trkpt lat="47.13045" lon="-2.0363">
        <ele>54</ele>
        <time>2021-09-04T08:57:29.000Z</time>
      </trkpt>
      <trkpt lat="47.13036" lon="-2.03647">
        <ele>54</ele>
        <time>2021-09-04T08:57:31.000Z</time>
      </trkpt>
      <trkpt lat="47.1303" lon="-2.03666">
        <ele>54</ele>
        <time>2021-09-04T08:57:33.000Z</time>
      </trkpt>
      <trkpt lat="47.13028" lon="-2.03688">
        <ele>54</ele>
        <time>2021-09-04T08:57:35.000Z</time>
      </trkpt>
      <trkpt lat="47.1303" lon="-2.03708">
        <ele>54</ele>
        <time>2021-09-04T08:57:37.000Z</time>
      </trkpt>
      <trkpt lat="47.13034" lon="-2.03726">
        <ele>54</ele>
        <time>2021-09-04T08:57:39.000Z</time>
      </trkpt>
      <trkpt lat="47.13039" lon="-2.03745">
        <ele>53</ele>
        <time>2021-09-04T08:57:41.000Z</time>
      </trkpt>
      <trkpt lat="47.13044" lon="-2.03764">
        <ele>53</ele>
        <time>2021-09-04T08:57:43.000Z</time>
      </trkpt>
      <trkpt lat="47.13048" lon="-2.03782">
        <ele>53</ele>
        <time>2021-09-04T08:57:45.000Z</time>
      </trkpt>
      <trkpt lat="47.13053" lon="-2.03801">
        <ele>53</ele>
        <time>2021-09-04T08:57:47.000Z</time>
      </trkpt>
      <trkpt lat="47.13058" lon="-2.0382">
        <ele>53</ele>
        <time>2021-09-04T08:57:49.000Z</time>
      </trkpt>
      <trkpt lat="47.13063" lon="-2.03838">
        <ele>53</ele>
        <time>2021-09-04T08:57:51.000Z</time>
      </trkpt>
      <trkpt lat="47.13067" lon="-2.03857">
        <ele>54</ele>
        <time>2021-09-04T08:57:53.000Z</time>
      </trkpt>
      <trkpt lat="47.13071" lon="-2.03876">
        <ele>54</ele>
        <time>2021-09-04T08:57:55.000Z</time>
      </trkpt>
      <trkpt lat="47.13073" lon="-2.03896">
        <ele>54</ele>
        <time>2021-09-04T08:57:57.000Z</time>
      </trkpt>
      <trkpt lat="47.13075" lon="-2.03917">
        <ele>53</ele>
        <time>2021-09-04T08:57:59.000Z</time>
      </trkpt>
      <trkpt lat="47.13077" lon="-2.03937">
        <ele>53</ele>
        <time>2021-09-04T08:58:01.000Z</time>
      </trkpt>
      <trkpt lat="47.13078" lon="-2.03956">
        <ele>54</ele>
        <time>2021-09-04T08:58:03.000Z</time>
      </trkpt>
      <trkpt lat="47.1308" lon="-2.03976">
        <ele>54</ele>
        <time>2021-09-04T08:58:05.000Z</time>
      </trkpt>
      <trkpt lat="47.13082" lon="-2.03995">
        <ele>54</ele>
        <time>2021-09-04T08:58:07.000Z</time>
      </trkpt>
      <trkpt lat="47.13083" lon="-2.04014">
        <ele>55</ele>
        <time>2021-09-04T08:58:09.000Z</time>
      </trkpt>
      <trkpt lat="47.13084" lon="-2.04034">
        <ele>55</ele>
        <time>2021-09-04T08:58:11.000Z</time>
      </trkpt>
      <trkpt lat="47.13085" lon="-2.04053">
        <ele>55</ele>
        <time>2021-09-04T08:58:13.000Z</time>
      </trkpt>
      <trkpt lat="47.13087" lon="-2.04074">
        <ele>55</ele>
        <time>2021-09-04T08:58:15.000Z</time>
      </trkpt>
      <trkpt lat="47.13088" lon="-2.04094">
        <ele>56</ele>
        <time>2021-09-04T08:58:17.000Z</time>
      </trkpt>
      <trkpt lat="47.1309" lon="-2.04113">
        <ele>56</ele>
        <time>2021-09-04T08:58:19.000Z</time>
      </trkpt>
      <trkpt lat="47.13091" lon="-2.04133">
        <ele>56</ele>
        <time>2021-09-04T08:58:21.000Z</time>
      </trkpt>
      <trkpt lat="47.13093" lon="-2.04153">
        <ele>56</ele>
        <time>2021-09-04T08:58:23.000Z</time>
      </trkpt>
      <trkpt lat="47.13095" lon="-2.04172">
        <ele>56</ele>
        <time>2021-09-04T08:58:25.000Z</time>
      </trkpt>
      <trkpt lat="47.13096" lon="-2.04192">
        <ele>55</ele>
        <time>2021-09-04T08:58:27.000Z</time>
      </trkpt>
      <trkpt lat="47.13098" lon="-2.04212">
        <ele>55</ele>
        <time>2021-09-04T08:58:29.000Z</time>
      </trkpt>
      <trkpt lat="47.13099" lon="-2.04231">
        <ele>55</ele>
        <time>2021-09-04T08:58:31.000Z</time>
      </trkpt>
      <trkpt lat="47.131" lon="-2.04249">
        <ele>55</ele>
        <time>2021-09-04T08:58:33.000Z</time>
      </trkpt>
      <trkpt lat="47.13103" lon="-2.04268">
        <ele>55</ele>
        <time>2021-09-04T08:58:35.000Z</time>
      </trkpt>
      <trkpt lat="47.13104" lon="-2.04288">
        <ele>56</ele>
        <time>2021-09-04T08:58:37.000Z</time>
      </trkpt>
      <trkpt lat="47.13105" lon="-2.04307">
        <ele>56</ele>
        <time>2021-09-04T08:58:39.000Z</time>
      </trkpt>
      <trkpt lat="47.13107" lon="-2.04328">
        <ele>56</ele>
        <time>2021-09-04T08:58:41.000Z</time>
      </trkpt>
      <trkpt lat="47.13107" lon="-2.04348">
        <ele>56</ele>
        <time>2021-09-04T08:58:43.000Z</time>
      </trkpt>
      <trkpt lat="47.13105" lon="-2.04369">
        <ele>55</ele>
        <time>2021-09-04T08:58:45.000Z</time>
      </trkpt>
      <trkpt lat="47.131" lon="-2.04387">
        <ele>55</ele>
        <time>2021-09-04T08:58:47.000Z</time>
      </trkpt>
      <trkpt lat="47.13093" lon="-2.04404">
        <ele>56</ele>
        <time>2021-09-04T08:58:49.000Z</time>
      </trkpt>
      <trkpt lat="47.13085" lon="-2.0442">
        <ele>56</ele>
        <time>2021-09-04T08:58:51.000Z</time>
      </trkpt>
      <trkpt lat="47.13077" lon="-2.04436">
        <ele>56</ele>
        <time>2021-09-04T08:58:53.000Z</time>
      </trkpt>
      <trkpt lat="47.13068" lon="-2.04451">
        <ele>56</ele>
        <time>2021-09-04T08:58:55.000Z</time>
      </trkpt>
      <trkpt lat="47.13059" lon="-2.04467">
        <ele>56</ele>
        <time>2021-09-04T08:58:57.000Z</time>
      </trkpt>
      <trkpt lat="47.1305" lon="-2.04483">
        <ele>57</ele>
        <time>2021-09-04T08:58:59.000Z</time>
      </trkpt>
      <trkpt lat="47.1304" lon="-2.04497">
        <ele>57</ele>
        <time>2021-09-04T08:59:01.000Z</time>
      </trkpt>
      <trkpt lat="47.13031" lon="-2.04512">
        <ele>57</ele>
        <time>2021-09-04T08:59:03.000Z</time>
      </trkpt>
      <trkpt lat="47.13022" lon="-2.04526">
        <ele>57</ele>
        <time>2021-09-04T08:59:05.000Z</time>
      </trkpt>
      <trkpt lat="47.13013" lon="-2.04541">
        <ele>56</ele>
        <time>2021-09-04T08:59:07.000Z</time>
      </trkpt>
      <trkpt lat="47.13003" lon="-2.04555">
        <ele>56</ele>
        <time>2021-09-04T08:59:09.000Z</time>
      </trkpt>
      <trkpt lat="47.12995" lon="-2.0457">
        <ele>55</ele>
        <time>2021-09-04T08:59:11.000Z</time>
      </trkpt>
      <trkpt lat="47.12985" lon="-2.04584">
        <ele>55</ele>
        <time>2021-09-04T08:59:13.000Z</time>
      </trkpt>
      <trkpt lat="47.12977" lon="-2.04598">
        <ele>55</ele>
        <time>2021-09-04T08:59:15.000Z</time>
      </trkpt>
      <trkpt lat="47.12968" lon="-2.04613">
        <ele>55</ele>
        <time>2021-09-04T08:59:17.000Z</time>
      </trkpt>
      <trkpt lat="47.12961" lon="-2.04629">
        <ele>55</ele>
        <time>2021-09-04T08:59:19.000Z</time>
      </trkpt>
      <trkpt lat="47.12955" lon="-2.04645">
        <ele>54</ele>
        <time>2021-09-04T08:59:21.000Z</time>
      </trkpt>
      <trkpt lat="47.1295" lon="-2.04663">
        <ele>54</ele>
        <time>2021-09-04T08:59:23.000Z</time>
      </trkpt>
      <trkpt lat="47.12949" lon="-2.04682">
        <ele>54</ele>
        <time>2021-09-04T08:59:25.000Z</time>
      </trkpt>
      <trkpt lat="47.12948" lon="-2.047">
        <ele>55</ele>
        <time>2021-09-04T08:59:27.000Z</time>
      </trkpt>
      <trkpt lat="47.12948" lon="-2.04717">
        <ele>55</ele>
        <time>2021-09-04T08:59:29.000Z</time>
      </trkpt>
      <trkpt lat="47.12948" lon="-2.04734">
        <ele>55</ele>
        <time>2021-09-04T08:59:31.000Z</time>
      </trkpt>
      <trkpt lat="47.12949" lon="-2.04749">
        <ele>55</ele>
        <time>2021-09-04T08:59:33.000Z</time>
      </trkpt>
      <trkpt lat="47.12948" lon="-2.04765">
        <ele>55</ele>
        <time>2021-09-04T08:59:35.000Z</time>
      </trkpt>
      <trkpt lat="47.12951" lon="-2.04778">
        <ele>55</ele>
        <time>2021-09-04T08:59:37.000Z</time>
      </trkpt>
      <trkpt lat="47.12961" lon="-2.04785">
        <ele>56</ele>
        <time>2021-09-04T08:59:39.000Z</time>
      </trkpt>
      <trkpt lat="47.12972" lon="-2.04789">
        <ele>57</ele>
        <time>2021-09-04T08:59:41.000Z</time>
      </trkpt>
      <trkpt lat="47.12984" lon="-2.04793">
        <ele>58</ele>
        <time>2021-09-04T08:59:43.000Z</time>
      </trkpt>
      <trkpt lat="47.12996" lon="-2.04799">
        <ele>58</ele>
        <time>2021-09-04T08:59:45.000Z</time>
      </trkpt>
      <trkpt lat="47.13008" lon="-2.04803">
        <ele>59</ele>
        <time>2021-09-04T08:59:47.000Z</time>
      </trkpt>
      <trkpt lat="47.1302" lon="-2.04808">
        <ele>60</ele>
        <time>2021-09-04T08:59:49.000Z</time>
      </trkpt>
      <trkpt lat="47.13032" lon="-2.04814">
        <ele>60</ele>
        <time>2021-09-04T08:59:51.000Z</time>
      </trkpt>
      <trkpt lat="47.13044" lon="-2.0482">
        <ele>61</ele>
        <time>2021-09-04T08:59:53.000Z</time>
      </trkpt>
      <trkpt lat="47.13056" lon="-2.04825">
        <ele>61</ele>
        <time>2021-09-04T08:59:55.000Z</time>
      </trkpt>
      <trkpt lat="47.13068" lon="-2.04831">
        <ele>61</ele>
        <time>2021-09-04T08:59:57.000Z</time>
      </trkpt>
      <trkpt lat="47.13081" lon="-2.04836">
        <ele>61</ele>
        <time>2021-09-04T08:59:59.000Z</time>
      </trkpt>
      <trkpt lat="47.13093" lon="-2.04842">
        <ele>62</ele>
        <time>2021-09-04T09:00:01.000Z</time>
      </trkpt>
      <trkpt lat="47.13105" lon="-2.04848">
        <ele>62</ele>
        <time>2021-09-04T09:00:03.000Z</time>
      </trkpt>
      <trkpt lat="47.13118" lon="-2.04853">
        <ele>62</ele>
        <time>2021-09-04T09:00:05.000Z</time>
      </trkpt>
      <trkpt lat="47.1313" lon="-2.04859">
        <ele>62</ele>
        <time>2021-09-04T09:00:07.000Z</time>
      </trkpt>
      <trkpt lat="47.13143" lon="-2.04865">
        <ele>62</ele>
        <time>2021-09-04T09:00:09.000Z</time>
      </trkpt>
      <trkpt lat="47.13155" lon="-2.04871">
        <ele>62</ele>
        <time>2021-09-04T09:00:11.000Z</time>
      </trkpt>
      <trkpt lat="47.13168" lon="-2.04877">
        <ele>62</ele>
        <time>2021-09-04T09:00:13.000Z</time>
      </trkpt>
      <trkpt lat="47.1318" lon="-2.04883">
        <ele>62</ele>
        <time>2021-09-04T09:00:15.000Z</time>
      </trkpt>
      <trkpt lat="47.13194" lon="-2.04888">
        <ele>62</ele>
        <time>2021-09-04T09:00:17.000Z</time>
      </trkpt>
      <trkpt lat="47.13208" lon="-2.04892">
        <ele>62</ele>
        <time>2021-09-04T09:00:19.000Z</time>
      </trkpt>
      <trkpt lat="47.13228" lon="-2.04897">
        <ele>62</ele>
        <time>2021-09-04T09:00:22.000Z</time>
      </trkpt>
      <trkpt lat="47.13242" lon="-2.04899">
        <ele>62</ele>
        <time>2021-09-04T09:00:24.000Z</time>
      </trkpt>
      <trkpt lat="47.13264" lon="-2.04903">
        <ele>63</ele>
        <time>2021-09-04T09:00:27.000Z</time>
      </trkpt>
      <trkpt lat="47.13286" lon="-2.04905">
        <ele>62</ele>
        <time>2021-09-04T09:00:30.000Z</time>
      </trkpt>
      <trkpt lat="47.13301" lon="-2.04907">
        <ele>62</ele>
        <time>2021-09-04T09:00:32.000Z</time>
      </trkpt>
      <trkpt lat="47.13317" lon="-2.04909">
        <ele>61</ele>
        <time>2021-09-04T09:00:34.000Z</time>
      </trkpt>
      <trkpt lat="47.13332" lon="-2.04911">
        <ele>61</ele>
        <time>2021-09-04T09:00:36.000Z</time>
      </trkpt>
      <trkpt lat="47.13346" lon="-2.04913">
        <ele>61</ele>
        <time>2021-09-04T09:00:38.000Z</time>
      </trkpt>
      <trkpt lat="47.13361" lon="-2.04915">
        <ele>61</ele>
        <time>2021-09-04T09:00:40.000Z</time>
      </trkpt>
      <trkpt lat="47.13375" lon="-2.04917">
        <ele>60</ele>
        <time>2021-09-04T09:00:42.000Z</time>
      </trkpt>
      <trkpt lat="47.1339" lon="-2.04919">
        <ele>60</ele>
        <time>2021-09-04T09:00:44.000Z</time>
      </trkpt>
      <trkpt lat="47.13404" lon="-2.04921">
        <ele>60</ele>
        <time>2021-09-04T09:00:46.000Z</time>
      </trkpt>
      <trkpt lat="47.13418" lon="-2.04923">
        <ele>60</ele>
        <time>2021-09-04T09:00:48.000Z</time>
      </trkpt>
      <trkpt lat="47.13432" lon="-2.04925">
        <ele>60</ele>
        <time>2021-09-04T09:00:50.000Z</time>
      </trkpt>
      <trkpt lat="47.13445" lon="-2.04928">
        <ele>60</ele>
        <time>2021-09-04T09:00:52.000Z</time>
      </trkpt>
      <trkpt lat="47.13459" lon="-2.0493">
        <ele>60</ele>
        <time>2021-09-04T09:00:54.000Z</time>
      </trkpt>
      <trkpt lat="47.13473" lon="-2.04933">
        <ele>60</ele>
        <time>2021-09-04T09:00:56.000Z</time>
      </trkpt>
      <trkpt lat="47.13486" lon="-2.04936">
        <ele>60</ele>
        <time>2021-09-04T09:00:58.000Z</time>
      </trkpt>
      <trkpt lat="47.13499" lon="-2.04939">
        <ele>60</ele>
        <time>2021-09-04T09:01:00.000Z</time>
      </trkpt>
      <trkpt lat="47.13513" lon="-2.04942">
        <ele>61</ele>
        <time>2021-09-04T09:01:02.000Z</time>
      </trkpt>
      <trkpt lat="47.13525" lon="-2.04945">
        <ele>61</ele>
        <time>2021-09-04T09:01:04.000Z</time>
      </trkpt>
      <trkpt lat="47.13538" lon="-2.04949">
        <ele>61</ele>
        <time>2021-09-04T09:01:06.000Z</time>
      </trkpt>
      <trkpt lat="47.13557" lon="-2.04954">
        <ele>61</ele>
        <time>2021-09-04T09:01:09.000Z</time>
      </trkpt>
      <trkpt lat="47.1357" lon="-2.04956">
        <ele>61</ele>
        <time>2021-09-04T09:01:11.000Z</time>
      </trkpt>
      <trkpt lat="47.13582" lon="-2.04959">
        <ele>61</ele>
        <time>2021-09-04T09:01:13.000Z</time>
      </trkpt>
      <trkpt lat="47.13594" lon="-2.04962">
        <ele>61</ele>
        <time>2021-09-04T09:01:15.000Z</time>
      </trkpt>
      <trkpt lat="47.13607" lon="-2.04965">
        <ele>61</ele>
        <time>2021-09-04T09:01:17.000Z</time>
      </trkpt>
      <trkpt lat="47.13619" lon="-2.04967">
        <ele>61</ele>
        <time>2021-09-04T09:01:19.000Z</time>
      </trkpt>
      <trkpt lat="47.13631" lon="-2.04971">
        <ele>62</ele>
        <time>2021-09-04T09:01:21.000Z</time>
      </trkpt>
      <trkpt lat="47.13643" lon="-2.04974">
        <ele>61</ele>
        <time>2021-09-04T09:01:23.000Z</time>
      </trkpt>
      <trkpt lat="47.13655" lon="-2.04977">
        <ele>61</ele>
        <time>2021-09-04T09:01:25.000Z</time>
      </trkpt>
      <trkpt lat="47.13666" lon="-2.04982">
        <ele>61</ele>
        <time>2021-09-04T09:01:27.000Z</time>
      </trkpt>
      <trkpt lat="47.13678" lon="-2.04987">
        <ele>61</ele>
        <time>2021-09-04T09:01:29.000Z</time>
      </trkpt>
      <trkpt lat="47.13689" lon="-2.04993">
        <ele>62</ele>
        <time>2021-09-04T09:01:31.000Z</time>
      </trkpt>
      <trkpt lat="47.13701" lon="-2.04998">
        <ele>62</ele>
        <time>2021-09-04T09:01:33.000Z</time>
      </trkpt>
      <trkpt lat="47.13712" lon="-2.05004">
        <ele>62</ele>
        <time>2021-09-04T09:01:35.000Z</time>
      </trkpt>
      <trkpt lat="47.13724" lon="-2.0501">
        <ele>63</ele>
        <time>2021-09-04T09:01:37.000Z</time>
      </trkpt>
      <trkpt lat="47.13735" lon="-2.05016">
        <ele>64</ele>
        <time>2021-09-04T09:01:39.000Z</time>
      </trkpt>
      <trkpt lat="47.13746" lon="-2.05022">
        <ele>64</ele>
        <time>2021-09-04T09:01:41.000Z</time>
      </trkpt>
      <trkpt lat="47.13757" lon="-2.05029">
        <ele>65</ele>
        <time>2021-09-04T09:01:43.000Z</time>
      </trkpt>
      <trkpt lat="47.13768" lon="-2.05035">
        <ele>65</ele>
        <time>2021-09-04T09:01:45.000Z</time>
      </trkpt>
      <trkpt lat="47.13778" lon="-2.05041">
        <ele>65</ele>
        <time>2021-09-04T09:01:47.000Z</time>
      </trkpt>
      <trkpt lat="47.13789" lon="-2.05048">
        <ele>66</ele>
        <time>2021-09-04T09:01:49.000Z</time>
      </trkpt>
      <trkpt lat="47.138" lon="-2.05056">
        <ele>66</ele>
        <time>2021-09-04T09:01:51.000Z</time>
      </trkpt>
      <trkpt lat="47.13811" lon="-2.05063">
        <ele>66</ele>
        <time>2021-09-04T09:01:53.000Z</time>
      </trkpt>
      <trkpt lat="47.13821" lon="-2.0507">
        <ele>66</ele>
        <time>2021-09-04T09:01:55.000Z</time>
      </trkpt>
      <trkpt lat="47.13832" lon="-2.05077">
        <ele>66</ele>
        <time>2021-09-04T09:01:57.000Z</time>
      </trkpt>
      <trkpt lat="47.13842" lon="-2.05084">
        <ele>67</ele>
        <time>2021-09-04T09:01:59.000Z</time>
      </trkpt>
      <trkpt lat="47.13853" lon="-2.05091">
        <ele>67</ele>
        <time>2021-09-04T09:02:01.000Z</time>
      </trkpt>
      <trkpt lat="47.13864" lon="-2.05098">
        <ele>67</ele>
        <time>2021-09-04T09:02:03.000Z</time>
      </trkpt>
      <trkpt lat="47.13875" lon="-2.05103">
        <ele>66</ele>
        <time>2021-09-04T09:02:05.000Z</time>
      </trkpt>
      <trkpt lat="47.13887" lon="-2.05106">
        <ele>66</ele>
        <time>2021-09-04T09:02:07.000Z</time>
      </trkpt>
      <trkpt lat="47.13899" lon="-2.05109">
        <ele>66</ele>
        <time>2021-09-04T09:02:09.000Z</time>
      </trkpt>
      <trkpt lat="47.13911" lon="-2.0511">
        <ele>66</ele>
        <time>2021-09-04T09:02:11.000Z</time>
      </trkpt>
      <trkpt lat="47.13923" lon="-2.05111">
        <ele>66</ele>
        <time>2021-09-04T09:02:13.000Z</time>
      </trkpt>
      <trkpt lat="47.13934" lon="-2.05112">
        <ele>67</ele>
        <time>2021-09-04T09:02:15.000Z</time>
      </trkpt>
      <trkpt lat="47.13946" lon="-2.05113">
        <ele>67</ele>
        <time>2021-09-04T09:02:17.000Z</time>
      </trkpt>
      <trkpt lat="47.13958" lon="-2.05114">
        <ele>67</ele>
        <time>2021-09-04T09:02:19.000Z</time>
      </trkpt>
      <trkpt lat="47.13969" lon="-2.05114">
        <ele>67</ele>
        <time>2021-09-04T09:02:21.000Z</time>
      </trkpt>
      <trkpt lat="47.1398" lon="-2.05112">
        <ele>68</ele>
        <time>2021-09-04T09:02:23.000Z</time>
      </trkpt>
      <trkpt lat="47.13991" lon="-2.05111">
        <ele>68</ele>
        <time>2021-09-04T09:02:25.000Z</time>
      </trkpt>
      <trkpt lat="47.14003" lon="-2.05109">
        <ele>68</ele>
        <time>2021-09-04T09:02:27.000Z</time>
      </trkpt>
      <trkpt lat="47.14014" lon="-2.05107">
        <ele>69</ele>
        <time>2021-09-04T09:02:29.000Z</time>
      </trkpt>
      <trkpt lat="47.14026" lon="-2.05105">
        <ele>69</ele>
        <time>2021-09-04T09:02:31.000Z</time>
      </trkpt>
      <trkpt lat="47.14037" lon="-2.05102">
        <ele>69</ele>
        <time>2021-09-04T09:02:33.000Z</time>
      </trkpt>
      <trkpt lat="47.14049" lon="-2.051">
        <ele>69</ele>
        <time>2021-09-04T09:02:35.000Z</time>
      </trkpt>
      <trkpt lat="47.14061" lon="-2.05099">
        <ele>68</ele>
        <time>2021-09-04T09:02:37.000Z</time>
      </trkpt>
      <trkpt lat="47.14073" lon="-2.05098">
        <ele>68</ele>
        <time>2021-09-04T09:02:39.000Z</time>
      </trkpt>
      <trkpt lat="47.14085" lon="-2.05098">
        <ele>68</ele>
        <time>2021-09-04T09:02:41.000Z</time>
      </trkpt>
      <trkpt lat="47.14097" lon="-2.05099">
        <ele>68</ele>
        <time>2021-09-04T09:02:43.000Z</time>
      </trkpt>
      <trkpt lat="47.14109" lon="-2.051">
        <ele>68</ele>
        <time>2021-09-04T09:02:45.000Z</time>
      </trkpt>
      <trkpt lat="47.14121" lon="-2.05102">
        <ele>67</ele>
        <time>2021-09-04T09:02:47.000Z</time>
      </trkpt>
      <trkpt lat="47.14133" lon="-2.05105">
        <ele>68</ele>
        <time>2021-09-04T09:02:49.000Z</time>
      </trkpt>
      <trkpt lat="47.14145" lon="-2.05108">
        <ele>68</ele>
        <time>2021-09-04T09:02:51.000Z</time>
      </trkpt>
      <trkpt lat="47.14157" lon="-2.05111">
        <ele>68</ele>
        <time>2021-09-04T09:02:53.000Z</time>
      </trkpt>
      <trkpt lat="47.1417" lon="-2.05114">
        <ele>68</ele>
        <time>2021-09-04T09:02:55.000Z</time>
      </trkpt>
      <trkpt lat="47.14183" lon="-2.05117">
        <ele>68</ele>
        <time>2021-09-04T09:02:57.000Z</time>
      </trkpt>
      <trkpt lat="47.14196" lon="-2.05121">
        <ele>68</ele>
        <time>2021-09-04T09:02:59.000Z</time>
      </trkpt>
      <trkpt lat="47.14209" lon="-2.05125">
        <ele>68</ele>
        <time>2021-09-04T09:03:01.000Z</time>
      </trkpt>
      <trkpt lat="47.14223" lon="-2.0513">
        <ele>68</ele>
        <time>2021-09-04T09:03:03.000Z</time>
      </trkpt>
      <trkpt lat="47.14236" lon="-2.05133">
        <ele>68</ele>
        <time>2021-09-04T09:03:05.000Z</time>
      </trkpt>
      <trkpt lat="47.1425" lon="-2.05137">
        <ele>68</ele>
        <time>2021-09-04T09:03:07.000Z</time>
      </trkpt>
      <trkpt lat="47.14263" lon="-2.0514">
        <ele>68</ele>
        <time>2021-09-04T09:03:09.000Z</time>
      </trkpt>
      <trkpt lat="47.14277" lon="-2.05143">
        <ele>68</ele>
        <time>2021-09-04T09:03:11.000Z</time>
      </trkpt>
      <trkpt lat="47.14291" lon="-2.05146">
        <ele>68</ele>
        <time>2021-09-04T09:03:13.000Z</time>
      </trkpt>
      <trkpt lat="47.14305" lon="-2.0515">
        <ele>68</ele>
        <time>2021-09-04T09:03:15.000Z</time>
      </trkpt>
      <trkpt lat="47.14318" lon="-2.05154">
        <ele>68</ele>
        <time>2021-09-04T09:03:17.000Z</time>
      </trkpt>
      <trkpt lat="47.14332" lon="-2.05158">
        <ele>68</ele>
        <time>2021-09-04T09:03:19.000Z</time>
      </trkpt>
      <trkpt lat="47.14345" lon="-2.05161">
        <ele>68</ele>
        <time>2021-09-04T09:03:21.000Z</time>
      </trkpt>
      <trkpt lat="47.14359" lon="-2.05165">
        <ele>68</ele>
        <time>2021-09-04T09:03:23.000Z</time>
      </trkpt>
      <trkpt lat="47.14373" lon="-2.05168">
        <ele>68</ele>
        <time>2021-09-04T09:03:25.000Z</time>
      </trkpt>
      <trkpt lat="47.14387" lon="-2.05172">
        <ele>68</ele>
        <time>2021-09-04T09:03:27.000Z</time>
      </trkpt>
      <trkpt lat="47.14401" lon="-2.05176">
        <ele>67</ele>
        <time>2021-09-04T09:03:29.000Z</time>
      </trkpt>
      <trkpt lat="47.14415" lon="-2.0518">
        <ele>67</ele>
        <time>2021-09-04T09:03:31.000Z</time>
      </trkpt>
      <trkpt lat="47.14429" lon="-2.05183">
        <ele>67</ele>
        <time>2021-09-04T09:03:33.000Z</time>
      </trkpt>
      <trkpt lat="47.14443" lon="-2.05187">
        <ele>67</ele>
        <time>2021-09-04T09:03:35.000Z</time>
      </trkpt>
      <trkpt lat="47.14457" lon="-2.0519">
        <ele>67</ele>
        <time>2021-09-04T09:03:37.000Z</time>
      </trkpt>
      <trkpt lat="47.14471" lon="-2.05194">
        <ele>67</ele>
        <time>2021-09-04T09:03:39.000Z</time>
      </trkpt>
      <trkpt lat="47.14485" lon="-2.05198">
        <ele>68</ele>
        <time>2021-09-04T09:03:41.000Z</time>
      </trkpt>
      <trkpt lat="47.14499" lon="-2.05201">
        <ele>68</ele>
        <time>2021-09-04T09:03:43.000Z</time>
      </trkpt>
      <trkpt lat="47.14513" lon="-2.05205">
        <ele>68</ele>
        <time>2021-09-04T09:03:45.000Z</time>
      </trkpt>
      <trkpt lat="47.14527" lon="-2.05209">
        <ele>68</ele>
        <time>2021-09-04T09:03:47.000Z</time>
      </trkpt>
      <trkpt lat="47.1454" lon="-2.05215">
        <ele>67</ele>
        <time>2021-09-04T09:03:49.000Z</time>
      </trkpt>
      <trkpt lat="47.14553" lon="-2.05222">
        <ele>68</ele>
        <time>2021-09-04T09:03:51.000Z</time>
      </trkpt>
      <trkpt lat="47.14566" lon="-2.0523">
        <ele>68</ele>
        <time>2021-09-04T09:03:53.000Z</time>
      </trkpt>
      <trkpt lat="47.14577" lon="-2.05239">
        <ele>68</ele>
        <time>2021-09-04T09:03:55.000Z</time>
      </trkpt>
      <trkpt lat="47.14589" lon="-2.05248">
        <ele>68</ele>
        <time>2021-09-04T09:03:57.000Z</time>
      </trkpt>
      <trkpt lat="47.14599" lon="-2.05256">
        <ele>68</ele>
        <time>2021-09-04T09:03:59.000Z</time>
      </trkpt>
      <trkpt lat="47.1461" lon="-2.05264">
        <ele>68</ele>
        <time>2021-09-04T09:04:01.000Z</time>
      </trkpt>
      <trkpt lat="47.1462" lon="-2.05273">
        <ele>68</ele>
        <time>2021-09-04T09:04:03.000Z</time>
      </trkpt>
      <trkpt lat="47.14631" lon="-2.05281">
        <ele>68</ele>
        <time>2021-09-04T09:04:05.000Z</time>
      </trkpt>
      <trkpt lat="47.14641" lon="-2.0529">
        <ele>68</ele>
        <time>2021-09-04T09:04:07.000Z</time>
      </trkpt>
      <trkpt lat="47.14652" lon="-2.05298">
        <ele>69</ele>
        <time>2021-09-04T09:04:09.000Z</time>
      </trkpt>
      <trkpt lat="47.14663" lon="-2.05306">
        <ele>68</ele>
        <time>2021-09-04T09:04:11.000Z</time>
      </trkpt>
      <trkpt lat="47.14673" lon="-2.05315">
        <ele>68</ele>
        <time>2021-09-04T09:04:13.000Z</time>
      </trkpt>
      <trkpt lat="47.14684" lon="-2.05324">
        <ele>68</ele>
        <time>2021-09-04T09:04:15.000Z</time>
      </trkpt>
      <trkpt lat="47.14694" lon="-2.05332">
        <ele>68</ele>
        <time>2021-09-04T09:04:17.000Z</time>
      </trkpt>
      <trkpt lat="47.14704" lon="-2.0534">
        <ele>68</ele>
        <time>2021-09-04T09:04:19.000Z</time>
      </trkpt>
      <trkpt lat="47.14714" lon="-2.05347">
        <ele>69</ele>
        <time>2021-09-04T09:04:21.000Z</time>
      </trkpt>
      <trkpt lat="47.14724" lon="-2.05356">
        <ele>69</ele>
        <time>2021-09-04T09:04:23.000Z</time>
      </trkpt>
      <trkpt lat="47.14734" lon="-2.05364">
        <ele>69</ele>
        <time>2021-09-04T09:04:25.000Z</time>
      </trkpt>
      <trkpt lat="47.14744" lon="-2.05371">
        <ele>69</ele>
        <time>2021-09-04T09:04:27.000Z</time>
      </trkpt>
      <trkpt lat="47.14755" lon="-2.05379">
        <ele>69</ele>
        <time>2021-09-04T09:04:29.000Z</time>
      </trkpt>
      <trkpt lat="47.14765" lon="-2.05387">
        <ele>69</ele>
        <time>2021-09-04T09:04:31.000Z</time>
      </trkpt>
      <trkpt lat="47.14775" lon="-2.05394">
        <ele>69</ele>
        <time>2021-09-04T09:04:33.000Z</time>
      </trkpt>
      <trkpt lat="47.14786" lon="-2.05399">
        <ele>69</ele>
        <time>2021-09-04T09:04:35.000Z</time>
      </trkpt>
      <trkpt lat="47.14797" lon="-2.05403">
        <ele>69</ele>
        <time>2021-09-04T09:04:37.000Z</time>
      </trkpt>
      <trkpt lat="47.14808" lon="-2.05406">
        <ele>70</ele>
        <time>2021-09-04T09:04:39.000Z</time>
      </trkpt>
      <trkpt lat="47.14819" lon="-2.05409">
        <ele>70</ele>
        <time>2021-09-04T09:04:41.000Z</time>
      </trkpt>
      <trkpt lat="47.14831" lon="-2.05411">
        <ele>71</ele>
        <time>2021-09-04T09:04:43.000Z</time>
      </trkpt>
      <trkpt lat="47.14842" lon="-2.05412">
        <ele>72</ele>
        <time>2021-09-04T09:04:45.000Z</time>
      </trkpt>
      <trkpt lat="47.14853" lon="-2.05415">
        <ele>71</ele>
        <time>2021-09-04T09:04:47.000Z</time>
      </trkpt>
      <trkpt lat="47.14865" lon="-2.05416">
        <ele>71</ele>
        <time>2021-09-04T09:04:49.000Z</time>
      </trkpt>
      <trkpt lat="47.14876" lon="-2.05418">
        <ele>72</ele>
        <time>2021-09-04T09:04:51.000Z</time>
      </trkpt>
      <trkpt lat="47.14888" lon="-2.0542">
        <ele>72</ele>
        <time>2021-09-04T09:04:53.000Z</time>
      </trkpt>
      <trkpt lat="47.14899" lon="-2.05422">
        <ele>72</ele>
        <time>2021-09-04T09:04:55.000Z</time>
      </trkpt>
      <trkpt lat="47.1491" lon="-2.05423">
        <ele>72</ele>
        <time>2021-09-04T09:04:57.000Z</time>
      </trkpt>
      <trkpt lat="47.14922" lon="-2.05425">
        <ele>72</ele>
        <time>2021-09-04T09:04:59.000Z</time>
      </trkpt>
      <trkpt lat="47.14933" lon="-2.05428">
        <ele>72</ele>
        <time>2021-09-04T09:05:01.000Z</time>
      </trkpt>
      <trkpt lat="47.14945" lon="-2.05431">
        <ele>72</ele>
        <time>2021-09-04T09:05:03.000Z</time>
      </trkpt>
      <trkpt lat="47.14956" lon="-2.05434">
        <ele>73</ele>
        <time>2021-09-04T09:05:05.000Z</time>
      </trkpt>
      <trkpt lat="47.14968" lon="-2.05437">
        <ele>72</ele>
        <time>2021-09-04T09:05:07.000Z</time>
      </trkpt>
      <trkpt lat="47.1498" lon="-2.0544">
        <ele>73</ele>
        <time>2021-09-04T09:05:09.000Z</time>
      </trkpt>
      <trkpt lat="47.14992" lon="-2.05443">
        <ele>73</ele>
        <time>2021-09-04T09:05:11.000Z</time>
      </trkpt>
      <trkpt lat="47.15004" lon="-2.05446">
        <ele>73</ele>
        <time>2021-09-04T09:05:13.000Z</time>
      </trkpt>
      <trkpt lat="47.15016" lon="-2.05448">
        <ele>73</ele>
        <time>2021-09-04T09:05:15.000Z</time>
      </trkpt>
      <trkpt lat="47.15028" lon="-2.05451">
        <ele>73</ele>
        <time>2021-09-04T09:05:17.000Z</time>
      </trkpt>
      <trkpt lat="47.1504" lon="-2.05454">
        <ele>73</ele>
        <time>2021-09-04T09:05:19.000Z</time>
      </trkpt>
      <trkpt lat="47.15052" lon="-2.05458">
        <ele>73</ele>
        <time>2021-09-04T09:05:21.000Z</time>
      </trkpt>
      <trkpt lat="47.15064" lon="-2.0546">
        <ele>73</ele>
        <time>2021-09-04T09:05:23.000Z</time>
      </trkpt>
      <trkpt lat="47.15076" lon="-2.05463">
        <ele>73</ele>
        <time>2021-09-04T09:05:25.000Z</time>
      </trkpt>
      <trkpt lat="47.15087" lon="-2.05466">
        <ele>74</ele>
        <time>2021-09-04T09:05:27.000Z</time>
      </trkpt>
      <trkpt lat="47.15099" lon="-2.05469">
        <ele>74</ele>
        <time>2021-09-04T09:05:29.000Z</time>
      </trkpt>
      <trkpt lat="47.1511" lon="-2.05471">
        <ele>74</ele>
        <time>2021-09-04T09:05:31.000Z</time>
      </trkpt>
      <trkpt lat="47.15121" lon="-2.05474">
        <ele>75</ele>
        <time>2021-09-04T09:05:33.000Z</time>
      </trkpt>
      <trkpt lat="47.15132" lon="-2.05476">
        <ele>75</ele>
        <time>2021-09-04T09:05:35.000Z</time>
      </trkpt>
      <trkpt lat="47.15143" lon="-2.05478">
        <ele>76</ele>
        <time>2021-09-04T09:05:37.000Z</time>
      </trkpt>
      <trkpt lat="47.15154" lon="-2.05479">
        <ele>76</ele>
        <time>2021-09-04T09:05:39.000Z</time>
      </trkpt>
      <trkpt lat="47.15166" lon="-2.05478">
        <ele>76</ele>
        <time>2021-09-04T09:05:41.000Z</time>
      </trkpt>
      <trkpt lat="47.15178" lon="-2.05478">
        <ele>76</ele>
        <time>2021-09-04T09:05:43.000Z</time>
      </trkpt>
      <trkpt lat="47.1519" lon="-2.05477">
        <ele>76</ele>
        <time>2021-09-04T09:05:45.000Z</time>
      </trkpt>
      <trkpt lat="47.15203" lon="-2.05476">
        <ele>76</ele>
        <time>2021-09-04T09:05:47.000Z</time>
      </trkpt>
      <trkpt lat="47.15215" lon="-2.05475">
        <ele>76</ele>
        <time>2021-09-04T09:05:49.000Z</time>
      </trkpt>
      <trkpt lat="47.15227" lon="-2.05474">
        <ele>76</ele>
        <time>2021-09-04T09:05:51.000Z</time>
      </trkpt>
      <trkpt lat="47.15239" lon="-2.05473">
        <ele>75</ele>
        <time>2021-09-04T09:05:53.000Z</time>
      </trkpt>
      <trkpt lat="47.15252" lon="-2.05473">
        <ele>75</ele>
        <time>2021-09-04T09:05:55.000Z</time>
      </trkpt>
      <trkpt lat="47.15264" lon="-2.05472">
        <ele>76</ele>
        <time>2021-09-04T09:05:57.000Z</time>
      </trkpt>
      <trkpt lat="47.15276" lon="-2.05472">
        <ele>75</ele>
        <time>2021-09-04T09:05:59.000Z</time>
      </trkpt>
      <trkpt lat="47.15288" lon="-2.05472">
        <ele>75</ele>
        <time>2021-09-04T09:06:01.000Z</time>
      </trkpt>
      <trkpt lat="47.15301" lon="-2.05471">
        <ele>76</ele>
        <time>2021-09-04T09:06:03.000Z</time>
      </trkpt>
      <trkpt lat="47.15314" lon="-2.05469">
        <ele>76</ele>
        <time>2021-09-04T09:06:05.000Z</time>
      </trkpt>
      <trkpt lat="47.15327" lon="-2.05467">
        <ele>75</ele>
        <time>2021-09-04T09:06:07.000Z</time>
      </trkpt>
      <trkpt lat="47.1534" lon="-2.05466">
        <ele>75</ele>
        <time>2021-09-04T09:06:09.000Z</time>
      </trkpt>
      <trkpt lat="47.15353" lon="-2.05464">
        <ele>75</ele>
        <time>2021-09-04T09:06:11.000Z</time>
      </trkpt>
      <trkpt lat="47.15366" lon="-2.05461">
        <ele>75</ele>
        <time>2021-09-04T09:06:13.000Z</time>
      </trkpt>
      <trkpt lat="47.15379" lon="-2.05458">
        <ele>75</ele>
        <time>2021-09-04T09:06:15.000Z</time>
      </trkpt>
      <trkpt lat="47.15392" lon="-2.05453">
        <ele>75</ele>
        <time>2021-09-04T09:06:17.000Z</time>
      </trkpt>
      <trkpt lat="47.15405" lon="-2.05447">
        <ele>76</ele>
        <time>2021-09-04T09:06:19.000Z</time>
      </trkpt>
      <trkpt lat="47.15418" lon="-2.05441">
        <ele>75</ele>
        <time>2021-09-04T09:06:21.000Z</time>
      </trkpt>
      <trkpt lat="47.15431" lon="-2.05436">
        <ele>75</ele>
        <time>2021-09-04T09:06:23.000Z</time>
      </trkpt>
      <trkpt lat="47.15444" lon="-2.0543">
        <ele>75</ele>
        <time>2021-09-04T09:06:25.000Z</time>
      </trkpt>
      <trkpt lat="47.15457" lon="-2.05424">
        <ele>75</ele>
        <time>2021-09-04T09:06:27.000Z</time>
      </trkpt>
      <trkpt lat="47.15471" lon="-2.05417">
        <ele>75</ele>
        <time>2021-09-04T09:06:29.000Z</time>
      </trkpt>
      <trkpt lat="47.15485" lon="-2.05411">
        <ele>75</ele>
        <time>2021-09-04T09:06:31.000Z</time>
      </trkpt>
      <trkpt lat="47.15499" lon="-2.05405">
        <ele>75</ele>
        <time>2021-09-04T09:06:33.000Z</time>
      </trkpt>
      <trkpt lat="47.15513" lon="-2.054">
        <ele>74</ele>
        <time>2021-09-04T09:06:35.000Z</time>
      </trkpt>
      <trkpt lat="47.15527" lon="-2.05395">
        <ele>73</ele>
        <time>2021-09-04T09:06:37.000Z</time>
      </trkpt>
      <trkpt lat="47.15541" lon="-2.05392">
        <ele>73</ele>
        <time>2021-09-04T09:06:39.000Z</time>
      </trkpt>
      <trkpt lat="47.15556" lon="-2.05389">
        <ele>73</ele>
        <time>2021-09-04T09:06:41.000Z</time>
      </trkpt>
      <trkpt lat="47.15571" lon="-2.05388">
        <ele>72</ele>
        <time>2021-09-04T09:06:43.000Z</time>
      </trkpt>
      <trkpt lat="47.15585" lon="-2.05388">
        <ele>72</ele>
        <time>2021-09-04T09:06:45.000Z</time>
      </trkpt>
      <trkpt lat="47.156" lon="-2.05389">
        <ele>72</ele>
        <time>2021-09-04T09:06:47.000Z</time>
      </trkpt>
      <trkpt lat="47.15615" lon="-2.05393">
        <ele>72</ele>
        <time>2021-09-04T09:06:49.000Z</time>
      </trkpt>
      <trkpt lat="47.1563" lon="-2.05395">
        <ele>72</ele>
        <time>2021-09-04T09:06:51.000Z</time>
      </trkpt>
      <trkpt lat="47.15645" lon="-2.05398">
        <ele>72</ele>
        <time>2021-09-04T09:06:53.000Z</time>
      </trkpt>
      <trkpt lat="47.15659" lon="-2.05401">
        <ele>72</ele>
        <time>2021-09-04T09:06:55.000Z</time>
      </trkpt>
      <trkpt lat="47.15674" lon="-2.05404">
        <ele>72</ele>
        <time>2021-09-04T09:06:57.000Z</time>
      </trkpt>
      <trkpt lat="47.15689" lon="-2.05407">
        <ele>72</ele>
        <time>2021-09-04T09:06:59.000Z</time>
      </trkpt>
      <trkpt lat="47.15704" lon="-2.0541">
        <ele>72</ele>
        <time>2021-09-04T09:07:01.000Z</time>
      </trkpt>
      <trkpt lat="47.15718" lon="-2.05413">
        <ele>72</ele>
        <time>2021-09-04T09:07:03.000Z</time>
      </trkpt>
      <trkpt lat="47.15732" lon="-2.05416">
        <ele>71</ele>
        <time>2021-09-04T09:07:05.000Z</time>
      </trkpt>
      <trkpt lat="47.15747" lon="-2.05419">
        <ele>71</ele>
        <time>2021-09-04T09:07:07.000Z</time>
      </trkpt>
      <trkpt lat="47.15762" lon="-2.05422">
        <ele>71</ele>
        <time>2021-09-04T09:07:09.000Z</time>
      </trkpt>
      <trkpt lat="47.15776" lon="-2.05424">
        <ele>71</ele>
        <time>2021-09-04T09:07:11.000Z</time>
      </trkpt>
      <trkpt lat="47.15791" lon="-2.05427">
        <ele>71</ele>
        <time>2021-09-04T09:07:13.000Z</time>
      </trkpt>
      <trkpt lat="47.15804" lon="-2.05429">
        <ele>71</ele>
        <time>2021-09-04T09:07:15.000Z</time>
      </trkpt>
      <trkpt lat="47.15818" lon="-2.0543">
        <ele>71</ele>
        <time>2021-09-04T09:07:17.000Z</time>
      </trkpt>
      <trkpt lat="47.15833" lon="-2.05429">
        <ele>71</ele>
        <time>2021-09-04T09:07:19.000Z</time>
      </trkpt>
      <trkpt lat="47.15847" lon="-2.05429">
        <ele>71</ele>
        <time>2021-09-04T09:07:21.000Z</time>
      </trkpt>
      <trkpt lat="47.15861" lon="-2.05429">
        <ele>71</ele>
        <time>2021-09-04T09:07:23.000Z</time>
      </trkpt>
      <trkpt lat="47.15876" lon="-2.05427">
        <ele>70</ele>
        <time>2021-09-04T09:07:25.000Z</time>
      </trkpt>
      <trkpt lat="47.1589" lon="-2.05426">
        <ele>70</ele>
        <time>2021-09-04T09:07:27.000Z</time>
      </trkpt>
      <trkpt lat="47.15904" lon="-2.05424">
        <ele>71</ele>
        <time>2021-09-04T09:07:29.000Z</time>
      </trkpt>
      <trkpt lat="47.15917" lon="-2.05423">
        <ele>71</ele>
        <time>2021-09-04T09:07:31.000Z</time>
      </trkpt>
      <trkpt lat="47.15931" lon="-2.05421">
        <ele>71</ele>
        <time>2021-09-04T09:07:33.000Z</time>
      </trkpt>
      <trkpt lat="47.15943" lon="-2.05421">
        <ele>72</ele>
        <time>2021-09-04T09:07:35.000Z</time>
      </trkpt>
      <trkpt lat="47.15956" lon="-2.0542">
        <ele>72</ele>
        <time>2021-09-04T09:07:37.000Z</time>
      </trkpt>
      <trkpt lat="47.15968" lon="-2.05419">
        <ele>72</ele>
        <time>2021-09-04T09:07:39.000Z</time>
      </trkpt>
      <trkpt lat="47.15982" lon="-2.05418">
        <ele>72</ele>
        <time>2021-09-04T09:07:41.000Z</time>
      </trkpt>
      <trkpt lat="47.15995" lon="-2.05417">
        <ele>72</ele>
        <time>2021-09-04T09:07:43.000Z</time>
      </trkpt>
      <trkpt lat="47.16007" lon="-2.05416">
        <ele>72</ele>
        <time>2021-09-04T09:07:45.000Z</time>
      </trkpt>
      <trkpt lat="47.16019" lon="-2.05414">
        <ele>72</ele>
        <time>2021-09-04T09:07:47.000Z</time>
      </trkpt>
      <trkpt lat="47.16032" lon="-2.05413">
        <ele>73</ele>
        <time>2021-09-04T09:07:49.000Z</time>
      </trkpt>
      <trkpt lat="47.16045" lon="-2.05412">
        <ele>73</ele>
        <time>2021-09-04T09:07:51.000Z</time>
      </trkpt>
      <trkpt lat="47.16058" lon="-2.05411">
        <ele>73</ele>
        <time>2021-09-04T09:07:53.000Z</time>
      </trkpt>
      <trkpt lat="47.1607" lon="-2.0541">
        <ele>73</ele>
        <time>2021-09-04T09:07:55.000Z</time>
      </trkpt>
      <trkpt lat="47.16084" lon="-2.05409">
        <ele>73</ele>
        <time>2021-09-04T09:07:57.000Z</time>
      </trkpt>
      <trkpt lat="47.16097" lon="-2.05408">
        <ele>73</ele>
        <time>2021-09-04T09:07:59.000Z</time>
      </trkpt>
      <trkpt lat="47.16111" lon="-2.05407">
        <ele>73</ele>
        <time>2021-09-04T09:08:01.000Z</time>
      </trkpt>
      <trkpt lat="47.16124" lon="-2.05406">
        <ele>73</ele>
        <time>2021-09-04T09:08:03.000Z</time>
      </trkpt>
      <trkpt lat="47.16137" lon="-2.05404">
        <ele>72</ele>
        <time>2021-09-04T09:08:05.000Z</time>
      </trkpt>
      <trkpt lat="47.1615" lon="-2.05403">
        <ele>72</ele>
        <time>2021-09-04T09:08:07.000Z</time>
      </trkpt>
      <trkpt lat="47.16163" lon="-2.05401">
        <ele>73</ele>
        <time>2021-09-04T09:08:09.000Z</time>
      </trkpt>
      <trkpt lat="47.16176" lon="-2.05399">
        <ele>73</ele>
        <time>2021-09-04T09:08:11.000Z</time>
      </trkpt>
      <trkpt lat="47.16189" lon="-2.05398">
        <ele>73</ele>
        <time>2021-09-04T09:08:13.000Z</time>
      </trkpt>
      <trkpt lat="47.16202" lon="-2.05397">
        <ele>73</ele>
        <time>2021-09-04T09:08:15.000Z</time>
      </trkpt>
      <trkpt lat="47.16215" lon="-2.05395">
        <ele>73</ele>
        <time>2021-09-04T09:08:17.000Z</time>
      </trkpt>
      <trkpt lat="47.16228" lon="-2.05394">
        <ele>74</ele>
        <time>2021-09-04T09:08:19.000Z</time>
      </trkpt>
      <trkpt lat="47.16241" lon="-2.05392">
        <ele>74</ele>
        <time>2021-09-04T09:08:21.000Z</time>
      </trkpt>
      <trkpt lat="47.16254" lon="-2.0539">
        <ele>74</ele>
        <time>2021-09-04T09:08:23.000Z</time>
      </trkpt>
      <trkpt lat="47.16266" lon="-2.05388">
        <ele>74</ele>
        <time>2021-09-04T09:08:25.000Z</time>
      </trkpt>
      <trkpt lat="47.16279" lon="-2.05387">
        <ele>74</ele>
        <time>2021-09-04T09:08:27.000Z</time>
      </trkpt>
      <trkpt lat="47.16292" lon="-2.05385">
        <ele>75</ele>
        <time>2021-09-04T09:08:29.000Z</time>
      </trkpt>
      <trkpt lat="47.16306" lon="-2.05384">
        <ele>75</ele>
        <time>2021-09-04T09:08:31.000Z</time>
      </trkpt>
      <trkpt lat="47.16319" lon="-2.05382">
        <ele>75</ele>
        <time>2021-09-04T09:08:33.000Z</time>
      </trkpt>
      <trkpt lat="47.16332" lon="-2.05381">
        <ele>75</ele>
        <time>2021-09-04T09:08:35.000Z</time>
      </trkpt>
      <trkpt lat="47.16344" lon="-2.05379">
        <ele>75</ele>
        <time>2021-09-04T09:08:37.000Z</time>
      </trkpt>
      <trkpt lat="47.16357" lon="-2.05378">
        <ele>75</ele>
        <time>2021-09-04T09:08:39.000Z</time>
      </trkpt>
      <trkpt lat="47.16369" lon="-2.05376">
        <ele>76</ele>
        <time>2021-09-04T09:08:41.000Z</time>
      </trkpt>
      <trkpt lat="47.16382" lon="-2.05374">
        <ele>76</ele>
        <time>2021-09-04T09:08:43.000Z</time>
      </trkpt>
      <trkpt lat="47.16395" lon="-2.05372">
        <ele>76</ele>
        <time>2021-09-04T09:08:45.000Z</time>
      </trkpt>
      <trkpt lat="47.16408" lon="-2.05371">
        <ele>76</ele>
        <time>2021-09-04T09:08:47.000Z</time>
      </trkpt>
      <trkpt lat="47.16421" lon="-2.05368">
        <ele>76</ele>
        <time>2021-09-04T09:08:49.000Z</time>
      </trkpt>
      <trkpt lat="47.16433" lon="-2.05366">
        <ele>76</ele>
        <time>2021-09-04T09:08:51.000Z</time>
      </trkpt>
      <trkpt lat="47.16446" lon="-2.05364">
        <ele>76</ele>
        <time>2021-09-04T09:08:53.000Z</time>
      </trkpt>
      <trkpt lat="47.16458" lon="-2.0536">
        <ele>77</ele>
        <time>2021-09-04T09:08:55.000Z</time>
      </trkpt>
      <trkpt lat="47.16471" lon="-2.05356">
        <ele>77</ele>
        <time>2021-09-04T09:08:57.000Z</time>
      </trkpt>
      <trkpt lat="47.16483" lon="-2.05351">
        <ele>77</ele>
        <time>2021-09-04T09:08:59.000Z</time>
      </trkpt>
      <trkpt lat="47.16496" lon="-2.05347">
        <ele>78</ele>
        <time>2021-09-04T09:09:01.000Z</time>
      </trkpt>
      <trkpt lat="47.16508" lon="-2.05342">
        <ele>77</ele>
        <time>2021-09-04T09:09:03.000Z</time>
      </trkpt>
      <trkpt lat="47.1652" lon="-2.05337">
        <ele>77</ele>
        <time>2021-09-04T09:09:05.000Z</time>
      </trkpt>
      <trkpt lat="47.16532" lon="-2.05332">
        <ele>77</ele>
        <time>2021-09-04T09:09:07.000Z</time>
      </trkpt>
      <trkpt lat="47.16543" lon="-2.05328">
        <ele>77</ele>
        <time>2021-09-04T09:09:09.000Z</time>
      </trkpt>
      <trkpt lat="47.16555" lon="-2.05322">
        <ele>77</ele>
        <time>2021-09-04T09:09:11.000Z</time>
      </trkpt>
      <trkpt lat="47.16567" lon="-2.05317">
        <ele>77</ele>
        <time>2021-09-04T09:09:13.000Z</time>
      </trkpt>
      <trkpt lat="47.16579" lon="-2.05312">
        <ele>77</ele>
        <time>2021-09-04T09:09:15.000Z</time>
      </trkpt>
      <trkpt lat="47.16591" lon="-2.05307">
        <ele>77</ele>
        <time>2021-09-04T09:09:17.000Z</time>
      </trkpt>
      <trkpt lat="47.16603" lon="-2.05301">
        <ele>78</ele>
        <time>2021-09-04T09:09:19.000Z</time>
      </trkpt>
      <trkpt lat="47.16615" lon="-2.05296">
        <ele>78</ele>
        <time>2021-09-04T09:09:21.000Z</time>
      </trkpt>
      <trkpt lat="47.16627" lon="-2.05291">
        <ele>78</ele>
        <time>2021-09-04T09:09:23.000Z</time>
      </trkpt>
      <trkpt lat="47.1664" lon="-2.05286">
        <ele>78</ele>
        <time>2021-09-04T09:09:25.000Z</time>
      </trkpt>
      <trkpt lat="47.16652" lon="-2.05281">
        <ele>79</ele>
        <time>2021-09-04T09:09:27.000Z</time>
      </trkpt>
      <trkpt lat="47.16664" lon="-2.05275">
        <ele>79</ele>
        <time>2021-09-04T09:09:29.000Z</time>
      </trkpt>
      <trkpt lat="47.16677" lon="-2.0527">
        <ele>79</ele>
        <time>2021-09-04T09:09:31.000Z</time>
      </trkpt>
      <trkpt lat="47.16689" lon="-2.05264">
        <ele>80</ele>
        <time>2021-09-04T09:09:33.000Z</time>
      </trkpt>
      <trkpt lat="47.167" lon="-2.05258">
        <ele>80</ele>
        <time>2021-09-04T09:09:35.000Z</time>
      </trkpt>
      <trkpt lat="47.16713" lon="-2.05253">
        <ele>80</ele>
        <time>2021-09-04T09:09:37.000Z</time>
      </trkpt>
      <trkpt lat="47.16725" lon="-2.05247">
        <ele>80</ele>
        <time>2021-09-04T09:09:39.000Z</time>
      </trkpt>
      <trkpt lat="47.16737" lon="-2.05242">
        <ele>80</ele>
        <time>2021-09-04T09:09:41.000Z</time>
      </trkpt>
      <trkpt lat="47.16749" lon="-2.05236">
        <ele>80</ele>
        <time>2021-09-04T09:09:43.000Z</time>
      </trkpt>
      <trkpt lat="47.16761" lon="-2.05231">
        <ele>81</ele>
        <time>2021-09-04T09:09:45.000Z</time>
      </trkpt>
      <trkpt lat="47.16773" lon="-2.05226">
        <ele>81</ele>
        <time>2021-09-04T09:09:47.000Z</time>
      </trkpt>
      <trkpt lat="47.16786" lon="-2.05221">
        <ele>81</ele>
        <time>2021-09-04T09:09:49.000Z</time>
      </trkpt>
      <trkpt lat="47.16798" lon="-2.05215">
        <ele>82</ele>
        <time>2021-09-04T09:09:51.000Z</time>
      </trkpt>
      <trkpt lat="47.1681" lon="-2.05211">
        <ele>82</ele>
        <time>2021-09-04T09:09:53.000Z</time>
      </trkpt>
      <trkpt lat="47.16822" lon="-2.05206">
        <ele>82</ele>
        <time>2021-09-04T09:09:55.000Z</time>
      </trkpt>
      <trkpt lat="47.16834" lon="-2.052">
        <ele>83</ele>
        <time>2021-09-04T09:09:57.000Z</time>
      </trkpt>
      <trkpt lat="47.16846" lon="-2.05196">
        <ele>83</ele>
        <time>2021-09-04T09:09:59.000Z</time>
      </trkpt>
      <trkpt lat="47.16858" lon="-2.05191">
        <ele>82</ele>
        <time>2021-09-04T09:10:01.000Z</time>
      </trkpt>
      <trkpt lat="47.1687" lon="-2.05189">
        <ele>83</ele>
        <time>2021-09-04T09:10:03.000Z</time>
      </trkpt>
      <trkpt lat="47.16883" lon="-2.05186">
        <ele>83</ele>
        <time>2021-09-04T09:10:05.000Z</time>
      </trkpt>
      <trkpt lat="47.16895" lon="-2.05185">
        <ele>83</ele>
        <time>2021-09-04T09:10:07.000Z</time>
      </trkpt>
      <trkpt lat="47.16907" lon="-2.05184">
        <ele>84</ele>
        <time>2021-09-04T09:10:09.000Z</time>
      </trkpt>
      <trkpt lat="47.16919" lon="-2.05185">
        <ele>85</ele>
        <time>2021-09-04T09:10:11.000Z</time>
      </trkpt>
      <trkpt lat="47.16931" lon="-2.05186">
        <ele>85</ele>
        <time>2021-09-04T09:10:13.000Z</time>
      </trkpt>
      <trkpt lat="47.16944" lon="-2.05188">
        <ele>85</ele>
        <time>2021-09-04T09:10:15.000Z</time>
      </trkpt>
      <trkpt lat="47.16955" lon="-2.0519">
        <ele>86</ele>
        <time>2021-09-04T09:10:17.000Z</time>
      </trkpt>
      <trkpt lat="47.16967" lon="-2.05192">
        <ele>86</ele>
        <time>2021-09-04T09:10:19.000Z</time>
      </trkpt>
      <trkpt lat="47.16979" lon="-2.05194">
        <ele>87</ele>
        <time>2021-09-04T09:10:21.000Z</time>
      </trkpt>
      <trkpt lat="47.16992" lon="-2.05196">
        <ele>87</ele>
        <time>2021-09-04T09:10:23.000Z</time>
      </trkpt>
      <trkpt lat="47.17004" lon="-2.05197">
        <ele>88</ele>
        <time>2021-09-04T09:10:25.000Z</time>
      </trkpt>
      <trkpt lat="47.17016" lon="-2.05199">
        <ele>88</ele>
        <time>2021-09-04T09:10:27.000Z</time>
      </trkpt>
      <trkpt lat="47.17029" lon="-2.05202">
        <ele>88</ele>
        <time>2021-09-04T09:10:29.000Z</time>
      </trkpt>
      <trkpt lat="47.17041" lon="-2.05203">
        <ele>88</ele>
        <time>2021-09-04T09:10:31.000Z</time>
      </trkpt>
      <trkpt lat="47.17054" lon="-2.05206">
        <ele>88</ele>
        <time>2021-09-04T09:10:33.000Z</time>
      </trkpt>
      <trkpt lat="47.17066" lon="-2.05208">
        <ele>89</ele>
        <time>2021-09-04T09:10:35.000Z</time>
      </trkpt>
      <trkpt lat="47.17077" lon="-2.0521">
        <ele>89</ele>
        <time>2021-09-04T09:10:37.000Z</time>
      </trkpt>
      <trkpt lat="47.1709" lon="-2.05212">
        <ele>89</ele>
        <time>2021-09-04T09:10:39.000Z</time>
      </trkpt>
      <trkpt lat="47.17102" lon="-2.05214">
        <ele>89</ele>
        <time>2021-09-04T09:10:41.000Z</time>
      </trkpt>
      <trkpt lat="47.17114" lon="-2.05215">
        <ele>89</ele>
        <time>2021-09-04T09:10:43.000Z</time>
      </trkpt>
      <trkpt lat="47.17127" lon="-2.05217">
        <ele>89</ele>
        <time>2021-09-04T09:10:45.000Z</time>
      </trkpt>
      <trkpt lat="47.17139" lon="-2.05217">
        <ele>89</ele>
        <time>2021-09-04T09:10:47.000Z</time>
      </trkpt>
      <trkpt lat="47.17152" lon="-2.05218">
        <ele>89</ele>
        <time>2021-09-04T09:10:49.000Z</time>
      </trkpt>
      <trkpt lat="47.17164" lon="-2.05217">
        <ele>89</ele>
        <time>2021-09-04T09:10:51.000Z</time>
      </trkpt>
      <trkpt lat="47.17176" lon="-2.05217">
        <ele>89</ele>
        <time>2021-09-04T09:10:53.000Z</time>
      </trkpt>
      <trkpt lat="47.17189" lon="-2.05216">
        <ele>90</ele>
        <time>2021-09-04T09:10:55.000Z</time>
      </trkpt>
      <trkpt lat="47.17202" lon="-2.05214">
        <ele>90</ele>
        <time>2021-09-04T09:10:57.000Z</time>
      </trkpt>
      <trkpt lat="47.17215" lon="-2.05212">
        <ele>90</ele>
        <time>2021-09-04T09:10:59.000Z</time>
      </trkpt>
      <trkpt lat="47.17228" lon="-2.05211">
        <ele>91</ele>
        <time>2021-09-04T09:11:01.000Z</time>
      </trkpt>
      <trkpt lat="47.17241" lon="-2.0521">
        <ele>91</ele>
        <time>2021-09-04T09:11:03.000Z</time>
      </trkpt>
      <trkpt lat="47.17254" lon="-2.05209">
        <ele>91</ele>
        <time>2021-09-04T09:11:05.000Z</time>
      </trkpt>
      <trkpt lat="47.17266" lon="-2.05208">
        <ele>91</ele>
        <time>2021-09-04T09:11:07.000Z</time>
      </trkpt>
      <trkpt lat="47.17279" lon="-2.05206">
        <ele>91</ele>
        <time>2021-09-04T09:11:09.000Z</time>
      </trkpt>
      <trkpt lat="47.17292" lon="-2.05204">
        <ele>91</ele>
        <time>2021-09-04T09:11:11.000Z</time>
      </trkpt>
      <trkpt lat="47.17305" lon="-2.05202">
        <ele>92</ele>
        <time>2021-09-04T09:11:13.000Z</time>
      </trkpt>
      <trkpt lat="47.17317" lon="-2.05201">
        <ele>92</ele>
        <time>2021-09-04T09:11:15.000Z</time>
      </trkpt>
      <trkpt lat="47.1733" lon="-2.05199">
        <ele>92</ele>
        <time>2021-09-04T09:11:17.000Z</time>
      </trkpt>
      <trkpt lat="47.17343" lon="-2.05198">
        <ele>92</ele>
        <time>2021-09-04T09:11:19.000Z</time>
      </trkpt>
      <trkpt lat="47.17355" lon="-2.05196">
        <ele>92</ele>
        <time>2021-09-04T09:11:21.000Z</time>
      </trkpt>
      <trkpt lat="47.17368" lon="-2.05195">
        <ele>92</ele>
        <time>2021-09-04T09:11:23.000Z</time>
      </trkpt>
      <trkpt lat="47.1738" lon="-2.05194">
        <ele>92</ele>
        <time>2021-09-04T09:11:25.000Z</time>
      </trkpt>
      <trkpt lat="47.17393" lon="-2.05194">
        <ele>92</ele>
        <time>2021-09-04T09:11:27.000Z</time>
      </trkpt>
      <trkpt lat="47.17406" lon="-2.05194">
        <ele>92</ele>
        <time>2021-09-04T09:11:29.000Z</time>
      </trkpt>
      <trkpt lat="47.17418" lon="-2.05194">
        <ele>92</ele>
        <time>2021-09-04T09:11:31.000Z</time>
      </trkpt>
      <trkpt lat="47.1743" lon="-2.05194">
        <ele>92</ele>
        <time>2021-09-04T09:11:33.000Z</time>
      </trkpt>
      <trkpt lat="47.17442" lon="-2.05194">
        <ele>92</ele>
        <time>2021-09-04T09:11:35.000Z</time>
      </trkpt>
      <trkpt lat="47.17454" lon="-2.05194">
        <ele>92</ele>
        <time>2021-09-04T09:11:37.000Z</time>
      </trkpt>
      <trkpt lat="47.17466" lon="-2.05194">
        <ele>92</ele>
        <time>2021-09-04T09:11:39.000Z</time>
      </trkpt>
      <trkpt lat="47.17478" lon="-2.05195">
        <ele>92</ele>
        <time>2021-09-04T09:11:41.000Z</time>
      </trkpt>
      <trkpt lat="47.17491" lon="-2.05195">
        <ele>93</ele>
        <time>2021-09-04T09:11:43.000Z</time>
      </trkpt>
      <trkpt lat="47.17503" lon="-2.05194">
        <ele>93</ele>
        <time>2021-09-04T09:11:45.000Z</time>
      </trkpt>
      <trkpt lat="47.17515" lon="-2.05194">
        <ele>93</ele>
        <time>2021-09-04T09:11:47.000Z</time>
      </trkpt>
      <trkpt lat="47.17526" lon="-2.05193">
        <ele>94</ele>
        <time>2021-09-04T09:11:49.000Z</time>
      </trkpt>
      <trkpt lat="47.17538" lon="-2.05191">
        <ele>94</ele>
        <time>2021-09-04T09:11:51.000Z</time>
      </trkpt>
      <trkpt lat="47.17549" lon="-2.05189">
        <ele>94</ele>
        <time>2021-09-04T09:11:53.000Z</time>
      </trkpt>
      <trkpt lat="47.17561" lon="-2.05187">
        <ele>94</ele>
        <time>2021-09-04T09:11:55.000Z</time>
      </trkpt>
      <trkpt lat="47.17572" lon="-2.05185">
        <ele>94</ele>
        <time>2021-09-04T09:11:57.000Z</time>
      </trkpt>
      <trkpt lat="47.17583" lon="-2.05182">
        <ele>95</ele>
        <time>2021-09-04T09:11:59.000Z</time>
      </trkpt>
      <trkpt lat="47.17594" lon="-2.0518">
        <ele>95</ele>
        <time>2021-09-04T09:12:01.000Z</time>
      </trkpt>
      <trkpt lat="47.17606" lon="-2.05178">
        <ele>95</ele>
        <time>2021-09-04T09:12:03.000Z</time>
      </trkpt>
      <trkpt lat="47.17618" lon="-2.05176">
        <ele>96</ele>
        <time>2021-09-04T09:12:05.000Z</time>
      </trkpt>
      <trkpt lat="47.17629" lon="-2.05175">
        <ele>96</ele>
        <time>2021-09-04T09:12:07.000Z</time>
      </trkpt>
      <trkpt lat="47.17641" lon="-2.05174">
        <ele>96</ele>
        <time>2021-09-04T09:12:09.000Z</time>
      </trkpt>
      <trkpt lat="47.17653" lon="-2.05173">
        <ele>96</ele>
        <time>2021-09-04T09:12:11.000Z</time>
      </trkpt>
      <trkpt lat="47.17665" lon="-2.05173">
        <ele>97</ele>
        <time>2021-09-04T09:12:13.000Z</time>
      </trkpt>
      <trkpt lat="47.17676" lon="-2.05173">
        <ele>97</ele>
        <time>2021-09-04T09:12:15.000Z</time>
      </trkpt>
      <trkpt lat="47.17687" lon="-2.05173">
        <ele>97</ele>
        <time>2021-09-04T09:12:17.000Z</time>
      </trkpt>
      <trkpt lat="47.17698" lon="-2.05173">
        <ele>97</ele>
        <time>2021-09-04T09:12:19.000Z</time>
      </trkpt>
      <trkpt lat="47.17715" lon="-2.05172">
        <ele>97</ele>
        <time>2021-09-04T09:12:22.000Z</time>
      </trkpt>
      <trkpt lat="47.17727" lon="-2.05172">
        <ele>97</ele>
        <time>2021-09-04T09:12:24.000Z</time>
      </trkpt>
      <trkpt lat="47.17738" lon="-2.05172">
        <ele>97</ele>
        <time>2021-09-04T09:12:26.000Z</time>
      </trkpt>
      <trkpt lat="47.1775" lon="-2.05172">
        <ele>97</ele>
        <time>2021-09-04T09:12:28.000Z</time>
      </trkpt>
      <trkpt lat="47.17762" lon="-2.05172">
        <ele>97</ele>
        <time>2021-09-04T09:12:30.000Z</time>
      </trkpt>
      <trkpt lat="47.17774" lon="-2.05171">
        <ele>97</ele>
        <time>2021-09-04T09:12:32.000Z</time>
      </trkpt>
      <trkpt lat="47.17786" lon="-2.05171">
        <ele>98</ele>
        <time>2021-09-04T09:12:34.000Z</time>
      </trkpt>
      <trkpt lat="47.17804" lon="-2.0517">
        <ele>98</ele>
        <time>2021-09-04T09:12:37.000Z</time>
      </trkpt>
      <trkpt lat="47.17816" lon="-2.0517">
        <ele>98</ele>
        <time>2021-09-04T09:12:39.000Z</time>
      </trkpt>
      <trkpt lat="47.17828" lon="-2.0517">
        <ele>98</ele>
        <time>2021-09-04T09:12:41.000Z</time>
      </trkpt>
      <trkpt lat="47.1784" lon="-2.0517">
        <ele>99</ele>
        <time>2021-09-04T09:12:43.000Z</time>
      </trkpt>
      <trkpt lat="47.17852" lon="-2.0517">
        <ele>100</ele>
        <time>2021-09-04T09:12:45.000Z</time>
      </trkpt>
      <trkpt lat="47.1787" lon="-2.05169">
        <ele>100</ele>
        <time>2021-09-04T09:12:48.000Z</time>
      </trkpt>
      <trkpt lat="47.17888" lon="-2.05168">
        <ele>100</ele>
        <time>2021-09-04T09:12:51.000Z</time>
      </trkpt>
      <trkpt lat="47.17905" lon="-2.05168">
        <ele>101</ele>
        <time>2021-09-04T09:12:54.000Z</time>
      </trkpt>
      <trkpt lat="47.17922" lon="-2.05168">
        <ele>101</ele>
        <time>2021-09-04T09:12:57.000Z</time>
      </trkpt>
      <trkpt lat="47.17934" lon="-2.05168">
        <ele>102</ele>
        <time>2021-09-04T09:12:59.000Z</time>
      </trkpt>
      <trkpt lat="47.17945" lon="-2.05168">
        <ele>102</ele>
        <time>2021-09-04T09:13:01.000Z</time>
      </trkpt>
      <trkpt lat="47.17957" lon="-2.05167">
        <ele>103</ele>
        <time>2021-09-04T09:13:03.000Z</time>
      </trkpt>
      <trkpt lat="47.17969" lon="-2.05166">
        <ele>103</ele>
        <time>2021-09-04T09:13:05.000Z</time>
      </trkpt>
      <trkpt lat="47.1798" lon="-2.05164">
        <ele>103</ele>
        <time>2021-09-04T09:13:07.000Z</time>
      </trkpt>
      <trkpt lat="47.17992" lon="-2.05162">
        <ele>103</ele>
        <time>2021-09-04T09:13:09.000Z</time>
      </trkpt>
      <trkpt lat="47.18004" lon="-2.05158">
        <ele>103</ele>
        <time>2021-09-04T09:13:11.000Z</time>
      </trkpt>
      <trkpt lat="47.18015" lon="-2.05153">
        <ele>102</ele>
        <time>2021-09-04T09:13:13.000Z</time>
      </trkpt>
      <trkpt lat="47.18026" lon="-2.05149">
        <ele>102</ele>
        <time>2021-09-04T09:13:15.000Z</time>
      </trkpt>
      <trkpt lat="47.18038" lon="-2.05143">
        <ele>102</ele>
        <time>2021-09-04T09:13:17.000Z</time>
      </trkpt>
      <trkpt lat="47.18049" lon="-2.05137">
        <ele>102</ele>
        <time>2021-09-04T09:13:19.000Z</time>
      </trkpt>
      <trkpt lat="47.18059" lon="-2.05131">
        <ele>102</ele>
        <time>2021-09-04T09:13:21.000Z</time>
      </trkpt>
      <trkpt lat="47.1807" lon="-2.05125">
        <ele>102</ele>
        <time>2021-09-04T09:13:23.000Z</time>
      </trkpt>
      <trkpt lat="47.18082" lon="-2.05119">
        <ele>102</ele>
        <time>2021-09-04T09:13:25.000Z</time>
      </trkpt>
      <trkpt lat="47.18092" lon="-2.05114">
        <ele>102</ele>
        <time>2021-09-04T09:13:27.000Z</time>
      </trkpt>
      <trkpt lat="47.18103" lon="-2.05109">
        <ele>102</ele>
        <time>2021-09-04T09:13:29.000Z</time>
      </trkpt>
      <trkpt lat="47.18115" lon="-2.05106">
        <ele>102</ele>
        <time>2021-09-04T09:13:31.000Z</time>
      </trkpt>
      <trkpt lat="47.18126" lon="-2.05102">
        <ele>102</ele>
        <time>2021-09-04T09:13:33.000Z</time>
      </trkpt>
      <trkpt lat="47.18137" lon="-2.05098">
        <ele>102</ele>
        <time>2021-09-04T09:13:35.000Z</time>
      </trkpt>
      <trkpt lat="47.18149" lon="-2.05095">
        <ele>102</ele>
        <time>2021-09-04T09:13:37.000Z</time>
      </trkpt>
      <trkpt lat="47.1816" lon="-2.05092">
        <ele>101</ele>
        <time>2021-09-04T09:13:39.000Z</time>
      </trkpt>
      <trkpt lat="47.18172" lon="-2.05089">
        <ele>101</ele>
        <time>2021-09-04T09:13:41.000Z</time>
      </trkpt>
      <trkpt lat="47.18184" lon="-2.05086">
        <ele>101</ele>
        <time>2021-09-04T09:13:43.000Z</time>
      </trkpt>
      <trkpt lat="47.18197" lon="-2.05083">
        <ele>101</ele>
        <time>2021-09-04T09:13:45.000Z</time>
      </trkpt>
      <trkpt lat="47.18209" lon="-2.0508">
        <ele>102</ele>
        <time>2021-09-04T09:13:47.000Z</time>
      </trkpt>
      <trkpt lat="47.18221" lon="-2.05078">
        <ele>102</ele>
        <time>2021-09-04T09:13:49.000Z</time>
      </trkpt>
      <trkpt lat="47.18233" lon="-2.05075">
        <ele>103</ele>
        <time>2021-09-04T09:13:51.000Z</time>
      </trkpt>
      <trkpt lat="47.18246" lon="-2.05072">
        <ele>103</ele>
        <time>2021-09-04T09:13:53.000Z</time>
      </trkpt>
      <trkpt lat="47.18258" lon="-2.05069">
        <ele>103</ele>
        <time>2021-09-04T09:13:55.000Z</time>
      </trkpt>
      <trkpt lat="47.18271" lon="-2.05066">
        <ele>103</ele>
        <time>2021-09-04T09:13:57.000Z</time>
      </trkpt>
      <trkpt lat="47.18283" lon="-2.05063">
        <ele>103</ele>
        <time>2021-09-04T09:13:59.000Z</time>
      </trkpt>
      <trkpt lat="47.18294" lon="-2.0506">
        <ele>103</ele>
        <time>2021-09-04T09:14:01.000Z</time>
      </trkpt>
      <trkpt lat="47.18307" lon="-2.05057">
        <ele>103</ele>
        <time>2021-09-04T09:14:03.000Z</time>
      </trkpt>
      <trkpt lat="47.18319" lon="-2.05054">
        <ele>103</ele>
        <time>2021-09-04T09:14:05.000Z</time>
      </trkpt>
      <trkpt lat="47.18332" lon="-2.05051">
        <ele>103</ele>
        <time>2021-09-04T09:14:07.000Z</time>
      </trkpt>
      <trkpt lat="47.18344" lon="-2.05049">
        <ele>102</ele>
        <time>2021-09-04T09:14:09.000Z</time>
      </trkpt>
      <trkpt lat="47.18356" lon="-2.05046">
        <ele>103</ele>
        <time>2021-09-04T09:14:11.000Z</time>
      </trkpt>
      <trkpt lat="47.18368" lon="-2.05043">
        <ele>103</ele>
        <time>2021-09-04T09:14:13.000Z</time>
      </trkpt>
      <trkpt lat="47.1838" lon="-2.0504">
        <ele>103</ele>
        <time>2021-09-04T09:14:15.000Z</time>
      </trkpt>
      <trkpt lat="47.18392" lon="-2.05037">
        <ele>103</ele>
        <time>2021-09-04T09:14:17.000Z</time>
      </trkpt>
      <trkpt lat="47.18403" lon="-2.05034">
        <ele>103</ele>
        <time>2021-09-04T09:14:19.000Z</time>
      </trkpt>
      <trkpt lat="47.18415" lon="-2.05032">
        <ele>103</ele>
        <time>2021-09-04T09:14:21.000Z</time>
      </trkpt>
      <trkpt lat="47.18427" lon="-2.0503">
        <ele>102</ele>
        <time>2021-09-04T09:14:23.000Z</time>
      </trkpt>
      <trkpt lat="47.18438" lon="-2.05027">
        <ele>102</ele>
        <time>2021-09-04T09:14:25.000Z</time>
      </trkpt>
      <trkpt lat="47.1845" lon="-2.05024">
        <ele>103</ele>
        <time>2021-09-04T09:14:27.000Z</time>
      </trkpt>
      <trkpt lat="47.18461" lon="-2.05022">
        <ele>103</ele>
        <time>2021-09-04T09:14:29.000Z</time>
      </trkpt>
      <trkpt lat="47.18473" lon="-2.05019">
        <ele>103</ele>
        <time>2021-09-04T09:14:31.000Z</time>
      </trkpt>
      <trkpt lat="47.18484" lon="-2.05016">
        <ele>103</ele>
        <time>2021-09-04T09:14:33.000Z</time>
      </trkpt>
      <trkpt lat="47.18495" lon="-2.05014">
        <ele>103</ele>
        <time>2021-09-04T09:14:35.000Z</time>
      </trkpt>
      <trkpt lat="47.18507" lon="-2.05011">
        <ele>104</ele>
        <time>2021-09-04T09:14:37.000Z</time>
      </trkpt>
      <trkpt lat="47.18518" lon="-2.05008">
        <ele>104</ele>
        <time>2021-09-04T09:14:39.000Z</time>
      </trkpt>
      <trkpt lat="47.1853" lon="-2.05005">
        <ele>104</ele>
        <time>2021-09-04T09:14:41.000Z</time>
      </trkpt>
      <trkpt lat="47.18541" lon="-2.05002">
        <ele>105</ele>
        <time>2021-09-04T09:14:43.000Z</time>
      </trkpt>
      <trkpt lat="47.18552" lon="-2.04999">
        <ele>105</ele>
        <time>2021-09-04T09:14:45.000Z</time>
      </trkpt>
      <trkpt lat="47.18564" lon="-2.04996">
        <ele>105</ele>
        <time>2021-09-04T09:14:47.000Z</time>
      </trkpt>
      <trkpt lat="47.18575" lon="-2.04994">
        <ele>105</ele>
        <time>2021-09-04T09:14:49.000Z</time>
      </trkpt>
      <trkpt lat="47.18587" lon="-2.04991">
        <ele>105</ele>
        <time>2021-09-04T09:14:51.000Z</time>
      </trkpt>
      <trkpt lat="47.18599" lon="-2.04989">
        <ele>105</ele>
        <time>2021-09-04T09:14:53.000Z</time>
      </trkpt>
      <trkpt lat="47.18612" lon="-2.04986">
        <ele>105</ele>
        <time>2021-09-04T09:14:55.000Z</time>
      </trkpt>
      <trkpt lat="47.18624" lon="-2.04983">
        <ele>105</ele>
        <time>2021-09-04T09:14:57.000Z</time>
      </trkpt>
      <trkpt lat="47.18636" lon="-2.0498">
        <ele>105</ele>
        <time>2021-09-04T09:14:59.000Z</time>
      </trkpt>
      <trkpt lat="47.18648" lon="-2.04977">
        <ele>106</ele>
        <time>2021-09-04T09:15:01.000Z</time>
      </trkpt>
      <trkpt lat="47.1866" lon="-2.04975">
        <ele>106</ele>
        <time>2021-09-04T09:15:03.000Z</time>
      </trkpt>
      <trkpt lat="47.18672" lon="-2.04973">
        <ele>106</ele>
        <time>2021-09-04T09:15:05.000Z</time>
      </trkpt>
      <trkpt lat="47.18685" lon="-2.04971">
        <ele>106</ele>
        <time>2021-09-04T09:15:07.000Z</time>
      </trkpt>
      <trkpt lat="47.18698" lon="-2.04969">
        <ele>107</ele>
        <time>2021-09-04T09:15:09.000Z</time>
      </trkpt>
      <trkpt lat="47.1871" lon="-2.04968">
        <ele>107</ele>
        <time>2021-09-04T09:15:11.000Z</time>
      </trkpt>
      <trkpt lat="47.18722" lon="-2.04968">
        <ele>107</ele>
        <time>2021-09-04T09:15:13.000Z</time>
      </trkpt>
      <trkpt lat="47.18734" lon="-2.04968">
        <ele>107</ele>
        <time>2021-09-04T09:15:15.000Z</time>
      </trkpt>
      <trkpt lat="47.18746" lon="-2.04969">
        <ele>107</ele>
        <time>2021-09-04T09:15:17.000Z</time>
      </trkpt>
      <trkpt lat="47.18759" lon="-2.04969">
        <ele>107</ele>
        <time>2021-09-04T09:15:19.000Z</time>
      </trkpt>
      <trkpt lat="47.18771" lon="-2.04971">
        <ele>107</ele>
        <time>2021-09-04T09:15:21.000Z</time>
      </trkpt>
      <trkpt lat="47.18784" lon="-2.04972">
        <ele>107</ele>
        <time>2021-09-04T09:15:23.000Z</time>
      </trkpt>
      <trkpt lat="47.18796" lon="-2.04973">
        <ele>107</ele>
        <time>2021-09-04T09:15:25.000Z</time>
      </trkpt>
      <trkpt lat="47.18808" lon="-2.04973">
        <ele>106</ele>
        <time>2021-09-04T09:15:27.000Z</time>
      </trkpt>
      <trkpt lat="47.1882" lon="-2.04973">
        <ele>107</ele>
        <time>2021-09-04T09:15:29.000Z</time>
      </trkpt>
      <trkpt lat="47.18832" lon="-2.04973">
        <ele>107</ele>
        <time>2021-09-04T09:15:31.000Z</time>
      </trkpt>
      <trkpt lat="47.18844" lon="-2.04974">
        <ele>107</ele>
        <time>2021-09-04T09:15:33.000Z</time>
      </trkpt>
      <trkpt lat="47.18856" lon="-2.04975">
        <ele>107</ele>
        <time>2021-09-04T09:15:35.000Z</time>
      </trkpt>
      <trkpt lat="47.18868" lon="-2.04975">
        <ele>107</ele>
        <time>2021-09-04T09:15:37.000Z</time>
      </trkpt>
      <trkpt lat="47.1888" lon="-2.04976">
        <ele>108</ele>
        <time>2021-09-04T09:15:39.000Z</time>
      </trkpt>
      <trkpt lat="47.18892" lon="-2.04976">
        <ele>108</ele>
        <time>2021-09-04T09:15:41.000Z</time>
      </trkpt>
      <trkpt lat="47.18904" lon="-2.04976">
        <ele>108</ele>
        <time>2021-09-04T09:15:43.000Z</time>
      </trkpt>
      <trkpt lat="47.18916" lon="-2.04977">
        <ele>108</ele>
        <time>2021-09-04T09:15:45.000Z</time>
      </trkpt>
      <trkpt lat="47.18928" lon="-2.04978">
        <ele>108</ele>
        <time>2021-09-04T09:15:47.000Z</time>
      </trkpt>
      <trkpt lat="47.1894" lon="-2.04978">
        <ele>109</ele>
        <time>2021-09-04T09:15:49.000Z</time>
      </trkpt>
      <trkpt lat="47.18952" lon="-2.04978">
        <ele>109</ele>
        <time>2021-09-04T09:15:51.000Z</time>
      </trkpt>
      <trkpt lat="47.18964" lon="-2.04979">
        <ele>109</ele>
        <time>2021-09-04T09:15:53.000Z</time>
      </trkpt>
      <trkpt lat="47.18976" lon="-2.04979">
        <ele>109</ele>
        <time>2021-09-04T09:15:55.000Z</time>
      </trkpt>
      <trkpt lat="47.18988" lon="-2.04981">
        <ele>109</ele>
        <time>2021-09-04T09:15:57.000Z</time>
      </trkpt>
      <trkpt lat="47.19" lon="-2.04983">
        <ele>110</ele>
        <time>2021-09-04T09:15:59.000Z</time>
      </trkpt>
      <trkpt lat="47.19012" lon="-2.04985">
        <ele>110</ele>
        <time>2021-09-04T09:16:01.000Z</time>
      </trkpt>
      <trkpt lat="47.19024" lon="-2.04988">
        <ele>110</ele>
        <time>2021-09-04T09:16:03.000Z</time>
      </trkpt>
      <trkpt lat="47.19036" lon="-2.0499">
        <ele>110</ele>
        <time>2021-09-04T09:16:05.000Z</time>
      </trkpt>
      <trkpt lat="47.19049" lon="-2.04993">
        <ele>110</ele>
        <time>2021-09-04T09:16:07.000Z</time>
      </trkpt>
      <trkpt lat="47.19061" lon="-2.04995">
        <ele>111</ele>
        <time>2021-09-04T09:16:09.000Z</time>
      </trkpt>
      <trkpt lat="47.19073" lon="-2.04997">
        <ele>111</ele>
        <time>2021-09-04T09:16:11.000Z</time>
      </trkpt>
      <trkpt lat="47.19086" lon="-2.05">
        <ele>111</ele>
        <time>2021-09-04T09:16:13.000Z</time>
      </trkpt>
      <trkpt lat="47.19098" lon="-2.05002">
        <ele>111</ele>
        <time>2021-09-04T09:16:15.000Z</time>
      </trkpt>
      <trkpt lat="47.1911" lon="-2.05005">
        <ele>111</ele>
        <time>2021-09-04T09:16:17.000Z</time>
      </trkpt>
      <trkpt lat="47.19122" lon="-2.05007">
        <ele>111</ele>
        <time>2021-09-04T09:16:19.000Z</time>
      </trkpt>
      <trkpt lat="47.19135" lon="-2.05009">
        <ele>111</ele>
        <time>2021-09-04T09:16:21.000Z</time>
      </trkpt>
      <trkpt lat="47.19147" lon="-2.05011">
        <ele>111</ele>
        <time>2021-09-04T09:16:23.000Z</time>
      </trkpt>
      <trkpt lat="47.19159" lon="-2.05014">
        <ele>111</ele>
        <time>2021-09-04T09:16:25.000Z</time>
      </trkpt>
      <trkpt lat="47.19172" lon="-2.05016">
        <ele>111</ele>
        <time>2021-09-04T09:16:27.000Z</time>
      </trkpt>
      <trkpt lat="47.19184" lon="-2.05019">
        <ele>112</ele>
        <time>2021-09-04T09:16:29.000Z</time>
      </trkpt>
      <trkpt lat="47.19196" lon="-2.05021">
        <ele>111</ele>
        <time>2021-09-04T09:16:31.000Z</time>
      </trkpt>
      <trkpt lat="47.19208" lon="-2.05025">
        <ele>111</ele>
        <time>2021-09-04T09:16:33.000Z</time>
      </trkpt>
      <trkpt lat="47.1922" lon="-2.05029">
        <ele>112</ele>
        <time>2021-09-04T09:16:35.000Z</time>
      </trkpt>
      <trkpt lat="47.19233" lon="-2.05033">
        <ele>112</ele>
        <time>2021-09-04T09:16:37.000Z</time>
      </trkpt>
      <trkpt lat="47.19245" lon="-2.05037">
        <ele>113</ele>
        <time>2021-09-04T09:16:39.000Z</time>
      </trkpt>
      <trkpt lat="47.19257" lon="-2.05043">
        <ele>112</ele>
        <time>2021-09-04T09:16:41.000Z</time>
      </trkpt>
      <trkpt lat="47.1927" lon="-2.05048">
        <ele>113</ele>
        <time>2021-09-04T09:16:43.000Z</time>
      </trkpt>
      <trkpt lat="47.19282" lon="-2.05053">
        <ele>112</ele>
        <time>2021-09-04T09:16:45.000Z</time>
      </trkpt>
      <trkpt lat="47.19295" lon="-2.05059">
        <ele>112</ele>
        <time>2021-09-04T09:16:47.000Z</time>
      </trkpt>
      <trkpt lat="47.19308" lon="-2.05065">
        <ele>112</ele>
        <time>2021-09-04T09:16:49.000Z</time>
      </trkpt>
      <trkpt lat="47.19321" lon="-2.05071">
        <ele>111</ele>
        <time>2021-09-04T09:16:51.000Z</time>
      </trkpt>
      <trkpt lat="47.19334" lon="-2.05077">
        <ele>111</ele>
        <time>2021-09-04T09:16:53.000Z</time>
      </trkpt>
      <trkpt lat="47.19347" lon="-2.05083">
        <ele>111</ele>
        <time>2021-09-04T09:16:55.000Z</time>
      </trkpt>
      <trkpt lat="47.19361" lon="-2.05089">
        <ele>110</ele>
        <time>2021-09-04T09:16:57.000Z</time>
      </trkpt>
      <trkpt lat="47.19374" lon="-2.05096">
        <ele>109</ele>
        <time>2021-09-04T09:16:59.000Z</time>
      </trkpt>
      <trkpt lat="47.19388" lon="-2.05102">
        <ele>109</ele>
        <time>2021-09-04T09:17:01.000Z</time>
      </trkpt>
      <trkpt lat="47.19402" lon="-2.05108">
        <ele>108</ele>
        <time>2021-09-04T09:17:03.000Z</time>
      </trkpt>
      <trkpt lat="47.19415" lon="-2.05115">
        <ele>107</ele>
        <time>2021-09-04T09:17:05.000Z</time>
      </trkpt>
      <trkpt lat="47.19429" lon="-2.05122">
        <ele>107</ele>
        <time>2021-09-04T09:17:07.000Z</time>
      </trkpt>
      <trkpt lat="47.19438" lon="-2.05133">
        <ele>107</ele>
        <time>2021-09-04T09:17:09.000Z</time>
      </trkpt>
      <trkpt lat="47.19449" lon="-2.05137">
        <ele>107</ele>
        <time>2021-09-04T09:17:11.000Z</time>
      </trkpt>
      <trkpt lat="47.19465" lon="-2.05137">
        <ele>106</ele>
        <time>2021-09-04T09:17:13.000Z</time>
      </trkpt>
      <trkpt lat="47.19481" lon="-2.05138">
        <ele>106</ele>
        <time>2021-09-04T09:17:15.000Z</time>
      </trkpt>
      <trkpt lat="47.19497" lon="-2.05138">
        <ele>104</ele>
        <time>2021-09-04T09:17:17.000Z</time>
      </trkpt>
      <trkpt lat="47.19515" lon="-2.05138">
        <ele>103</ele>
        <time>2021-09-04T09:17:19.000Z</time>
      </trkpt>
      <trkpt lat="47.19533" lon="-2.05138">
        <ele>103</ele>
        <time>2021-09-04T09:17:21.000Z</time>
      </trkpt>
      <trkpt lat="47.19551" lon="-2.05139">
        <ele>102</ele>
        <time>2021-09-04T09:17:23.000Z</time>
      </trkpt>
      <trkpt lat="47.19569" lon="-2.05139">
        <ele>101</ele>
        <time>2021-09-04T09:17:25.000Z</time>
      </trkpt>
      <trkpt lat="47.19579" lon="-2.0514">
        <ele>101</ele>
        <time>2021-09-04T09:17:26.000Z</time>
      </trkpt>
      <trkpt lat="47.19588" lon="-2.0514">
        <ele>100</ele>
        <time>2021-09-04T09:17:27.000Z</time>
      </trkpt>
      <trkpt lat="47.19598" lon="-2.0514">
        <ele>100</ele>
        <time>2021-09-04T09:17:28.000Z</time>
      </trkpt>
      <trkpt lat="47.19607" lon="-2.05141">
        <ele>99</ele>
        <time>2021-09-04T09:17:29.000Z</time>
      </trkpt>
      <trkpt lat="47.19617" lon="-2.05141">
        <ele>99</ele>
        <time>2021-09-04T09:17:30.000Z</time>
      </trkpt>
      <trkpt lat="47.19626" lon="-2.05141">
        <ele>98</ele>
        <time>2021-09-04T09:17:31.000Z</time>
      </trkpt>
      <trkpt lat="47.19636" lon="-2.05141">
        <ele>97</ele>
        <time>2021-09-04T09:17:32.000Z</time>
      </trkpt>
      <trkpt lat="47.19646" lon="-2.05142">
        <ele>97</ele>
        <time>2021-09-04T09:17:33.000Z</time>
      </trkpt>
      <trkpt lat="47.19655" lon="-2.05142">
        <ele>97</ele>
        <time>2021-09-04T09:17:34.000Z</time>
      </trkpt>
      <trkpt lat="47.19665" lon="-2.05142">
        <ele>96</ele>
        <time>2021-09-04T09:17:35.000Z</time>
      </trkpt>
      <trkpt lat="47.19674" lon="-2.05142">
        <ele>96</ele>
        <time>2021-09-04T09:17:36.000Z</time>
      </trkpt>
      <trkpt lat="47.19684" lon="-2.05142">
        <ele>95</ele>
        <time>2021-09-04T09:17:37.000Z</time>
      </trkpt>
      <trkpt lat="47.19693" lon="-2.05142">
        <ele>95</ele>
        <time>2021-09-04T09:17:38.000Z</time>
      </trkpt>
      <trkpt lat="47.19703" lon="-2.05142">
        <ele>95</ele>
        <time>2021-09-04T09:17:39.000Z</time>
      </trkpt>
      <trkpt lat="47.19712" lon="-2.05142">
        <ele>94</ele>
        <time>2021-09-04T09:17:40.000Z</time>
      </trkpt>
      <trkpt lat="47.19722" lon="-2.05143">
        <ele>93</ele>
        <time>2021-09-04T09:17:41.000Z</time>
      </trkpt>
      <trkpt lat="47.19732" lon="-2.05143">
        <ele>92</ele>
        <time>2021-09-04T09:17:42.000Z</time>
      </trkpt>
      <trkpt lat="47.19742" lon="-2.05143">
        <ele>92</ele>
        <time>2021-09-04T09:17:43.000Z</time>
      </trkpt>
      <trkpt lat="47.19752" lon="-2.05143">
        <ele>91</ele>
        <time>2021-09-04T09:17:44.000Z</time>
      </trkpt>
      <trkpt lat="47.19762" lon="-2.05143">
        <ele>91</ele>
        <time>2021-09-04T09:17:45.000Z</time>
      </trkpt>
      <trkpt lat="47.19772" lon="-2.05142">
        <ele>90</ele>
        <time>2021-09-04T09:17:46.000Z</time>
      </trkpt>
      <trkpt lat="47.19782" lon="-2.05142">
        <ele>90</ele>
        <time>2021-09-04T09:17:47.000Z</time>
      </trkpt>
      <trkpt lat="47.19792" lon="-2.05141">
        <ele>90</ele>
        <time>2021-09-04T09:17:48.000Z</time>
      </trkpt>
      <trkpt lat="47.19802" lon="-2.0514">
        <ele>89</ele>
        <time>2021-09-04T09:17:49.000Z</time>
      </trkpt>
      <trkpt lat="47.19812" lon="-2.05139">
        <ele>89</ele>
        <time>2021-09-04T09:17:50.000Z</time>
      </trkpt>
      <trkpt lat="47.19822" lon="-2.05138">
        <ele>88</ele>
        <time>2021-09-04T09:17:51.000Z</time>
      </trkpt>
      <trkpt lat="47.19832" lon="-2.05136">
        <ele>88</ele>
        <time>2021-09-04T09:17:52.000Z</time>
      </trkpt>
      <trkpt lat="47.19842" lon="-2.05134">
        <ele>87</ele>
        <time>2021-09-04T09:17:53.000Z</time>
      </trkpt>
      <trkpt lat="47.19852" lon="-2.05131">
        <ele>87</ele>
        <time>2021-09-04T09:17:54.000Z</time>
      </trkpt>
      <trkpt lat="47.19862" lon="-2.05129">
        <ele>86</ele>
        <time>2021-09-04T09:17:55.000Z</time>
      </trkpt>
      <trkpt lat="47.19871" lon="-2.05126">
        <ele>86</ele>
        <time>2021-09-04T09:17:56.000Z</time>
      </trkpt>
      <trkpt lat="47.19881" lon="-2.05123">
        <ele>86</ele>
        <time>2021-09-04T09:17:57.000Z</time>
      </trkpt>
      <trkpt lat="47.1989" lon="-2.05118">
        <ele>85</ele>
        <time>2021-09-04T09:17:58.000Z</time>
      </trkpt>
      <trkpt lat="47.19899" lon="-2.05114">
        <ele>85</ele>
        <time>2021-09-04T09:17:59.000Z</time>
      </trkpt>
      <trkpt lat="47.19909" lon="-2.05109">
        <ele>85</ele>
        <time>2021-09-04T09:18:00.000Z</time>
      </trkpt>
      <trkpt lat="47.19917" lon="-2.05104">
        <ele>84</ele>
        <time>2021-09-04T09:18:01.000Z</time>
      </trkpt>
      <trkpt lat="47.19926" lon="-2.05099">
        <ele>84</ele>
        <time>2021-09-04T09:18:02.000Z</time>
      </trkpt>
      <trkpt lat="47.19934" lon="-2.05093">
        <ele>84</ele>
        <time>2021-09-04T09:18:03.000Z</time>
      </trkpt>
      <trkpt lat="47.19943" lon="-2.05087">
        <ele>84</ele>
        <time>2021-09-04T09:18:04.000Z</time>
      </trkpt>
      <trkpt lat="47.19951" lon="-2.05081">
        <ele>84</ele>
        <time>2021-09-04T09:18:05.000Z</time>
      </trkpt>
      <trkpt lat="47.19959" lon="-2.05075">
        <ele>83</ele>
        <time>2021-09-04T09:18:06.000Z</time>
      </trkpt>
      <trkpt lat="47.19968" lon="-2.05069">
        <ele>83</ele>
        <time>2021-09-04T09:18:07.000Z</time>
      </trkpt>
      <trkpt lat="47.19976" lon="-2.05064">
        <ele>83</ele>
        <time>2021-09-04T09:18:08.000Z</time>
      </trkpt>
      <trkpt lat="47.19984" lon="-2.05058">
        <ele>82</ele>
        <time>2021-09-04T09:18:09.000Z</time>
      </trkpt>
      <trkpt lat="47.19993" lon="-2.05053">
        <ele>82</ele>
        <time>2021-09-04T09:18:10.000Z</time>
      </trkpt>
      <trkpt lat="47.20001" lon="-2.05046">
        <ele>82</ele>
        <time>2021-09-04T09:18:11.000Z</time>
      </trkpt>
      <trkpt lat="47.20009" lon="-2.05041">
        <ele>81</ele>
        <time>2021-09-04T09:18:12.000Z</time>
      </trkpt>
      <trkpt lat="47.20025" lon="-2.05029">
        <ele>81</ele>
        <time>2021-09-04T09:18:14.000Z</time>
      </trkpt>
      <trkpt lat="47.20033" lon="-2.05024">
        <ele>81</ele>
        <time>2021-09-04T09:18:15.000Z</time>
      </trkpt>
      <trkpt lat="47.20042" lon="-2.05018">
        <ele>81</ele>
        <time>2021-09-04T09:18:16.000Z</time>
      </trkpt>
      <trkpt lat="47.2005" lon="-2.05012">
        <ele>80</ele>
        <time>2021-09-04T09:18:17.000Z</time>
      </trkpt>
      <trkpt lat="47.20059" lon="-2.05006">
        <ele>80</ele>
        <time>2021-09-04T09:18:18.000Z</time>
      </trkpt>
      <trkpt lat="47.20067" lon="-2.05">
        <ele>79</ele>
        <time>2021-09-04T09:18:19.000Z</time>
      </trkpt>
      <trkpt lat="47.20075" lon="-2.04994">
        <ele>79</ele>
        <time>2021-09-04T09:18:20.000Z</time>
      </trkpt>
      <trkpt lat="47.20084" lon="-2.04988">
        <ele>79</ele>
        <time>2021-09-04T09:18:21.000Z</time>
      </trkpt>
      <trkpt lat="47.20092" lon="-2.04982">
        <ele>79</ele>
        <time>2021-09-04T09:18:22.000Z</time>
      </trkpt>
      <trkpt lat="47.201" lon="-2.04976">
        <ele>78</ele>
        <time>2021-09-04T09:18:23.000Z</time>
      </trkpt>
      <trkpt lat="47.20109" lon="-2.0497">
        <ele>77</ele>
        <time>2021-09-04T09:18:24.000Z</time>
      </trkpt>
      <trkpt lat="47.20117" lon="-2.04965">
        <ele>77</ele>
        <time>2021-09-04T09:18:25.000Z</time>
      </trkpt>
      <trkpt lat="47.20125" lon="-2.04959">
        <ele>76</ele>
        <time>2021-09-04T09:18:26.000Z</time>
      </trkpt>
      <trkpt lat="47.20142" lon="-2.04948">
        <ele>75</ele>
        <time>2021-09-04T09:18:28.000Z</time>
      </trkpt>
      <trkpt lat="47.20158" lon="-2.04938">
        <ele>75</ele>
        <time>2021-09-04T09:18:30.000Z</time>
      </trkpt>
      <trkpt lat="47.20167" lon="-2.04934">
        <ele>74</ele>
        <time>2021-09-04T09:18:31.000Z</time>
      </trkpt>
      <trkpt lat="47.20183" lon="-2.04924">
        <ele>74</ele>
        <time>2021-09-04T09:18:33.000Z</time>
      </trkpt>
      <trkpt lat="47.20196" lon="-2.04906">
        <ele>73</ele>
        <time>2021-09-04T09:18:35.000Z</time>
      </trkpt>
      <trkpt lat="47.20207" lon="-2.04888">
        <ele>73</ele>
        <time>2021-09-04T09:18:37.000Z</time>
      </trkpt>
      <trkpt lat="47.20223" lon="-2.04885">
        <ele>72</ele>
        <time>2021-09-04T09:18:39.000Z</time>
      </trkpt>
      <trkpt lat="47.20232" lon="-2.04889">
        <ele>72</ele>
        <time>2021-09-04T09:18:40.000Z</time>
      </trkpt>
      <trkpt lat="47.20248" lon="-2.04897">
        <ele>72</ele>
        <time>2021-09-04T09:18:42.000Z</time>
      </trkpt>
      <trkpt lat="47.20257" lon="-2.04896">
        <ele>72</ele>
        <time>2021-09-04T09:18:43.000Z</time>
      </trkpt>
      <trkpt lat="47.20274" lon="-2.04891">
        <ele>71</ele>
        <time>2021-09-04T09:18:45.000Z</time>
      </trkpt>
      <trkpt lat="47.20291" lon="-2.04886">
        <ele>71</ele>
        <time>2021-09-04T09:18:47.000Z</time>
      </trkpt>
      <trkpt lat="47.20307" lon="-2.04881">
        <ele>70</ele>
        <time>2021-09-04T09:18:49.000Z</time>
      </trkpt>
      <trkpt lat="47.20323" lon="-2.04876">
        <ele>70</ele>
        <time>2021-09-04T09:18:51.000Z</time>
      </trkpt>
      <trkpt lat="47.2034" lon="-2.04871">
        <ele>69</ele>
        <time>2021-09-04T09:18:53.000Z</time>
      </trkpt>
      <trkpt lat="47.20356" lon="-2.04866">
        <ele>69</ele>
        <time>2021-09-04T09:18:55.000Z</time>
      </trkpt>
      <trkpt lat="47.20373" lon="-2.04862">
        <ele>69</ele>
        <time>2021-09-04T09:18:57.000Z</time>
      </trkpt>
      <trkpt lat="47.20389" lon="-2.0486">
        <ele>69</ele>
        <time>2021-09-04T09:18:59.000Z</time>
      </trkpt>
      <trkpt lat="47.20405" lon="-2.04859">
        <ele>69</ele>
        <time>2021-09-04T09:19:01.000Z</time>
      </trkpt>
      <trkpt lat="47.20421" lon="-2.04859">
        <ele>69</ele>
        <time>2021-09-04T09:19:03.000Z</time>
      </trkpt>
      <trkpt lat="47.20438" lon="-2.04858">
        <ele>69</ele>
        <time>2021-09-04T09:19:05.000Z</time>
      </trkpt>
      <trkpt lat="47.20454" lon="-2.04858">
        <ele>68</ele>
        <time>2021-09-04T09:19:07.000Z</time>
      </trkpt>
      <trkpt lat="47.2047" lon="-2.04858">
        <ele>68</ele>
        <time>2021-09-04T09:19:09.000Z</time>
      </trkpt>
      <trkpt lat="47.20487" lon="-2.04858">
        <ele>67</ele>
        <time>2021-09-04T09:19:11.000Z</time>
      </trkpt>
      <trkpt lat="47.20503" lon="-2.04854">
        <ele>67</ele>
        <time>2021-09-04T09:19:13.000Z</time>
      </trkpt>
      <trkpt lat="47.20518" lon="-2.04846">
        <ele>66</ele>
        <time>2021-09-04T09:19:15.000Z</time>
      </trkpt>
      <trkpt lat="47.20533" lon="-2.04836">
        <ele>66</ele>
        <time>2021-09-04T09:19:17.000Z</time>
      </trkpt>
      <trkpt lat="47.20548" lon="-2.04826">
        <ele>65</ele>
        <time>2021-09-04T09:19:19.000Z</time>
      </trkpt>
      <trkpt lat="47.20563" lon="-2.04817">
        <ele>65</ele>
        <time>2021-09-04T09:19:21.000Z</time>
      </trkpt>
      <trkpt lat="47.20579" lon="-2.04805">
        <ele>64</ele>
        <time>2021-09-04T09:19:23.000Z</time>
      </trkpt>
      <trkpt lat="47.20587" lon="-2.04799">
        <ele>63</ele>
        <time>2021-09-04T09:19:24.000Z</time>
      </trkpt>
      <trkpt lat="47.20596" lon="-2.04795">
        <ele>63</ele>
        <time>2021-09-04T09:19:25.000Z</time>
      </trkpt>
      <trkpt lat="47.20612" lon="-2.04785">
        <ele>61</ele>
        <time>2021-09-04T09:19:27.000Z</time>
      </trkpt>
      <trkpt lat="47.20629" lon="-2.04775">
        <ele>61</ele>
        <time>2021-09-04T09:19:29.000Z</time>
      </trkpt>
      <trkpt lat="47.20645" lon="-2.04763">
        <ele>60</ele>
        <time>2021-09-04T09:19:31.000Z</time>
      </trkpt>
      <trkpt lat="47.20651" lon="-2.04753">
        <ele>60</ele>
        <time>2021-09-04T09:19:32.000Z</time>
      </trkpt>
      <trkpt lat="47.20661" lon="-2.04733">
        <ele>60</ele>
        <time>2021-09-04T09:19:34.000Z</time>
      </trkpt>
      <trkpt lat="47.20667" lon="-2.0471">
        <ele>59</ele>
        <time>2021-09-04T09:19:36.000Z</time>
      </trkpt>
      <trkpt lat="47.2067" lon="-2.04686">
        <ele>60</ele>
        <time>2021-09-04T09:19:38.000Z</time>
      </trkpt>
      <trkpt lat="47.20669" lon="-2.04664">
        <ele>60</ele>
        <time>2021-09-04T09:19:40.000Z</time>
      </trkpt>
      <trkpt lat="47.2067" lon="-2.04643">
        <ele>60</ele>
        <time>2021-09-04T09:19:42.000Z</time>
      </trkpt>
      <trkpt lat="47.20671" lon="-2.04624">
        <ele>61</ele>
        <time>2021-09-04T09:19:44.000Z</time>
      </trkpt>
      <trkpt lat="47.20672" lon="-2.04608">
        <ele>61</ele>
        <time>2021-09-04T09:19:46.000Z</time>
      </trkpt>
      <trkpt lat="47.20673" lon="-2.0459">
        <ele>62</ele>
        <time>2021-09-04T09:19:48.000Z</time>
      </trkpt>
      <trkpt lat="47.20674" lon="-2.04571">
        <ele>63</ele>
        <time>2021-09-04T09:19:50.000Z</time>
      </trkpt>
      <trkpt lat="47.20676" lon="-2.04552">
        <ele>62</ele>
        <time>2021-09-04T09:19:52.000Z</time>
      </trkpt>
      <trkpt lat="47.20679" lon="-2.04534">
        <ele>63</ele>
        <time>2021-09-04T09:19:54.000Z</time>
      </trkpt>
      <trkpt lat="47.20686" lon="-2.04519">
        <ele>65</ele>
        <time>2021-09-04T09:19:56.000Z</time>
      </trkpt>
      <trkpt lat="47.20695" lon="-2.04507">
        <ele>65</ele>
        <time>2021-09-04T09:19:58.000Z</time>
      </trkpt>
      <trkpt lat="47.20702" lon="-2.04496">
        <ele>65</ele>
        <time>2021-09-04T09:20:00.000Z</time>
      </trkpt>
      <trkpt lat="47.2071" lon="-2.04485">
        <ele>65</ele>
        <time>2021-09-04T09:20:02.000Z</time>
      </trkpt>
      <trkpt lat="47.20719" lon="-2.04474">
        <ele>66</ele>
        <time>2021-09-04T09:20:04.000Z</time>
      </trkpt>
      <trkpt lat="47.20729" lon="-2.04462">
        <ele>66</ele>
        <time>2021-09-04T09:20:06.000Z</time>
      </trkpt>
      <trkpt lat="47.20738" lon="-2.0445">
        <ele>66</ele>
        <time>2021-09-04T09:20:08.000Z</time>
      </trkpt>
      <trkpt lat="47.20746" lon="-2.04439">
        <ele>66</ele>
        <time>2021-09-04T09:20:10.000Z</time>
      </trkpt>
      <trkpt lat="47.20753" lon="-2.04429">
        <ele>66</ele>
        <time>2021-09-04T09:20:12.000Z</time>
      </trkpt>
      <trkpt lat="47.20763" lon="-2.04422">
        <ele>66</ele>
        <time>2021-09-04T09:20:14.000Z</time>
      </trkpt>
      <trkpt lat="47.20773" lon="-2.04415">
        <ele>67</ele>
        <time>2021-09-04T09:20:16.000Z</time>
      </trkpt>
      <trkpt lat="47.20784" lon="-2.04406">
        <ele>67</ele>
        <time>2021-09-04T09:20:18.000Z</time>
      </trkpt>
      <trkpt lat="47.20795" lon="-2.04398">
        <ele>67</ele>
        <time>2021-09-04T09:20:20.000Z</time>
      </trkpt>
      <trkpt lat="47.20806" lon="-2.04398">
        <ele>67</ele>
        <time>2021-09-04T09:20:22.000Z</time>
      </trkpt>
      <trkpt lat="47.20816" lon="-2.04407">
        <ele>68</ele>
        <time>2021-09-04T09:20:24.000Z</time>
      </trkpt>
      <trkpt lat="47.20824" lon="-2.04413">
        <ele>68</ele>
        <time>2021-09-04T09:20:26.000Z</time>
      </trkpt>
      <trkpt lat="47.20833" lon="-2.04422">
        <ele>68</ele>
        <time>2021-09-04T09:20:29.000Z</time>
      </trkpt>
      <trkpt lat="47.20843" lon="-2.04435">
        <ele>68</ele>
        <time>2021-09-04T09:20:32.000Z</time>
      </trkpt>
      <trkpt lat="47.20848" lon="-2.0445">
        <ele>68</ele>
        <time>2021-09-04T09:20:35.000Z</time>
      </trkpt>
      <trkpt lat="47.20844" lon="-2.04467">
        <ele>69</ele>
        <time>2021-09-04T09:20:37.000Z</time>
      </trkpt>
      <trkpt lat="47.20837" lon="-2.04484">
        <ele>69</ele>
        <time>2021-09-04T09:20:39.000Z</time>
      </trkpt>
      <trkpt lat="47.20831" lon="-2.045">
        <ele>69</ele>
        <time>2021-09-04T09:20:41.000Z</time>
      </trkpt>
      <trkpt lat="47.20823" lon="-2.04515">
        <ele>69</ele>
        <time>2021-09-04T09:20:43.000Z</time>
      </trkpt>
      <trkpt lat="47.20817" lon="-2.0453">
        <ele>70</ele>
        <time>2021-09-04T09:20:45.000Z</time>
      </trkpt>
      <trkpt lat="47.20811" lon="-2.04545">
        <ele>69</ele>
        <time>2021-09-04T09:20:47.000Z</time>
      </trkpt>
      <trkpt lat="47.20804" lon="-2.04559">
        <ele>70</ele>
        <time>2021-09-04T09:20:49.000Z</time>
      </trkpt>
      <trkpt lat="47.20798" lon="-2.04571">
        <ele>70</ele>
        <time>2021-09-04T09:20:51.000Z</time>
      </trkpt>
      <trkpt lat="47.20792" lon="-2.04583">
        <ele>70</ele>
        <time>2021-09-04T09:20:53.000Z</time>
      </trkpt>
      <trkpt lat="47.20787" lon="-2.04594">
        <ele>69</ele>
        <time>2021-09-04T09:20:55.000Z</time>
      </trkpt>
      <trkpt lat="47.20794" lon="-2.04613">
        <ele>69</ele>
        <time>2021-09-04T09:20:58.000Z</time>
      </trkpt>
      <trkpt lat="47.20805" lon="-2.04622">
        <ele>69</ele>
        <time>2021-09-04T09:21:00.000Z</time>
      </trkpt>
      <trkpt lat="47.20816" lon="-2.04631">
        <ele>69</ele>
        <time>2021-09-04T09:21:02.000Z</time>
      </trkpt>
      <trkpt lat="47.20828" lon="-2.04639">
        <ele>69</ele>
        <time>2021-09-04T09:21:04.000Z</time>
      </trkpt>
      <trkpt lat="47.20839" lon="-2.04647">
        <ele>69</ele>
        <time>2021-09-04T09:21:06.000Z</time>
      </trkpt>
      <trkpt lat="47.2085" lon="-2.04656">
        <ele>69</ele>
        <time>2021-09-04T09:21:08.000Z</time>
      </trkpt>
      <trkpt lat="47.20861" lon="-2.04666">
        <ele>69</ele>
        <time>2021-09-04T09:21:10.000Z</time>
      </trkpt>
      <trkpt lat="47.20873" lon="-2.04676">
        <ele>69</ele>
        <time>2021-09-04T09:21:12.000Z</time>
      </trkpt>
      <trkpt lat="47.20883" lon="-2.04686">
        <ele>69</ele>
        <time>2021-09-04T09:21:14.000Z</time>
      </trkpt>
      <trkpt lat="47.20893" lon="-2.04698">
        <ele>69</ele>
        <time>2021-09-04T09:21:16.000Z</time>
      </trkpt>
      <trkpt lat="47.20901" lon="-2.04712">
        <ele>68</ele>
        <time>2021-09-04T09:21:18.000Z</time>
      </trkpt>
      <trkpt lat="47.2091" lon="-2.04725">
        <ele>68</ele>
        <time>2021-09-04T09:21:20.000Z</time>
      </trkpt>
      <trkpt lat="47.20918" lon="-2.04739">
        <ele>68</ele>
        <time>2021-09-04T09:21:22.000Z</time>
      </trkpt>
      <trkpt lat="47.20926" lon="-2.04753">
        <ele>68</ele>
        <time>2021-09-04T09:21:24.000Z</time>
      </trkpt>
      <trkpt lat="47.20935" lon="-2.04768">
        <ele>68</ele>
        <time>2021-09-04T09:21:26.000Z</time>
      </trkpt>
      <trkpt lat="47.20943" lon="-2.04783">
        <ele>67</ele>
        <time>2021-09-04T09:21:28.000Z</time>
      </trkpt>
      <trkpt lat="47.20951" lon="-2.04798">
        <ele>66</ele>
        <time>2021-09-04T09:21:30.000Z</time>
      </trkpt>
      <trkpt lat="47.20959" lon="-2.04815">
        <ele>66</ele>
        <time>2021-09-04T09:21:32.000Z</time>
      </trkpt>
      <trkpt lat="47.20969" lon="-2.04829">
        <ele>65</ele>
        <time>2021-09-04T09:21:34.000Z</time>
      </trkpt>
      <trkpt lat="47.2098" lon="-2.04843">
        <ele>65</ele>
        <time>2021-09-04T09:21:36.000Z</time>
      </trkpt>
      <trkpt lat="47.2099" lon="-2.04859">
        <ele>64</ele>
        <time>2021-09-04T09:21:38.000Z</time>
      </trkpt>
      <trkpt lat="47.21" lon="-2.04875">
        <ele>64</ele>
        <time>2021-09-04T09:21:40.000Z</time>
      </trkpt>
      <trkpt lat="47.21009" lon="-2.04891">
        <ele>63</ele>
        <time>2021-09-04T09:21:42.000Z</time>
      </trkpt>
      <trkpt lat="47.21019" lon="-2.04907">
        <ele>63</ele>
        <time>2021-09-04T09:21:44.000Z</time>
      </trkpt>
      <trkpt lat="47.21029" lon="-2.04923">
        <ele>62</ele>
        <time>2021-09-04T09:21:46.000Z</time>
      </trkpt>
      <trkpt lat="47.21038" lon="-2.0494">
        <ele>61</ele>
        <time>2021-09-04T09:21:48.000Z</time>
      </trkpt>
      <trkpt lat="47.21048" lon="-2.04957">
        <ele>60</ele>
        <time>2021-09-04T09:21:50.000Z</time>
      </trkpt>
      <trkpt lat="47.21059" lon="-2.04975">
        <ele>59</ele>
        <time>2021-09-04T09:21:52.000Z</time>
      </trkpt>
      <trkpt lat="47.21069" lon="-2.04991">
        <ele>58</ele>
        <time>2021-09-04T09:21:54.000Z</time>
      </trkpt>
      <trkpt lat="47.21079" lon="-2.05009">
        <ele>58</ele>
        <time>2021-09-04T09:21:56.000Z</time>
      </trkpt>
      <trkpt lat="47.21089" lon="-2.05025">
        <ele>58</ele>
        <time>2021-09-04T09:21:58.000Z</time>
      </trkpt>
      <trkpt lat="47.21099" lon="-2.05042">
        <ele>58</ele>
        <time>2021-09-04T09:22:00.000Z</time>
      </trkpt>
      <trkpt lat="47.21109" lon="-2.05057">
        <ele>58</ele>
        <time>2021-09-04T09:22:02.000Z</time>
      </trkpt>
      <trkpt lat="47.21118" lon="-2.05074">
        <ele>58</ele>
        <time>2021-09-04T09:22:04.000Z</time>
      </trkpt>
      <trkpt lat="47.21127" lon="-2.05089">
        <ele>59</ele>
        <time>2021-09-04T09:22:06.000Z</time>
      </trkpt>
      <trkpt lat="47.21136" lon="-2.05104">
        <ele>59</ele>
        <time>2021-09-04T09:22:08.000Z</time>
      </trkpt>
      <trkpt lat="47.21144" lon="-2.05118">
        <ele>59</ele>
        <time>2021-09-04T09:22:10.000Z</time>
      </trkpt>
      <trkpt lat="47.2115" lon="-2.05133">
        <ele>59</ele>
        <time>2021-09-04T09:22:12.000Z</time>
      </trkpt>
      <trkpt lat="47.21156" lon="-2.05148">
        <ele>60</ele>
        <time>2021-09-04T09:22:14.000Z</time>
      </trkpt>
      <trkpt lat="47.21161" lon="-2.05162">
        <ele>60</ele>
        <time>2021-09-04T09:22:16.000Z</time>
      </trkpt>
      <trkpt lat="47.21167" lon="-2.05174">
        <ele>60</ele>
        <time>2021-09-04T09:22:18.000Z</time>
      </trkpt>
      <trkpt lat="47.21173" lon="-2.05186">
        <ele>60</ele>
        <time>2021-09-04T09:22:20.000Z</time>
      </trkpt>
      <trkpt lat="47.21178" lon="-2.05198">
        <ele>61</ele>
        <time>2021-09-04T09:22:22.000Z</time>
      </trkpt>
      <trkpt lat="47.21182" lon="-2.05213">
        <ele>61</ele>
        <time>2021-09-04T09:22:24.000Z</time>
      </trkpt>
      <trkpt lat="47.21185" lon="-2.05228">
        <ele>62</ele>
        <time>2021-09-04T09:22:26.000Z</time>
      </trkpt>
      <trkpt lat="47.21188" lon="-2.05241">
        <ele>63</ele>
        <time>2021-09-04T09:22:28.000Z</time>
      </trkpt>
      <trkpt lat="47.21197" lon="-2.0525">
        <ele>63</ele>
        <time>2021-09-04T09:22:30.000Z</time>
      </trkpt>
      <trkpt lat="47.21209" lon="-2.05254">
        <ele>63</ele>
        <time>2021-09-04T09:22:32.000Z</time>
      </trkpt>
      <trkpt lat="47.21221" lon="-2.05256">
        <ele>63</ele>
        <time>2021-09-04T09:22:34.000Z</time>
      </trkpt>
      <trkpt lat="47.21233" lon="-2.05259">
        <ele>63</ele>
        <time>2021-09-04T09:22:36.000Z</time>
      </trkpt>
      <trkpt lat="47.21245" lon="-2.05262">
        <ele>64</ele>
        <time>2021-09-04T09:22:38.000Z</time>
      </trkpt>
      <trkpt lat="47.21257" lon="-2.05266">
        <ele>64</ele>
        <time>2021-09-04T09:22:40.000Z</time>
      </trkpt>
      <trkpt lat="47.2127" lon="-2.0527">
        <ele>64</ele>
        <time>2021-09-04T09:22:42.000Z</time>
      </trkpt>
      <trkpt lat="47.21281" lon="-2.05274">
        <ele>64</ele>
        <time>2021-09-04T09:22:44.000Z</time>
      </trkpt>
      <trkpt lat="47.21293" lon="-2.05279">
        <ele>64</ele>
        <time>2021-09-04T09:22:46.000Z</time>
      </trkpt>
      <trkpt lat="47.21304" lon="-2.05284">
        <ele>64</ele>
        <time>2021-09-04T09:22:48.000Z</time>
      </trkpt>
      <trkpt lat="47.21315" lon="-2.05289">
        <ele>65</ele>
        <time>2021-09-04T09:22:50.000Z</time>
      </trkpt>
      <trkpt lat="47.21326" lon="-2.05296">
        <ele>65</ele>
        <time>2021-09-04T09:22:52.000Z</time>
      </trkpt>
      <trkpt lat="47.21337" lon="-2.05302">
        <ele>65</ele>
        <time>2021-09-04T09:22:54.000Z</time>
      </trkpt>
      <trkpt lat="47.21348" lon="-2.0531">
        <ele>65</ele>
        <time>2021-09-04T09:22:56.000Z</time>
      </trkpt>
      <trkpt lat="47.21359" lon="-2.05318">
        <ele>65</ele>
        <time>2021-09-04T09:22:58.000Z</time>
      </trkpt>
      <trkpt lat="47.2137" lon="-2.05326">
        <ele>66</ele>
        <time>2021-09-04T09:23:00.000Z</time>
      </trkpt>
      <trkpt lat="47.2138" lon="-2.05335">
        <ele>66</ele>
        <time>2021-09-04T09:23:02.000Z</time>
      </trkpt>
      <trkpt lat="47.21391" lon="-2.05343">
        <ele>66</ele>
        <time>2021-09-04T09:23:04.000Z</time>
      </trkpt>
      <trkpt lat="47.21401" lon="-2.05352">
        <ele>66</ele>
        <time>2021-09-04T09:23:06.000Z</time>
      </trkpt>
      <trkpt lat="47.21412" lon="-2.05361">
        <ele>66</ele>
        <time>2021-09-04T09:23:08.000Z</time>
      </trkpt>
      <trkpt lat="47.21423" lon="-2.0537">
        <ele>66</ele>
        <time>2021-09-04T09:23:10.000Z</time>
      </trkpt>
      <trkpt lat="47.21434" lon="-2.05378">
        <ele>67</ele>
        <time>2021-09-04T09:23:12.000Z</time>
      </trkpt>
      <trkpt lat="47.21446" lon="-2.05386">
        <ele>67</ele>
        <time>2021-09-04T09:23:14.000Z</time>
      </trkpt>
      <trkpt lat="47.21457" lon="-2.05393">
        <ele>67</ele>
        <time>2021-09-04T09:23:16.000Z</time>
      </trkpt>
      <trkpt lat="47.21469" lon="-2.05399">
        <ele>67</ele>
        <time>2021-09-04T09:23:18.000Z</time>
      </trkpt>
      <trkpt lat="47.2148" lon="-2.05405">
        <ele>67</ele>
        <time>2021-09-04T09:23:20.000Z</time>
      </trkpt>
      <trkpt lat="47.21492" lon="-2.0541">
        <ele>67</ele>
        <time>2021-09-04T09:23:22.000Z</time>
      </trkpt>
      <trkpt lat="47.21504" lon="-2.05413">
        <ele>67</ele>
        <time>2021-09-04T09:23:24.000Z</time>
      </trkpt>
      <trkpt lat="47.21516" lon="-2.05415">
        <ele>67</ele>
        <time>2021-09-04T09:23:26.000Z</time>
      </trkpt>
      <trkpt lat="47.21527" lon="-2.05414">
        <ele>67</ele>
        <time>2021-09-04T09:23:28.000Z</time>
      </trkpt>
      <trkpt lat="47.21538" lon="-2.05408">
        <ele>67</ele>
        <time>2021-09-04T09:23:30.000Z</time>
      </trkpt>
      <trkpt lat="47.21549" lon="-2.05402">
        <ele>66</ele>
        <time>2021-09-04T09:23:32.000Z</time>
      </trkpt>
      <trkpt lat="47.21561" lon="-2.054">
        <ele>66</ele>
        <time>2021-09-04T09:23:34.000Z</time>
      </trkpt>
      <trkpt lat="47.21572" lon="-2.05394">
        <ele>66</ele>
        <time>2021-09-04T09:23:36.000Z</time>
      </trkpt>
      <trkpt lat="47.21582" lon="-2.05381">
        <ele>66</ele>
        <time>2021-09-04T09:23:38.000Z</time>
      </trkpt>
      <trkpt lat="47.21591" lon="-2.05369">
        <ele>66</ele>
        <time>2021-09-04T09:23:40.000Z</time>
      </trkpt>
      <trkpt lat="47.216" lon="-2.05356">
        <ele>66</ele>
        <time>2021-09-04T09:23:42.000Z</time>
      </trkpt>
      <trkpt lat="47.21608" lon="-2.05342">
        <ele>66</ele>
        <time>2021-09-04T09:23:44.000Z</time>
      </trkpt>
      <trkpt lat="47.21617" lon="-2.05328">
        <ele>66</ele>
        <time>2021-09-04T09:23:46.000Z</time>
      </trkpt>
      <trkpt lat="47.21625" lon="-2.05314">
        <ele>66</ele>
        <time>2021-09-04T09:23:48.000Z</time>
      </trkpt>
      <trkpt lat="47.21634" lon="-2.05301">
        <ele>67</ele>
        <time>2021-09-04T09:23:50.000Z</time>
      </trkpt>
      <trkpt lat="47.21642" lon="-2.05288">
        <ele>67</ele>
        <time>2021-09-04T09:23:52.000Z</time>
      </trkpt>
      <trkpt lat="47.2165" lon="-2.05276">
        <ele>67</ele>
        <time>2021-09-04T09:23:54.000Z</time>
      </trkpt>
      <trkpt lat="47.21659" lon="-2.05277">
        <ele>67</ele>
        <time>2021-09-04T09:23:56.000Z</time>
      </trkpt>
      <trkpt lat="47.21667" lon="-2.05293">
        <ele>67</ele>
        <time>2021-09-04T09:23:58.000Z</time>
      </trkpt>
      <trkpt lat="47.21678" lon="-2.05303">
        <ele>67</ele>
        <time>2021-09-04T09:24:00.000Z</time>
      </trkpt>
      <trkpt lat="47.21689" lon="-2.05307">
        <ele>68</ele>
        <time>2021-09-04T09:24:02.000Z</time>
      </trkpt>
      <trkpt lat="47.217" lon="-2.05311">
        <ele>69</ele>
        <time>2021-09-04T09:24:04.000Z</time>
      </trkpt>
      <trkpt lat="47.21711" lon="-2.05316">
        <ele>69</ele>
        <time>2021-09-04T09:24:06.000Z</time>
      </trkpt>
      <trkpt lat="47.21723" lon="-2.0532">
        <ele>69</ele>
        <time>2021-09-04T09:24:08.000Z</time>
      </trkpt>
      <trkpt lat="47.21734" lon="-2.05324">
        <ele>70</ele>
        <time>2021-09-04T09:24:10.000Z</time>
      </trkpt>
      <trkpt lat="47.21746" lon="-2.05328">
        <ele>70</ele>
        <time>2021-09-04T09:24:12.000Z</time>
      </trkpt>
      <trkpt lat="47.21758" lon="-2.05333">
        <ele>70</ele>
        <time>2021-09-04T09:24:14.000Z</time>
      </trkpt>
      <trkpt lat="47.21771" lon="-2.05338">
        <ele>70</ele>
        <time>2021-09-04T09:24:16.000Z</time>
      </trkpt>
      <trkpt lat="47.21784" lon="-2.05344">
        <ele>70</ele>
        <time>2021-09-04T09:24:18.000Z</time>
      </trkpt>
      <trkpt lat="47.21797" lon="-2.05349">
        <ele>70</ele>
        <time>2021-09-04T09:24:20.000Z</time>
      </trkpt>
      <trkpt lat="47.2181" lon="-2.05354">
        <ele>70</ele>
        <time>2021-09-04T09:24:22.000Z</time>
      </trkpt>
      <trkpt lat="47.21823" lon="-2.05359">
        <ele>70</ele>
        <time>2021-09-04T09:24:24.000Z</time>
      </trkpt>
      <trkpt lat="47.21836" lon="-2.05365">
        <ele>70</ele>
        <time>2021-09-04T09:24:26.000Z</time>
      </trkpt>
      <trkpt lat="47.2185" lon="-2.05371">
        <ele>70</ele>
        <time>2021-09-04T09:24:28.000Z</time>
      </trkpt>
      <trkpt lat="47.21863" lon="-2.05376">
        <ele>70</ele>
        <time>2021-09-04T09:24:30.000Z</time>
      </trkpt>
      <trkpt lat="47.21876" lon="-2.05382">
        <ele>70</ele>
        <time>2021-09-04T09:24:32.000Z</time>
      </trkpt>
      <trkpt lat="47.21889" lon="-2.05388">
        <ele>70</ele>
        <time>2021-09-04T09:24:34.000Z</time>
      </trkpt>
      <trkpt lat="47.21902" lon="-2.05393">
        <ele>70</ele>
        <time>2021-09-04T09:24:36.000Z</time>
      </trkpt>
      <trkpt lat="47.21915" lon="-2.05398">
        <ele>70</ele>
        <time>2021-09-04T09:24:38.000Z</time>
      </trkpt>
      <trkpt lat="47.21928" lon="-2.05403">
        <ele>70</ele>
        <time>2021-09-04T09:24:40.000Z</time>
      </trkpt>
      <trkpt lat="47.21941" lon="-2.05408">
        <ele>70</ele>
        <time>2021-09-04T09:24:42.000Z</time>
      </trkpt>
      <trkpt lat="47.21953" lon="-2.05414">
        <ele>71</ele>
        <time>2021-09-04T09:24:44.000Z</time>
      </trkpt>
      <trkpt lat="47.21965" lon="-2.0542">
        <ele>71</ele>
        <time>2021-09-04T09:24:46.000Z</time>
      </trkpt>
      <trkpt lat="47.21977" lon="-2.05424">
        <ele>71</ele>
        <time>2021-09-04T09:24:48.000Z</time>
      </trkpt>
      <trkpt lat="47.21989" lon="-2.0543">
        <ele>71</ele>
        <time>2021-09-04T09:24:50.000Z</time>
      </trkpt>
      <trkpt lat="47.22001" lon="-2.05435">
        <ele>71</ele>
        <time>2021-09-04T09:24:52.000Z</time>
      </trkpt>
      <trkpt lat="47.22013" lon="-2.0544">
        <ele>71</ele>
        <time>2021-09-04T09:24:54.000Z</time>
      </trkpt>
      <trkpt lat="47.22026" lon="-2.05445">
        <ele>71</ele>
        <time>2021-09-04T09:24:56.000Z</time>
      </trkpt>
      <trkpt lat="47.22038" lon="-2.0545">
        <ele>72</ele>
        <time>2021-09-04T09:24:58.000Z</time>
      </trkpt>
      <trkpt lat="47.2205" lon="-2.05455">
        <ele>72</ele>
        <time>2021-09-04T09:25:00.000Z</time>
      </trkpt>
      <trkpt lat="47.22064" lon="-2.05459">
        <ele>73</ele>
        <time>2021-09-04T09:25:02.000Z</time>
      </trkpt>
      <trkpt lat="47.22077" lon="-2.05462">
        <ele>73</ele>
        <time>2021-09-04T09:25:04.000Z</time>
      </trkpt>
      <trkpt lat="47.22089" lon="-2.05464">
        <ele>74</ele>
        <time>2021-09-04T09:25:06.000Z</time>
      </trkpt>
      <trkpt lat="47.22101" lon="-2.05465">
        <ele>74</ele>
        <time>2021-09-04T09:25:08.000Z</time>
      </trkpt>
      <trkpt lat="47.22118" lon="-2.05466">
        <ele>75</ele>
        <time>2021-09-04T09:25:11.000Z</time>
      </trkpt>
      <trkpt lat="47.2213" lon="-2.05467">
        <ele>75</ele>
        <time>2021-09-04T09:25:13.000Z</time>
      </trkpt>
      <trkpt lat="47.22142" lon="-2.05467">
        <ele>75</ele>
        <time>2021-09-04T09:25:15.000Z</time>
      </trkpt>
      <trkpt lat="47.22153" lon="-2.05468">
        <ele>76</ele>
        <time>2021-09-04T09:25:17.000Z</time>
      </trkpt>
      <trkpt lat="47.22164" lon="-2.05468">
        <ele>76</ele>
        <time>2021-09-04T09:25:19.000Z</time>
      </trkpt>
      <trkpt lat="47.22175" lon="-2.05469">
        <ele>76</ele>
        <time>2021-09-04T09:25:21.000Z</time>
      </trkpt>
      <trkpt lat="47.22187" lon="-2.05469">
        <ele>76</ele>
        <time>2021-09-04T09:25:23.000Z</time>
      </trkpt>
      <trkpt lat="47.22204" lon="-2.05471">
        <ele>77</ele>
        <time>2021-09-04T09:25:26.000Z</time>
      </trkpt>
      <trkpt lat="47.22216" lon="-2.05471">
        <ele>77</ele>
        <time>2021-09-04T09:25:28.000Z</time>
      </trkpt>
      <trkpt lat="47.22233" lon="-2.05473">
        <ele>78</ele>
        <time>2021-09-04T09:25:31.000Z</time>
      </trkpt>
      <trkpt lat="47.22244" lon="-2.05473">
        <ele>78</ele>
        <time>2021-09-04T09:25:33.000Z</time>
      </trkpt>
      <trkpt lat="47.22261" lon="-2.05475">
        <ele>78</ele>
        <time>2021-09-04T09:25:36.000Z</time>
      </trkpt>
      <trkpt lat="47.22272" lon="-2.05477">
        <ele>78</ele>
        <time>2021-09-04T09:25:38.000Z</time>
      </trkpt>
      <trkpt lat="47.22283" lon="-2.05479">
        <ele>78</ele>
        <time>2021-09-04T09:25:40.000Z</time>
      </trkpt>
      <trkpt lat="47.22294" lon="-2.05481">
        <ele>78</ele>
        <time>2021-09-04T09:25:42.000Z</time>
      </trkpt>
      <trkpt lat="47.22305" lon="-2.05483">
        <ele>78</ele>
        <time>2021-09-04T09:25:44.000Z</time>
      </trkpt>
      <trkpt lat="47.22317" lon="-2.05486">
        <ele>78</ele>
        <time>2021-09-04T09:25:46.000Z</time>
      </trkpt>
      <trkpt lat="47.22329" lon="-2.05488">
        <ele>78</ele>
        <time>2021-09-04T09:25:48.000Z</time>
      </trkpt>
      <trkpt lat="47.22341" lon="-2.0549">
        <ele>79</ele>
        <time>2021-09-04T09:25:50.000Z</time>
      </trkpt>
      <trkpt lat="47.22353" lon="-2.05494">
        <ele>78</ele>
        <time>2021-09-04T09:25:52.000Z</time>
      </trkpt>
      <trkpt lat="47.22365" lon="-2.05496">
        <ele>79</ele>
        <time>2021-09-04T09:25:54.000Z</time>
      </trkpt>
      <trkpt lat="47.22377" lon="-2.05499">
        <ele>79</ele>
        <time>2021-09-04T09:25:56.000Z</time>
      </trkpt>
      <trkpt lat="47.2239" lon="-2.05502">
        <ele>79</ele>
        <time>2021-09-04T09:25:58.000Z</time>
      </trkpt>
      <trkpt lat="47.22403" lon="-2.05505">
        <ele>79</ele>
        <time>2021-09-04T09:26:00.000Z</time>
      </trkpt>
      <trkpt lat="47.22416" lon="-2.05507">
        <ele>78</ele>
        <time>2021-09-04T09:26:02.000Z</time>
      </trkpt>
      <trkpt lat="47.22429" lon="-2.05509">
        <ele>79</ele>
        <time>2021-09-04T09:26:04.000Z</time>
      </trkpt>
      <trkpt lat="47.22442" lon="-2.05513">
        <ele>79</ele>
        <time>2021-09-04T09:26:06.000Z</time>
      </trkpt>
      <trkpt lat="47.22455" lon="-2.05516">
        <ele>79</ele>
        <time>2021-09-04T09:26:08.000Z</time>
      </trkpt>
      <trkpt lat="47.22469" lon="-2.05518">
        <ele>79</ele>
        <time>2021-09-04T09:26:10.000Z</time>
      </trkpt>
      <trkpt lat="47.22483" lon="-2.05522">
        <ele>79</ele>
        <time>2021-09-04T09:26:12.000Z</time>
      </trkpt>
      <trkpt lat="47.22497" lon="-2.05525">
        <ele>79</ele>
        <time>2021-09-04T09:26:14.000Z</time>
      </trkpt>
      <trkpt lat="47.22511" lon="-2.05528">
        <ele>79</ele>
        <time>2021-09-04T09:26:16.000Z</time>
      </trkpt>
      <trkpt lat="47.22526" lon="-2.05531">
        <ele>78</ele>
        <time>2021-09-04T09:26:18.000Z</time>
      </trkpt>
      <trkpt lat="47.2254" lon="-2.05536">
        <ele>77</ele>
        <time>2021-09-04T09:26:20.000Z</time>
      </trkpt>
      <trkpt lat="47.22554" lon="-2.0554">
        <ele>77</ele>
        <time>2021-09-04T09:26:22.000Z</time>
      </trkpt>
      <trkpt lat="47.22567" lon="-2.05546">
        <ele>76</ele>
        <time>2021-09-04T09:26:24.000Z</time>
      </trkpt>
      <trkpt lat="47.2258" lon="-2.05553">
        <ele>76</ele>
        <time>2021-09-04T09:26:26.000Z</time>
      </trkpt>
      <trkpt lat="47.22593" lon="-2.05559">
        <ele>76</ele>
        <time>2021-09-04T09:26:28.000Z</time>
      </trkpt>
      <trkpt lat="47.22606" lon="-2.05566">
        <ele>76</ele>
        <time>2021-09-04T09:26:30.000Z</time>
      </trkpt>
      <trkpt lat="47.22619" lon="-2.05573">
        <ele>77</ele>
        <time>2021-09-04T09:26:32.000Z</time>
      </trkpt>
      <trkpt lat="47.22631" lon="-2.05579">
        <ele>77</ele>
        <time>2021-09-04T09:26:34.000Z</time>
      </trkpt>
      <trkpt lat="47.22644" lon="-2.05585">
        <ele>77</ele>
        <time>2021-09-04T09:26:36.000Z</time>
      </trkpt>
      <trkpt lat="47.22657" lon="-2.05592">
        <ele>77</ele>
        <time>2021-09-04T09:26:38.000Z</time>
      </trkpt>
      <trkpt lat="47.22669" lon="-2.05598">
        <ele>78</ele>
        <time>2021-09-04T09:26:40.000Z</time>
      </trkpt>
      <trkpt lat="47.2268" lon="-2.05604">
        <ele>77</ele>
        <time>2021-09-04T09:26:42.000Z</time>
      </trkpt>
      <trkpt lat="47.22691" lon="-2.05611">
        <ele>78</ele>
        <time>2021-09-04T09:26:44.000Z</time>
      </trkpt>
      <trkpt lat="47.22701" lon="-2.05619">
        <ele>79</ele>
        <time>2021-09-04T09:26:46.000Z</time>
      </trkpt>
      <trkpt lat="47.22711" lon="-2.05628">
        <ele>79</ele>
        <time>2021-09-04T09:26:48.000Z</time>
      </trkpt>
      <trkpt lat="47.22721" lon="-2.05637">
        <ele>79</ele>
        <time>2021-09-04T09:26:50.000Z</time>
      </trkpt>
      <trkpt lat="47.22731" lon="-2.05646">
        <ele>80</ele>
        <time>2021-09-04T09:26:52.000Z</time>
      </trkpt>
      <trkpt lat="47.2274" lon="-2.05655">
        <ele>80</ele>
        <time>2021-09-04T09:26:54.000Z</time>
      </trkpt>
      <trkpt lat="47.2275" lon="-2.05664">
        <ele>80</ele>
        <time>2021-09-04T09:26:56.000Z</time>
      </trkpt>
      <trkpt lat="47.22759" lon="-2.05672">
        <ele>81</ele>
        <time>2021-09-04T09:26:58.000Z</time>
      </trkpt>
      <trkpt lat="47.22769" lon="-2.05681">
        <ele>81</ele>
        <time>2021-09-04T09:27:00.000Z</time>
      </trkpt>
      <trkpt lat="47.22779" lon="-2.05689">
        <ele>82</ele>
        <time>2021-09-04T09:27:02.000Z</time>
      </trkpt>
      <trkpt lat="47.22789" lon="-2.05697">
        <ele>83</ele>
        <time>2021-09-04T09:27:04.000Z</time>
      </trkpt>
      <trkpt lat="47.22799" lon="-2.05705">
        <ele>83</ele>
        <time>2021-09-04T09:27:06.000Z</time>
      </trkpt>
      <trkpt lat="47.22809" lon="-2.05713">
        <ele>83</ele>
        <time>2021-09-04T09:27:08.000Z</time>
      </trkpt>
      <trkpt lat="47.22819" lon="-2.0572">
        <ele>83</ele>
        <time>2021-09-04T09:27:10.000Z</time>
      </trkpt>
      <trkpt lat="47.2283" lon="-2.05726">
        <ele>83</ele>
        <time>2021-09-04T09:27:12.000Z</time>
      </trkpt>
      <trkpt lat="47.22842" lon="-2.05732">
        <ele>83</ele>
        <time>2021-09-04T09:27:14.000Z</time>
      </trkpt>
      <trkpt lat="47.22853" lon="-2.05738">
        <ele>83</ele>
        <time>2021-09-04T09:27:16.000Z</time>
      </trkpt>
      <trkpt lat="47.22864" lon="-2.05742">
        <ele>83</ele>
        <time>2021-09-04T09:27:18.000Z</time>
      </trkpt>
      <trkpt lat="47.22875" lon="-2.05745">
        <ele>83</ele>
        <time>2021-09-04T09:27:20.000Z</time>
      </trkpt>
      <trkpt lat="47.22887" lon="-2.05748">
        <ele>84</ele>
        <time>2021-09-04T09:27:22.000Z</time>
      </trkpt>
      <trkpt lat="47.22899" lon="-2.05749">
        <ele>84</ele>
        <time>2021-09-04T09:27:24.000Z</time>
      </trkpt>
      <trkpt lat="47.2291" lon="-2.0575">
        <ele>84</ele>
        <time>2021-09-04T09:27:26.000Z</time>
      </trkpt>
      <trkpt lat="47.22922" lon="-2.0575">
        <ele>84</ele>
        <time>2021-09-04T09:27:28.000Z</time>
      </trkpt>
      <trkpt lat="47.22934" lon="-2.0575">
        <ele>84</ele>
        <time>2021-09-04T09:27:30.000Z</time>
      </trkpt>
      <trkpt lat="47.22946" lon="-2.05749">
        <ele>84</ele>
        <time>2021-09-04T09:27:32.000Z</time>
      </trkpt>
      <trkpt lat="47.22958" lon="-2.05747">
        <ele>84</ele>
        <time>2021-09-04T09:27:34.000Z</time>
      </trkpt>
      <trkpt lat="47.22969" lon="-2.05747">
        <ele>84</ele>
        <time>2021-09-04T09:27:36.000Z</time>
      </trkpt>
      <trkpt lat="47.22981" lon="-2.05746">
        <ele>84</ele>
        <time>2021-09-04T09:27:38.000Z</time>
      </trkpt>
      <trkpt lat="47.22993" lon="-2.05745">
        <ele>84</ele>
        <time>2021-09-04T09:27:40.000Z</time>
      </trkpt>
      <trkpt lat="47.23004" lon="-2.05745">
        <ele>84</ele>
        <time>2021-09-04T09:27:42.000Z</time>
      </trkpt>
      <trkpt lat="47.23016" lon="-2.05744">
        <ele>85</ele>
        <time>2021-09-04T09:27:44.000Z</time>
      </trkpt>
      <trkpt lat="47.23027" lon="-2.05745">
        <ele>85</ele>
        <time>2021-09-04T09:27:46.000Z</time>
      </trkpt>
      <trkpt lat="47.23039" lon="-2.05745">
        <ele>85</ele>
        <time>2021-09-04T09:27:48.000Z</time>
      </trkpt>
      <trkpt lat="47.2305" lon="-2.05746">
        <ele>85</ele>
        <time>2021-09-04T09:27:50.000Z</time>
      </trkpt>
      <trkpt lat="47.23062" lon="-2.05748">
        <ele>85</ele>
        <time>2021-09-04T09:27:52.000Z</time>
      </trkpt>
      <trkpt lat="47.23073" lon="-2.05751">
        <ele>86</ele>
        <time>2021-09-04T09:27:54.000Z</time>
      </trkpt>
      <trkpt lat="47.23085" lon="-2.05753">
        <ele>86</ele>
        <time>2021-09-04T09:27:56.000Z</time>
      </trkpt>
      <trkpt lat="47.23096" lon="-2.05755">
        <ele>85</ele>
        <time>2021-09-04T09:27:58.000Z</time>
      </trkpt>
      <trkpt lat="47.23108" lon="-2.05758">
        <ele>85</ele>
        <time>2021-09-04T09:28:00.000Z</time>
      </trkpt>
      <trkpt lat="47.2312" lon="-2.05761">
        <ele>86</ele>
        <time>2021-09-04T09:28:02.000Z</time>
      </trkpt>
      <trkpt lat="47.23131" lon="-2.05765">
        <ele>86</ele>
        <time>2021-09-04T09:28:04.000Z</time>
      </trkpt>
      <trkpt lat="47.23143" lon="-2.05769">
        <ele>86</ele>
        <time>2021-09-04T09:28:06.000Z</time>
      </trkpt>
      <trkpt lat="47.23154" lon="-2.05772">
        <ele>87</ele>
        <time>2021-09-04T09:28:08.000Z</time>
      </trkpt>
      <trkpt lat="47.23166" lon="-2.05775">
        <ele>87</ele>
        <time>2021-09-04T09:28:10.000Z</time>
      </trkpt>
      <trkpt lat="47.23178" lon="-2.05778">
        <ele>87</ele>
        <time>2021-09-04T09:28:12.000Z</time>
      </trkpt>
      <trkpt lat="47.23189" lon="-2.05782">
        <ele>87</ele>
        <time>2021-09-04T09:28:14.000Z</time>
      </trkpt>
      <trkpt lat="47.232" lon="-2.05785">
        <ele>87</ele>
        <time>2021-09-04T09:28:16.000Z</time>
      </trkpt>
      <trkpt lat="47.23212" lon="-2.05789">
        <ele>88</ele>
        <time>2021-09-04T09:28:18.000Z</time>
      </trkpt>
      <trkpt lat="47.23223" lon="-2.05793">
        <ele>88</ele>
        <time>2021-09-04T09:28:20.000Z</time>
      </trkpt>
      <trkpt lat="47.23234" lon="-2.05796">
        <ele>87</ele>
        <time>2021-09-04T09:28:22.000Z</time>
      </trkpt>
      <trkpt lat="47.23246" lon="-2.05797">
        <ele>87</ele>
        <time>2021-09-04T09:28:24.000Z</time>
      </trkpt>
      <trkpt lat="47.23258" lon="-2.05798">
        <ele>87</ele>
        <time>2021-09-04T09:28:26.000Z</time>
      </trkpt>
      <trkpt lat="47.2327" lon="-2.05798">
        <ele>87</ele>
        <time>2021-09-04T09:28:28.000Z</time>
      </trkpt>
      <trkpt lat="47.23284" lon="-2.05795">
        <ele>86</ele>
        <time>2021-09-04T09:28:30.000Z</time>
      </trkpt>
      <trkpt lat="47.23299" lon="-2.05792">
        <ele>85</ele>
        <time>2021-09-04T09:28:32.000Z</time>
      </trkpt>
      <trkpt lat="47.23313" lon="-2.05791">
        <ele>84</ele>
        <time>2021-09-04T09:28:34.000Z</time>
      </trkpt>
      <trkpt lat="47.23328" lon="-2.05791">
        <ele>84</ele>
        <time>2021-09-04T09:28:36.000Z</time>
      </trkpt>
      <trkpt lat="47.23344" lon="-2.05794">
        <ele>83</ele>
        <time>2021-09-04T09:28:38.000Z</time>
      </trkpt>
      <trkpt lat="47.23359" lon="-2.05799">
        <ele>82</ele>
        <time>2021-09-04T09:28:40.000Z</time>
      </trkpt>
      <trkpt lat="47.23375" lon="-2.05805">
        <ele>82</ele>
        <time>2021-09-04T09:28:42.000Z</time>
      </trkpt>
      <trkpt lat="47.2339" lon="-2.05811">
        <ele>80</ele>
        <time>2021-09-04T09:28:44.000Z</time>
      </trkpt>
      <trkpt lat="47.23406" lon="-2.05818">
        <ele>80</ele>
        <time>2021-09-04T09:28:46.000Z</time>
      </trkpt>
      <trkpt lat="47.23422" lon="-2.05825">
        <ele>79</ele>
        <time>2021-09-04T09:28:48.000Z</time>
      </trkpt>
      <trkpt lat="47.23438" lon="-2.0583">
        <ele>79</ele>
        <time>2021-09-04T09:28:50.000Z</time>
      </trkpt>
      <trkpt lat="47.23453" lon="-2.05836">
        <ele>79</ele>
        <time>2021-09-04T09:28:52.000Z</time>
      </trkpt>
      <trkpt lat="47.23469" lon="-2.05843">
        <ele>79</ele>
        <time>2021-09-04T09:28:54.000Z</time>
      </trkpt>
      <trkpt lat="47.23485" lon="-2.05849">
        <ele>78</ele>
        <time>2021-09-04T09:28:56.000Z</time>
      </trkpt>
      <trkpt lat="47.235" lon="-2.05856">
        <ele>77</ele>
        <time>2021-09-04T09:28:58.000Z</time>
      </trkpt>
      <trkpt lat="47.23516" lon="-2.05862">
        <ele>77</ele>
        <time>2021-09-04T09:29:00.000Z</time>
      </trkpt>
      <trkpt lat="47.23531" lon="-2.05869">
        <ele>76</ele>
        <time>2021-09-04T09:29:02.000Z</time>
      </trkpt>
      <trkpt lat="47.23546" lon="-2.05876">
        <ele>76</ele>
        <time>2021-09-04T09:29:04.000Z</time>
      </trkpt>
      <trkpt lat="47.23561" lon="-2.05884">
        <ele>76</ele>
        <time>2021-09-04T09:29:06.000Z</time>
      </trkpt>
      <trkpt lat="47.23577" lon="-2.05891">
        <ele>76</ele>
        <time>2021-09-04T09:29:08.000Z</time>
      </trkpt>
      <trkpt lat="47.23591" lon="-2.05899">
        <ele>76</ele>
        <time>2021-09-04T09:29:10.000Z</time>
      </trkpt>
      <trkpt lat="47.23606" lon="-2.05907">
        <ele>75</ele>
        <time>2021-09-04T09:29:12.000Z</time>
      </trkpt>
      <trkpt lat="47.23621" lon="-2.05915">
        <ele>75</ele>
        <time>2021-09-04T09:29:14.000Z</time>
      </trkpt>
      <trkpt lat="47.23636" lon="-2.05922">
        <ele>75</ele>
        <time>2021-09-04T09:29:16.000Z</time>
      </trkpt>
      <trkpt lat="47.2365" lon="-2.0593">
        <ele>75</ele>
        <time>2021-09-04T09:29:18.000Z</time>
      </trkpt>
      <trkpt lat="47.23665" lon="-2.05938">
        <ele>75</ele>
        <time>2021-09-04T09:29:20.000Z</time>
      </trkpt>
      <trkpt lat="47.2368" lon="-2.05945">
        <ele>74</ele>
        <time>2021-09-04T09:29:22.000Z</time>
      </trkpt>
      <trkpt lat="47.23695" lon="-2.05952">
        <ele>75</ele>
        <time>2021-09-04T09:29:24.000Z</time>
      </trkpt>
      <trkpt lat="47.23709" lon="-2.0596">
        <ele>75</ele>
        <time>2021-09-04T09:29:26.000Z</time>
      </trkpt>
      <trkpt lat="47.23723" lon="-2.05967">
        <ele>75</ele>
        <time>2021-09-04T09:29:28.000Z</time>
      </trkpt>
      <trkpt lat="47.23736" lon="-2.05974">
        <ele>75</ele>
        <time>2021-09-04T09:29:30.000Z</time>
      </trkpt>
      <trkpt lat="47.23749" lon="-2.05981">
        <ele>76</ele>
        <time>2021-09-04T09:29:32.000Z</time>
      </trkpt>
      <trkpt lat="47.23762" lon="-2.05987">
        <ele>76</ele>
        <time>2021-09-04T09:29:34.000Z</time>
      </trkpt>
      <trkpt lat="47.23775" lon="-2.05994">
        <ele>76</ele>
        <time>2021-09-04T09:29:36.000Z</time>
      </trkpt>
      <trkpt lat="47.23787" lon="-2.06">
        <ele>77</ele>
        <time>2021-09-04T09:29:38.000Z</time>
      </trkpt>
      <trkpt lat="47.238" lon="-2.06006">
        <ele>77</ele>
        <time>2021-09-04T09:29:40.000Z</time>
      </trkpt>
      <trkpt lat="47.23812" lon="-2.06013">
        <ele>77</ele>
        <time>2021-09-04T09:29:42.000Z</time>
      </trkpt>
      <trkpt lat="47.23824" lon="-2.0602">
        <ele>77</ele>
        <time>2021-09-04T09:29:44.000Z</time>
      </trkpt>
      <trkpt lat="47.23837" lon="-2.06027">
        <ele>78</ele>
        <time>2021-09-04T09:29:46.000Z</time>
      </trkpt>
      <trkpt lat="47.23849" lon="-2.06035">
        <ele>77</ele>
        <time>2021-09-04T09:29:48.000Z</time>
      </trkpt>
      <trkpt lat="47.2386" lon="-2.06042">
        <ele>77</ele>
        <time>2021-09-04T09:29:50.000Z</time>
      </trkpt>
      <trkpt lat="47.23872" lon="-2.0605">
        <ele>77</ele>
        <time>2021-09-04T09:29:52.000Z</time>
      </trkpt>
      <trkpt lat="47.23884" lon="-2.06058">
        <ele>77</ele>
        <time>2021-09-04T09:29:54.000Z</time>
      </trkpt>
      <trkpt lat="47.23896" lon="-2.06065">
        <ele>77</ele>
        <time>2021-09-04T09:29:56.000Z</time>
      </trkpt>
      <trkpt lat="47.23908" lon="-2.06073">
        <ele>77</ele>
        <time>2021-09-04T09:29:58.000Z</time>
      </trkpt>
      <trkpt lat="47.23921" lon="-2.0608">
        <ele>77</ele>
        <time>2021-09-04T09:30:00.000Z</time>
      </trkpt>
      <trkpt lat="47.23933" lon="-2.06088">
        <ele>77</ele>
        <time>2021-09-04T09:30:02.000Z</time>
      </trkpt>
      <trkpt lat="47.23946" lon="-2.06097">
        <ele>77</ele>
        <time>2021-09-04T09:30:04.000Z</time>
      </trkpt>
      <trkpt lat="47.23959" lon="-2.06105">
        <ele>77</ele>
        <time>2021-09-04T09:30:06.000Z</time>
      </trkpt>
      <trkpt lat="47.23972" lon="-2.06113">
        <ele>76</ele>
        <time>2021-09-04T09:30:08.000Z</time>
      </trkpt>
      <trkpt lat="47.23984" lon="-2.06122">
        <ele>77</ele>
        <time>2021-09-04T09:30:10.000Z</time>
      </trkpt>
      <trkpt lat="47.23998" lon="-2.0613">
        <ele>77</ele>
        <time>2021-09-04T09:30:12.000Z</time>
      </trkpt>
      <trkpt lat="47.24011" lon="-2.06138">
        <ele>76</ele>
        <time>2021-09-04T09:30:14.000Z</time>
      </trkpt>
      <trkpt lat="47.24024" lon="-2.06147">
        <ele>76</ele>
        <time>2021-09-04T09:30:16.000Z</time>
      </trkpt>
      <trkpt lat="47.24037" lon="-2.06155">
        <ele>75</ele>
        <time>2021-09-04T09:30:18.000Z</time>
      </trkpt>
      <trkpt lat="47.2405" lon="-2.06164">
        <ele>75</ele>
        <time>2021-09-04T09:30:20.000Z</time>
      </trkpt>
      <trkpt lat="47.24063" lon="-2.06172">
        <ele>75</ele>
        <time>2021-09-04T09:30:22.000Z</time>
      </trkpt>
      <trkpt lat="47.24076" lon="-2.0618">
        <ele>74</ele>
        <time>2021-09-04T09:30:24.000Z</time>
      </trkpt>
      <trkpt lat="47.24089" lon="-2.0619">
        <ele>74</ele>
        <time>2021-09-04T09:30:26.000Z</time>
      </trkpt>
      <trkpt lat="47.24102" lon="-2.062">
        <ele>74</ele>
        <time>2021-09-04T09:30:28.000Z</time>
      </trkpt>
      <trkpt lat="47.24114" lon="-2.06211">
        <ele>73</ele>
        <time>2021-09-04T09:30:30.000Z</time>
      </trkpt>
      <trkpt lat="47.24125" lon="-2.06223">
        <ele>72</ele>
        <time>2021-09-04T09:30:32.000Z</time>
      </trkpt>
      <trkpt lat="47.24137" lon="-2.06235">
        <ele>72</ele>
        <time>2021-09-04T09:30:34.000Z</time>
      </trkpt>
      <trkpt lat="47.24148" lon="-2.06248">
        <ele>72</ele>
        <time>2021-09-04T09:30:36.000Z</time>
      </trkpt>
      <trkpt lat="47.24159" lon="-2.0626">
        <ele>71</ele>
        <time>2021-09-04T09:30:38.000Z</time>
      </trkpt>
      <trkpt lat="47.2417" lon="-2.06274">
        <ele>71</ele>
        <time>2021-09-04T09:30:40.000Z</time>
      </trkpt>
      <trkpt lat="47.24181" lon="-2.06287">
        <ele>70</ele>
        <time>2021-09-04T09:30:42.000Z</time>
      </trkpt>
      <trkpt lat="47.24192" lon="-2.06299">
        <ele>70</ele>
        <time>2021-09-04T09:30:44.000Z</time>
      </trkpt>
      <trkpt lat="47.24203" lon="-2.06312">
        <ele>70</ele>
        <time>2021-09-04T09:30:46.000Z</time>
      </trkpt>
      <trkpt lat="47.24214" lon="-2.06324">
        <ele>70</ele>
        <time>2021-09-04T09:30:48.000Z</time>
      </trkpt>
      <trkpt lat="47.24224" lon="-2.06336">
        <ele>71</ele>
        <time>2021-09-04T09:30:50.000Z</time>
      </trkpt>
      <trkpt lat="47.24235" lon="-2.06348">
        <ele>71</ele>
        <time>2021-09-04T09:30:52.000Z</time>
      </trkpt>
      <trkpt lat="47.24246" lon="-2.06361">
        <ele>71</ele>
        <time>2021-09-04T09:30:54.000Z</time>
      </trkpt>
      <trkpt lat="47.24257" lon="-2.06373">
        <ele>72</ele>
        <time>2021-09-04T09:30:56.000Z</time>
      </trkpt>
      <trkpt lat="47.24267" lon="-2.06385">
        <ele>72</ele>
        <time>2021-09-04T09:30:58.000Z</time>
      </trkpt>
      <trkpt lat="47.24278" lon="-2.06397">
        <ele>72</ele>
        <time>2021-09-04T09:31:00.000Z</time>
      </trkpt>
      <trkpt lat="47.24289" lon="-2.0641">
        <ele>72</ele>
        <time>2021-09-04T09:31:02.000Z</time>
      </trkpt>
      <trkpt lat="47.24299" lon="-2.06421">
        <ele>72</ele>
        <time>2021-09-04T09:31:04.000Z</time>
      </trkpt>
      <trkpt lat="47.2431" lon="-2.06433">
        <ele>72</ele>
        <time>2021-09-04T09:31:06.000Z</time>
      </trkpt>
      <trkpt lat="47.2432" lon="-2.06445">
        <ele>72</ele>
        <time>2021-09-04T09:31:08.000Z</time>
      </trkpt>
      <trkpt lat="47.24331" lon="-2.06456">
        <ele>73</ele>
        <time>2021-09-04T09:31:10.000Z</time>
      </trkpt>
      <trkpt lat="47.24341" lon="-2.06468">
        <ele>73</ele>
        <time>2021-09-04T09:31:12.000Z</time>
      </trkpt>
      <trkpt lat="47.24352" lon="-2.0648">
        <ele>73</ele>
        <time>2021-09-04T09:31:14.000Z</time>
      </trkpt>
      <trkpt lat="47.24362" lon="-2.06492">
        <ele>73</ele>
        <time>2021-09-04T09:31:16.000Z</time>
      </trkpt>
      <trkpt lat="47.24371" lon="-2.06506">
        <ele>73</ele>
        <time>2021-09-04T09:31:18.000Z</time>
      </trkpt>
      <trkpt lat="47.2438" lon="-2.06521">
        <ele>73</ele>
        <time>2021-09-04T09:31:20.000Z</time>
      </trkpt>
      <trkpt lat="47.24389" lon="-2.06536">
        <ele>73</ele>
        <time>2021-09-04T09:31:22.000Z</time>
      </trkpt>
      <trkpt lat="47.24396" lon="-2.06552">
        <ele>73</ele>
        <time>2021-09-04T09:31:24.000Z</time>
      </trkpt>
      <trkpt lat="47.24403" lon="-2.06569">
        <ele>73</ele>
        <time>2021-09-04T09:31:26.000Z</time>
      </trkpt>
      <trkpt lat="47.2441" lon="-2.06585">
        <ele>73</ele>
        <time>2021-09-04T09:31:28.000Z</time>
      </trkpt>
      <trkpt lat="47.24417" lon="-2.06602">
        <ele>73</ele>
        <time>2021-09-04T09:31:30.000Z</time>
      </trkpt>
      <trkpt lat="47.24425" lon="-2.06618">
        <ele>73</ele>
        <time>2021-09-04T09:31:32.000Z</time>
      </trkpt>
      <trkpt lat="47.24432" lon="-2.06634">
        <ele>73</ele>
        <time>2021-09-04T09:31:34.000Z</time>
      </trkpt>
      <trkpt lat="47.24439" lon="-2.06651">
        <ele>73</ele>
        <time>2021-09-04T09:31:36.000Z</time>
      </trkpt>
      <trkpt lat="47.24446" lon="-2.06668">
        <ele>72</ele>
        <time>2021-09-04T09:31:38.000Z</time>
      </trkpt>
      <trkpt lat="47.24453" lon="-2.06684">
        <ele>72</ele>
        <time>2021-09-04T09:31:40.000Z</time>
      </trkpt>
      <trkpt lat="47.2446" lon="-2.067">
        <ele>72</ele>
        <time>2021-09-04T09:31:42.000Z</time>
      </trkpt>
      <trkpt lat="47.24467" lon="-2.06716">
        <ele>72</ele>
        <time>2021-09-04T09:31:44.000Z</time>
      </trkpt>
      <trkpt lat="47.24474" lon="-2.06731">
        <ele>72</ele>
        <time>2021-09-04T09:31:46.000Z</time>
      </trkpt>
      <trkpt lat="47.24481" lon="-2.06747">
        <ele>72</ele>
        <time>2021-09-04T09:31:48.000Z</time>
      </trkpt>
      <trkpt lat="47.24487" lon="-2.06763">
        <ele>72</ele>
        <time>2021-09-04T09:31:50.000Z</time>
      </trkpt>
      <trkpt lat="47.24494" lon="-2.0678">
        <ele>71</ele>
        <time>2021-09-04T09:31:52.000Z</time>
      </trkpt>
      <trkpt lat="47.245" lon="-2.06797">
        <ele>71</ele>
        <time>2021-09-04T09:31:54.000Z</time>
      </trkpt>
      <trkpt lat="47.24506" lon="-2.06813">
        <ele>72</ele>
        <time>2021-09-04T09:31:56.000Z</time>
      </trkpt>
      <trkpt lat="47.24511" lon="-2.0683">
        <ele>72</ele>
        <time>2021-09-04T09:31:58.000Z</time>
      </trkpt>
      <trkpt lat="47.24516" lon="-2.06848">
        <ele>71</ele>
        <time>2021-09-04T09:32:00.000Z</time>
      </trkpt>
      <trkpt lat="47.24522" lon="-2.06865">
        <ele>71</ele>
        <time>2021-09-04T09:32:02.000Z</time>
      </trkpt>
      <trkpt lat="47.24528" lon="-2.06882">
        <ele>72</ele>
        <time>2021-09-04T09:32:04.000Z</time>
      </trkpt>
      <trkpt lat="47.24534" lon="-2.06899">
        <ele>71</ele>
        <time>2021-09-04T09:32:06.000Z</time>
      </trkpt>
      <trkpt lat="47.24543" lon="-2.06914">
        <ele>71</ele>
        <time>2021-09-04T09:32:08.000Z</time>
      </trkpt>
      <trkpt lat="47.24552" lon="-2.06927">
        <ele>71</ele>
        <time>2021-09-04T09:32:10.000Z</time>
      </trkpt>
      <trkpt lat="47.24562" lon="-2.06939">
        <ele>71</ele>
        <time>2021-09-04T09:32:12.000Z</time>
      </trkpt>
      <trkpt lat="47.24573" lon="-2.06949">
        <ele>71</ele>
        <time>2021-09-04T09:32:14.000Z</time>
      </trkpt>
      <trkpt lat="47.24584" lon="-2.0696">
        <ele>71</ele>
        <time>2021-09-04T09:32:16.000Z</time>
      </trkpt>
      <trkpt lat="47.24595" lon="-2.06971">
        <ele>72</ele>
        <time>2021-09-04T09:32:18.000Z</time>
      </trkpt>
      <trkpt lat="47.24606" lon="-2.06982">
        <ele>72</ele>
        <time>2021-09-04T09:32:20.000Z</time>
      </trkpt>
      <trkpt lat="47.24617" lon="-2.06993">
        <ele>72</ele>
        <time>2021-09-04T09:32:22.000Z</time>
      </trkpt>
      <trkpt lat="47.24628" lon="-2.07004">
        <ele>72</ele>
        <time>2021-09-04T09:32:24.000Z</time>
      </trkpt>
      <trkpt lat="47.24639" lon="-2.07015">
        <ele>72</ele>
        <time>2021-09-04T09:32:26.000Z</time>
      </trkpt>
      <trkpt lat="47.2465" lon="-2.07025">
        <ele>72</ele>
        <time>2021-09-04T09:32:28.000Z</time>
      </trkpt>
      <trkpt lat="47.24661" lon="-2.07036">
        <ele>72</ele>
        <time>2021-09-04T09:32:30.000Z</time>
      </trkpt>
      <trkpt lat="47.24672" lon="-2.07047">
        <ele>72</ele>
        <time>2021-09-04T09:32:32.000Z</time>
      </trkpt>
      <trkpt lat="47.24682" lon="-2.07058">
        <ele>72</ele>
        <time>2021-09-04T09:32:34.000Z</time>
      </trkpt>
      <trkpt lat="47.24693" lon="-2.07069">
        <ele>72</ele>
        <time>2021-09-04T09:32:36.000Z</time>
      </trkpt>
      <trkpt lat="47.24704" lon="-2.0708">
        <ele>72</ele>
        <time>2021-09-04T09:32:38.000Z</time>
      </trkpt>
      <trkpt lat="47.24716" lon="-2.07092">
        <ele>72</ele>
        <time>2021-09-04T09:32:40.000Z</time>
      </trkpt>
      <trkpt lat="47.24727" lon="-2.07103">
        <ele>72</ele>
        <time>2021-09-04T09:32:42.000Z</time>
      </trkpt>
      <trkpt lat="47.24739" lon="-2.07115">
        <ele>72</ele>
        <time>2021-09-04T09:32:44.000Z</time>
      </trkpt>
      <trkpt lat="47.2475" lon="-2.07126">
        <ele>72</ele>
        <time>2021-09-04T09:32:46.000Z</time>
      </trkpt>
      <trkpt lat="47.24761" lon="-2.07137">
        <ele>73</ele>
        <time>2021-09-04T09:32:48.000Z</time>
      </trkpt>
      <trkpt lat="47.24772" lon="-2.07148">
        <ele>73</ele>
        <time>2021-09-04T09:32:50.000Z</time>
      </trkpt>
      <trkpt lat="47.24783" lon="-2.07159">
        <ele>73</ele>
        <time>2021-09-04T09:32:52.000Z</time>
      </trkpt>
      <trkpt lat="47.24794" lon="-2.07169">
        <ele>73</ele>
        <time>2021-09-04T09:32:54.000Z</time>
      </trkpt>
      <trkpt lat="47.24805" lon="-2.07181">
        <ele>73</ele>
        <time>2021-09-04T09:32:56.000Z</time>
      </trkpt>
      <trkpt lat="47.24817" lon="-2.07192">
        <ele>73</ele>
        <time>2021-09-04T09:32:58.000Z</time>
      </trkpt>
      <trkpt lat="47.24828" lon="-2.07204">
        <ele>73</ele>
        <time>2021-09-04T09:33:00.000Z</time>
      </trkpt>
      <trkpt lat="47.2484" lon="-2.07216">
        <ele>73</ele>
        <time>2021-09-04T09:33:02.000Z</time>
      </trkpt>
      <trkpt lat="47.24852" lon="-2.07227">
        <ele>73</ele>
        <time>2021-09-04T09:33:04.000Z</time>
      </trkpt>
      <trkpt lat="47.24863" lon="-2.07239">
        <ele>73</ele>
        <time>2021-09-04T09:33:06.000Z</time>
      </trkpt>
      <trkpt lat="47.24875" lon="-2.0725">
        <ele>74</ele>
        <time>2021-09-04T09:33:08.000Z</time>
      </trkpt>
      <trkpt lat="47.24887" lon="-2.07262">
        <ele>73</ele>
        <time>2021-09-04T09:33:10.000Z</time>
      </trkpt>
      <trkpt lat="47.24899" lon="-2.07274">
        <ele>73</ele>
        <time>2021-09-04T09:33:12.000Z</time>
      </trkpt>
      <trkpt lat="47.2491" lon="-2.07285">
        <ele>73</ele>
        <time>2021-09-04T09:33:14.000Z</time>
      </trkpt>
      <trkpt lat="47.24922" lon="-2.07296">
        <ele>72</ele>
        <time>2021-09-04T09:33:16.000Z</time>
      </trkpt>
      <trkpt lat="47.24934" lon="-2.07306">
        <ele>72</ele>
        <time>2021-09-04T09:33:18.000Z</time>
      </trkpt>
      <trkpt lat="47.24947" lon="-2.07314">
        <ele>71</ele>
        <time>2021-09-04T09:33:20.000Z</time>
      </trkpt>
      <trkpt lat="47.2496" lon="-2.07321">
        <ele>71</ele>
        <time>2021-09-04T09:33:22.000Z</time>
      </trkpt>
      <trkpt lat="47.24973" lon="-2.07327">
        <ele>71</ele>
        <time>2021-09-04T09:33:24.000Z</time>
      </trkpt>
      <trkpt lat="47.24987" lon="-2.0733">
        <ele>70</ele>
        <time>2021-09-04T09:33:26.000Z</time>
      </trkpt>
      <trkpt lat="47.25" lon="-2.07333">
        <ele>69</ele>
        <time>2021-09-04T09:33:28.000Z</time>
      </trkpt>
      <trkpt lat="47.25014" lon="-2.07337">
        <ele>69</ele>
        <time>2021-09-04T09:33:30.000Z</time>
      </trkpt>
      <trkpt lat="47.25028" lon="-2.0734">
        <ele>69</ele>
        <time>2021-09-04T09:33:32.000Z</time>
      </trkpt>
      <trkpt lat="47.25041" lon="-2.07343">
        <ele>68</ele>
        <time>2021-09-04T09:33:34.000Z</time>
      </trkpt>
      <trkpt lat="47.25054" lon="-2.07346">
        <ele>68</ele>
        <time>2021-09-04T09:33:36.000Z</time>
      </trkpt>
      <trkpt lat="47.25068" lon="-2.07349">
        <ele>68</ele>
        <time>2021-09-04T09:33:38.000Z</time>
      </trkpt>
      <trkpt lat="47.25082" lon="-2.07351">
        <ele>68</ele>
        <time>2021-09-04T09:33:40.000Z</time>
      </trkpt>
      <trkpt lat="47.25096" lon="-2.07354">
        <ele>67</ele>
        <time>2021-09-04T09:33:42.000Z</time>
      </trkpt>
      <trkpt lat="47.2511" lon="-2.07357">
        <ele>67</ele>
        <time>2021-09-04T09:33:44.000Z</time>
      </trkpt>
      <trkpt lat="47.25124" lon="-2.07361">
        <ele>67</ele>
        <time>2021-09-04T09:33:46.000Z</time>
      </trkpt>
      <trkpt lat="47.25138" lon="-2.07364">
        <ele>67</ele>
        <time>2021-09-04T09:33:48.000Z</time>
      </trkpt>
      <trkpt lat="47.25152" lon="-2.07367">
        <ele>66</ele>
        <time>2021-09-04T09:33:50.000Z</time>
      </trkpt>
      <trkpt lat="47.25166" lon="-2.0737">
        <ele>66</ele>
        <time>2021-09-04T09:33:52.000Z</time>
      </trkpt>
      <trkpt lat="47.2518" lon="-2.07373">
        <ele>66</ele>
        <time>2021-09-04T09:33:54.000Z</time>
      </trkpt>
      <trkpt lat="47.25194" lon="-2.07376">
        <ele>65</ele>
        <time>2021-09-04T09:33:56.000Z</time>
      </trkpt>
      <trkpt lat="47.25208" lon="-2.07379">
        <ele>65</ele>
        <time>2021-09-04T09:33:58.000Z</time>
      </trkpt>
      <trkpt lat="47.25222" lon="-2.07385">
        <ele>64</ele>
        <time>2021-09-04T09:34:00.000Z</time>
      </trkpt>
      <trkpt lat="47.25236" lon="-2.07391">
        <ele>64</ele>
        <time>2021-09-04T09:34:02.000Z</time>
      </trkpt>
      <trkpt lat="47.25249" lon="-2.07399">
        <ele>64</ele>
        <time>2021-09-04T09:34:04.000Z</time>
      </trkpt>
      <trkpt lat="47.25262" lon="-2.07409">
        <ele>64</ele>
        <time>2021-09-04T09:34:06.000Z</time>
      </trkpt>
      <trkpt lat="47.25274" lon="-2.07419">
        <ele>64</ele>
        <time>2021-09-04T09:34:08.000Z</time>
      </trkpt>
      <trkpt lat="47.25286" lon="-2.07427">
        <ele>64</ele>
        <time>2021-09-04T09:34:10.000Z</time>
      </trkpt>
      <trkpt lat="47.25299" lon="-2.07436">
        <ele>65</ele>
        <time>2021-09-04T09:34:12.000Z</time>
      </trkpt>
      <trkpt lat="47.25311" lon="-2.07445">
        <ele>65</ele>
        <time>2021-09-04T09:34:14.000Z</time>
      </trkpt>
      <trkpt lat="47.25323" lon="-2.07452">
        <ele>65</ele>
        <time>2021-09-04T09:34:16.000Z</time>
      </trkpt>
      <trkpt lat="47.25336" lon="-2.07457">
        <ele>65</ele>
        <time>2021-09-04T09:34:18.000Z</time>
      </trkpt>
      <trkpt lat="47.25349" lon="-2.0746">
        <ele>65</ele>
        <time>2021-09-04T09:34:20.000Z</time>
      </trkpt>
      <trkpt lat="47.25363" lon="-2.07464">
        <ele>65</ele>
        <time>2021-09-04T09:34:22.000Z</time>
      </trkpt>
      <trkpt lat="47.25376" lon="-2.07466">
        <ele>65</ele>
        <time>2021-09-04T09:34:24.000Z</time>
      </trkpt>
      <trkpt lat="47.25389" lon="-2.07468">
        <ele>65</ele>
        <time>2021-09-04T09:34:26.000Z</time>
      </trkpt>
      <trkpt lat="47.25403" lon="-2.0747">
        <ele>65</ele>
        <time>2021-09-04T09:34:28.000Z</time>
      </trkpt>
      <trkpt lat="47.25416" lon="-2.07471">
        <ele>65</ele>
        <time>2021-09-04T09:34:30.000Z</time>
      </trkpt>
      <trkpt lat="47.2543" lon="-2.07473">
        <ele>64</ele>
        <time>2021-09-04T09:34:32.000Z</time>
      </trkpt>
      <trkpt lat="47.25443" lon="-2.07475">
        <ele>64</ele>
        <time>2021-09-04T09:34:34.000Z</time>
      </trkpt>
      <trkpt lat="47.25456" lon="-2.07477">
        <ele>64</ele>
        <time>2021-09-04T09:34:36.000Z</time>
      </trkpt>
      <trkpt lat="47.2547" lon="-2.07479">
        <ele>64</ele>
        <time>2021-09-04T09:34:38.000Z</time>
      </trkpt>
      <trkpt lat="47.25484" lon="-2.07481">
        <ele>63</ele>
        <time>2021-09-04T09:34:40.000Z</time>
      </trkpt>
      <trkpt lat="47.25497" lon="-2.07483">
        <ele>63</ele>
        <time>2021-09-04T09:34:42.000Z</time>
      </trkpt>
      <trkpt lat="47.25511" lon="-2.07485">
        <ele>63</ele>
        <time>2021-09-04T09:34:44.000Z</time>
      </trkpt>
      <trkpt lat="47.25525" lon="-2.07488">
        <ele>62</ele>
        <time>2021-09-04T09:34:46.000Z</time>
      </trkpt>
      <trkpt lat="47.25539" lon="-2.07489">
        <ele>62</ele>
        <time>2021-09-04T09:34:48.000Z</time>
      </trkpt>
      <trkpt lat="47.25554" lon="-2.07491">
        <ele>61</ele>
        <time>2021-09-04T09:34:50.000Z</time>
      </trkpt>
      <trkpt lat="47.25568" lon="-2.07489">
        <ele>61</ele>
        <time>2021-09-04T09:34:52.000Z</time>
      </trkpt>
      <trkpt lat="47.25583" lon="-2.07485">
        <ele>60</ele>
        <time>2021-09-04T09:34:54.000Z</time>
      </trkpt>
      <trkpt lat="47.25596" lon="-2.07477">
        <ele>60</ele>
        <time>2021-09-04T09:34:56.000Z</time>
      </trkpt>
      <trkpt lat="47.2561" lon="-2.07467">
        <ele>59</ele>
        <time>2021-09-04T09:34:58.000Z</time>
      </trkpt>
      <trkpt lat="47.25623" lon="-2.07457">
        <ele>59</ele>
        <time>2021-09-04T09:35:00.000Z</time>
      </trkpt>
      <trkpt lat="47.25637" lon="-2.07446">
        <ele>59</ele>
        <time>2021-09-04T09:35:02.000Z</time>
      </trkpt>
      <trkpt lat="47.25652" lon="-2.07437">
        <ele>58</ele>
        <time>2021-09-04T09:35:04.000Z</time>
      </trkpt>
      <trkpt lat="47.25668" lon="-2.0743">
        <ele>57</ele>
        <time>2021-09-04T09:35:06.000Z</time>
      </trkpt>
      <trkpt lat="47.25683" lon="-2.07422">
        <ele>57</ele>
        <time>2021-09-04T09:35:08.000Z</time>
      </trkpt>
      <trkpt lat="47.257" lon="-2.07416">
        <ele>56</ele>
        <time>2021-09-04T09:35:10.000Z</time>
      </trkpt>
      <trkpt lat="47.25715" lon="-2.07409">
        <ele>56</ele>
        <time>2021-09-04T09:35:12.000Z</time>
      </trkpt>
      <trkpt lat="47.25731" lon="-2.07402">
        <ele>56</ele>
        <time>2021-09-04T09:35:14.000Z</time>
      </trkpt>
      <trkpt lat="47.25747" lon="-2.07395">
        <ele>56</ele>
        <time>2021-09-04T09:35:16.000Z</time>
      </trkpt>
      <trkpt lat="47.25762" lon="-2.07388">
        <ele>56</ele>
        <time>2021-09-04T09:35:18.000Z</time>
      </trkpt>
      <trkpt lat="47.25777" lon="-2.07382">
        <ele>56</ele>
        <time>2021-09-04T09:35:20.000Z</time>
      </trkpt>
      <trkpt lat="47.25792" lon="-2.07376">
        <ele>57</ele>
        <time>2021-09-04T09:35:22.000Z</time>
      </trkpt>
      <trkpt lat="47.25806" lon="-2.0737">
        <ele>57</ele>
        <time>2021-09-04T09:35:24.000Z</time>
      </trkpt>
      <trkpt lat="47.2582" lon="-2.07364">
        <ele>56</ele>
        <time>2021-09-04T09:35:26.000Z</time>
      </trkpt>
      <trkpt lat="47.25835" lon="-2.07358">
        <ele>56</ele>
        <time>2021-09-04T09:35:28.000Z</time>
      </trkpt>
      <trkpt lat="47.25851" lon="-2.07351">
        <ele>55</ele>
        <time>2021-09-04T09:35:30.000Z</time>
      </trkpt>
      <trkpt lat="47.25867" lon="-2.07344">
        <ele>54</ele>
        <time>2021-09-04T09:35:32.000Z</time>
      </trkpt>
      <trkpt lat="47.25884" lon="-2.07336">
        <ele>54</ele>
        <time>2021-09-04T09:35:34.000Z</time>
      </trkpt>
      <trkpt lat="47.259" lon="-2.07329">
        <ele>53</ele>
        <time>2021-09-04T09:35:36.000Z</time>
      </trkpt>
      <trkpt lat="47.25916" lon="-2.07322">
        <ele>53</ele>
        <time>2021-09-04T09:35:38.000Z</time>
      </trkpt>
      <trkpt lat="47.25932" lon="-2.07315">
        <ele>52</ele>
        <time>2021-09-04T09:35:40.000Z</time>
      </trkpt>
      <trkpt lat="47.25948" lon="-2.07308">
        <ele>52</ele>
        <time>2021-09-04T09:35:42.000Z</time>
      </trkpt>
      <trkpt lat="47.25964" lon="-2.07301">
        <ele>52</ele>
        <time>2021-09-04T09:35:44.000Z</time>
      </trkpt>
      <trkpt lat="47.2598" lon="-2.07295">
        <ele>52</ele>
        <time>2021-09-04T09:35:46.000Z</time>
      </trkpt>
      <trkpt lat="47.25994" lon="-2.07289">
        <ele>53</ele>
        <time>2021-09-04T09:35:48.000Z</time>
      </trkpt>
      <trkpt lat="47.26009" lon="-2.07283">
        <ele>52</ele>
        <time>2021-09-04T09:35:50.000Z</time>
      </trkpt>
      <trkpt lat="47.26023" lon="-2.07276">
        <ele>53</ele>
        <time>2021-09-04T09:35:52.000Z</time>
      </trkpt>
      <trkpt lat="47.26037" lon="-2.0727">
        <ele>52</ele>
        <time>2021-09-04T09:35:54.000Z</time>
      </trkpt>
      <trkpt lat="47.26051" lon="-2.07265">
        <ele>52</ele>
        <time>2021-09-04T09:35:56.000Z</time>
      </trkpt>
      <trkpt lat="47.26064" lon="-2.07259">
        <ele>52</ele>
        <time>2021-09-04T09:35:58.000Z</time>
      </trkpt>
      <trkpt lat="47.26078" lon="-2.07253">
        <ele>52</ele>
        <time>2021-09-04T09:36:00.000Z</time>
      </trkpt>
      <trkpt lat="47.26091" lon="-2.07247">
        <ele>52</ele>
        <time>2021-09-04T09:36:02.000Z</time>
      </trkpt>
      <trkpt lat="47.26104" lon="-2.07242">
        <ele>52</ele>
        <time>2021-09-04T09:36:04.000Z</time>
      </trkpt>
      <trkpt lat="47.26116" lon="-2.07236">
        <ele>53</ele>
        <time>2021-09-04T09:36:06.000Z</time>
      </trkpt>
      <trkpt lat="47.26128" lon="-2.07231">
        <ele>53</ele>
        <time>2021-09-04T09:36:08.000Z</time>
      </trkpt>
      <trkpt lat="47.2614" lon="-2.07227">
        <ele>54</ele>
        <time>2021-09-04T09:36:10.000Z</time>
      </trkpt>
      <trkpt lat="47.26151" lon="-2.07221">
        <ele>54</ele>
        <time>2021-09-04T09:36:12.000Z</time>
      </trkpt>
      <trkpt lat="47.26163" lon="-2.07216">
        <ele>55</ele>
        <time>2021-09-04T09:36:14.000Z</time>
      </trkpt>
      <trkpt lat="47.26175" lon="-2.07211">
        <ele>56</ele>
        <time>2021-09-04T09:36:16.000Z</time>
      </trkpt>
      <trkpt lat="47.26187" lon="-2.07206">
        <ele>56</ele>
        <time>2021-09-04T09:36:18.000Z</time>
      </trkpt>
      <trkpt lat="47.262" lon="-2.072">
        <ele>57</ele>
        <time>2021-09-04T09:36:20.000Z</time>
      </trkpt>
      <trkpt lat="47.26212" lon="-2.07195">
        <ele>57</ele>
        <time>2021-09-04T09:36:22.000Z</time>
      </trkpt>
      <trkpt lat="47.26224" lon="-2.07188">
        <ele>57</ele>
        <time>2021-09-04T09:36:24.000Z</time>
      </trkpt>
      <trkpt lat="47.26236" lon="-2.0718">
        <ele>57</ele>
        <time>2021-09-04T09:36:26.000Z</time>
      </trkpt>
      <trkpt lat="47.26247" lon="-2.0717">
        <ele>56</ele>
        <time>2021-09-04T09:36:28.000Z</time>
      </trkpt>
      <trkpt lat="47.26258" lon="-2.07158">
        <ele>56</ele>
        <time>2021-09-04T09:36:30.000Z</time>
      </trkpt>
      <trkpt lat="47.26268" lon="-2.07146">
        <ele>56</ele>
        <time>2021-09-04T09:36:32.000Z</time>
      </trkpt>
      <trkpt lat="47.26278" lon="-2.07135">
        <ele>56</ele>
        <time>2021-09-04T09:36:34.000Z</time>
      </trkpt>
      <trkpt lat="47.26288" lon="-2.07123">
        <ele>56</ele>
        <time>2021-09-04T09:36:36.000Z</time>
      </trkpt>
      <trkpt lat="47.26298" lon="-2.07112">
        <ele>56</ele>
        <time>2021-09-04T09:36:38.000Z</time>
      </trkpt>
      <trkpt lat="47.26309" lon="-2.07101">
        <ele>56</ele>
        <time>2021-09-04T09:36:40.000Z</time>
      </trkpt>
      <trkpt lat="47.2632" lon="-2.0709">
        <ele>56</ele>
        <time>2021-09-04T09:36:42.000Z</time>
      </trkpt>
      <trkpt lat="47.26331" lon="-2.0708">
        <ele>56</ele>
        <time>2021-09-04T09:36:44.000Z</time>
      </trkpt>
      <trkpt lat="47.26342" lon="-2.0707">
        <ele>56</ele>
        <time>2021-09-04T09:36:46.000Z</time>
      </trkpt>
      <trkpt lat="47.26353" lon="-2.07061">
        <ele>56</ele>
        <time>2021-09-04T09:36:48.000Z</time>
      </trkpt>
      <trkpt lat="47.26365" lon="-2.07053">
        <ele>56</ele>
        <time>2021-09-04T09:36:50.000Z</time>
      </trkpt>
      <trkpt lat="47.26376" lon="-2.07046">
        <ele>56</ele>
        <time>2021-09-04T09:36:52.000Z</time>
      </trkpt>
      <trkpt lat="47.26389" lon="-2.07039">
        <ele>55</ele>
        <time>2021-09-04T09:36:54.000Z</time>
      </trkpt>
      <trkpt lat="47.26401" lon="-2.07033">
        <ele>55</ele>
        <time>2021-09-04T09:36:56.000Z</time>
      </trkpt>
      <trkpt lat="47.26413" lon="-2.07027">
        <ele>55</ele>
        <time>2021-09-04T09:36:58.000Z</time>
      </trkpt>
      <trkpt lat="47.26425" lon="-2.0702">
        <ele>55</ele>
        <time>2021-09-04T09:37:00.000Z</time>
      </trkpt>
      <trkpt lat="47.26437" lon="-2.07014">
        <ele>55</ele>
        <time>2021-09-04T09:37:02.000Z</time>
      </trkpt>
      <trkpt lat="47.26449" lon="-2.07007">
        <ele>56</ele>
        <time>2021-09-04T09:37:04.000Z</time>
      </trkpt>
      <trkpt lat="47.26461" lon="-2.07001">
        <ele>56</ele>
        <time>2021-09-04T09:37:06.000Z</time>
      </trkpt>
      <trkpt lat="47.26473" lon="-2.06994">
        <ele>56</ele>
        <time>2021-09-04T09:37:08.000Z</time>
      </trkpt>
      <trkpt lat="47.26485" lon="-2.06989">
        <ele>57</ele>
        <time>2021-09-04T09:37:10.000Z</time>
      </trkpt>
      <trkpt lat="47.26497" lon="-2.06984">
        <ele>57</ele>
        <time>2021-09-04T09:37:12.000Z</time>
      </trkpt>
      <trkpt lat="47.2651" lon="-2.06982">
        <ele>57</ele>
        <time>2021-09-04T09:37:14.000Z</time>
      </trkpt>
      <trkpt lat="47.26522" lon="-2.06979">
        <ele>56</ele>
        <time>2021-09-04T09:37:16.000Z</time>
      </trkpt>
      <trkpt lat="47.26536" lon="-2.06976">
        <ele>57</ele>
        <time>2021-09-04T09:37:18.000Z</time>
      </trkpt>
      <trkpt lat="47.26549" lon="-2.06974">
        <ele>57</ele>
        <time>2021-09-04T09:37:20.000Z</time>
      </trkpt>
      <trkpt lat="47.26562" lon="-2.06973">
        <ele>57</ele>
        <time>2021-09-04T09:37:22.000Z</time>
      </trkpt>
      <trkpt lat="47.26575" lon="-2.0697">
        <ele>57</ele>
        <time>2021-09-04T09:37:24.000Z</time>
      </trkpt>
      <trkpt lat="47.26588" lon="-2.06968">
        <ele>56</ele>
        <time>2021-09-04T09:37:26.000Z</time>
      </trkpt>
      <trkpt lat="47.26601" lon="-2.06966">
        <ele>57</ele>
        <time>2021-09-04T09:37:28.000Z</time>
      </trkpt>
      <trkpt lat="47.26615" lon="-2.06964">
        <ele>57</ele>
        <time>2021-09-04T09:37:30.000Z</time>
      </trkpt>
      <trkpt lat="47.26628" lon="-2.06961">
        <ele>57</ele>
        <time>2021-09-04T09:37:32.000Z</time>
      </trkpt>
      <trkpt lat="47.26641" lon="-2.0696">
        <ele>57</ele>
        <time>2021-09-04T09:37:34.000Z</time>
      </trkpt>
      <trkpt lat="47.26661" lon="-2.06956">
        <ele>56</ele>
        <time>2021-09-04T09:37:37.000Z</time>
      </trkpt>
      <trkpt lat="47.26675" lon="-2.06954">
        <ele>56</ele>
        <time>2021-09-04T09:37:39.000Z</time>
      </trkpt>
      <trkpt lat="47.26688" lon="-2.06952">
        <ele>56</ele>
        <time>2021-09-04T09:37:41.000Z</time>
      </trkpt>
      <trkpt lat="47.26702" lon="-2.06951">
        <ele>56</ele>
        <time>2021-09-04T09:37:43.000Z</time>
      </trkpt>
      <trkpt lat="47.26715" lon="-2.06948">
        <ele>56</ele>
        <time>2021-09-04T09:37:45.000Z</time>
      </trkpt>
      <trkpt lat="47.26729" lon="-2.06945">
        <ele>56</ele>
        <time>2021-09-04T09:37:47.000Z</time>
      </trkpt>
      <trkpt lat="47.26742" lon="-2.06941">
        <ele>56</ele>
        <time>2021-09-04T09:37:49.000Z</time>
      </trkpt>
      <trkpt lat="47.26762" lon="-2.06937">
        <ele>56</ele>
        <time>2021-09-04T09:37:52.000Z</time>
      </trkpt>
      <trkpt lat="47.26774" lon="-2.06934">
        <ele>56</ele>
        <time>2021-09-04T09:37:54.000Z</time>
      </trkpt>
      <trkpt lat="47.26787" lon="-2.06929">
        <ele>55</ele>
        <time>2021-09-04T09:37:56.000Z</time>
      </trkpt>
      <trkpt lat="47.26806" lon="-2.06924">
        <ele>55</ele>
        <time>2021-09-04T09:37:59.000Z</time>
      </trkpt>
      <trkpt lat="47.26825" lon="-2.06919">
        <ele>55</ele>
        <time>2021-09-04T09:38:02.000Z</time>
      </trkpt>
      <trkpt lat="47.26837" lon="-2.06915">
        <ele>55</ele>
        <time>2021-09-04T09:38:04.000Z</time>
      </trkpt>
      <trkpt lat="47.2685" lon="-2.06912">
        <ele>55</ele>
        <time>2021-09-04T09:38:06.000Z</time>
      </trkpt>
      <trkpt lat="47.26863" lon="-2.06908">
        <ele>54</ele>
        <time>2021-09-04T09:38:08.000Z</time>
      </trkpt>
      <trkpt lat="47.26877" lon="-2.06904">
        <ele>54</ele>
        <time>2021-09-04T09:38:10.000Z</time>
      </trkpt>
      <trkpt lat="47.26889" lon="-2.06897">
        <ele>53</ele>
        <time>2021-09-04T09:38:12.000Z</time>
      </trkpt>
      <trkpt lat="47.26901" lon="-2.06886">
        <ele>53</ele>
        <time>2021-09-04T09:38:14.000Z</time>
      </trkpt>
      <trkpt lat="47.26911" lon="-2.06873">
        <ele>53</ele>
        <time>2021-09-04T09:38:16.000Z</time>
      </trkpt>
      <trkpt lat="47.26921" lon="-2.06859">
        <ele>53</ele>
        <time>2021-09-04T09:38:18.000Z</time>
      </trkpt>
      <trkpt lat="47.26932" lon="-2.06845">
        <ele>53</ele>
        <time>2021-09-04T09:38:20.000Z</time>
      </trkpt>
      <trkpt lat="47.26942" lon="-2.06831">
        <ele>53</ele>
        <time>2021-09-04T09:38:22.000Z</time>
      </trkpt>
      <trkpt lat="47.26953" lon="-2.06818">
        <ele>52</ele>
        <time>2021-09-04T09:38:24.000Z</time>
      </trkpt>
      <trkpt lat="47.26964" lon="-2.06804">
        <ele>52</ele>
        <time>2021-09-04T09:38:26.000Z</time>
      </trkpt>
      <trkpt lat="47.26975" lon="-2.06791">
        <ele>52</ele>
        <time>2021-09-04T09:38:28.000Z</time>
      </trkpt>
      <trkpt lat="47.26986" lon="-2.06777">
        <ele>52</ele>
        <time>2021-09-04T09:38:30.000Z</time>
      </trkpt>
      <trkpt lat="47.26997" lon="-2.06764">
        <ele>52</ele>
        <time>2021-09-04T09:38:32.000Z</time>
      </trkpt>
      <trkpt lat="47.27008" lon="-2.0675">
        <ele>52</ele>
        <time>2021-09-04T09:38:34.000Z</time>
      </trkpt>
      <trkpt lat="47.27018" lon="-2.06735">
        <ele>52</ele>
        <time>2021-09-04T09:38:36.000Z</time>
      </trkpt>
      <trkpt lat="47.27029" lon="-2.06721">
        <ele>52</ele>
        <time>2021-09-04T09:38:38.000Z</time>
      </trkpt>
      <trkpt lat="47.27039" lon="-2.06705">
        <ele>51</ele>
        <time>2021-09-04T09:38:40.000Z</time>
      </trkpt>
      <trkpt lat="47.27049" lon="-2.0669">
        <ele>52</ele>
        <time>2021-09-04T09:38:42.000Z</time>
      </trkpt>
      <trkpt lat="47.27057" lon="-2.06673">
        <ele>52</ele>
        <time>2021-09-04T09:38:44.000Z</time>
      </trkpt>
      <trkpt lat="47.27066" lon="-2.06655">
        <ele>51</ele>
        <time>2021-09-04T09:38:46.000Z</time>
      </trkpt>
      <trkpt lat="47.27075" lon="-2.06639">
        <ele>51</ele>
        <time>2021-09-04T09:38:48.000Z</time>
      </trkpt>
      <trkpt lat="47.27083" lon="-2.06623">
        <ele>51</ele>
        <time>2021-09-04T09:38:50.000Z</time>
      </trkpt>
      <trkpt lat="47.27093" lon="-2.06606">
        <ele>52</ele>
        <time>2021-09-04T09:38:52.000Z</time>
      </trkpt>
      <trkpt lat="47.27102" lon="-2.0659">
        <ele>52</ele>
        <time>2021-09-04T09:38:54.000Z</time>
      </trkpt>
      <trkpt lat="47.27113" lon="-2.06575">
        <ele>51</ele>
        <time>2021-09-04T09:38:56.000Z</time>
      </trkpt>
      <trkpt lat="47.27125" lon="-2.06563">
        <ele>51</ele>
        <time>2021-09-04T09:38:58.000Z</time>
      </trkpt>
      <trkpt lat="47.27137" lon="-2.06554">
        <ele>51</ele>
        <time>2021-09-04T09:39:00.000Z</time>
      </trkpt>
      <trkpt lat="47.27149" lon="-2.06547">
        <ele>51</ele>
        <time>2021-09-04T09:39:02.000Z</time>
      </trkpt>
      <trkpt lat="47.27162" lon="-2.0654">
        <ele>51</ele>
        <time>2021-09-04T09:39:04.000Z</time>
      </trkpt>
      <trkpt lat="47.27175" lon="-2.06534">
        <ele>51</ele>
        <time>2021-09-04T09:39:06.000Z</time>
      </trkpt>
      <trkpt lat="47.27188" lon="-2.06528">
        <ele>51</ele>
        <time>2021-09-04T09:39:08.000Z</time>
      </trkpt>
      <trkpt lat="47.27201" lon="-2.06523">
        <ele>50</ele>
        <time>2021-09-04T09:39:10.000Z</time>
      </trkpt>
      <trkpt lat="47.27214" lon="-2.06519">
        <ele>50</ele>
        <time>2021-09-04T09:39:12.000Z</time>
      </trkpt>
      <trkpt lat="47.27227" lon="-2.06517">
        <ele>50</ele>
        <time>2021-09-04T09:39:14.000Z</time>
      </trkpt>
      <trkpt lat="47.2724" lon="-2.06515">
        <ele>50</ele>
        <time>2021-09-04T09:39:16.000Z</time>
      </trkpt>
      <trkpt lat="47.27253" lon="-2.06514">
        <ele>50</ele>
        <time>2021-09-04T09:39:18.000Z</time>
      </trkpt>
      <trkpt lat="47.27266" lon="-2.06512">
        <ele>50</ele>
        <time>2021-09-04T09:39:20.000Z</time>
      </trkpt>
      <trkpt lat="47.27279" lon="-2.06505">
        <ele>50</ele>
        <time>2021-09-04T09:39:22.000Z</time>
      </trkpt>
      <trkpt lat="47.27289" lon="-2.06492">
        <ele>50</ele>
        <time>2021-09-04T09:39:24.000Z</time>
      </trkpt>
      <trkpt lat="47.27299" lon="-2.06478">
        <ele>50</ele>
        <time>2021-09-04T09:39:26.000Z</time>
      </trkpt>
      <trkpt lat="47.27308" lon="-2.06462">
        <ele>50</ele>
        <time>2021-09-04T09:39:28.000Z</time>
      </trkpt>
      <trkpt lat="47.27316" lon="-2.06447">
        <ele>50</ele>
        <time>2021-09-04T09:39:30.000Z</time>
      </trkpt>
      <trkpt lat="47.27325" lon="-2.06431">
        <ele>51</ele>
        <time>2021-09-04T09:39:32.000Z</time>
      </trkpt>
      <trkpt lat="47.27334" lon="-2.06415">
        <ele>50</ele>
        <time>2021-09-04T09:39:34.000Z</time>
      </trkpt>
      <trkpt lat="47.27343" lon="-2.064">
        <ele>50</ele>
        <time>2021-09-04T09:39:36.000Z</time>
      </trkpt>
      <trkpt lat="47.27352" lon="-2.06385">
        <ele>50</ele>
        <time>2021-09-04T09:39:38.000Z</time>
      </trkpt>
      <trkpt lat="47.2736" lon="-2.0637">
        <ele>51</ele>
        <time>2021-09-04T09:39:40.000Z</time>
      </trkpt>
      <trkpt lat="47.27369" lon="-2.06354">
        <ele>52</ele>
        <time>2021-09-04T09:39:42.000Z</time>
      </trkpt>
      <trkpt lat="47.27378" lon="-2.06339">
        <ele>52</ele>
        <time>2021-09-04T09:39:44.000Z</time>
      </trkpt>
      <trkpt lat="47.27386" lon="-2.06322">
        <ele>52</ele>
        <time>2021-09-04T09:39:46.000Z</time>
      </trkpt>
      <trkpt lat="47.27395" lon="-2.06306">
        <ele>52</ele>
        <time>2021-09-04T09:39:48.000Z</time>
      </trkpt>
      <trkpt lat="47.27403" lon="-2.0629">
        <ele>52</ele>
        <time>2021-09-04T09:39:50.000Z</time>
      </trkpt>
      <trkpt lat="47.27411" lon="-2.06274">
        <ele>52</ele>
        <time>2021-09-04T09:39:52.000Z</time>
      </trkpt>
      <trkpt lat="47.27419" lon="-2.06258">
        <ele>53</ele>
        <time>2021-09-04T09:39:54.000Z</time>
      </trkpt>
      <trkpt lat="47.27427" lon="-2.06242">
        <ele>52</ele>
        <time>2021-09-04T09:39:56.000Z</time>
      </trkpt>
      <trkpt lat="47.27435" lon="-2.06226">
        <ele>52</ele>
        <time>2021-09-04T09:39:58.000Z</time>
      </trkpt>
      <trkpt lat="47.27442" lon="-2.06211">
        <ele>51</ele>
        <time>2021-09-04T09:40:00.000Z</time>
      </trkpt>
      <trkpt lat="47.2745" lon="-2.06196">
        <ele>51</ele>
        <time>2021-09-04T09:40:02.000Z</time>
      </trkpt>
      <trkpt lat="47.27457" lon="-2.06181">
        <ele>51</ele>
        <time>2021-09-04T09:40:04.000Z</time>
      </trkpt>
      <trkpt lat="47.27465" lon="-2.06166">
        <ele>52</ele>
        <time>2021-09-04T09:40:06.000Z</time>
      </trkpt>
      <trkpt lat="47.27473" lon="-2.06152">
        <ele>52</ele>
        <time>2021-09-04T09:40:08.000Z</time>
      </trkpt>
      <trkpt lat="47.27482" lon="-2.06139">
        <ele>52</ele>
        <time>2021-09-04T09:40:10.000Z</time>
      </trkpt>
      <trkpt lat="47.2749" lon="-2.06127">
        <ele>52</ele>
        <time>2021-09-04T09:40:12.000Z</time>
      </trkpt>
      <trkpt lat="47.27498" lon="-2.06116">
        <ele>52</ele>
        <time>2021-09-04T09:40:14.000Z</time>
      </trkpt>
      <trkpt lat="47.27508" lon="-2.06106">
        <ele>52</ele>
        <time>2021-09-04T09:40:16.000Z</time>
      </trkpt>
      <trkpt lat="47.27519" lon="-2.06095">
        <ele>53</ele>
        <time>2021-09-04T09:40:18.000Z</time>
      </trkpt>
      <trkpt lat="47.27529" lon="-2.06085">
        <ele>53</ele>
        <time>2021-09-04T09:40:20.000Z</time>
      </trkpt>
      <trkpt lat="47.2754" lon="-2.06075">
        <ele>53</ele>
        <time>2021-09-04T09:40:22.000Z</time>
      </trkpt>
      <trkpt lat="47.27551" lon="-2.06067">
        <ele>53</ele>
        <time>2021-09-04T09:40:24.000Z</time>
      </trkpt>
      <trkpt lat="47.27562" lon="-2.06059">
        <ele>52</ele>
        <time>2021-09-04T09:40:26.000Z</time>
      </trkpt>
      <trkpt lat="47.27573" lon="-2.0605">
        <ele>52</ele>
        <time>2021-09-04T09:40:28.000Z</time>
      </trkpt>
      <trkpt lat="47.27584" lon="-2.06041">
        <ele>52</ele>
        <time>2021-09-04T09:40:30.000Z</time>
      </trkpt>
      <trkpt lat="47.27595" lon="-2.06034">
        <ele>52</ele>
        <time>2021-09-04T09:40:32.000Z</time>
      </trkpt>
      <trkpt lat="47.27606" lon="-2.06026">
        <ele>52</ele>
        <time>2021-09-04T09:40:34.000Z</time>
      </trkpt>
      <trkpt lat="47.27618" lon="-2.06019">
        <ele>52</ele>
        <time>2021-09-04T09:40:36.000Z</time>
      </trkpt>
      <trkpt lat="47.2763" lon="-2.06012">
        <ele>51</ele>
        <time>2021-09-04T09:40:38.000Z</time>
      </trkpt>
      <trkpt lat="47.27641" lon="-2.06004">
        <ele>51</ele>
        <time>2021-09-04T09:40:40.000Z</time>
      </trkpt>
      <trkpt lat="47.27651" lon="-2.05996">
        <ele>52</ele>
        <time>2021-09-04T09:40:42.000Z</time>
      </trkpt>
      <trkpt lat="47.27662" lon="-2.05988">
        <ele>52</ele>
        <time>2021-09-04T09:40:44.000Z</time>
      </trkpt>
      <trkpt lat="47.27672" lon="-2.0598">
        <ele>51</ele>
        <time>2021-09-04T09:40:46.000Z</time>
      </trkpt>
      <trkpt lat="47.27683" lon="-2.05972">
        <ele>51</ele>
        <time>2021-09-04T09:40:48.000Z</time>
      </trkpt>
      <trkpt lat="47.27694" lon="-2.05964">
        <ele>52</ele>
        <time>2021-09-04T09:40:50.000Z</time>
      </trkpt>
      <trkpt lat="47.27705" lon="-2.05956">
        <ele>52</ele>
        <time>2021-09-04T09:40:52.000Z</time>
      </trkpt>
      <trkpt lat="47.27716" lon="-2.05948">
        <ele>52</ele>
        <time>2021-09-04T09:40:54.000Z</time>
      </trkpt>
      <trkpt lat="47.27726" lon="-2.0594">
        <ele>52</ele>
        <time>2021-09-04T09:40:56.000Z</time>
      </trkpt>
      <trkpt lat="47.27735" lon="-2.05932">
        <ele>52</ele>
        <time>2021-09-04T09:40:58.000Z</time>
      </trkpt>
      <trkpt lat="47.27744" lon="-2.05926">
        <ele>52</ele>
        <time>2021-09-04T09:41:00.000Z</time>
      </trkpt>
      <trkpt lat="47.27753" lon="-2.0592">
        <ele>52</ele>
        <time>2021-09-04T09:41:04.000Z</time>
      </trkpt>
      <trkpt lat="47.27758" lon="-2.05908">
        <ele>53</ele>
        <time>2021-09-04T09:41:07.000Z</time>
      </trkpt>
      <trkpt lat="47.2776" lon="-2.05894">
        <ele>53</ele>
        <time>2021-09-04T09:41:09.000Z</time>
      </trkpt>
      <trkpt lat="47.27764" lon="-2.05877">
        <ele>54</ele>
        <time>2021-09-04T09:41:11.000Z</time>
      </trkpt>
      <trkpt lat="47.27768" lon="-2.05861">
        <ele>54</ele>
        <time>2021-09-04T09:41:13.000Z</time>
      </trkpt>
      <trkpt lat="47.27778" lon="-2.05849">
        <ele>54</ele>
        <time>2021-09-04T09:41:15.000Z</time>
      </trkpt>
      <trkpt lat="47.27789" lon="-2.05842">
        <ele>54</ele>
        <time>2021-09-04T09:41:17.000Z</time>
      </trkpt>
      <trkpt lat="47.278" lon="-2.05835">
        <ele>53</ele>
        <time>2021-09-04T09:41:19.000Z</time>
      </trkpt>
      <trkpt lat="47.27811" lon="-2.05826">
        <ele>53</ele>
        <time>2021-09-04T09:41:21.000Z</time>
      </trkpt>
      <trkpt lat="47.27822" lon="-2.05818">
        <ele>53</ele>
        <time>2021-09-04T09:41:23.000Z</time>
      </trkpt>
      <trkpt lat="47.27833" lon="-2.05808">
        <ele>53</ele>
        <time>2021-09-04T09:41:25.000Z</time>
      </trkpt>
      <trkpt lat="47.27844" lon="-2.05799">
        <ele>53</ele>
        <time>2021-09-04T09:41:27.000Z</time>
      </trkpt>
      <trkpt lat="47.27855" lon="-2.0579">
        <ele>53</ele>
        <time>2021-09-04T09:41:29.000Z</time>
      </trkpt>
      <trkpt lat="47.27866" lon="-2.05781">
        <ele>53</ele>
        <time>2021-09-04T09:41:31.000Z</time>
      </trkpt>
      <trkpt lat="47.27877" lon="-2.05772">
        <ele>53</ele>
        <time>2021-09-04T09:41:33.000Z</time>
      </trkpt>
      <trkpt lat="47.2789" lon="-2.05761">
        <ele>52</ele>
        <time>2021-09-04T09:41:35.000Z</time>
      </trkpt>
      <trkpt lat="47.27901" lon="-2.05751">
        <ele>52</ele>
        <time>2021-09-04T09:41:37.000Z</time>
      </trkpt>
      <trkpt lat="47.27914" lon="-2.05742">
        <ele>52</ele>
        <time>2021-09-04T09:41:39.000Z</time>
      </trkpt>
      <trkpt lat="47.27925" lon="-2.05731">
        <ele>51</ele>
        <time>2021-09-04T09:41:41.000Z</time>
      </trkpt>
      <trkpt lat="47.27938" lon="-2.05722">
        <ele>51</ele>
        <time>2021-09-04T09:41:43.000Z</time>
      </trkpt>
      <trkpt lat="47.2795" lon="-2.05714">
        <ele>51</ele>
        <time>2021-09-04T09:41:45.000Z</time>
      </trkpt>
      <trkpt lat="47.27962" lon="-2.05704">
        <ele>51</ele>
        <time>2021-09-04T09:41:47.000Z</time>
      </trkpt>
      <trkpt lat="47.2797" lon="-2.05688">
        <ele>52</ele>
        <time>2021-09-04T09:41:49.000Z</time>
      </trkpt>
      <trkpt lat="47.27977" lon="-2.05671">
        <ele>52</ele>
        <time>2021-09-04T09:41:51.000Z</time>
      </trkpt>
      <trkpt lat="47.27984" lon="-2.05652">
        <ele>52</ele>
        <time>2021-09-04T09:41:53.000Z</time>
      </trkpt>
      <trkpt lat="47.27992" lon="-2.05634">
        <ele>52</ele>
        <time>2021-09-04T09:41:55.000Z</time>
      </trkpt>
      <trkpt lat="47.28001" lon="-2.05616">
        <ele>51</ele>
        <time>2021-09-04T09:41:57.000Z</time>
      </trkpt>
      <trkpt lat="47.28009" lon="-2.05598">
        <ele>51</ele>
        <time>2021-09-04T09:41:59.000Z</time>
      </trkpt>
      <trkpt lat="47.28018" lon="-2.05581">
        <ele>51</ele>
        <time>2021-09-04T09:42:01.000Z</time>
      </trkpt>
      <trkpt lat="47.28026" lon="-2.05563">
        <ele>51</ele>
        <time>2021-09-04T09:42:03.000Z</time>
      </trkpt>
      <trkpt lat="47.28035" lon="-2.05546">
        <ele>51</ele>
        <time>2021-09-04T09:42:05.000Z</time>
      </trkpt>
      <trkpt lat="47.28044" lon="-2.05527">
        <ele>51</ele>
        <time>2021-09-04T09:42:07.000Z</time>
      </trkpt>
      <trkpt lat="47.28052" lon="-2.05509">
        <ele>51</ele>
        <time>2021-09-04T09:42:09.000Z</time>
      </trkpt>
      <trkpt lat="47.28061" lon="-2.05491">
        <ele>51</ele>
        <time>2021-09-04T09:42:11.000Z</time>
      </trkpt>
      <trkpt lat="47.28069" lon="-2.05473">
        <ele>51</ele>
        <time>2021-09-04T09:42:13.000Z</time>
      </trkpt>
      <trkpt lat="47.28078" lon="-2.05454">
        <ele>51</ele>
        <time>2021-09-04T09:42:15.000Z</time>
      </trkpt>
      <trkpt lat="47.28086" lon="-2.05436">
        <ele>51</ele>
        <time>2021-09-04T09:42:17.000Z</time>
      </trkpt>
      <trkpt lat="47.28094" lon="-2.05419">
        <ele>51</ele>
        <time>2021-09-04T09:42:19.000Z</time>
      </trkpt>
      <trkpt lat="47.28102" lon="-2.05402">
        <ele>51</ele>
        <time>2021-09-04T09:42:21.000Z</time>
      </trkpt>
      <trkpt lat="47.2811" lon="-2.05384">
        <ele>52</ele>
        <time>2021-09-04T09:42:23.000Z</time>
      </trkpt>
      <trkpt lat="47.28118" lon="-2.05366">
        <ele>52</ele>
        <time>2021-09-04T09:42:25.000Z</time>
      </trkpt>
      <trkpt lat="47.28127" lon="-2.05349">
        <ele>52</ele>
        <time>2021-09-04T09:42:27.000Z</time>
      </trkpt>
      <trkpt lat="47.28135" lon="-2.05331">
        <ele>52</ele>
        <time>2021-09-04T09:42:29.000Z</time>
      </trkpt>
      <trkpt lat="47.28143" lon="-2.05313">
        <ele>52</ele>
        <time>2021-09-04T09:42:31.000Z</time>
      </trkpt>
      <trkpt lat="47.28152" lon="-2.05295">
        <ele>52</ele>
        <time>2021-09-04T09:42:33.000Z</time>
      </trkpt>
      <trkpt lat="47.2816" lon="-2.05277">
        <ele>52</ele>
        <time>2021-09-04T09:42:35.000Z</time>
      </trkpt>
      <trkpt lat="47.28168" lon="-2.0526">
        <ele>51</ele>
        <time>2021-09-04T09:42:37.000Z</time>
      </trkpt>
      <trkpt lat="47.28176" lon="-2.05242">
        <ele>51</ele>
        <time>2021-09-04T09:42:39.000Z</time>
      </trkpt>
      <trkpt lat="47.28185" lon="-2.05224">
        <ele>51</ele>
        <time>2021-09-04T09:42:41.000Z</time>
      </trkpt>
      <trkpt lat="47.28193" lon="-2.05206">
        <ele>51</ele>
        <time>2021-09-04T09:42:43.000Z</time>
      </trkpt>
      <trkpt lat="47.28201" lon="-2.05189">
        <ele>51</ele>
        <time>2021-09-04T09:42:45.000Z</time>
      </trkpt>
      <trkpt lat="47.28208" lon="-2.05172">
        <ele>51</ele>
        <time>2021-09-04T09:42:47.000Z</time>
      </trkpt>
      <trkpt lat="47.28215" lon="-2.05153">
        <ele>51</ele>
        <time>2021-09-04T09:42:49.000Z</time>
      </trkpt>
      <trkpt lat="47.28223" lon="-2.05137">
        <ele>51</ele>
        <time>2021-09-04T09:42:51.000Z</time>
      </trkpt>
      <trkpt lat="47.28232" lon="-2.0512">
        <ele>51</ele>
        <time>2021-09-04T09:42:53.000Z</time>
      </trkpt>
      <trkpt lat="47.2824" lon="-2.05103">
        <ele>51</ele>
        <time>2021-09-04T09:42:55.000Z</time>
      </trkpt>
      <trkpt lat="47.28248" lon="-2.05085">
        <ele>51</ele>
        <time>2021-09-04T09:42:57.000Z</time>
      </trkpt>
      <trkpt lat="47.28256" lon="-2.05068">
        <ele>51</ele>
        <time>2021-09-04T09:42:59.000Z</time>
      </trkpt>
      <trkpt lat="47.28265" lon="-2.0505">
        <ele>51</ele>
        <time>2021-09-04T09:43:01.000Z</time>
      </trkpt>
      <trkpt lat="47.28273" lon="-2.05033">
        <ele>51</ele>
        <time>2021-09-04T09:43:03.000Z</time>
      </trkpt>
      <trkpt lat="47.28281" lon="-2.05015">
        <ele>51</ele>
        <time>2021-09-04T09:43:05.000Z</time>
      </trkpt>
      <trkpt lat="47.28289" lon="-2.04998">
        <ele>51</ele>
        <time>2021-09-04T09:43:07.000Z</time>
      </trkpt>
      <trkpt lat="47.28297" lon="-2.04981">
        <ele>51</ele>
        <time>2021-09-04T09:43:09.000Z</time>
      </trkpt>
      <trkpt lat="47.28305" lon="-2.04963">
        <ele>51</ele>
        <time>2021-09-04T09:43:11.000Z</time>
      </trkpt>
      <trkpt lat="47.28313" lon="-2.04946">
        <ele>51</ele>
        <time>2021-09-04T09:43:13.000Z</time>
      </trkpt>
      <trkpt lat="47.28321" lon="-2.04928">
        <ele>52</ele>
        <time>2021-09-04T09:43:15.000Z</time>
      </trkpt>
      <trkpt lat="47.28329" lon="-2.0491">
        <ele>52</ele>
        <time>2021-09-04T09:43:17.000Z</time>
      </trkpt>
      <trkpt lat="47.28337" lon="-2.04892">
        <ele>52</ele>
        <time>2021-09-04T09:43:19.000Z</time>
      </trkpt>
      <trkpt lat="47.28345" lon="-2.04875">
        <ele>52</ele>
        <time>2021-09-04T09:43:21.000Z</time>
      </trkpt>
      <trkpt lat="47.28354" lon="-2.04858">
        <ele>51</ele>
        <time>2021-09-04T09:43:23.000Z</time>
      </trkpt>
      <trkpt lat="47.28361" lon="-2.0484">
        <ele>51</ele>
        <time>2021-09-04T09:43:25.000Z</time>
      </trkpt>
      <trkpt lat="47.28369" lon="-2.04822">
        <ele>52</ele>
        <time>2021-09-04T09:43:27.000Z</time>
      </trkpt>
      <trkpt lat="47.28377" lon="-2.04804">
        <ele>52</ele>
        <time>2021-09-04T09:43:29.000Z</time>
      </trkpt>
      <trkpt lat="47.28385" lon="-2.04786">
        <ele>52</ele>
        <time>2021-09-04T09:43:31.000Z</time>
      </trkpt>
      <trkpt lat="47.28394" lon="-2.04768">
        <ele>52</ele>
        <time>2021-09-04T09:43:33.000Z</time>
      </trkpt>
      <trkpt lat="47.28403" lon="-2.0475">
        <ele>52</ele>
        <time>2021-09-04T09:43:35.000Z</time>
      </trkpt>
      <trkpt lat="47.28412" lon="-2.04732">
        <ele>52</ele>
        <time>2021-09-04T09:43:37.000Z</time>
      </trkpt>
      <trkpt lat="47.2842" lon="-2.04714">
        <ele>52</ele>
        <time>2021-09-04T09:43:39.000Z</time>
      </trkpt>
      <trkpt lat="47.28429" lon="-2.04695">
        <ele>52</ele>
        <time>2021-09-04T09:43:41.000Z</time>
      </trkpt>
      <trkpt lat="47.28437" lon="-2.04677">
        <ele>53</ele>
        <time>2021-09-04T09:43:43.000Z</time>
      </trkpt>
      <trkpt lat="47.28445" lon="-2.04659">
        <ele>52</ele>
        <time>2021-09-04T09:43:45.000Z</time>
      </trkpt>
      <trkpt lat="47.28454" lon="-2.04641">
        <ele>52</ele>
        <time>2021-09-04T09:43:47.000Z</time>
      </trkpt>
      <trkpt lat="47.28462" lon="-2.04623">
        <ele>52</ele>
        <time>2021-09-04T09:43:49.000Z</time>
      </trkpt>
      <trkpt lat="47.2847" lon="-2.04606">
        <ele>52</ele>
        <time>2021-09-04T09:43:51.000Z</time>
      </trkpt>
      <trkpt lat="47.2848" lon="-2.04589">
        <ele>52</ele>
        <time>2021-09-04T09:43:53.000Z</time>
      </trkpt>
      <trkpt lat="47.28489" lon="-2.04574">
        <ele>52</ele>
        <time>2021-09-04T09:43:55.000Z</time>
      </trkpt>
      <trkpt lat="47.28499" lon="-2.04559">
        <ele>52</ele>
        <time>2021-09-04T09:43:57.000Z</time>
      </trkpt>
      <trkpt lat="47.28509" lon="-2.04543">
        <ele>52</ele>
        <time>2021-09-04T09:43:59.000Z</time>
      </trkpt>
      <trkpt lat="47.28519" lon="-2.04528">
        <ele>52</ele>
        <time>2021-09-04T09:44:01.000Z</time>
      </trkpt>
      <trkpt lat="47.28529" lon="-2.04512">
        <ele>52</ele>
        <time>2021-09-04T09:44:03.000Z</time>
      </trkpt>
      <trkpt lat="47.28539" lon="-2.04498">
        <ele>52</ele>
        <time>2021-09-04T09:44:05.000Z</time>
      </trkpt>
      <trkpt lat="47.28549" lon="-2.04483">
        <ele>52</ele>
        <time>2021-09-04T09:44:07.000Z</time>
      </trkpt>
      <trkpt lat="47.28559" lon="-2.04468">
        <ele>52</ele>
        <time>2021-09-04T09:44:09.000Z</time>
      </trkpt>
      <trkpt lat="47.28569" lon="-2.04453">
        <ele>52</ele>
        <time>2021-09-04T09:44:11.000Z</time>
      </trkpt>
      <trkpt lat="47.28579" lon="-2.04439">
        <ele>52</ele>
        <time>2021-09-04T09:44:13.000Z</time>
      </trkpt>
      <trkpt lat="47.28589" lon="-2.04425">
        <ele>52</ele>
        <time>2021-09-04T09:44:15.000Z</time>
      </trkpt>
      <trkpt lat="47.28599" lon="-2.04411">
        <ele>53</ele>
        <time>2021-09-04T09:44:17.000Z</time>
      </trkpt>
      <trkpt lat="47.28608" lon="-2.04396">
        <ele>52</ele>
        <time>2021-09-04T09:44:19.000Z</time>
      </trkpt>
      <trkpt lat="47.28618" lon="-2.04381">
        <ele>52</ele>
        <time>2021-09-04T09:44:21.000Z</time>
      </trkpt>
      <trkpt lat="47.28627" lon="-2.04366">
        <ele>52</ele>
        <time>2021-09-04T09:44:23.000Z</time>
      </trkpt>
      <trkpt lat="47.28636" lon="-2.04351">
        <ele>52</ele>
        <time>2021-09-04T09:44:25.000Z</time>
      </trkpt>
      <trkpt lat="47.28646" lon="-2.04337">
        <ele>52</ele>
        <time>2021-09-04T09:44:27.000Z</time>
      </trkpt>
      <trkpt lat="47.28655" lon="-2.04322">
        <ele>53</ele>
        <time>2021-09-04T09:44:29.000Z</time>
      </trkpt>
      <trkpt lat="47.28664" lon="-2.04308">
        <ele>53</ele>
        <time>2021-09-04T09:44:31.000Z</time>
      </trkpt>
      <trkpt lat="47.28672" lon="-2.04295">
        <ele>53</ele>
        <time>2021-09-04T09:44:33.000Z</time>
      </trkpt>
      <trkpt lat="47.28681" lon="-2.04281">
        <ele>53</ele>
        <time>2021-09-04T09:44:35.000Z</time>
      </trkpt>
      <trkpt lat="47.28689" lon="-2.04268">
        <ele>53</ele>
        <time>2021-09-04T09:44:37.000Z</time>
      </trkpt>
      <trkpt lat="47.28695" lon="-2.04253">
        <ele>54</ele>
        <time>2021-09-04T09:44:39.000Z</time>
      </trkpt>
      <trkpt lat="47.28694" lon="-2.04235">
        <ele>53</ele>
        <time>2021-09-04T09:44:41.000Z</time>
      </trkpt>
      <trkpt lat="47.28697" lon="-2.04219">
        <ele>53</ele>
        <time>2021-09-04T09:44:43.000Z</time>
      </trkpt>
      <trkpt lat="47.28706" lon="-2.04207">
        <ele>53</ele>
        <time>2021-09-04T09:44:45.000Z</time>
      </trkpt>
      <trkpt lat="47.28719" lon="-2.04205">
        <ele>53</ele>
        <time>2021-09-04T09:44:47.000Z</time>
      </trkpt>
      <trkpt lat="47.28732" lon="-2.04206">
        <ele>53</ele>
        <time>2021-09-04T09:44:49.000Z</time>
      </trkpt>
      <trkpt lat="47.28743" lon="-2.04199">
        <ele>53</ele>
        <time>2021-09-04T09:44:51.000Z</time>
      </trkpt>
      <trkpt lat="47.28755" lon="-2.04187">
        <ele>53</ele>
        <time>2021-09-04T09:44:53.000Z</time>
      </trkpt>
      <trkpt lat="47.28765" lon="-2.04174">
        <ele>52</ele>
        <time>2021-09-04T09:44:55.000Z</time>
      </trkpt>
      <trkpt lat="47.28775" lon="-2.0416">
        <ele>52</ele>
        <time>2021-09-04T09:44:57.000Z</time>
      </trkpt>
      <trkpt lat="47.28784" lon="-2.04146">
        <ele>52</ele>
        <time>2021-09-04T09:44:59.000Z</time>
      </trkpt>
      <trkpt lat="47.28793" lon="-2.04133">
        <ele>52</ele>
        <time>2021-09-04T09:45:01.000Z</time>
      </trkpt>
      <trkpt lat="47.28801" lon="-2.04119">
        <ele>53</ele>
        <time>2021-09-04T09:45:03.000Z</time>
      </trkpt>
      <trkpt lat="47.2881" lon="-2.04106">
        <ele>53</ele>
        <time>2021-09-04T09:45:05.000Z</time>
      </trkpt>
      <trkpt lat="47.28818" lon="-2.04093">
        <ele>53</ele>
        <time>2021-09-04T09:45:07.000Z</time>
      </trkpt>
      <trkpt lat="47.28827" lon="-2.0408">
        <ele>54</ele>
        <time>2021-09-04T09:45:09.000Z</time>
      </trkpt>
      <trkpt lat="47.28835" lon="-2.04068">
        <ele>54</ele>
        <time>2021-09-04T09:45:11.000Z</time>
      </trkpt>
      <trkpt lat="47.28844" lon="-2.04055">
        <ele>54</ele>
        <time>2021-09-04T09:45:13.000Z</time>
      </trkpt>
      <trkpt lat="47.28852" lon="-2.04042">
        <ele>55</ele>
        <time>2021-09-04T09:45:15.000Z</time>
      </trkpt>
      <trkpt lat="47.28861" lon="-2.0403">
        <ele>55</ele>
        <time>2021-09-04T09:45:17.000Z</time>
      </trkpt>
      <trkpt lat="47.28869" lon="-2.04016">
        <ele>55</ele>
        <time>2021-09-04T09:45:19.000Z</time>
      </trkpt>
      <trkpt lat="47.28876" lon="-2.04">
        <ele>54</ele>
        <time>2021-09-04T09:45:21.000Z</time>
      </trkpt>
      <trkpt lat="47.28884" lon="-2.03984">
        <ele>54</ele>
        <time>2021-09-04T09:45:23.000Z</time>
      </trkpt>
      <trkpt lat="47.2889" lon="-2.03967">
        <ele>54</ele>
        <time>2021-09-04T09:45:25.000Z</time>
      </trkpt>
      <trkpt lat="47.28895" lon="-2.03949">
        <ele>54</ele>
        <time>2021-09-04T09:45:27.000Z</time>
      </trkpt>
      <trkpt lat="47.28898" lon="-2.03929">
        <ele>53</ele>
        <time>2021-09-04T09:45:29.000Z</time>
      </trkpt>
      <trkpt lat="47.28898" lon="-2.03909">
        <ele>54</ele>
        <time>2021-09-04T09:45:31.000Z</time>
      </trkpt>
      <trkpt lat="47.28899" lon="-2.03889">
        <ele>54</ele>
        <time>2021-09-04T09:45:33.000Z</time>
      </trkpt>
      <trkpt lat="47.289" lon="-2.03868">
        <ele>54</ele>
        <time>2021-09-04T09:45:35.000Z</time>
      </trkpt>
      <trkpt lat="47.289" lon="-2.03848">
        <ele>54</ele>
        <time>2021-09-04T09:45:37.000Z</time>
      </trkpt>
      <trkpt lat="47.28902" lon="-2.03827">
        <ele>54</ele>
        <time>2021-09-04T09:45:39.000Z</time>
      </trkpt>
      <trkpt lat="47.28903" lon="-2.03807">
        <ele>54</ele>
        <time>2021-09-04T09:45:41.000Z</time>
      </trkpt>
      <trkpt lat="47.28904" lon="-2.03786">
        <ele>54</ele>
        <time>2021-09-04T09:45:43.000Z</time>
      </trkpt>
      <trkpt lat="47.28904" lon="-2.03766">
        <ele>54</ele>
        <time>2021-09-04T09:45:45.000Z</time>
      </trkpt>
      <trkpt lat="47.28905" lon="-2.03745">
        <ele>54</ele>
        <time>2021-09-04T09:45:47.000Z</time>
      </trkpt>
      <trkpt lat="47.28906" lon="-2.03724">
        <ele>54</ele>
        <time>2021-09-04T09:45:49.000Z</time>
      </trkpt>
      <trkpt lat="47.28908" lon="-2.03703">
        <ele>53</ele>
        <time>2021-09-04T09:45:51.000Z</time>
      </trkpt>
      <trkpt lat="47.28909" lon="-2.03682">
        <ele>53</ele>
        <time>2021-09-04T09:45:53.000Z</time>
      </trkpt>
      <trkpt lat="47.2891" lon="-2.03661">
        <ele>54</ele>
        <time>2021-09-04T09:45:55.000Z</time>
      </trkpt>
      <trkpt lat="47.2891" lon="-2.03641">
        <ele>54</ele>
        <time>2021-09-04T09:45:57.000Z</time>
      </trkpt>
      <trkpt lat="47.28911" lon="-2.03621">
        <ele>54</ele>
        <time>2021-09-04T09:45:59.000Z</time>
      </trkpt>
      <trkpt lat="47.28912" lon="-2.03601">
        <ele>54</ele>
        <time>2021-09-04T09:46:01.000Z</time>
      </trkpt>
      <trkpt lat="47.28913" lon="-2.0358">
        <ele>54</ele>
        <time>2021-09-04T09:46:03.000Z</time>
      </trkpt>
      <trkpt lat="47.28915" lon="-2.03559">
        <ele>54</ele>
        <time>2021-09-04T09:46:05.000Z</time>
      </trkpt>
      <trkpt lat="47.28916" lon="-2.03539">
        <ele>53</ele>
        <time>2021-09-04T09:46:07.000Z</time>
      </trkpt>
      <trkpt lat="47.28917" lon="-2.03519">
        <ele>52</ele>
        <time>2021-09-04T09:46:09.000Z</time>
      </trkpt>
      <trkpt lat="47.28918" lon="-2.035">
        <ele>52</ele>
        <time>2021-09-04T09:46:11.000Z</time>
      </trkpt>
      <trkpt lat="47.2892" lon="-2.03481">
        <ele>51</ele>
        <time>2021-09-04T09:46:13.000Z</time>
      </trkpt>
      <trkpt lat="47.28923" lon="-2.03462">
        <ele>51</ele>
        <time>2021-09-04T09:46:15.000Z</time>
      </trkpt>
      <trkpt lat="47.28926" lon="-2.03444">
        <ele>51</ele>
        <time>2021-09-04T09:46:17.000Z</time>
      </trkpt>
      <trkpt lat="47.28929" lon="-2.03424">
        <ele>51</ele>
        <time>2021-09-04T09:46:19.000Z</time>
      </trkpt>
      <trkpt lat="47.28932" lon="-2.03405">
        <ele>52</ele>
        <time>2021-09-04T09:46:21.000Z</time>
      </trkpt>
      <trkpt lat="47.28935" lon="-2.03387">
        <ele>52</ele>
        <time>2021-09-04T09:46:23.000Z</time>
      </trkpt>
      <trkpt lat="47.28938" lon="-2.0337">
        <ele>52</ele>
        <time>2021-09-04T09:46:25.000Z</time>
      </trkpt>
      <trkpt lat="47.28943" lon="-2.0335">
        <ele>52</ele>
        <time>2021-09-04T09:46:27.000Z</time>
      </trkpt>
      <trkpt lat="47.28946" lon="-2.03332">
        <ele>53</ele>
        <time>2021-09-04T09:46:29.000Z</time>
      </trkpt>
      <trkpt lat="47.2895" lon="-2.03315">
        <ele>53</ele>
        <time>2021-09-04T09:46:31.000Z</time>
      </trkpt>
      <trkpt lat="47.28955" lon="-2.03296">
        <ele>53</ele>
        <time>2021-09-04T09:46:33.000Z</time>
      </trkpt>
      <trkpt lat="47.28957" lon="-2.03277">
        <ele>53</ele>
        <time>2021-09-04T09:46:35.000Z</time>
      </trkpt>
      <trkpt lat="47.28959" lon="-2.03257">
        <ele>54</ele>
        <time>2021-09-04T09:46:37.000Z</time>
      </trkpt>
      <trkpt lat="47.28961" lon="-2.03237">
        <ele>55</ele>
        <time>2021-09-04T09:46:39.000Z</time>
      </trkpt>
      <trkpt lat="47.28962" lon="-2.03218">
        <ele>55</ele>
        <time>2021-09-04T09:46:41.000Z</time>
      </trkpt>
      <trkpt lat="47.28965" lon="-2.03199">
        <ele>55</ele>
        <time>2021-09-04T09:46:43.000Z</time>
      </trkpt>
      <trkpt lat="47.28967" lon="-2.03179">
        <ele>55</ele>
        <time>2021-09-04T09:46:45.000Z</time>
      </trkpt>
      <trkpt lat="47.28968" lon="-2.03161">
        <ele>55</ele>
        <time>2021-09-04T09:46:47.000Z</time>
      </trkpt>
      <trkpt lat="47.2897" lon="-2.03142">
        <ele>55</ele>
        <time>2021-09-04T09:46:49.000Z</time>
      </trkpt>
      <trkpt lat="47.28971" lon="-2.03125">
        <ele>55</ele>
        <time>2021-09-04T09:46:51.000Z</time>
      </trkpt>
      <trkpt lat="47.28971" lon="-2.03109">
        <ele>55</ele>
        <time>2021-09-04T09:46:53.000Z</time>
      </trkpt>
      <trkpt lat="47.28971" lon="-2.03094">
        <ele>55</ele>
        <time>2021-09-04T09:46:55.000Z</time>
      </trkpt>
      <trkpt lat="47.28972" lon="-2.03075">
        <ele>55</ele>
        <time>2021-09-04T09:46:58.000Z</time>
      </trkpt>
      <trkpt lat="47.28972" lon="-2.03059">
        <ele>54</ele>
        <time>2021-09-04T09:47:01.000Z</time>
      </trkpt>
      <trkpt lat="47.28972" lon="-2.03042">
        <ele>54</ele>
        <time>2021-09-04T09:47:05.000Z</time>
      </trkpt>
      <trkpt lat="47.28972" lon="-2.03025">
        <ele>54</ele>
        <time>2021-09-04T09:47:09.000Z</time>
      </trkpt>
      <trkpt lat="47.28968" lon="-2.03007">
        <ele>54</ele>
        <time>2021-09-04T09:47:11.000Z</time>
      </trkpt>
      <trkpt lat="47.28964" lon="-2.02995">
        <ele>54</ele>
        <time>2021-09-04T09:47:12.000Z</time>
      </trkpt>
      <trkpt lat="47.2896" lon="-2.02984">
        <ele>55</ele>
        <time>2021-09-04T09:47:13.000Z</time>
      </trkpt>
      <trkpt lat="47.28951" lon="-2.02964">
        <ele>55</ele>
        <time>2021-09-04T09:47:15.000Z</time>
      </trkpt>
      <trkpt lat="47.28944" lon="-2.02946">
        <ele>55</ele>
        <time>2021-09-04T09:47:17.000Z</time>
      </trkpt>
      <trkpt lat="47.28937" lon="-2.02929">
        <ele>56</ele>
        <time>2021-09-04T09:47:19.000Z</time>
      </trkpt>
      <trkpt lat="47.28929" lon="-2.02914">
        <ele>55</ele>
        <time>2021-09-04T09:47:21.000Z</time>
      </trkpt>
      <trkpt lat="47.28921" lon="-2.02904">
        <ele>56</ele>
        <time>2021-09-04T09:47:23.000Z</time>
      </trkpt>
      <trkpt lat="47.28916" lon="-2.02891">
        <ele>55</ele>
        <time>2021-09-04T09:47:26.000Z</time>
      </trkpt>
      <trkpt lat="47.28911" lon="-2.02876">
        <ele>56</ele>
        <time>2021-09-04T09:47:29.000Z</time>
      </trkpt>
      <trkpt lat="47.28906" lon="-2.02861">
        <ele>56</ele>
        <time>2021-09-04T09:47:32.000Z</time>
      </trkpt>
      <trkpt lat="47.28901" lon="-2.02845">
        <ele>57</ele>
        <time>2021-09-04T09:47:35.000Z</time>
      </trkpt>
      <trkpt lat="47.28897" lon="-2.02833">
        <ele>57</ele>
        <time>2021-09-04T09:47:37.000Z</time>
      </trkpt>
      <trkpt lat="47.28893" lon="-2.0282">
        <ele>57</ele>
        <time>2021-09-04T09:47:39.000Z</time>
      </trkpt>
      <trkpt lat="47.28888" lon="-2.02807">
        <ele>57</ele>
        <time>2021-09-04T09:47:41.000Z</time>
      </trkpt>
      <trkpt lat="47.28885" lon="-2.02792">
        <ele>57</ele>
        <time>2021-09-04T09:47:43.000Z</time>
      </trkpt>
      <trkpt lat="47.28882" lon="-2.02778">
        <ele>56</ele>
        <time>2021-09-04T09:47:45.000Z</time>
      </trkpt>
      <trkpt lat="47.2888" lon="-2.02764">
        <ele>56</ele>
        <time>2021-09-04T09:47:47.000Z</time>
      </trkpt>
      <trkpt lat="47.28879" lon="-2.02748">
        <ele>56</ele>
        <time>2021-09-04T09:47:51.000Z</time>
      </trkpt>
      <trkpt lat="47.28872" lon="-2.0273">
        <ele>56</ele>
        <time>2021-09-04T09:47:54.000Z</time>
      </trkpt>
      <trkpt lat="47.28866" lon="-2.02712">
        <ele>55</ele>
        <time>2021-09-04T09:47:56.000Z</time>
      </trkpt>
      <trkpt lat="47.28861" lon="-2.02692">
        <ele>54</ele>
        <time>2021-09-04T09:47:58.000Z</time>
      </trkpt>
      <trkpt lat="47.28857" lon="-2.02672">
        <ele>54</ele>
        <time>2021-09-04T09:48:00.000Z</time>
      </trkpt>
      <trkpt lat="47.28853" lon="-2.02652">
        <ele>54</ele>
        <time>2021-09-04T09:48:02.000Z</time>
      </trkpt>
      <trkpt lat="47.28849" lon="-2.02633">
        <ele>54</ele>
        <time>2021-09-04T09:48:04.000Z</time>
      </trkpt>
      <trkpt lat="47.28847" lon="-2.02613">
        <ele>54</ele>
        <time>2021-09-04T09:48:06.000Z</time>
      </trkpt>
      <trkpt lat="47.28844" lon="-2.02594">
        <ele>55</ele>
        <time>2021-09-04T09:48:08.000Z</time>
      </trkpt>
      <trkpt lat="47.28843" lon="-2.02573">
        <ele>55</ele>
        <time>2021-09-04T09:48:10.000Z</time>
      </trkpt>
      <trkpt lat="47.28842" lon="-2.02551">
        <ele>55</ele>
        <time>2021-09-04T09:48:12.000Z</time>
      </trkpt>
      <trkpt lat="47.28842" lon="-2.0253">
        <ele>56</ele>
        <time>2021-09-04T09:48:14.000Z</time>
      </trkpt>
      <trkpt lat="47.28842" lon="-2.02509">
        <ele>56</ele>
        <time>2021-09-04T09:48:16.000Z</time>
      </trkpt>
      <trkpt lat="47.28842" lon="-2.0249">
        <ele>56</ele>
        <time>2021-09-04T09:48:18.000Z</time>
      </trkpt>
      <trkpt lat="47.28841" lon="-2.0247">
        <ele>56</ele>
        <time>2021-09-04T09:48:20.000Z</time>
      </trkpt>
      <trkpt lat="47.2884" lon="-2.0245">
        <ele>56</ele>
        <time>2021-09-04T09:48:22.000Z</time>
      </trkpt>
      <trkpt lat="47.28839" lon="-2.0243">
        <ele>57</ele>
        <time>2021-09-04T09:48:24.000Z</time>
      </trkpt>
      <trkpt lat="47.28838" lon="-2.02411">
        <ele>57</ele>
        <time>2021-09-04T09:48:26.000Z</time>
      </trkpt>
      <trkpt lat="47.28837" lon="-2.02392">
        <ele>56</ele>
        <time>2021-09-04T09:48:28.000Z</time>
      </trkpt>
      <trkpt lat="47.28836" lon="-2.02373">
        <ele>56</ele>
        <time>2021-09-04T09:48:30.000Z</time>
      </trkpt>
      <trkpt lat="47.28835" lon="-2.02354">
        <ele>56</ele>
        <time>2021-09-04T09:48:32.000Z</time>
      </trkpt>
      <trkpt lat="47.28834" lon="-2.02334">
        <ele>57</ele>
        <time>2021-09-04T09:48:34.000Z</time>
      </trkpt>
      <trkpt lat="47.28833" lon="-2.02314">
        <ele>57</ele>
        <time>2021-09-04T09:48:36.000Z</time>
      </trkpt>
      <trkpt lat="47.28831" lon="-2.02296">
        <ele>57</ele>
        <time>2021-09-04T09:48:38.000Z</time>
      </trkpt>
      <trkpt lat="47.28827" lon="-2.02277">
        <ele>57</ele>
        <time>2021-09-04T09:48:40.000Z</time>
      </trkpt>
      <trkpt lat="47.28823" lon="-2.02259">
        <ele>57</ele>
        <time>2021-09-04T09:48:42.000Z</time>
      </trkpt>
      <trkpt lat="47.28818" lon="-2.0224">
        <ele>56</ele>
        <time>2021-09-04T09:48:44.000Z</time>
      </trkpt>
      <trkpt lat="47.28813" lon="-2.02221">
        <ele>55</ele>
        <time>2021-09-04T09:48:46.000Z</time>
      </trkpt>
      <trkpt lat="47.28808" lon="-2.02202">
        <ele>55</ele>
        <time>2021-09-04T09:48:48.000Z</time>
      </trkpt>
      <trkpt lat="47.28804" lon="-2.02183">
        <ele>55</ele>
        <time>2021-09-04T09:48:50.000Z</time>
      </trkpt>
      <trkpt lat="47.28799" lon="-2.02164">
        <ele>55</ele>
        <time>2021-09-04T09:48:52.000Z</time>
      </trkpt>
      <trkpt lat="47.28794" lon="-2.02146">
        <ele>55</ele>
        <time>2021-09-04T09:48:54.000Z</time>
      </trkpt>
      <trkpt lat="47.28787" lon="-2.02129">
        <ele>56</ele>
        <time>2021-09-04T09:48:56.000Z</time>
      </trkpt>
      <trkpt lat="47.28777" lon="-2.02115">
        <ele>56</ele>
        <time>2021-09-04T09:48:58.000Z</time>
      </trkpt>
      <trkpt lat="47.28765" lon="-2.02102">
        <ele>57</ele>
        <time>2021-09-04T09:49:00.000Z</time>
      </trkpt>
      <trkpt lat="47.28755" lon="-2.02088">
        <ele>57</ele>
        <time>2021-09-04T09:49:02.000Z</time>
      </trkpt>
      <trkpt lat="47.28746" lon="-2.02071">
        <ele>58</ele>
        <time>2021-09-04T09:49:04.000Z</time>
      </trkpt>
      <trkpt lat="47.28739" lon="-2.02054">
        <ele>58</ele>
        <time>2021-09-04T09:49:06.000Z</time>
      </trkpt>
      <trkpt lat="47.28733" lon="-2.02036">
        <ele>58</ele>
        <time>2021-09-04T09:49:08.000Z</time>
      </trkpt>
      <trkpt lat="47.28726" lon="-2.02019">
        <ele>58</ele>
        <time>2021-09-04T09:49:10.000Z</time>
      </trkpt>
      <trkpt lat="47.2872" lon="-2.01999">
        <ele>58</ele>
        <time>2021-09-04T09:49:12.000Z</time>
      </trkpt>
      <trkpt lat="47.28715" lon="-2.01979">
        <ele>58</ele>
        <time>2021-09-04T09:49:14.000Z</time>
      </trkpt>
      <trkpt lat="47.28711" lon="-2.01959">
        <ele>57</ele>
        <time>2021-09-04T09:49:16.000Z</time>
      </trkpt>
      <trkpt lat="47.28705" lon="-2.01939">
        <ele>57</ele>
        <time>2021-09-04T09:49:18.000Z</time>
      </trkpt>
      <trkpt lat="47.28699" lon="-2.01919">
        <ele>57</ele>
        <time>2021-09-04T09:49:20.000Z</time>
      </trkpt>
      <trkpt lat="47.28691" lon="-2.01901">
        <ele>56</ele>
        <time>2021-09-04T09:49:22.000Z</time>
      </trkpt>
      <trkpt lat="47.28682" lon="-2.01884">
        <ele>56</ele>
        <time>2021-09-04T09:49:24.000Z</time>
      </trkpt>
      <trkpt lat="47.28673" lon="-2.01868">
        <ele>56</ele>
        <time>2021-09-04T09:49:26.000Z</time>
      </trkpt>
      <trkpt lat="47.28664" lon="-2.01852">
        <ele>56</ele>
        <time>2021-09-04T09:49:28.000Z</time>
      </trkpt>
      <trkpt lat="47.28656" lon="-2.01835">
        <ele>57</ele>
        <time>2021-09-04T09:49:30.000Z</time>
      </trkpt>
      <trkpt lat="47.28646" lon="-2.01819">
        <ele>56</ele>
        <time>2021-09-04T09:49:32.000Z</time>
      </trkpt>
      <trkpt lat="47.28636" lon="-2.01804">
        <ele>57</ele>
        <time>2021-09-04T09:49:34.000Z</time>
      </trkpt>
      <trkpt lat="47.28627" lon="-2.01787">
        <ele>56</ele>
        <time>2021-09-04T09:49:36.000Z</time>
      </trkpt>
      <trkpt lat="47.28618" lon="-2.01771">
        <ele>56</ele>
        <time>2021-09-04T09:49:38.000Z</time>
      </trkpt>
      <trkpt lat="47.28609" lon="-2.01754">
        <ele>56</ele>
        <time>2021-09-04T09:49:40.000Z</time>
      </trkpt>
      <trkpt lat="47.286" lon="-2.01737">
        <ele>56</ele>
        <time>2021-09-04T09:49:42.000Z</time>
      </trkpt>
      <trkpt lat="47.2859" lon="-2.01721">
        <ele>56</ele>
        <time>2021-09-04T09:49:44.000Z</time>
      </trkpt>
      <trkpt lat="47.2858" lon="-2.01707">
        <ele>55</ele>
        <time>2021-09-04T09:49:46.000Z</time>
      </trkpt>
      <trkpt lat="47.28569" lon="-2.01696">
        <ele>56</ele>
        <time>2021-09-04T09:49:48.000Z</time>
      </trkpt>
      <trkpt lat="47.28558" lon="-2.01686">
        <ele>56</ele>
        <time>2021-09-04T09:49:50.000Z</time>
      </trkpt>
      <trkpt lat="47.28545" lon="-2.0168">
        <ele>57</ele>
        <time>2021-09-04T09:49:52.000Z</time>
      </trkpt>
      <trkpt lat="47.28531" lon="-2.01673">
        <ele>60</ele>
        <time>2021-09-04T09:49:54.000Z</time>
      </trkpt>
      <trkpt lat="47.28516" lon="-2.01668">
        <ele>63</ele>
        <time>2021-09-04T09:49:56.000Z</time>
      </trkpt>
      <trkpt lat="47.28503" lon="-2.01664">
        <ele>64</ele>
        <time>2021-09-04T09:49:58.000Z</time>
      </trkpt>
      <trkpt lat="47.28484" lon="-2.01659">
        <ele>63</ele>
        <time>2021-09-04T09:50:01.000Z</time>
      </trkpt>
      <trkpt lat="47.28471" lon="-2.01656">
        <ele>62</ele>
        <time>2021-09-04T09:50:03.000Z</time>
      </trkpt>
      <trkpt lat="47.28459" lon="-2.01651">
        <ele>62</ele>
        <time>2021-09-04T09:50:05.000Z</time>
      </trkpt>
      <trkpt lat="47.28439" lon="-2.01645">
        <ele>61</ele>
        <time>2021-09-04T09:50:08.000Z</time>
      </trkpt>
      <trkpt lat="47.28425" lon="-2.01641">
        <ele>60</ele>
        <time>2021-09-04T09:50:10.000Z</time>
      </trkpt>
      <trkpt lat="47.28405" lon="-2.01635">
        <ele>59</ele>
        <time>2021-09-04T09:50:13.000Z</time>
      </trkpt>
      <trkpt lat="47.28392" lon="-2.01631">
        <ele>59</ele>
        <time>2021-09-04T09:50:15.000Z</time>
      </trkpt>
      <trkpt lat="47.28378" lon="-2.01628">
        <ele>58</ele>
        <time>2021-09-04T09:50:17.000Z</time>
      </trkpt>
      <trkpt lat="47.28364" lon="-2.01625">
        <ele>58</ele>
        <time>2021-09-04T09:50:19.000Z</time>
      </trkpt>
      <trkpt lat="47.28352" lon="-2.01624">
        <ele>57</ele>
        <time>2021-09-04T09:50:21.000Z</time>
      </trkpt>
      <trkpt lat="47.28339" lon="-2.01625">
        <ele>57</ele>
        <time>2021-09-04T09:50:23.000Z</time>
      </trkpt>
      <trkpt lat="47.28321" lon="-2.01617">
        <ele>57</ele>
        <time>2021-09-04T09:50:26.000Z</time>
      </trkpt>
      <trkpt lat="47.28309" lon="-2.01608">
        <ele>57</ele>
        <time>2021-09-04T09:50:28.000Z</time>
      </trkpt>
      <trkpt lat="47.28295" lon="-2.01602">
        <ele>57</ele>
        <time>2021-09-04T09:50:30.000Z</time>
      </trkpt>
      <trkpt lat="47.28281" lon="-2.01598">
        <ele>57</ele>
        <time>2021-09-04T09:50:32.000Z</time>
      </trkpt>
      <trkpt lat="47.28268" lon="-2.01594">
        <ele>56</ele>
        <time>2021-09-04T09:50:34.000Z</time>
      </trkpt>
      <trkpt lat="47.28254" lon="-2.0159">
        <ele>56</ele>
        <time>2021-09-04T09:50:36.000Z</time>
      </trkpt>
      <trkpt lat="47.28241" lon="-2.01586">
        <ele>56</ele>
        <time>2021-09-04T09:50:38.000Z</time>
      </trkpt>
      <trkpt lat="47.28227" lon="-2.01583">
        <ele>56</ele>
        <time>2021-09-04T09:50:40.000Z</time>
      </trkpt>
      <trkpt lat="47.28212" lon="-2.01578">
        <ele>56</ele>
        <time>2021-09-04T09:50:42.000Z</time>
      </trkpt>
      <trkpt lat="47.28199" lon="-2.01574">
        <ele>55</ele>
        <time>2021-09-04T09:50:44.000Z</time>
      </trkpt>
      <trkpt lat="47.28185" lon="-2.01569">
        <ele>55</ele>
        <time>2021-09-04T09:50:46.000Z</time>
      </trkpt>
      <trkpt lat="47.28171" lon="-2.01565">
        <ele>55</ele>
        <time>2021-09-04T09:50:48.000Z</time>
      </trkpt>
      <trkpt lat="47.28158" lon="-2.01561">
        <ele>55</ele>
        <time>2021-09-04T09:50:50.000Z</time>
      </trkpt>
      <trkpt lat="47.28145" lon="-2.01557">
        <ele>54</ele>
        <time>2021-09-04T09:50:52.000Z</time>
      </trkpt>
      <trkpt lat="47.28132" lon="-2.01553">
        <ele>54</ele>
        <time>2021-09-04T09:50:54.000Z</time>
      </trkpt>
      <trkpt lat="47.28119" lon="-2.01548">
        <ele>54</ele>
        <time>2021-09-04T09:50:56.000Z</time>
      </trkpt>
      <trkpt lat="47.28106" lon="-2.01542">
        <ele>54</ele>
        <time>2021-09-04T09:50:58.000Z</time>
      </trkpt>
      <trkpt lat="47.28094" lon="-2.01533">
        <ele>54</ele>
        <time>2021-09-04T09:51:00.000Z</time>
      </trkpt>
      <trkpt lat="47.28081" lon="-2.01527">
        <ele>54</ele>
        <time>2021-09-04T09:51:02.000Z</time>
      </trkpt>
      <trkpt lat="47.2807" lon="-2.01522">
        <ele>54</ele>
        <time>2021-09-04T09:51:04.000Z</time>
      </trkpt>
      <trkpt lat="47.28056" lon="-2.01519">
        <ele>54</ele>
        <time>2021-09-04T09:51:07.000Z</time>
      </trkpt>
      <trkpt lat="47.28045" lon="-2.01516">
        <ele>54</ele>
        <time>2021-09-04T09:51:09.000Z</time>
      </trkpt>
      <trkpt lat="47.28032" lon="-2.01511">
        <ele>54</ele>
        <time>2021-09-04T09:51:11.000Z</time>
      </trkpt>
      <trkpt lat="47.28019" lon="-2.01508">
        <ele>55</ele>
        <time>2021-09-04T09:51:13.000Z</time>
      </trkpt>
      <trkpt lat="47.28005" lon="-2.01504">
        <ele>55</ele>
        <time>2021-09-04T09:51:15.000Z</time>
      </trkpt>
      <trkpt lat="47.27991" lon="-2.015">
        <ele>55</ele>
        <time>2021-09-04T09:51:17.000Z</time>
      </trkpt>
      <trkpt lat="47.27979" lon="-2.01496">
        <ele>55</ele>
        <time>2021-09-04T09:51:19.000Z</time>
      </trkpt>
      <trkpt lat="47.27966" lon="-2.01492">
        <ele>55</ele>
        <time>2021-09-04T09:51:21.000Z</time>
      </trkpt>
      <trkpt lat="47.27955" lon="-2.01489">
        <ele>55</ele>
        <time>2021-09-04T09:51:23.000Z</time>
      </trkpt>
      <trkpt lat="47.27945" lon="-2.01485">
        <ele>55</ele>
        <time>2021-09-04T09:51:25.000Z</time>
      </trkpt>
      <trkpt lat="47.27936" lon="-2.01477">
        <ele>54</ele>
        <time>2021-09-04T09:51:27.000Z</time>
      </trkpt>
      <trkpt lat="47.27934" lon="-2.01459">
        <ele>54</ele>
        <time>2021-09-04T09:51:29.000Z</time>
      </trkpt>
      <trkpt lat="47.27932" lon="-2.01441">
        <ele>54</ele>
        <time>2021-09-04T09:51:31.000Z</time>
      </trkpt>
      <trkpt lat="47.27931" lon="-2.01421">
        <ele>54</ele>
        <time>2021-09-04T09:51:33.000Z</time>
      </trkpt>
      <trkpt lat="47.27928" lon="-2.01401">
        <ele>53</ele>
        <time>2021-09-04T09:51:35.000Z</time>
      </trkpt>
      <trkpt lat="47.27925" lon="-2.01382">
        <ele>53</ele>
        <time>2021-09-04T09:51:37.000Z</time>
      </trkpt>
      <trkpt lat="47.27921" lon="-2.01363">
        <ele>53</ele>
        <time>2021-09-04T09:51:39.000Z</time>
      </trkpt>
      <trkpt lat="47.27916" lon="-2.01345">
        <ele>53</ele>
        <time>2021-09-04T09:51:41.000Z</time>
      </trkpt>
      <trkpt lat="47.27911" lon="-2.01326">
        <ele>53</ele>
        <time>2021-09-04T09:51:43.000Z</time>
      </trkpt>
      <trkpt lat="47.27906" lon="-2.01309">
        <ele>54</ele>
        <time>2021-09-04T09:51:45.000Z</time>
      </trkpt>
      <trkpt lat="47.279" lon="-2.01291">
        <ele>54</ele>
        <time>2021-09-04T09:51:47.000Z</time>
      </trkpt>
      <trkpt lat="47.27894" lon="-2.01273">
        <ele>54</ele>
        <time>2021-09-04T09:51:49.000Z</time>
      </trkpt>
      <trkpt lat="47.27888" lon="-2.01256">
        <ele>54</ele>
        <time>2021-09-04T09:51:51.000Z</time>
      </trkpt>
      <trkpt lat="47.27882" lon="-2.01239">
        <ele>54</ele>
        <time>2021-09-04T09:51:53.000Z</time>
      </trkpt>
      <trkpt lat="47.27876" lon="-2.01221">
        <ele>54</ele>
        <time>2021-09-04T09:51:55.000Z</time>
      </trkpt>
      <trkpt lat="47.27869" lon="-2.01205">
        <ele>55</ele>
        <time>2021-09-04T09:51:57.000Z</time>
      </trkpt>
      <trkpt lat="47.27862" lon="-2.01189">
        <ele>55</ele>
        <time>2021-09-04T09:51:59.000Z</time>
      </trkpt>
      <trkpt lat="47.27854" lon="-2.01174">
        <ele>55</ele>
        <time>2021-09-04T09:52:01.000Z</time>
      </trkpt>
      <trkpt lat="47.27847" lon="-2.01159">
        <ele>56</ele>
        <time>2021-09-04T09:52:03.000Z</time>
      </trkpt>
      <trkpt lat="47.2784" lon="-2.01144">
        <ele>56</ele>
        <time>2021-09-04T09:52:05.000Z</time>
      </trkpt>
      <trkpt lat="47.27832" lon="-2.01129">
        <ele>57</ele>
        <time>2021-09-04T09:52:07.000Z</time>
      </trkpt>
      <trkpt lat="47.27825" lon="-2.01114">
        <ele>57</ele>
        <time>2021-09-04T09:52:09.000Z</time>
      </trkpt>
      <trkpt lat="47.27818" lon="-2.01099">
        <ele>57</ele>
        <time>2021-09-04T09:52:11.000Z</time>
      </trkpt>
      <trkpt lat="47.27811" lon="-2.01084">
        <ele>57</ele>
        <time>2021-09-04T09:52:13.000Z</time>
      </trkpt>
      <trkpt lat="47.27804" lon="-2.01069">
        <ele>58</ele>
        <time>2021-09-04T09:52:15.000Z</time>
      </trkpt>
      <trkpt lat="47.27796" lon="-2.01054">
        <ele>58</ele>
        <time>2021-09-04T09:52:17.000Z</time>
      </trkpt>
      <trkpt lat="47.27789" lon="-2.01039">
        <ele>58</ele>
        <time>2021-09-04T09:52:19.000Z</time>
      </trkpt>
      <trkpt lat="47.27782" lon="-2.01025">
        <ele>59</ele>
        <time>2021-09-04T09:52:21.000Z</time>
      </trkpt>
      <trkpt lat="47.27775" lon="-2.01011">
        <ele>59</ele>
        <time>2021-09-04T09:52:23.000Z</time>
      </trkpt>
      <trkpt lat="47.27769" lon="-2.00996">
        <ele>59</ele>
        <time>2021-09-04T09:52:25.000Z</time>
      </trkpt>
      <trkpt lat="47.27762" lon="-2.00981">
        <ele>59</ele>
        <time>2021-09-04T09:52:27.000Z</time>
      </trkpt>
      <trkpt lat="47.27755" lon="-2.00968">
        <ele>59</ele>
        <time>2021-09-04T09:52:29.000Z</time>
      </trkpt>
      <trkpt lat="47.27755" lon="-2.00951">
        <ele>58</ele>
        <time>2021-09-04T09:52:31.000Z</time>
      </trkpt>
      <trkpt lat="47.27763" lon="-2.00934">
        <ele>58</ele>
        <time>2021-09-04T09:52:33.000Z</time>
      </trkpt>
      <trkpt lat="47.27771" lon="-2.00919">
        <ele>58</ele>
        <time>2021-09-04T09:52:35.000Z</time>
      </trkpt>
      <trkpt lat="47.27779" lon="-2.00904">
        <ele>57</ele>
        <time>2021-09-04T09:52:37.000Z</time>
      </trkpt>
      <trkpt lat="47.27788" lon="-2.00889">
        <ele>57</ele>
        <time>2021-09-04T09:52:39.000Z</time>
      </trkpt>
      <trkpt lat="47.27796" lon="-2.00874">
        <ele>56</ele>
        <time>2021-09-04T09:52:41.000Z</time>
      </trkpt>
      <trkpt lat="47.27804" lon="-2.00858">
        <ele>56</ele>
        <time>2021-09-04T09:52:43.000Z</time>
      </trkpt>
      <trkpt lat="47.27813" lon="-2.00843">
        <ele>56</ele>
        <time>2021-09-04T09:52:45.000Z</time>
      </trkpt>
      <trkpt lat="47.27822" lon="-2.00828">
        <ele>55</ele>
        <time>2021-09-04T09:52:47.000Z</time>
      </trkpt>
      <trkpt lat="47.27832" lon="-2.00815">
        <ele>55</ele>
        <time>2021-09-04T09:52:49.000Z</time>
      </trkpt>
      <trkpt lat="47.27843" lon="-2.00803">
        <ele>55</ele>
        <time>2021-09-04T09:52:51.000Z</time>
      </trkpt>
      <trkpt lat="47.27854" lon="-2.00791">
        <ele>55</ele>
        <time>2021-09-04T09:52:53.000Z</time>
      </trkpt>
      <trkpt lat="47.27865" lon="-2.00779">
        <ele>54</ele>
        <time>2021-09-04T09:52:55.000Z</time>
      </trkpt>
      <trkpt lat="47.27877" lon="-2.00767">
        <ele>54</ele>
        <time>2021-09-04T09:52:57.000Z</time>
      </trkpt>
      <trkpt lat="47.27888" lon="-2.00754">
        <ele>54</ele>
        <time>2021-09-04T09:52:59.000Z</time>
      </trkpt>
      <trkpt lat="47.27899" lon="-2.00742">
        <ele>54</ele>
        <time>2021-09-04T09:53:01.000Z</time>
      </trkpt>
      <trkpt lat="47.27911" lon="-2.0073">
        <ele>53</ele>
        <time>2021-09-04T09:53:03.000Z</time>
      </trkpt>
      <trkpt lat="47.27922" lon="-2.00719">
        <ele>53</ele>
        <time>2021-09-04T09:53:05.000Z</time>
      </trkpt>
      <trkpt lat="47.27933" lon="-2.00707">
        <ele>53</ele>
        <time>2021-09-04T09:53:07.000Z</time>
      </trkpt>
      <trkpt lat="47.27943" lon="-2.00696">
        <ele>53</ele>
        <time>2021-09-04T09:53:09.000Z</time>
      </trkpt>
      <trkpt lat="47.27953" lon="-2.00683">
        <ele>52</ele>
        <time>2021-09-04T09:53:11.000Z</time>
      </trkpt>
      <trkpt lat="47.27953" lon="-2.00665">
        <ele>52</ele>
        <time>2021-09-04T09:53:13.000Z</time>
      </trkpt>
      <trkpt lat="47.27949" lon="-2.00645">
        <ele>53</ele>
        <time>2021-09-04T09:53:15.000Z</time>
      </trkpt>
      <trkpt lat="47.27944" lon="-2.00625">
        <ele>53</ele>
        <time>2021-09-04T09:53:17.000Z</time>
      </trkpt>
      <trkpt lat="47.27938" lon="-2.00606">
        <ele>53</ele>
        <time>2021-09-04T09:53:19.000Z</time>
      </trkpt>
      <trkpt lat="47.27928" lon="-2.00591">
        <ele>53</ele>
        <time>2021-09-04T09:53:21.000Z</time>
      </trkpt>
      <trkpt lat="47.27916" lon="-2.00581">
        <ele>53</ele>
        <time>2021-09-04T09:53:23.000Z</time>
      </trkpt>
      <trkpt lat="47.27903" lon="-2.00571">
        <ele>54</ele>
        <time>2021-09-04T09:53:25.000Z</time>
      </trkpt>
      <trkpt lat="47.27891" lon="-2.0056">
        <ele>54</ele>
        <time>2021-09-04T09:53:27.000Z</time>
      </trkpt>
      <trkpt lat="47.27879" lon="-2.0055">
        <ele>54</ele>
        <time>2021-09-04T09:53:29.000Z</time>
      </trkpt>
      <trkpt lat="47.27867" lon="-2.00539">
        <ele>54</ele>
        <time>2021-09-04T09:53:31.000Z</time>
      </trkpt>
      <trkpt lat="47.27856" lon="-2.00527">
        <ele>55</ele>
        <time>2021-09-04T09:53:33.000Z</time>
      </trkpt>
      <trkpt lat="47.27844" lon="-2.00515">
        <ele>54</ele>
        <time>2021-09-04T09:53:35.000Z</time>
      </trkpt>
      <trkpt lat="47.27833" lon="-2.00503">
        <ele>54</ele>
        <time>2021-09-04T09:53:37.000Z</time>
      </trkpt>
      <trkpt lat="47.27821" lon="-2.0049">
        <ele>54</ele>
        <time>2021-09-04T09:53:39.000Z</time>
      </trkpt>
      <trkpt lat="47.27809" lon="-2.00479">
        <ele>54</ele>
        <time>2021-09-04T09:53:41.000Z</time>
      </trkpt>
      <trkpt lat="47.27796" lon="-2.00469">
        <ele>54</ele>
        <time>2021-09-04T09:53:43.000Z</time>
      </trkpt>
      <trkpt lat="47.27783" lon="-2.00461">
        <ele>53</ele>
        <time>2021-09-04T09:53:45.000Z</time>
      </trkpt>
      <trkpt lat="47.27769" lon="-2.00453">
        <ele>53</ele>
        <time>2021-09-04T09:53:47.000Z</time>
      </trkpt>
      <trkpt lat="47.27756" lon="-2.00449">
        <ele>53</ele>
        <time>2021-09-04T09:53:49.000Z</time>
      </trkpt>
      <trkpt lat="47.27742" lon="-2.00446">
        <ele>53</ele>
        <time>2021-09-04T09:53:51.000Z</time>
      </trkpt>
      <trkpt lat="47.27729" lon="-2.00445">
        <ele>53</ele>
        <time>2021-09-04T09:53:53.000Z</time>
      </trkpt>
      <trkpt lat="47.27716" lon="-2.00444">
        <ele>53</ele>
        <time>2021-09-04T09:53:55.000Z</time>
      </trkpt>
      <trkpt lat="47.27702" lon="-2.00444">
        <ele>53</ele>
        <time>2021-09-04T09:53:57.000Z</time>
      </trkpt>
      <trkpt lat="47.27689" lon="-2.00444">
        <ele>54</ele>
        <time>2021-09-04T09:53:59.000Z</time>
      </trkpt>
      <trkpt lat="47.27678" lon="-2.00435">
        <ele>55</ele>
        <time>2021-09-04T09:54:01.000Z</time>
      </trkpt>
      <trkpt lat="47.27673" lon="-2.00416">
        <ele>55</ele>
        <time>2021-09-04T09:54:03.000Z</time>
      </trkpt>
      <trkpt lat="47.27671" lon="-2.00397">
        <ele>54</ele>
        <time>2021-09-04T09:54:05.000Z</time>
      </trkpt>
      <trkpt lat="47.27671" lon="-2.00377">
        <ele>54</ele>
        <time>2021-09-04T09:54:07.000Z</time>
      </trkpt>
      <trkpt lat="47.27672" lon="-2.00357">
        <ele>54</ele>
        <time>2021-09-04T09:54:09.000Z</time>
      </trkpt>
      <trkpt lat="47.27673" lon="-2.00338">
        <ele>54</ele>
        <time>2021-09-04T09:54:11.000Z</time>
      </trkpt>
      <trkpt lat="47.27675" lon="-2.00318">
        <ele>54</ele>
        <time>2021-09-04T09:54:13.000Z</time>
      </trkpt>
      <trkpt lat="47.27677" lon="-2.00298">
        <ele>54</ele>
        <time>2021-09-04T09:54:15.000Z</time>
      </trkpt>
      <trkpt lat="47.27677" lon="-2.0028">
        <ele>54</ele>
        <time>2021-09-04T09:54:17.000Z</time>
      </trkpt>
      <trkpt lat="47.27678" lon="-2.0026">
        <ele>53</ele>
        <time>2021-09-04T09:54:19.000Z</time>
      </trkpt>
      <trkpt lat="47.2768" lon="-2.0024">
        <ele>54</ele>
        <time>2021-09-04T09:54:21.000Z</time>
      </trkpt>
      <trkpt lat="47.27679" lon="-2.0022">
        <ele>54</ele>
        <time>2021-09-04T09:54:23.000Z</time>
      </trkpt>
      <trkpt lat="47.27676" lon="-2.00201">
        <ele>54</ele>
        <time>2021-09-04T09:54:25.000Z</time>
      </trkpt>
      <trkpt lat="47.27671" lon="-2.00183">
        <ele>54</ele>
        <time>2021-09-04T09:54:27.000Z</time>
      </trkpt>
      <trkpt lat="47.27665" lon="-2.00165">
        <ele>54</ele>
        <time>2021-09-04T09:54:29.000Z</time>
      </trkpt>
      <trkpt lat="47.2766" lon="-2.00146">
        <ele>54</ele>
        <time>2021-09-04T09:54:31.000Z</time>
      </trkpt>
      <trkpt lat="47.27655" lon="-2.00129">
        <ele>54</ele>
        <time>2021-09-04T09:54:33.000Z</time>
      </trkpt>
      <trkpt lat="47.2765" lon="-2.0011">
        <ele>54</ele>
        <time>2021-09-04T09:54:35.000Z</time>
      </trkpt>
      <trkpt lat="47.27645" lon="-2.00092">
        <ele>54</ele>
        <time>2021-09-04T09:54:37.000Z</time>
      </trkpt>
      <trkpt lat="47.27639" lon="-2.00074">
        <ele>54</ele>
        <time>2021-09-04T09:54:39.000Z</time>
      </trkpt>
      <trkpt lat="47.2763" lon="-2.00058">
        <ele>54</ele>
        <time>2021-09-04T09:54:41.000Z</time>
      </trkpt>
      <trkpt lat="47.27621" lon="-2.00043">
        <ele>55</ele>
        <time>2021-09-04T09:54:43.000Z</time>
      </trkpt>
      <trkpt lat="47.27612" lon="-2.00029">
        <ele>55</ele>
        <time>2021-09-04T09:54:45.000Z</time>
      </trkpt>
      <trkpt lat="47.27603" lon="-2.00014">
        <ele>55</ele>
        <time>2021-09-04T09:54:47.000Z</time>
      </trkpt>
      <trkpt lat="47.27595" lon="-1.99998">
        <ele>55</ele>
        <time>2021-09-04T09:54:49.000Z</time>
      </trkpt>
      <trkpt lat="47.27586" lon="-1.99982">
        <ele>55</ele>
        <time>2021-09-04T09:54:51.000Z</time>
      </trkpt>
      <trkpt lat="47.27579" lon="-1.99964">
        <ele>55</ele>
        <time>2021-09-04T09:54:53.000Z</time>
      </trkpt>
      <trkpt lat="47.27574" lon="-1.99945">
        <ele>55</ele>
        <time>2021-09-04T09:54:55.000Z</time>
      </trkpt>
      <trkpt lat="47.2757" lon="-1.99925">
        <ele>55</ele>
        <time>2021-09-04T09:54:57.000Z</time>
      </trkpt>
      <trkpt lat="47.27568" lon="-1.99905">
        <ele>55</ele>
        <time>2021-09-04T09:54:59.000Z</time>
      </trkpt>
      <trkpt lat="47.27568" lon="-1.99885">
        <ele>55</ele>
        <time>2021-09-04T09:55:01.000Z</time>
      </trkpt>
      <trkpt lat="47.27569" lon="-1.99864">
        <ele>55</ele>
        <time>2021-09-04T09:55:03.000Z</time>
      </trkpt>
      <trkpt lat="47.27571" lon="-1.99844">
        <ele>55</ele>
        <time>2021-09-04T09:55:05.000Z</time>
      </trkpt>
      <trkpt lat="47.27573" lon="-1.99825">
        <ele>55</ele>
        <time>2021-09-04T09:55:07.000Z</time>
      </trkpt>
      <trkpt lat="47.27574" lon="-1.99804">
        <ele>55</ele>
        <time>2021-09-04T09:55:09.000Z</time>
      </trkpt>
      <trkpt lat="47.27575" lon="-1.99783">
        <ele>54</ele>
        <time>2021-09-04T09:55:11.000Z</time>
      </trkpt>
      <trkpt lat="47.27574" lon="-1.99762">
        <ele>54</ele>
        <time>2021-09-04T09:55:13.000Z</time>
      </trkpt>
      <trkpt lat="47.27572" lon="-1.99741">
        <ele>53</ele>
        <time>2021-09-04T09:55:15.000Z</time>
      </trkpt>
      <trkpt lat="47.27571" lon="-1.9972">
        <ele>53</ele>
        <time>2021-09-04T09:55:17.000Z</time>
      </trkpt>
      <trkpt lat="47.27569" lon="-1.997">
        <ele>53</ele>
        <time>2021-09-04T09:55:19.000Z</time>
      </trkpt>
      <trkpt lat="47.27568" lon="-1.99679">
        <ele>54</ele>
        <time>2021-09-04T09:55:21.000Z</time>
      </trkpt>
      <trkpt lat="47.27565" lon="-1.99659">
        <ele>54</ele>
        <time>2021-09-04T09:55:23.000Z</time>
      </trkpt>
      <trkpt lat="47.2756" lon="-1.9964">
        <ele>54</ele>
        <time>2021-09-04T09:55:25.000Z</time>
      </trkpt>
      <trkpt lat="47.27555" lon="-1.9962">
        <ele>54</ele>
        <time>2021-09-04T09:55:27.000Z</time>
      </trkpt>
      <trkpt lat="47.2755" lon="-1.996">
        <ele>54</ele>
        <time>2021-09-04T09:55:29.000Z</time>
      </trkpt>
      <trkpt lat="47.27546" lon="-1.99581">
        <ele>53</ele>
        <time>2021-09-04T09:55:31.000Z</time>
      </trkpt>
      <trkpt lat="47.27543" lon="-1.9956">
        <ele>53</ele>
        <time>2021-09-04T09:55:33.000Z</time>
      </trkpt>
      <trkpt lat="47.27539" lon="-1.99541">
        <ele>53</ele>
        <time>2021-09-04T09:55:35.000Z</time>
      </trkpt>
      <trkpt lat="47.27534" lon="-1.99523">
        <ele>53</ele>
        <time>2021-09-04T09:55:37.000Z</time>
      </trkpt>
      <trkpt lat="47.27528" lon="-1.99504">
        <ele>53</ele>
        <time>2021-09-04T09:55:39.000Z</time>
      </trkpt>
      <trkpt lat="47.27522" lon="-1.99486">
        <ele>53</ele>
        <time>2021-09-04T09:55:41.000Z</time>
      </trkpt>
      <trkpt lat="47.27515" lon="-1.99467">
        <ele>53</ele>
        <time>2021-09-04T09:55:43.000Z</time>
      </trkpt>
      <trkpt lat="47.2751" lon="-1.9945">
        <ele>54</ele>
        <time>2021-09-04T09:55:45.000Z</time>
      </trkpt>
      <trkpt lat="47.27504" lon="-1.99431">
        <ele>54</ele>
        <time>2021-09-04T09:55:47.000Z</time>
      </trkpt>
      <trkpt lat="47.27502" lon="-1.99411">
        <ele>54</ele>
        <time>2021-09-04T09:55:49.000Z</time>
      </trkpt>
      <trkpt lat="47.27505" lon="-1.99392">
        <ele>53</ele>
        <time>2021-09-04T09:55:51.000Z</time>
      </trkpt>
      <trkpt lat="47.27511" lon="-1.99373">
        <ele>53</ele>
        <time>2021-09-04T09:55:53.000Z</time>
      </trkpt>
      <trkpt lat="47.27517" lon="-1.99354">
        <ele>52</ele>
        <time>2021-09-04T09:55:55.000Z</time>
      </trkpt>
      <trkpt lat="47.27523" lon="-1.99336">
        <ele>52</ele>
        <time>2021-09-04T09:55:57.000Z</time>
      </trkpt>
      <trkpt lat="47.27528" lon="-1.99317">
        <ele>52</ele>
        <time>2021-09-04T09:55:59.000Z</time>
      </trkpt>
      <trkpt lat="47.2753" lon="-1.99298">
        <ele>52</ele>
        <time>2021-09-04T09:56:01.000Z</time>
      </trkpt>
      <trkpt lat="47.2753" lon="-1.99278">
        <ele>52</ele>
        <time>2021-09-04T09:56:03.000Z</time>
      </trkpt>
      <trkpt lat="47.2753" lon="-1.99259">
        <ele>52</ele>
        <time>2021-09-04T09:56:05.000Z</time>
      </trkpt>
      <trkpt lat="47.27533" lon="-1.99239">
        <ele>52</ele>
        <time>2021-09-04T09:56:07.000Z</time>
      </trkpt>
      <trkpt lat="47.27539" lon="-1.99221">
        <ele>52</ele>
        <time>2021-09-04T09:56:09.000Z</time>
      </trkpt>
      <trkpt lat="47.27547" lon="-1.99204">
        <ele>52</ele>
        <time>2021-09-04T09:56:11.000Z</time>
      </trkpt>
      <trkpt lat="47.27556" lon="-1.99189">
        <ele>52</ele>
        <time>2021-09-04T09:56:13.000Z</time>
      </trkpt>
      <trkpt lat="47.27565" lon="-1.99173">
        <ele>51</ele>
        <time>2021-09-04T09:56:15.000Z</time>
      </trkpt>
      <trkpt lat="47.27573" lon="-1.99156">
        <ele>51</ele>
        <time>2021-09-04T09:56:17.000Z</time>
      </trkpt>
      <trkpt lat="47.2758" lon="-1.99141">
        <ele>51</ele>
        <time>2021-09-04T09:56:19.000Z</time>
      </trkpt>
      <trkpt lat="47.27587" lon="-1.99124">
        <ele>51</ele>
        <time>2021-09-04T09:56:21.000Z</time>
      </trkpt>
      <trkpt lat="47.27592" lon="-1.99106">
        <ele>52</ele>
        <time>2021-09-04T09:56:23.000Z</time>
      </trkpt>
      <trkpt lat="47.27597" lon="-1.99088">
        <ele>52</ele>
        <time>2021-09-04T09:56:25.000Z</time>
      </trkpt>
      <trkpt lat="47.276" lon="-1.99069">
        <ele>52</ele>
        <time>2021-09-04T09:56:27.000Z</time>
      </trkpt>
      <trkpt lat="47.27603" lon="-1.99049">
        <ele>52</ele>
        <time>2021-09-04T09:56:29.000Z</time>
      </trkpt>
      <trkpt lat="47.27605" lon="-1.9903">
        <ele>52</ele>
        <time>2021-09-04T09:56:31.000Z</time>
      </trkpt>
      <trkpt lat="47.27606" lon="-1.9901">
        <ele>52</ele>
        <time>2021-09-04T09:56:33.000Z</time>
      </trkpt>
      <trkpt lat="47.27605" lon="-1.9899">
        <ele>52</ele>
        <time>2021-09-04T09:56:35.000Z</time>
      </trkpt>
      <trkpt lat="47.27603" lon="-1.9897">
        <ele>52</ele>
        <time>2021-09-04T09:56:37.000Z</time>
      </trkpt>
      <trkpt lat="47.276" lon="-1.98951">
        <ele>52</ele>
        <time>2021-09-04T09:56:39.000Z</time>
      </trkpt>
      <trkpt lat="47.27597" lon="-1.9893">
        <ele>53</ele>
        <time>2021-09-04T09:56:41.000Z</time>
      </trkpt>
      <trkpt lat="47.27594" lon="-1.98911">
        <ele>53</ele>
        <time>2021-09-04T09:56:43.000Z</time>
      </trkpt>
      <trkpt lat="47.2759" lon="-1.98892">
        <ele>53</ele>
        <time>2021-09-04T09:56:45.000Z</time>
      </trkpt>
      <trkpt lat="47.27586" lon="-1.98872">
        <ele>53</ele>
        <time>2021-09-04T09:56:47.000Z</time>
      </trkpt>
      <trkpt lat="47.27581" lon="-1.98853">
        <ele>52</ele>
        <time>2021-09-04T09:56:49.000Z</time>
      </trkpt>
      <trkpt lat="47.27575" lon="-1.98834">
        <ele>52</ele>
        <time>2021-09-04T09:56:51.000Z</time>
      </trkpt>
      <trkpt lat="47.2757" lon="-1.98815">
        <ele>52</ele>
        <time>2021-09-04T09:56:53.000Z</time>
      </trkpt>
      <trkpt lat="47.27565" lon="-1.98795">
        <ele>52</ele>
        <time>2021-09-04T09:56:55.000Z</time>
      </trkpt>
      <trkpt lat="47.2756" lon="-1.98777">
        <ele>52</ele>
        <time>2021-09-04T09:56:57.000Z</time>
      </trkpt>
      <trkpt lat="47.27556" lon="-1.98757">
        <ele>52</ele>
        <time>2021-09-04T09:56:59.000Z</time>
      </trkpt>
      <trkpt lat="47.27551" lon="-1.98738">
        <ele>52</ele>
        <time>2021-09-04T09:57:01.000Z</time>
      </trkpt>
      <trkpt lat="47.27546" lon="-1.98718">
        <ele>52</ele>
        <time>2021-09-04T09:57:03.000Z</time>
      </trkpt>
      <trkpt lat="47.27542" lon="-1.987">
        <ele>52</ele>
        <time>2021-09-04T09:57:05.000Z</time>
      </trkpt>
      <trkpt lat="47.27537" lon="-1.98681">
        <ele>52</ele>
        <time>2021-09-04T09:57:07.000Z</time>
      </trkpt>
      <trkpt lat="47.27532" lon="-1.98661">
        <ele>53</ele>
        <time>2021-09-04T09:57:09.000Z</time>
      </trkpt>
      <trkpt lat="47.27527" lon="-1.98641">
        <ele>53</ele>
        <time>2021-09-04T09:57:11.000Z</time>
      </trkpt>
      <trkpt lat="47.27521" lon="-1.98622">
        <ele>53</ele>
        <time>2021-09-04T09:57:13.000Z</time>
      </trkpt>
      <trkpt lat="47.27513" lon="-1.98604">
        <ele>53</ele>
        <time>2021-09-04T09:57:15.000Z</time>
      </trkpt>
      <trkpt lat="47.27505" lon="-1.98587">
        <ele>53</ele>
        <time>2021-09-04T09:57:17.000Z</time>
      </trkpt>
      <trkpt lat="47.27495" lon="-1.98572">
        <ele>53</ele>
        <time>2021-09-04T09:57:19.000Z</time>
      </trkpt>
      <trkpt lat="47.27485" lon="-1.98558">
        <ele>53</ele>
        <time>2021-09-04T09:57:21.000Z</time>
      </trkpt>
      <trkpt lat="47.27474" lon="-1.98546">
        <ele>54</ele>
        <time>2021-09-04T09:57:23.000Z</time>
      </trkpt>
      <trkpt lat="47.27463" lon="-1.98534">
        <ele>54</ele>
        <time>2021-09-04T09:57:25.000Z</time>
      </trkpt>
      <trkpt lat="47.27453" lon="-1.98522">
        <ele>55</ele>
        <time>2021-09-04T09:57:27.000Z</time>
      </trkpt>
      <trkpt lat="47.27442" lon="-1.98511">
        <ele>55</ele>
        <time>2021-09-04T09:57:29.000Z</time>
      </trkpt>
      <trkpt lat="47.2743" lon="-1.98501">
        <ele>55</ele>
        <time>2021-09-04T09:57:31.000Z</time>
      </trkpt>
      <trkpt lat="47.27419" lon="-1.9849">
        <ele>55</ele>
        <time>2021-09-04T09:57:33.000Z</time>
      </trkpt>
      <trkpt lat="47.27411" lon="-1.98474">
        <ele>54</ele>
        <time>2021-09-04T09:57:35.000Z</time>
      </trkpt>
      <trkpt lat="47.27408" lon="-1.98455">
        <ele>54</ele>
        <time>2021-09-04T09:57:37.000Z</time>
      </trkpt>
      <trkpt lat="47.27412" lon="-1.98436">
        <ele>54</ele>
        <time>2021-09-04T09:57:39.000Z</time>
      </trkpt>
      <trkpt lat="47.27416" lon="-1.98416">
        <ele>54</ele>
        <time>2021-09-04T09:57:41.000Z</time>
      </trkpt>
      <trkpt lat="47.27418" lon="-1.98395">
        <ele>54</ele>
        <time>2021-09-04T09:57:43.000Z</time>
      </trkpt>
      <trkpt lat="47.27419" lon="-1.98374">
        <ele>54</ele>
        <time>2021-09-04T09:57:45.000Z</time>
      </trkpt>
      <trkpt lat="47.27422" lon="-1.98355">
        <ele>54</ele>
        <time>2021-09-04T09:57:47.000Z</time>
      </trkpt>
      <trkpt lat="47.27426" lon="-1.98334">
        <ele>54</ele>
        <time>2021-09-04T09:57:49.000Z</time>
      </trkpt>
      <trkpt lat="47.2743" lon="-1.98314">
        <ele>54</ele>
        <time>2021-09-04T09:57:51.000Z</time>
      </trkpt>
      <trkpt lat="47.27433" lon="-1.98294">
        <ele>53</ele>
        <time>2021-09-04T09:57:53.000Z</time>
      </trkpt>
      <trkpt lat="47.27436" lon="-1.98275">
        <ele>54</ele>
        <time>2021-09-04T09:57:55.000Z</time>
      </trkpt>
      <trkpt lat="47.27439" lon="-1.98256">
        <ele>54</ele>
        <time>2021-09-04T09:57:57.000Z</time>
      </trkpt>
      <trkpt lat="47.27442" lon="-1.98237">
        <ele>54</ele>
        <time>2021-09-04T09:57:59.000Z</time>
      </trkpt>
      <trkpt lat="47.27443" lon="-1.98222">
        <ele>54</ele>
        <time>2021-09-04T09:58:01.000Z</time>
      </trkpt>
      <trkpt lat="47.27444" lon="-1.98209">
        <ele>55</ele>
        <time>2021-09-04T09:58:03.000Z</time>
      </trkpt>
      <trkpt lat="47.27446" lon="-1.98193">
        <ele>55</ele>
        <time>2021-09-04T09:58:05.000Z</time>
      </trkpt>
      <trkpt lat="47.27447" lon="-1.98175">
        <ele>55</ele>
        <time>2021-09-04T09:58:07.000Z</time>
      </trkpt>
      <trkpt lat="47.27448" lon="-1.98156">
        <ele>56</ele>
        <time>2021-09-04T09:58:09.000Z</time>
      </trkpt>
      <trkpt lat="47.27449" lon="-1.98136">
        <ele>56</ele>
        <time>2021-09-04T09:58:11.000Z</time>
      </trkpt>
      <trkpt lat="47.27449" lon="-1.98116">
        <ele>56</ele>
        <time>2021-09-04T09:58:13.000Z</time>
      </trkpt>
      <trkpt lat="47.27449" lon="-1.98094">
        <ele>55</ele>
        <time>2021-09-04T09:58:15.000Z</time>
      </trkpt>
      <trkpt lat="47.2745" lon="-1.98073">
        <ele>54</ele>
        <time>2021-09-04T09:58:17.000Z</time>
      </trkpt>
      <trkpt lat="47.27449" lon="-1.98054">
        <ele>54</ele>
        <time>2021-09-04T09:58:19.000Z</time>
      </trkpt>
      <trkpt lat="47.27448" lon="-1.98035">
        <ele>54</ele>
        <time>2021-09-04T09:58:21.000Z</time>
      </trkpt>
      <trkpt lat="47.27446" lon="-1.98016">
        <ele>54</ele>
        <time>2021-09-04T09:58:23.000Z</time>
      </trkpt>
      <trkpt lat="47.27444" lon="-1.97997">
        <ele>54</ele>
        <time>2021-09-04T09:58:25.000Z</time>
      </trkpt>
      <trkpt lat="47.27442" lon="-1.97978">
        <ele>54</ele>
        <time>2021-09-04T09:58:27.000Z</time>
      </trkpt>
      <trkpt lat="47.2744" lon="-1.9796">
        <ele>54</ele>
        <time>2021-09-04T09:58:29.000Z</time>
      </trkpt>
      <trkpt lat="47.27438" lon="-1.97941">
        <ele>54</ele>
        <time>2021-09-04T09:58:31.000Z</time>
      </trkpt>
      <trkpt lat="47.27434" lon="-1.97923">
        <ele>55</ele>
        <time>2021-09-04T09:58:33.000Z</time>
      </trkpt>
      <trkpt lat="47.2743" lon="-1.97905">
        <ele>55</ele>
        <time>2021-09-04T09:58:35.000Z</time>
      </trkpt>
      <trkpt lat="47.27425" lon="-1.97887">
        <ele>55</ele>
        <time>2021-09-04T09:58:37.000Z</time>
      </trkpt>
      <trkpt lat="47.27421" lon="-1.97869">
        <ele>56</ele>
        <time>2021-09-04T09:58:39.000Z</time>
      </trkpt>
      <trkpt lat="47.27418" lon="-1.97851">
        <ele>56</ele>
        <time>2021-09-04T09:58:41.000Z</time>
      </trkpt>
      <trkpt lat="47.27412" lon="-1.97833">
        <ele>56</ele>
        <time>2021-09-04T09:58:43.000Z</time>
      </trkpt>
      <trkpt lat="47.27407" lon="-1.97816">
        <ele>57</ele>
        <time>2021-09-04T09:58:45.000Z</time>
      </trkpt>
      <trkpt lat="47.27403" lon="-1.97798">
        <ele>57</ele>
        <time>2021-09-04T09:58:47.000Z</time>
      </trkpt>
      <trkpt lat="47.27397" lon="-1.97783">
        <ele>57</ele>
        <time>2021-09-04T09:58:49.000Z</time>
      </trkpt>
      <trkpt lat="47.27388" lon="-1.97771">
        <ele>57</ele>
        <time>2021-09-04T09:58:51.000Z</time>
      </trkpt>
      <trkpt lat="47.27376" lon="-1.97766">
        <ele>58</ele>
        <time>2021-09-04T09:58:53.000Z</time>
      </trkpt>
      <trkpt lat="47.27364" lon="-1.97761">
        <ele>58</ele>
        <time>2021-09-04T09:58:55.000Z</time>
      </trkpt>
      <trkpt lat="47.27351" lon="-1.97756">
        <ele>58</ele>
        <time>2021-09-04T09:58:57.000Z</time>
      </trkpt>
      <trkpt lat="47.27339" lon="-1.97751">
        <ele>58</ele>
        <time>2021-09-04T09:58:59.000Z</time>
      </trkpt>
      <trkpt lat="47.27327" lon="-1.97744">
        <ele>59</ele>
        <time>2021-09-04T09:59:01.000Z</time>
      </trkpt>
      <trkpt lat="47.27317" lon="-1.97735">
        <ele>59</ele>
        <time>2021-09-04T09:59:03.000Z</time>
      </trkpt>
      <trkpt lat="47.27308" lon="-1.97722">
        <ele>60</ele>
        <time>2021-09-04T09:59:05.000Z</time>
      </trkpt>
      <trkpt lat="47.27301" lon="-1.97708">
        <ele>60</ele>
        <time>2021-09-04T09:59:07.000Z</time>
      </trkpt>
      <trkpt lat="47.27297" lon="-1.97691">
        <ele>61</ele>
        <time>2021-09-04T09:59:09.000Z</time>
      </trkpt>
      <trkpt lat="47.27295" lon="-1.97674">
        <ele>60</ele>
        <time>2021-09-04T09:59:11.000Z</time>
      </trkpt>
      <trkpt lat="47.27294" lon="-1.97655">
        <ele>59</ele>
        <time>2021-09-04T09:59:13.000Z</time>
      </trkpt>
      <trkpt lat="47.27292" lon="-1.97635">
        <ele>58</ele>
        <time>2021-09-04T09:59:15.000Z</time>
      </trkpt>
      <trkpt lat="47.2729" lon="-1.97614">
        <ele>58</ele>
        <time>2021-09-04T09:59:17.000Z</time>
      </trkpt>
      <trkpt lat="47.27287" lon="-1.97593">
        <ele>57</ele>
        <time>2021-09-04T09:59:19.000Z</time>
      </trkpt>
      <trkpt lat="47.27283" lon="-1.97572">
        <ele>56</ele>
        <time>2021-09-04T09:59:21.000Z</time>
      </trkpt>
      <trkpt lat="47.27278" lon="-1.97551">
        <ele>56</ele>
        <time>2021-09-04T09:59:23.000Z</time>
      </trkpt>
      <trkpt lat="47.27274" lon="-1.97531">
        <ele>56</ele>
        <time>2021-09-04T09:59:25.000Z</time>
      </trkpt>
      <trkpt lat="47.27269" lon="-1.9751">
        <ele>55</ele>
        <time>2021-09-04T09:59:27.000Z</time>
      </trkpt>
      <trkpt lat="47.27264" lon="-1.97489">
        <ele>55</ele>
        <time>2021-09-04T09:59:29.000Z</time>
      </trkpt>
      <trkpt lat="47.27259" lon="-1.97469">
        <ele>55</ele>
        <time>2021-09-04T09:59:31.000Z</time>
      </trkpt>
      <trkpt lat="47.27254" lon="-1.97448">
        <ele>54</ele>
        <time>2021-09-04T09:59:33.000Z</time>
      </trkpt>
      <trkpt lat="47.2725" lon="-1.97428">
        <ele>53</ele>
        <time>2021-09-04T09:59:35.000Z</time>
      </trkpt>
      <trkpt lat="47.27245" lon="-1.97407">
        <ele>53</ele>
        <time>2021-09-04T09:59:37.000Z</time>
      </trkpt>
      <trkpt lat="47.2724" lon="-1.97387">
        <ele>53</ele>
        <time>2021-09-04T09:59:39.000Z</time>
      </trkpt>
      <trkpt lat="47.27233" lon="-1.97369">
        <ele>54</ele>
        <time>2021-09-04T09:59:41.000Z</time>
      </trkpt>
      <trkpt lat="47.27225" lon="-1.97352">
        <ele>54</ele>
        <time>2021-09-04T09:59:43.000Z</time>
      </trkpt>
      <trkpt lat="47.27218" lon="-1.97336">
        <ele>55</ele>
        <time>2021-09-04T09:59:45.000Z</time>
      </trkpt>
      <trkpt lat="47.27209" lon="-1.97322">
        <ele>57</ele>
        <time>2021-09-04T09:59:47.000Z</time>
      </trkpt>
      <trkpt lat="47.272" lon="-1.97309">
        <ele>58</ele>
        <time>2021-09-04T09:59:49.000Z</time>
      </trkpt>
      <trkpt lat="47.27191" lon="-1.97296">
        <ele>59</ele>
        <time>2021-09-04T09:59:51.000Z</time>
      </trkpt>
      <trkpt lat="47.27182" lon="-1.97282">
        <ele>60</ele>
        <time>2021-09-04T09:59:53.000Z</time>
      </trkpt>
      <trkpt lat="47.27171" lon="-1.97268">
        <ele>60</ele>
        <time>2021-09-04T09:59:55.000Z</time>
      </trkpt>
      <trkpt lat="47.27161" lon="-1.97253">
        <ele>60</ele>
        <time>2021-09-04T09:59:57.000Z</time>
      </trkpt>
      <trkpt lat="47.27151" lon="-1.97239">
        <ele>60</ele>
        <time>2021-09-04T09:59:59.000Z</time>
      </trkpt>
      <trkpt lat="47.27142" lon="-1.97225">
        <ele>60</ele>
        <time>2021-09-04T10:00:01.000Z</time>
      </trkpt>
      <trkpt lat="47.27133" lon="-1.97211">
        <ele>60</ele>
        <time>2021-09-04T10:00:03.000Z</time>
      </trkpt>
      <trkpt lat="47.27124" lon="-1.97198">
        <ele>60</ele>
        <time>2021-09-04T10:00:05.000Z</time>
      </trkpt>
      <trkpt lat="47.27116" lon="-1.97185">
        <ele>61</ele>
        <time>2021-09-04T10:00:07.000Z</time>
      </trkpt>
      <trkpt lat="47.27108" lon="-1.97171">
        <ele>61</ele>
        <time>2021-09-04T10:00:09.000Z</time>
      </trkpt>
      <trkpt lat="47.27101" lon="-1.97154">
        <ele>61</ele>
        <time>2021-09-04T10:00:11.000Z</time>
      </trkpt>
      <trkpt lat="47.27096" lon="-1.97136">
        <ele>61</ele>
        <time>2021-09-04T10:00:13.000Z</time>
      </trkpt>
      <trkpt lat="47.27093" lon="-1.97118">
        <ele>61</ele>
        <time>2021-09-04T10:00:15.000Z</time>
      </trkpt>
      <trkpt lat="47.27091" lon="-1.97099">
        <ele>61</ele>
        <time>2021-09-04T10:00:17.000Z</time>
      </trkpt>
      <trkpt lat="47.2709" lon="-1.9708">
        <ele>61</ele>
        <time>2021-09-04T10:00:19.000Z</time>
      </trkpt>
      <trkpt lat="47.27089" lon="-1.97061">
        <ele>60</ele>
        <time>2021-09-04T10:00:21.000Z</time>
      </trkpt>
      <trkpt lat="47.27088" lon="-1.97042">
        <ele>60</ele>
        <time>2021-09-04T10:00:23.000Z</time>
      </trkpt>
      <trkpt lat="47.27087" lon="-1.97024">
        <ele>60</ele>
        <time>2021-09-04T10:00:25.000Z</time>
      </trkpt>
      <trkpt lat="47.27085" lon="-1.97005">
        <ele>60</ele>
        <time>2021-09-04T10:00:27.000Z</time>
      </trkpt>
      <trkpt lat="47.27081" lon="-1.96987">
        <ele>60</ele>
        <time>2021-09-04T10:00:29.000Z</time>
      </trkpt>
      <trkpt lat="47.27078" lon="-1.96969">
        <ele>59</ele>
        <time>2021-09-04T10:00:31.000Z</time>
      </trkpt>
      <trkpt lat="47.27072" lon="-1.96952">
        <ele>59</ele>
        <time>2021-09-04T10:00:33.000Z</time>
      </trkpt>
      <trkpt lat="47.27064" lon="-1.96936">
        <ele>58</ele>
        <time>2021-09-04T10:00:35.000Z</time>
      </trkpt>
      <trkpt lat="47.27055" lon="-1.96919">
        <ele>57</ele>
        <time>2021-09-04T10:00:37.000Z</time>
      </trkpt>
      <trkpt lat="47.27045" lon="-1.96901">
        <ele>56</ele>
        <time>2021-09-04T10:00:39.000Z</time>
      </trkpt>
      <trkpt lat="47.27033" lon="-1.96881">
        <ele>55</ele>
        <time>2021-09-04T10:00:41.000Z</time>
      </trkpt>
      <trkpt lat="47.27022" lon="-1.9686">
        <ele>55</ele>
        <time>2021-09-04T10:00:43.000Z</time>
      </trkpt>
      <trkpt lat="47.27012" lon="-1.96839">
        <ele>55</ele>
        <time>2021-09-04T10:00:45.000Z</time>
      </trkpt>
      <trkpt lat="47.27003" lon="-1.96821">
        <ele>56</ele>
        <time>2021-09-04T10:00:47.000Z</time>
      </trkpt>
      <trkpt lat="47.26996" lon="-1.96803">
        <ele>57</ele>
        <time>2021-09-04T10:00:49.000Z</time>
      </trkpt>
      <trkpt lat="47.26989" lon="-1.96786">
        <ele>58</ele>
        <time>2021-09-04T10:00:51.000Z</time>
      </trkpt>
      <trkpt lat="47.26983" lon="-1.96769">
        <ele>58</ele>
        <time>2021-09-04T10:00:53.000Z</time>
      </trkpt>
      <trkpt lat="47.26977" lon="-1.96751">
        <ele>59</ele>
        <time>2021-09-04T10:00:55.000Z</time>
      </trkpt>
      <trkpt lat="47.26969" lon="-1.96735">
        <ele>60</ele>
        <time>2021-09-04T10:00:57.000Z</time>
      </trkpt>
      <trkpt lat="47.26962" lon="-1.9672">
        <ele>60</ele>
        <time>2021-09-04T10:00:59.000Z</time>
      </trkpt>
      <trkpt lat="47.26955" lon="-1.96704">
        <ele>61</ele>
        <time>2021-09-04T10:01:01.000Z</time>
      </trkpt>
      <trkpt lat="47.26949" lon="-1.96686">
        <ele>61</ele>
        <time>2021-09-04T10:01:03.000Z</time>
      </trkpt>
      <trkpt lat="47.26942" lon="-1.9667">
        <ele>62</ele>
        <time>2021-09-04T10:01:05.000Z</time>
      </trkpt>
      <trkpt lat="47.26936" lon="-1.96653">
        <ele>62</ele>
        <time>2021-09-04T10:01:07.000Z</time>
      </trkpt>
      <trkpt lat="47.26931" lon="-1.96636">
        <ele>62</ele>
        <time>2021-09-04T10:01:09.000Z</time>
      </trkpt>
      <trkpt lat="47.26925" lon="-1.96621">
        <ele>62</ele>
        <time>2021-09-04T10:01:11.000Z</time>
      </trkpt>
      <trkpt lat="47.26919" lon="-1.96607">
        <ele>63</ele>
        <time>2021-09-04T10:01:13.000Z</time>
      </trkpt>
      <trkpt lat="47.26913" lon="-1.96591">
        <ele>63</ele>
        <time>2021-09-04T10:01:15.000Z</time>
      </trkpt>
      <trkpt lat="47.26906" lon="-1.96575">
        <ele>63</ele>
        <time>2021-09-04T10:01:17.000Z</time>
      </trkpt>
      <trkpt lat="47.269" lon="-1.96558">
        <ele>63</ele>
        <time>2021-09-04T10:01:19.000Z</time>
      </trkpt>
      <trkpt lat="47.26894" lon="-1.96542">
        <ele>63</ele>
        <time>2021-09-04T10:01:21.000Z</time>
      </trkpt>
      <trkpt lat="47.26887" lon="-1.96525">
        <ele>63</ele>
        <time>2021-09-04T10:01:23.000Z</time>
      </trkpt>
      <trkpt lat="47.26881" lon="-1.96508">
        <ele>62</ele>
        <time>2021-09-04T10:01:25.000Z</time>
      </trkpt>
      <trkpt lat="47.26874" lon="-1.96491">
        <ele>62</ele>
        <time>2021-09-04T10:01:27.000Z</time>
      </trkpt>
      <trkpt lat="47.26868" lon="-1.96474">
        <ele>62</ele>
        <time>2021-09-04T10:01:29.000Z</time>
      </trkpt>
      <trkpt lat="47.26861" lon="-1.96458">
        <ele>62</ele>
        <time>2021-09-04T10:01:31.000Z</time>
      </trkpt>
      <trkpt lat="47.26855" lon="-1.96442">
        <ele>62</ele>
        <time>2021-09-04T10:01:33.000Z</time>
      </trkpt>
      <trkpt lat="47.26848" lon="-1.96424">
        <ele>62</ele>
        <time>2021-09-04T10:01:35.000Z</time>
      </trkpt>
      <trkpt lat="47.26842" lon="-1.96407">
        <ele>62</ele>
        <time>2021-09-04T10:01:37.000Z</time>
      </trkpt>
      <trkpt lat="47.26836" lon="-1.9639">
        <ele>61</ele>
        <time>2021-09-04T10:01:39.000Z</time>
      </trkpt>
      <trkpt lat="47.26829" lon="-1.96372">
        <ele>62</ele>
        <time>2021-09-04T10:01:41.000Z</time>
      </trkpt>
      <trkpt lat="47.26823" lon="-1.96355">
        <ele>61</ele>
        <time>2021-09-04T10:01:43.000Z</time>
      </trkpt>
      <trkpt lat="47.26816" lon="-1.96337">
        <ele>61</ele>
        <time>2021-09-04T10:01:45.000Z</time>
      </trkpt>
      <trkpt lat="47.2681" lon="-1.96319">
        <ele>61</ele>
        <time>2021-09-04T10:01:47.000Z</time>
      </trkpt>
      <trkpt lat="47.26804" lon="-1.96301">
        <ele>61</ele>
        <time>2021-09-04T10:01:49.000Z</time>
      </trkpt>
      <trkpt lat="47.26798" lon="-1.96281">
        <ele>61</ele>
        <time>2021-09-04T10:01:51.000Z</time>
      </trkpt>
      <trkpt lat="47.26793" lon="-1.96262">
        <ele>60</ele>
        <time>2021-09-04T10:01:53.000Z</time>
      </trkpt>
      <trkpt lat="47.26788" lon="-1.96242">
        <ele>60</ele>
        <time>2021-09-04T10:01:55.000Z</time>
      </trkpt>
      <trkpt lat="47.26783" lon="-1.96223">
        <ele>60</ele>
        <time>2021-09-04T10:01:57.000Z</time>
      </trkpt>
      <trkpt lat="47.26778" lon="-1.96204">
        <ele>60</ele>
        <time>2021-09-04T10:01:59.000Z</time>
      </trkpt>
      <trkpt lat="47.26773" lon="-1.96186">
        <ele>60</ele>
        <time>2021-09-04T10:02:01.000Z</time>
      </trkpt>
      <trkpt lat="47.26768" lon="-1.96168">
        <ele>61</ele>
        <time>2021-09-04T10:02:03.000Z</time>
      </trkpt>
      <trkpt lat="47.26764" lon="-1.96149">
        <ele>61</ele>
        <time>2021-09-04T10:02:05.000Z</time>
      </trkpt>
      <trkpt lat="47.26759" lon="-1.96129">
        <ele>61</ele>
        <time>2021-09-04T10:02:07.000Z</time>
      </trkpt>
      <trkpt lat="47.26754" lon="-1.96109">
        <ele>62</ele>
        <time>2021-09-04T10:02:09.000Z</time>
      </trkpt>
      <trkpt lat="47.2675" lon="-1.96089">
        <ele>62</ele>
        <time>2021-09-04T10:02:11.000Z</time>
      </trkpt>
      <trkpt lat="47.26745" lon="-1.9607">
        <ele>62</ele>
        <time>2021-09-04T10:02:13.000Z</time>
      </trkpt>
      <trkpt lat="47.26739" lon="-1.9605">
        <ele>61</ele>
        <time>2021-09-04T10:02:15.000Z</time>
      </trkpt>
      <trkpt lat="47.26734" lon="-1.96031">
        <ele>61</ele>
        <time>2021-09-04T10:02:17.000Z</time>
      </trkpt>
      <trkpt lat="47.26728" lon="-1.96013">
        <ele>61</ele>
        <time>2021-09-04T10:02:19.000Z</time>
      </trkpt>
      <trkpt lat="47.26723" lon="-1.95994">
        <ele>61</ele>
        <time>2021-09-04T10:02:21.000Z</time>
      </trkpt>
      <trkpt lat="47.26719" lon="-1.95975">
        <ele>61</ele>
        <time>2021-09-04T10:02:23.000Z</time>
      </trkpt>
      <trkpt lat="47.26714" lon="-1.95956">
        <ele>61</ele>
        <time>2021-09-04T10:02:25.000Z</time>
      </trkpt>
      <trkpt lat="47.26706" lon="-1.95926">
        <ele>60</ele>
        <time>2021-09-04T10:02:28.000Z</time>
      </trkpt>
      <trkpt lat="47.267" lon="-1.95908">
        <ele>61</ele>
        <time>2021-09-04T10:02:30.000Z</time>
      </trkpt>
      <trkpt lat="47.26694" lon="-1.95891">
        <ele>61</ele>
        <time>2021-09-04T10:02:32.000Z</time>
      </trkpt>
      <trkpt lat="47.26688" lon="-1.95875">
        <ele>61</ele>
        <time>2021-09-04T10:02:34.000Z</time>
      </trkpt>
      <trkpt lat="47.26681" lon="-1.95858">
        <ele>62</ele>
        <time>2021-09-04T10:02:36.000Z</time>
      </trkpt>
      <trkpt lat="47.26674" lon="-1.95842">
        <ele>62</ele>
        <time>2021-09-04T10:02:38.000Z</time>
      </trkpt>
      <trkpt lat="47.26668" lon="-1.95826">
        <ele>63</ele>
        <time>2021-09-04T10:02:40.000Z</time>
      </trkpt>
      <trkpt lat="47.26661" lon="-1.9581">
        <ele>63</ele>
        <time>2021-09-04T10:02:42.000Z</time>
      </trkpt>
      <trkpt lat="47.26655" lon="-1.95794">
        <ele>63</ele>
        <time>2021-09-04T10:02:44.000Z</time>
      </trkpt>
      <trkpt lat="47.26649" lon="-1.95777">
        <ele>64</ele>
        <time>2021-09-04T10:02:46.000Z</time>
      </trkpt>
      <trkpt lat="47.26642" lon="-1.95762">
        <ele>64</ele>
        <time>2021-09-04T10:02:48.000Z</time>
      </trkpt>
      <trkpt lat="47.26636" lon="-1.95746">
        <ele>64</ele>
        <time>2021-09-04T10:02:50.000Z</time>
      </trkpt>
      <trkpt lat="47.26629" lon="-1.95729">
        <ele>64</ele>
        <time>2021-09-04T10:02:52.000Z</time>
      </trkpt>
      <trkpt lat="47.26623" lon="-1.95713">
        <ele>64</ele>
        <time>2021-09-04T10:02:54.000Z</time>
      </trkpt>
      <trkpt lat="47.26616" lon="-1.95696">
        <ele>63</ele>
        <time>2021-09-04T10:02:56.000Z</time>
      </trkpt>
      <trkpt lat="47.26611" lon="-1.95679">
        <ele>63</ele>
        <time>2021-09-04T10:02:58.000Z</time>
      </trkpt>
      <trkpt lat="47.26605" lon="-1.95662">
        <ele>62</ele>
        <time>2021-09-04T10:03:00.000Z</time>
      </trkpt>
      <trkpt lat="47.266" lon="-1.95644">
        <ele>62</ele>
        <time>2021-09-04T10:03:02.000Z</time>
      </trkpt>
      <trkpt lat="47.26596" lon="-1.95625">
        <ele>62</ele>
        <time>2021-09-04T10:03:04.000Z</time>
      </trkpt>
      <trkpt lat="47.26592" lon="-1.95605">
        <ele>61</ele>
        <time>2021-09-04T10:03:06.000Z</time>
      </trkpt>
      <trkpt lat="47.26588" lon="-1.95585">
        <ele>61</ele>
        <time>2021-09-04T10:03:08.000Z</time>
      </trkpt>
      <trkpt lat="47.26584" lon="-1.95564">
        <ele>60</ele>
        <time>2021-09-04T10:03:10.000Z</time>
      </trkpt>
      <trkpt lat="47.26579" lon="-1.95543">
        <ele>59</ele>
        <time>2021-09-04T10:03:12.000Z</time>
      </trkpt>
      <trkpt lat="47.26575" lon="-1.95522">
        <ele>58</ele>
        <time>2021-09-04T10:03:14.000Z</time>
      </trkpt>
      <trkpt lat="47.2657" lon="-1.955">
        <ele>58</ele>
        <time>2021-09-04T10:03:16.000Z</time>
      </trkpt>
      <trkpt lat="47.26563" lon="-1.95478">
        <ele>57</ele>
        <time>2021-09-04T10:03:18.000Z</time>
      </trkpt>
      <trkpt lat="47.26555" lon="-1.95459">
        <ele>57</ele>
        <time>2021-09-04T10:03:20.000Z</time>
      </trkpt>
      <trkpt lat="47.26545" lon="-1.9544">
        <ele>57</ele>
        <time>2021-09-04T10:03:22.000Z</time>
      </trkpt>
      <trkpt lat="47.26535" lon="-1.95422">
        <ele>57</ele>
        <time>2021-09-04T10:03:24.000Z</time>
      </trkpt>
      <trkpt lat="47.26524" lon="-1.95406">
        <ele>57</ele>
        <time>2021-09-04T10:03:26.000Z</time>
      </trkpt>
      <trkpt lat="47.26513" lon="-1.95387">
        <ele>56</ele>
        <time>2021-09-04T10:03:28.000Z</time>
      </trkpt>
      <trkpt lat="47.26504" lon="-1.95369">
        <ele>56</ele>
        <time>2021-09-04T10:03:30.000Z</time>
      </trkpt>
      <trkpt lat="47.26496" lon="-1.95348">
        <ele>55</ele>
        <time>2021-09-04T10:03:32.000Z</time>
      </trkpt>
      <trkpt lat="47.2649" lon="-1.95326">
        <ele>55</ele>
        <time>2021-09-04T10:03:34.000Z</time>
      </trkpt>
      <trkpt lat="47.26487" lon="-1.95303">
        <ele>55</ele>
        <time>2021-09-04T10:03:36.000Z</time>
      </trkpt>
      <trkpt lat="47.26483" lon="-1.9528">
        <ele>55</ele>
        <time>2021-09-04T10:03:38.000Z</time>
      </trkpt>
      <trkpt lat="47.26479" lon="-1.95257">
        <ele>55</ele>
        <time>2021-09-04T10:03:40.000Z</time>
      </trkpt>
      <trkpt lat="47.26476" lon="-1.95236">
        <ele>56</ele>
        <time>2021-09-04T10:03:42.000Z</time>
      </trkpt>
      <trkpt lat="47.26473" lon="-1.95215">
        <ele>56</ele>
        <time>2021-09-04T10:03:44.000Z</time>
      </trkpt>
      <trkpt lat="47.26471" lon="-1.95196">
        <ele>56</ele>
        <time>2021-09-04T10:03:46.000Z</time>
      </trkpt>
      <trkpt lat="47.26469" lon="-1.95176">
        <ele>56</ele>
        <time>2021-09-04T10:03:48.000Z</time>
      </trkpt>
      <trkpt lat="47.26469" lon="-1.95157">
        <ele>56</ele>
        <time>2021-09-04T10:03:50.000Z</time>
      </trkpt>
      <trkpt lat="47.26469" lon="-1.95137">
        <ele>56</ele>
        <time>2021-09-04T10:03:52.000Z</time>
      </trkpt>
      <trkpt lat="47.2647" lon="-1.95118">
        <ele>56</ele>
        <time>2021-09-04T10:03:54.000Z</time>
      </trkpt>
      <trkpt lat="47.26473" lon="-1.951">
        <ele>55</ele>
        <time>2021-09-04T10:03:56.000Z</time>
      </trkpt>
      <trkpt lat="47.26483" lon="-1.95088">
        <ele>55</ele>
        <time>2021-09-04T10:03:58.000Z</time>
      </trkpt>
      <trkpt lat="47.26496" lon="-1.95087">
        <ele>54</ele>
        <time>2021-09-04T10:04:00.000Z</time>
      </trkpt>
      <trkpt lat="47.26511" lon="-1.95088">
        <ele>54</ele>
        <time>2021-09-04T10:04:02.000Z</time>
      </trkpt>
      <trkpt lat="47.26526" lon="-1.95088">
        <ele>53</ele>
        <time>2021-09-04T10:04:04.000Z</time>
      </trkpt>
      <trkpt lat="47.26541" lon="-1.95088">
        <ele>53</ele>
        <time>2021-09-04T10:04:06.000Z</time>
      </trkpt>
      <trkpt lat="47.26556" lon="-1.95088">
        <ele>53</ele>
        <time>2021-09-04T10:04:08.000Z</time>
      </trkpt>
      <trkpt lat="47.26572" lon="-1.95087">
        <ele>53</ele>
        <time>2021-09-04T10:04:10.000Z</time>
      </trkpt>
      <trkpt lat="47.26586" lon="-1.95086">
        <ele>53</ele>
        <time>2021-09-04T10:04:12.000Z</time>
      </trkpt>
      <trkpt lat="47.26601" lon="-1.95081">
        <ele>53</ele>
        <time>2021-09-04T10:04:14.000Z</time>
      </trkpt>
      <trkpt lat="47.26615" lon="-1.95071">
        <ele>53</ele>
        <time>2021-09-04T10:04:16.000Z</time>
      </trkpt>
      <trkpt lat="47.26626" lon="-1.95058">
        <ele>53</ele>
        <time>2021-09-04T10:04:18.000Z</time>
      </trkpt>
      <trkpt lat="47.26637" lon="-1.95044">
        <ele>53</ele>
        <time>2021-09-04T10:04:20.000Z</time>
      </trkpt>
      <trkpt lat="47.26647" lon="-1.95028">
        <ele>53</ele>
        <time>2021-09-04T10:04:22.000Z</time>
      </trkpt>
      <trkpt lat="47.26655" lon="-1.95011">
        <ele>53</ele>
        <time>2021-09-04T10:04:24.000Z</time>
      </trkpt>
      <trkpt lat="47.26663" lon="-1.94993">
        <ele>53</ele>
        <time>2021-09-04T10:04:26.000Z</time>
      </trkpt>
      <trkpt lat="47.2667" lon="-1.94975">
        <ele>53</ele>
        <time>2021-09-04T10:04:28.000Z</time>
      </trkpt>
      <trkpt lat="47.26677" lon="-1.94957">
        <ele>52</ele>
        <time>2021-09-04T10:04:30.000Z</time>
      </trkpt>
      <trkpt lat="47.26684" lon="-1.94939">
        <ele>52</ele>
        <time>2021-09-04T10:04:32.000Z</time>
      </trkpt>
      <trkpt lat="47.26692" lon="-1.94921">
        <ele>52</ele>
        <time>2021-09-04T10:04:34.000Z</time>
      </trkpt>
      <trkpt lat="47.26699" lon="-1.94906">
        <ele>52</ele>
        <time>2021-09-04T10:04:36.000Z</time>
      </trkpt>
      <trkpt lat="47.26709" lon="-1.94893">
        <ele>52</ele>
        <time>2021-09-04T10:04:38.000Z</time>
      </trkpt>
      <trkpt lat="47.2672" lon="-1.9488">
        <ele>52</ele>
        <time>2021-09-04T10:04:40.000Z</time>
      </trkpt>
      <trkpt lat="47.26728" lon="-1.94866">
        <ele>52</ele>
        <time>2021-09-04T10:04:42.000Z</time>
      </trkpt>
      <trkpt lat="47.26727" lon="-1.94846">
        <ele>52</ele>
        <time>2021-09-04T10:04:44.000Z</time>
      </trkpt>
      <trkpt lat="47.26718" lon="-1.94829">
        <ele>52</ele>
        <time>2021-09-04T10:04:46.000Z</time>
      </trkpt>
      <trkpt lat="47.26709" lon="-1.94813">
        <ele>53</ele>
        <time>2021-09-04T10:04:48.000Z</time>
      </trkpt>
      <trkpt lat="47.26701" lon="-1.94796">
        <ele>53</ele>
        <time>2021-09-04T10:04:50.000Z</time>
      </trkpt>
      <trkpt lat="47.26694" lon="-1.94779">
        <ele>53</ele>
        <time>2021-09-04T10:04:52.000Z</time>
      </trkpt>
      <trkpt lat="47.26686" lon="-1.94763">
        <ele>53</ele>
        <time>2021-09-04T10:04:54.000Z</time>
      </trkpt>
      <trkpt lat="47.26678" lon="-1.94747">
        <ele>53</ele>
        <time>2021-09-04T10:04:56.000Z</time>
      </trkpt>
      <trkpt lat="47.2667" lon="-1.94731">
        <ele>54</ele>
        <time>2021-09-04T10:04:58.000Z</time>
      </trkpt>
      <trkpt lat="47.26663" lon="-1.94715">
        <ele>54</ele>
        <time>2021-09-04T10:05:00.000Z</time>
      </trkpt>
      <trkpt lat="47.26655" lon="-1.947">
        <ele>54</ele>
        <time>2021-09-04T10:05:02.000Z</time>
      </trkpt>
      <trkpt lat="47.26648" lon="-1.94683">
        <ele>54</ele>
        <time>2021-09-04T10:05:04.000Z</time>
      </trkpt>
      <trkpt lat="47.26641" lon="-1.94667">
        <ele>54</ele>
        <time>2021-09-04T10:05:06.000Z</time>
      </trkpt>
      <trkpt lat="47.26634" lon="-1.94649">
        <ele>54</ele>
        <time>2021-09-04T10:05:08.000Z</time>
      </trkpt>
      <trkpt lat="47.2663" lon="-1.94631">
        <ele>54</ele>
        <time>2021-09-04T10:05:10.000Z</time>
      </trkpt>
      <trkpt lat="47.26628" lon="-1.94611">
        <ele>54</ele>
        <time>2021-09-04T10:05:12.000Z</time>
      </trkpt>
      <trkpt lat="47.26626" lon="-1.94591">
        <ele>54</ele>
        <time>2021-09-04T10:05:14.000Z</time>
      </trkpt>
      <trkpt lat="47.26625" lon="-1.9457">
        <ele>53</ele>
        <time>2021-09-04T10:05:16.000Z</time>
      </trkpt>
      <trkpt lat="47.26623" lon="-1.94549">
        <ele>52</ele>
        <time>2021-09-04T10:05:18.000Z</time>
      </trkpt>
      <trkpt lat="47.2662" lon="-1.94528">
        <ele>52</ele>
        <time>2021-09-04T10:05:20.000Z</time>
      </trkpt>
      <trkpt lat="47.26616" lon="-1.94508">
        <ele>52</ele>
        <time>2021-09-04T10:05:22.000Z</time>
      </trkpt>
      <trkpt lat="47.26612" lon="-1.94489">
        <ele>52</ele>
        <time>2021-09-04T10:05:24.000Z</time>
      </trkpt>
      <trkpt lat="47.26608" lon="-1.94469">
        <ele>52</ele>
        <time>2021-09-04T10:05:26.000Z</time>
      </trkpt>
      <trkpt lat="47.26603" lon="-1.9445">
        <ele>52</ele>
        <time>2021-09-04T10:05:28.000Z</time>
      </trkpt>
      <trkpt lat="47.26599" lon="-1.94429">
        <ele>52</ele>
        <time>2021-09-04T10:05:30.000Z</time>
      </trkpt>
      <trkpt lat="47.26594" lon="-1.9441">
        <ele>52</ele>
        <time>2021-09-04T10:05:32.000Z</time>
      </trkpt>
      <trkpt lat="47.2659" lon="-1.9439">
        <ele>52</ele>
        <time>2021-09-04T10:05:34.000Z</time>
      </trkpt>
      <trkpt lat="47.26586" lon="-1.9437">
        <ele>52</ele>
        <time>2021-09-04T10:05:36.000Z</time>
      </trkpt>
      <trkpt lat="47.26581" lon="-1.94351">
        <ele>52</ele>
        <time>2021-09-04T10:05:38.000Z</time>
      </trkpt>
      <trkpt lat="47.26578" lon="-1.94332">
        <ele>52</ele>
        <time>2021-09-04T10:05:40.000Z</time>
      </trkpt>
      <trkpt lat="47.26575" lon="-1.94313">
        <ele>52</ele>
        <time>2021-09-04T10:05:42.000Z</time>
      </trkpt>
      <trkpt lat="47.26575" lon="-1.94293">
        <ele>52</ele>
        <time>2021-09-04T10:05:44.000Z</time>
      </trkpt>
      <trkpt lat="47.26576" lon="-1.94273">
        <ele>52</ele>
        <time>2021-09-04T10:05:46.000Z</time>
      </trkpt>
      <trkpt lat="47.26578" lon="-1.94254">
        <ele>52</ele>
        <time>2021-09-04T10:05:48.000Z</time>
      </trkpt>
      <trkpt lat="47.2658" lon="-1.94234">
        <ele>52</ele>
        <time>2021-09-04T10:05:50.000Z</time>
      </trkpt>
      <trkpt lat="47.26582" lon="-1.94214">
        <ele>52</ele>
        <time>2021-09-04T10:05:52.000Z</time>
      </trkpt>
      <trkpt lat="47.26583" lon="-1.94194">
        <ele>52</ele>
        <time>2021-09-04T10:05:54.000Z</time>
      </trkpt>
      <trkpt lat="47.26585" lon="-1.94174">
        <ele>52</ele>
        <time>2021-09-04T10:05:56.000Z</time>
      </trkpt>
      <trkpt lat="47.26584" lon="-1.94153">
        <ele>52</ele>
        <time>2021-09-04T10:05:58.000Z</time>
      </trkpt>
      <trkpt lat="47.26584" lon="-1.94133">
        <ele>52</ele>
        <time>2021-09-04T10:06:00.000Z</time>
      </trkpt>
      <trkpt lat="47.26582" lon="-1.94112">
        <ele>53</ele>
        <time>2021-09-04T10:06:02.000Z</time>
      </trkpt>
      <trkpt lat="47.26581" lon="-1.94091">
        <ele>53</ele>
        <time>2021-09-04T10:06:04.000Z</time>
      </trkpt>
      <trkpt lat="47.26578" lon="-1.94071">
        <ele>53</ele>
        <time>2021-09-04T10:06:06.000Z</time>
      </trkpt>
      <trkpt lat="47.26575" lon="-1.94051">
        <ele>53</ele>
        <time>2021-09-04T10:06:08.000Z</time>
      </trkpt>
      <trkpt lat="47.26571" lon="-1.94032">
        <ele>53</ele>
        <time>2021-09-04T10:06:10.000Z</time>
      </trkpt>
      <trkpt lat="47.26568" lon="-1.94013">
        <ele>53</ele>
        <time>2021-09-04T10:06:12.000Z</time>
      </trkpt>
      <trkpt lat="47.26565" lon="-1.93994">
        <ele>53</ele>
        <time>2021-09-04T10:06:14.000Z</time>
      </trkpt>
      <trkpt lat="47.26561" lon="-1.93974">
        <ele>53</ele>
        <time>2021-09-04T10:06:16.000Z</time>
      </trkpt>
      <trkpt lat="47.26557" lon="-1.93954">
        <ele>52</ele>
        <time>2021-09-04T10:06:18.000Z</time>
      </trkpt>
      <trkpt lat="47.26554" lon="-1.93934">
        <ele>52</ele>
        <time>2021-09-04T10:06:20.000Z</time>
      </trkpt>
      <trkpt lat="47.2655" lon="-1.93916">
        <ele>52</ele>
        <time>2021-09-04T10:06:22.000Z</time>
      </trkpt>
      <trkpt lat="47.26546" lon="-1.93898">
        <ele>52</ele>
        <time>2021-09-04T10:06:24.000Z</time>
      </trkpt>
      <trkpt lat="47.26543" lon="-1.93879">
        <ele>52</ele>
        <time>2021-09-04T10:06:26.000Z</time>
      </trkpt>
      <trkpt lat="47.2654" lon="-1.93859">
        <ele>52</ele>
        <time>2021-09-04T10:06:28.000Z</time>
      </trkpt>
      <trkpt lat="47.26536" lon="-1.93839">
        <ele>52</ele>
        <time>2021-09-04T10:06:30.000Z</time>
      </trkpt>
      <trkpt lat="47.26533" lon="-1.93818">
        <ele>52</ele>
        <time>2021-09-04T10:06:32.000Z</time>
      </trkpt>
      <trkpt lat="47.26529" lon="-1.93799">
        <ele>52</ele>
        <time>2021-09-04T10:06:34.000Z</time>
      </trkpt>
      <trkpt lat="47.26525" lon="-1.9378">
        <ele>52</ele>
        <time>2021-09-04T10:06:36.000Z</time>
      </trkpt>
      <trkpt lat="47.26522" lon="-1.93759">
        <ele>52</ele>
        <time>2021-09-04T10:06:38.000Z</time>
      </trkpt>
      <trkpt lat="47.26518" lon="-1.93739">
        <ele>52</ele>
        <time>2021-09-04T10:06:40.000Z</time>
      </trkpt>
      <trkpt lat="47.26515" lon="-1.9372">
        <ele>52</ele>
        <time>2021-09-04T10:06:42.000Z</time>
      </trkpt>
      <trkpt lat="47.26511" lon="-1.93701">
        <ele>52</ele>
        <time>2021-09-04T10:06:44.000Z</time>
      </trkpt>
      <trkpt lat="47.26508" lon="-1.93681">
        <ele>52</ele>
        <time>2021-09-04T10:06:46.000Z</time>
      </trkpt>
      <trkpt lat="47.26504" lon="-1.93662">
        <ele>52</ele>
        <time>2021-09-04T10:06:48.000Z</time>
      </trkpt>
      <trkpt lat="47.26502" lon="-1.93642">
        <ele>52</ele>
        <time>2021-09-04T10:06:50.000Z</time>
      </trkpt>
      <trkpt lat="47.26498" lon="-1.93622">
        <ele>52</ele>
        <time>2021-09-04T10:06:52.000Z</time>
      </trkpt>
      <trkpt lat="47.26494" lon="-1.93603">
        <ele>52</ele>
        <time>2021-09-04T10:06:54.000Z</time>
      </trkpt>
      <trkpt lat="47.26491" lon="-1.93583">
        <ele>52</ele>
        <time>2021-09-04T10:06:56.000Z</time>
      </trkpt>
      <trkpt lat="47.26487" lon="-1.93565">
        <ele>52</ele>
        <time>2021-09-04T10:06:58.000Z</time>
      </trkpt>
      <trkpt lat="47.26484" lon="-1.93546">
        <ele>52</ele>
        <time>2021-09-04T10:07:00.000Z</time>
      </trkpt>
      <trkpt lat="47.2648" lon="-1.93527">
        <ele>52</ele>
        <time>2021-09-04T10:07:02.000Z</time>
      </trkpt>
      <trkpt lat="47.26477" lon="-1.93508">
        <ele>52</ele>
        <time>2021-09-04T10:07:04.000Z</time>
      </trkpt>
      <trkpt lat="47.26473" lon="-1.93488">
        <ele>51</ele>
        <time>2021-09-04T10:07:06.000Z</time>
      </trkpt>
      <trkpt lat="47.26469" lon="-1.93468">
        <ele>51</ele>
        <time>2021-09-04T10:07:08.000Z</time>
      </trkpt>
      <trkpt lat="47.26466" lon="-1.93448">
        <ele>51</ele>
        <time>2021-09-04T10:07:10.000Z</time>
      </trkpt>
      <trkpt lat="47.26463" lon="-1.93428">
        <ele>52</ele>
        <time>2021-09-04T10:07:12.000Z</time>
      </trkpt>
      <trkpt lat="47.2646" lon="-1.93408">
        <ele>52</ele>
        <time>2021-09-04T10:07:14.000Z</time>
      </trkpt>
      <trkpt lat="47.26458" lon="-1.93389">
        <ele>51</ele>
        <time>2021-09-04T10:07:16.000Z</time>
      </trkpt>
      <trkpt lat="47.26458" lon="-1.93369">
        <ele>51</ele>
        <time>2021-09-04T10:07:18.000Z</time>
      </trkpt>
      <trkpt lat="47.26457" lon="-1.93349">
        <ele>52</ele>
        <time>2021-09-04T10:07:20.000Z</time>
      </trkpt>
      <trkpt lat="47.26455" lon="-1.93329">
        <ele>52</ele>
        <time>2021-09-04T10:07:22.000Z</time>
      </trkpt>
      <trkpt lat="47.26452" lon="-1.9331">
        <ele>52</ele>
        <time>2021-09-04T10:07:24.000Z</time>
      </trkpt>
      <trkpt lat="47.26448" lon="-1.93291">
        <ele>52</ele>
        <time>2021-09-04T10:07:26.000Z</time>
      </trkpt>
      <trkpt lat="47.26444" lon="-1.93271">
        <ele>52</ele>
        <time>2021-09-04T10:07:28.000Z</time>
      </trkpt>
      <trkpt lat="47.2644" lon="-1.93252">
        <ele>52</ele>
        <time>2021-09-04T10:07:30.000Z</time>
      </trkpt>
      <trkpt lat="47.26436" lon="-1.93232">
        <ele>52</ele>
        <time>2021-09-04T10:07:32.000Z</time>
      </trkpt>
      <trkpt lat="47.26433" lon="-1.93213">
        <ele>52</ele>
        <time>2021-09-04T10:07:34.000Z</time>
      </trkpt>
      <trkpt lat="47.26429" lon="-1.93194">
        <ele>52</ele>
        <time>2021-09-04T10:07:36.000Z</time>
      </trkpt>
      <trkpt lat="47.26426" lon="-1.93178">
        <ele>53</ele>
        <time>2021-09-04T10:07:38.000Z</time>
      </trkpt>
      <trkpt lat="47.26423" lon="-1.93157">
        <ele>53</ele>
        <time>2021-09-04T10:07:40.000Z</time>
      </trkpt>
      <trkpt lat="47.26419" lon="-1.93138">
        <ele>53</ele>
        <time>2021-09-04T10:07:42.000Z</time>
      </trkpt>
      <trkpt lat="47.26415" lon="-1.93118">
        <ele>52</ele>
        <time>2021-09-04T10:07:44.000Z</time>
      </trkpt>
      <trkpt lat="47.26412" lon="-1.93099">
        <ele>52</ele>
        <time>2021-09-04T10:07:46.000Z</time>
      </trkpt>
      <trkpt lat="47.26408" lon="-1.93079">
        <ele>52</ele>
        <time>2021-09-04T10:07:48.000Z</time>
      </trkpt>
      <trkpt lat="47.26403" lon="-1.93061">
        <ele>52</ele>
        <time>2021-09-04T10:07:50.000Z</time>
      </trkpt>
      <trkpt lat="47.26398" lon="-1.93043">
        <ele>53</ele>
        <time>2021-09-04T10:07:52.000Z</time>
      </trkpt>
      <trkpt lat="47.26392" lon="-1.93025">
        <ele>54</ele>
        <time>2021-09-04T10:07:54.000Z</time>
      </trkpt>
      <trkpt lat="47.26386" lon="-1.93006">
        <ele>54</ele>
        <time>2021-09-04T10:07:56.000Z</time>
      </trkpt>
      <trkpt lat="47.26382" lon="-1.92987">
        <ele>54</ele>
        <time>2021-09-04T10:07:58.000Z</time>
      </trkpt>
      <trkpt lat="47.26378" lon="-1.92966">
        <ele>54</ele>
        <time>2021-09-04T10:08:00.000Z</time>
      </trkpt>
      <trkpt lat="47.26375" lon="-1.92946">
        <ele>53</ele>
        <time>2021-09-04T10:08:02.000Z</time>
      </trkpt>
      <trkpt lat="47.26371" lon="-1.92926">
        <ele>53</ele>
        <time>2021-09-04T10:08:04.000Z</time>
      </trkpt>
      <trkpt lat="47.26367" lon="-1.92906">
        <ele>53</ele>
        <time>2021-09-04T10:08:06.000Z</time>
      </trkpt>
      <trkpt lat="47.26364" lon="-1.92886">
        <ele>52</ele>
        <time>2021-09-04T10:08:08.000Z</time>
      </trkpt>
      <trkpt lat="47.2636" lon="-1.92865">
        <ele>52</ele>
        <time>2021-09-04T10:08:10.000Z</time>
      </trkpt>
      <trkpt lat="47.26356" lon="-1.92845">
        <ele>52</ele>
        <time>2021-09-04T10:08:12.000Z</time>
      </trkpt>
      <trkpt lat="47.26352" lon="-1.92826">
        <ele>52</ele>
        <time>2021-09-04T10:08:14.000Z</time>
      </trkpt>
      <trkpt lat="47.26348" lon="-1.92806">
        <ele>52</ele>
        <time>2021-09-04T10:08:16.000Z</time>
      </trkpt>
      <trkpt lat="47.26345" lon="-1.92786">
        <ele>51</ele>
        <time>2021-09-04T10:08:18.000Z</time>
      </trkpt>
      <trkpt lat="47.26341" lon="-1.92766">
        <ele>51</ele>
        <time>2021-09-04T10:08:20.000Z</time>
      </trkpt>
      <trkpt lat="47.26337" lon="-1.92747">
        <ele>51</ele>
        <time>2021-09-04T10:08:22.000Z</time>
      </trkpt>
      <trkpt lat="47.26333" lon="-1.92727">
        <ele>51</ele>
        <time>2021-09-04T10:08:24.000Z</time>
      </trkpt>
      <trkpt lat="47.2633" lon="-1.92707">
        <ele>51</ele>
        <time>2021-09-04T10:08:26.000Z</time>
      </trkpt>
      <trkpt lat="47.26326" lon="-1.92688">
        <ele>51</ele>
        <time>2021-09-04T10:08:28.000Z</time>
      </trkpt>
      <trkpt lat="47.26322" lon="-1.92669">
        <ele>50</ele>
        <time>2021-09-04T10:08:30.000Z</time>
      </trkpt>
      <trkpt lat="47.26319" lon="-1.9265">
        <ele>51</ele>
        <time>2021-09-04T10:08:32.000Z</time>
      </trkpt>
      <trkpt lat="47.26315" lon="-1.92631">
        <ele>51</ele>
        <time>2021-09-04T10:08:34.000Z</time>
      </trkpt>
      <trkpt lat="47.26311" lon="-1.92613">
        <ele>51</ele>
        <time>2021-09-04T10:08:36.000Z</time>
      </trkpt>
      <trkpt lat="47.26307" lon="-1.92594">
        <ele>51</ele>
        <time>2021-09-04T10:08:38.000Z</time>
      </trkpt>
      <trkpt lat="47.26304" lon="-1.92575">
        <ele>51</ele>
        <time>2021-09-04T10:08:40.000Z</time>
      </trkpt>
      <trkpt lat="47.26299" lon="-1.92556">
        <ele>51</ele>
        <time>2021-09-04T10:08:42.000Z</time>
      </trkpt>
      <trkpt lat="47.26294" lon="-1.92537">
        <ele>51</ele>
        <time>2021-09-04T10:08:44.000Z</time>
      </trkpt>
      <trkpt lat="47.26289" lon="-1.92518">
        <ele>51</ele>
        <time>2021-09-04T10:08:46.000Z</time>
      </trkpt>
      <trkpt lat="47.26284" lon="-1.925">
        <ele>51</ele>
        <time>2021-09-04T10:08:48.000Z</time>
      </trkpt>
      <trkpt lat="47.26279" lon="-1.92482">
        <ele>51</ele>
        <time>2021-09-04T10:08:50.000Z</time>
      </trkpt>
      <trkpt lat="47.26274" lon="-1.92464">
        <ele>51</ele>
        <time>2021-09-04T10:08:52.000Z</time>
      </trkpt>
      <trkpt lat="47.26269" lon="-1.92445">
        <ele>51</ele>
        <time>2021-09-04T10:08:54.000Z</time>
      </trkpt>
      <trkpt lat="47.26264" lon="-1.92427">
        <ele>51</ele>
        <time>2021-09-04T10:08:56.000Z</time>
      </trkpt>
      <trkpt lat="47.26259" lon="-1.92408">
        <ele>51</ele>
        <time>2021-09-04T10:08:58.000Z</time>
      </trkpt>
      <trkpt lat="47.26253" lon="-1.9239">
        <ele>51</ele>
        <time>2021-09-04T10:09:00.000Z</time>
      </trkpt>
      <trkpt lat="47.26248" lon="-1.92371">
        <ele>51</ele>
        <time>2021-09-04T10:09:02.000Z</time>
      </trkpt>
      <trkpt lat="47.26243" lon="-1.92354">
        <ele>51</ele>
        <time>2021-09-04T10:09:04.000Z</time>
      </trkpt>
      <trkpt lat="47.26238" lon="-1.92337">
        <ele>50</ele>
        <time>2021-09-04T10:09:06.000Z</time>
      </trkpt>
      <trkpt lat="47.26232" lon="-1.92319">
        <ele>50</ele>
        <time>2021-09-04T10:09:08.000Z</time>
      </trkpt>
      <trkpt lat="47.26227" lon="-1.92302">
        <ele>51</ele>
        <time>2021-09-04T10:09:10.000Z</time>
      </trkpt>
      <trkpt lat="47.26221" lon="-1.92284">
        <ele>52</ele>
        <time>2021-09-04T10:09:12.000Z</time>
      </trkpt>
      <trkpt lat="47.26216" lon="-1.92267">
        <ele>52</ele>
        <time>2021-09-04T10:09:14.000Z</time>
      </trkpt>
      <trkpt lat="47.2621" lon="-1.92248">
        <ele>52</ele>
        <time>2021-09-04T10:09:16.000Z</time>
      </trkpt>
      <trkpt lat="47.26204" lon="-1.9223">
        <ele>52</ele>
        <time>2021-09-04T10:09:18.000Z</time>
      </trkpt>
      <trkpt lat="47.26198" lon="-1.92213">
        <ele>52</ele>
        <time>2021-09-04T10:09:20.000Z</time>
      </trkpt>
      <trkpt lat="47.26192" lon="-1.92195">
        <ele>52</ele>
        <time>2021-09-04T10:09:22.000Z</time>
      </trkpt>
      <trkpt lat="47.26185" lon="-1.92177">
        <ele>52</ele>
        <time>2021-09-04T10:09:24.000Z</time>
      </trkpt>
      <trkpt lat="47.26179" lon="-1.9216">
        <ele>51</ele>
        <time>2021-09-04T10:09:26.000Z</time>
      </trkpt>
      <trkpt lat="47.26173" lon="-1.92142">
        <ele>51</ele>
        <time>2021-09-04T10:09:28.000Z</time>
      </trkpt>
      <trkpt lat="47.26166" lon="-1.92124">
        <ele>51</ele>
        <time>2021-09-04T10:09:30.000Z</time>
      </trkpt>
      <trkpt lat="47.2616" lon="-1.92106">
        <ele>51</ele>
        <time>2021-09-04T10:09:32.000Z</time>
      </trkpt>
      <trkpt lat="47.26153" lon="-1.92088">
        <ele>51</ele>
        <time>2021-09-04T10:09:34.000Z</time>
      </trkpt>
      <trkpt lat="47.26146" lon="-1.9207">
        <ele>51</ele>
        <time>2021-09-04T10:09:36.000Z</time>
      </trkpt>
      <trkpt lat="47.26139" lon="-1.92052">
        <ele>51</ele>
        <time>2021-09-04T10:09:38.000Z</time>
      </trkpt>
      <trkpt lat="47.26133" lon="-1.92034">
        <ele>51</ele>
        <time>2021-09-04T10:09:40.000Z</time>
      </trkpt>
      <trkpt lat="47.26126" lon="-1.92017">
        <ele>51</ele>
        <time>2021-09-04T10:09:42.000Z</time>
      </trkpt>
      <trkpt lat="47.26118" lon="-1.92002">
        <ele>51</ele>
        <time>2021-09-04T10:09:44.000Z</time>
      </trkpt>
      <trkpt lat="47.26113" lon="-1.91985">
        <ele>51</ele>
        <time>2021-09-04T10:09:46.000Z</time>
      </trkpt>
      <trkpt lat="47.26109" lon="-1.91966">
        <ele>52</ele>
        <time>2021-09-04T10:09:48.000Z</time>
      </trkpt>
      <trkpt lat="47.26103" lon="-1.91947">
        <ele>53</ele>
        <time>2021-09-04T10:09:50.000Z</time>
      </trkpt>
      <trkpt lat="47.26095" lon="-1.91931">
        <ele>52</ele>
        <time>2021-09-04T10:09:52.000Z</time>
      </trkpt>
      <trkpt lat="47.26086" lon="-1.91917">
        <ele>52</ele>
        <time>2021-09-04T10:09:54.000Z</time>
      </trkpt>
      <trkpt lat="47.26077" lon="-1.91902">
        <ele>53</ele>
        <time>2021-09-04T10:09:56.000Z</time>
      </trkpt>
      <trkpt lat="47.26071" lon="-1.91886">
        <ele>53</ele>
        <time>2021-09-04T10:09:58.000Z</time>
      </trkpt>
      <trkpt lat="47.26064" lon="-1.91869">
        <ele>53</ele>
        <time>2021-09-04T10:10:00.000Z</time>
      </trkpt>
      <trkpt lat="47.26059" lon="-1.9185">
        <ele>53</ele>
        <time>2021-09-04T10:10:02.000Z</time>
      </trkpt>
      <trkpt lat="47.26052" lon="-1.91831">
        <ele>52</ele>
        <time>2021-09-04T10:10:04.000Z</time>
      </trkpt>
      <trkpt lat="47.26044" lon="-1.91814">
        <ele>52</ele>
        <time>2021-09-04T10:10:06.000Z</time>
      </trkpt>
      <trkpt lat="47.26037" lon="-1.91796">
        <ele>52</ele>
        <time>2021-09-04T10:10:08.000Z</time>
      </trkpt>
      <trkpt lat="47.26028" lon="-1.91778">
        <ele>51</ele>
        <time>2021-09-04T10:10:10.000Z</time>
      </trkpt>
      <trkpt lat="47.2602" lon="-1.91761">
        <ele>51</ele>
        <time>2021-09-04T10:10:12.000Z</time>
      </trkpt>
      <trkpt lat="47.26012" lon="-1.91745">
        <ele>51</ele>
        <time>2021-09-04T10:10:14.000Z</time>
      </trkpt>
      <trkpt lat="47.26003" lon="-1.91729">
        <ele>51</ele>
        <time>2021-09-04T10:10:16.000Z</time>
      </trkpt>
      <trkpt lat="47.25994" lon="-1.91713">
        <ele>51</ele>
        <time>2021-09-04T10:10:18.000Z</time>
      </trkpt>
      <trkpt lat="47.25985" lon="-1.91696">
        <ele>51</ele>
        <time>2021-09-04T10:10:20.000Z</time>
      </trkpt>
      <trkpt lat="47.25977" lon="-1.91679">
        <ele>52</ele>
        <time>2021-09-04T10:10:22.000Z</time>
      </trkpt>
      <trkpt lat="47.25968" lon="-1.91662">
        <ele>52</ele>
        <time>2021-09-04T10:10:24.000Z</time>
      </trkpt>
      <trkpt lat="47.25959" lon="-1.91646">
        <ele>51</ele>
        <time>2021-09-04T10:10:26.000Z</time>
      </trkpt>
      <trkpt lat="47.2595" lon="-1.91629">
        <ele>52</ele>
        <time>2021-09-04T10:10:28.000Z</time>
      </trkpt>
      <trkpt lat="47.25942" lon="-1.91613">
        <ele>51</ele>
        <time>2021-09-04T10:10:30.000Z</time>
      </trkpt>
      <trkpt lat="47.25933" lon="-1.91597">
        <ele>51</ele>
        <time>2021-09-04T10:10:32.000Z</time>
      </trkpt>
      <trkpt lat="47.25925" lon="-1.91582">
        <ele>51</ele>
        <time>2021-09-04T10:10:34.000Z</time>
      </trkpt>
      <trkpt lat="47.25916" lon="-1.91567">
        <ele>52</ele>
        <time>2021-09-04T10:10:36.000Z</time>
      </trkpt>
      <trkpt lat="47.25908" lon="-1.91552">
        <ele>52</ele>
        <time>2021-09-04T10:10:38.000Z</time>
      </trkpt>
      <trkpt lat="47.25899" lon="-1.91536">
        <ele>52</ele>
        <time>2021-09-04T10:10:40.000Z</time>
      </trkpt>
      <trkpt lat="47.2589" lon="-1.91519">
        <ele>52</ele>
        <time>2021-09-04T10:10:42.000Z</time>
      </trkpt>
      <trkpt lat="47.25881" lon="-1.91503">
        <ele>52</ele>
        <time>2021-09-04T10:10:44.000Z</time>
      </trkpt>
      <trkpt lat="47.25873" lon="-1.91487">
        <ele>52</ele>
        <time>2021-09-04T10:10:46.000Z</time>
      </trkpt>
      <trkpt lat="47.25865" lon="-1.91471">
        <ele>52</ele>
        <time>2021-09-04T10:10:48.000Z</time>
      </trkpt>
      <trkpt lat="47.25857" lon="-1.91455">
        <ele>52</ele>
        <time>2021-09-04T10:10:50.000Z</time>
      </trkpt>
      <trkpt lat="47.25849" lon="-1.9144">
        <ele>52</ele>
        <time>2021-09-04T10:10:52.000Z</time>
      </trkpt>
      <trkpt lat="47.2584" lon="-1.91425">
        <ele>52</ele>
        <time>2021-09-04T10:10:54.000Z</time>
      </trkpt>
      <trkpt lat="47.25832" lon="-1.9141">
        <ele>52</ele>
        <time>2021-09-04T10:10:56.000Z</time>
      </trkpt>
      <trkpt lat="47.25823" lon="-1.91394">
        <ele>52</ele>
        <time>2021-09-04T10:10:58.000Z</time>
      </trkpt>
      <trkpt lat="47.25814" lon="-1.9138">
        <ele>51</ele>
        <time>2021-09-04T10:11:00.000Z</time>
      </trkpt>
      <trkpt lat="47.25804" lon="-1.91365">
        <ele>51</ele>
        <time>2021-09-04T10:11:02.000Z</time>
      </trkpt>
      <trkpt lat="47.25796" lon="-1.9135">
        <ele>51</ele>
        <time>2021-09-04T10:11:04.000Z</time>
      </trkpt>
      <trkpt lat="47.25788" lon="-1.91333">
        <ele>52</ele>
        <time>2021-09-04T10:11:06.000Z</time>
      </trkpt>
      <trkpt lat="47.25779" lon="-1.91316">
        <ele>52</ele>
        <time>2021-09-04T10:11:08.000Z</time>
      </trkpt>
      <trkpt lat="47.2577" lon="-1.913">
        <ele>52</ele>
        <time>2021-09-04T10:11:10.000Z</time>
      </trkpt>
      <trkpt lat="47.25761" lon="-1.91284">
        <ele>52</ele>
        <time>2021-09-04T10:11:12.000Z</time>
      </trkpt>
      <trkpt lat="47.25753" lon="-1.91268">
        <ele>52</ele>
        <time>2021-09-04T10:11:14.000Z</time>
      </trkpt>
      <trkpt lat="47.25744" lon="-1.91252">
        <ele>52</ele>
        <time>2021-09-04T10:11:16.000Z</time>
      </trkpt>
      <trkpt lat="47.25735" lon="-1.91236">
        <ele>52</ele>
        <time>2021-09-04T10:11:18.000Z</time>
      </trkpt>
      <trkpt lat="47.25727" lon="-1.9122">
        <ele>52</ele>
        <time>2021-09-04T10:11:20.000Z</time>
      </trkpt>
      <trkpt lat="47.25718" lon="-1.91204">
        <ele>51</ele>
        <time>2021-09-04T10:11:22.000Z</time>
      </trkpt>
      <trkpt lat="47.25709" lon="-1.91188">
        <ele>51</ele>
        <time>2021-09-04T10:11:24.000Z</time>
      </trkpt>
      <trkpt lat="47.257" lon="-1.91172">
        <ele>51</ele>
        <time>2021-09-04T10:11:26.000Z</time>
      </trkpt>
      <trkpt lat="47.25691" lon="-1.91156">
        <ele>51</ele>
        <time>2021-09-04T10:11:28.000Z</time>
      </trkpt>
      <trkpt lat="47.25683" lon="-1.9114">
        <ele>51</ele>
        <time>2021-09-04T10:11:30.000Z</time>
      </trkpt>
      <trkpt lat="47.25674" lon="-1.91124">
        <ele>51</ele>
        <time>2021-09-04T10:11:32.000Z</time>
      </trkpt>
      <trkpt lat="47.25665" lon="-1.91109">
        <ele>51</ele>
        <time>2021-09-04T10:11:34.000Z</time>
      </trkpt>
      <trkpt lat="47.25656" lon="-1.91093">
        <ele>51</ele>
        <time>2021-09-04T10:11:36.000Z</time>
      </trkpt>
      <trkpt lat="47.25648" lon="-1.91077">
        <ele>51</ele>
        <time>2021-09-04T10:11:38.000Z</time>
      </trkpt>
      <trkpt lat="47.2564" lon="-1.91061">
        <ele>51</ele>
        <time>2021-09-04T10:11:40.000Z</time>
      </trkpt>
      <trkpt lat="47.25631" lon="-1.91045">
        <ele>51</ele>
        <time>2021-09-04T10:11:42.000Z</time>
      </trkpt>
      <trkpt lat="47.25622" lon="-1.91029">
        <ele>51</ele>
        <time>2021-09-04T10:11:44.000Z</time>
      </trkpt>
      <trkpt lat="47.25614" lon="-1.91013">
        <ele>51</ele>
        <time>2021-09-04T10:11:46.000Z</time>
      </trkpt>
      <trkpt lat="47.25604" lon="-1.90997">
        <ele>52</ele>
        <time>2021-09-04T10:11:48.000Z</time>
      </trkpt>
      <trkpt lat="47.25595" lon="-1.90981">
        <ele>52</ele>
        <time>2021-09-04T10:11:50.000Z</time>
      </trkpt>
      <trkpt lat="47.25586" lon="-1.90964">
        <ele>52</ele>
        <time>2021-09-04T10:11:52.000Z</time>
      </trkpt>
      <trkpt lat="47.25578" lon="-1.90948">
        <ele>52</ele>
        <time>2021-09-04T10:11:54.000Z</time>
      </trkpt>
      <trkpt lat="47.25569" lon="-1.90933">
        <ele>52</ele>
        <time>2021-09-04T10:11:56.000Z</time>
      </trkpt>
      <trkpt lat="47.25561" lon="-1.90917">
        <ele>52</ele>
        <time>2021-09-04T10:11:58.000Z</time>
      </trkpt>
      <trkpt lat="47.25552" lon="-1.90902">
        <ele>53</ele>
        <time>2021-09-04T10:12:00.000Z</time>
      </trkpt>
      <trkpt lat="47.25544" lon="-1.90887">
        <ele>53</ele>
        <time>2021-09-04T10:12:02.000Z</time>
      </trkpt>
      <trkpt lat="47.25534" lon="-1.90871">
        <ele>53</ele>
        <time>2021-09-04T10:12:04.000Z</time>
      </trkpt>
      <trkpt lat="47.25526" lon="-1.90855">
        <ele>53</ele>
        <time>2021-09-04T10:12:06.000Z</time>
      </trkpt>
      <trkpt lat="47.25517" lon="-1.90839">
        <ele>53</ele>
        <time>2021-09-04T10:12:08.000Z</time>
      </trkpt>
      <trkpt lat="47.25509" lon="-1.90824">
        <ele>53</ele>
        <time>2021-09-04T10:12:10.000Z</time>
      </trkpt>
      <trkpt lat="47.25501" lon="-1.90808">
        <ele>52</ele>
        <time>2021-09-04T10:12:12.000Z</time>
      </trkpt>
      <trkpt lat="47.25492" lon="-1.90793">
        <ele>52</ele>
        <time>2021-09-04T10:12:14.000Z</time>
      </trkpt>
      <trkpt lat="47.25484" lon="-1.90776">
        <ele>52</ele>
        <time>2021-09-04T10:12:16.000Z</time>
      </trkpt>
      <trkpt lat="47.25475" lon="-1.90761">
        <ele>52</ele>
        <time>2021-09-04T10:12:18.000Z</time>
      </trkpt>
      <trkpt lat="47.25466" lon="-1.90744">
        <ele>51</ele>
        <time>2021-09-04T10:12:20.000Z</time>
      </trkpt>
      <trkpt lat="47.25457" lon="-1.90728">
        <ele>51</ele>
        <time>2021-09-04T10:12:22.000Z</time>
      </trkpt>
      <trkpt lat="47.25448" lon="-1.90712">
        <ele>51</ele>
        <time>2021-09-04T10:12:24.000Z</time>
      </trkpt>
      <trkpt lat="47.2544" lon="-1.90697">
        <ele>51</ele>
        <time>2021-09-04T10:12:26.000Z</time>
      </trkpt>
      <trkpt lat="47.25431" lon="-1.90681">
        <ele>51</ele>
        <time>2021-09-04T10:12:28.000Z</time>
      </trkpt>
      <trkpt lat="47.25422" lon="-1.90666">
        <ele>51</ele>
        <time>2021-09-04T10:12:30.000Z</time>
      </trkpt>
      <trkpt lat="47.25413" lon="-1.90651">
        <ele>51</ele>
        <time>2021-09-04T10:12:32.000Z</time>
      </trkpt>
      <trkpt lat="47.25405" lon="-1.90635">
        <ele>51</ele>
        <time>2021-09-04T10:12:34.000Z</time>
      </trkpt>
      <trkpt lat="47.25397" lon="-1.90619">
        <ele>52</ele>
        <time>2021-09-04T10:12:36.000Z</time>
      </trkpt>
      <trkpt lat="47.25388" lon="-1.90604">
        <ele>52</ele>
        <time>2021-09-04T10:12:38.000Z</time>
      </trkpt>
      <trkpt lat="47.2538" lon="-1.90588">
        <ele>52</ele>
        <time>2021-09-04T10:12:40.000Z</time>
      </trkpt>
      <trkpt lat="47.25371" lon="-1.90572">
        <ele>52</ele>
        <time>2021-09-04T10:12:42.000Z</time>
      </trkpt>
      <trkpt lat="47.25362" lon="-1.90556">
        <ele>52</ele>
        <time>2021-09-04T10:12:44.000Z</time>
      </trkpt>
      <trkpt lat="47.25354" lon="-1.90541">
        <ele>52</ele>
        <time>2021-09-04T10:12:46.000Z</time>
      </trkpt>
      <trkpt lat="47.25345" lon="-1.90525">
        <ele>52</ele>
        <time>2021-09-04T10:12:48.000Z</time>
      </trkpt>
      <trkpt lat="47.25337" lon="-1.90509">
        <ele>52</ele>
        <time>2021-09-04T10:12:50.000Z</time>
      </trkpt>
      <trkpt lat="47.25328" lon="-1.90493">
        <ele>52</ele>
        <time>2021-09-04T10:12:52.000Z</time>
      </trkpt>
      <trkpt lat="47.25319" lon="-1.90477">
        <ele>52</ele>
        <time>2021-09-04T10:12:54.000Z</time>
      </trkpt>
      <trkpt lat="47.2531" lon="-1.90461">
        <ele>52</ele>
        <time>2021-09-04T10:12:56.000Z</time>
      </trkpt>
      <trkpt lat="47.253" lon="-1.90445">
        <ele>52</ele>
        <time>2021-09-04T10:12:58.000Z</time>
      </trkpt>
      <trkpt lat="47.25292" lon="-1.90429">
        <ele>52</ele>
        <time>2021-09-04T10:13:00.000Z</time>
      </trkpt>
      <trkpt lat="47.25283" lon="-1.90414">
        <ele>52</ele>
        <time>2021-09-04T10:13:02.000Z</time>
      </trkpt>
      <trkpt lat="47.25274" lon="-1.90399">
        <ele>52</ele>
        <time>2021-09-04T10:13:04.000Z</time>
      </trkpt>
      <trkpt lat="47.25266" lon="-1.90383">
        <ele>52</ele>
        <time>2021-09-04T10:13:06.000Z</time>
      </trkpt>
      <trkpt lat="47.25258" lon="-1.90368">
        <ele>52</ele>
        <time>2021-09-04T10:13:08.000Z</time>
      </trkpt>
      <trkpt lat="47.25249" lon="-1.90352">
        <ele>52</ele>
        <time>2021-09-04T10:13:10.000Z</time>
      </trkpt>
      <trkpt lat="47.25241" lon="-1.90337">
        <ele>51</ele>
        <time>2021-09-04T10:13:12.000Z</time>
      </trkpt>
      <trkpt lat="47.25233" lon="-1.90322">
        <ele>52</ele>
        <time>2021-09-04T10:13:14.000Z</time>
      </trkpt>
      <trkpt lat="47.25225" lon="-1.90307">
        <ele>52</ele>
        <time>2021-09-04T10:13:16.000Z</time>
      </trkpt>
      <trkpt lat="47.25217" lon="-1.90291">
        <ele>52</ele>
        <time>2021-09-04T10:13:18.000Z</time>
      </trkpt>
      <trkpt lat="47.25209" lon="-1.90275">
        <ele>52</ele>
        <time>2021-09-04T10:13:20.000Z</time>
      </trkpt>
      <trkpt lat="47.252" lon="-1.9026">
        <ele>52</ele>
        <time>2021-09-04T10:13:22.000Z</time>
      </trkpt>
      <trkpt lat="47.25191" lon="-1.90244">
        <ele>52</ele>
        <time>2021-09-04T10:13:24.000Z</time>
      </trkpt>
      <trkpt lat="47.25183" lon="-1.90228">
        <ele>52</ele>
        <time>2021-09-04T10:13:26.000Z</time>
      </trkpt>
      <trkpt lat="47.25174" lon="-1.90213">
        <ele>52</ele>
        <time>2021-09-04T10:13:28.000Z</time>
      </trkpt>
      <trkpt lat="47.25166" lon="-1.90198">
        <ele>52</ele>
        <time>2021-09-04T10:13:30.000Z</time>
      </trkpt>
      <trkpt lat="47.25158" lon="-1.90183">
        <ele>52</ele>
        <time>2021-09-04T10:13:32.000Z</time>
      </trkpt>
      <trkpt lat="47.25149" lon="-1.90167">
        <ele>51</ele>
        <time>2021-09-04T10:13:34.000Z</time>
      </trkpt>
      <trkpt lat="47.2514" lon="-1.9015">
        <ele>51</ele>
        <time>2021-09-04T10:13:36.000Z</time>
      </trkpt>
      <trkpt lat="47.25132" lon="-1.90135">
        <ele>51</ele>
        <time>2021-09-04T10:13:38.000Z</time>
      </trkpt>
      <trkpt lat="47.25122" lon="-1.90121">
        <ele>51</ele>
        <time>2021-09-04T10:13:40.000Z</time>
      </trkpt>
      <trkpt lat="47.25111" lon="-1.90111">
        <ele>52</ele>
        <time>2021-09-04T10:13:42.000Z</time>
      </trkpt>
      <trkpt lat="47.25099" lon="-1.90104">
        <ele>52</ele>
        <time>2021-09-04T10:13:44.000Z</time>
      </trkpt>
      <trkpt lat="47.25087" lon="-1.901">
        <ele>52</ele>
        <time>2021-09-04T10:13:46.000Z</time>
      </trkpt>
      <trkpt lat="47.25074" lon="-1.90095">
        <ele>52</ele>
        <time>2021-09-04T10:13:48.000Z</time>
      </trkpt>
      <trkpt lat="47.25063" lon="-1.90086">
        <ele>52</ele>
        <time>2021-09-04T10:13:50.000Z</time>
      </trkpt>
      <trkpt lat="47.25053" lon="-1.90073">
        <ele>52</ele>
        <time>2021-09-04T10:13:52.000Z</time>
      </trkpt>
      <trkpt lat="47.25044" lon="-1.9006">
        <ele>54</ele>
        <time>2021-09-04T10:13:54.000Z</time>
      </trkpt>
      <trkpt lat="47.25036" lon="-1.90045">
        <ele>54</ele>
        <time>2021-09-04T10:13:56.000Z</time>
      </trkpt>
      <trkpt lat="47.25028" lon="-1.90029">
        <ele>54</ele>
        <time>2021-09-04T10:13:58.000Z</time>
      </trkpt>
      <trkpt lat="47.25021" lon="-1.90012">
        <ele>53</ele>
        <time>2021-09-04T10:14:00.000Z</time>
      </trkpt>
      <trkpt lat="47.25014" lon="-1.89996">
        <ele>53</ele>
        <time>2021-09-04T10:14:02.000Z</time>
      </trkpt>
      <trkpt lat="47.25006" lon="-1.8998">
        <ele>53</ele>
        <time>2021-09-04T10:14:04.000Z</time>
      </trkpt>
      <trkpt lat="47.24999" lon="-1.89964">
        <ele>52</ele>
        <time>2021-09-04T10:14:06.000Z</time>
      </trkpt>
      <trkpt lat="47.24991" lon="-1.89948">
        <ele>52</ele>
        <time>2021-09-04T10:14:08.000Z</time>
      </trkpt>
      <trkpt lat="47.24984" lon="-1.89931">
        <ele>52</ele>
        <time>2021-09-04T10:14:10.000Z</time>
      </trkpt>
      <trkpt lat="47.24978" lon="-1.89914">
        <ele>52</ele>
        <time>2021-09-04T10:14:12.000Z</time>
      </trkpt>
      <trkpt lat="47.24974" lon="-1.89895">
        <ele>52</ele>
        <time>2021-09-04T10:14:14.000Z</time>
      </trkpt>
      <trkpt lat="47.24973" lon="-1.89876">
        <ele>52</ele>
        <time>2021-09-04T10:14:16.000Z</time>
      </trkpt>
      <trkpt lat="47.24974" lon="-1.89857">
        <ele>52</ele>
        <time>2021-09-04T10:14:18.000Z</time>
      </trkpt>
      <trkpt lat="47.24975" lon="-1.89838">
        <ele>52</ele>
        <time>2021-09-04T10:14:20.000Z</time>
      </trkpt>
      <trkpt lat="47.24974" lon="-1.89818">
        <ele>51</ele>
        <time>2021-09-04T10:14:22.000Z</time>
      </trkpt>
      <trkpt lat="47.24969" lon="-1.89798">
        <ele>51</ele>
        <time>2021-09-04T10:14:24.000Z</time>
      </trkpt>
      <trkpt lat="47.24962" lon="-1.89781">
        <ele>51</ele>
        <time>2021-09-04T10:14:26.000Z</time>
      </trkpt>
      <trkpt lat="47.24955" lon="-1.89764">
        <ele>51</ele>
        <time>2021-09-04T10:14:28.000Z</time>
      </trkpt>
      <trkpt lat="47.24948" lon="-1.89748">
        <ele>51</ele>
        <time>2021-09-04T10:14:30.000Z</time>
      </trkpt>
      <trkpt lat="47.2494" lon="-1.89732">
        <ele>52</ele>
        <time>2021-09-04T10:14:32.000Z</time>
      </trkpt>
      <trkpt lat="47.24934" lon="-1.89715">
        <ele>52</ele>
        <time>2021-09-04T10:14:34.000Z</time>
      </trkpt>
      <trkpt lat="47.24927" lon="-1.89698">
        <ele>51</ele>
        <time>2021-09-04T10:14:36.000Z</time>
      </trkpt>
      <trkpt lat="47.24921" lon="-1.89682">
        <ele>51</ele>
        <time>2021-09-04T10:14:38.000Z</time>
      </trkpt>
      <trkpt lat="47.24914" lon="-1.89666">
        <ele>51</ele>
        <time>2021-09-04T10:14:40.000Z</time>
      </trkpt>
      <trkpt lat="47.24908" lon="-1.89649">
        <ele>51</ele>
        <time>2021-09-04T10:14:42.000Z</time>
      </trkpt>
      <trkpt lat="47.24901" lon="-1.89633">
        <ele>51</ele>
        <time>2021-09-04T10:14:44.000Z</time>
      </trkpt>
      <trkpt lat="47.24894" lon="-1.89616">
        <ele>52</ele>
        <time>2021-09-04T10:14:46.000Z</time>
      </trkpt>
      <trkpt lat="47.24887" lon="-1.896">
        <ele>52</ele>
        <time>2021-09-04T10:14:48.000Z</time>
      </trkpt>
      <trkpt lat="47.2488" lon="-1.89583">
        <ele>52</ele>
        <time>2021-09-04T10:14:50.000Z</time>
      </trkpt>
      <trkpt lat="47.24873" lon="-1.89566">
        <ele>52</ele>
        <time>2021-09-04T10:14:52.000Z</time>
      </trkpt>
      <trkpt lat="47.24866" lon="-1.89549">
        <ele>52</ele>
        <time>2021-09-04T10:14:54.000Z</time>
      </trkpt>
      <trkpt lat="47.2486" lon="-1.89532">
        <ele>52</ele>
        <time>2021-09-04T10:14:56.000Z</time>
      </trkpt>
      <trkpt lat="47.24853" lon="-1.89514">
        <ele>52</ele>
        <time>2021-09-04T10:14:58.000Z</time>
      </trkpt>
      <trkpt lat="47.24846" lon="-1.89497">
        <ele>51</ele>
        <time>2021-09-04T10:15:00.000Z</time>
      </trkpt>
      <trkpt lat="47.2484" lon="-1.89479">
        <ele>51</ele>
        <time>2021-09-04T10:15:02.000Z</time>
      </trkpt>
      <trkpt lat="47.24833" lon="-1.89463">
        <ele>51</ele>
        <time>2021-09-04T10:15:04.000Z</time>
      </trkpt>
      <trkpt lat="47.24826" lon="-1.89446">
        <ele>51</ele>
        <time>2021-09-04T10:15:06.000Z</time>
      </trkpt>
      <trkpt lat="47.24819" lon="-1.89428">
        <ele>51</ele>
        <time>2021-09-04T10:15:08.000Z</time>
      </trkpt>
      <trkpt lat="47.24808" lon="-1.89402">
        <ele>51</ele>
        <time>2021-09-04T10:15:11.000Z</time>
      </trkpt>
      <trkpt lat="47.24801" lon="-1.89384">
        <ele>51</ele>
        <time>2021-09-04T10:15:13.000Z</time>
      </trkpt>
      <trkpt lat="47.2479" lon="-1.89359">
        <ele>51</ele>
        <time>2021-09-04T10:15:16.000Z</time>
      </trkpt>
      <trkpt lat="47.24783" lon="-1.89341">
        <ele>51</ele>
        <time>2021-09-04T10:15:18.000Z</time>
      </trkpt>
      <trkpt lat="47.24776" lon="-1.89323">
        <ele>51</ele>
        <time>2021-09-04T10:15:20.000Z</time>
      </trkpt>
      <trkpt lat="47.24769" lon="-1.89305">
        <ele>50</ele>
        <time>2021-09-04T10:15:22.000Z</time>
      </trkpt>
      <trkpt lat="47.24758" lon="-1.89279">
        <ele>50</ele>
        <time>2021-09-04T10:15:25.000Z</time>
      </trkpt>
      <trkpt lat="47.24751" lon="-1.89262">
        <ele>51</ele>
        <time>2021-09-04T10:15:27.000Z</time>
      </trkpt>
      <trkpt lat="47.24745" lon="-1.89244">
        <ele>51</ele>
        <time>2021-09-04T10:15:29.000Z</time>
      </trkpt>
      <trkpt lat="47.24738" lon="-1.89227">
        <ele>51</ele>
        <time>2021-09-04T10:15:31.000Z</time>
      </trkpt>
      <trkpt lat="47.24731" lon="-1.8921">
        <ele>51</ele>
        <time>2021-09-04T10:15:33.000Z</time>
      </trkpt>
      <trkpt lat="47.24723" lon="-1.89193">
        <ele>51</ele>
        <time>2021-09-04T10:15:35.000Z</time>
      </trkpt>
      <trkpt lat="47.24717" lon="-1.89176">
        <ele>51</ele>
        <time>2021-09-04T10:15:37.000Z</time>
      </trkpt>
      <trkpt lat="47.2471" lon="-1.89158">
        <ele>51</ele>
        <time>2021-09-04T10:15:39.000Z</time>
      </trkpt>
      <trkpt lat="47.24703" lon="-1.89141">
        <ele>51</ele>
        <time>2021-09-04T10:15:41.000Z</time>
      </trkpt>
      <trkpt lat="47.24697" lon="-1.89124">
        <ele>51</ele>
        <time>2021-09-04T10:15:43.000Z</time>
      </trkpt>
      <trkpt lat="47.24689" lon="-1.89106">
        <ele>51</ele>
        <time>2021-09-04T10:15:45.000Z</time>
      </trkpt>
      <trkpt lat="47.24683" lon="-1.89089">
        <ele>51</ele>
        <time>2021-09-04T10:15:47.000Z</time>
      </trkpt>
      <trkpt lat="47.24675" lon="-1.89072">
        <ele>51</ele>
        <time>2021-09-04T10:15:49.000Z</time>
      </trkpt>
      <trkpt lat="47.24669" lon="-1.89055">
        <ele>51</ele>
        <time>2021-09-04T10:15:51.000Z</time>
      </trkpt>
      <trkpt lat="47.24662" lon="-1.89038">
        <ele>51</ele>
        <time>2021-09-04T10:15:53.000Z</time>
      </trkpt>
      <trkpt lat="47.24655" lon="-1.89021">
        <ele>51</ele>
        <time>2021-09-04T10:15:55.000Z</time>
      </trkpt>
      <trkpt lat="47.24648" lon="-1.89004">
        <ele>51</ele>
        <time>2021-09-04T10:15:57.000Z</time>
      </trkpt>
      <trkpt lat="47.24641" lon="-1.88987">
        <ele>51</ele>
        <time>2021-09-04T10:15:59.000Z</time>
      </trkpt>
      <trkpt lat="47.24634" lon="-1.88969">
        <ele>51</ele>
        <time>2021-09-04T10:16:01.000Z</time>
      </trkpt>
      <trkpt lat="47.24627" lon="-1.88952">
        <ele>51</ele>
        <time>2021-09-04T10:16:03.000Z</time>
      </trkpt>
      <trkpt lat="47.24621" lon="-1.88935">
        <ele>51</ele>
        <time>2021-09-04T10:16:05.000Z</time>
      </trkpt>
      <trkpt lat="47.24614" lon="-1.88918">
        <ele>51</ele>
        <time>2021-09-04T10:16:07.000Z</time>
      </trkpt>
      <trkpt lat="47.24607" lon="-1.88901">
        <ele>52</ele>
        <time>2021-09-04T10:16:09.000Z</time>
      </trkpt>
      <trkpt lat="47.246" lon="-1.88884">
        <ele>52</ele>
        <time>2021-09-04T10:16:11.000Z</time>
      </trkpt>
      <trkpt lat="47.24594" lon="-1.88867">
        <ele>51</ele>
        <time>2021-09-04T10:16:13.000Z</time>
      </trkpt>
      <trkpt lat="47.24587" lon="-1.8885">
        <ele>52</ele>
        <time>2021-09-04T10:16:15.000Z</time>
      </trkpt>
      <trkpt lat="47.2458" lon="-1.88833">
        <ele>52</ele>
        <time>2021-09-04T10:16:17.000Z</time>
      </trkpt>
      <trkpt lat="47.24574" lon="-1.88816">
        <ele>53</ele>
        <time>2021-09-04T10:16:19.000Z</time>
      </trkpt>
      <trkpt lat="47.24568" lon="-1.888">
        <ele>53</ele>
        <time>2021-09-04T10:16:21.000Z</time>
      </trkpt>
      <trkpt lat="47.24562" lon="-1.88782">
        <ele>53</ele>
        <time>2021-09-04T10:16:23.000Z</time>
      </trkpt>
      <trkpt lat="47.24554" lon="-1.88765">
        <ele>53</ele>
        <time>2021-09-04T10:16:25.000Z</time>
      </trkpt>
      <trkpt lat="47.24546" lon="-1.88747">
        <ele>53</ele>
        <time>2021-09-04T10:16:27.000Z</time>
      </trkpt>
      <trkpt lat="47.24538" lon="-1.88729">
        <ele>53</ele>
        <time>2021-09-04T10:16:29.000Z</time>
      </trkpt>
      <trkpt lat="47.24531" lon="-1.88711">
        <ele>52</ele>
        <time>2021-09-04T10:16:31.000Z</time>
      </trkpt>
      <trkpt lat="47.24523" lon="-1.88693">
        <ele>52</ele>
        <time>2021-09-04T10:16:33.000Z</time>
      </trkpt>
      <trkpt lat="47.24516" lon="-1.88676">
        <ele>51</ele>
        <time>2021-09-04T10:16:35.000Z</time>
      </trkpt>
      <trkpt lat="47.24508" lon="-1.88658">
        <ele>51</ele>
        <time>2021-09-04T10:16:37.000Z</time>
      </trkpt>
      <trkpt lat="47.24501" lon="-1.88641">
        <ele>51</ele>
        <time>2021-09-04T10:16:39.000Z</time>
      </trkpt>
      <trkpt lat="47.24494" lon="-1.88624">
        <ele>51</ele>
        <time>2021-09-04T10:16:41.000Z</time>
      </trkpt>
      <trkpt lat="47.24487" lon="-1.88607">
        <ele>51</ele>
        <time>2021-09-04T10:16:43.000Z</time>
      </trkpt>
      <trkpt lat="47.24479" lon="-1.88589">
        <ele>51</ele>
        <time>2021-09-04T10:16:45.000Z</time>
      </trkpt>
      <trkpt lat="47.24472" lon="-1.88571">
        <ele>51</ele>
        <time>2021-09-04T10:16:47.000Z</time>
      </trkpt>
      <trkpt lat="47.24464" lon="-1.88553">
        <ele>51</ele>
        <time>2021-09-04T10:16:49.000Z</time>
      </trkpt>
      <trkpt lat="47.24456" lon="-1.88535">
        <ele>50</ele>
        <time>2021-09-04T10:16:51.000Z</time>
      </trkpt>
      <trkpt lat="47.24449" lon="-1.88518">
        <ele>51</ele>
        <time>2021-09-04T10:16:53.000Z</time>
      </trkpt>
      <trkpt lat="47.24441" lon="-1.88502">
        <ele>51</ele>
        <time>2021-09-04T10:16:55.000Z</time>
      </trkpt>
      <trkpt lat="47.24434" lon="-1.88485">
        <ele>51</ele>
        <time>2021-09-04T10:16:57.000Z</time>
      </trkpt>
      <trkpt lat="47.24426" lon="-1.88468">
        <ele>51</ele>
        <time>2021-09-04T10:16:59.000Z</time>
      </trkpt>
      <trkpt lat="47.24419" lon="-1.88451">
        <ele>51</ele>
        <time>2021-09-04T10:17:01.000Z</time>
      </trkpt>
      <trkpt lat="47.24411" lon="-1.88435">
        <ele>51</ele>
        <time>2021-09-04T10:17:03.000Z</time>
      </trkpt>
      <trkpt lat="47.24403" lon="-1.88418">
        <ele>51</ele>
        <time>2021-09-04T10:17:05.000Z</time>
      </trkpt>
      <trkpt lat="47.24396" lon="-1.88401">
        <ele>51</ele>
        <time>2021-09-04T10:17:07.000Z</time>
      </trkpt>
      <trkpt lat="47.24389" lon="-1.88386">
        <ele>51</ele>
        <time>2021-09-04T10:17:09.000Z</time>
      </trkpt>
      <trkpt lat="47.24382" lon="-1.88371">
        <ele>52</ele>
        <time>2021-09-04T10:17:11.000Z</time>
      </trkpt>
      <trkpt lat="47.24375" lon="-1.88355">
        <ele>52</ele>
        <time>2021-09-04T10:17:13.000Z</time>
      </trkpt>
      <trkpt lat="47.24367" lon="-1.88337">
        <ele>51</ele>
        <time>2021-09-04T10:17:15.000Z</time>
      </trkpt>
      <trkpt lat="47.24359" lon="-1.88321">
        <ele>51</ele>
        <time>2021-09-04T10:17:17.000Z</time>
      </trkpt>
      <trkpt lat="47.24351" lon="-1.88305">
        <ele>51</ele>
        <time>2021-09-04T10:17:19.000Z</time>
      </trkpt>
      <trkpt lat="47.24344" lon="-1.88289">
        <ele>51</ele>
        <time>2021-09-04T10:17:21.000Z</time>
      </trkpt>
      <trkpt lat="47.24336" lon="-1.88273">
        <ele>51</ele>
        <time>2021-09-04T10:17:23.000Z</time>
      </trkpt>
      <trkpt lat="47.24328" lon="-1.88257">
        <ele>51</ele>
        <time>2021-09-04T10:17:25.000Z</time>
      </trkpt>
      <trkpt lat="47.24321" lon="-1.8824">
        <ele>51</ele>
        <time>2021-09-04T10:17:27.000Z</time>
      </trkpt>
      <trkpt lat="47.24313" lon="-1.88225">
        <ele>52</ele>
        <time>2021-09-04T10:17:29.000Z</time>
      </trkpt>
      <trkpt lat="47.24305" lon="-1.88209">
        <ele>52</ele>
        <time>2021-09-04T10:17:31.000Z</time>
      </trkpt>
      <trkpt lat="47.24298" lon="-1.88193">
        <ele>51</ele>
        <time>2021-09-04T10:17:33.000Z</time>
      </trkpt>
      <trkpt lat="47.2429" lon="-1.88177">
        <ele>51</ele>
        <time>2021-09-04T10:17:35.000Z</time>
      </trkpt>
      <trkpt lat="47.24282" lon="-1.88161">
        <ele>51</ele>
        <time>2021-09-04T10:17:37.000Z</time>
      </trkpt>
      <trkpt lat="47.24275" lon="-1.88145">
        <ele>51</ele>
        <time>2021-09-04T10:17:39.000Z</time>
      </trkpt>
      <trkpt lat="47.24267" lon="-1.8813">
        <ele>51</ele>
        <time>2021-09-04T10:17:41.000Z</time>
      </trkpt>
      <trkpt lat="47.24259" lon="-1.88114">
        <ele>51</ele>
        <time>2021-09-04T10:17:43.000Z</time>
      </trkpt>
      <trkpt lat="47.24251" lon="-1.88098">
        <ele>51</ele>
        <time>2021-09-04T10:17:45.000Z</time>
      </trkpt>
      <trkpt lat="47.24244" lon="-1.88083">
        <ele>51</ele>
        <time>2021-09-04T10:17:47.000Z</time>
      </trkpt>
      <trkpt lat="47.24236" lon="-1.88068">
        <ele>51</ele>
        <time>2021-09-04T10:17:49.000Z</time>
      </trkpt>
      <trkpt lat="47.24228" lon="-1.88052">
        <ele>52</ele>
        <time>2021-09-04T10:17:51.000Z</time>
      </trkpt>
      <trkpt lat="47.2422" lon="-1.88035">
        <ele>52</ele>
        <time>2021-09-04T10:17:53.000Z</time>
      </trkpt>
      <trkpt lat="47.24212" lon="-1.88019">
        <ele>52</ele>
        <time>2021-09-04T10:17:55.000Z</time>
      </trkpt>
      <trkpt lat="47.24204" lon="-1.88003">
        <ele>52</ele>
        <time>2021-09-04T10:17:57.000Z</time>
      </trkpt>
      <trkpt lat="47.24196" lon="-1.87986">
        <ele>52</ele>
        <time>2021-09-04T10:17:59.000Z</time>
      </trkpt>
      <trkpt lat="47.24187" lon="-1.8797">
        <ele>52</ele>
        <time>2021-09-04T10:18:01.000Z</time>
      </trkpt>
      <trkpt lat="47.2418" lon="-1.87955">
        <ele>52</ele>
        <time>2021-09-04T10:18:03.000Z</time>
      </trkpt>
      <trkpt lat="47.24172" lon="-1.87938">
        <ele>52</ele>
        <time>2021-09-04T10:18:05.000Z</time>
      </trkpt>
      <trkpt lat="47.24163" lon="-1.87922">
        <ele>52</ele>
        <time>2021-09-04T10:18:07.000Z</time>
      </trkpt>
      <trkpt lat="47.24155" lon="-1.87907">
        <ele>52</ele>
        <time>2021-09-04T10:18:09.000Z</time>
      </trkpt>
      <trkpt lat="47.24147" lon="-1.8789">
        <ele>52</ele>
        <time>2021-09-04T10:18:11.000Z</time>
      </trkpt>
      <trkpt lat="47.24138" lon="-1.87874">
        <ele>52</ele>
        <time>2021-09-04T10:18:13.000Z</time>
      </trkpt>
      <trkpt lat="47.24131" lon="-1.87857">
        <ele>52</ele>
        <time>2021-09-04T10:18:15.000Z</time>
      </trkpt>
      <trkpt lat="47.24122" lon="-1.87841">
        <ele>52</ele>
        <time>2021-09-04T10:18:17.000Z</time>
      </trkpt>
      <trkpt lat="47.24114" lon="-1.87824">
        <ele>51</ele>
        <time>2021-09-04T10:18:19.000Z</time>
      </trkpt>
      <trkpt lat="47.24105" lon="-1.87808">
        <ele>51</ele>
        <time>2021-09-04T10:18:21.000Z</time>
      </trkpt>
      <trkpt lat="47.24097" lon="-1.87791">
        <ele>52</ele>
        <time>2021-09-04T10:18:23.000Z</time>
      </trkpt>
      <trkpt lat="47.24089" lon="-1.87775">
        <ele>52</ele>
        <time>2021-09-04T10:18:25.000Z</time>
      </trkpt>
      <trkpt lat="47.24081" lon="-1.87759">
        <ele>52</ele>
        <time>2021-09-04T10:18:27.000Z</time>
      </trkpt>
      <trkpt lat="47.24073" lon="-1.87743">
        <ele>52</ele>
        <time>2021-09-04T10:18:29.000Z</time>
      </trkpt>
      <trkpt lat="47.24065" lon="-1.87726">
        <ele>52</ele>
        <time>2021-09-04T10:18:31.000Z</time>
      </trkpt>
      <trkpt lat="47.24056" lon="-1.87709">
        <ele>52</ele>
        <time>2021-09-04T10:18:33.000Z</time>
      </trkpt>
      <trkpt lat="47.24049" lon="-1.87692">
        <ele>52</ele>
        <time>2021-09-04T10:18:35.000Z</time>
      </trkpt>
      <trkpt lat="47.24041" lon="-1.87675">
        <ele>51</ele>
        <time>2021-09-04T10:18:37.000Z</time>
      </trkpt>
      <trkpt lat="47.24032" lon="-1.87659">
        <ele>52</ele>
        <time>2021-09-04T10:18:39.000Z</time>
      </trkpt>
      <trkpt lat="47.24024" lon="-1.87643">
        <ele>51</ele>
        <time>2021-09-04T10:18:41.000Z</time>
      </trkpt>
      <trkpt lat="47.24015" lon="-1.87627">
        <ele>52</ele>
        <time>2021-09-04T10:18:43.000Z</time>
      </trkpt>
      <trkpt lat="47.24008" lon="-1.87611">
        <ele>52</ele>
        <time>2021-09-04T10:18:45.000Z</time>
      </trkpt>
      <trkpt lat="47.23999" lon="-1.87594">
        <ele>52</ele>
        <time>2021-09-04T10:18:47.000Z</time>
      </trkpt>
      <trkpt lat="47.23991" lon="-1.87578">
        <ele>52</ele>
        <time>2021-09-04T10:18:49.000Z</time>
      </trkpt>
      <trkpt lat="47.23983" lon="-1.87562">
        <ele>52</ele>
        <time>2021-09-04T10:18:51.000Z</time>
      </trkpt>
      <trkpt lat="47.23975" lon="-1.87546">
        <ele>52</ele>
        <time>2021-09-04T10:18:53.000Z</time>
      </trkpt>
      <trkpt lat="47.23967" lon="-1.87531">
        <ele>52</ele>
        <time>2021-09-04T10:18:55.000Z</time>
      </trkpt>
      <trkpt lat="47.2396" lon="-1.87515">
        <ele>52</ele>
        <time>2021-09-04T10:18:57.000Z</time>
      </trkpt>
      <trkpt lat="47.23951" lon="-1.87499">
        <ele>53</ele>
        <time>2021-09-04T10:18:59.000Z</time>
      </trkpt>
      <trkpt lat="47.23944" lon="-1.87484">
        <ele>53</ele>
        <time>2021-09-04T10:19:01.000Z</time>
      </trkpt>
      <trkpt lat="47.23936" lon="-1.87468">
        <ele>53</ele>
        <time>2021-09-04T10:19:03.000Z</time>
      </trkpt>
      <trkpt lat="47.23928" lon="-1.87452">
        <ele>53</ele>
        <time>2021-09-04T10:19:05.000Z</time>
      </trkpt>
      <trkpt lat="47.2392" lon="-1.87436">
        <ele>53</ele>
        <time>2021-09-04T10:19:07.000Z</time>
      </trkpt>
      <trkpt lat="47.23912" lon="-1.8742">
        <ele>53</ele>
        <time>2021-09-04T10:19:09.000Z</time>
      </trkpt>
      <trkpt lat="47.23905" lon="-1.87405">
        <ele>53</ele>
        <time>2021-09-04T10:19:11.000Z</time>
      </trkpt>
      <trkpt lat="47.23897" lon="-1.8739">
        <ele>53</ele>
        <time>2021-09-04T10:19:13.000Z</time>
      </trkpt>
      <trkpt lat="47.23889" lon="-1.87374">
        <ele>54</ele>
        <time>2021-09-04T10:19:15.000Z</time>
      </trkpt>
      <trkpt lat="47.23881" lon="-1.87358">
        <ele>54</ele>
        <time>2021-09-04T10:19:17.000Z</time>
      </trkpt>
      <trkpt lat="47.23874" lon="-1.87342">
        <ele>54</ele>
        <time>2021-09-04T10:19:19.000Z</time>
      </trkpt>
      <trkpt lat="47.23866" lon="-1.87326">
        <ele>53</ele>
        <time>2021-09-04T10:19:21.000Z</time>
      </trkpt>
      <trkpt lat="47.23858" lon="-1.87311">
        <ele>53</ele>
        <time>2021-09-04T10:19:23.000Z</time>
      </trkpt>
      <trkpt lat="47.23849" lon="-1.87293">
        <ele>53</ele>
        <time>2021-09-04T10:19:25.000Z</time>
      </trkpt>
      <trkpt lat="47.23841" lon="-1.87275">
        <ele>52</ele>
        <time>2021-09-04T10:19:27.000Z</time>
      </trkpt>
      <trkpt lat="47.23834" lon="-1.87257">
        <ele>52</ele>
        <time>2021-09-04T10:19:29.000Z</time>
      </trkpt>
      <trkpt lat="47.23826" lon="-1.87239">
        <ele>52</ele>
        <time>2021-09-04T10:19:31.000Z</time>
      </trkpt>
      <trkpt lat="47.23819" lon="-1.87222">
        <ele>52</ele>
        <time>2021-09-04T10:19:33.000Z</time>
      </trkpt>
      <trkpt lat="47.23811" lon="-1.87204">
        <ele>52</ele>
        <time>2021-09-04T10:19:35.000Z</time>
      </trkpt>
      <trkpt lat="47.23804" lon="-1.87186">
        <ele>52</ele>
        <time>2021-09-04T10:19:37.000Z</time>
      </trkpt>
      <trkpt lat="47.23795" lon="-1.87169">
        <ele>51</ele>
        <time>2021-09-04T10:19:39.000Z</time>
      </trkpt>
      <trkpt lat="47.23785" lon="-1.87154">
        <ele>51</ele>
        <time>2021-09-04T10:19:41.000Z</time>
      </trkpt>
      <trkpt lat="47.23776" lon="-1.87138">
        <ele>52</ele>
        <time>2021-09-04T10:19:43.000Z</time>
      </trkpt>
      <trkpt lat="47.23766" lon="-1.87122">
        <ele>52</ele>
        <time>2021-09-04T10:19:45.000Z</time>
      </trkpt>
      <trkpt lat="47.23757" lon="-1.87106">
        <ele>52</ele>
        <time>2021-09-04T10:19:47.000Z</time>
      </trkpt>
      <trkpt lat="47.23749" lon="-1.8709">
        <ele>53</ele>
        <time>2021-09-04T10:19:49.000Z</time>
      </trkpt>
      <trkpt lat="47.2374" lon="-1.87073">
        <ele>53</ele>
        <time>2021-09-04T10:19:51.000Z</time>
      </trkpt>
      <trkpt lat="47.23731" lon="-1.87057">
        <ele>53</ele>
        <time>2021-09-04T10:19:53.000Z</time>
      </trkpt>
      <trkpt lat="47.23723" lon="-1.8704">
        <ele>53</ele>
        <time>2021-09-04T10:19:55.000Z</time>
      </trkpt>
      <trkpt lat="47.23715" lon="-1.87023">
        <ele>53</ele>
        <time>2021-09-04T10:19:57.000Z</time>
      </trkpt>
      <trkpt lat="47.23707" lon="-1.87006">
        <ele>53</ele>
        <time>2021-09-04T10:19:59.000Z</time>
      </trkpt>
      <trkpt lat="47.23698" lon="-1.8699">
        <ele>53</ele>
        <time>2021-09-04T10:20:01.000Z</time>
      </trkpt>
      <trkpt lat="47.2369" lon="-1.86973">
        <ele>53</ele>
        <time>2021-09-04T10:20:03.000Z</time>
      </trkpt>
      <trkpt lat="47.23681" lon="-1.86955">
        <ele>53</ele>
        <time>2021-09-04T10:20:05.000Z</time>
      </trkpt>
      <trkpt lat="47.23673" lon="-1.86938">
        <ele>52</ele>
        <time>2021-09-04T10:20:07.000Z</time>
      </trkpt>
      <trkpt lat="47.23665" lon="-1.8692">
        <ele>52</ele>
        <time>2021-09-04T10:20:09.000Z</time>
      </trkpt>
      <trkpt lat="47.23656" lon="-1.86903">
        <ele>52</ele>
        <time>2021-09-04T10:20:11.000Z</time>
      </trkpt>
      <trkpt lat="47.23647" lon="-1.86886">
        <ele>52</ele>
        <time>2021-09-04T10:20:13.000Z</time>
      </trkpt>
      <trkpt lat="47.23639" lon="-1.86869">
        <ele>52</ele>
        <time>2021-09-04T10:20:15.000Z</time>
      </trkpt>
      <trkpt lat="47.23631" lon="-1.86852">
        <ele>52</ele>
        <time>2021-09-04T10:20:17.000Z</time>
      </trkpt>
      <trkpt lat="47.23622" lon="-1.86835">
        <ele>52</ele>
        <time>2021-09-04T10:20:19.000Z</time>
      </trkpt>
      <trkpt lat="47.23614" lon="-1.86818">
        <ele>52</ele>
        <time>2021-09-04T10:20:21.000Z</time>
      </trkpt>
      <trkpt lat="47.23606" lon="-1.86801">
        <ele>51</ele>
        <time>2021-09-04T10:20:23.000Z</time>
      </trkpt>
      <trkpt lat="47.23598" lon="-1.86784">
        <ele>51</ele>
        <time>2021-09-04T10:20:25.000Z</time>
      </trkpt>
      <trkpt lat="47.23589" lon="-1.86767">
        <ele>51</ele>
        <time>2021-09-04T10:20:27.000Z</time>
      </trkpt>
      <trkpt lat="47.23581" lon="-1.8675">
        <ele>51</ele>
        <time>2021-09-04T10:20:29.000Z</time>
      </trkpt>
      <trkpt lat="47.23573" lon="-1.86734">
        <ele>51</ele>
        <time>2021-09-04T10:20:31.000Z</time>
      </trkpt>
      <trkpt lat="47.23565" lon="-1.86718">
        <ele>51</ele>
        <time>2021-09-04T10:20:33.000Z</time>
      </trkpt>
      <trkpt lat="47.23557" lon="-1.86701">
        <ele>51</ele>
        <time>2021-09-04T10:20:35.000Z</time>
      </trkpt>
      <trkpt lat="47.23548" lon="-1.86687">
        <ele>52</ele>
        <time>2021-09-04T10:20:37.000Z</time>
      </trkpt>
      <trkpt lat="47.2354" lon="-1.8667">
        <ele>52</ele>
        <time>2021-09-04T10:20:39.000Z</time>
      </trkpt>
      <trkpt lat="47.23531" lon="-1.86651">
        <ele>51</ele>
        <time>2021-09-04T10:20:41.000Z</time>
      </trkpt>
      <trkpt lat="47.23523" lon="-1.86634">
        <ele>51</ele>
        <time>2021-09-04T10:20:43.000Z</time>
      </trkpt>
      <trkpt lat="47.23514" lon="-1.86617">
        <ele>51</ele>
        <time>2021-09-04T10:20:45.000Z</time>
      </trkpt>
      <trkpt lat="47.23506" lon="-1.86601">
        <ele>51</ele>
        <time>2021-09-04T10:20:47.000Z</time>
      </trkpt>
      <trkpt lat="47.23497" lon="-1.86583">
        <ele>51</ele>
        <time>2021-09-04T10:20:49.000Z</time>
      </trkpt>
      <trkpt lat="47.23489" lon="-1.86567">
        <ele>51</ele>
        <time>2021-09-04T10:20:51.000Z</time>
      </trkpt>
      <trkpt lat="47.23481" lon="-1.8655">
        <ele>51</ele>
        <time>2021-09-04T10:20:53.000Z</time>
      </trkpt>
      <trkpt lat="47.23472" lon="-1.86534">
        <ele>51</ele>
        <time>2021-09-04T10:20:55.000Z</time>
      </trkpt>
      <trkpt lat="47.23464" lon="-1.86517">
        <ele>50</ele>
        <time>2021-09-04T10:20:57.000Z</time>
      </trkpt>
      <trkpt lat="47.23456" lon="-1.865">
        <ele>50</ele>
        <time>2021-09-04T10:20:59.000Z</time>
      </trkpt>
      <trkpt lat="47.23448" lon="-1.86484">
        <ele>50</ele>
        <time>2021-09-04T10:21:01.000Z</time>
      </trkpt>
      <trkpt lat="47.2344" lon="-1.86467">
        <ele>50</ele>
        <time>2021-09-04T10:21:03.000Z</time>
      </trkpt>
      <trkpt lat="47.23432" lon="-1.86452">
        <ele>50</ele>
        <time>2021-09-04T10:21:05.000Z</time>
      </trkpt>
      <trkpt lat="47.23424" lon="-1.86436">
        <ele>50</ele>
        <time>2021-09-04T10:21:07.000Z</time>
      </trkpt>
      <trkpt lat="47.23416" lon="-1.86421">
        <ele>50</ele>
        <time>2021-09-04T10:21:09.000Z</time>
      </trkpt>
      <trkpt lat="47.23409" lon="-1.86404">
        <ele>50</ele>
        <time>2021-09-04T10:21:11.000Z</time>
      </trkpt>
      <trkpt lat="47.23401" lon="-1.86388">
        <ele>50</ele>
        <time>2021-09-04T10:21:13.000Z</time>
      </trkpt>
      <trkpt lat="47.23393" lon="-1.86371">
        <ele>50</ele>
        <time>2021-09-04T10:21:15.000Z</time>
      </trkpt>
      <trkpt lat="47.23385" lon="-1.86355">
        <ele>50</ele>
        <time>2021-09-04T10:21:17.000Z</time>
      </trkpt>
      <trkpt lat="47.23376" lon="-1.8634">
        <ele>50</ele>
        <time>2021-09-04T10:21:19.000Z</time>
      </trkpt>
      <trkpt lat="47.23368" lon="-1.86324">
        <ele>50</ele>
        <time>2021-09-04T10:21:21.000Z</time>
      </trkpt>
      <trkpt lat="47.2336" lon="-1.86307">
        <ele>50</ele>
        <time>2021-09-04T10:21:23.000Z</time>
      </trkpt>
      <trkpt lat="47.23351" lon="-1.86292">
        <ele>50</ele>
        <time>2021-09-04T10:21:25.000Z</time>
      </trkpt>
      <trkpt lat="47.23344" lon="-1.86275">
        <ele>50</ele>
        <time>2021-09-04T10:21:27.000Z</time>
      </trkpt>
      <trkpt lat="47.23335" lon="-1.86259">
        <ele>50</ele>
        <time>2021-09-04T10:21:29.000Z</time>
      </trkpt>
      <trkpt lat="47.23327" lon="-1.86243">
        <ele>50</ele>
        <time>2021-09-04T10:21:31.000Z</time>
      </trkpt>
      <trkpt lat="47.23319" lon="-1.86227">
        <ele>49</ele>
        <time>2021-09-04T10:21:33.000Z</time>
      </trkpt>
      <trkpt lat="47.23311" lon="-1.86211">
        <ele>50</ele>
        <time>2021-09-04T10:21:35.000Z</time>
      </trkpt>
      <trkpt lat="47.23303" lon="-1.86194">
        <ele>50</ele>
        <time>2021-09-04T10:21:37.000Z</time>
      </trkpt>
      <trkpt lat="47.23295" lon="-1.86177">
        <ele>50</ele>
        <time>2021-09-04T10:21:39.000Z</time>
      </trkpt>
      <trkpt lat="47.23287" lon="-1.8616">
        <ele>50</ele>
        <time>2021-09-04T10:21:41.000Z</time>
      </trkpt>
      <trkpt lat="47.23278" lon="-1.86144">
        <ele>49</ele>
        <time>2021-09-04T10:21:43.000Z</time>
      </trkpt>
      <trkpt lat="47.2327" lon="-1.86127">
        <ele>49</ele>
        <time>2021-09-04T10:21:45.000Z</time>
      </trkpt>
      <trkpt lat="47.23262" lon="-1.86111">
        <ele>49</ele>
        <time>2021-09-04T10:21:47.000Z</time>
      </trkpt>
      <trkpt lat="47.23254" lon="-1.86094">
        <ele>49</ele>
        <time>2021-09-04T10:21:49.000Z</time>
      </trkpt>
      <trkpt lat="47.23246" lon="-1.86079">
        <ele>49</ele>
        <time>2021-09-04T10:21:51.000Z</time>
      </trkpt>
      <trkpt lat="47.23238" lon="-1.86062">
        <ele>49</ele>
        <time>2021-09-04T10:21:53.000Z</time>
      </trkpt>
      <trkpt lat="47.2323" lon="-1.86046">
        <ele>49</ele>
        <time>2021-09-04T10:21:55.000Z</time>
      </trkpt>
      <trkpt lat="47.23222" lon="-1.8603">
        <ele>49</ele>
        <time>2021-09-04T10:21:57.000Z</time>
      </trkpt>
      <trkpt lat="47.23214" lon="-1.86014">
        <ele>49</ele>
        <time>2021-09-04T10:21:59.000Z</time>
      </trkpt>
      <trkpt lat="47.23205" lon="-1.85998">
        <ele>50</ele>
        <time>2021-09-04T10:22:01.000Z</time>
      </trkpt>
      <trkpt lat="47.23197" lon="-1.85982">
        <ele>50</ele>
        <time>2021-09-04T10:22:03.000Z</time>
      </trkpt>
      <trkpt lat="47.23189" lon="-1.85965">
        <ele>50</ele>
        <time>2021-09-04T10:22:05.000Z</time>
      </trkpt>
      <trkpt lat="47.23181" lon="-1.85949">
        <ele>50</ele>
        <time>2021-09-04T10:22:07.000Z</time>
      </trkpt>
      <trkpt lat="47.23173" lon="-1.85933">
        <ele>50</ele>
        <time>2021-09-04T10:22:09.000Z</time>
      </trkpt>
      <trkpt lat="47.23165" lon="-1.85916">
        <ele>49</ele>
        <time>2021-09-04T10:22:11.000Z</time>
      </trkpt>
      <trkpt lat="47.23157" lon="-1.85899">
        <ele>50</ele>
        <time>2021-09-04T10:22:13.000Z</time>
      </trkpt>
      <trkpt lat="47.23148" lon="-1.85882">
        <ele>50</ele>
        <time>2021-09-04T10:22:15.000Z</time>
      </trkpt>
      <trkpt lat="47.2314" lon="-1.85866">
        <ele>49</ele>
        <time>2021-09-04T10:22:17.000Z</time>
      </trkpt>
      <trkpt lat="47.23132" lon="-1.85849">
        <ele>49</ele>
        <time>2021-09-04T10:22:19.000Z</time>
      </trkpt>
      <trkpt lat="47.23123" lon="-1.85832">
        <ele>49</ele>
        <time>2021-09-04T10:22:21.000Z</time>
      </trkpt>
      <trkpt lat="47.23115" lon="-1.85815">
        <ele>49</ele>
        <time>2021-09-04T10:22:23.000Z</time>
      </trkpt>
      <trkpt lat="47.23107" lon="-1.85799">
        <ele>49</ele>
        <time>2021-09-04T10:22:25.000Z</time>
      </trkpt>
      <trkpt lat="47.23099" lon="-1.85783">
        <ele>49</ele>
        <time>2021-09-04T10:22:27.000Z</time>
      </trkpt>
      <trkpt lat="47.23091" lon="-1.85765">
        <ele>49</ele>
        <time>2021-09-04T10:22:29.000Z</time>
      </trkpt>
      <trkpt lat="47.23082" lon="-1.85749">
        <ele>49</ele>
        <time>2021-09-04T10:22:31.000Z</time>
      </trkpt>
      <trkpt lat="47.23074" lon="-1.85732">
        <ele>49</ele>
        <time>2021-09-04T10:22:33.000Z</time>
      </trkpt>
      <trkpt lat="47.23065" lon="-1.85715">
        <ele>49</ele>
        <time>2021-09-04T10:22:35.000Z</time>
      </trkpt>
      <trkpt lat="47.23057" lon="-1.85699">
        <ele>49</ele>
        <time>2021-09-04T10:22:37.000Z</time>
      </trkpt>
      <trkpt lat="47.23049" lon="-1.85682">
        <ele>49</ele>
        <time>2021-09-04T10:22:39.000Z</time>
      </trkpt>
      <trkpt lat="47.2304" lon="-1.85664">
        <ele>49</ele>
        <time>2021-09-04T10:22:41.000Z</time>
      </trkpt>
      <trkpt lat="47.23032" lon="-1.85648">
        <ele>49</ele>
        <time>2021-09-04T10:22:43.000Z</time>
      </trkpt>
      <trkpt lat="47.23023" lon="-1.85631">
        <ele>49</ele>
        <time>2021-09-04T10:22:45.000Z</time>
      </trkpt>
      <trkpt lat="47.23015" lon="-1.85615">
        <ele>49</ele>
        <time>2021-09-04T10:22:47.000Z</time>
      </trkpt>
      <trkpt lat="47.23007" lon="-1.85598">
        <ele>49</ele>
        <time>2021-09-04T10:22:49.000Z</time>
      </trkpt>
      <trkpt lat="47.22998" lon="-1.85582">
        <ele>50</ele>
        <time>2021-09-04T10:22:51.000Z</time>
      </trkpt>
      <trkpt lat="47.2299" lon="-1.85565">
        <ele>49</ele>
        <time>2021-09-04T10:22:53.000Z</time>
      </trkpt>
      <trkpt lat="47.22982" lon="-1.85548">
        <ele>49</ele>
        <time>2021-09-04T10:22:55.000Z</time>
      </trkpt>
      <trkpt lat="47.22974" lon="-1.85532">
        <ele>49</ele>
        <time>2021-09-04T10:22:57.000Z</time>
      </trkpt>
      <trkpt lat="47.22965" lon="-1.85516">
        <ele>50</ele>
        <time>2021-09-04T10:22:59.000Z</time>
      </trkpt>
      <trkpt lat="47.22957" lon="-1.85499">
        <ele>50</ele>
        <time>2021-09-04T10:23:01.000Z</time>
      </trkpt>
      <trkpt lat="47.22948" lon="-1.85483">
        <ele>51</ele>
        <time>2021-09-04T10:23:03.000Z</time>
      </trkpt>
      <trkpt lat="47.2294" lon="-1.85466">
        <ele>51</ele>
        <time>2021-09-04T10:23:05.000Z</time>
      </trkpt>
      <trkpt lat="47.22933" lon="-1.85449">
        <ele>51</ele>
        <time>2021-09-04T10:23:07.000Z</time>
      </trkpt>
      <trkpt lat="47.22925" lon="-1.85433">
        <ele>51</ele>
        <time>2021-09-04T10:23:09.000Z</time>
      </trkpt>
      <trkpt lat="47.22916" lon="-1.85417">
        <ele>51</ele>
        <time>2021-09-04T10:23:11.000Z</time>
      </trkpt>
      <trkpt lat="47.22908" lon="-1.854">
        <ele>51</ele>
        <time>2021-09-04T10:23:13.000Z</time>
      </trkpt>
      <trkpt lat="47.229" lon="-1.85383">
        <ele>51</ele>
        <time>2021-09-04T10:23:15.000Z</time>
      </trkpt>
      <trkpt lat="47.22891" lon="-1.85366">
        <ele>50</ele>
        <time>2021-09-04T10:23:17.000Z</time>
      </trkpt>
      <trkpt lat="47.22882" lon="-1.85348">
        <ele>50</ele>
        <time>2021-09-04T10:23:19.000Z</time>
      </trkpt>
      <trkpt lat="47.22873" lon="-1.8533">
        <ele>50</ele>
        <time>2021-09-04T10:23:21.000Z</time>
      </trkpt>
      <trkpt lat="47.22865" lon="-1.85312">
        <ele>50</ele>
        <time>2021-09-04T10:23:23.000Z</time>
      </trkpt>
      <trkpt lat="47.22856" lon="-1.85295">
        <ele>50</ele>
        <time>2021-09-04T10:23:25.000Z</time>
      </trkpt>
      <trkpt lat="47.22847" lon="-1.85278">
        <ele>50</ele>
        <time>2021-09-04T10:23:27.000Z</time>
      </trkpt>
      <trkpt lat="47.22838" lon="-1.85261">
        <ele>50</ele>
        <time>2021-09-04T10:23:29.000Z</time>
      </trkpt>
      <trkpt lat="47.22829" lon="-1.85243">
        <ele>50</ele>
        <time>2021-09-04T10:23:31.000Z</time>
      </trkpt>
      <trkpt lat="47.22821" lon="-1.85226">
        <ele>51</ele>
        <time>2021-09-04T10:23:33.000Z</time>
      </trkpt>
      <trkpt lat="47.22813" lon="-1.85209">
        <ele>51</ele>
        <time>2021-09-04T10:23:35.000Z</time>
      </trkpt>
      <trkpt lat="47.22804" lon="-1.85192">
        <ele>50</ele>
        <time>2021-09-04T10:23:37.000Z</time>
      </trkpt>
      <trkpt lat="47.22796" lon="-1.85175">
        <ele>50</ele>
        <time>2021-09-04T10:23:39.000Z</time>
      </trkpt>
      <trkpt lat="47.22787" lon="-1.85158">
        <ele>50</ele>
        <time>2021-09-04T10:23:41.000Z</time>
      </trkpt>
      <trkpt lat="47.22779" lon="-1.85142">
        <ele>51</ele>
        <time>2021-09-04T10:23:43.000Z</time>
      </trkpt>
      <trkpt lat="47.22771" lon="-1.85126">
        <ele>51</ele>
        <time>2021-09-04T10:23:45.000Z</time>
      </trkpt>
      <trkpt lat="47.22763" lon="-1.85109">
        <ele>51</ele>
        <time>2021-09-04T10:23:47.000Z</time>
      </trkpt>
      <trkpt lat="47.22754" lon="-1.85092">
        <ele>52</ele>
        <time>2021-09-04T10:23:49.000Z</time>
      </trkpt>
      <trkpt lat="47.22746" lon="-1.85076">
        <ele>52</ele>
        <time>2021-09-04T10:23:51.000Z</time>
      </trkpt>
      <trkpt lat="47.22738" lon="-1.8506">
        <ele>51</ele>
        <time>2021-09-04T10:23:53.000Z</time>
      </trkpt>
      <trkpt lat="47.2273" lon="-1.85043">
        <ele>51</ele>
        <time>2021-09-04T10:23:55.000Z</time>
      </trkpt>
      <trkpt lat="47.22722" lon="-1.85026">
        <ele>51</ele>
        <time>2021-09-04T10:23:57.000Z</time>
      </trkpt>
      <trkpt lat="47.22713" lon="-1.8501">
        <ele>51</ele>
        <time>2021-09-04T10:23:59.000Z</time>
      </trkpt>
      <trkpt lat="47.22705" lon="-1.84992">
        <ele>50</ele>
        <time>2021-09-04T10:24:01.000Z</time>
      </trkpt>
      <trkpt lat="47.22696" lon="-1.84976">
        <ele>51</ele>
        <time>2021-09-04T10:24:03.000Z</time>
      </trkpt>
      <trkpt lat="47.22688" lon="-1.84959">
        <ele>50</ele>
        <time>2021-09-04T10:24:05.000Z</time>
      </trkpt>
      <trkpt lat="47.2268" lon="-1.84942">
        <ele>51</ele>
        <time>2021-09-04T10:24:07.000Z</time>
      </trkpt>
      <trkpt lat="47.22671" lon="-1.84925">
        <ele>51</ele>
        <time>2021-09-04T10:24:09.000Z</time>
      </trkpt>
      <trkpt lat="47.22663" lon="-1.84909">
        <ele>51</ele>
        <time>2021-09-04T10:24:11.000Z</time>
      </trkpt>
      <trkpt lat="47.22655" lon="-1.84893">
        <ele>52</ele>
        <time>2021-09-04T10:24:13.000Z</time>
      </trkpt>
      <trkpt lat="47.22647" lon="-1.84876">
        <ele>51</ele>
        <time>2021-09-04T10:24:15.000Z</time>
      </trkpt>
      <trkpt lat="47.22639" lon="-1.84859">
        <ele>51</ele>
        <time>2021-09-04T10:24:17.000Z</time>
      </trkpt>
      <trkpt lat="47.2263" lon="-1.84843">
        <ele>51</ele>
        <time>2021-09-04T10:24:19.000Z</time>
      </trkpt>
      <trkpt lat="47.22622" lon="-1.84826">
        <ele>51</ele>
        <time>2021-09-04T10:24:21.000Z</time>
      </trkpt>
      <trkpt lat="47.22614" lon="-1.8481">
        <ele>51</ele>
        <time>2021-09-04T10:24:23.000Z</time>
      </trkpt>
      <trkpt lat="47.22606" lon="-1.84794">
        <ele>51</ele>
        <time>2021-09-04T10:24:25.000Z</time>
      </trkpt>
      <trkpt lat="47.22597" lon="-1.84778">
        <ele>51</ele>
        <time>2021-09-04T10:24:27.000Z</time>
      </trkpt>
      <trkpt lat="47.22588" lon="-1.84762">
        <ele>51</ele>
        <time>2021-09-04T10:24:29.000Z</time>
      </trkpt>
      <trkpt lat="47.2258" lon="-1.84746">
        <ele>51</ele>
        <time>2021-09-04T10:24:31.000Z</time>
      </trkpt>
      <trkpt lat="47.22572" lon="-1.84731">
        <ele>51</ele>
        <time>2021-09-04T10:24:33.000Z</time>
      </trkpt>
      <trkpt lat="47.22564" lon="-1.84716">
        <ele>52</ele>
        <time>2021-09-04T10:24:35.000Z</time>
      </trkpt>
      <trkpt lat="47.22556" lon="-1.847">
        <ele>52</ele>
        <time>2021-09-04T10:24:37.000Z</time>
      </trkpt>
      <trkpt lat="47.22548" lon="-1.84685">
        <ele>53</ele>
        <time>2021-09-04T10:24:39.000Z</time>
      </trkpt>
      <trkpt lat="47.2254" lon="-1.8467">
        <ele>53</ele>
        <time>2021-09-04T10:24:41.000Z</time>
      </trkpt>
      <trkpt lat="47.22529" lon="-1.84657">
        <ele>53</ele>
        <time>2021-09-04T10:24:43.000Z</time>
      </trkpt>
      <trkpt lat="47.22518" lon="-1.84646">
        <ele>53</ele>
        <time>2021-09-04T10:24:45.000Z</time>
      </trkpt>
      <trkpt lat="47.22507" lon="-1.84637">
        <ele>53</ele>
        <time>2021-09-04T10:24:47.000Z</time>
      </trkpt>
      <trkpt lat="47.22495" lon="-1.84628">
        <ele>53</ele>
        <time>2021-09-04T10:24:49.000Z</time>
      </trkpt>
      <trkpt lat="47.22483" lon="-1.84618">
        <ele>52</ele>
        <time>2021-09-04T10:24:51.000Z</time>
      </trkpt>
      <trkpt lat="47.22474" lon="-1.84605">
        <ele>52</ele>
        <time>2021-09-04T10:24:53.000Z</time>
      </trkpt>
      <trkpt lat="47.22466" lon="-1.84589">
        <ele>52</ele>
        <time>2021-09-04T10:24:55.000Z</time>
      </trkpt>
      <trkpt lat="47.22458" lon="-1.84574">
        <ele>52</ele>
        <time>2021-09-04T10:24:57.000Z</time>
      </trkpt>
      <trkpt lat="47.22451" lon="-1.84558">
        <ele>53</ele>
        <time>2021-09-04T10:24:59.000Z</time>
      </trkpt>
      <trkpt lat="47.22443" lon="-1.8454">
        <ele>52</ele>
        <time>2021-09-04T10:25:01.000Z</time>
      </trkpt>
      <trkpt lat="47.22435" lon="-1.84525">
        <ele>52</ele>
        <time>2021-09-04T10:25:03.000Z</time>
      </trkpt>
      <trkpt lat="47.22427" lon="-1.84509">
        <ele>52</ele>
        <time>2021-09-04T10:25:05.000Z</time>
      </trkpt>
      <trkpt lat="47.22419" lon="-1.84493">
        <ele>52</ele>
        <time>2021-09-04T10:25:07.000Z</time>
      </trkpt>
      <trkpt lat="47.22412" lon="-1.84476">
        <ele>52</ele>
        <time>2021-09-04T10:25:09.000Z</time>
      </trkpt>
      <trkpt lat="47.22406" lon="-1.84458">
        <ele>51</ele>
        <time>2021-09-04T10:25:11.000Z</time>
      </trkpt>
      <trkpt lat="47.22402" lon="-1.84439">
        <ele>51</ele>
        <time>2021-09-04T10:25:13.000Z</time>
      </trkpt>
      <trkpt lat="47.224" lon="-1.84419">
        <ele>51</ele>
        <time>2021-09-04T10:25:15.000Z</time>
      </trkpt>
      <trkpt lat="47.22397" lon="-1.84401">
        <ele>51</ele>
        <time>2021-09-04T10:25:17.000Z</time>
      </trkpt>
      <trkpt lat="47.22392" lon="-1.84381">
        <ele>50</ele>
        <time>2021-09-04T10:25:19.000Z</time>
      </trkpt>
      <trkpt lat="47.22386" lon="-1.84363">
        <ele>50</ele>
        <time>2021-09-04T10:25:21.000Z</time>
      </trkpt>
      <trkpt lat="47.22379" lon="-1.84347">
        <ele>50</ele>
        <time>2021-09-04T10:25:23.000Z</time>
      </trkpt>
      <trkpt lat="47.22372" lon="-1.8433">
        <ele>50</ele>
        <time>2021-09-04T10:25:25.000Z</time>
      </trkpt>
      <trkpt lat="47.22364" lon="-1.84313">
        <ele>51</ele>
        <time>2021-09-04T10:25:27.000Z</time>
      </trkpt>
      <trkpt lat="47.22356" lon="-1.84297">
        <ele>50</ele>
        <time>2021-09-04T10:25:29.000Z</time>
      </trkpt>
      <trkpt lat="47.22348" lon="-1.84281">
        <ele>50</ele>
        <time>2021-09-04T10:25:31.000Z</time>
      </trkpt>
      <trkpt lat="47.2234" lon="-1.84264">
        <ele>50</ele>
        <time>2021-09-04T10:25:33.000Z</time>
      </trkpt>
      <trkpt lat="47.22332" lon="-1.84248">
        <ele>50</ele>
        <time>2021-09-04T10:25:35.000Z</time>
      </trkpt>
      <trkpt lat="47.22323" lon="-1.84232">
        <ele>50</ele>
        <time>2021-09-04T10:25:37.000Z</time>
      </trkpt>
      <trkpt lat="47.22315" lon="-1.84217">
        <ele>50</ele>
        <time>2021-09-04T10:25:39.000Z</time>
      </trkpt>
      <trkpt lat="47.22307" lon="-1.84201">
        <ele>50</ele>
        <time>2021-09-04T10:25:41.000Z</time>
      </trkpt>
      <trkpt lat="47.22299" lon="-1.84185">
        <ele>51</ele>
        <time>2021-09-04T10:25:43.000Z</time>
      </trkpt>
      <trkpt lat="47.22292" lon="-1.84169">
        <ele>51</ele>
        <time>2021-09-04T10:25:45.000Z</time>
      </trkpt>
      <trkpt lat="47.22284" lon="-1.84153">
        <ele>51</ele>
        <time>2021-09-04T10:25:47.000Z</time>
      </trkpt>
      <trkpt lat="47.22276" lon="-1.84136">
        <ele>51</ele>
        <time>2021-09-04T10:25:49.000Z</time>
      </trkpt>
      <trkpt lat="47.22268" lon="-1.8412">
        <ele>51</ele>
        <time>2021-09-04T10:25:51.000Z</time>
      </trkpt>
      <trkpt lat="47.2226" lon="-1.84105">
        <ele>52</ele>
        <time>2021-09-04T10:25:53.000Z</time>
      </trkpt>
      <trkpt lat="47.22253" lon="-1.84089">
        <ele>52</ele>
        <time>2021-09-04T10:25:55.000Z</time>
      </trkpt>
      <trkpt lat="47.22245" lon="-1.84073">
        <ele>52</ele>
        <time>2021-09-04T10:25:57.000Z</time>
      </trkpt>
      <trkpt lat="47.22237" lon="-1.84057">
        <ele>52</ele>
        <time>2021-09-04T10:25:59.000Z</time>
      </trkpt>
      <trkpt lat="47.22229" lon="-1.84041">
        <ele>52</ele>
        <time>2021-09-04T10:26:01.000Z</time>
      </trkpt>
      <trkpt lat="47.22221" lon="-1.84026">
        <ele>52</ele>
        <time>2021-09-04T10:26:03.000Z</time>
      </trkpt>
      <trkpt lat="47.22213" lon="-1.84009">
        <ele>52</ele>
        <time>2021-09-04T10:26:05.000Z</time>
      </trkpt>
      <trkpt lat="47.22206" lon="-1.83992">
        <ele>52</ele>
        <time>2021-09-04T10:26:07.000Z</time>
      </trkpt>
      <trkpt lat="47.22198" lon="-1.83976">
        <ele>52</ele>
        <time>2021-09-04T10:26:09.000Z</time>
      </trkpt>
      <trkpt lat="47.2219" lon="-1.8396">
        <ele>53</ele>
        <time>2021-09-04T10:26:11.000Z</time>
      </trkpt>
      <trkpt lat="47.22182" lon="-1.83944">
        <ele>53</ele>
        <time>2021-09-04T10:26:13.000Z</time>
      </trkpt>
      <trkpt lat="47.22173" lon="-1.83928">
        <ele>52</ele>
        <time>2021-09-04T10:26:15.000Z</time>
      </trkpt>
      <trkpt lat="47.22164" lon="-1.83911">
        <ele>52</ele>
        <time>2021-09-04T10:26:17.000Z</time>
      </trkpt>
      <trkpt lat="47.22157" lon="-1.83895">
        <ele>51</ele>
        <time>2021-09-04T10:26:19.000Z</time>
      </trkpt>
      <trkpt lat="47.22149" lon="-1.83879">
        <ele>51</ele>
        <time>2021-09-04T10:26:21.000Z</time>
      </trkpt>
      <trkpt lat="47.22141" lon="-1.83863">
        <ele>51</ele>
        <time>2021-09-04T10:26:23.000Z</time>
      </trkpt>
      <trkpt lat="47.22132" lon="-1.83846">
        <ele>51</ele>
        <time>2021-09-04T10:26:25.000Z</time>
      </trkpt>
      <trkpt lat="47.22124" lon="-1.83831">
        <ele>51</ele>
        <time>2021-09-04T10:26:27.000Z</time>
      </trkpt>
      <trkpt lat="47.22117" lon="-1.83815">
        <ele>51</ele>
        <time>2021-09-04T10:26:29.000Z</time>
      </trkpt>
      <trkpt lat="47.22109" lon="-1.83799">
        <ele>51</ele>
        <time>2021-09-04T10:26:31.000Z</time>
      </trkpt>
      <trkpt lat="47.22101" lon="-1.83782">
        <ele>51</ele>
        <time>2021-09-04T10:26:33.000Z</time>
      </trkpt>
      <trkpt lat="47.22093" lon="-1.83766">
        <ele>51</ele>
        <time>2021-09-04T10:26:35.000Z</time>
      </trkpt>
      <trkpt lat="47.22085" lon="-1.8375">
        <ele>50</ele>
        <time>2021-09-04T10:26:37.000Z</time>
      </trkpt>
      <trkpt lat="47.22077" lon="-1.83734">
        <ele>50</ele>
        <time>2021-09-04T10:26:39.000Z</time>
      </trkpt>
      <trkpt lat="47.22068" lon="-1.83718">
        <ele>50</ele>
        <time>2021-09-04T10:26:41.000Z</time>
      </trkpt>
      <trkpt lat="47.2206" lon="-1.83701">
        <ele>50</ele>
        <time>2021-09-04T10:26:43.000Z</time>
      </trkpt>
      <trkpt lat="47.22052" lon="-1.83685">
        <ele>50</ele>
        <time>2021-09-04T10:26:45.000Z</time>
      </trkpt>
      <trkpt lat="47.22045" lon="-1.83669">
        <ele>49</ele>
        <time>2021-09-04T10:26:47.000Z</time>
      </trkpt>
      <trkpt lat="47.22037" lon="-1.83653">
        <ele>49</ele>
        <time>2021-09-04T10:26:49.000Z</time>
      </trkpt>
      <trkpt lat="47.22029" lon="-1.83637">
        <ele>49</ele>
        <time>2021-09-04T10:26:51.000Z</time>
      </trkpt>
      <trkpt lat="47.22022" lon="-1.83621">
        <ele>49</ele>
        <time>2021-09-04T10:26:53.000Z</time>
      </trkpt>
      <trkpt lat="47.22014" lon="-1.83605">
        <ele>49</ele>
        <time>2021-09-04T10:26:55.000Z</time>
      </trkpt>
      <trkpt lat="47.22007" lon="-1.83589">
        <ele>50</ele>
        <time>2021-09-04T10:26:57.000Z</time>
      </trkpt>
      <trkpt lat="47.21999" lon="-1.83573">
        <ele>50</ele>
        <time>2021-09-04T10:26:59.000Z</time>
      </trkpt>
      <trkpt lat="47.21991" lon="-1.83558">
        <ele>50</ele>
        <time>2021-09-04T10:27:01.000Z</time>
      </trkpt>
      <trkpt lat="47.21984" lon="-1.83542">
        <ele>50</ele>
        <time>2021-09-04T10:27:03.000Z</time>
      </trkpt>
      <trkpt lat="47.21976" lon="-1.83527">
        <ele>51</ele>
        <time>2021-09-04T10:27:05.000Z</time>
      </trkpt>
      <trkpt lat="47.21968" lon="-1.83511">
        <ele>51</ele>
        <time>2021-09-04T10:27:07.000Z</time>
      </trkpt>
      <trkpt lat="47.2196" lon="-1.83496">
        <ele>50</ele>
        <time>2021-09-04T10:27:09.000Z</time>
      </trkpt>
      <trkpt lat="47.21951" lon="-1.8348">
        <ele>50</ele>
        <time>2021-09-04T10:27:11.000Z</time>
      </trkpt>
      <trkpt lat="47.21943" lon="-1.83463">
        <ele>50</ele>
        <time>2021-09-04T10:27:13.000Z</time>
      </trkpt>
      <trkpt lat="47.21935" lon="-1.83447">
        <ele>50</ele>
        <time>2021-09-04T10:27:15.000Z</time>
      </trkpt>
      <trkpt lat="47.21927" lon="-1.83431">
        <ele>50</ele>
        <time>2021-09-04T10:27:17.000Z</time>
      </trkpt>
      <trkpt lat="47.21919" lon="-1.83416">
        <ele>50</ele>
        <time>2021-09-04T10:27:19.000Z</time>
      </trkpt>
      <trkpt lat="47.21906" lon="-1.83392">
        <ele>51</ele>
        <time>2021-09-04T10:27:22.000Z</time>
      </trkpt>
      <trkpt lat="47.21898" lon="-1.83375">
        <ele>51</ele>
        <time>2021-09-04T10:27:24.000Z</time>
      </trkpt>
      <trkpt lat="47.2189" lon="-1.8336">
        <ele>51</ele>
        <time>2021-09-04T10:27:26.000Z</time>
      </trkpt>
      <trkpt lat="47.21878" lon="-1.83336">
        <ele>51</ele>
        <time>2021-09-04T10:27:29.000Z</time>
      </trkpt>
      <trkpt lat="47.21871" lon="-1.8332">
        <ele>51</ele>
        <time>2021-09-04T10:27:31.000Z</time>
      </trkpt>
      <trkpt lat="47.21859" lon="-1.83296">
        <ele>51</ele>
        <time>2021-09-04T10:27:34.000Z</time>
      </trkpt>
      <trkpt lat="47.21851" lon="-1.83279">
        <ele>51</ele>
        <time>2021-09-04T10:27:36.000Z</time>
      </trkpt>
      <trkpt lat="47.21843" lon="-1.83264">
        <ele>51</ele>
        <time>2021-09-04T10:27:38.000Z</time>
      </trkpt>
      <trkpt lat="47.21835" lon="-1.83248">
        <ele>51</ele>
        <time>2021-09-04T10:27:40.000Z</time>
      </trkpt>
      <trkpt lat="47.21827" lon="-1.83232">
        <ele>51</ele>
        <time>2021-09-04T10:27:42.000Z</time>
      </trkpt>
      <trkpt lat="47.21819" lon="-1.83216">
        <ele>51</ele>
        <time>2021-09-04T10:27:44.000Z</time>
      </trkpt>
      <trkpt lat="47.21811" lon="-1.832">
        <ele>51</ele>
        <time>2021-09-04T10:27:46.000Z</time>
      </trkpt>
      <trkpt lat="47.21803" lon="-1.83184">
        <ele>50</ele>
        <time>2021-09-04T10:27:48.000Z</time>
      </trkpt>
      <trkpt lat="47.21791" lon="-1.8316">
        <ele>50</ele>
        <time>2021-09-04T10:27:51.000Z</time>
      </trkpt>
      <trkpt lat="47.21783" lon="-1.83144">
        <ele>50</ele>
        <time>2021-09-04T10:27:53.000Z</time>
      </trkpt>
      <trkpt lat="47.21775" lon="-1.83127">
        <ele>50</ele>
        <time>2021-09-04T10:27:55.000Z</time>
      </trkpt>
      <trkpt lat="47.21767" lon="-1.83112">
        <ele>50</ele>
        <time>2021-09-04T10:27:57.000Z</time>
      </trkpt>
      <trkpt lat="47.2176" lon="-1.83096">
        <ele>50</ele>
        <time>2021-09-04T10:27:59.000Z</time>
      </trkpt>
      <trkpt lat="47.21752" lon="-1.8308">
        <ele>50</ele>
        <time>2021-09-04T10:28:01.000Z</time>
      </trkpt>
      <trkpt lat="47.21744" lon="-1.83064">
        <ele>50</ele>
        <time>2021-09-04T10:28:03.000Z</time>
      </trkpt>
      <trkpt lat="47.21737" lon="-1.83048">
        <ele>50</ele>
        <time>2021-09-04T10:28:05.000Z</time>
      </trkpt>
      <trkpt lat="47.21728" lon="-1.83033">
        <ele>50</ele>
        <time>2021-09-04T10:28:07.000Z</time>
      </trkpt>
      <trkpt lat="47.2172" lon="-1.83017">
        <ele>51</ele>
        <time>2021-09-04T10:28:09.000Z</time>
      </trkpt>
      <trkpt lat="47.21712" lon="-1.83001">
        <ele>51</ele>
        <time>2021-09-04T10:28:11.000Z</time>
      </trkpt>
      <trkpt lat="47.21704" lon="-1.82986">
        <ele>51</ele>
        <time>2021-09-04T10:28:13.000Z</time>
      </trkpt>
      <trkpt lat="47.21695" lon="-1.82971">
        <ele>51</ele>
        <time>2021-09-04T10:28:15.000Z</time>
      </trkpt>
      <trkpt lat="47.21687" lon="-1.82956">
        <ele>51</ele>
        <time>2021-09-04T10:28:17.000Z</time>
      </trkpt>
      <trkpt lat="47.21679" lon="-1.82941">
        <ele>50</ele>
        <time>2021-09-04T10:28:19.000Z</time>
      </trkpt>
      <trkpt lat="47.21671" lon="-1.82925">
        <ele>50</ele>
        <time>2021-09-04T10:28:21.000Z</time>
      </trkpt>
      <trkpt lat="47.21662" lon="-1.8291">
        <ele>50</ele>
        <time>2021-09-04T10:28:23.000Z</time>
      </trkpt>
      <trkpt lat="47.21654" lon="-1.82894">
        <ele>50</ele>
        <time>2021-09-04T10:28:25.000Z</time>
      </trkpt>
      <trkpt lat="47.21645" lon="-1.82878">
        <ele>50</ele>
        <time>2021-09-04T10:28:27.000Z</time>
      </trkpt>
      <trkpt lat="47.21637" lon="-1.82862">
        <ele>49</ele>
        <time>2021-09-04T10:28:29.000Z</time>
      </trkpt>
      <trkpt lat="47.21629" lon="-1.82846">
        <ele>49</ele>
        <time>2021-09-04T10:28:31.000Z</time>
      </trkpt>
      <trkpt lat="47.2162" lon="-1.82831">
        <ele>49</ele>
        <time>2021-09-04T10:28:33.000Z</time>
      </trkpt>
      <trkpt lat="47.21612" lon="-1.82816">
        <ele>49</ele>
        <time>2021-09-04T10:28:35.000Z</time>
      </trkpt>
      <trkpt lat="47.21603" lon="-1.82801">
        <ele>49</ele>
        <time>2021-09-04T10:28:37.000Z</time>
      </trkpt>
      <trkpt lat="47.21594" lon="-1.82786">
        <ele>49</ele>
        <time>2021-09-04T10:28:39.000Z</time>
      </trkpt>
      <trkpt lat="47.21585" lon="-1.82771">
        <ele>50</ele>
        <time>2021-09-04T10:28:41.000Z</time>
      </trkpt>
      <trkpt lat="47.21576" lon="-1.82757">
        <ele>50</ele>
        <time>2021-09-04T10:28:43.000Z</time>
      </trkpt>
      <trkpt lat="47.21567" lon="-1.82742">
        <ele>50</ele>
        <time>2021-09-04T10:28:45.000Z</time>
      </trkpt>
      <trkpt lat="47.21558" lon="-1.82727">
        <ele>50</ele>
        <time>2021-09-04T10:28:47.000Z</time>
      </trkpt>
      <trkpt lat="47.21549" lon="-1.82712">
        <ele>50</ele>
        <time>2021-09-04T10:28:49.000Z</time>
      </trkpt>
      <trkpt lat="47.2154" lon="-1.82698">
        <ele>50</ele>
        <time>2021-09-04T10:28:51.000Z</time>
      </trkpt>
      <trkpt lat="47.21531" lon="-1.82683">
        <ele>50</ele>
        <time>2021-09-04T10:28:53.000Z</time>
      </trkpt>
      <trkpt lat="47.21522" lon="-1.82669">
        <ele>50</ele>
        <time>2021-09-04T10:28:55.000Z</time>
      </trkpt>
      <trkpt lat="47.21513" lon="-1.82654">
        <ele>50</ele>
        <time>2021-09-04T10:28:57.000Z</time>
      </trkpt>
      <trkpt lat="47.21504" lon="-1.82639">
        <ele>49</ele>
        <time>2021-09-04T10:28:59.000Z</time>
      </trkpt>
      <trkpt lat="47.21495" lon="-1.82624">
        <ele>49</ele>
        <time>2021-09-04T10:29:01.000Z</time>
      </trkpt>
      <trkpt lat="47.21486" lon="-1.82609">
        <ele>49</ele>
        <time>2021-09-04T10:29:03.000Z</time>
      </trkpt>
      <trkpt lat="47.21478" lon="-1.82595">
        <ele>49</ele>
        <time>2021-09-04T10:29:05.000Z</time>
      </trkpt>
      <trkpt lat="47.21469" lon="-1.8258">
        <ele>49</ele>
        <time>2021-09-04T10:29:07.000Z</time>
      </trkpt>
      <trkpt lat="47.2146" lon="-1.82565">
        <ele>49</ele>
        <time>2021-09-04T10:29:09.000Z</time>
      </trkpt>
      <trkpt lat="47.21451" lon="-1.8255">
        <ele>49</ele>
        <time>2021-09-04T10:29:11.000Z</time>
      </trkpt>
      <trkpt lat="47.21442" lon="-1.82536">
        <ele>49</ele>
        <time>2021-09-04T10:29:13.000Z</time>
      </trkpt>
      <trkpt lat="47.21434" lon="-1.82521">
        <ele>49</ele>
        <time>2021-09-04T10:29:15.000Z</time>
      </trkpt>
      <trkpt lat="47.21426" lon="-1.82507">
        <ele>49</ele>
        <time>2021-09-04T10:29:17.000Z</time>
      </trkpt>
      <trkpt lat="47.21417" lon="-1.82492">
        <ele>49</ele>
        <time>2021-09-04T10:29:19.000Z</time>
      </trkpt>
      <trkpt lat="47.2141" lon="-1.82478">
        <ele>50</ele>
        <time>2021-09-04T10:29:21.000Z</time>
      </trkpt>
      <trkpt lat="47.21402" lon="-1.82466">
        <ele>50</ele>
        <time>2021-09-04T10:29:23.000Z</time>
      </trkpt>
      <trkpt lat="47.21395" lon="-1.82457">
        <ele>51</ele>
        <time>2021-09-04T10:29:25.000Z</time>
      </trkpt>
      <trkpt lat="47.21386" lon="-1.82445">
        <ele>50</ele>
        <time>2021-09-04T10:29:28.000Z</time>
      </trkpt>
      <trkpt lat="47.21386" lon="-1.82428">
        <ele>51</ele>
        <time>2021-09-04T10:29:31.000Z</time>
      </trkpt>
      <trkpt lat="47.21393" lon="-1.82419">
        <ele>51</ele>
        <time>2021-09-04T10:29:33.000Z</time>
      </trkpt>
      <trkpt lat="47.214" lon="-1.82409">
        <ele>52</ele>
        <time>2021-09-04T10:29:35.000Z</time>
      </trkpt>
      <trkpt lat="47.21407" lon="-1.82399">
        <ele>53</ele>
        <time>2021-09-04T10:29:37.000Z</time>
      </trkpt>
      <trkpt lat="47.21414" lon="-1.82389">
        <ele>53</ele>
        <time>2021-09-04T10:29:39.000Z</time>
      </trkpt>
      <trkpt lat="47.21421" lon="-1.82379">
        <ele>54</ele>
        <time>2021-09-04T10:29:41.000Z</time>
      </trkpt>
      <trkpt lat="47.2143" lon="-1.8237">
        <ele>53</ele>
        <time>2021-09-04T10:29:43.000Z</time>
      </trkpt>
      <trkpt lat="47.2144" lon="-1.82364">
        <ele>53</ele>
        <time>2021-09-04T10:29:45.000Z</time>
      </trkpt>
      <trkpt lat="47.21448" lon="-1.82355">
        <ele>53</ele>
        <time>2021-09-04T10:29:47.000Z</time>
      </trkpt>
      <trkpt lat="47.21451" lon="-1.82342">
        <ele>54</ele>
        <time>2021-09-04T10:29:49.000Z</time>
      </trkpt>
      <trkpt lat="47.21446" lon="-1.82329">
        <ele>55</ele>
        <time>2021-09-04T10:29:51.000Z</time>
      </trkpt>
      <trkpt lat="47.21439" lon="-1.82316">
        <ele>55</ele>
        <time>2021-09-04T10:29:53.000Z</time>
      </trkpt>
      <trkpt lat="47.21432" lon="-1.82305">
        <ele>55</ele>
        <time>2021-09-04T10:29:55.000Z</time>
      </trkpt>
      <trkpt lat="47.21425" lon="-1.82296">
        <ele>55</ele>
        <time>2021-09-04T10:29:57.000Z</time>
      </trkpt>
      <trkpt lat="47.21418" lon="-1.82286">
        <ele>55</ele>
        <time>2021-09-04T10:29:59.000Z</time>
      </trkpt>
      <trkpt lat="47.21408" lon="-1.82278">
        <ele>54</ele>
        <time>2021-09-04T10:30:01.000Z</time>
      </trkpt>
      <trkpt lat="47.21396" lon="-1.82275">
        <ele>52</ele>
        <time>2021-09-04T10:30:03.000Z</time>
      </trkpt>
      <trkpt lat="47.21384" lon="-1.82269">
        <ele>52</ele>
        <time>2021-09-04T10:30:05.000Z</time>
      </trkpt>
      <trkpt lat="47.21373" lon="-1.82255">
        <ele>51</ele>
        <time>2021-09-04T10:30:07.000Z</time>
      </trkpt>
      <trkpt lat="47.21364" lon="-1.82238">
        <ele>51</ele>
        <time>2021-09-04T10:30:09.000Z</time>
      </trkpt>
      <trkpt lat="47.21354" lon="-1.82223">
        <ele>52</ele>
        <time>2021-09-04T10:30:11.000Z</time>
      </trkpt>
      <trkpt lat="47.21344" lon="-1.82208">
        <ele>52</ele>
        <time>2021-09-04T10:30:13.000Z</time>
      </trkpt>
      <trkpt lat="47.21335" lon="-1.82192">
        <ele>52</ele>
        <time>2021-09-04T10:30:15.000Z</time>
      </trkpt>
      <trkpt lat="47.21325" lon="-1.82177">
        <ele>52</ele>
        <time>2021-09-04T10:30:17.000Z</time>
      </trkpt>
      <trkpt lat="47.21316" lon="-1.82161">
        <ele>52</ele>
        <time>2021-09-04T10:30:19.000Z</time>
      </trkpt>
      <trkpt lat="47.21307" lon="-1.82146">
        <ele>52</ele>
        <time>2021-09-04T10:30:21.000Z</time>
      </trkpt>
      <trkpt lat="47.21298" lon="-1.82132">
        <ele>52</ele>
        <time>2021-09-04T10:30:23.000Z</time>
      </trkpt>
      <trkpt lat="47.21289" lon="-1.82118">
        <ele>52</ele>
        <time>2021-09-04T10:30:25.000Z</time>
      </trkpt>
      <trkpt lat="47.2128" lon="-1.82103">
        <ele>54</ele>
        <time>2021-09-04T10:30:27.000Z</time>
      </trkpt>
      <trkpt lat="47.2127" lon="-1.82089">
        <ele>54</ele>
        <time>2021-09-04T10:30:29.000Z</time>
      </trkpt>
      <trkpt lat="47.21261" lon="-1.82074">
        <ele>54</ele>
        <time>2021-09-04T10:30:31.000Z</time>
      </trkpt>
      <trkpt lat="47.21251" lon="-1.82059">
        <ele>54</ele>
        <time>2021-09-04T10:30:33.000Z</time>
      </trkpt>
      <trkpt lat="47.21242" lon="-1.82043">
        <ele>53</ele>
        <time>2021-09-04T10:30:35.000Z</time>
      </trkpt>
      <trkpt lat="47.21232" lon="-1.82028">
        <ele>53</ele>
        <time>2021-09-04T10:30:37.000Z</time>
      </trkpt>
      <trkpt lat="47.21223" lon="-1.82014">
        <ele>53</ele>
        <time>2021-09-04T10:30:39.000Z</time>
      </trkpt>
      <trkpt lat="47.21212" lon="-1.81999">
        <ele>53</ele>
        <time>2021-09-04T10:30:41.000Z</time>
      </trkpt>
      <trkpt lat="47.21203" lon="-1.81984">
        <ele>54</ele>
        <time>2021-09-04T10:30:43.000Z</time>
      </trkpt>
      <trkpt lat="47.21194" lon="-1.81969">
        <ele>54</ele>
        <time>2021-09-04T10:30:45.000Z</time>
      </trkpt>
      <trkpt lat="47.21185" lon="-1.81953">
        <ele>53</ele>
        <time>2021-09-04T10:30:47.000Z</time>
      </trkpt>
      <trkpt lat="47.21176" lon="-1.81939">
        <ele>53</ele>
        <time>2021-09-04T10:30:49.000Z</time>
      </trkpt>
      <trkpt lat="47.21167" lon="-1.81925">
        <ele>53</ele>
        <time>2021-09-04T10:30:51.000Z</time>
      </trkpt>
      <trkpt lat="47.21159" lon="-1.8191">
        <ele>53</ele>
        <time>2021-09-04T10:30:53.000Z</time>
      </trkpt>
      <trkpt lat="47.2115" lon="-1.81894">
        <ele>53</ele>
        <time>2021-09-04T10:30:55.000Z</time>
      </trkpt>
      <trkpt lat="47.21142" lon="-1.81878">
        <ele>53</ele>
        <time>2021-09-04T10:30:57.000Z</time>
      </trkpt>
      <trkpt lat="47.21134" lon="-1.81862">
        <ele>52</ele>
        <time>2021-09-04T10:30:59.000Z</time>
      </trkpt>
      <trkpt lat="47.21125" lon="-1.81846">
        <ele>52</ele>
        <time>2021-09-04T10:31:01.000Z</time>
      </trkpt>
      <trkpt lat="47.21116" lon="-1.8183">
        <ele>52</ele>
        <time>2021-09-04T10:31:03.000Z</time>
      </trkpt>
      <trkpt lat="47.21108" lon="-1.81816">
        <ele>53</ele>
        <time>2021-09-04T10:31:05.000Z</time>
      </trkpt>
      <trkpt lat="47.21099" lon="-1.81801">
        <ele>54</ele>
        <time>2021-09-04T10:31:07.000Z</time>
      </trkpt>
      <trkpt lat="47.21091" lon="-1.81785">
        <ele>53</ele>
        <time>2021-09-04T10:31:09.000Z</time>
      </trkpt>
      <trkpt lat="47.21083" lon="-1.81769">
        <ele>52</ele>
        <time>2021-09-04T10:31:11.000Z</time>
      </trkpt>
      <trkpt lat="47.21074" lon="-1.81753">
        <ele>52</ele>
        <time>2021-09-04T10:31:13.000Z</time>
      </trkpt>
      <trkpt lat="47.21066" lon="-1.81737">
        <ele>53</ele>
        <time>2021-09-04T10:31:15.000Z</time>
      </trkpt>
      <trkpt lat="47.21057" lon="-1.8172">
        <ele>52</ele>
        <time>2021-09-04T10:31:17.000Z</time>
      </trkpt>
      <trkpt lat="47.21049" lon="-1.81703">
        <ele>52</ele>
        <time>2021-09-04T10:31:19.000Z</time>
      </trkpt>
      <trkpt lat="47.21042" lon="-1.81687">
        <ele>52</ele>
        <time>2021-09-04T10:31:21.000Z</time>
      </trkpt>
      <trkpt lat="47.21033" lon="-1.81671">
        <ele>52</ele>
        <time>2021-09-04T10:31:23.000Z</time>
      </trkpt>
      <trkpt lat="47.21026" lon="-1.81655">
        <ele>52</ele>
        <time>2021-09-04T10:31:25.000Z</time>
      </trkpt>
      <trkpt lat="47.21019" lon="-1.81639">
        <ele>53</ele>
        <time>2021-09-04T10:31:27.000Z</time>
      </trkpt>
      <trkpt lat="47.21012" lon="-1.81623">
        <ele>53</ele>
        <time>2021-09-04T10:31:29.000Z</time>
      </trkpt>
      <trkpt lat="47.21005" lon="-1.81605">
        <ele>53</ele>
        <time>2021-09-04T10:31:31.000Z</time>
      </trkpt>
      <trkpt lat="47.20997" lon="-1.81588">
        <ele>53</ele>
        <time>2021-09-04T10:31:33.000Z</time>
      </trkpt>
      <trkpt lat="47.20989" lon="-1.81569">
        <ele>52</ele>
        <time>2021-09-04T10:31:35.000Z</time>
      </trkpt>
      <trkpt lat="47.20982" lon="-1.81551">
        <ele>51</ele>
        <time>2021-09-04T10:31:37.000Z</time>
      </trkpt>
      <trkpt lat="47.20975" lon="-1.81535">
        <ele>51</ele>
        <time>2021-09-04T10:31:39.000Z</time>
      </trkpt>
      <trkpt lat="47.20968" lon="-1.81518">
        <ele>51</ele>
        <time>2021-09-04T10:31:41.000Z</time>
      </trkpt>
      <trkpt lat="47.20962" lon="-1.81501">
        <ele>50</ele>
        <time>2021-09-04T10:31:43.000Z</time>
      </trkpt>
      <trkpt lat="47.20955" lon="-1.81482">
        <ele>49</ele>
        <time>2021-09-04T10:31:45.000Z</time>
      </trkpt>
      <trkpt lat="47.20948" lon="-1.81465">
        <ele>49</ele>
        <time>2021-09-04T10:31:47.000Z</time>
      </trkpt>
      <trkpt lat="47.20941" lon="-1.81447">
        <ele>49</ele>
        <time>2021-09-04T10:31:49.000Z</time>
      </trkpt>
      <trkpt lat="47.20935" lon="-1.8143">
        <ele>50</ele>
        <time>2021-09-04T10:31:51.000Z</time>
      </trkpt>
      <trkpt lat="47.2093" lon="-1.81413">
        <ele>50</ele>
        <time>2021-09-04T10:31:53.000Z</time>
      </trkpt>
      <trkpt lat="47.20925" lon="-1.81395">
        <ele>50</ele>
        <time>2021-09-04T10:31:55.000Z</time>
      </trkpt>
      <trkpt lat="47.20919" lon="-1.81377">
        <ele>50</ele>
        <time>2021-09-04T10:31:57.000Z</time>
      </trkpt>
      <trkpt lat="47.20912" lon="-1.8136">
        <ele>51</ele>
        <time>2021-09-04T10:31:59.000Z</time>
      </trkpt>
      <trkpt lat="47.20906" lon="-1.81342">
        <ele>52</ele>
        <time>2021-09-04T10:32:01.000Z</time>
      </trkpt>
      <trkpt lat="47.209" lon="-1.81325">
        <ele>52</ele>
        <time>2021-09-04T10:32:03.000Z</time>
      </trkpt>
      <trkpt lat="47.20895" lon="-1.81307">
        <ele>51</ele>
        <time>2021-09-04T10:32:05.000Z</time>
      </trkpt>
      <trkpt lat="47.20889" lon="-1.81289">
        <ele>51</ele>
        <time>2021-09-04T10:32:07.000Z</time>
      </trkpt>
      <trkpt lat="47.20883" lon="-1.81272">
        <ele>51</ele>
        <time>2021-09-04T10:32:09.000Z</time>
      </trkpt>
      <trkpt lat="47.20878" lon="-1.81255">
        <ele>52</ele>
        <time>2021-09-04T10:32:11.000Z</time>
      </trkpt>
      <trkpt lat="47.20873" lon="-1.81238">
        <ele>52</ele>
        <time>2021-09-04T10:32:13.000Z</time>
      </trkpt>
      <trkpt lat="47.20868" lon="-1.81219">
        <ele>52</ele>
        <time>2021-09-04T10:32:15.000Z</time>
      </trkpt>
      <trkpt lat="47.20862" lon="-1.81201">
        <ele>52</ele>
        <time>2021-09-04T10:32:17.000Z</time>
      </trkpt>
      <trkpt lat="47.20857" lon="-1.81182">
        <ele>52</ele>
        <time>2021-09-04T10:32:19.000Z</time>
      </trkpt>
      <trkpt lat="47.20852" lon="-1.81164">
        <ele>51</ele>
        <time>2021-09-04T10:32:21.000Z</time>
      </trkpt>
      <trkpt lat="47.20847" lon="-1.81146">
        <ele>51</ele>
        <time>2021-09-04T10:32:23.000Z</time>
      </trkpt>
      <trkpt lat="47.20842" lon="-1.81127">
        <ele>51</ele>
        <time>2021-09-04T10:32:25.000Z</time>
      </trkpt>
      <trkpt lat="47.20838" lon="-1.81108">
        <ele>51</ele>
        <time>2021-09-04T10:32:27.000Z</time>
      </trkpt>
      <trkpt lat="47.20833" lon="-1.8109">
        <ele>51</ele>
        <time>2021-09-04T10:32:29.000Z</time>
      </trkpt>
      <trkpt lat="47.20829" lon="-1.81071">
        <ele>51</ele>
        <time>2021-09-04T10:32:31.000Z</time>
      </trkpt>
      <trkpt lat="47.20824" lon="-1.81053">
        <ele>51</ele>
        <time>2021-09-04T10:32:33.000Z</time>
      </trkpt>
      <trkpt lat="47.20819" lon="-1.81035">
        <ele>51</ele>
        <time>2021-09-04T10:32:35.000Z</time>
      </trkpt>
      <trkpt lat="47.20815" lon="-1.81016">
        <ele>51</ele>
        <time>2021-09-04T10:32:37.000Z</time>
      </trkpt>
      <trkpt lat="47.2081" lon="-1.80997">
        <ele>51</ele>
        <time>2021-09-04T10:32:39.000Z</time>
      </trkpt>
      <trkpt lat="47.20806" lon="-1.80978">
        <ele>52</ele>
        <time>2021-09-04T10:32:41.000Z</time>
      </trkpt>
      <trkpt lat="47.20802" lon="-1.80959">
        <ele>52</ele>
        <time>2021-09-04T10:32:43.000Z</time>
      </trkpt>
      <trkpt lat="47.20798" lon="-1.80939">
        <ele>52</ele>
        <time>2021-09-04T10:32:45.000Z</time>
      </trkpt>
      <trkpt lat="47.20795" lon="-1.80918">
        <ele>52</ele>
        <time>2021-09-04T10:32:47.000Z</time>
      </trkpt>
      <trkpt lat="47.20791" lon="-1.80899">
        <ele>52</ele>
        <time>2021-09-04T10:32:49.000Z</time>
      </trkpt>
      <trkpt lat="47.20788" lon="-1.80879">
        <ele>53</ele>
        <time>2021-09-04T10:32:51.000Z</time>
      </trkpt>
      <trkpt lat="47.20784" lon="-1.80859">
        <ele>53</ele>
        <time>2021-09-04T10:32:53.000Z</time>
      </trkpt>
      <trkpt lat="47.20781" lon="-1.80839">
        <ele>53</ele>
        <time>2021-09-04T10:32:55.000Z</time>
      </trkpt>
      <trkpt lat="47.20778" lon="-1.80819">
        <ele>52</ele>
        <time>2021-09-04T10:32:57.000Z</time>
      </trkpt>
      <trkpt lat="47.20774" lon="-1.808">
        <ele>53</ele>
        <time>2021-09-04T10:32:59.000Z</time>
      </trkpt>
      <trkpt lat="47.20771" lon="-1.8078">
        <ele>53</ele>
        <time>2021-09-04T10:33:01.000Z</time>
      </trkpt>
      <trkpt lat="47.20768" lon="-1.8076">
        <ele>53</ele>
        <time>2021-09-04T10:33:03.000Z</time>
      </trkpt>
      <trkpt lat="47.20765" lon="-1.8074">
        <ele>52</ele>
        <time>2021-09-04T10:33:05.000Z</time>
      </trkpt>
      <trkpt lat="47.20762" lon="-1.8072">
        <ele>52</ele>
        <time>2021-09-04T10:33:07.000Z</time>
      </trkpt>
      <trkpt lat="47.20759" lon="-1.807">
        <ele>52</ele>
        <time>2021-09-04T10:33:09.000Z</time>
      </trkpt>
      <trkpt lat="47.20757" lon="-1.80681">
        <ele>52</ele>
        <time>2021-09-04T10:33:11.000Z</time>
      </trkpt>
      <trkpt lat="47.20754" lon="-1.80662">
        <ele>52</ele>
        <time>2021-09-04T10:33:13.000Z</time>
      </trkpt>
      <trkpt lat="47.20752" lon="-1.80643">
        <ele>53</ele>
        <time>2021-09-04T10:33:15.000Z</time>
      </trkpt>
      <trkpt lat="47.20749" lon="-1.80624">
        <ele>53</ele>
        <time>2021-09-04T10:33:17.000Z</time>
      </trkpt>
      <trkpt lat="47.20747" lon="-1.80604">
        <ele>53</ele>
        <time>2021-09-04T10:33:19.000Z</time>
      </trkpt>
      <trkpt lat="47.20746" lon="-1.80583">
        <ele>53</ele>
        <time>2021-09-04T10:33:21.000Z</time>
      </trkpt>
      <trkpt lat="47.20743" lon="-1.80563">
        <ele>53</ele>
        <time>2021-09-04T10:33:23.000Z</time>
      </trkpt>
      <trkpt lat="47.20741" lon="-1.80543">
        <ele>53</ele>
        <time>2021-09-04T10:33:25.000Z</time>
      </trkpt>
      <trkpt lat="47.2074" lon="-1.80523">
        <ele>53</ele>
        <time>2021-09-04T10:33:27.000Z</time>
      </trkpt>
      <trkpt lat="47.20738" lon="-1.80502">
        <ele>53</ele>
        <time>2021-09-04T10:33:29.000Z</time>
      </trkpt>
      <trkpt lat="47.20736" lon="-1.80481">
        <ele>53</ele>
        <time>2021-09-04T10:33:31.000Z</time>
      </trkpt>
      <trkpt lat="47.20735" lon="-1.80464">
        <ele>53</ele>
        <time>2021-09-04T10:33:33.000Z</time>
      </trkpt>
      <trkpt lat="47.20734" lon="-1.80442">
        <ele>52</ele>
        <time>2021-09-04T10:33:35.000Z</time>
      </trkpt>
      <trkpt lat="47.20733" lon="-1.80421">
        <ele>52</ele>
        <time>2021-09-04T10:33:37.000Z</time>
      </trkpt>
      <trkpt lat="47.20731" lon="-1.80401">
        <ele>53</ele>
        <time>2021-09-04T10:33:39.000Z</time>
      </trkpt>
      <trkpt lat="47.2073" lon="-1.80382">
        <ele>53</ele>
        <time>2021-09-04T10:33:41.000Z</time>
      </trkpt>
      <trkpt lat="47.20729" lon="-1.80363">
        <ele>53</ele>
        <time>2021-09-04T10:33:43.000Z</time>
      </trkpt>
      <trkpt lat="47.20728" lon="-1.80344">
        <ele>54</ele>
        <time>2021-09-04T10:33:45.000Z</time>
      </trkpt>
      <trkpt lat="47.20726" lon="-1.80326">
        <ele>54</ele>
        <time>2021-09-04T10:33:47.000Z</time>
      </trkpt>
      <trkpt lat="47.20725" lon="-1.80307">
        <ele>54</ele>
        <time>2021-09-04T10:33:49.000Z</time>
      </trkpt>
      <trkpt lat="47.20724" lon="-1.80289">
        <ele>54</ele>
        <time>2021-09-04T10:33:51.000Z</time>
      </trkpt>
      <trkpt lat="47.20722" lon="-1.8027">
        <ele>54</ele>
        <time>2021-09-04T10:33:53.000Z</time>
      </trkpt>
      <trkpt lat="47.20721" lon="-1.80251">
        <ele>54</ele>
        <time>2021-09-04T10:33:55.000Z</time>
      </trkpt>
      <trkpt lat="47.2072" lon="-1.8023">
        <ele>54</ele>
        <time>2021-09-04T10:33:57.000Z</time>
      </trkpt>
      <trkpt lat="47.20718" lon="-1.8021">
        <ele>54</ele>
        <time>2021-09-04T10:33:59.000Z</time>
      </trkpt>
      <trkpt lat="47.20717" lon="-1.8019">
        <ele>54</ele>
        <time>2021-09-04T10:34:01.000Z</time>
      </trkpt>
      <trkpt lat="47.20715" lon="-1.8017">
        <ele>54</ele>
        <time>2021-09-04T10:34:03.000Z</time>
      </trkpt>
      <trkpt lat="47.20714" lon="-1.80149">
        <ele>53</ele>
        <time>2021-09-04T10:34:05.000Z</time>
      </trkpt>
      <trkpt lat="47.20713" lon="-1.80128">
        <ele>53</ele>
        <time>2021-09-04T10:34:07.000Z</time>
      </trkpt>
      <trkpt lat="47.20711" lon="-1.80108">
        <ele>53</ele>
        <time>2021-09-04T10:34:09.000Z</time>
      </trkpt>
      <trkpt lat="47.2071" lon="-1.80087">
        <ele>53</ele>
        <time>2021-09-04T10:34:11.000Z</time>
      </trkpt>
      <trkpt lat="47.20708" lon="-1.80067">
        <ele>53</ele>
        <time>2021-09-04T10:34:13.000Z</time>
      </trkpt>
      <trkpt lat="47.20707" lon="-1.80046">
        <ele>53</ele>
        <time>2021-09-04T10:34:15.000Z</time>
      </trkpt>
      <trkpt lat="47.20705" lon="-1.80027">
        <ele>53</ele>
        <time>2021-09-04T10:34:17.000Z</time>
      </trkpt>
      <trkpt lat="47.20703" lon="-1.80007">
        <ele>53</ele>
        <time>2021-09-04T10:34:19.000Z</time>
      </trkpt>
      <trkpt lat="47.20702" lon="-1.79987">
        <ele>53</ele>
        <time>2021-09-04T10:34:21.000Z</time>
      </trkpt>
      <trkpt lat="47.20701" lon="-1.79969">
        <ele>53</ele>
        <time>2021-09-04T10:34:23.000Z</time>
      </trkpt>
      <trkpt lat="47.20699" lon="-1.79951">
        <ele>53</ele>
        <time>2021-09-04T10:34:25.000Z</time>
      </trkpt>
      <trkpt lat="47.20698" lon="-1.79931">
        <ele>53</ele>
        <time>2021-09-04T10:34:27.000Z</time>
      </trkpt>
      <trkpt lat="47.20697" lon="-1.79911">
        <ele>53</ele>
        <time>2021-09-04T10:34:29.000Z</time>
      </trkpt>
      <trkpt lat="47.20696" lon="-1.79891">
        <ele>53</ele>
        <time>2021-09-04T10:34:31.000Z</time>
      </trkpt>
      <trkpt lat="47.20694" lon="-1.7987">
        <ele>53</ele>
        <time>2021-09-04T10:34:33.000Z</time>
      </trkpt>
      <trkpt lat="47.20693" lon="-1.7985">
        <ele>53</ele>
        <time>2021-09-04T10:34:35.000Z</time>
      </trkpt>
      <trkpt lat="47.20691" lon="-1.79829">
        <ele>53</ele>
        <time>2021-09-04T10:34:37.000Z</time>
      </trkpt>
      <trkpt lat="47.2069" lon="-1.7981">
        <ele>53</ele>
        <time>2021-09-04T10:34:39.000Z</time>
      </trkpt>
      <trkpt lat="47.20689" lon="-1.7979">
        <ele>53</ele>
        <time>2021-09-04T10:34:41.000Z</time>
      </trkpt>
      <trkpt lat="47.20688" lon="-1.79771">
        <ele>53</ele>
        <time>2021-09-04T10:34:43.000Z</time>
      </trkpt>
      <trkpt lat="47.20687" lon="-1.79751">
        <ele>52</ele>
        <time>2021-09-04T10:34:45.000Z</time>
      </trkpt>
      <trkpt lat="47.20686" lon="-1.79731">
        <ele>52</ele>
        <time>2021-09-04T10:34:47.000Z</time>
      </trkpt>
      <trkpt lat="47.20685" lon="-1.79712">
        <ele>53</ele>
        <time>2021-09-04T10:34:49.000Z</time>
      </trkpt>
      <trkpt lat="47.20684" lon="-1.79692">
        <ele>53</ele>
        <time>2021-09-04T10:34:51.000Z</time>
      </trkpt>
      <trkpt lat="47.20683" lon="-1.79672">
        <ele>53</ele>
        <time>2021-09-04T10:34:53.000Z</time>
      </trkpt>
      <trkpt lat="47.20683" lon="-1.7965">
        <ele>54</ele>
        <time>2021-09-04T10:34:55.000Z</time>
      </trkpt>
      <trkpt lat="47.20682" lon="-1.79631">
        <ele>55</ele>
        <time>2021-09-04T10:34:57.000Z</time>
      </trkpt>
      <trkpt lat="47.20682" lon="-1.79612">
        <ele>55</ele>
        <time>2021-09-04T10:34:59.000Z</time>
      </trkpt>
      <trkpt lat="47.20682" lon="-1.79593">
        <ele>53</ele>
        <time>2021-09-04T10:35:01.000Z</time>
      </trkpt>
      <trkpt lat="47.20682" lon="-1.79573">
        <ele>53</ele>
        <time>2021-09-04T10:35:03.000Z</time>
      </trkpt>
      <trkpt lat="47.20683" lon="-1.79552">
        <ele>52</ele>
        <time>2021-09-04T10:35:05.000Z</time>
      </trkpt>
      <trkpt lat="47.20683" lon="-1.79532">
        <ele>51</ele>
        <time>2021-09-04T10:35:07.000Z</time>
      </trkpt>
      <trkpt lat="47.20683" lon="-1.79512">
        <ele>51</ele>
        <time>2021-09-04T10:35:09.000Z</time>
      </trkpt>
      <trkpt lat="47.20684" lon="-1.79492">
        <ele>51</ele>
        <time>2021-09-04T10:35:11.000Z</time>
      </trkpt>
      <trkpt lat="47.20683" lon="-1.79472">
        <ele>51</ele>
        <time>2021-09-04T10:35:13.000Z</time>
      </trkpt>
      <trkpt lat="47.20684" lon="-1.79452">
        <ele>50</ele>
        <time>2021-09-04T10:35:15.000Z</time>
      </trkpt>
      <trkpt lat="47.20685" lon="-1.79432">
        <ele>50</ele>
        <time>2021-09-04T10:35:17.000Z</time>
      </trkpt>
      <trkpt lat="47.20688" lon="-1.79413">
        <ele>50</ele>
        <time>2021-09-04T10:35:19.000Z</time>
      </trkpt>
      <trkpt lat="47.20694" lon="-1.79396">
        <ele>51</ele>
        <time>2021-09-04T10:35:21.000Z</time>
      </trkpt>
      <trkpt lat="47.20701" lon="-1.7938">
        <ele>51</ele>
        <time>2021-09-04T10:35:23.000Z</time>
      </trkpt>
      <trkpt lat="47.20706" lon="-1.79361">
        <ele>51</ele>
        <time>2021-09-04T10:35:25.000Z</time>
      </trkpt>
      <trkpt lat="47.2071" lon="-1.79342">
        <ele>51</ele>
        <time>2021-09-04T10:35:27.000Z</time>
      </trkpt>
      <trkpt lat="47.20711" lon="-1.79322">
        <ele>52</ele>
        <time>2021-09-04T10:35:29.000Z</time>
      </trkpt>
      <trkpt lat="47.20711" lon="-1.79302">
        <ele>51</ele>
        <time>2021-09-04T10:35:31.000Z</time>
      </trkpt>
      <trkpt lat="47.20709" lon="-1.79282">
        <ele>51</ele>
        <time>2021-09-04T10:35:33.000Z</time>
      </trkpt>
      <trkpt lat="47.20708" lon="-1.79263">
        <ele>51</ele>
        <time>2021-09-04T10:35:35.000Z</time>
      </trkpt>
      <trkpt lat="47.20705" lon="-1.79243">
        <ele>51</ele>
        <time>2021-09-04T10:35:37.000Z</time>
      </trkpt>
      <trkpt lat="47.20702" lon="-1.79223">
        <ele>50</ele>
        <time>2021-09-04T10:35:39.000Z</time>
      </trkpt>
      <trkpt lat="47.20701" lon="-1.79203">
        <ele>51</ele>
        <time>2021-09-04T10:35:41.000Z</time>
      </trkpt>
      <trkpt lat="47.20703" lon="-1.79184">
        <ele>51</ele>
        <time>2021-09-04T10:35:43.000Z</time>
      </trkpt>
      <trkpt lat="47.20705" lon="-1.79164">
        <ele>51</ele>
        <time>2021-09-04T10:35:45.000Z</time>
      </trkpt>
      <trkpt lat="47.20707" lon="-1.79144">
        <ele>51</ele>
        <time>2021-09-04T10:35:47.000Z</time>
      </trkpt>
      <trkpt lat="47.20709" lon="-1.79125">
        <ele>51</ele>
        <time>2021-09-04T10:35:49.000Z</time>
      </trkpt>
      <trkpt lat="47.20711" lon="-1.79105">
        <ele>51</ele>
        <time>2021-09-04T10:35:51.000Z</time>
      </trkpt>
      <trkpt lat="47.20714" lon="-1.79086">
        <ele>51</ele>
        <time>2021-09-04T10:35:53.000Z</time>
      </trkpt>
      <trkpt lat="47.20718" lon="-1.79066">
        <ele>51</ele>
        <time>2021-09-04T10:35:55.000Z</time>
      </trkpt>
      <trkpt lat="47.20723" lon="-1.79048">
        <ele>52</ele>
        <time>2021-09-04T10:35:57.000Z</time>
      </trkpt>
      <trkpt lat="47.20731" lon="-1.7903">
        <ele>52</ele>
        <time>2021-09-04T10:35:59.000Z</time>
      </trkpt>
      <trkpt lat="47.20739" lon="-1.79014">
        <ele>51</ele>
        <time>2021-09-04T10:36:01.000Z</time>
      </trkpt>
      <trkpt lat="47.20749" lon="-1.78998">
        <ele>51</ele>
        <time>2021-09-04T10:36:03.000Z</time>
      </trkpt>
      <trkpt lat="47.20757" lon="-1.78983">
        <ele>51</ele>
        <time>2021-09-04T10:36:05.000Z</time>
      </trkpt>
      <trkpt lat="47.20766" lon="-1.78967">
        <ele>51</ele>
        <time>2021-09-04T10:36:07.000Z</time>
      </trkpt>
      <trkpt lat="47.20775" lon="-1.78951">
        <ele>51</ele>
        <time>2021-09-04T10:36:09.000Z</time>
      </trkpt>
      <trkpt lat="47.20782" lon="-1.78934">
        <ele>51</ele>
        <time>2021-09-04T10:36:11.000Z</time>
      </trkpt>
      <trkpt lat="47.20787" lon="-1.78916">
        <ele>51</ele>
        <time>2021-09-04T10:36:13.000Z</time>
      </trkpt>
      <trkpt lat="47.20791" lon="-1.78896">
        <ele>51</ele>
        <time>2021-09-04T10:36:15.000Z</time>
      </trkpt>
      <trkpt lat="47.20795" lon="-1.78877">
        <ele>51</ele>
        <time>2021-09-04T10:36:17.000Z</time>
      </trkpt>
      <trkpt lat="47.20799" lon="-1.78857">
        <ele>51</ele>
        <time>2021-09-04T10:36:19.000Z</time>
      </trkpt>
      <trkpt lat="47.20803" lon="-1.78838">
        <ele>51</ele>
        <time>2021-09-04T10:36:21.000Z</time>
      </trkpt>
      <trkpt lat="47.20807" lon="-1.78819">
        <ele>52</ele>
        <time>2021-09-04T10:36:23.000Z</time>
      </trkpt>
      <trkpt lat="47.20811" lon="-1.78801">
        <ele>52</ele>
        <time>2021-09-04T10:36:25.000Z</time>
      </trkpt>
      <trkpt lat="47.20815" lon="-1.78782">
        <ele>52</ele>
        <time>2021-09-04T10:36:27.000Z</time>
      </trkpt>
      <trkpt lat="47.20819" lon="-1.78764">
        <ele>52</ele>
        <time>2021-09-04T10:36:29.000Z</time>
      </trkpt>
      <trkpt lat="47.20823" lon="-1.78745">
        <ele>52</ele>
        <time>2021-09-04T10:36:31.000Z</time>
      </trkpt>
      <trkpt lat="47.20826" lon="-1.78726">
        <ele>52</ele>
        <time>2021-09-04T10:36:33.000Z</time>
      </trkpt>
      <trkpt lat="47.2083" lon="-1.78707">
        <ele>52</ele>
        <time>2021-09-04T10:36:35.000Z</time>
      </trkpt>
      <trkpt lat="47.20832" lon="-1.78688">
        <ele>52</ele>
        <time>2021-09-04T10:36:37.000Z</time>
      </trkpt>
      <trkpt lat="47.20832" lon="-1.78668">
        <ele>52</ele>
        <time>2021-09-04T10:36:39.000Z</time>
      </trkpt>
      <trkpt lat="47.20831" lon="-1.78648">
        <ele>52</ele>
        <time>2021-09-04T10:36:41.000Z</time>
      </trkpt>
      <trkpt lat="47.20828" lon="-1.7863">
        <ele>53</ele>
        <time>2021-09-04T10:36:43.000Z</time>
      </trkpt>
      <trkpt lat="47.2082" lon="-1.78613">
        <ele>52</ele>
        <time>2021-09-04T10:36:45.000Z</time>
      </trkpt>
      <trkpt lat="47.2081" lon="-1.78602">
        <ele>52</ele>
        <time>2021-09-04T10:36:47.000Z</time>
      </trkpt>
      <trkpt lat="47.20798" lon="-1.78592">
        <ele>51</ele>
        <time>2021-09-04T10:36:49.000Z</time>
      </trkpt>
      <trkpt lat="47.20786" lon="-1.78584">
        <ele>51</ele>
        <time>2021-09-04T10:36:51.000Z</time>
      </trkpt>
      <trkpt lat="47.20774" lon="-1.78575">
        <ele>50</ele>
        <time>2021-09-04T10:36:53.000Z</time>
      </trkpt>
      <trkpt lat="47.20762" lon="-1.78568">
        <ele>50</ele>
        <time>2021-09-04T10:36:55.000Z</time>
      </trkpt>
      <trkpt lat="47.20749" lon="-1.78563">
        <ele>49</ele>
        <time>2021-09-04T10:36:57.000Z</time>
      </trkpt>
      <trkpt lat="47.20735" lon="-1.7856">
        <ele>49</ele>
        <time>2021-09-04T10:36:59.000Z</time>
      </trkpt>
      <trkpt lat="47.20722" lon="-1.78556">
        <ele>49</ele>
        <time>2021-09-04T10:37:01.000Z</time>
      </trkpt>
      <trkpt lat="47.2071" lon="-1.78553">
        <ele>49</ele>
        <time>2021-09-04T10:37:03.000Z</time>
      </trkpt>
      <trkpt lat="47.20697" lon="-1.7855">
        <ele>49</ele>
        <time>2021-09-04T10:37:05.000Z</time>
      </trkpt>
      <trkpt lat="47.20685" lon="-1.78549">
        <ele>50</ele>
        <time>2021-09-04T10:37:07.000Z</time>
      </trkpt>
      <trkpt lat="47.20672" lon="-1.78551">
        <ele>50</ele>
        <time>2021-09-04T10:37:09.000Z</time>
      </trkpt>
      <trkpt lat="47.2066" lon="-1.78546">
        <ele>51</ele>
        <time>2021-09-04T10:37:11.000Z</time>
      </trkpt>
      <trkpt lat="47.20649" lon="-1.78539">
        <ele>52</ele>
        <time>2021-09-04T10:37:13.000Z</time>
      </trkpt>
      <trkpt lat="47.20638" lon="-1.78531">
        <ele>52</ele>
        <time>2021-09-04T10:37:15.000Z</time>
      </trkpt>
      <trkpt lat="47.20626" lon="-1.78522">
        <ele>53</ele>
        <time>2021-09-04T10:37:17.000Z</time>
      </trkpt>
      <trkpt lat="47.20614" lon="-1.78513">
        <ele>54</ele>
        <time>2021-09-04T10:37:19.000Z</time>
      </trkpt>
      <trkpt lat="47.206" lon="-1.78509">
        <ele>54</ele>
        <time>2021-09-04T10:37:21.000Z</time>
      </trkpt>
      <trkpt lat="47.20583" lon="-1.78511">
        <ele>54</ele>
        <time>2021-09-04T10:37:23.000Z</time>
      </trkpt>
      <trkpt lat="47.20567" lon="-1.78511">
        <ele>54</ele>
        <time>2021-09-04T10:37:25.000Z</time>
      </trkpt>
      <trkpt lat="47.20552" lon="-1.7851">
        <ele>53</ele>
        <time>2021-09-04T10:37:27.000Z</time>
      </trkpt>
      <trkpt lat="47.20537" lon="-1.7851">
        <ele>53</ele>
        <time>2021-09-04T10:37:29.000Z</time>
      </trkpt>
      <trkpt lat="47.20523" lon="-1.7851">
        <ele>53</ele>
        <time>2021-09-04T10:37:31.000Z</time>
      </trkpt>
      <trkpt lat="47.20509" lon="-1.78507">
        <ele>53</ele>
        <time>2021-09-04T10:37:33.000Z</time>
      </trkpt>
      <trkpt lat="47.20496" lon="-1.785">
        <ele>53</ele>
        <time>2021-09-04T10:37:35.000Z</time>
      </trkpt>
      <trkpt lat="47.20484" lon="-1.78491">
        <ele>54</ele>
        <time>2021-09-04T10:37:37.000Z</time>
      </trkpt>
      <trkpt lat="47.20473" lon="-1.78479">
        <ele>53</ele>
        <time>2021-09-04T10:37:39.000Z</time>
      </trkpt>
      <trkpt lat="47.20462" lon="-1.78466">
        <ele>52</ele>
        <time>2021-09-04T10:37:41.000Z</time>
      </trkpt>
      <trkpt lat="47.2045" lon="-1.78452">
        <ele>51</ele>
        <time>2021-09-04T10:37:43.000Z</time>
      </trkpt>
      <trkpt lat="47.20439" lon="-1.78438">
        <ele>52</ele>
        <time>2021-09-04T10:37:45.000Z</time>
      </trkpt>
      <trkpt lat="47.20428" lon="-1.78423">
        <ele>52</ele>
        <time>2021-09-04T10:37:47.000Z</time>
      </trkpt>
      <trkpt lat="47.20419" lon="-1.78407">
        <ele>52</ele>
        <time>2021-09-04T10:37:49.000Z</time>
      </trkpt>
      <trkpt lat="47.2041" lon="-1.7839">
        <ele>52</ele>
        <time>2021-09-04T10:37:51.000Z</time>
      </trkpt>
      <trkpt lat="47.20402" lon="-1.78373">
        <ele>52</ele>
        <time>2021-09-04T10:37:53.000Z</time>
      </trkpt>
      <trkpt lat="47.20393" lon="-1.78356">
        <ele>52</ele>
        <time>2021-09-04T10:37:55.000Z</time>
      </trkpt>
      <trkpt lat="47.20384" lon="-1.78339">
        <ele>53</ele>
        <time>2021-09-04T10:37:57.000Z</time>
      </trkpt>
      <trkpt lat="47.20375" lon="-1.78323">
        <ele>53</ele>
        <time>2021-09-04T10:37:59.000Z</time>
      </trkpt>
      <trkpt lat="47.20367" lon="-1.78307">
        <ele>53</ele>
        <time>2021-09-04T10:38:01.000Z</time>
      </trkpt>
      <trkpt lat="47.20358" lon="-1.78291">
        <ele>53</ele>
        <time>2021-09-04T10:38:03.000Z</time>
      </trkpt>
      <trkpt lat="47.20349" lon="-1.78276">
        <ele>53</ele>
        <time>2021-09-04T10:38:05.000Z</time>
      </trkpt>
      <trkpt lat="47.2034" lon="-1.78261">
        <ele>53</ele>
        <time>2021-09-04T10:38:07.000Z</time>
      </trkpt>
      <trkpt lat="47.20331" lon="-1.78246">
        <ele>52</ele>
        <time>2021-09-04T10:38:09.000Z</time>
      </trkpt>
      <trkpt lat="47.20321" lon="-1.78232">
        <ele>53</ele>
        <time>2021-09-04T10:38:11.000Z</time>
      </trkpt>
      <trkpt lat="47.20312" lon="-1.78218">
        <ele>53</ele>
        <time>2021-09-04T10:38:13.000Z</time>
      </trkpt>
      <trkpt lat="47.20303" lon="-1.78203">
        <ele>54</ele>
        <time>2021-09-04T10:38:15.000Z</time>
      </trkpt>
      <trkpt lat="47.20293" lon="-1.78189">
        <ele>54</ele>
        <time>2021-09-04T10:38:17.000Z</time>
      </trkpt>
      <trkpt lat="47.20284" lon="-1.78174">
        <ele>55</ele>
        <time>2021-09-04T10:38:19.000Z</time>
      </trkpt>
      <trkpt lat="47.20275" lon="-1.78159">
        <ele>55</ele>
        <time>2021-09-04T10:38:21.000Z</time>
      </trkpt>
      <trkpt lat="47.20266" lon="-1.78143">
        <ele>55</ele>
        <time>2021-09-04T10:38:23.000Z</time>
      </trkpt>
      <trkpt lat="47.20258" lon="-1.78128">
        <ele>55</ele>
        <time>2021-09-04T10:38:25.000Z</time>
      </trkpt>
      <trkpt lat="47.20249" lon="-1.78111">
        <ele>55</ele>
        <time>2021-09-04T10:38:27.000Z</time>
      </trkpt>
      <trkpt lat="47.2024" lon="-1.78096">
        <ele>56</ele>
        <time>2021-09-04T10:38:29.000Z</time>
      </trkpt>
      <trkpt lat="47.20233" lon="-1.7808">
        <ele>56</ele>
        <time>2021-09-04T10:38:31.000Z</time>
      </trkpt>
      <trkpt lat="47.20225" lon="-1.78064">
        <ele>56</ele>
        <time>2021-09-04T10:38:33.000Z</time>
      </trkpt>
      <trkpt lat="47.20217" lon="-1.78048">
        <ele>57</ele>
        <time>2021-09-04T10:38:35.000Z</time>
      </trkpt>
      <trkpt lat="47.20209" lon="-1.78033">
        <ele>57</ele>
        <time>2021-09-04T10:38:37.000Z</time>
      </trkpt>
      <trkpt lat="47.20202" lon="-1.78016">
        <ele>57</ele>
        <time>2021-09-04T10:38:39.000Z</time>
      </trkpt>
      <trkpt lat="47.20195" lon="-1.78">
        <ele>57</ele>
        <time>2021-09-04T10:38:41.000Z</time>
      </trkpt>
      <trkpt lat="47.20188" lon="-1.77984">
        <ele>57</ele>
        <time>2021-09-04T10:38:43.000Z</time>
      </trkpt>
      <trkpt lat="47.20181" lon="-1.77967">
        <ele>58</ele>
        <time>2021-09-04T10:38:45.000Z</time>
      </trkpt>
      <trkpt lat="47.20175" lon="-1.7795">
        <ele>58</ele>
        <time>2021-09-04T10:38:47.000Z</time>
      </trkpt>
      <trkpt lat="47.2017" lon="-1.77931">
        <ele>58</ele>
        <time>2021-09-04T10:38:49.000Z</time>
      </trkpt>
      <trkpt lat="47.20165" lon="-1.77914">
        <ele>58</ele>
        <time>2021-09-04T10:38:51.000Z</time>
      </trkpt>
      <trkpt lat="47.20159" lon="-1.77897">
        <ele>59</ele>
        <time>2021-09-04T10:38:53.000Z</time>
      </trkpt>
      <trkpt lat="47.20154" lon="-1.77881">
        <ele>59</ele>
        <time>2021-09-04T10:38:55.000Z</time>
      </trkpt>
      <trkpt lat="47.20149" lon="-1.77864">
        <ele>60</ele>
        <time>2021-09-04T10:38:57.000Z</time>
      </trkpt>
      <trkpt lat="47.20144" lon="-1.77848">
        <ele>60</ele>
        <time>2021-09-04T10:38:59.000Z</time>
      </trkpt>
      <trkpt lat="47.20139" lon="-1.77832">
        <ele>59</ele>
        <time>2021-09-04T10:39:01.000Z</time>
      </trkpt>
      <trkpt lat="47.20133" lon="-1.77814">
        <ele>59</ele>
        <time>2021-09-04T10:39:03.000Z</time>
      </trkpt>
      <trkpt lat="47.20127" lon="-1.77795">
        <ele>58</ele>
        <time>2021-09-04T10:39:05.000Z</time>
      </trkpt>
      <trkpt lat="47.20117" lon="-1.77777">
        <ele>57</ele>
        <time>2021-09-04T10:39:07.000Z</time>
      </trkpt>
      <trkpt lat="47.20101" lon="-1.77774">
        <ele>56</ele>
        <time>2021-09-04T10:39:09.000Z</time>
      </trkpt>
      <trkpt lat="47.20084" lon="-1.77775">
        <ele>55</ele>
        <time>2021-09-04T10:39:11.000Z</time>
      </trkpt>
      <trkpt lat="47.20068" lon="-1.77776">
        <ele>54</ele>
        <time>2021-09-04T10:39:13.000Z</time>
      </trkpt>
      <trkpt lat="47.20051" lon="-1.77775">
        <ele>53</ele>
        <time>2021-09-04T10:39:15.000Z</time>
      </trkpt>
      <trkpt lat="47.20035" lon="-1.77774">
        <ele>53</ele>
        <time>2021-09-04T10:39:17.000Z</time>
      </trkpt>
      <trkpt lat="47.20023" lon="-1.77769">
        <ele>54</ele>
        <time>2021-09-04T10:39:19.000Z</time>
      </trkpt>
      <trkpt lat="47.20017" lon="-1.77755">
        <ele>54</ele>
        <time>2021-09-04T10:39:21.000Z</time>
      </trkpt>
      <trkpt lat="47.20017" lon="-1.77738">
        <ele>54</ele>
        <time>2021-09-04T10:39:23.000Z</time>
      </trkpt>
      <trkpt lat="47.20019" lon="-1.7772">
        <ele>55</ele>
        <time>2021-09-04T10:39:25.000Z</time>
      </trkpt>
      <trkpt lat="47.2002" lon="-1.77703">
        <ele>56</ele>
        <time>2021-09-04T10:39:27.000Z</time>
      </trkpt>
      <trkpt lat="47.20018" lon="-1.77685">
        <ele>57</ele>
        <time>2021-09-04T10:39:29.000Z</time>
      </trkpt>
      <trkpt lat="47.20017" lon="-1.77666">
        <ele>57</ele>
        <time>2021-09-04T10:39:31.000Z</time>
      </trkpt>
      <trkpt lat="47.20016" lon="-1.77647">
        <ele>58</ele>
        <time>2021-09-04T10:39:33.000Z</time>
      </trkpt>
      <trkpt lat="47.20015" lon="-1.77628">
        <ele>59</ele>
        <time>2021-09-04T10:39:35.000Z</time>
      </trkpt>
      <trkpt lat="47.20014" lon="-1.77609">
        <ele>59</ele>
        <time>2021-09-04T10:39:37.000Z</time>
      </trkpt>
      <trkpt lat="47.20014" lon="-1.7759">
        <ele>60</ele>
        <time>2021-09-04T10:39:39.000Z</time>
      </trkpt>
      <trkpt lat="47.20013" lon="-1.77571">
        <ele>60</ele>
        <time>2021-09-04T10:39:41.000Z</time>
      </trkpt>
      <trkpt lat="47.20013" lon="-1.77554">
        <ele>61</ele>
        <time>2021-09-04T10:39:43.000Z</time>
      </trkpt>
      <trkpt lat="47.20014" lon="-1.77537">
        <ele>61</ele>
        <time>2021-09-04T10:39:45.000Z</time>
      </trkpt>
      <trkpt lat="47.20014" lon="-1.77519">
        <ele>61</ele>
        <time>2021-09-04T10:39:47.000Z</time>
      </trkpt>
      <trkpt lat="47.20014" lon="-1.77501">
        <ele>61</ele>
        <time>2021-09-04T10:39:49.000Z</time>
      </trkpt>
      <trkpt lat="47.20014" lon="-1.77482">
        <ele>61</ele>
        <time>2021-09-04T10:39:51.000Z</time>
      </trkpt>
      <trkpt lat="47.20015" lon="-1.77462">
        <ele>61</ele>
        <time>2021-09-04T10:39:53.000Z</time>
      </trkpt>
      <trkpt lat="47.20015" lon="-1.77442">
        <ele>61</ele>
        <time>2021-09-04T10:39:55.000Z</time>
      </trkpt>
      <trkpt lat="47.20015" lon="-1.77421">
        <ele>60</ele>
        <time>2021-09-04T10:39:57.000Z</time>
      </trkpt>
      <trkpt lat="47.20016" lon="-1.77401">
        <ele>60</ele>
        <time>2021-09-04T10:39:59.000Z</time>
      </trkpt>
      <trkpt lat="47.20016" lon="-1.7738">
        <ele>61</ele>
        <time>2021-09-04T10:40:01.000Z</time>
      </trkpt>
      <trkpt lat="47.20016" lon="-1.77359">
        <ele>60</ele>
        <time>2021-09-04T10:40:03.000Z</time>
      </trkpt>
      <trkpt lat="47.20017" lon="-1.77329">
        <ele>60</ele>
        <time>2021-09-04T10:40:06.000Z</time>
      </trkpt>
      <trkpt lat="47.20017" lon="-1.77308">
        <ele>60</ele>
        <time>2021-09-04T10:40:08.000Z</time>
      </trkpt>
      <trkpt lat="47.20017" lon="-1.77287">
        <ele>60</ele>
        <time>2021-09-04T10:40:10.000Z</time>
      </trkpt>
      <trkpt lat="47.20017" lon="-1.77266">
        <ele>60</ele>
        <time>2021-09-04T10:40:12.000Z</time>
      </trkpt>
      <trkpt lat="47.20018" lon="-1.77245">
        <ele>60</ele>
        <time>2021-09-04T10:40:14.000Z</time>
      </trkpt>
      <trkpt lat="47.20018" lon="-1.77224">
        <ele>60</ele>
        <time>2021-09-04T10:40:16.000Z</time>
      </trkpt>
      <trkpt lat="47.20017" lon="-1.77204">
        <ele>60</ele>
        <time>2021-09-04T10:40:18.000Z</time>
      </trkpt>
      <trkpt lat="47.20018" lon="-1.77183">
        <ele>60</ele>
        <time>2021-09-04T10:40:20.000Z</time>
      </trkpt>
      <trkpt lat="47.2002" lon="-1.77164">
        <ele>60</ele>
        <time>2021-09-04T10:40:22.000Z</time>
      </trkpt>
      <trkpt lat="47.2002" lon="-1.77134">
        <ele>60</ele>
        <time>2021-09-04T10:40:25.000Z</time>
      </trkpt>
      <trkpt lat="47.2002" lon="-1.77114">
        <ele>60</ele>
        <time>2021-09-04T10:40:27.000Z</time>
      </trkpt>
      <trkpt lat="47.2002" lon="-1.77094">
        <ele>60</ele>
        <time>2021-09-04T10:40:29.000Z</time>
      </trkpt>
      <trkpt lat="47.2002" lon="-1.77074">
        <ele>60</ele>
        <time>2021-09-04T10:40:31.000Z</time>
      </trkpt>
      <trkpt lat="47.20021" lon="-1.77055">
        <ele>61</ele>
        <time>2021-09-04T10:40:33.000Z</time>
      </trkpt>
      <trkpt lat="47.20021" lon="-1.77035">
        <ele>61</ele>
        <time>2021-09-04T10:40:35.000Z</time>
      </trkpt>
      <trkpt lat="47.20021" lon="-1.77016">
        <ele>61</ele>
        <time>2021-09-04T10:40:37.000Z</time>
      </trkpt>
      <trkpt lat="47.20022" lon="-1.76996">
        <ele>62</ele>
        <time>2021-09-04T10:40:39.000Z</time>
      </trkpt>
      <trkpt lat="47.20023" lon="-1.76977">
        <ele>62</ele>
        <time>2021-09-04T10:40:41.000Z</time>
      </trkpt>
      <trkpt lat="47.20023" lon="-1.76958">
        <ele>62</ele>
        <time>2021-09-04T10:40:43.000Z</time>
      </trkpt>
      <trkpt lat="47.20023" lon="-1.76939">
        <ele>63</ele>
        <time>2021-09-04T10:40:45.000Z</time>
      </trkpt>
      <trkpt lat="47.20024" lon="-1.76921">
        <ele>63</ele>
        <time>2021-09-04T10:40:47.000Z</time>
      </trkpt>
      <trkpt lat="47.20025" lon="-1.76902">
        <ele>63</ele>
        <time>2021-09-04T10:40:49.000Z</time>
      </trkpt>
      <trkpt lat="47.20025" lon="-1.76883">
        <ele>63</ele>
        <time>2021-09-04T10:40:51.000Z</time>
      </trkpt>
      <trkpt lat="47.20026" lon="-1.76864">
        <ele>63</ele>
        <time>2021-09-04T10:40:53.000Z</time>
      </trkpt>
      <trkpt lat="47.20026" lon="-1.76845">
        <ele>63</ele>
        <time>2021-09-04T10:40:55.000Z</time>
      </trkpt>
      <trkpt lat="47.20027" lon="-1.76826">
        <ele>63</ele>
        <time>2021-09-04T10:40:57.000Z</time>
      </trkpt>
      <trkpt lat="47.20027" lon="-1.76807">
        <ele>63</ele>
        <time>2021-09-04T10:40:59.000Z</time>
      </trkpt>
      <trkpt lat="47.20027" lon="-1.76788">
        <ele>63</ele>
        <time>2021-09-04T10:41:01.000Z</time>
      </trkpt>
      <trkpt lat="47.20028" lon="-1.76769">
        <ele>63</ele>
        <time>2021-09-04T10:41:03.000Z</time>
      </trkpt>
      <trkpt lat="47.20028" lon="-1.7675">
        <ele>63</ele>
        <time>2021-09-04T10:41:05.000Z</time>
      </trkpt>
      <trkpt lat="47.20029" lon="-1.76731">
        <ele>63</ele>
        <time>2021-09-04T10:41:07.000Z</time>
      </trkpt>
      <trkpt lat="47.2003" lon="-1.76712">
        <ele>63</ele>
        <time>2021-09-04T10:41:09.000Z</time>
      </trkpt>
      <trkpt lat="47.2003" lon="-1.76692">
        <ele>63</ele>
        <time>2021-09-04T10:41:11.000Z</time>
      </trkpt>
      <trkpt lat="47.20031" lon="-1.76672">
        <ele>63</ele>
        <time>2021-09-04T10:41:13.000Z</time>
      </trkpt>
      <trkpt lat="47.20032" lon="-1.76653">
        <ele>63</ele>
        <time>2021-09-04T10:41:15.000Z</time>
      </trkpt>
      <trkpt lat="47.20033" lon="-1.76633">
        <ele>63</ele>
        <time>2021-09-04T10:41:17.000Z</time>
      </trkpt>
      <trkpt lat="47.20033" lon="-1.76613">
        <ele>64</ele>
        <time>2021-09-04T10:41:19.000Z</time>
      </trkpt>
      <trkpt lat="47.20034" lon="-1.76593">
        <ele>63</ele>
        <time>2021-09-04T10:41:21.000Z</time>
      </trkpt>
      <trkpt lat="47.20035" lon="-1.76573">
        <ele>63</ele>
        <time>2021-09-04T10:41:23.000Z</time>
      </trkpt>
      <trkpt lat="47.20035" lon="-1.76553">
        <ele>64</ele>
        <time>2021-09-04T10:41:25.000Z</time>
      </trkpt>
      <trkpt lat="47.20036" lon="-1.76533">
        <ele>64</ele>
        <time>2021-09-04T10:41:27.000Z</time>
      </trkpt>
      <trkpt lat="47.20037" lon="-1.76513">
        <ele>63</ele>
        <time>2021-09-04T10:41:29.000Z</time>
      </trkpt>
      <trkpt lat="47.20037" lon="-1.76492">
        <ele>63</ele>
        <time>2021-09-04T10:41:31.000Z</time>
      </trkpt>
      <trkpt lat="47.20039" lon="-1.76472">
        <ele>64</ele>
        <time>2021-09-04T10:41:33.000Z</time>
      </trkpt>
      <trkpt lat="47.2004" lon="-1.76451">
        <ele>63</ele>
        <time>2021-09-04T10:41:35.000Z</time>
      </trkpt>
      <trkpt lat="47.20041" lon="-1.7643">
        <ele>63</ele>
        <time>2021-09-04T10:41:37.000Z</time>
      </trkpt>
      <trkpt lat="47.20043" lon="-1.76408">
        <ele>63</ele>
        <time>2021-09-04T10:41:39.000Z</time>
      </trkpt>
      <trkpt lat="47.20044" lon="-1.76387">
        <ele>62</ele>
        <time>2021-09-04T10:41:41.000Z</time>
      </trkpt>
      <trkpt lat="47.20045" lon="-1.76365">
        <ele>62</ele>
        <time>2021-09-04T10:41:43.000Z</time>
      </trkpt>
      <trkpt lat="47.20047" lon="-1.76343">
        <ele>63</ele>
        <time>2021-09-04T10:41:45.000Z</time>
      </trkpt>
      <trkpt lat="47.20048" lon="-1.76321">
        <ele>63</ele>
        <time>2021-09-04T10:41:47.000Z</time>
      </trkpt>
      <trkpt lat="47.2005" lon="-1.76298">
        <ele>62</ele>
        <time>2021-09-04T10:41:49.000Z</time>
      </trkpt>
      <trkpt lat="47.20051" lon="-1.76276">
        <ele>62</ele>
        <time>2021-09-04T10:41:51.000Z</time>
      </trkpt>
      <trkpt lat="47.20053" lon="-1.76253">
        <ele>62</ele>
        <time>2021-09-04T10:41:53.000Z</time>
      </trkpt>
      <trkpt lat="47.20054" lon="-1.76231">
        <ele>61</ele>
        <time>2021-09-04T10:41:55.000Z</time>
      </trkpt>
      <trkpt lat="47.20055" lon="-1.7621">
        <ele>61</ele>
        <time>2021-09-04T10:41:57.000Z</time>
      </trkpt>
      <trkpt lat="47.20056" lon="-1.76187">
        <ele>61</ele>
        <time>2021-09-04T10:41:59.000Z</time>
      </trkpt>
      <trkpt lat="47.20055" lon="-1.76165">
        <ele>61</ele>
        <time>2021-09-04T10:42:01.000Z</time>
      </trkpt>
      <trkpt lat="47.20055" lon="-1.76143">
        <ele>61</ele>
        <time>2021-09-04T10:42:03.000Z</time>
      </trkpt>
      <trkpt lat="47.20054" lon="-1.7612">
        <ele>61</ele>
        <time>2021-09-04T10:42:05.000Z</time>
      </trkpt>
      <trkpt lat="47.20054" lon="-1.76097">
        <ele>61</ele>
        <time>2021-09-04T10:42:07.000Z</time>
      </trkpt>
      <trkpt lat="47.20053" lon="-1.76075">
        <ele>60</ele>
        <time>2021-09-04T10:42:09.000Z</time>
      </trkpt>
      <trkpt lat="47.20052" lon="-1.76052">
        <ele>60</ele>
        <time>2021-09-04T10:42:11.000Z</time>
      </trkpt>
      <trkpt lat="47.20052" lon="-1.7603">
        <ele>60</ele>
        <time>2021-09-04T10:42:13.000Z</time>
      </trkpt>
      <trkpt lat="47.20051" lon="-1.7601">
        <ele>59</ele>
        <time>2021-09-04T10:42:15.000Z</time>
      </trkpt>
      <trkpt lat="47.20048" lon="-1.75991">
        <ele>59</ele>
        <time>2021-09-04T10:42:17.000Z</time>
      </trkpt>
      <trkpt lat="47.20043" lon="-1.75973">
        <ele>59</ele>
        <time>2021-09-04T10:42:19.000Z</time>
      </trkpt>
      <trkpt lat="47.20048" lon="-1.75951">
        <ele>58</ele>
        <time>2021-09-04T10:42:21.000Z</time>
      </trkpt>
      <trkpt lat="47.20049" lon="-1.75929">
        <ele>58</ele>
        <time>2021-09-04T10:42:23.000Z</time>
      </trkpt>
      <trkpt lat="47.20048" lon="-1.75907">
        <ele>58</ele>
        <time>2021-09-04T10:42:25.000Z</time>
      </trkpt>
      <trkpt lat="47.20047" lon="-1.75885">
        <ele>58</ele>
        <time>2021-09-04T10:42:27.000Z</time>
      </trkpt>
      <trkpt lat="47.20047" lon="-1.75863">
        <ele>58</ele>
        <time>2021-09-04T10:42:29.000Z</time>
      </trkpt>
      <trkpt lat="47.20046" lon="-1.75842">
        <ele>58</ele>
        <time>2021-09-04T10:42:31.000Z</time>
      </trkpt>
      <trkpt lat="47.20045" lon="-1.75821">
        <ele>58</ele>
        <time>2021-09-04T10:42:33.000Z</time>
      </trkpt>
      <trkpt lat="47.20044" lon="-1.758">
        <ele>59</ele>
        <time>2021-09-04T10:42:35.000Z</time>
      </trkpt>
      <trkpt lat="47.20043" lon="-1.7578">
        <ele>60</ele>
        <time>2021-09-04T10:42:37.000Z</time>
      </trkpt>
      <trkpt lat="47.20042" lon="-1.7576">
        <ele>60</ele>
        <time>2021-09-04T10:42:39.000Z</time>
      </trkpt>
      <trkpt lat="47.2004" lon="-1.75741">
        <ele>60</ele>
        <time>2021-09-04T10:42:41.000Z</time>
      </trkpt>
      <trkpt lat="47.20038" lon="-1.75722">
        <ele>60</ele>
        <time>2021-09-04T10:42:43.000Z</time>
      </trkpt>
      <trkpt lat="47.20034" lon="-1.75704">
        <ele>61</ele>
        <time>2021-09-04T10:42:45.000Z</time>
      </trkpt>
      <trkpt lat="47.20029" lon="-1.75687">
        <ele>61</ele>
        <time>2021-09-04T10:42:47.000Z</time>
      </trkpt>
      <trkpt lat="47.20024" lon="-1.75671">
        <ele>62</ele>
        <time>2021-09-04T10:42:49.000Z</time>
      </trkpt>
      <trkpt lat="47.20019" lon="-1.75654">
        <ele>62</ele>
        <time>2021-09-04T10:42:51.000Z</time>
      </trkpt>
      <trkpt lat="47.20014" lon="-1.75638">
        <ele>63</ele>
        <time>2021-09-04T10:42:53.000Z</time>
      </trkpt>
      <trkpt lat="47.20009" lon="-1.75622">
        <ele>64</ele>
        <time>2021-09-04T10:42:55.000Z</time>
      </trkpt>
      <trkpt lat="47.20005" lon="-1.75606">
        <ele>64</ele>
        <time>2021-09-04T10:42:57.000Z</time>
      </trkpt>
      <trkpt lat="47.20001" lon="-1.75591">
        <ele>65</ele>
        <time>2021-09-04T10:42:59.000Z</time>
      </trkpt>
      <trkpt lat="47.19997" lon="-1.75577">
        <ele>65</ele>
        <time>2021-09-04T10:43:01.000Z</time>
      </trkpt>
      <trkpt lat="47.19987" lon="-1.75566">
        <ele>66</ele>
        <time>2021-09-04T10:43:05.000Z</time>
      </trkpt>
      <trkpt lat="47.19989" lon="-1.75546">
        <ele>66</ele>
        <time>2021-09-04T10:43:08.000Z</time>
      </trkpt>
      <trkpt lat="47.19984" lon="-1.75529">
        <ele>67</ele>
        <time>2021-09-04T10:43:10.000Z</time>
      </trkpt>
      <trkpt lat="47.19979" lon="-1.75512">
        <ele>67</ele>
        <time>2021-09-04T10:43:12.000Z</time>
      </trkpt>
      <trkpt lat="47.19974" lon="-1.75494">
        <ele>68</ele>
        <time>2021-09-04T10:43:14.000Z</time>
      </trkpt>
      <trkpt lat="47.19969" lon="-1.75477">
        <ele>68</ele>
        <time>2021-09-04T10:43:16.000Z</time>
      </trkpt>
      <trkpt lat="47.19965" lon="-1.75458">
        <ele>68</ele>
        <time>2021-09-04T10:43:18.000Z</time>
      </trkpt>
      <trkpt lat="47.19962" lon="-1.7544">
        <ele>67</ele>
        <time>2021-09-04T10:43:20.000Z</time>
      </trkpt>
      <trkpt lat="47.19959" lon="-1.75421">
        <ele>68</ele>
        <time>2021-09-04T10:43:22.000Z</time>
      </trkpt>
      <trkpt lat="47.19956" lon="-1.75403">
        <ele>68</ele>
        <time>2021-09-04T10:43:24.000Z</time>
      </trkpt>
      <trkpt lat="47.19953" lon="-1.75384">
        <ele>68</ele>
        <time>2021-09-04T10:43:26.000Z</time>
      </trkpt>
      <trkpt lat="47.19951" lon="-1.75365">
        <ele>68</ele>
        <time>2021-09-04T10:43:28.000Z</time>
      </trkpt>
      <trkpt lat="47.19949" lon="-1.75346">
        <ele>67</ele>
        <time>2021-09-04T10:43:30.000Z</time>
      </trkpt>
      <trkpt lat="47.19948" lon="-1.75328">
        <ele>67</ele>
        <time>2021-09-04T10:43:32.000Z</time>
      </trkpt>
      <trkpt lat="47.19945" lon="-1.75309">
        <ele>67</ele>
        <time>2021-09-04T10:43:34.000Z</time>
      </trkpt>
      <trkpt lat="47.1994" lon="-1.75292">
        <ele>67</ele>
        <time>2021-09-04T10:43:36.000Z</time>
      </trkpt>
      <trkpt lat="47.19934" lon="-1.75274">
        <ele>66</ele>
        <time>2021-09-04T10:43:38.000Z</time>
      </trkpt>
      <trkpt lat="47.19928" lon="-1.75258">
        <ele>66</ele>
        <time>2021-09-04T10:43:40.000Z</time>
      </trkpt>
      <trkpt lat="47.19921" lon="-1.75241">
        <ele>66</ele>
        <time>2021-09-04T10:43:42.000Z</time>
      </trkpt>
      <trkpt lat="47.19915" lon="-1.75225">
        <ele>66</ele>
        <time>2021-09-04T10:43:44.000Z</time>
      </trkpt>
      <trkpt lat="47.19909" lon="-1.75209">
        <ele>66</ele>
        <time>2021-09-04T10:43:46.000Z</time>
      </trkpt>
      <trkpt lat="47.19902" lon="-1.75193">
        <ele>67</ele>
        <time>2021-09-04T10:43:48.000Z</time>
      </trkpt>
      <trkpt lat="47.19896" lon="-1.75177">
        <ele>67</ele>
        <time>2021-09-04T10:43:50.000Z</time>
      </trkpt>
      <trkpt lat="47.19889" lon="-1.75161">
        <ele>67</ele>
        <time>2021-09-04T10:43:52.000Z</time>
      </trkpt>
      <trkpt lat="47.19882" lon="-1.75147">
        <ele>68</ele>
        <time>2021-09-04T10:43:54.000Z</time>
      </trkpt>
      <trkpt lat="47.19875" lon="-1.75131">
        <ele>68</ele>
        <time>2021-09-04T10:43:56.000Z</time>
      </trkpt>
      <trkpt lat="47.19869" lon="-1.75115">
        <ele>68</ele>
        <time>2021-09-04T10:43:58.000Z</time>
      </trkpt>
      <trkpt lat="47.19863" lon="-1.751">
        <ele>67</ele>
        <time>2021-09-04T10:44:00.000Z</time>
      </trkpt>
      <trkpt lat="47.19857" lon="-1.75084">
        <ele>68</ele>
        <time>2021-09-04T10:44:02.000Z</time>
      </trkpt>
      <trkpt lat="47.1985" lon="-1.75068">
        <ele>68</ele>
        <time>2021-09-04T10:44:04.000Z</time>
      </trkpt>
      <trkpt lat="47.19843" lon="-1.75052">
        <ele>68</ele>
        <time>2021-09-04T10:44:06.000Z</time>
      </trkpt>
      <trkpt lat="47.19837" lon="-1.75036">
        <ele>68</ele>
        <time>2021-09-04T10:44:08.000Z</time>
      </trkpt>
      <trkpt lat="47.1983" lon="-1.75019">
        <ele>68</ele>
        <time>2021-09-04T10:44:10.000Z</time>
      </trkpt>
      <trkpt lat="47.19824" lon="-1.75003">
        <ele>68</ele>
        <time>2021-09-04T10:44:12.000Z</time>
      </trkpt>
      <trkpt lat="47.1982" lon="-1.74984">
        <ele>67</ele>
        <time>2021-09-04T10:44:14.000Z</time>
      </trkpt>
      <trkpt lat="47.19816" lon="-1.74963">
        <ele>66</ele>
        <time>2021-09-04T10:44:16.000Z</time>
      </trkpt>
      <trkpt lat="47.19812" lon="-1.74942">
        <ele>65</ele>
        <time>2021-09-04T10:44:18.000Z</time>
      </trkpt>
      <trkpt lat="47.19809" lon="-1.74918">
        <ele>64</ele>
        <time>2021-09-04T10:44:20.000Z</time>
      </trkpt>
      <trkpt lat="47.19805" lon="-1.74896">
        <ele>64</ele>
        <time>2021-09-04T10:44:22.000Z</time>
      </trkpt>
      <trkpt lat="47.19801" lon="-1.74874">
        <ele>64</ele>
        <time>2021-09-04T10:44:24.000Z</time>
      </trkpt>
      <trkpt lat="47.19798" lon="-1.74852">
        <ele>64</ele>
        <time>2021-09-04T10:44:26.000Z</time>
      </trkpt>
      <trkpt lat="47.19794" lon="-1.74831">
        <ele>64</ele>
        <time>2021-09-04T10:44:28.000Z</time>
      </trkpt>
      <trkpt lat="47.1979" lon="-1.7481">
        <ele>64</ele>
        <time>2021-09-04T10:44:30.000Z</time>
      </trkpt>
      <trkpt lat="47.19788" lon="-1.74791">
        <ele>65</ele>
        <time>2021-09-04T10:44:32.000Z</time>
      </trkpt>
      <trkpt lat="47.19784" lon="-1.74773">
        <ele>65</ele>
        <time>2021-09-04T10:44:34.000Z</time>
      </trkpt>
      <trkpt lat="47.19781" lon="-1.74755">
        <ele>66</ele>
        <time>2021-09-04T10:44:36.000Z</time>
      </trkpt>
      <trkpt lat="47.19778" lon="-1.74737">
        <ele>66</ele>
        <time>2021-09-04T10:44:38.000Z</time>
      </trkpt>
      <trkpt lat="47.19775" lon="-1.7472">
        <ele>66</ele>
        <time>2021-09-04T10:44:40.000Z</time>
      </trkpt>
      <trkpt lat="47.19771" lon="-1.74702">
        <ele>67</ele>
        <time>2021-09-04T10:44:42.000Z</time>
      </trkpt>
      <trkpt lat="47.19766" lon="-1.74685">
        <ele>67</ele>
        <time>2021-09-04T10:44:44.000Z</time>
      </trkpt>
      <trkpt lat="47.1976" lon="-1.74669">
        <ele>67</ele>
        <time>2021-09-04T10:44:46.000Z</time>
      </trkpt>
      <trkpt lat="47.19754" lon="-1.74652">
        <ele>67</ele>
        <time>2021-09-04T10:44:48.000Z</time>
      </trkpt>
      <trkpt lat="47.19747" lon="-1.74637">
        <ele>68</ele>
        <time>2021-09-04T10:44:50.000Z</time>
      </trkpt>
      <trkpt lat="47.1974" lon="-1.74621">
        <ele>68</ele>
        <time>2021-09-04T10:44:52.000Z</time>
      </trkpt>
      <trkpt lat="47.19733" lon="-1.74605">
        <ele>68</ele>
        <time>2021-09-04T10:44:54.000Z</time>
      </trkpt>
      <trkpt lat="47.19727" lon="-1.7459">
        <ele>69</ele>
        <time>2021-09-04T10:44:56.000Z</time>
      </trkpt>
      <trkpt lat="47.1972" lon="-1.74575">
        <ele>69</ele>
        <time>2021-09-04T10:44:58.000Z</time>
      </trkpt>
      <trkpt lat="47.19713" lon="-1.74559">
        <ele>69</ele>
        <time>2021-09-04T10:45:00.000Z</time>
      </trkpt>
      <trkpt lat="47.19706" lon="-1.74543">
        <ele>69</ele>
        <time>2021-09-04T10:45:02.000Z</time>
      </trkpt>
      <trkpt lat="47.19699" lon="-1.74526">
        <ele>69</ele>
        <time>2021-09-04T10:45:04.000Z</time>
      </trkpt>
      <trkpt lat="47.19693" lon="-1.7451">
        <ele>69</ele>
        <time>2021-09-04T10:45:06.000Z</time>
      </trkpt>
      <trkpt lat="47.19687" lon="-1.74493">
        <ele>69</ele>
        <time>2021-09-04T10:45:08.000Z</time>
      </trkpt>
      <trkpt lat="47.19681" lon="-1.74476">
        <ele>69</ele>
        <time>2021-09-04T10:45:10.000Z</time>
      </trkpt>
      <trkpt lat="47.19675" lon="-1.74459">
        <ele>69</ele>
        <time>2021-09-04T10:45:12.000Z</time>
      </trkpt>
      <trkpt lat="47.19669" lon="-1.74441">
        <ele>69</ele>
        <time>2021-09-04T10:45:14.000Z</time>
      </trkpt>
      <trkpt lat="47.19663" lon="-1.74423">
        <ele>69</ele>
        <time>2021-09-04T10:45:16.000Z</time>
      </trkpt>
      <trkpt lat="47.19658" lon="-1.74404">
        <ele>69</ele>
        <time>2021-09-04T10:45:18.000Z</time>
      </trkpt>
      <trkpt lat="47.19652" lon="-1.74386">
        <ele>69</ele>
        <time>2021-09-04T10:45:20.000Z</time>
      </trkpt>
      <trkpt lat="47.19646" lon="-1.74368">
        <ele>69</ele>
        <time>2021-09-04T10:45:22.000Z</time>
      </trkpt>
      <trkpt lat="47.1964" lon="-1.74349">
        <ele>69</ele>
        <time>2021-09-04T10:45:24.000Z</time>
      </trkpt>
      <trkpt lat="47.19635" lon="-1.74331">
        <ele>70</ele>
        <time>2021-09-04T10:45:26.000Z</time>
      </trkpt>
      <trkpt lat="47.19629" lon="-1.74313">
        <ele>70</ele>
        <time>2021-09-04T10:45:28.000Z</time>
      </trkpt>
      <trkpt lat="47.19623" lon="-1.74295">
        <ele>70</ele>
        <time>2021-09-04T10:45:30.000Z</time>
      </trkpt>
      <trkpt lat="47.19618" lon="-1.74277">
        <ele>70</ele>
        <time>2021-09-04T10:45:32.000Z</time>
      </trkpt>
      <trkpt lat="47.19614" lon="-1.74258">
        <ele>70</ele>
        <time>2021-09-04T10:45:34.000Z</time>
      </trkpt>
      <trkpt lat="47.1961" lon="-1.74239">
        <ele>70</ele>
        <time>2021-09-04T10:45:36.000Z</time>
      </trkpt>
      <trkpt lat="47.19607" lon="-1.7422">
        <ele>70</ele>
        <time>2021-09-04T10:45:38.000Z</time>
      </trkpt>
      <trkpt lat="47.19605" lon="-1.74201">
        <ele>70</ele>
        <time>2021-09-04T10:45:40.000Z</time>
      </trkpt>
      <trkpt lat="47.19602" lon="-1.74182">
        <ele>70</ele>
        <time>2021-09-04T10:45:42.000Z</time>
      </trkpt>
      <trkpt lat="47.196" lon="-1.74163">
        <ele>70</ele>
        <time>2021-09-04T10:45:44.000Z</time>
      </trkpt>
      <trkpt lat="47.19597" lon="-1.74144">
        <ele>70</ele>
        <time>2021-09-04T10:45:46.000Z</time>
      </trkpt>
      <trkpt lat="47.19593" lon="-1.74125">
        <ele>70</ele>
        <time>2021-09-04T10:45:48.000Z</time>
      </trkpt>
      <trkpt lat="47.1959" lon="-1.74107">
        <ele>71</ele>
        <time>2021-09-04T10:45:50.000Z</time>
      </trkpt>
      <trkpt lat="47.19588" lon="-1.74088">
        <ele>71</ele>
        <time>2021-09-04T10:45:52.000Z</time>
      </trkpt>
      <trkpt lat="47.19586" lon="-1.74069">
        <ele>71</ele>
        <time>2021-09-04T10:45:54.000Z</time>
      </trkpt>
      <trkpt lat="47.19584" lon="-1.7405">
        <ele>71</ele>
        <time>2021-09-04T10:45:56.000Z</time>
      </trkpt>
      <trkpt lat="47.19582" lon="-1.74031">
        <ele>71</ele>
        <time>2021-09-04T10:45:58.000Z</time>
      </trkpt>
      <trkpt lat="47.19579" lon="-1.74013">
        <ele>71</ele>
        <time>2021-09-04T10:46:00.000Z</time>
      </trkpt>
      <trkpt lat="47.19578" lon="-1.73994">
        <ele>71</ele>
        <time>2021-09-04T10:46:02.000Z</time>
      </trkpt>
      <trkpt lat="47.19578" lon="-1.73976">
        <ele>71</ele>
        <time>2021-09-04T10:46:04.000Z</time>
      </trkpt>
      <trkpt lat="47.19579" lon="-1.73956">
        <ele>70</ele>
        <time>2021-09-04T10:46:06.000Z</time>
      </trkpt>
      <trkpt lat="47.19581" lon="-1.73937">
        <ele>70</ele>
        <time>2021-09-04T10:46:08.000Z</time>
      </trkpt>
      <trkpt lat="47.19585" lon="-1.73918">
        <ele>71</ele>
        <time>2021-09-04T10:46:10.000Z</time>
      </trkpt>
      <trkpt lat="47.19589" lon="-1.73899">
        <ele>71</ele>
        <time>2021-09-04T10:46:12.000Z</time>
      </trkpt>
      <trkpt lat="47.19593" lon="-1.73881">
        <ele>71</ele>
        <time>2021-09-04T10:46:14.000Z</time>
      </trkpt>
      <trkpt lat="47.19597" lon="-1.73862">
        <ele>71</ele>
        <time>2021-09-04T10:46:16.000Z</time>
      </trkpt>
      <trkpt lat="47.19601" lon="-1.73844">
        <ele>71</ele>
        <time>2021-09-04T10:46:18.000Z</time>
      </trkpt>
      <trkpt lat="47.19605" lon="-1.73826">
        <ele>72</ele>
        <time>2021-09-04T10:46:20.000Z</time>
      </trkpt>
      <trkpt lat="47.19608" lon="-1.73807">
        <ele>72</ele>
        <time>2021-09-04T10:46:22.000Z</time>
      </trkpt>
      <trkpt lat="47.19613" lon="-1.73789">
        <ele>72</ele>
        <time>2021-09-04T10:46:24.000Z</time>
      </trkpt>
      <trkpt lat="47.19615" lon="-1.7377">
        <ele>72</ele>
        <time>2021-09-04T10:46:26.000Z</time>
      </trkpt>
      <trkpt lat="47.19618" lon="-1.7375">
        <ele>72</ele>
        <time>2021-09-04T10:46:28.000Z</time>
      </trkpt>
      <trkpt lat="47.19617" lon="-1.73731">
        <ele>72</ele>
        <time>2021-09-04T10:46:30.000Z</time>
      </trkpt>
      <trkpt lat="47.19616" lon="-1.73712">
        <ele>71</ele>
        <time>2021-09-04T10:46:32.000Z</time>
      </trkpt>
      <trkpt lat="47.19615" lon="-1.73693">
        <ele>71</ele>
        <time>2021-09-04T10:46:34.000Z</time>
      </trkpt>
      <trkpt lat="47.19615" lon="-1.73675">
        <ele>71</ele>
        <time>2021-09-04T10:46:36.000Z</time>
      </trkpt>
      <trkpt lat="47.19615" lon="-1.73656">
        <ele>71</ele>
        <time>2021-09-04T10:46:38.000Z</time>
      </trkpt>
      <trkpt lat="47.19616" lon="-1.73636">
        <ele>71</ele>
        <time>2021-09-04T10:46:40.000Z</time>
      </trkpt>
      <trkpt lat="47.19615" lon="-1.73616">
        <ele>71</ele>
        <time>2021-09-04T10:46:42.000Z</time>
      </trkpt>
      <trkpt lat="47.19614" lon="-1.73597">
        <ele>71</ele>
        <time>2021-09-04T10:46:44.000Z</time>
      </trkpt>
      <trkpt lat="47.19612" lon="-1.73577">
        <ele>71</ele>
        <time>2021-09-04T10:46:46.000Z</time>
      </trkpt>
      <trkpt lat="47.19608" lon="-1.73558">
        <ele>71</ele>
        <time>2021-09-04T10:46:48.000Z</time>
      </trkpt>
      <trkpt lat="47.19603" lon="-1.7354">
        <ele>70</ele>
        <time>2021-09-04T10:46:50.000Z</time>
      </trkpt>
      <trkpt lat="47.19597" lon="-1.73522">
        <ele>70</ele>
        <time>2021-09-04T10:46:52.000Z</time>
      </trkpt>
      <trkpt lat="47.19589" lon="-1.73504">
        <ele>69</ele>
        <time>2021-09-04T10:46:54.000Z</time>
      </trkpt>
      <trkpt lat="47.19582" lon="-1.73485">
        <ele>69</ele>
        <time>2021-09-04T10:46:56.000Z</time>
      </trkpt>
      <trkpt lat="47.19574" lon="-1.73466">
        <ele>68</ele>
        <time>2021-09-04T10:46:58.000Z</time>
      </trkpt>
      <trkpt lat="47.19568" lon="-1.73445">
        <ele>68</ele>
        <time>2021-09-04T10:47:00.000Z</time>
      </trkpt>
      <trkpt lat="47.19563" lon="-1.73422">
        <ele>67</ele>
        <time>2021-09-04T10:47:02.000Z</time>
      </trkpt>
      <trkpt lat="47.19559" lon="-1.73396">
        <ele>67</ele>
        <time>2021-09-04T10:47:04.000Z</time>
      </trkpt>
      <trkpt lat="47.19558" lon="-1.73383">
        <ele>66</ele>
        <time>2021-09-04T10:47:05.000Z</time>
      </trkpt>
      <trkpt lat="47.19556" lon="-1.73369">
        <ele>66</ele>
        <time>2021-09-04T10:47:06.000Z</time>
      </trkpt>
      <trkpt lat="47.19555" lon="-1.73356">
        <ele>65</ele>
        <time>2021-09-04T10:47:07.000Z</time>
      </trkpt>
      <trkpt lat="47.19554" lon="-1.73341">
        <ele>65</ele>
        <time>2021-09-04T10:47:08.000Z</time>
      </trkpt>
      <trkpt lat="47.19552" lon="-1.73327">
        <ele>64</ele>
        <time>2021-09-04T10:47:09.000Z</time>
      </trkpt>
      <trkpt lat="47.19551" lon="-1.73312">
        <ele>64</ele>
        <time>2021-09-04T10:47:10.000Z</time>
      </trkpt>
      <trkpt lat="47.1955" lon="-1.73297">
        <ele>63</ele>
        <time>2021-09-04T10:47:11.000Z</time>
      </trkpt>
      <trkpt lat="47.19548" lon="-1.73282">
        <ele>63</ele>
        <time>2021-09-04T10:47:12.000Z</time>
      </trkpt>
      <trkpt lat="47.19547" lon="-1.73267">
        <ele>62</ele>
        <time>2021-09-04T10:47:13.000Z</time>
      </trkpt>
      <trkpt lat="47.19545" lon="-1.73253">
        <ele>61</ele>
        <time>2021-09-04T10:47:14.000Z</time>
      </trkpt>
      <trkpt lat="47.19544" lon="-1.73238">
        <ele>61</ele>
        <time>2021-09-04T10:47:15.000Z</time>
      </trkpt>
      <trkpt lat="47.19542" lon="-1.73223">
        <ele>60</ele>
        <time>2021-09-04T10:47:16.000Z</time>
      </trkpt>
      <trkpt lat="47.1954" lon="-1.73208">
        <ele>60</ele>
        <time>2021-09-04T10:47:17.000Z</time>
      </trkpt>
      <trkpt lat="47.19539" lon="-1.73193">
        <ele>59</ele>
        <time>2021-09-04T10:47:18.000Z</time>
      </trkpt>
      <trkpt lat="47.19538" lon="-1.73179">
        <ele>59</ele>
        <time>2021-09-04T10:47:19.000Z</time>
      </trkpt>
      <trkpt lat="47.19538" lon="-1.73165">
        <ele>59</ele>
        <time>2021-09-04T10:47:20.000Z</time>
      </trkpt>
      <trkpt lat="47.19538" lon="-1.7315">
        <ele>59</ele>
        <time>2021-09-04T10:47:21.000Z</time>
      </trkpt>
      <trkpt lat="47.19538" lon="-1.73136">
        <ele>59</ele>
        <time>2021-09-04T10:47:22.000Z</time>
      </trkpt>
      <trkpt lat="47.19538" lon="-1.73123">
        <ele>59</ele>
        <time>2021-09-04T10:47:23.000Z</time>
      </trkpt>
      <trkpt lat="47.19538" lon="-1.73109">
        <ele>59</ele>
        <time>2021-09-04T10:47:24.000Z</time>
      </trkpt>
      <trkpt lat="47.19538" lon="-1.73096">
        <ele>59</ele>
        <time>2021-09-04T10:47:25.000Z</time>
      </trkpt>
      <trkpt lat="47.19539" lon="-1.73082">
        <ele>59</ele>
        <time>2021-09-04T10:47:26.000Z</time>
      </trkpt>
      <trkpt lat="47.19539" lon="-1.73068">
        <ele>59</ele>
        <time>2021-09-04T10:47:27.000Z</time>
      </trkpt>
      <trkpt lat="47.19539" lon="-1.73055">
        <ele>59</ele>
        <time>2021-09-04T10:47:28.000Z</time>
      </trkpt>
      <trkpt lat="47.19539" lon="-1.73041">
        <ele>59</ele>
        <time>2021-09-04T10:47:29.000Z</time>
      </trkpt>
      <trkpt lat="47.1954" lon="-1.73015">
        <ele>58</ele>
        <time>2021-09-04T10:47:31.000Z</time>
      </trkpt>
      <trkpt lat="47.1954" lon="-1.72991">
        <ele>58</ele>
        <time>2021-09-04T10:47:33.000Z</time>
      </trkpt>
      <trkpt lat="47.1954" lon="-1.72966">
        <ele>57</ele>
        <time>2021-09-04T10:47:35.000Z</time>
      </trkpt>
      <trkpt lat="47.1954" lon="-1.72942">
        <ele>57</ele>
        <time>2021-09-04T10:47:37.000Z</time>
      </trkpt>
      <trkpt lat="47.1954" lon="-1.72917">
        <ele>57</ele>
        <time>2021-09-04T10:47:39.000Z</time>
      </trkpt>
      <trkpt lat="47.19539" lon="-1.72893">
        <ele>56</ele>
        <time>2021-09-04T10:47:41.000Z</time>
      </trkpt>
      <trkpt lat="47.19538" lon="-1.7287">
        <ele>56</ele>
        <time>2021-09-04T10:47:43.000Z</time>
      </trkpt>
      <trkpt lat="47.19536" lon="-1.72849">
        <ele>56</ele>
        <time>2021-09-04T10:47:45.000Z</time>
      </trkpt>
      <trkpt lat="47.19533" lon="-1.72827">
        <ele>57</ele>
        <time>2021-09-04T10:47:47.000Z</time>
      </trkpt>
      <trkpt lat="47.19531" lon="-1.72807">
        <ele>57</ele>
        <time>2021-09-04T10:47:49.000Z</time>
      </trkpt>
      <trkpt lat="47.19529" lon="-1.72789">
        <ele>58</ele>
        <time>2021-09-04T10:47:51.000Z</time>
      </trkpt>
      <trkpt lat="47.19527" lon="-1.72771">
        <ele>58</ele>
        <time>2021-09-04T10:47:53.000Z</time>
      </trkpt>
      <trkpt lat="47.19527" lon="-1.72753">
        <ele>59</ele>
        <time>2021-09-04T10:47:55.000Z</time>
      </trkpt>
      <trkpt lat="47.19527" lon="-1.72737">
        <ele>58</ele>
        <time>2021-09-04T10:47:57.000Z</time>
      </trkpt>
      <trkpt lat="47.19529" lon="-1.72723">
        <ele>59</ele>
        <time>2021-09-04T10:47:59.000Z</time>
      </trkpt>
      <trkpt lat="47.19531" lon="-1.72707">
        <ele>58</ele>
        <time>2021-09-04T10:48:01.000Z</time>
      </trkpt>
      <trkpt lat="47.19535" lon="-1.72692">
        <ele>58</ele>
        <time>2021-09-04T10:48:03.000Z</time>
      </trkpt>
      <trkpt lat="47.19538" lon="-1.72677">
        <ele>59</ele>
        <time>2021-09-04T10:48:05.000Z</time>
      </trkpt>
      <trkpt lat="47.19542" lon="-1.72663">
        <ele>59</ele>
        <time>2021-09-04T10:48:07.000Z</time>
      </trkpt>
      <trkpt lat="47.19546" lon="-1.72649">
        <ele>60</ele>
        <time>2021-09-04T10:48:09.000Z</time>
      </trkpt>
      <trkpt lat="47.19549" lon="-1.72635">
        <ele>60</ele>
        <time>2021-09-04T10:48:11.000Z</time>
      </trkpt>
      <trkpt lat="47.19552" lon="-1.72621">
        <ele>61</ele>
        <time>2021-09-04T10:48:13.000Z</time>
      </trkpt>
      <trkpt lat="47.19556" lon="-1.72608">
        <ele>61</ele>
        <time>2021-09-04T10:48:15.000Z</time>
      </trkpt>
      <trkpt lat="47.1956" lon="-1.72595">
        <ele>62</ele>
        <time>2021-09-04T10:48:17.000Z</time>
      </trkpt>
      <trkpt lat="47.19565" lon="-1.72582">
        <ele>63</ele>
        <time>2021-09-04T10:48:19.000Z</time>
      </trkpt>
      <trkpt lat="47.19571" lon="-1.72569">
        <ele>64</ele>
        <time>2021-09-04T10:48:21.000Z</time>
      </trkpt>
      <trkpt lat="47.19576" lon="-1.72556">
        <ele>64</ele>
        <time>2021-09-04T10:48:23.000Z</time>
      </trkpt>
      <trkpt lat="47.19579" lon="-1.72542">
        <ele>65</ele>
        <time>2021-09-04T10:48:25.000Z</time>
      </trkpt>
      <trkpt lat="47.19581" lon="-1.72529">
        <ele>65</ele>
        <time>2021-09-04T10:48:27.000Z</time>
      </trkpt>
      <trkpt lat="47.19582" lon="-1.72514">
        <ele>66</ele>
        <time>2021-09-04T10:48:29.000Z</time>
      </trkpt>
      <trkpt lat="47.19583" lon="-1.725">
        <ele>66</ele>
        <time>2021-09-04T10:48:31.000Z</time>
      </trkpt>
      <trkpt lat="47.19583" lon="-1.72486">
        <ele>67</ele>
        <time>2021-09-04T10:48:33.000Z</time>
      </trkpt>
      <trkpt lat="47.19584" lon="-1.72473">
        <ele>67</ele>
        <time>2021-09-04T10:48:35.000Z</time>
      </trkpt>
      <trkpt lat="47.19585" lon="-1.72453">
        <ele>68</ele>
        <time>2021-09-04T10:48:38.000Z</time>
      </trkpt>
      <trkpt lat="47.19586" lon="-1.72438">
        <ele>68</ele>
        <time>2021-09-04T10:48:40.000Z</time>
      </trkpt>
      <trkpt lat="47.19586" lon="-1.72422">
        <ele>68</ele>
        <time>2021-09-04T10:48:42.000Z</time>
      </trkpt>
      <trkpt lat="47.19585" lon="-1.72406">
        <ele>68</ele>
        <time>2021-09-04T10:48:44.000Z</time>
      </trkpt>
      <trkpt lat="47.19578" lon="-1.72394">
        <ele>67</ele>
        <time>2021-09-04T10:48:46.000Z</time>
      </trkpt>
      <trkpt lat="47.19567" lon="-1.72387">
        <ele>67</ele>
        <time>2021-09-04T10:48:48.000Z</time>
      </trkpt>
      <trkpt lat="47.19556" lon="-1.7238">
        <ele>67</ele>
        <time>2021-09-04T10:48:50.000Z</time>
      </trkpt>
      <trkpt lat="47.19546" lon="-1.72371">
        <ele>67</ele>
        <time>2021-09-04T10:48:52.000Z</time>
      </trkpt>
      <trkpt lat="47.19536" lon="-1.72361">
        <ele>67</ele>
        <time>2021-09-04T10:48:54.000Z</time>
      </trkpt>
      <trkpt lat="47.19526" lon="-1.72351">
        <ele>67</ele>
        <time>2021-09-04T10:48:56.000Z</time>
      </trkpt>
      <trkpt lat="47.19517" lon="-1.72338">
        <ele>67</ele>
        <time>2021-09-04T10:48:58.000Z</time>
      </trkpt>
      <trkpt lat="47.19508" lon="-1.72325">
        <ele>68</ele>
        <time>2021-09-04T10:49:00.000Z</time>
      </trkpt>
      <trkpt lat="47.195" lon="-1.72311">
        <ele>68</ele>
        <time>2021-09-04T10:49:02.000Z</time>
      </trkpt>
      <trkpt lat="47.19492" lon="-1.72299">
        <ele>69</ele>
        <time>2021-09-04T10:49:04.000Z</time>
      </trkpt>
      <trkpt lat="47.19484" lon="-1.72286">
        <ele>69</ele>
        <time>2021-09-04T10:49:06.000Z</time>
      </trkpt>
      <trkpt lat="47.19476" lon="-1.72274">
        <ele>70</ele>
        <time>2021-09-04T10:49:08.000Z</time>
      </trkpt>
      <trkpt lat="47.19469" lon="-1.72259">
        <ele>70</ele>
        <time>2021-09-04T10:49:10.000Z</time>
      </trkpt>
      <trkpt lat="47.19463" lon="-1.72244">
        <ele>70</ele>
        <time>2021-09-04T10:49:12.000Z</time>
      </trkpt>
      <trkpt lat="47.19458" lon="-1.72227">
        <ele>70</ele>
        <time>2021-09-04T10:49:14.000Z</time>
      </trkpt>
      <trkpt lat="47.19452" lon="-1.72211">
        <ele>70</ele>
        <time>2021-09-04T10:49:16.000Z</time>
      </trkpt>
      <trkpt lat="47.19446" lon="-1.72194">
        <ele>70</ele>
        <time>2021-09-04T10:49:18.000Z</time>
      </trkpt>
      <trkpt lat="47.1944" lon="-1.72177">
        <ele>70</ele>
        <time>2021-09-04T10:49:20.000Z</time>
      </trkpt>
      <trkpt lat="47.19434" lon="-1.72159">
        <ele>69</ele>
        <time>2021-09-04T10:49:22.000Z</time>
      </trkpt>
      <trkpt lat="47.19429" lon="-1.72141">
        <ele>69</ele>
        <time>2021-09-04T10:49:24.000Z</time>
      </trkpt>
      <trkpt lat="47.19423" lon="-1.72124">
        <ele>69</ele>
        <time>2021-09-04T10:49:26.000Z</time>
      </trkpt>
      <trkpt lat="47.19415" lon="-1.72108">
        <ele>69</ele>
        <time>2021-09-04T10:49:28.000Z</time>
      </trkpt>
      <trkpt lat="47.19407" lon="-1.72092">
        <ele>69</ele>
        <time>2021-09-04T10:49:30.000Z</time>
      </trkpt>
      <trkpt lat="47.19398" lon="-1.72074">
        <ele>69</ele>
        <time>2021-09-04T10:49:32.000Z</time>
      </trkpt>
      <trkpt lat="47.1939" lon="-1.72057">
        <ele>69</ele>
        <time>2021-09-04T10:49:34.000Z</time>
      </trkpt>
      <trkpt lat="47.19382" lon="-1.72041">
        <ele>69</ele>
        <time>2021-09-04T10:49:36.000Z</time>
      </trkpt>
      <trkpt lat="47.19375" lon="-1.72024">
        <ele>69</ele>
        <time>2021-09-04T10:49:38.000Z</time>
      </trkpt>
      <trkpt lat="47.19368" lon="-1.72008">
        <ele>69</ele>
        <time>2021-09-04T10:49:40.000Z</time>
      </trkpt>
      <trkpt lat="47.19361" lon="-1.71991">
        <ele>70</ele>
        <time>2021-09-04T10:49:42.000Z</time>
      </trkpt>
      <trkpt lat="47.19355" lon="-1.71975">
        <ele>70</ele>
        <time>2021-09-04T10:49:44.000Z</time>
      </trkpt>
      <trkpt lat="47.19349" lon="-1.71957">
        <ele>71</ele>
        <time>2021-09-04T10:49:46.000Z</time>
      </trkpt>
      <trkpt lat="47.19343" lon="-1.71938">
        <ele>71</ele>
        <time>2021-09-04T10:49:48.000Z</time>
      </trkpt>
      <trkpt lat="47.19336" lon="-1.71922">
        <ele>71</ele>
        <time>2021-09-04T10:49:50.000Z</time>
      </trkpt>
      <trkpt lat="47.19331" lon="-1.71905">
        <ele>71</ele>
        <time>2021-09-04T10:49:52.000Z</time>
      </trkpt>
      <trkpt lat="47.19326" lon="-1.71889">
        <ele>71</ele>
        <time>2021-09-04T10:49:54.000Z</time>
      </trkpt>
      <trkpt lat="47.1932" lon="-1.71873">
        <ele>72</ele>
        <time>2021-09-04T10:49:56.000Z</time>
      </trkpt>
      <trkpt lat="47.19315" lon="-1.71857">
        <ele>72</ele>
        <time>2021-09-04T10:49:58.000Z</time>
      </trkpt>
      <trkpt lat="47.19309" lon="-1.71842">
        <ele>72</ele>
        <time>2021-09-04T10:50:00.000Z</time>
      </trkpt>
      <trkpt lat="47.19304" lon="-1.71826">
        <ele>72</ele>
        <time>2021-09-04T10:50:02.000Z</time>
      </trkpt>
      <trkpt lat="47.193" lon="-1.71811">
        <ele>72</ele>
        <time>2021-09-04T10:50:04.000Z</time>
      </trkpt>
      <trkpt lat="47.19295" lon="-1.71795">
        <ele>72</ele>
        <time>2021-09-04T10:50:06.000Z</time>
      </trkpt>
      <trkpt lat="47.1929" lon="-1.7178">
        <ele>72</ele>
        <time>2021-09-04T10:50:08.000Z</time>
      </trkpt>
      <trkpt lat="47.19285" lon="-1.71765">
        <ele>72</ele>
        <time>2021-09-04T10:50:10.000Z</time>
      </trkpt>
      <trkpt lat="47.1928" lon="-1.71749">
        <ele>73</ele>
        <time>2021-09-04T10:50:12.000Z</time>
      </trkpt>
      <trkpt lat="47.19276" lon="-1.71733">
        <ele>73</ele>
        <time>2021-09-04T10:50:14.000Z</time>
      </trkpt>
      <trkpt lat="47.19271" lon="-1.71718">
        <ele>73</ele>
        <time>2021-09-04T10:50:16.000Z</time>
      </trkpt>
      <trkpt lat="47.19266" lon="-1.71704">
        <ele>73</ele>
        <time>2021-09-04T10:50:18.000Z</time>
      </trkpt>
      <trkpt lat="47.19262" lon="-1.71688">
        <ele>73</ele>
        <time>2021-09-04T10:50:20.000Z</time>
      </trkpt>
      <trkpt lat="47.19257" lon="-1.71674">
        <ele>73</ele>
        <time>2021-09-04T10:50:22.000Z</time>
      </trkpt>
      <trkpt lat="47.19253" lon="-1.71659">
        <ele>74</ele>
        <time>2021-09-04T10:50:24.000Z</time>
      </trkpt>
      <trkpt lat="47.19248" lon="-1.71645">
        <ele>74</ele>
        <time>2021-09-04T10:50:26.000Z</time>
      </trkpt>
      <trkpt lat="47.19243" lon="-1.7163">
        <ele>74</ele>
        <time>2021-09-04T10:50:28.000Z</time>
      </trkpt>
      <trkpt lat="47.19239" lon="-1.71615">
        <ele>74</ele>
        <time>2021-09-04T10:50:30.000Z</time>
      </trkpt>
      <trkpt lat="47.19234" lon="-1.71601">
        <ele>75</ele>
        <time>2021-09-04T10:50:32.000Z</time>
      </trkpt>
      <trkpt lat="47.19229" lon="-1.71587">
        <ele>75</ele>
        <time>2021-09-04T10:50:34.000Z</time>
      </trkpt>
      <trkpt lat="47.19224" lon="-1.71574">
        <ele>75</ele>
        <time>2021-09-04T10:50:36.000Z</time>
      </trkpt>
      <trkpt lat="47.19219" lon="-1.71561">
        <ele>75</ele>
        <time>2021-09-04T10:50:38.000Z</time>
      </trkpt>
      <trkpt lat="47.19215" lon="-1.71545">
        <ele>75</ele>
        <time>2021-09-04T10:50:40.000Z</time>
      </trkpt>
      <trkpt lat="47.1921" lon="-1.7153">
        <ele>75</ele>
        <time>2021-09-04T10:50:42.000Z</time>
      </trkpt>
      <trkpt lat="47.19206" lon="-1.71515">
        <ele>75</ele>
        <time>2021-09-04T10:50:44.000Z</time>
      </trkpt>
      <trkpt lat="47.19201" lon="-1.71501">
        <ele>75</ele>
        <time>2021-09-04T10:50:46.000Z</time>
      </trkpt>
      <trkpt lat="47.19196" lon="-1.71485">
        <ele>75</ele>
        <time>2021-09-04T10:50:48.000Z</time>
      </trkpt>
      <trkpt lat="47.19192" lon="-1.7147">
        <ele>75</ele>
        <time>2021-09-04T10:50:50.000Z</time>
      </trkpt>
      <trkpt lat="47.19187" lon="-1.71454">
        <ele>76</ele>
        <time>2021-09-04T10:50:52.000Z</time>
      </trkpt>
      <trkpt lat="47.19183" lon="-1.71437">
        <ele>76</ele>
        <time>2021-09-04T10:50:54.000Z</time>
      </trkpt>
      <trkpt lat="47.19178" lon="-1.7142">
        <ele>76</ele>
        <time>2021-09-04T10:50:56.000Z</time>
      </trkpt>
      <trkpt lat="47.19173" lon="-1.71404">
        <ele>77</ele>
        <time>2021-09-04T10:50:58.000Z</time>
      </trkpt>
      <trkpt lat="47.19169" lon="-1.71387">
        <ele>77</ele>
        <time>2021-09-04T10:51:00.000Z</time>
      </trkpt>
      <trkpt lat="47.19164" lon="-1.71369">
        <ele>77</ele>
        <time>2021-09-04T10:51:02.000Z</time>
      </trkpt>
      <trkpt lat="47.19159" lon="-1.71352">
        <ele>76</ele>
        <time>2021-09-04T10:51:04.000Z</time>
      </trkpt>
      <trkpt lat="47.19155" lon="-1.71334">
        <ele>76</ele>
        <time>2021-09-04T10:51:06.000Z</time>
      </trkpt>
      <trkpt lat="47.19151" lon="-1.71317">
        <ele>76</ele>
        <time>2021-09-04T10:51:08.000Z</time>
      </trkpt>
      <trkpt lat="47.19148" lon="-1.71299">
        <ele>76</ele>
        <time>2021-09-04T10:51:10.000Z</time>
      </trkpt>
      <trkpt lat="47.19145" lon="-1.71281">
        <ele>76</ele>
        <time>2021-09-04T10:51:12.000Z</time>
      </trkpt>
      <trkpt lat="47.19143" lon="-1.71263">
        <ele>76</ele>
        <time>2021-09-04T10:51:14.000Z</time>
      </trkpt>
      <trkpt lat="47.19142" lon="-1.71244">
        <ele>76</ele>
        <time>2021-09-04T10:51:16.000Z</time>
      </trkpt>
      <trkpt lat="47.1914" lon="-1.71226">
        <ele>77</ele>
        <time>2021-09-04T10:51:18.000Z</time>
      </trkpt>
      <trkpt lat="47.19139" lon="-1.71208">
        <ele>76</ele>
        <time>2021-09-04T10:51:20.000Z</time>
      </trkpt>
      <trkpt lat="47.19137" lon="-1.71189">
        <ele>76</ele>
        <time>2021-09-04T10:51:22.000Z</time>
      </trkpt>
      <trkpt lat="47.19135" lon="-1.7117">
        <ele>76</ele>
        <time>2021-09-04T10:51:24.000Z</time>
      </trkpt>
      <trkpt lat="47.19131" lon="-1.71152">
        <ele>76</ele>
        <time>2021-09-04T10:51:26.000Z</time>
      </trkpt>
      <trkpt lat="47.19131" lon="-1.71134">
        <ele>77</ele>
        <time>2021-09-04T10:51:28.000Z</time>
      </trkpt>
      <trkpt lat="47.19132" lon="-1.71115">
        <ele>77</ele>
        <time>2021-09-04T10:51:30.000Z</time>
      </trkpt>
      <trkpt lat="47.1913" lon="-1.71097">
        <ele>77</ele>
        <time>2021-09-04T10:51:32.000Z</time>
      </trkpt>
      <trkpt lat="47.19128" lon="-1.71079">
        <ele>77</ele>
        <time>2021-09-04T10:51:34.000Z</time>
      </trkpt>
      <trkpt lat="47.19126" lon="-1.71061">
        <ele>77</ele>
        <time>2021-09-04T10:51:36.000Z</time>
      </trkpt>
      <trkpt lat="47.19125" lon="-1.71043">
        <ele>78</ele>
        <time>2021-09-04T10:51:38.000Z</time>
      </trkpt>
      <trkpt lat="47.19125" lon="-1.71024">
        <ele>78</ele>
        <time>2021-09-04T10:51:40.000Z</time>
      </trkpt>
      <trkpt lat="47.19125" lon="-1.71005">
        <ele>78</ele>
        <time>2021-09-04T10:51:42.000Z</time>
      </trkpt>
      <trkpt lat="47.19126" lon="-1.70985">
        <ele>77</ele>
        <time>2021-09-04T10:51:44.000Z</time>
      </trkpt>
      <trkpt lat="47.19128" lon="-1.70967">
        <ele>77</ele>
        <time>2021-09-04T10:51:46.000Z</time>
      </trkpt>
      <trkpt lat="47.1913" lon="-1.70948">
        <ele>77</ele>
        <time>2021-09-04T10:51:48.000Z</time>
      </trkpt>
      <trkpt lat="47.19132" lon="-1.70928">
        <ele>76</ele>
        <time>2021-09-04T10:51:50.000Z</time>
      </trkpt>
      <trkpt lat="47.19134" lon="-1.70908">
        <ele>76</ele>
        <time>2021-09-04T10:51:52.000Z</time>
      </trkpt>
      <trkpt lat="47.19133" lon="-1.70889">
        <ele>76</ele>
        <time>2021-09-04T10:51:54.000Z</time>
      </trkpt>
      <trkpt lat="47.19133" lon="-1.70869">
        <ele>75</ele>
        <time>2021-09-04T10:51:56.000Z</time>
      </trkpt>
      <trkpt lat="47.19133" lon="-1.70849">
        <ele>75</ele>
        <time>2021-09-04T10:51:58.000Z</time>
      </trkpt>
      <trkpt lat="47.19132" lon="-1.7083">
        <ele>75</ele>
        <time>2021-09-04T10:52:00.000Z</time>
      </trkpt>
      <trkpt lat="47.19131" lon="-1.7081">
        <ele>75</ele>
        <time>2021-09-04T10:52:02.000Z</time>
      </trkpt>
      <trkpt lat="47.1913" lon="-1.7079">
        <ele>75</ele>
        <time>2021-09-04T10:52:04.000Z</time>
      </trkpt>
      <trkpt lat="47.19126" lon="-1.70771">
        <ele>75</ele>
        <time>2021-09-04T10:52:06.000Z</time>
      </trkpt>
      <trkpt lat="47.19123" lon="-1.70753">
        <ele>75</ele>
        <time>2021-09-04T10:52:08.000Z</time>
      </trkpt>
      <trkpt lat="47.19123" lon="-1.70732">
        <ele>75</ele>
        <time>2021-09-04T10:52:10.000Z</time>
      </trkpt>
      <trkpt lat="47.19122" lon="-1.70712">
        <ele>75</ele>
        <time>2021-09-04T10:52:12.000Z</time>
      </trkpt>
      <trkpt lat="47.19118" lon="-1.70693">
        <ele>75</ele>
        <time>2021-09-04T10:52:14.000Z</time>
      </trkpt>
      <trkpt lat="47.19114" lon="-1.70673">
        <ele>75</ele>
        <time>2021-09-04T10:52:16.000Z</time>
      </trkpt>
      <trkpt lat="47.1911" lon="-1.70654">
        <ele>75</ele>
        <time>2021-09-04T10:52:18.000Z</time>
      </trkpt>
      <trkpt lat="47.19107" lon="-1.70633">
        <ele>75</ele>
        <time>2021-09-04T10:52:20.000Z</time>
      </trkpt>
      <trkpt lat="47.19105" lon="-1.70601">
        <ele>75</ele>
        <time>2021-09-04T10:52:23.000Z</time>
      </trkpt>
      <trkpt lat="47.19102" lon="-1.70578">
        <ele>74</ele>
        <time>2021-09-04T10:52:25.000Z</time>
      </trkpt>
      <trkpt lat="47.19099" lon="-1.70555">
        <ele>74</ele>
        <time>2021-09-04T10:52:27.000Z</time>
      </trkpt>
      <trkpt lat="47.19097" lon="-1.70532">
        <ele>74</ele>
        <time>2021-09-04T10:52:29.000Z</time>
      </trkpt>
      <trkpt lat="47.19092" lon="-1.70496">
        <ele>74</ele>
        <time>2021-09-04T10:52:32.000Z</time>
      </trkpt>
      <trkpt lat="47.19087" lon="-1.70473">
        <ele>73</ele>
        <time>2021-09-04T10:52:34.000Z</time>
      </trkpt>
      <trkpt lat="47.19081" lon="-1.7045">
        <ele>73</ele>
        <time>2021-09-04T10:52:36.000Z</time>
      </trkpt>
      <trkpt lat="47.19075" lon="-1.70426">
        <ele>72</ele>
        <time>2021-09-04T10:52:38.000Z</time>
      </trkpt>
      <trkpt lat="47.19068" lon="-1.70401">
        <ele>70</ele>
        <time>2021-09-04T10:52:40.000Z</time>
      </trkpt>
      <trkpt lat="47.19067" lon="-1.70375">
        <ele>69</ele>
        <time>2021-09-04T10:52:42.000Z</time>
      </trkpt>
      <trkpt lat="47.19068" lon="-1.70336">
        <ele>68</ele>
        <time>2021-09-04T10:52:45.000Z</time>
      </trkpt>
      <trkpt lat="47.19068" lon="-1.70323">
        <ele>67</ele>
        <time>2021-09-04T10:52:46.000Z</time>
      </trkpt>
      <trkpt lat="47.19067" lon="-1.70309">
        <ele>67</ele>
        <time>2021-09-04T10:52:47.000Z</time>
      </trkpt>
      <trkpt lat="47.19066" lon="-1.70294">
        <ele>66</ele>
        <time>2021-09-04T10:52:48.000Z</time>
      </trkpt>
      <trkpt lat="47.19065" lon="-1.7028">
        <ele>65</ele>
        <time>2021-09-04T10:52:49.000Z</time>
      </trkpt>
      <trkpt lat="47.19061" lon="-1.70252">
        <ele>64</ele>
        <time>2021-09-04T10:52:51.000Z</time>
      </trkpt>
      <trkpt lat="47.19059" lon="-1.70237">
        <ele>64</ele>
        <time>2021-09-04T10:52:52.000Z</time>
      </trkpt>
      <trkpt lat="47.19058" lon="-1.70223">
        <ele>64</ele>
        <time>2021-09-04T10:52:53.000Z</time>
      </trkpt>
      <trkpt lat="47.19056" lon="-1.70208">
        <ele>63</ele>
        <time>2021-09-04T10:52:54.000Z</time>
      </trkpt>
      <trkpt lat="47.19055" lon="-1.70194">
        <ele>63</ele>
        <time>2021-09-04T10:52:55.000Z</time>
      </trkpt>
      <trkpt lat="47.19054" lon="-1.7018">
        <ele>62</ele>
        <time>2021-09-04T10:52:56.000Z</time>
      </trkpt>
      <trkpt lat="47.19056" lon="-1.70166">
        <ele>61</ele>
        <time>2021-09-04T10:52:57.000Z</time>
      </trkpt>
      <trkpt lat="47.19058" lon="-1.70152">
        <ele>61</ele>
        <time>2021-09-04T10:52:58.000Z</time>
      </trkpt>
      <trkpt lat="47.19062" lon="-1.7014">
        <ele>60</ele>
        <time>2021-09-04T10:52:59.000Z</time>
      </trkpt>
      <trkpt lat="47.19067" lon="-1.70128">
        <ele>60</ele>
        <time>2021-09-04T10:53:00.000Z</time>
      </trkpt>
      <trkpt lat="47.19073" lon="-1.70118">
        <ele>60</ele>
        <time>2021-09-04T10:53:01.000Z</time>
      </trkpt>
      <trkpt lat="47.19086" lon="-1.701">
        <ele>59</ele>
        <time>2021-09-04T10:53:03.000Z</time>
      </trkpt>
      <trkpt lat="47.19097" lon="-1.7008">
        <ele>59</ele>
        <time>2021-09-04T10:53:05.000Z</time>
      </trkpt>
      <trkpt lat="47.19108" lon="-1.70061">
        <ele>59</ele>
        <time>2021-09-04T10:53:07.000Z</time>
      </trkpt>
      <trkpt lat="47.19118" lon="-1.70042">
        <ele>59</ele>
        <time>2021-09-04T10:53:09.000Z</time>
      </trkpt>
      <trkpt lat="47.19129" lon="-1.70023">
        <ele>58</ele>
        <time>2021-09-04T10:53:11.000Z</time>
      </trkpt>
      <trkpt lat="47.1914" lon="-1.70005">
        <ele>58</ele>
        <time>2021-09-04T10:53:13.000Z</time>
      </trkpt>
      <trkpt lat="47.19151" lon="-1.69987">
        <ele>58</ele>
        <time>2021-09-04T10:53:15.000Z</time>
      </trkpt>
      <trkpt lat="47.1916" lon="-1.6997">
        <ele>58</ele>
        <time>2021-09-04T10:53:17.000Z</time>
      </trkpt>
      <trkpt lat="47.19168" lon="-1.6995">
        <ele>58</ele>
        <time>2021-09-04T10:53:19.000Z</time>
      </trkpt>
      <trkpt lat="47.19174" lon="-1.6993">
        <ele>59</ele>
        <time>2021-09-04T10:53:21.000Z</time>
      </trkpt>
      <trkpt lat="47.19178" lon="-1.69908">
        <ele>59</ele>
        <time>2021-09-04T10:53:23.000Z</time>
      </trkpt>
      <trkpt lat="47.1918" lon="-1.69886">
        <ele>59</ele>
        <time>2021-09-04T10:53:25.000Z</time>
      </trkpt>
      <trkpt lat="47.19182" lon="-1.69863">
        <ele>58</ele>
        <time>2021-09-04T10:53:27.000Z</time>
      </trkpt>
      <trkpt lat="47.19184" lon="-1.6984">
        <ele>58</ele>
        <time>2021-09-04T10:53:29.000Z</time>
      </trkpt>
      <trkpt lat="47.19186" lon="-1.69817">
        <ele>57</ele>
        <time>2021-09-04T10:53:31.000Z</time>
      </trkpt>
      <trkpt lat="47.19189" lon="-1.69796">
        <ele>58</ele>
        <time>2021-09-04T10:53:33.000Z</time>
      </trkpt>
      <trkpt lat="47.19192" lon="-1.69774">
        <ele>58</ele>
        <time>2021-09-04T10:53:35.000Z</time>
      </trkpt>
      <trkpt lat="47.19194" lon="-1.69752">
        <ele>58</ele>
        <time>2021-09-04T10:53:37.000Z</time>
      </trkpt>
      <trkpt lat="47.19196" lon="-1.69731">
        <ele>58</ele>
        <time>2021-09-04T10:53:39.000Z</time>
      </trkpt>
      <trkpt lat="47.19197" lon="-1.69709">
        <ele>58</ele>
        <time>2021-09-04T10:53:41.000Z</time>
      </trkpt>
      <trkpt lat="47.19199" lon="-1.69688">
        <ele>57</ele>
        <time>2021-09-04T10:53:43.000Z</time>
      </trkpt>
      <trkpt lat="47.192" lon="-1.69667">
        <ele>57</ele>
        <time>2021-09-04T10:53:45.000Z</time>
      </trkpt>
      <trkpt lat="47.19199" lon="-1.69646">
        <ele>57</ele>
        <time>2021-09-04T10:53:47.000Z</time>
      </trkpt>
      <trkpt lat="47.19195" lon="-1.69626">
        <ele>57</ele>
        <time>2021-09-04T10:53:49.000Z</time>
      </trkpt>
      <trkpt lat="47.19187" lon="-1.69611">
        <ele>57</ele>
        <time>2021-09-04T10:53:51.000Z</time>
      </trkpt>
      <trkpt lat="47.19183" lon="-1.69594">
        <ele>57</ele>
        <time>2021-09-04T10:53:53.000Z</time>
      </trkpt>
      <trkpt lat="47.19179" lon="-1.69579">
        <ele>58</ele>
        <time>2021-09-04T10:53:55.000Z</time>
      </trkpt>
      <trkpt lat="47.19173" lon="-1.69566">
        <ele>58</ele>
        <time>2021-09-04T10:53:57.000Z</time>
      </trkpt>
      <trkpt lat="47.19167" lon="-1.69554">
        <ele>59</ele>
        <time>2021-09-04T10:53:59.000Z</time>
      </trkpt>
      <trkpt lat="47.19159" lon="-1.69542">
        <ele>60</ele>
        <time>2021-09-04T10:54:01.000Z</time>
      </trkpt>
      <trkpt lat="47.19151" lon="-1.69531">
        <ele>60</ele>
        <time>2021-09-04T10:54:03.000Z</time>
      </trkpt>
      <trkpt lat="47.19144" lon="-1.69521">
        <ele>62</ele>
        <time>2021-09-04T10:54:05.000Z</time>
      </trkpt>
      <trkpt lat="47.19137" lon="-1.69509">
        <ele>62</ele>
        <time>2021-09-04T10:54:07.000Z</time>
      </trkpt>
      <trkpt lat="47.1913" lon="-1.69498">
        <ele>63</ele>
        <time>2021-09-04T10:54:09.000Z</time>
      </trkpt>
      <trkpt lat="47.19123" lon="-1.69486">
        <ele>63</ele>
        <time>2021-09-04T10:54:11.000Z</time>
      </trkpt>
      <trkpt lat="47.19115" lon="-1.69476">
        <ele>64</ele>
        <time>2021-09-04T10:54:13.000Z</time>
      </trkpt>
      <trkpt lat="47.19108" lon="-1.69465">
        <ele>65</ele>
        <time>2021-09-04T10:54:15.000Z</time>
      </trkpt>
      <trkpt lat="47.19101" lon="-1.69454">
        <ele>65</ele>
        <time>2021-09-04T10:54:17.000Z</time>
      </trkpt>
      <trkpt lat="47.19094" lon="-1.69443">
        <ele>66</ele>
        <time>2021-09-04T10:54:19.000Z</time>
      </trkpt>
      <trkpt lat="47.19088" lon="-1.69431">
        <ele>66</ele>
        <time>2021-09-04T10:54:21.000Z</time>
      </trkpt>
      <trkpt lat="47.1908" lon="-1.69421">
        <ele>67</ele>
        <time>2021-09-04T10:54:23.000Z</time>
      </trkpt>
      <trkpt lat="47.19073" lon="-1.69411">
        <ele>68</ele>
        <time>2021-09-04T10:54:25.000Z</time>
      </trkpt>
      <trkpt lat="47.19066" lon="-1.694">
        <ele>68</ele>
        <time>2021-09-04T10:54:27.000Z</time>
      </trkpt>
      <trkpt lat="47.1906" lon="-1.69389">
        <ele>68</ele>
        <time>2021-09-04T10:54:29.000Z</time>
      </trkpt>
      <trkpt lat="47.19053" lon="-1.69379">
        <ele>69</ele>
        <time>2021-09-04T10:54:31.000Z</time>
      </trkpt>
      <trkpt lat="47.19046" lon="-1.69369">
        <ele>69</ele>
        <time>2021-09-04T10:54:33.000Z</time>
      </trkpt>
      <trkpt lat="47.19039" lon="-1.69358">
        <ele>70</ele>
        <time>2021-09-04T10:54:35.000Z</time>
      </trkpt>
      <trkpt lat="47.19032" lon="-1.69347">
        <ele>71</ele>
        <time>2021-09-04T10:54:37.000Z</time>
      </trkpt>
      <trkpt lat="47.19025" lon="-1.69336">
        <ele>71</ele>
        <time>2021-09-04T10:54:39.000Z</time>
      </trkpt>
      <trkpt lat="47.19019" lon="-1.69325">
        <ele>72</ele>
        <time>2021-09-04T10:54:41.000Z</time>
      </trkpt>
      <trkpt lat="47.19014" lon="-1.69314">
        <ele>72</ele>
        <time>2021-09-04T10:54:43.000Z</time>
      </trkpt>
      <trkpt lat="47.19009" lon="-1.69302">
        <ele>73</ele>
        <time>2021-09-04T10:54:45.000Z</time>
      </trkpt>
      <trkpt lat="47.19006" lon="-1.6929">
        <ele>74</ele>
        <time>2021-09-04T10:54:47.000Z</time>
      </trkpt>
      <trkpt lat="47.19001" lon="-1.69278">
        <ele>74</ele>
        <time>2021-09-04T10:54:49.000Z</time>
      </trkpt>
      <trkpt lat="47.18996" lon="-1.69266">
        <ele>74</ele>
        <time>2021-09-04T10:54:51.000Z</time>
      </trkpt>
      <trkpt lat="47.18991" lon="-1.69253">
        <ele>74</ele>
        <time>2021-09-04T10:54:53.000Z</time>
      </trkpt>
      <trkpt lat="47.18986" lon="-1.6924">
        <ele>75</ele>
        <time>2021-09-04T10:54:55.000Z</time>
      </trkpt>
      <trkpt lat="47.18982" lon="-1.69227">
        <ele>76</ele>
        <time>2021-09-04T10:54:57.000Z</time>
      </trkpt>
      <trkpt lat="47.18977" lon="-1.69214">
        <ele>77</ele>
        <time>2021-09-04T10:54:59.000Z</time>
      </trkpt>
      <trkpt lat="47.18973" lon="-1.692">
        <ele>76</ele>
        <time>2021-09-04T10:55:01.000Z</time>
      </trkpt>
      <trkpt lat="47.18968" lon="-1.69185">
        <ele>77</ele>
        <time>2021-09-04T10:55:03.000Z</time>
      </trkpt>
      <trkpt lat="47.18962" lon="-1.6917">
        <ele>77</ele>
        <time>2021-09-04T10:55:05.000Z</time>
      </trkpt>
      <trkpt lat="47.18955" lon="-1.69156">
        <ele>77</ele>
        <time>2021-09-04T10:55:07.000Z</time>
      </trkpt>
      <trkpt lat="47.18947" lon="-1.69142">
        <ele>77</ele>
        <time>2021-09-04T10:55:09.000Z</time>
      </trkpt>
      <trkpt lat="47.18939" lon="-1.69128">
        <ele>76</ele>
        <time>2021-09-04T10:55:11.000Z</time>
      </trkpt>
      <trkpt lat="47.18931" lon="-1.69114">
        <ele>76</ele>
        <time>2021-09-04T10:55:13.000Z</time>
      </trkpt>
      <trkpt lat="47.18923" lon="-1.69099">
        <ele>75</ele>
        <time>2021-09-04T10:55:15.000Z</time>
      </trkpt>
      <trkpt lat="47.18914" lon="-1.69082">
        <ele>74</ele>
        <time>2021-09-04T10:55:17.000Z</time>
      </trkpt>
      <trkpt lat="47.18904" lon="-1.69065">
        <ele>74</ele>
        <time>2021-09-04T10:55:19.000Z</time>
      </trkpt>
      <trkpt lat="47.18895" lon="-1.69049">
        <ele>73</ele>
        <time>2021-09-04T10:55:21.000Z</time>
      </trkpt>
      <trkpt lat="47.18885" lon="-1.69035">
        <ele>71</ele>
        <time>2021-09-04T10:55:23.000Z</time>
      </trkpt>
      <trkpt lat="47.18871" lon="-1.6903">
        <ele>70</ele>
        <time>2021-09-04T10:55:25.000Z</time>
      </trkpt>
      <trkpt lat="47.18856" lon="-1.69031">
        <ele>69</ele>
        <time>2021-09-04T10:55:27.000Z</time>
      </trkpt>
      <trkpt lat="47.18842" lon="-1.69031">
        <ele>69</ele>
        <time>2021-09-04T10:55:29.000Z</time>
      </trkpt>
      <trkpt lat="47.18833" lon="-1.69015">
        <ele>68</ele>
        <time>2021-09-04T10:55:31.000Z</time>
      </trkpt>
      <trkpt lat="47.18838" lon="-1.68996">
        <ele>68</ele>
        <time>2021-09-04T10:55:33.000Z</time>
      </trkpt>
      <trkpt lat="47.18846" lon="-1.6898">
        <ele>69</ele>
        <time>2021-09-04T10:55:35.000Z</time>
      </trkpt>
      <trkpt lat="47.18852" lon="-1.68964">
        <ele>69</ele>
        <time>2021-09-04T10:55:37.000Z</time>
      </trkpt>
      <trkpt lat="47.18854" lon="-1.68947">
        <ele>68</ele>
        <time>2021-09-04T10:55:39.000Z</time>
      </trkpt>
      <trkpt lat="47.18853" lon="-1.6893">
        <ele>69</ele>
        <time>2021-09-04T10:55:41.000Z</time>
      </trkpt>
      <trkpt lat="47.18851" lon="-1.68914">
        <ele>69</ele>
        <time>2021-09-04T10:55:43.000Z</time>
      </trkpt>
      <trkpt lat="47.18846" lon="-1.68897">
        <ele>69</ele>
        <time>2021-09-04T10:55:45.000Z</time>
      </trkpt>
      <trkpt lat="47.18841" lon="-1.6888">
        <ele>70</ele>
        <time>2021-09-04T10:55:47.000Z</time>
      </trkpt>
      <trkpt lat="47.18835" lon="-1.68863">
        <ele>70</ele>
        <time>2021-09-04T10:55:49.000Z</time>
      </trkpt>
      <trkpt lat="47.1883" lon="-1.68847">
        <ele>70</ele>
        <time>2021-09-04T10:55:51.000Z</time>
      </trkpt>
      <trkpt lat="47.18825" lon="-1.68831">
        <ele>71</ele>
        <time>2021-09-04T10:55:53.000Z</time>
      </trkpt>
      <trkpt lat="47.18819" lon="-1.68816">
        <ele>71</ele>
        <time>2021-09-04T10:55:55.000Z</time>
      </trkpt>
      <trkpt lat="47.18814" lon="-1.688">
        <ele>71</ele>
        <time>2021-09-04T10:55:57.000Z</time>
      </trkpt>
      <trkpt lat="47.18808" lon="-1.68784">
        <ele>71</ele>
        <time>2021-09-04T10:55:59.000Z</time>
      </trkpt>
      <trkpt lat="47.18802" lon="-1.68769">
        <ele>71</ele>
        <time>2021-09-04T10:56:01.000Z</time>
      </trkpt>
      <trkpt lat="47.18795" lon="-1.68756">
        <ele>72</ele>
        <time>2021-09-04T10:56:03.000Z</time>
      </trkpt>
      <trkpt lat="47.18787" lon="-1.68742">
        <ele>72</ele>
        <time>2021-09-04T10:56:05.000Z</time>
      </trkpt>
      <trkpt lat="47.18779" lon="-1.68729">
        <ele>71</ele>
        <time>2021-09-04T10:56:07.000Z</time>
      </trkpt>
      <trkpt lat="47.1877" lon="-1.68717">
        <ele>72</ele>
        <time>2021-09-04T10:56:09.000Z</time>
      </trkpt>
      <trkpt lat="47.18763" lon="-1.68703">
        <ele>72</ele>
        <time>2021-09-04T10:56:11.000Z</time>
      </trkpt>
      <trkpt lat="47.18757" lon="-1.68688">
        <ele>73</ele>
        <time>2021-09-04T10:56:13.000Z</time>
      </trkpt>
      <trkpt lat="47.18749" lon="-1.68673">
        <ele>73</ele>
        <time>2021-09-04T10:56:15.000Z</time>
      </trkpt>
      <trkpt lat="47.1874" lon="-1.68659">
        <ele>73</ele>
        <time>2021-09-04T10:56:17.000Z</time>
      </trkpt>
      <trkpt lat="47.18733" lon="-1.68644">
        <ele>73</ele>
        <time>2021-09-04T10:56:19.000Z</time>
      </trkpt>
      <trkpt lat="47.18725" lon="-1.68629">
        <ele>73</ele>
        <time>2021-09-04T10:56:21.000Z</time>
      </trkpt>
      <trkpt lat="47.18717" lon="-1.68614">
        <ele>73</ele>
        <time>2021-09-04T10:56:23.000Z</time>
      </trkpt>
      <trkpt lat="47.1871" lon="-1.686">
        <ele>73</ele>
        <time>2021-09-04T10:56:25.000Z</time>
      </trkpt>
      <trkpt lat="47.18701" lon="-1.68586">
        <ele>74</ele>
        <time>2021-09-04T10:56:27.000Z</time>
      </trkpt>
      <trkpt lat="47.18691" lon="-1.68576">
        <ele>74</ele>
        <time>2021-09-04T10:56:29.000Z</time>
      </trkpt>
      <trkpt lat="47.18684" lon="-1.68562">
        <ele>74</ele>
        <time>2021-09-04T10:56:31.000Z</time>
      </trkpt>
      <trkpt lat="47.18679" lon="-1.68545">
        <ele>74</ele>
        <time>2021-09-04T10:56:33.000Z</time>
      </trkpt>
      <trkpt lat="47.18671" lon="-1.68529">
        <ele>74</ele>
        <time>2021-09-04T10:56:35.000Z</time>
      </trkpt>
      <trkpt lat="47.18663" lon="-1.68513">
        <ele>74</ele>
        <time>2021-09-04T10:56:37.000Z</time>
      </trkpt>
      <trkpt lat="47.18657" lon="-1.68497">
        <ele>74</ele>
        <time>2021-09-04T10:56:39.000Z</time>
      </trkpt>
      <trkpt lat="47.18651" lon="-1.6848">
        <ele>74</ele>
        <time>2021-09-04T10:56:41.000Z</time>
      </trkpt>
      <trkpt lat="47.18646" lon="-1.68463">
        <ele>74</ele>
        <time>2021-09-04T10:56:43.000Z</time>
      </trkpt>
      <trkpt lat="47.18641" lon="-1.68445">
        <ele>75</ele>
        <time>2021-09-04T10:56:45.000Z</time>
      </trkpt>
      <trkpt lat="47.18637" lon="-1.68428">
        <ele>75</ele>
        <time>2021-09-04T10:56:47.000Z</time>
      </trkpt>
      <trkpt lat="47.18632" lon="-1.68411">
        <ele>76</ele>
        <time>2021-09-04T10:56:49.000Z</time>
      </trkpt>
      <trkpt lat="47.18628" lon="-1.68394">
        <ele>76</ele>
        <time>2021-09-04T10:56:51.000Z</time>
      </trkpt>
      <trkpt lat="47.18623" lon="-1.68377">
        <ele>76</ele>
        <time>2021-09-04T10:56:53.000Z</time>
      </trkpt>
      <trkpt lat="47.18618" lon="-1.6836">
        <ele>76</ele>
        <time>2021-09-04T10:56:55.000Z</time>
      </trkpt>
      <trkpt lat="47.18614" lon="-1.68342">
        <ele>76</ele>
        <time>2021-09-04T10:56:57.000Z</time>
      </trkpt>
      <trkpt lat="47.18609" lon="-1.68325">
        <ele>76</ele>
        <time>2021-09-04T10:56:59.000Z</time>
      </trkpt>
      <trkpt lat="47.18605" lon="-1.68308">
        <ele>77</ele>
        <time>2021-09-04T10:57:01.000Z</time>
      </trkpt>
      <trkpt lat="47.186" lon="-1.68291">
        <ele>77</ele>
        <time>2021-09-04T10:57:03.000Z</time>
      </trkpt>
      <trkpt lat="47.18596" lon="-1.68274">
        <ele>77</ele>
        <time>2021-09-04T10:57:05.000Z</time>
      </trkpt>
      <trkpt lat="47.18592" lon="-1.68257">
        <ele>77</ele>
        <time>2021-09-04T10:57:07.000Z</time>
      </trkpt>
      <trkpt lat="47.18587" lon="-1.6824">
        <ele>77</ele>
        <time>2021-09-04T10:57:09.000Z</time>
      </trkpt>
      <trkpt lat="47.18583" lon="-1.68222">
        <ele>78</ele>
        <time>2021-09-04T10:57:11.000Z</time>
      </trkpt>
      <trkpt lat="47.18579" lon="-1.68205">
        <ele>78</ele>
        <time>2021-09-04T10:57:13.000Z</time>
      </trkpt>
      <trkpt lat="47.18575" lon="-1.68187">
        <ele>78</ele>
        <time>2021-09-04T10:57:15.000Z</time>
      </trkpt>
      <trkpt lat="47.18571" lon="-1.6817">
        <ele>78</ele>
        <time>2021-09-04T10:57:17.000Z</time>
      </trkpt>
      <trkpt lat="47.18567" lon="-1.68154">
        <ele>78</ele>
        <time>2021-09-04T10:57:19.000Z</time>
      </trkpt>
      <trkpt lat="47.18563" lon="-1.68137">
        <ele>78</ele>
        <time>2021-09-04T10:57:21.000Z</time>
      </trkpt>
      <trkpt lat="47.1856" lon="-1.68119">
        <ele>78</ele>
        <time>2021-09-04T10:57:23.000Z</time>
      </trkpt>
      <trkpt lat="47.18558" lon="-1.68101">
        <ele>79</ele>
        <time>2021-09-04T10:57:25.000Z</time>
      </trkpt>
      <trkpt lat="47.18555" lon="-1.68083">
        <ele>79</ele>
        <time>2021-09-04T10:57:27.000Z</time>
      </trkpt>
      <trkpt lat="47.18553" lon="-1.68065">
        <ele>79</ele>
        <time>2021-09-04T10:57:29.000Z</time>
      </trkpt>
      <trkpt lat="47.18551" lon="-1.68048">
        <ele>79</ele>
        <time>2021-09-04T10:57:31.000Z</time>
      </trkpt>
      <trkpt lat="47.18549" lon="-1.68031">
        <ele>79</ele>
        <time>2021-09-04T10:57:33.000Z</time>
      </trkpt>
      <trkpt lat="47.18547" lon="-1.68012">
        <ele>79</ele>
        <time>2021-09-04T10:57:35.000Z</time>
      </trkpt>
      <trkpt lat="47.18545" lon="-1.67994">
        <ele>79</ele>
        <time>2021-09-04T10:57:37.000Z</time>
      </trkpt>
      <trkpt lat="47.18544" lon="-1.67976">
        <ele>79</ele>
        <time>2021-09-04T10:57:39.000Z</time>
      </trkpt>
      <trkpt lat="47.18542" lon="-1.67958">
        <ele>79</ele>
        <time>2021-09-04T10:57:41.000Z</time>
      </trkpt>
      <trkpt lat="47.18539" lon="-1.6794">
        <ele>80</ele>
        <time>2021-09-04T10:57:43.000Z</time>
      </trkpt>
      <trkpt lat="47.18538" lon="-1.67923">
        <ele>80</ele>
        <time>2021-09-04T10:57:45.000Z</time>
      </trkpt>
      <trkpt lat="47.18537" lon="-1.67904">
        <ele>80</ele>
        <time>2021-09-04T10:57:47.000Z</time>
      </trkpt>
      <trkpt lat="47.18538" lon="-1.67885">
        <ele>80</ele>
        <time>2021-09-04T10:57:49.000Z</time>
      </trkpt>
      <trkpt lat="47.18541" lon="-1.67866">
        <ele>80</ele>
        <time>2021-09-04T10:57:51.000Z</time>
      </trkpt>
      <trkpt lat="47.18544" lon="-1.67848">
        <ele>81</ele>
        <time>2021-09-04T10:57:53.000Z</time>
      </trkpt>
      <trkpt lat="47.18548" lon="-1.67829">
        <ele>81</ele>
        <time>2021-09-04T10:57:55.000Z</time>
      </trkpt>
      <trkpt lat="47.18552" lon="-1.67811">
        <ele>81</ele>
        <time>2021-09-04T10:57:57.000Z</time>
      </trkpt>
      <trkpt lat="47.18555" lon="-1.67793">
        <ele>81</ele>
        <time>2021-09-04T10:57:59.000Z</time>
      </trkpt>
      <trkpt lat="47.18559" lon="-1.67776">
        <ele>81</ele>
        <time>2021-09-04T10:58:01.000Z</time>
      </trkpt>
      <trkpt lat="47.18562" lon="-1.67759">
        <ele>82</ele>
        <time>2021-09-04T10:58:03.000Z</time>
      </trkpt>
      <trkpt lat="47.18566" lon="-1.67742">
        <ele>82</ele>
        <time>2021-09-04T10:58:05.000Z</time>
      </trkpt>
      <trkpt lat="47.1857" lon="-1.67726">
        <ele>82</ele>
        <time>2021-09-04T10:58:07.000Z</time>
      </trkpt>
      <trkpt lat="47.18573" lon="-1.67709">
        <ele>83</ele>
        <time>2021-09-04T10:58:09.000Z</time>
      </trkpt>
      <trkpt lat="47.18577" lon="-1.67692">
        <ele>83</ele>
        <time>2021-09-04T10:58:11.000Z</time>
      </trkpt>
      <trkpt lat="47.1858" lon="-1.67675">
        <ele>84</ele>
        <time>2021-09-04T10:58:13.000Z</time>
      </trkpt>
      <trkpt lat="47.18583" lon="-1.67657">
        <ele>85</ele>
        <time>2021-09-04T10:58:15.000Z</time>
      </trkpt>
      <trkpt lat="47.18584" lon="-1.67639">
        <ele>85</ele>
        <time>2021-09-04T10:58:17.000Z</time>
      </trkpt>
      <trkpt lat="47.18581" lon="-1.67621">
        <ele>85</ele>
        <time>2021-09-04T10:58:19.000Z</time>
      </trkpt>
      <trkpt lat="47.18576" lon="-1.67604">
        <ele>85</ele>
        <time>2021-09-04T10:58:21.000Z</time>
      </trkpt>
      <trkpt lat="47.18571" lon="-1.67587">
        <ele>85</ele>
        <time>2021-09-04T10:58:23.000Z</time>
      </trkpt>
      <trkpt lat="47.18566" lon="-1.67569">
        <ele>85</ele>
        <time>2021-09-04T10:58:25.000Z</time>
      </trkpt>
      <trkpt lat="47.18562" lon="-1.67551">
        <ele>86</ele>
        <time>2021-09-04T10:58:27.000Z</time>
      </trkpt>
      <trkpt lat="47.18557" lon="-1.67534">
        <ele>86</ele>
        <time>2021-09-04T10:58:29.000Z</time>
      </trkpt>
      <trkpt lat="47.18553" lon="-1.67517">
        <ele>86</ele>
        <time>2021-09-04T10:58:31.000Z</time>
      </trkpt>
      <trkpt lat="47.18549" lon="-1.675">
        <ele>86</ele>
        <time>2021-09-04T10:58:33.000Z</time>
      </trkpt>
      <trkpt lat="47.18544" lon="-1.67484">
        <ele>87</ele>
        <time>2021-09-04T10:58:35.000Z</time>
      </trkpt>
      <trkpt lat="47.1854" lon="-1.67468">
        <ele>86</ele>
        <time>2021-09-04T10:58:37.000Z</time>
      </trkpt>
      <trkpt lat="47.18535" lon="-1.67452">
        <ele>86</ele>
        <time>2021-09-04T10:58:39.000Z</time>
      </trkpt>
      <trkpt lat="47.18528" lon="-1.67439">
        <ele>86</ele>
        <time>2021-09-04T10:58:41.000Z</time>
      </trkpt>
      <trkpt lat="47.18517" lon="-1.67433">
        <ele>86</ele>
        <time>2021-09-04T10:58:43.000Z</time>
      </trkpt>
      <trkpt lat="47.18505" lon="-1.67436">
        <ele>85</ele>
        <time>2021-09-04T10:58:45.000Z</time>
      </trkpt>
      <trkpt lat="47.18494" lon="-1.67442">
        <ele>85</ele>
        <time>2021-09-04T10:58:47.000Z</time>
      </trkpt>
      <trkpt lat="47.18482" lon="-1.6745">
        <ele>84</ele>
        <time>2021-09-04T10:58:49.000Z</time>
      </trkpt>
      <trkpt lat="47.18471" lon="-1.67457">
        <ele>84</ele>
        <time>2021-09-04T10:58:51.000Z</time>
      </trkpt>
      <trkpt lat="47.18459" lon="-1.67465">
        <ele>84</ele>
        <time>2021-09-04T10:58:53.000Z</time>
      </trkpt>
      <trkpt lat="47.18446" lon="-1.67472">
        <ele>84</ele>
        <time>2021-09-04T10:58:55.000Z</time>
      </trkpt>
      <trkpt lat="47.18433" lon="-1.67479">
        <ele>83</ele>
        <time>2021-09-04T10:58:57.000Z</time>
      </trkpt>
      <trkpt lat="47.1842" lon="-1.67487">
        <ele>83</ele>
        <time>2021-09-04T10:58:59.000Z</time>
      </trkpt>
      <trkpt lat="47.18408" lon="-1.67495">
        <ele>82</ele>
        <time>2021-09-04T10:59:01.000Z</time>
      </trkpt>
      <trkpt lat="47.18394" lon="-1.67503">
        <ele>82</ele>
        <time>2021-09-04T10:59:03.000Z</time>
      </trkpt>
      <trkpt lat="47.18382" lon="-1.6751">
        <ele>82</ele>
        <time>2021-09-04T10:59:05.000Z</time>
      </trkpt>
      <trkpt lat="47.18368" lon="-1.67517">
        <ele>82</ele>
        <time>2021-09-04T10:59:07.000Z</time>
      </trkpt>
      <trkpt lat="47.18356" lon="-1.67524">
        <ele>82</ele>
        <time>2021-09-04T10:59:09.000Z</time>
      </trkpt>
      <trkpt lat="47.18343" lon="-1.67532">
        <ele>82</ele>
        <time>2021-09-04T10:59:11.000Z</time>
      </trkpt>
      <trkpt lat="47.18331" lon="-1.6754">
        <ele>81</ele>
        <time>2021-09-04T10:59:13.000Z</time>
      </trkpt>
      <trkpt lat="47.18319" lon="-1.67548">
        <ele>81</ele>
        <time>2021-09-04T10:59:15.000Z</time>
      </trkpt>
      <trkpt lat="47.18307" lon="-1.67555">
        <ele>80</ele>
        <time>2021-09-04T10:59:17.000Z</time>
      </trkpt>
      <trkpt lat="47.18294" lon="-1.67562">
        <ele>80</ele>
        <time>2021-09-04T10:59:19.000Z</time>
      </trkpt>
      <trkpt lat="47.18282" lon="-1.6757">
        <ele>80</ele>
        <time>2021-09-04T10:59:21.000Z</time>
      </trkpt>
      <trkpt lat="47.18269" lon="-1.67577">
        <ele>80</ele>
        <time>2021-09-04T10:59:23.000Z</time>
      </trkpt>
      <trkpt lat="47.18257" lon="-1.67584">
        <ele>80</ele>
        <time>2021-09-04T10:59:25.000Z</time>
      </trkpt>
      <trkpt lat="47.18245" lon="-1.67592">
        <ele>80</ele>
        <time>2021-09-04T10:59:27.000Z</time>
      </trkpt>
      <trkpt lat="47.18233" lon="-1.67599">
        <ele>79</ele>
        <time>2021-09-04T10:59:29.000Z</time>
      </trkpt>
      <trkpt lat="47.1822" lon="-1.67605">
        <ele>79</ele>
        <time>2021-09-04T10:59:31.000Z</time>
      </trkpt>
      <trkpt lat="47.18208" lon="-1.67612">
        <ele>79</ele>
        <time>2021-09-04T10:59:33.000Z</time>
      </trkpt>
      <trkpt lat="47.18197" lon="-1.67619">
        <ele>79</ele>
        <time>2021-09-04T10:59:35.000Z</time>
      </trkpt>
      <trkpt lat="47.18185" lon="-1.67626">
        <ele>79</ele>
        <time>2021-09-04T10:59:37.000Z</time>
      </trkpt>
      <trkpt lat="47.18175" lon="-1.67634">
        <ele>80</ele>
        <time>2021-09-04T10:59:39.000Z</time>
      </trkpt>
      <trkpt lat="47.18163" lon="-1.67641">
        <ele>80</ele>
        <time>2021-09-04T10:59:41.000Z</time>
      </trkpt>
      <trkpt lat="47.18152" lon="-1.67648">
        <ele>80</ele>
        <time>2021-09-04T10:59:43.000Z</time>
      </trkpt>
      <trkpt lat="47.1814" lon="-1.67655">
        <ele>80</ele>
        <time>2021-09-04T10:59:45.000Z</time>
      </trkpt>
      <trkpt lat="47.18129" lon="-1.67662">
        <ele>80</ele>
        <time>2021-09-04T10:59:47.000Z</time>
      </trkpt>
      <trkpt lat="47.18117" lon="-1.67669">
        <ele>81</ele>
        <time>2021-09-04T10:59:49.000Z</time>
      </trkpt>
      <trkpt lat="47.18106" lon="-1.67676">
        <ele>81</ele>
        <time>2021-09-04T10:59:51.000Z</time>
      </trkpt>
      <trkpt lat="47.18094" lon="-1.67683">
        <ele>81</ele>
        <time>2021-09-04T10:59:53.000Z</time>
      </trkpt>
      <trkpt lat="47.18083" lon="-1.6769">
        <ele>81</ele>
        <time>2021-09-04T10:59:55.000Z</time>
      </trkpt>
      <trkpt lat="47.18071" lon="-1.67697">
        <ele>81</ele>
        <time>2021-09-04T10:59:57.000Z</time>
      </trkpt>
      <trkpt lat="47.1806" lon="-1.67704">
        <ele>82</ele>
        <time>2021-09-04T10:59:59.000Z</time>
      </trkpt>
      <trkpt lat="47.18048" lon="-1.67711">
        <ele>82</ele>
        <time>2021-09-04T11:00:01.000Z</time>
      </trkpt>
      <trkpt lat="47.18037" lon="-1.67718">
        <ele>82</ele>
        <time>2021-09-04T11:00:03.000Z</time>
      </trkpt>
      <trkpt lat="47.18025" lon="-1.67725">
        <ele>82</ele>
        <time>2021-09-04T11:00:05.000Z</time>
      </trkpt>
      <trkpt lat="47.18015" lon="-1.67731">
        <ele>82</ele>
        <time>2021-09-04T11:00:07.000Z</time>
      </trkpt>
      <trkpt lat="47.18005" lon="-1.67739">
        <ele>82</ele>
        <time>2021-09-04T11:00:10.000Z</time>
      </trkpt>
      <trkpt lat="47.17995" lon="-1.67746">
        <ele>82</ele>
        <time>2021-09-04T11:00:13.000Z</time>
      </trkpt>
      <trkpt lat="47.1799" lon="-1.67728">
        <ele>82</ele>
        <time>2021-09-04T11:00:16.000Z</time>
      </trkpt>
      <trkpt lat="47.17988" lon="-1.67713">
        <ele>82</ele>
        <time>2021-09-04T11:00:18.000Z</time>
      </trkpt>
      <trkpt lat="47.17983" lon="-1.67695">
        <ele>82</ele>
        <time>2021-09-04T11:00:20.000Z</time>
      </trkpt>
      <trkpt lat="47.17978" lon="-1.67678">
        <ele>83</ele>
        <time>2021-09-04T11:00:22.000Z</time>
      </trkpt>
      <trkpt lat="47.17974" lon="-1.67661">
        <ele>82</ele>
        <time>2021-09-04T11:00:24.000Z</time>
      </trkpt>
      <trkpt lat="47.17969" lon="-1.67643">
        <ele>83</ele>
        <time>2021-09-04T11:00:26.000Z</time>
      </trkpt>
      <trkpt lat="47.17963" lon="-1.67625">
        <ele>83</ele>
        <time>2021-09-04T11:00:28.000Z</time>
      </trkpt>
      <trkpt lat="47.17958" lon="-1.67606">
        <ele>83</ele>
        <time>2021-09-04T11:00:30.000Z</time>
      </trkpt>
      <trkpt lat="47.17953" lon="-1.67586">
        <ele>84</ele>
        <time>2021-09-04T11:00:32.000Z</time>
      </trkpt>
      <trkpt lat="47.17949" lon="-1.67569">
        <ele>84</ele>
        <time>2021-09-04T11:00:34.000Z</time>
      </trkpt>
      <trkpt lat="47.17943" lon="-1.67552">
        <ele>84</ele>
        <time>2021-09-04T11:00:36.000Z</time>
      </trkpt>
      <trkpt lat="47.17938" lon="-1.67535">
        <ele>84</ele>
        <time>2021-09-04T11:00:38.000Z</time>
      </trkpt>
      <trkpt lat="47.17934" lon="-1.67519">
        <ele>84</ele>
        <time>2021-09-04T11:00:40.000Z</time>
      </trkpt>
      <trkpt lat="47.17929" lon="-1.67503">
        <ele>84</ele>
        <time>2021-09-04T11:00:42.000Z</time>
      </trkpt>
      <trkpt lat="47.17925" lon="-1.67488">
        <ele>84</ele>
        <time>2021-09-04T11:00:44.000Z</time>
      </trkpt>
      <trkpt lat="47.1792" lon="-1.67472">
        <ele>84</ele>
        <time>2021-09-04T11:00:46.000Z</time>
      </trkpt>
      <trkpt lat="47.17916" lon="-1.67456">
        <ele>84</ele>
        <time>2021-09-04T11:00:48.000Z</time>
      </trkpt>
      <trkpt lat="47.17912" lon="-1.6744">
        <ele>85</ele>
        <time>2021-09-04T11:00:50.000Z</time>
      </trkpt>
      <trkpt lat="47.17909" lon="-1.67426">
        <ele>85</ele>
        <time>2021-09-04T11:00:52.000Z</time>
      </trkpt>
      <trkpt lat="47.17905" lon="-1.67412">
        <ele>85</ele>
        <time>2021-09-04T11:00:54.000Z</time>
      </trkpt>
      <trkpt lat="47.17896" lon="-1.67397">
        <ele>85</ele>
        <time>2021-09-04T11:00:57.000Z</time>
      </trkpt>
      <trkpt lat="47.17889" lon="-1.67385">
        <ele>84</ele>
        <time>2021-09-04T11:00:59.000Z</time>
      </trkpt>
      <trkpt lat="47.17883" lon="-1.67371">
        <ele>84</ele>
        <time>2021-09-04T11:01:01.000Z</time>
      </trkpt>
      <trkpt lat="47.17876" lon="-1.67356">
        <ele>84</ele>
        <time>2021-09-04T11:01:03.000Z</time>
      </trkpt>
      <trkpt lat="47.17868" lon="-1.67342">
        <ele>83</ele>
        <time>2021-09-04T11:01:05.000Z</time>
      </trkpt>
      <trkpt lat="47.1786" lon="-1.67327">
        <ele>83</ele>
        <time>2021-09-04T11:01:07.000Z</time>
      </trkpt>
      <trkpt lat="47.17852" lon="-1.67312">
        <ele>83</ele>
        <time>2021-09-04T11:01:09.000Z</time>
      </trkpt>
      <trkpt lat="47.17844" lon="-1.67298">
        <ele>82</ele>
        <time>2021-09-04T11:01:11.000Z</time>
      </trkpt>
      <trkpt lat="47.17837" lon="-1.67283">
        <ele>82</ele>
        <time>2021-09-04T11:01:13.000Z</time>
      </trkpt>
      <trkpt lat="47.17829" lon="-1.67269">
        <ele>82</ele>
        <time>2021-09-04T11:01:15.000Z</time>
      </trkpt>
      <trkpt lat="47.17821" lon="-1.67254">
        <ele>82</ele>
        <time>2021-09-04T11:01:17.000Z</time>
      </trkpt>
      <trkpt lat="47.17813" lon="-1.6724">
        <ele>83</ele>
        <time>2021-09-04T11:01:19.000Z</time>
      </trkpt>
      <trkpt lat="47.17805" lon="-1.67225">
        <ele>83</ele>
        <time>2021-09-04T11:01:21.000Z</time>
      </trkpt>
      <trkpt lat="47.17797" lon="-1.67211">
        <ele>83</ele>
        <time>2021-09-04T11:01:23.000Z</time>
      </trkpt>
      <trkpt lat="47.17789" lon="-1.67196">
        <ele>83</ele>
        <time>2021-09-04T11:01:25.000Z</time>
      </trkpt>
      <trkpt lat="47.17782" lon="-1.67183">
        <ele>83</ele>
        <time>2021-09-04T11:01:27.000Z</time>
      </trkpt>
      <trkpt lat="47.17774" lon="-1.67169">
        <ele>83</ele>
        <time>2021-09-04T11:01:29.000Z</time>
      </trkpt>
      <trkpt lat="47.17767" lon="-1.67153">
        <ele>83</ele>
        <time>2021-09-04T11:01:31.000Z</time>
      </trkpt>
      <trkpt lat="47.17759" lon="-1.67139">
        <ele>83</ele>
        <time>2021-09-04T11:01:33.000Z</time>
      </trkpt>
      <trkpt lat="47.17751" lon="-1.67125">
        <ele>83</ele>
        <time>2021-09-04T11:01:35.000Z</time>
      </trkpt>
      <trkpt lat="47.17743" lon="-1.67111">
        <ele>83</ele>
        <time>2021-09-04T11:01:37.000Z</time>
      </trkpt>
      <trkpt lat="47.17736" lon="-1.67097">
        <ele>83</ele>
        <time>2021-09-04T11:01:39.000Z</time>
      </trkpt>
      <trkpt lat="47.17728" lon="-1.67083">
        <ele>83</ele>
        <time>2021-09-04T11:01:41.000Z</time>
      </trkpt>
      <trkpt lat="47.1772" lon="-1.67068">
        <ele>83</ele>
        <time>2021-09-04T11:01:43.000Z</time>
      </trkpt>
      <trkpt lat="47.17712" lon="-1.67054">
        <ele>83</ele>
        <time>2021-09-04T11:01:45.000Z</time>
      </trkpt>
      <trkpt lat="47.17705" lon="-1.67039">
        <ele>83</ele>
        <time>2021-09-04T11:01:47.000Z</time>
      </trkpt>
      <trkpt lat="47.17697" lon="-1.67025">
        <ele>83</ele>
        <time>2021-09-04T11:01:49.000Z</time>
      </trkpt>
      <trkpt lat="47.1769" lon="-1.67011">
        <ele>83</ele>
        <time>2021-09-04T11:01:51.000Z</time>
      </trkpt>
      <trkpt lat="47.17682" lon="-1.66995">
        <ele>83</ele>
        <time>2021-09-04T11:01:53.000Z</time>
      </trkpt>
      <trkpt lat="47.17675" lon="-1.66981">
        <ele>83</ele>
        <time>2021-09-04T11:01:55.000Z</time>
      </trkpt>
      <trkpt lat="47.17667" lon="-1.66966">
        <ele>83</ele>
        <time>2021-09-04T11:01:57.000Z</time>
      </trkpt>
      <trkpt lat="47.17659" lon="-1.66951">
        <ele>82</ele>
        <time>2021-09-04T11:01:59.000Z</time>
      </trkpt>
      <trkpt lat="47.1765" lon="-1.66937">
        <ele>82</ele>
        <time>2021-09-04T11:02:01.000Z</time>
      </trkpt>
      <trkpt lat="47.17642" lon="-1.66922">
        <ele>82</ele>
        <time>2021-09-04T11:02:03.000Z</time>
      </trkpt>
      <trkpt lat="47.17635" lon="-1.66908">
        <ele>82</ele>
        <time>2021-09-04T11:02:05.000Z</time>
      </trkpt>
      <trkpt lat="47.17627" lon="-1.66894">
        <ele>82</ele>
        <time>2021-09-04T11:02:07.000Z</time>
      </trkpt>
      <trkpt lat="47.17619" lon="-1.6688">
        <ele>83</ele>
        <time>2021-09-04T11:02:09.000Z</time>
      </trkpt>
      <trkpt lat="47.17611" lon="-1.66865">
        <ele>83</ele>
        <time>2021-09-04T11:02:11.000Z</time>
      </trkpt>
      <trkpt lat="47.17603" lon="-1.66851">
        <ele>83</ele>
        <time>2021-09-04T11:02:13.000Z</time>
      </trkpt>
      <trkpt lat="47.17595" lon="-1.66836">
        <ele>82</ele>
        <time>2021-09-04T11:02:15.000Z</time>
      </trkpt>
      <trkpt lat="47.17588" lon="-1.66822">
        <ele>83</ele>
        <time>2021-09-04T11:02:17.000Z</time>
      </trkpt>
      <trkpt lat="47.1758" lon="-1.66807">
        <ele>83</ele>
        <time>2021-09-04T11:02:19.000Z</time>
      </trkpt>
      <trkpt lat="47.17573" lon="-1.66793">
        <ele>84</ele>
        <time>2021-09-04T11:02:21.000Z</time>
      </trkpt>
      <trkpt lat="47.17565" lon="-1.66778">
        <ele>84</ele>
        <time>2021-09-04T11:02:23.000Z</time>
      </trkpt>
      <trkpt lat="47.17557" lon="-1.66764">
        <ele>84</ele>
        <time>2021-09-04T11:02:25.000Z</time>
      </trkpt>
      <trkpt lat="47.17549" lon="-1.66749">
        <ele>84</ele>
        <time>2021-09-04T11:02:27.000Z</time>
      </trkpt>
      <trkpt lat="47.17542" lon="-1.66733">
        <ele>83</ele>
        <time>2021-09-04T11:02:29.000Z</time>
      </trkpt>
      <trkpt lat="47.17534" lon="-1.66719">
        <ele>83</ele>
        <time>2021-09-04T11:02:31.000Z</time>
      </trkpt>
      <trkpt lat="47.17526" lon="-1.66704">
        <ele>83</ele>
        <time>2021-09-04T11:02:33.000Z</time>
      </trkpt>
      <trkpt lat="47.17518" lon="-1.6669">
        <ele>83</ele>
        <time>2021-09-04T11:02:35.000Z</time>
      </trkpt>
      <trkpt lat="47.17511" lon="-1.66675">
        <ele>83</ele>
        <time>2021-09-04T11:02:37.000Z</time>
      </trkpt>
      <trkpt lat="47.17503" lon="-1.6666">
        <ele>83</ele>
        <time>2021-09-04T11:02:39.000Z</time>
      </trkpt>
      <trkpt lat="47.17495" lon="-1.66646">
        <ele>83</ele>
        <time>2021-09-04T11:02:41.000Z</time>
      </trkpt>
      <trkpt lat="47.17486" lon="-1.66632">
        <ele>83</ele>
        <time>2021-09-04T11:02:43.000Z</time>
      </trkpt>
      <trkpt lat="47.17478" lon="-1.66618">
        <ele>84</ele>
        <time>2021-09-04T11:02:45.000Z</time>
      </trkpt>
      <trkpt lat="47.17471" lon="-1.66605">
        <ele>83</ele>
        <time>2021-09-04T11:02:47.000Z</time>
      </trkpt>
      <trkpt lat="47.17463" lon="-1.66591">
        <ele>83</ele>
        <time>2021-09-04T11:02:49.000Z</time>
      </trkpt>
      <trkpt lat="47.17455" lon="-1.66577">
        <ele>84</ele>
        <time>2021-09-04T11:02:51.000Z</time>
      </trkpt>
      <trkpt lat="47.17448" lon="-1.66563">
        <ele>84</ele>
        <time>2021-09-04T11:02:53.000Z</time>
      </trkpt>
      <trkpt lat="47.1744" lon="-1.66549">
        <ele>84</ele>
        <time>2021-09-04T11:02:55.000Z</time>
      </trkpt>
      <trkpt lat="47.17433" lon="-1.66535">
        <ele>85</ele>
        <time>2021-09-04T11:02:57.000Z</time>
      </trkpt>
      <trkpt lat="47.17425" lon="-1.66521">
        <ele>85</ele>
        <time>2021-09-04T11:02:59.000Z</time>
      </trkpt>
      <trkpt lat="47.17418" lon="-1.66505">
        <ele>85</ele>
        <time>2021-09-04T11:03:01.000Z</time>
      </trkpt>
      <trkpt lat="47.1741" lon="-1.66491">
        <ele>85</ele>
        <time>2021-09-04T11:03:03.000Z</time>
      </trkpt>
      <trkpt lat="47.17402" lon="-1.66477">
        <ele>85</ele>
        <time>2021-09-04T11:03:05.000Z</time>
      </trkpt>
      <trkpt lat="47.17394" lon="-1.66462">
        <ele>85</ele>
        <time>2021-09-04T11:03:07.000Z</time>
      </trkpt>
      <trkpt lat="47.17386" lon="-1.66448">
        <ele>85</ele>
        <time>2021-09-04T11:03:09.000Z</time>
      </trkpt>
      <trkpt lat="47.17378" lon="-1.66434">
        <ele>85</ele>
        <time>2021-09-04T11:03:11.000Z</time>
      </trkpt>
      <trkpt lat="47.17369" lon="-1.66419">
        <ele>85</ele>
        <time>2021-09-04T11:03:13.000Z</time>
      </trkpt>
      <trkpt lat="47.17362" lon="-1.66405">
        <ele>85</ele>
        <time>2021-09-04T11:03:15.000Z</time>
      </trkpt>
      <trkpt lat="47.17355" lon="-1.66392">
        <ele>86</ele>
        <time>2021-09-04T11:03:17.000Z</time>
      </trkpt>
      <trkpt lat="47.17348" lon="-1.66376">
        <ele>86</ele>
        <time>2021-09-04T11:03:19.000Z</time>
      </trkpt>
      <trkpt lat="47.17341" lon="-1.6636">
        <ele>86</ele>
        <time>2021-09-04T11:03:21.000Z</time>
      </trkpt>
      <trkpt lat="47.17333" lon="-1.66346">
        <ele>86</ele>
        <time>2021-09-04T11:03:23.000Z</time>
      </trkpt>
      <trkpt lat="47.17326" lon="-1.66331">
        <ele>85</ele>
        <time>2021-09-04T11:03:25.000Z</time>
      </trkpt>
      <trkpt lat="47.17318" lon="-1.66316">
        <ele>85</ele>
        <time>2021-09-04T11:03:27.000Z</time>
      </trkpt>
      <trkpt lat="47.17309" lon="-1.66302">
        <ele>84</ele>
        <time>2021-09-04T11:03:29.000Z</time>
      </trkpt>
      <trkpt lat="47.17301" lon="-1.66288">
        <ele>85</ele>
        <time>2021-09-04T11:03:31.000Z</time>
      </trkpt>
      <trkpt lat="47.17295" lon="-1.66273">
        <ele>85</ele>
        <time>2021-09-04T11:03:33.000Z</time>
      </trkpt>
      <trkpt lat="47.17288" lon="-1.6626">
        <ele>84</ele>
        <time>2021-09-04T11:03:35.000Z</time>
      </trkpt>
      <trkpt lat="47.17279" lon="-1.66247">
        <ele>84</ele>
        <time>2021-09-04T11:03:37.000Z</time>
      </trkpt>
      <trkpt lat="47.17271" lon="-1.66234">
        <ele>85</ele>
        <time>2021-09-04T11:03:39.000Z</time>
      </trkpt>
      <trkpt lat="47.17264" lon="-1.66218">
        <ele>85</ele>
        <time>2021-09-04T11:03:41.000Z</time>
      </trkpt>
      <trkpt lat="47.17256" lon="-1.66205">
        <ele>85</ele>
        <time>2021-09-04T11:03:43.000Z</time>
      </trkpt>
      <trkpt lat="47.17248" lon="-1.6619">
        <ele>85</ele>
        <time>2021-09-04T11:03:45.000Z</time>
      </trkpt>
      <trkpt lat="47.17241" lon="-1.66176">
        <ele>84</ele>
        <time>2021-09-04T11:03:47.000Z</time>
      </trkpt>
      <trkpt lat="47.17234" lon="-1.6616">
        <ele>84</ele>
        <time>2021-09-04T11:03:49.000Z</time>
      </trkpt>
      <trkpt lat="47.1723" lon="-1.66144">
        <ele>83</ele>
        <time>2021-09-04T11:03:51.000Z</time>
      </trkpt>
      <trkpt lat="47.17226" lon="-1.66127">
        <ele>82</ele>
        <time>2021-09-04T11:03:53.000Z</time>
      </trkpt>
      <trkpt lat="47.1722" lon="-1.66111">
        <ele>82</ele>
        <time>2021-09-04T11:03:55.000Z</time>
      </trkpt>
      <trkpt lat="47.17215" lon="-1.66095">
        <ele>83</ele>
        <time>2021-09-04T11:03:57.000Z</time>
      </trkpt>
      <trkpt lat="47.17211" lon="-1.66077">
        <ele>83</ele>
        <time>2021-09-04T11:03:59.000Z</time>
      </trkpt>
      <trkpt lat="47.17207" lon="-1.66058">
        <ele>83</ele>
        <time>2021-09-04T11:04:01.000Z</time>
      </trkpt>
      <trkpt lat="47.17203" lon="-1.66039">
        <ele>82</ele>
        <time>2021-09-04T11:04:03.000Z</time>
      </trkpt>
      <trkpt lat="47.17199" lon="-1.6602">
        <ele>82</ele>
        <time>2021-09-04T11:04:05.000Z</time>
      </trkpt>
      <trkpt lat="47.17196" lon="-1.66001">
        <ele>82</ele>
        <time>2021-09-04T11:04:07.000Z</time>
      </trkpt>
      <trkpt lat="47.17192" lon="-1.65982">
        <ele>82</ele>
        <time>2021-09-04T11:04:09.000Z</time>
      </trkpt>
      <trkpt lat="47.17188" lon="-1.65962">
        <ele>81</ele>
        <time>2021-09-04T11:04:11.000Z</time>
      </trkpt>
      <trkpt lat="47.17185" lon="-1.65943">
        <ele>80</ele>
        <time>2021-09-04T11:04:13.000Z</time>
      </trkpt>
      <trkpt lat="47.17181" lon="-1.65924">
        <ele>80</ele>
        <time>2021-09-04T11:04:15.000Z</time>
      </trkpt>
      <trkpt lat="47.17178" lon="-1.65905">
        <ele>80</ele>
        <time>2021-09-04T11:04:17.000Z</time>
      </trkpt>
      <trkpt lat="47.17174" lon="-1.65886">
        <ele>80</ele>
        <time>2021-09-04T11:04:19.000Z</time>
      </trkpt>
      <trkpt lat="47.17171" lon="-1.65866">
        <ele>80</ele>
        <time>2021-09-04T11:04:21.000Z</time>
      </trkpt>
      <trkpt lat="47.17168" lon="-1.65847">
        <ele>80</ele>
        <time>2021-09-04T11:04:23.000Z</time>
      </trkpt>
      <trkpt lat="47.17165" lon="-1.65828">
        <ele>80</ele>
        <time>2021-09-04T11:04:25.000Z</time>
      </trkpt>
      <trkpt lat="47.17162" lon="-1.65809">
        <ele>80</ele>
        <time>2021-09-04T11:04:27.000Z</time>
      </trkpt>
      <trkpt lat="47.1716" lon="-1.6579">
        <ele>79</ele>
        <time>2021-09-04T11:04:29.000Z</time>
      </trkpt>
      <trkpt lat="47.17158" lon="-1.6577">
        <ele>80</ele>
        <time>2021-09-04T11:04:31.000Z</time>
      </trkpt>
      <trkpt lat="47.17156" lon="-1.65751">
        <ele>80</ele>
        <time>2021-09-04T11:04:33.000Z</time>
      </trkpt>
      <trkpt lat="47.17154" lon="-1.65731">
        <ele>79</ele>
        <time>2021-09-04T11:04:35.000Z</time>
      </trkpt>
      <trkpt lat="47.17152" lon="-1.65712">
        <ele>79</ele>
        <time>2021-09-04T11:04:37.000Z</time>
      </trkpt>
      <trkpt lat="47.17151" lon="-1.65692">
        <ele>79</ele>
        <time>2021-09-04T11:04:39.000Z</time>
      </trkpt>
      <trkpt lat="47.1715" lon="-1.65673">
        <ele>79</ele>
        <time>2021-09-04T11:04:41.000Z</time>
      </trkpt>
      <trkpt lat="47.1715" lon="-1.65654">
        <ele>79</ele>
        <time>2021-09-04T11:04:43.000Z</time>
      </trkpt>
      <trkpt lat="47.1715" lon="-1.65635">
        <ele>79</ele>
        <time>2021-09-04T11:04:45.000Z</time>
      </trkpt>
      <trkpt lat="47.17151" lon="-1.65616">
        <ele>79</ele>
        <time>2021-09-04T11:04:47.000Z</time>
      </trkpt>
      <trkpt lat="47.17151" lon="-1.65597">
        <ele>79</ele>
        <time>2021-09-04T11:04:49.000Z</time>
      </trkpt>
      <trkpt lat="47.17152" lon="-1.65577">
        <ele>79</ele>
        <time>2021-09-04T11:04:51.000Z</time>
      </trkpt>
      <trkpt lat="47.17153" lon="-1.65558">
        <ele>79</ele>
        <time>2021-09-04T11:04:53.000Z</time>
      </trkpt>
      <trkpt lat="47.17155" lon="-1.65539">
        <ele>79</ele>
        <time>2021-09-04T11:04:55.000Z</time>
      </trkpt>
      <trkpt lat="47.17156" lon="-1.6552">
        <ele>79</ele>
        <time>2021-09-04T11:04:57.000Z</time>
      </trkpt>
      <trkpt lat="47.17157" lon="-1.655">
        <ele>78</ele>
        <time>2021-09-04T11:04:59.000Z</time>
      </trkpt>
      <trkpt lat="47.17159" lon="-1.6548">
        <ele>78</ele>
        <time>2021-09-04T11:05:01.000Z</time>
      </trkpt>
      <trkpt lat="47.17162" lon="-1.6546">
        <ele>78</ele>
        <time>2021-09-04T11:05:03.000Z</time>
      </trkpt>
      <trkpt lat="47.17164" lon="-1.6544">
        <ele>78</ele>
        <time>2021-09-04T11:05:05.000Z</time>
      </trkpt>
      <trkpt lat="47.17167" lon="-1.6542">
        <ele>78</ele>
        <time>2021-09-04T11:05:07.000Z</time>
      </trkpt>
      <trkpt lat="47.17171" lon="-1.65391">
        <ele>79</ele>
        <time>2021-09-04T11:05:10.000Z</time>
      </trkpt>
      <trkpt lat="47.17173" lon="-1.65372">
        <ele>79</ele>
        <time>2021-09-04T11:05:12.000Z</time>
      </trkpt>
      <trkpt lat="47.17175" lon="-1.65352">
        <ele>79</ele>
        <time>2021-09-04T11:05:14.000Z</time>
      </trkpt>
      <trkpt lat="47.17172" lon="-1.65323">
        <ele>79</ele>
        <time>2021-09-04T11:05:17.000Z</time>
      </trkpt>
      <trkpt lat="47.17161" lon="-1.65301">
        <ele>79</ele>
        <time>2021-09-04T11:05:20.000Z</time>
      </trkpt>
      <trkpt lat="47.17147" lon="-1.65283">
        <ele>79</ele>
        <time>2021-09-04T11:05:23.000Z</time>
      </trkpt>
      <trkpt lat="47.17138" lon="-1.65271">
        <ele>79</ele>
        <time>2021-09-04T11:05:25.000Z</time>
      </trkpt>
      <trkpt lat="47.1713" lon="-1.65259">
        <ele>79</ele>
        <time>2021-09-04T11:05:27.000Z</time>
      </trkpt>
      <trkpt lat="47.17125" lon="-1.65242">
        <ele>78</ele>
        <time>2021-09-04T11:05:29.000Z</time>
      </trkpt>
      <trkpt lat="47.17119" lon="-1.65225">
        <ele>78</ele>
        <time>2021-09-04T11:05:31.000Z</time>
      </trkpt>
      <trkpt lat="47.17113" lon="-1.65207">
        <ele>77</ele>
        <time>2021-09-04T11:05:33.000Z</time>
      </trkpt>
      <trkpt lat="47.1711" lon="-1.65187">
        <ele>77</ele>
        <time>2021-09-04T11:05:35.000Z</time>
      </trkpt>
      <trkpt lat="47.1711" lon="-1.65166">
        <ele>77</ele>
        <time>2021-09-04T11:05:37.000Z</time>
      </trkpt>
      <trkpt lat="47.17109" lon="-1.65146">
        <ele>77</ele>
        <time>2021-09-04T11:05:39.000Z</time>
      </trkpt>
      <trkpt lat="47.17107" lon="-1.65125">
        <ele>77</ele>
        <time>2021-09-04T11:05:41.000Z</time>
      </trkpt>
      <trkpt lat="47.17105" lon="-1.65105">
        <ele>77</ele>
        <time>2021-09-04T11:05:43.000Z</time>
      </trkpt>
      <trkpt lat="47.17104" lon="-1.65084">
        <ele>77</ele>
        <time>2021-09-04T11:05:45.000Z</time>
      </trkpt>
      <trkpt lat="47.17102" lon="-1.65064">
        <ele>77</ele>
        <time>2021-09-04T11:05:47.000Z</time>
      </trkpt>
      <trkpt lat="47.17101" lon="-1.65042">
        <ele>78</ele>
        <time>2021-09-04T11:05:49.000Z</time>
      </trkpt>
      <trkpt lat="47.171" lon="-1.65022">
        <ele>78</ele>
        <time>2021-09-04T11:05:51.000Z</time>
      </trkpt>
      <trkpt lat="47.17098" lon="-1.65001">
        <ele>78</ele>
        <time>2021-09-04T11:05:53.000Z</time>
      </trkpt>
      <trkpt lat="47.17096" lon="-1.6498">
        <ele>77</ele>
        <time>2021-09-04T11:05:55.000Z</time>
      </trkpt>
      <trkpt lat="47.17095" lon="-1.64959">
        <ele>77</ele>
        <time>2021-09-04T11:05:57.000Z</time>
      </trkpt>
      <trkpt lat="47.17093" lon="-1.6494">
        <ele>78</ele>
        <time>2021-09-04T11:05:59.000Z</time>
      </trkpt>
      <trkpt lat="47.17092" lon="-1.64919">
        <ele>78</ele>
        <time>2021-09-04T11:06:01.000Z</time>
      </trkpt>
      <trkpt lat="47.1709" lon="-1.64899">
        <ele>78</ele>
        <time>2021-09-04T11:06:03.000Z</time>
      </trkpt>
      <trkpt lat="47.17089" lon="-1.64879">
        <ele>78</ele>
        <time>2021-09-04T11:06:05.000Z</time>
      </trkpt>
      <trkpt lat="47.17087" lon="-1.64859">
        <ele>79</ele>
        <time>2021-09-04T11:06:07.000Z</time>
      </trkpt>
      <trkpt lat="47.17086" lon="-1.64839">
        <ele>79</ele>
        <time>2021-09-04T11:06:09.000Z</time>
      </trkpt>
      <trkpt lat="47.17084" lon="-1.64819">
        <ele>79</ele>
        <time>2021-09-04T11:06:11.000Z</time>
      </trkpt>
      <trkpt lat="47.17083" lon="-1.64799">
        <ele>79</ele>
        <time>2021-09-04T11:06:13.000Z</time>
      </trkpt>
      <trkpt lat="47.17082" lon="-1.64779">
        <ele>79</ele>
        <time>2021-09-04T11:06:15.000Z</time>
      </trkpt>
      <trkpt lat="47.17081" lon="-1.64759">
        <ele>79</ele>
        <time>2021-09-04T11:06:17.000Z</time>
      </trkpt>
      <trkpt lat="47.1708" lon="-1.64739">
        <ele>79</ele>
        <time>2021-09-04T11:06:19.000Z</time>
      </trkpt>
      <trkpt lat="47.17079" lon="-1.6472">
        <ele>79</ele>
        <time>2021-09-04T11:06:21.000Z</time>
      </trkpt>
      <trkpt lat="47.17078" lon="-1.647">
        <ele>79</ele>
        <time>2021-09-04T11:06:23.000Z</time>
      </trkpt>
      <trkpt lat="47.17078" lon="-1.6468">
        <ele>79</ele>
        <time>2021-09-04T11:06:25.000Z</time>
      </trkpt>
      <trkpt lat="47.17078" lon="-1.64661">
        <ele>79</ele>
        <time>2021-09-04T11:06:27.000Z</time>
      </trkpt>
      <trkpt lat="47.17077" lon="-1.64641">
        <ele>79</ele>
        <time>2021-09-04T11:06:29.000Z</time>
      </trkpt>
      <trkpt lat="47.17077" lon="-1.64621">
        <ele>79</ele>
        <time>2021-09-04T11:06:31.000Z</time>
      </trkpt>
      <trkpt lat="47.17077" lon="-1.64602">
        <ele>79</ele>
        <time>2021-09-04T11:06:33.000Z</time>
      </trkpt>
      <trkpt lat="47.17078" lon="-1.64582">
        <ele>79</ele>
        <time>2021-09-04T11:06:35.000Z</time>
      </trkpt>
      <trkpt lat="47.17078" lon="-1.64562">
        <ele>79</ele>
        <time>2021-09-04T11:06:37.000Z</time>
      </trkpt>
      <trkpt lat="47.17078" lon="-1.64543">
        <ele>79</ele>
        <time>2021-09-04T11:06:39.000Z</time>
      </trkpt>
      <trkpt lat="47.17079" lon="-1.64524">
        <ele>80</ele>
        <time>2021-09-04T11:06:41.000Z</time>
      </trkpt>
      <trkpt lat="47.17079" lon="-1.64504">
        <ele>80</ele>
        <time>2021-09-04T11:06:43.000Z</time>
      </trkpt>
      <trkpt lat="47.1708" lon="-1.64486">
        <ele>81</ele>
        <time>2021-09-04T11:06:45.000Z</time>
      </trkpt>
      <trkpt lat="47.17081" lon="-1.64467">
        <ele>80</ele>
        <time>2021-09-04T11:06:47.000Z</time>
      </trkpt>
      <trkpt lat="47.17082" lon="-1.64447">
        <ele>80</ele>
        <time>2021-09-04T11:06:49.000Z</time>
      </trkpt>
      <trkpt lat="47.17083" lon="-1.64428">
        <ele>80</ele>
        <time>2021-09-04T11:06:51.000Z</time>
      </trkpt>
      <trkpt lat="47.17085" lon="-1.6441">
        <ele>80</ele>
        <time>2021-09-04T11:06:53.000Z</time>
      </trkpt>
      <trkpt lat="47.17086" lon="-1.64391">
        <ele>81</ele>
        <time>2021-09-04T11:06:55.000Z</time>
      </trkpt>
      <trkpt lat="47.17087" lon="-1.64372">
        <ele>80</ele>
        <time>2021-09-04T11:06:57.000Z</time>
      </trkpt>
      <trkpt lat="47.17089" lon="-1.64353">
        <ele>81</ele>
        <time>2021-09-04T11:06:59.000Z</time>
      </trkpt>
      <trkpt lat="47.17091" lon="-1.64334">
        <ele>81</ele>
        <time>2021-09-04T11:07:01.000Z</time>
      </trkpt>
      <trkpt lat="47.17093" lon="-1.64315">
        <ele>81</ele>
        <time>2021-09-04T11:07:03.000Z</time>
      </trkpt>
      <trkpt lat="47.17095" lon="-1.64296">
        <ele>81</ele>
        <time>2021-09-04T11:07:05.000Z</time>
      </trkpt>
      <trkpt lat="47.17097" lon="-1.64277">
        <ele>81</ele>
        <time>2021-09-04T11:07:07.000Z</time>
      </trkpt>
      <trkpt lat="47.17099" lon="-1.64258">
        <ele>81</ele>
        <time>2021-09-04T11:07:09.000Z</time>
      </trkpt>
      <trkpt lat="47.17101" lon="-1.64239">
        <ele>81</ele>
        <time>2021-09-04T11:07:11.000Z</time>
      </trkpt>
      <trkpt lat="47.17102" lon="-1.64221">
        <ele>80</ele>
        <time>2021-09-04T11:07:13.000Z</time>
      </trkpt>
      <trkpt lat="47.17105" lon="-1.64202">
        <ele>80</ele>
        <time>2021-09-04T11:07:15.000Z</time>
      </trkpt>
      <trkpt lat="47.17107" lon="-1.64184">
        <ele>80</ele>
        <time>2021-09-04T11:07:17.000Z</time>
      </trkpt>
      <trkpt lat="47.17109" lon="-1.64166">
        <ele>80</ele>
        <time>2021-09-04T11:07:19.000Z</time>
      </trkpt>
      <trkpt lat="47.17111" lon="-1.64147">
        <ele>80</ele>
        <time>2021-09-04T11:07:21.000Z</time>
      </trkpt>
      <trkpt lat="47.17113" lon="-1.64129">
        <ele>80</ele>
        <time>2021-09-04T11:07:23.000Z</time>
      </trkpt>
      <trkpt lat="47.17115" lon="-1.64111">
        <ele>80</ele>
        <time>2021-09-04T11:07:25.000Z</time>
      </trkpt>
      <trkpt lat="47.17117" lon="-1.64092">
        <ele>80</ele>
        <time>2021-09-04T11:07:27.000Z</time>
      </trkpt>
      <trkpt lat="47.17119" lon="-1.64073">
        <ele>80</ele>
        <time>2021-09-04T11:07:29.000Z</time>
      </trkpt>
      <trkpt lat="47.17122" lon="-1.64055">
        <ele>80</ele>
        <time>2021-09-04T11:07:31.000Z</time>
      </trkpt>
      <trkpt lat="47.17124" lon="-1.64035">
        <ele>80</ele>
        <time>2021-09-04T11:07:33.000Z</time>
      </trkpt>
      <trkpt lat="47.17126" lon="-1.64016">
        <ele>80</ele>
        <time>2021-09-04T11:07:35.000Z</time>
      </trkpt>
      <trkpt lat="47.17128" lon="-1.63998">
        <ele>80</ele>
        <time>2021-09-04T11:07:37.000Z</time>
      </trkpt>
      <trkpt lat="47.17129" lon="-1.6398">
        <ele>80</ele>
        <time>2021-09-04T11:07:39.000Z</time>
      </trkpt>
      <trkpt lat="47.17129" lon="-1.63964">
        <ele>79</ele>
        <time>2021-09-04T11:07:41.000Z</time>
      </trkpt>
      <trkpt lat="47.17123" lon="-1.63948">
        <ele>79</ele>
        <time>2021-09-04T11:07:43.000Z</time>
      </trkpt>
      <trkpt lat="47.17116" lon="-1.63931">
        <ele>79</ele>
        <time>2021-09-04T11:07:45.000Z</time>
      </trkpt>
      <trkpt lat="47.17109" lon="-1.63914">
        <ele>79</ele>
        <time>2021-09-04T11:07:47.000Z</time>
      </trkpt>
      <trkpt lat="47.17102" lon="-1.63896">
        <ele>79</ele>
        <time>2021-09-04T11:07:49.000Z</time>
      </trkpt>
      <trkpt lat="47.17096" lon="-1.63878">
        <ele>79</ele>
        <time>2021-09-04T11:07:51.000Z</time>
      </trkpt>
      <trkpt lat="47.1709" lon="-1.63861">
        <ele>79</ele>
        <time>2021-09-04T11:07:53.000Z</time>
      </trkpt>
      <trkpt lat="47.17084" lon="-1.63844">
        <ele>79</ele>
        <time>2021-09-04T11:07:55.000Z</time>
      </trkpt>
      <trkpt lat="47.17078" lon="-1.63827">
        <ele>78</ele>
        <time>2021-09-04T11:07:57.000Z</time>
      </trkpt>
      <trkpt lat="47.17072" lon="-1.63809">
        <ele>78</ele>
        <time>2021-09-04T11:07:59.000Z</time>
      </trkpt>
      <trkpt lat="47.17066" lon="-1.63792">
        <ele>78</ele>
        <time>2021-09-04T11:08:01.000Z</time>
      </trkpt>
      <trkpt lat="47.17059" lon="-1.63776">
        <ele>78</ele>
        <time>2021-09-04T11:08:03.000Z</time>
      </trkpt>
      <trkpt lat="47.17049" lon="-1.63763">
        <ele>78</ele>
        <time>2021-09-04T11:08:05.000Z</time>
      </trkpt>
      <trkpt lat="47.17037" lon="-1.63755">
        <ele>78</ele>
        <time>2021-09-04T11:08:07.000Z</time>
      </trkpt>
      <trkpt lat="47.17025" lon="-1.6375">
        <ele>78</ele>
        <time>2021-09-04T11:08:09.000Z</time>
      </trkpt>
      <trkpt lat="47.17012" lon="-1.63745">
        <ele>78</ele>
        <time>2021-09-04T11:08:11.000Z</time>
      </trkpt>
      <trkpt lat="47.17" lon="-1.63741">
        <ele>78</ele>
        <time>2021-09-04T11:08:13.000Z</time>
      </trkpt>
      <trkpt lat="47.16987" lon="-1.63736">
        <ele>78</ele>
        <time>2021-09-04T11:08:15.000Z</time>
      </trkpt>
      <trkpt lat="47.16974" lon="-1.63732">
        <ele>78</ele>
        <time>2021-09-04T11:08:17.000Z</time>
      </trkpt>
      <trkpt lat="47.16962" lon="-1.63727">
        <ele>77</ele>
        <time>2021-09-04T11:08:19.000Z</time>
      </trkpt>
      <trkpt lat="47.16949" lon="-1.63723">
        <ele>78</ele>
        <time>2021-09-04T11:08:21.000Z</time>
      </trkpt>
      <trkpt lat="47.16937" lon="-1.63718">
        <ele>77</ele>
        <time>2021-09-04T11:08:23.000Z</time>
      </trkpt>
      <trkpt lat="47.16924" lon="-1.63713">
        <ele>77</ele>
        <time>2021-09-04T11:08:25.000Z</time>
      </trkpt>
      <trkpt lat="47.16912" lon="-1.63708">
        <ele>78</ele>
        <time>2021-09-04T11:08:27.000Z</time>
      </trkpt>
      <trkpt lat="47.16899" lon="-1.63703">
        <ele>77</ele>
        <time>2021-09-04T11:08:29.000Z</time>
      </trkpt>
      <trkpt lat="47.16886" lon="-1.63699">
        <ele>78</ele>
        <time>2021-09-04T11:08:31.000Z</time>
      </trkpt>
      <trkpt lat="47.16874" lon="-1.63694">
        <ele>78</ele>
        <time>2021-09-04T11:08:33.000Z</time>
      </trkpt>
      <trkpt lat="47.16861" lon="-1.63688">
        <ele>78</ele>
        <time>2021-09-04T11:08:35.000Z</time>
      </trkpt>
      <trkpt lat="47.16849" lon="-1.63684">
        <ele>77</ele>
        <time>2021-09-04T11:08:37.000Z</time>
      </trkpt>
      <trkpt lat="47.16837" lon="-1.63679">
        <ele>77</ele>
        <time>2021-09-04T11:08:39.000Z</time>
      </trkpt>
      <trkpt lat="47.16826" lon="-1.63674">
        <ele>77</ele>
        <time>2021-09-04T11:08:41.000Z</time>
      </trkpt>
      <trkpt lat="47.16813" lon="-1.63669">
        <ele>77</ele>
        <time>2021-09-04T11:08:43.000Z</time>
      </trkpt>
      <trkpt lat="47.16801" lon="-1.63664">
        <ele>76</ele>
        <time>2021-09-04T11:08:45.000Z</time>
      </trkpt>
      <trkpt lat="47.16788" lon="-1.6366">
        <ele>76</ele>
        <time>2021-09-04T11:08:47.000Z</time>
      </trkpt>
      <trkpt lat="47.16777" lon="-1.63655">
        <ele>76</ele>
        <time>2021-09-04T11:08:49.000Z</time>
      </trkpt>
      <trkpt lat="47.16765" lon="-1.63652">
        <ele>75</ele>
        <time>2021-09-04T11:08:51.000Z</time>
      </trkpt>
      <trkpt lat="47.16754" lon="-1.63649">
        <ele>76</ele>
        <time>2021-09-04T11:08:53.000Z</time>
      </trkpt>
      <trkpt lat="47.16744" lon="-1.63644">
        <ele>76</ele>
        <time>2021-09-04T11:08:55.000Z</time>
      </trkpt>
      <trkpt lat="47.16741" lon="-1.63629">
        <ele>77</ele>
        <time>2021-09-04T11:08:57.000Z</time>
      </trkpt>
      <trkpt lat="47.16747" lon="-1.63613">
        <ele>77</ele>
        <time>2021-09-04T11:08:59.000Z</time>
      </trkpt>
      <trkpt lat="47.16756" lon="-1.63599">
        <ele>77</ele>
        <time>2021-09-04T11:09:01.000Z</time>
      </trkpt>
      <trkpt lat="47.16765" lon="-1.63584">
        <ele>77</ele>
        <time>2021-09-04T11:09:03.000Z</time>
      </trkpt>
      <trkpt lat="47.16773" lon="-1.63569">
        <ele>78</ele>
        <time>2021-09-04T11:09:05.000Z</time>
      </trkpt>
      <trkpt lat="47.16781" lon="-1.63554">
        <ele>78</ele>
        <time>2021-09-04T11:09:07.000Z</time>
      </trkpt>
      <trkpt lat="47.1679" lon="-1.6354">
        <ele>78</ele>
        <time>2021-09-04T11:09:09.000Z</time>
      </trkpt>
      <trkpt lat="47.16799" lon="-1.63526">
        <ele>79</ele>
        <time>2021-09-04T11:09:11.000Z</time>
      </trkpt>
      <trkpt lat="47.16807" lon="-1.63512">
        <ele>79</ele>
        <time>2021-09-04T11:09:13.000Z</time>
      </trkpt>
      <trkpt lat="47.16816" lon="-1.63497">
        <ele>79</ele>
        <time>2021-09-04T11:09:15.000Z</time>
      </trkpt>
      <trkpt lat="47.16824" lon="-1.63482">
        <ele>79</ele>
        <time>2021-09-04T11:09:17.000Z</time>
      </trkpt>
      <trkpt lat="47.16833" lon="-1.63467">
        <ele>79</ele>
        <time>2021-09-04T11:09:19.000Z</time>
      </trkpt>
      <trkpt lat="47.16841" lon="-1.63453">
        <ele>79</ele>
        <time>2021-09-04T11:09:21.000Z</time>
      </trkpt>
      <trkpt lat="47.16849" lon="-1.63438">
        <ele>79</ele>
        <time>2021-09-04T11:09:23.000Z</time>
      </trkpt>
      <trkpt lat="47.16857" lon="-1.63425">
        <ele>79</ele>
        <time>2021-09-04T11:09:25.000Z</time>
      </trkpt>
      <trkpt lat="47.16866" lon="-1.6341">
        <ele>80</ele>
        <time>2021-09-04T11:09:27.000Z</time>
      </trkpt>
      <trkpt lat="47.16874" lon="-1.63396">
        <ele>80</ele>
        <time>2021-09-04T11:09:29.000Z</time>
      </trkpt>
      <trkpt lat="47.16882" lon="-1.63382">
        <ele>80</ele>
        <time>2021-09-04T11:09:31.000Z</time>
      </trkpt>
      <trkpt lat="47.16891" lon="-1.63367">
        <ele>80</ele>
        <time>2021-09-04T11:09:33.000Z</time>
      </trkpt>
      <trkpt lat="47.169" lon="-1.63354">
        <ele>80</ele>
        <time>2021-09-04T11:09:35.000Z</time>
      </trkpt>
      <trkpt lat="47.16909" lon="-1.6334">
        <ele>79</ele>
        <time>2021-09-04T11:09:37.000Z</time>
      </trkpt>
      <trkpt lat="47.16918" lon="-1.63327">
        <ele>79</ele>
        <time>2021-09-04T11:09:39.000Z</time>
      </trkpt>
      <trkpt lat="47.16927" lon="-1.63313">
        <ele>79</ele>
        <time>2021-09-04T11:09:41.000Z</time>
      </trkpt>
      <trkpt lat="47.16936" lon="-1.63299">
        <ele>79</ele>
        <time>2021-09-04T11:09:43.000Z</time>
      </trkpt>
      <trkpt lat="47.16945" lon="-1.63286">
        <ele>79</ele>
        <time>2021-09-04T11:09:45.000Z</time>
      </trkpt>
      <trkpt lat="47.16953" lon="-1.63274">
        <ele>78</ele>
        <time>2021-09-04T11:09:47.000Z</time>
      </trkpt>
      <trkpt lat="47.16961" lon="-1.63261">
        <ele>79</ele>
        <time>2021-09-04T11:09:49.000Z</time>
      </trkpt>
      <trkpt lat="47.16964" lon="-1.63249">
        <ele>78</ele>
        <time>2021-09-04T11:09:51.000Z</time>
      </trkpt>
      <trkpt lat="47.16955" lon="-1.6324">
        <ele>78</ele>
        <time>2021-09-04T11:09:53.000Z</time>
      </trkpt>
      <trkpt lat="47.16944" lon="-1.63231">
        <ele>78</ele>
        <time>2021-09-04T11:09:55.000Z</time>
      </trkpt>
      <trkpt lat="47.16935" lon="-1.63218">
        <ele>78</ele>
        <time>2021-09-04T11:09:57.000Z</time>
      </trkpt>
      <trkpt lat="47.16926" lon="-1.63204">
        <ele>79</ele>
        <time>2021-09-04T11:09:59.000Z</time>
      </trkpt>
      <trkpt lat="47.16918" lon="-1.6319">
        <ele>78</ele>
        <time>2021-09-04T11:10:01.000Z</time>
      </trkpt>
      <trkpt lat="47.1691" lon="-1.63174">
        <ele>78</ele>
        <time>2021-09-04T11:10:03.000Z</time>
      </trkpt>
      <trkpt lat="47.16903" lon="-1.63157">
        <ele>78</ele>
        <time>2021-09-04T11:10:05.000Z</time>
      </trkpt>
      <trkpt lat="47.16897" lon="-1.6314">
        <ele>78</ele>
        <time>2021-09-04T11:10:07.000Z</time>
      </trkpt>
      <trkpt lat="47.16892" lon="-1.63121">
        <ele>78</ele>
        <time>2021-09-04T11:10:09.000Z</time>
      </trkpt>
      <trkpt lat="47.16888" lon="-1.63102">
        <ele>78</ele>
        <time>2021-09-04T11:10:11.000Z</time>
      </trkpt>
      <trkpt lat="47.16884" lon="-1.63082">
        <ele>78</ele>
        <time>2021-09-04T11:10:13.000Z</time>
      </trkpt>
      <trkpt lat="47.16882" lon="-1.63062">
        <ele>78</ele>
        <time>2021-09-04T11:10:15.000Z</time>
      </trkpt>
      <trkpt lat="47.16881" lon="-1.63042">
        <ele>78</ele>
        <time>2021-09-04T11:10:17.000Z</time>
      </trkpt>
      <trkpt lat="47.16881" lon="-1.63022">
        <ele>78</ele>
        <time>2021-09-04T11:10:19.000Z</time>
      </trkpt>
      <trkpt lat="47.16883" lon="-1.63002">
        <ele>77</ele>
        <time>2021-09-04T11:10:21.000Z</time>
      </trkpt>
      <trkpt lat="47.16885" lon="-1.62982">
        <ele>77</ele>
        <time>2021-09-04T11:10:23.000Z</time>
      </trkpt>
      <trkpt lat="47.16886" lon="-1.62962">
        <ele>77</ele>
        <time>2021-09-04T11:10:25.000Z</time>
      </trkpt>
      <trkpt lat="47.16886" lon="-1.62942">
        <ele>77</ele>
        <time>2021-09-04T11:10:27.000Z</time>
      </trkpt>
      <trkpt lat="47.16883" lon="-1.62922">
        <ele>77</ele>
        <time>2021-09-04T11:10:29.000Z</time>
      </trkpt>
      <trkpt lat="47.16878" lon="-1.62903">
        <ele>76</ele>
        <time>2021-09-04T11:10:31.000Z</time>
      </trkpt>
      <trkpt lat="47.16869" lon="-1.62885">
        <ele>75</ele>
        <time>2021-09-04T11:10:33.000Z</time>
      </trkpt>
      <trkpt lat="47.16858" lon="-1.62871">
        <ele>74</ele>
        <time>2021-09-04T11:10:35.000Z</time>
      </trkpt>
      <trkpt lat="47.16845" lon="-1.62859">
        <ele>73</ele>
        <time>2021-09-04T11:10:37.000Z</time>
      </trkpt>
      <trkpt lat="47.16833" lon="-1.62846">
        <ele>72</ele>
        <time>2021-09-04T11:10:39.000Z</time>
      </trkpt>
      <trkpt lat="47.1682" lon="-1.62833">
        <ele>71</ele>
        <time>2021-09-04T11:10:41.000Z</time>
      </trkpt>
      <trkpt lat="47.16806" lon="-1.62821">
        <ele>71</ele>
        <time>2021-09-04T11:10:43.000Z</time>
      </trkpt>
      <trkpt lat="47.16793" lon="-1.62809">
        <ele>70</ele>
        <time>2021-09-04T11:10:45.000Z</time>
      </trkpt>
      <trkpt lat="47.1678" lon="-1.62796">
        <ele>70</ele>
        <time>2021-09-04T11:10:47.000Z</time>
      </trkpt>
      <trkpt lat="47.16767" lon="-1.62785">
        <ele>70</ele>
        <time>2021-09-04T11:10:49.000Z</time>
      </trkpt>
      <trkpt lat="47.16755" lon="-1.62773">
        <ele>71</ele>
        <time>2021-09-04T11:10:51.000Z</time>
      </trkpt>
      <trkpt lat="47.16744" lon="-1.62762">
        <ele>71</ele>
        <time>2021-09-04T11:10:53.000Z</time>
      </trkpt>
      <trkpt lat="47.16734" lon="-1.62749">
        <ele>72</ele>
        <time>2021-09-04T11:10:55.000Z</time>
      </trkpt>
      <trkpt lat="47.16725" lon="-1.62735">
        <ele>72</ele>
        <time>2021-09-04T11:10:57.000Z</time>
      </trkpt>
      <trkpt lat="47.16719" lon="-1.6272">
        <ele>72</ele>
        <time>2021-09-04T11:10:59.000Z</time>
      </trkpt>
      <trkpt lat="47.16715" lon="-1.62704">
        <ele>72</ele>
        <time>2021-09-04T11:11:01.000Z</time>
      </trkpt>
      <trkpt lat="47.16721" lon="-1.62689">
        <ele>71</ele>
        <time>2021-09-04T11:11:03.000Z</time>
      </trkpt>
      <trkpt lat="47.16732" lon="-1.62681">
        <ele>70</ele>
        <time>2021-09-04T11:11:05.000Z</time>
      </trkpt>
      <trkpt lat="47.16742" lon="-1.62674">
        <ele>70</ele>
        <time>2021-09-04T11:11:07.000Z</time>
      </trkpt>
      <trkpt lat="47.16752" lon="-1.62669">
        <ele>71</ele>
        <time>2021-09-04T11:11:09.000Z</time>
      </trkpt>
      <trkpt lat="47.16762" lon="-1.62673">
        <ele>70</ele>
        <time>2021-09-04T11:11:11.000Z</time>
      </trkpt>
      <trkpt lat="47.16771" lon="-1.62679">
        <ele>70</ele>
        <time>2021-09-04T11:11:13.000Z</time>
      </trkpt>
      <trkpt lat="47.1678" lon="-1.62672">
        <ele>70</ele>
        <time>2021-09-04T11:11:15.000Z</time>
      </trkpt>
      <trkpt lat="47.1678" lon="-1.62658">
        <ele>70</ele>
        <time>2021-09-04T11:11:18.000Z</time>
      </trkpt>
    </trkseg>
  </trk>
</gpx>